<?xml version='1.0' encoding='UTF-8'?><gpx version="1.1" creator="JPX - https://github.com/jenetics/jpx" xmlns="http://www.topografix.com/GPX/1/1"><trk><trkseg><trkpt lat="42.0596197" lon="13.5433897"><ele>695.0</ele><time>2026-05-01T07:33:01.029Z</time></trkpt><trkpt lat="42.0597085" lon="13.5433501"><ele>695.0</ele><time>2026-05-01T07:33:27.046Z</time></trkpt><trkpt lat="42.0597466" lon="13.5434509"><ele>695.0</ele><time>2026-05-01T07:36:15.049Z</time></trkpt><trkpt lat="42.059755" lon="13.5435632"><ele>695.0</ele><time>2026-05-01T07:36:17.048Z</time></trkpt><trkpt lat="42.0597655" lon="13.5436812"><ele>695.0</ele><time>2026-05-01T07:36:19.047Z</time></trkpt><trkpt lat="42.0598136" lon="13.5437899"><ele>695.0</ele><time>2026-05-01T07:36:22.05Z</time></trkpt><trkpt lat="42.059859" lon="13.5439039"><ele>695.0</ele><time>2026-05-01T07:36:24.048Z</time></trkpt><trkpt lat="42.0598537" lon="13.5439904"><ele>695.0</ele><time>2026-05-01T07:36:25.049Z</time></trkpt><trkpt lat="42.0598411" lon="13.5440777"><ele>695.0</ele><time>2026-05-01T07:36:26.062Z</time></trkpt><trkpt lat="42.0598143" lon="13.5441926"><ele>695.0</ele><time>2026-05-01T07:36:28.048Z</time></trkpt><trkpt lat="42.0598258" lon="13.5443012"><ele>695.0</ele><time>2026-05-01T07:36:30.051Z</time></trkpt><trkpt lat="42.0598818" lon="13.5443794"><ele>695.0</ele><time>2026-05-01T07:36:32.046Z</time></trkpt><trkpt lat="42.0599686" lon="13.5444136"><ele>695.0</ele><time>2026-05-01T07:36:35.047Z</time></trkpt><trkpt lat="42.0600206" lon="13.5444899"><ele>695.0</ele><time>2026-05-01T07:36:37.054Z</time></trkpt><trkpt lat="42.0600152" lon="13.5446501"><ele>695.0</ele><time>2026-05-01T07:36:39.036Z</time></trkpt><trkpt lat="42.0599986" lon="13.5447387"><ele>695.0</ele><time>2026-05-01T07:36:40.054Z</time></trkpt><trkpt lat="42.0599809" lon="13.5448258"><ele>695.0</ele><time>2026-05-01T07:36:41.027Z</time></trkpt><trkpt lat="42.0599656" lon="13.5449211"><ele>695.0</ele><time>2026-05-01T07:36:42.03Z</time></trkpt><trkpt lat="42.0599468" lon="13.5450243"><ele>694.8</ele><time>2026-05-01T07:36:43.027Z</time></trkpt><trkpt lat="42.0599303" lon="13.5451349"><ele>694.6</ele><time>2026-05-01T07:36:44.028Z</time></trkpt><trkpt lat="42.0599105" lon="13.5452382"><ele>694.4000000000001</ele><time>2026-05-01T07:36:45.05Z</time></trkpt><trkpt lat="42.0598921" lon="13.5453698"><ele>694.2</ele><time>2026-05-01T07:36:46.049Z</time></trkpt><trkpt lat="42.0598689" lon="13.5455152"><ele>694.0</ele><time>2026-05-01T07:36:47.074Z</time></trkpt><trkpt lat="42.0598385" lon="13.5456677"><ele>694.25</ele><time>2026-05-01T07:36:48.035Z</time></trkpt><trkpt lat="42.0598124" lon="13.5458356"><ele>694.5</ele><time>2026-05-01T07:36:49.043Z</time></trkpt><trkpt lat="42.0597838" lon="13.5460139"><ele>694.75</ele><time>2026-05-01T07:36:50.061Z</time></trkpt><trkpt lat="42.0597549" lon="13.5461895"><ele>695.0</ele><time>2026-05-01T07:36:51.048Z</time></trkpt><trkpt lat="42.059728" lon="13.5463617"><ele>695.0</ele><time>2026-05-01T07:36:52.048Z</time></trkpt><trkpt lat="42.0597027" lon="13.5465334"><ele>695.0</ele><time>2026-05-01T07:36:53.056Z</time></trkpt><trkpt lat="42.0596782" lon="13.5467067"><ele>695.0</ele><time>2026-05-01T07:36:54.056Z</time></trkpt><trkpt lat="42.0596494" lon="13.5468851"><ele>695.0</ele><time>2026-05-01T07:36:55.052Z</time></trkpt><trkpt lat="42.0596193" lon="13.5470769"><ele>695.25</ele><time>2026-05-01T07:36:56.05Z</time></trkpt><trkpt lat="42.0595945" lon="13.547271"><ele>695.5</ele><time>2026-05-01T07:36:57.053Z</time></trkpt><trkpt lat="42.0595613" lon="13.5474586"><ele>695.75</ele><time>2026-05-01T07:36:58.061Z</time></trkpt><trkpt lat="42.05953" lon="13.5476466"><ele>696.0</ele><time>2026-05-01T07:36:59.058Z</time></trkpt><trkpt lat="42.0594966" lon="13.5478291"><ele>695.75</ele><time>2026-05-01T07:37:00.047Z</time></trkpt><trkpt lat="42.0594684" lon="13.5480121"><ele>695.5</ele><time>2026-05-01T07:37:01.059Z</time></trkpt><trkpt lat="42.0594372" lon="13.5481972"><ele>695.25</ele><time>2026-05-01T07:37:02.048Z</time></trkpt><trkpt lat="42.059408" lon="13.5483795"><ele>695.0</ele><time>2026-05-01T07:37:03.049Z</time></trkpt><trkpt lat="42.059377" lon="13.5485631"><ele>695.5</ele><time>2026-05-01T07:37:04.056Z</time></trkpt><trkpt lat="42.0593467" lon="13.5487462"><ele>696.0</ele><time>2026-05-01T07:37:05.053Z</time></trkpt><trkpt lat="42.0593173" lon="13.5489307"><ele>696.5</ele><time>2026-05-01T07:37:06.054Z</time></trkpt><trkpt lat="42.0592896" lon="13.5491209"><ele>697.0</ele><time>2026-05-01T07:37:07.056Z</time></trkpt><trkpt lat="42.0592581" lon="13.5493113"><ele>697.0</ele><time>2026-05-01T07:37:08.046Z</time></trkpt><trkpt lat="42.0592253" lon="13.5495077"><ele>697.0</ele><time>2026-05-01T07:37:09.057Z</time></trkpt><trkpt lat="42.0591928" lon="13.5497015"><ele>697.0</ele><time>2026-05-01T07:37:10.049Z</time></trkpt><trkpt lat="42.0591289" lon="13.5500893"><ele>697.0</ele><time>2026-05-01T07:37:12.048Z</time></trkpt><trkpt lat="42.0590971" lon="13.5502797"><ele>697.0</ele><time>2026-05-01T07:37:13.044Z</time></trkpt><trkpt lat="42.0590654" lon="13.5504738"><ele>697.0</ele><time>2026-05-01T07:37:14.055Z</time></trkpt><trkpt lat="42.0590343" lon="13.5506653"><ele>697.0</ele><time>2026-05-01T07:37:15.055Z</time></trkpt><trkpt lat="42.059" lon="13.5508549"><ele>696.5</ele><time>2026-05-01T07:37:16.051Z</time></trkpt><trkpt lat="42.0589703" lon="13.5510484"><ele>696.0</ele><time>2026-05-01T07:37:17.055Z</time></trkpt><trkpt lat="42.0589372" lon="13.5512402"><ele>695.5</ele><time>2026-05-01T07:37:18.053Z</time></trkpt><trkpt lat="42.0589051" lon="13.5514346"><ele>695.0</ele><time>2026-05-01T07:37:19.043Z</time></trkpt><trkpt lat="42.0588723" lon="13.55163"><ele>694.3333333333333</ele><time>2026-05-01T07:37:20.051Z</time></trkpt><trkpt lat="42.0588419" lon="13.551826"><ele>693.6666666666666</ele><time>2026-05-01T07:37:21.049Z</time></trkpt><trkpt lat="42.0588069" lon="13.5520246"><ele>693.0</ele><time>2026-05-01T07:37:22.047Z</time></trkpt><trkpt lat="42.0587746" lon="13.5522249"><ele>693.0</ele><time>2026-05-01T07:37:23.042Z</time></trkpt><trkpt lat="42.0587402" lon="13.5524319"><ele>693.0</ele><time>2026-05-01T07:37:24.042Z</time></trkpt><trkpt lat="42.0587059" lon="13.5526386"><ele>693.0</ele><time>2026-05-01T07:37:25.048Z</time></trkpt><trkpt lat="42.0586718" lon="13.5528516"><ele>693.6666666666666</ele><time>2026-05-01T07:37:26.051Z</time></trkpt><trkpt lat="42.0586333" lon="13.553061"><ele>694.3333333333333</ele><time>2026-05-01T07:37:27.05Z</time></trkpt><trkpt lat="42.0586002" lon="13.5532726"><ele>695.0</ele><time>2026-05-01T07:37:28.047Z</time></trkpt><trkpt lat="42.0585664" lon="13.5534948"><ele>696.3333333333333</ele><time>2026-05-01T07:37:29.049Z</time></trkpt><trkpt lat="42.0585309" lon="13.553715"><ele>697.6666666666666</ele><time>2026-05-01T07:37:30.047Z</time></trkpt><trkpt lat="42.0584992" lon="13.5539289"><ele>699.0</ele><time>2026-05-01T07:37:31.049Z</time></trkpt><trkpt lat="42.0584659" lon="13.5541396"><ele>699.0</ele><time>2026-05-01T07:37:32.047Z</time></trkpt><trkpt lat="42.0584344" lon="13.5543491"><ele>699.0</ele><time>2026-05-01T07:37:33.042Z</time></trkpt><trkpt lat="42.0583983" lon="13.5545516"><ele>699.0</ele><time>2026-05-01T07:37:34.047Z</time></trkpt><trkpt lat="42.0583683" lon="13.5547426"><ele>698.75</ele><time>2026-05-01T07:37:35.05Z</time></trkpt><trkpt lat="42.0583447" lon="13.5549294"><ele>698.5</ele><time>2026-05-01T07:37:36.048Z</time></trkpt><trkpt lat="42.0583218" lon="13.555122"><ele>698.25</ele><time>2026-05-01T07:37:37.046Z</time></trkpt><trkpt lat="42.0583" lon="13.555308"><ele>698.0</ele><time>2026-05-01T07:37:38.045Z</time></trkpt><trkpt lat="42.0582795" lon="13.555498"><ele>697.5</ele><time>2026-05-01T07:37:39.048Z</time></trkpt><trkpt lat="42.0582562" lon="13.5556867"><ele>697.0</ele><time>2026-05-01T07:37:40.047Z</time></trkpt><trkpt lat="42.0582372" lon="13.5558824"><ele>696.5</ele><time>2026-05-01T07:37:41.044Z</time></trkpt><trkpt lat="42.0582183" lon="13.5560667"><ele>696.0</ele><time>2026-05-01T07:37:42.048Z</time></trkpt><trkpt lat="42.0581981" lon="13.5562595"><ele>696.0</ele><time>2026-05-01T07:37:43.044Z</time></trkpt><trkpt lat="42.0581842" lon="13.5564502"><ele>696.0</ele><time>2026-05-01T07:37:44.043Z</time></trkpt><trkpt lat="42.0581708" lon="13.5566458"><ele>696.0</ele><time>2026-05-01T07:37:45.046Z</time></trkpt><trkpt lat="42.058159" lon="13.5568412"><ele>696.0</ele><time>2026-05-01T07:37:46.048Z</time></trkpt><trkpt lat="42.0581522" lon="13.55703"><ele>695.75</ele><time>2026-05-01T07:37:47.04Z</time></trkpt><trkpt lat="42.0581441" lon="13.557224"><ele>695.5</ele><time>2026-05-01T07:37:48.05Z</time></trkpt><trkpt lat="42.0581333" lon="13.5574211"><ele>695.25</ele><time>2026-05-01T07:37:49.045Z</time></trkpt><trkpt lat="42.0581242" lon="13.5576125"><ele>695.0</ele><time>2026-05-01T07:37:50.044Z</time></trkpt><trkpt lat="42.0581143" lon="13.5578059"><ele>694.75</ele><time>2026-05-01T07:37:51.049Z</time></trkpt><trkpt lat="42.0581097" lon="13.5579927"><ele>694.5</ele><time>2026-05-01T07:37:52.045Z</time></trkpt><trkpt lat="42.0581123" lon="13.5581724"><ele>694.25</ele><time>2026-05-01T07:37:53.043Z</time></trkpt><trkpt lat="42.0581257" lon="13.5583285"><ele>694.0</ele><time>2026-05-01T07:37:54.054Z</time></trkpt><trkpt lat="42.0581409" lon="13.5584752"><ele>694.0</ele><time>2026-05-01T07:37:55.047Z</time></trkpt><trkpt lat="42.0581466" lon="13.5586202"><ele>694.0</ele><time>2026-05-01T07:37:56.048Z</time></trkpt><trkpt lat="42.05813" lon="13.5587666"><ele>694.0</ele><time>2026-05-01T07:37:57.052Z</time></trkpt><trkpt lat="42.0580864" lon="13.5589075"><ele>694.0</ele><time>2026-05-01T07:37:58.052Z</time></trkpt><trkpt lat="42.0580387" lon="13.5590376"><ele>694.0</ele><time>2026-05-01T07:37:59.044Z</time></trkpt><trkpt lat="42.0580137" lon="13.5591766"><ele>693.75</ele><time>2026-05-01T07:38:00.052Z</time></trkpt><trkpt lat="42.0580224" lon="13.559317"><ele>693.5</ele><time>2026-05-01T07:38:01.049Z</time></trkpt><trkpt lat="42.058055" lon="13.5594736"><ele>693.25</ele><time>2026-05-01T07:38:02.046Z</time></trkpt><trkpt lat="42.0580867" lon="13.5596426"><ele>693.0</ele><time>2026-05-01T07:38:03.055Z</time></trkpt><trkpt lat="42.0580699" lon="13.5598206"><ele>693.0</ele><time>2026-05-01T07:38:04.046Z</time></trkpt><trkpt lat="42.0580353" lon="13.5599813"><ele>693.0</ele><time>2026-05-01T07:38:05.048Z</time></trkpt><trkpt lat="42.058004" lon="13.5601367"><ele>693.0</ele><time>2026-05-01T07:38:06.052Z</time></trkpt><trkpt lat="42.0579729" lon="13.5603098"><ele>693.0</ele><time>2026-05-01T07:38:07.049Z</time></trkpt><trkpt lat="42.0579476" lon="13.5604898"><ele>693.0</ele><time>2026-05-01T07:38:08.064Z</time></trkpt><trkpt lat="42.0579323" lon="13.5606667"><ele>693.0</ele><time>2026-05-01T07:38:09.042Z</time></trkpt><trkpt lat="42.0579211" lon="13.5608478"><ele>693.0</ele><time>2026-05-01T07:38:10.053Z</time></trkpt><trkpt lat="42.0579081" lon="13.561034"><ele>693.0</ele><time>2026-05-01T07:38:11.048Z</time></trkpt><trkpt lat="42.0579003" lon="13.5612242"><ele>693.25</ele><time>2026-05-01T07:38:12.047Z</time></trkpt><trkpt lat="42.0578903" lon="13.5614175"><ele>693.5</ele><time>2026-05-01T07:38:13.059Z</time></trkpt><trkpt lat="42.0578786" lon="13.5616171"><ele>693.75</ele><time>2026-05-01T07:38:14.053Z</time></trkpt><trkpt lat="42.0578714" lon="13.5618157"><ele>694.0</ele><time>2026-05-01T07:38:15.06Z</time></trkpt><trkpt lat="42.0578618" lon="13.5620114"><ele>693.75</ele><time>2026-05-01T07:38:16.045Z</time></trkpt><trkpt lat="42.0578497" lon="13.5622078"><ele>693.5</ele><time>2026-05-01T07:38:17.051Z</time></trkpt><trkpt lat="42.0578395" lon="13.5624092"><ele>693.25</ele><time>2026-05-01T07:38:18.056Z</time></trkpt><trkpt lat="42.0578276" lon="13.5626074"><ele>693.0</ele><time>2026-05-01T07:38:19.063Z</time></trkpt><trkpt lat="42.0578163" lon="13.5628086"><ele>692.6666666666666</ele><time>2026-05-01T07:38:20.052Z</time></trkpt><trkpt lat="42.0578059" lon="13.5630132"><ele>692.3333333333333</ele><time>2026-05-01T07:38:21.051Z</time></trkpt><trkpt lat="42.0577938" lon="13.5632145"><ele>692.0</ele><time>2026-05-01T07:38:22.042Z</time></trkpt><trkpt lat="42.0577828" lon="13.5634213"><ele>692.0</ele><time>2026-05-01T07:38:23.051Z</time></trkpt><trkpt lat="42.057772" lon="13.5636256"><ele>692.0</ele><time>2026-05-01T07:38:24.065Z</time></trkpt><trkpt lat="42.0577597" lon="13.5638324"><ele>692.0</ele><time>2026-05-01T07:38:25.047Z</time></trkpt><trkpt lat="42.0577447" lon="13.5640446"><ele>692.0</ele><time>2026-05-01T07:38:26.059Z</time></trkpt><trkpt lat="42.057732" lon="13.5642534"><ele>692.0</ele><time>2026-05-01T07:38:27.054Z</time></trkpt><trkpt lat="42.0577197" lon="13.564459"><ele>692.0</ele><time>2026-05-01T07:38:28.049Z</time></trkpt><trkpt lat="42.0577075" lon="13.5646603"><ele>691.5</ele><time>2026-05-01T07:38:29.062Z</time></trkpt><trkpt lat="42.0576951" lon="13.5648576"><ele>691.0</ele><time>2026-05-01T07:38:30.046Z</time></trkpt><trkpt lat="42.0576836" lon="13.5650514"><ele>690.5</ele><time>2026-05-01T07:38:31.046Z</time></trkpt><trkpt lat="42.0576713" lon="13.5652418"><ele>690.0</ele><time>2026-05-01T07:38:32.059Z</time></trkpt><trkpt lat="42.0576619" lon="13.5654318"><ele>689.75</ele><time>2026-05-01T07:38:33.054Z</time></trkpt><trkpt lat="42.0576499" lon="13.5656262"><ele>689.5</ele><time>2026-05-01T07:38:34.055Z</time></trkpt><trkpt lat="42.0576382" lon="13.5658129"><ele>689.25</ele><time>2026-05-01T07:38:35.059Z</time></trkpt><trkpt lat="42.057631" lon="13.5659997"><ele>689.0</ele><time>2026-05-01T07:38:36.058Z</time></trkpt><trkpt lat="42.0576244" lon="13.5661848"><ele>689.0</ele><time>2026-05-01T07:38:37.056Z</time></trkpt><trkpt lat="42.0576209" lon="13.5663632"><ele>689.0</ele><time>2026-05-01T07:38:38.036Z</time></trkpt><trkpt lat="42.0576159" lon="13.5665423"><ele>689.0</ele><time>2026-05-01T07:38:39.057Z</time></trkpt><trkpt lat="42.0576132" lon="13.5667227"><ele>689.0</ele><time>2026-05-01T07:38:40.048Z</time></trkpt><trkpt lat="42.0576103" lon="13.5669008"><ele>689.0</ele><time>2026-05-01T07:38:41.055Z</time></trkpt><trkpt lat="42.057599" lon="13.5670851"><ele>689.0</ele><time>2026-05-01T07:38:42.052Z</time></trkpt><trkpt lat="42.0575826" lon="13.5672703"><ele>689.0</ele><time>2026-05-01T07:38:43.057Z</time></trkpt><trkpt lat="42.057564" lon="13.567463"><ele>689.0</ele><time>2026-05-01T07:38:44.045Z</time></trkpt><trkpt lat="42.0575417" lon="13.5676572"><ele>689.0</ele><time>2026-05-01T07:38:45.069Z</time></trkpt><trkpt lat="42.0575226" lon="13.5678551"><ele>689.0</ele><time>2026-05-01T07:38:46.057Z</time></trkpt><trkpt lat="42.0575065" lon="13.5680499"><ele>689.0</ele><time>2026-05-01T07:38:47.068Z</time></trkpt><trkpt lat="42.0574984" lon="13.5682427"><ele>689.0</ele><time>2026-05-01T07:38:48.059Z</time></trkpt><trkpt lat="42.0574863" lon="13.5684348"><ele>688.75</ele><time>2026-05-01T07:38:49.058Z</time></trkpt><trkpt lat="42.0574779" lon="13.5686235"><ele>688.5</ele><time>2026-05-01T07:38:50.054Z</time></trkpt><trkpt lat="42.057468" lon="13.568808"><ele>688.25</ele><time>2026-05-01T07:38:51.071Z</time></trkpt><trkpt lat="42.0574609" lon="13.5689919"><ele>688.0</ele><time>2026-05-01T07:38:52.061Z</time></trkpt><trkpt lat="42.0574536" lon="13.5691781"><ele>687.0</ele><time>2026-05-01T07:38:53.047Z</time></trkpt><trkpt lat="42.057431" lon="13.5695636"><ele>686.0</ele><time>2026-05-01T07:38:55.067Z</time></trkpt><trkpt lat="42.0574205" lon="13.5697664"><ele>685.0</ele><time>2026-05-01T07:38:56.056Z</time></trkpt><trkpt lat="42.0574102" lon="13.5699678"><ele>685.0</ele><time>2026-05-01T07:38:57.058Z</time></trkpt><trkpt lat="42.0573962" lon="13.5701671"><ele>685.0</ele><time>2026-05-01T07:38:58.059Z</time></trkpt><trkpt lat="42.0573855" lon="13.5703609"><ele>685.0</ele><time>2026-05-01T07:38:59.051Z</time></trkpt><trkpt lat="42.0573729" lon="13.5705555"><ele>685.0</ele><time>2026-05-01T07:39:00.064Z</time></trkpt><trkpt lat="42.0573587" lon="13.5707521"><ele>684.6666666666667</ele><time>2026-05-01T07:39:01.07Z</time></trkpt><trkpt lat="42.0573498" lon="13.5709531"><ele>684.3333333333334</ele><time>2026-05-01T07:39:02.052Z</time></trkpt><trkpt lat="42.0573363" lon="13.5711583"><ele>684.0</ele><time>2026-05-01T07:39:03.04Z</time></trkpt><trkpt lat="42.0573248" lon="13.5713633"><ele>683.3333333333334</ele><time>2026-05-01T07:39:04.041Z</time></trkpt><trkpt lat="42.057313" lon="13.57157"><ele>682.6666666666667</ele><time>2026-05-01T07:39:05.04Z</time></trkpt><trkpt lat="42.0573025" lon="13.5717793"><ele>682.0</ele><time>2026-05-01T07:39:06.048Z</time></trkpt><trkpt lat="42.0572889" lon="13.5719809"><ele>682.3333333333334</ele><time>2026-05-01T07:39:07.05Z</time></trkpt><trkpt lat="42.0572775" lon="13.5721871"><ele>682.6666666666666</ele><time>2026-05-01T07:39:08.067Z</time></trkpt><trkpt lat="42.0572656" lon="13.5723907"><ele>683.0</ele><time>2026-05-01T07:39:09.045Z</time></trkpt><trkpt lat="42.0572557" lon="13.5725976"><ele>683.0</ele><time>2026-05-01T07:39:10.045Z</time></trkpt><trkpt lat="42.0572451" lon="13.5728039"><ele>683.0</ele><time>2026-05-01T07:39:11.055Z</time></trkpt><trkpt lat="42.0572336" lon="13.5730122"><ele>683.0</ele><time>2026-05-01T07:39:12.046Z</time></trkpt><trkpt lat="42.057221" lon="13.573217"><ele>684.3333333333333</ele><time>2026-05-01T07:39:13.047Z</time></trkpt><trkpt lat="42.0572068" lon="13.573429"><ele>685.6666666666666</ele><time>2026-05-01T07:39:14.051Z</time></trkpt><trkpt lat="42.0571935" lon="13.5736397"><ele>687.0</ele><time>2026-05-01T07:39:15.047Z</time></trkpt><trkpt lat="42.0571791" lon="13.5738554"><ele>687.3333333333334</ele><time>2026-05-01T07:39:16.053Z</time></trkpt><trkpt lat="42.0571665" lon="13.5740773"><ele>687.6666666666667</ele><time>2026-05-01T07:39:17.049Z</time></trkpt><trkpt lat="42.057156" lon="13.5742989"><ele>688.0</ele><time>2026-05-01T07:39:18.055Z</time></trkpt><trkpt lat="42.0571444" lon="13.5745196"><ele>687.6666666666667</ele><time>2026-05-01T07:39:19.049Z</time></trkpt><trkpt lat="42.0571336" lon="13.5747485"><ele>687.3333333333334</ele><time>2026-05-01T07:39:20.053Z</time></trkpt><trkpt lat="42.0571209" lon="13.574977"><ele>687.0</ele><time>2026-05-01T07:39:21.047Z</time></trkpt><trkpt lat="42.0571026" lon="13.5752108"><ele>686.6666666666666</ele><time>2026-05-01T07:39:22.046Z</time></trkpt><trkpt lat="42.0570889" lon="13.5754422"><ele>686.3333333333333</ele><time>2026-05-01T07:39:23.047Z</time></trkpt><trkpt lat="42.0570708" lon="13.5756716"><ele>686.0</ele><time>2026-05-01T07:39:24.052Z</time></trkpt><trkpt lat="42.0570553" lon="13.5759001"><ele>686.0</ele><time>2026-05-01T07:39:25.063Z</time></trkpt><trkpt lat="42.0570416" lon="13.5761282"><ele>686.0</ele><time>2026-05-01T07:39:26.056Z</time></trkpt><trkpt lat="42.0570337" lon="13.5763582"><ele>686.0</ele><time>2026-05-01T07:39:27.056Z</time></trkpt><trkpt lat="42.0570238" lon="13.5765865"><ele>686.3333333333333</ele><time>2026-05-01T07:39:28.046Z</time></trkpt><trkpt lat="42.0570121" lon="13.5768155"><ele>686.6666666666666</ele><time>2026-05-01T07:39:29.047Z</time></trkpt><trkpt lat="42.0569969" lon="13.5770446"><ele>687.0</ele><time>2026-05-01T07:39:30.058Z</time></trkpt><trkpt lat="42.0569803" lon="13.5772683"><ele>687.0</ele><time>2026-05-01T07:39:31.047Z</time></trkpt><trkpt lat="42.056967" lon="13.5774909"><ele>687.0</ele><time>2026-05-01T07:39:32.057Z</time></trkpt><trkpt lat="42.0569553" lon="13.5777139"><ele>687.0</ele><time>2026-05-01T07:39:33.05Z</time></trkpt><trkpt lat="42.0569447" lon="13.5779174"><ele>687.0</ele><time>2026-05-01T07:39:33.997Z</time></trkpt><trkpt lat="42.0569284" lon="13.5781584"><ele>687.0</ele><time>2026-05-01T07:39:35.047Z</time></trkpt><trkpt lat="42.0569157" lon="13.5783771"><ele>687.0</ele><time>2026-05-01T07:39:36.043Z</time></trkpt><trkpt lat="42.0569035" lon="13.5785904"><ele>687.6666666666666</ele><time>2026-05-01T07:39:37.044Z</time></trkpt><trkpt lat="42.0568913" lon="13.5788006"><ele>688.3333333333333</ele><time>2026-05-01T07:39:38.05Z</time></trkpt><trkpt lat="42.0568774" lon="13.5790023"><ele>689.0</ele><time>2026-05-01T07:39:39.054Z</time></trkpt><trkpt lat="42.0568601" lon="13.5791956"><ele>689.0</ele><time>2026-05-01T07:39:40.049Z</time></trkpt><trkpt lat="42.0568376" lon="13.5793887"><ele>689.0</ele><time>2026-05-01T07:39:41.05Z</time></trkpt><trkpt lat="42.0568042" lon="13.5795803"><ele>689.0</ele><time>2026-05-01T07:39:42.073Z</time></trkpt><trkpt lat="42.0567555" lon="13.5797614"><ele>689.0</ele><time>2026-05-01T07:39:43.064Z</time></trkpt><trkpt lat="42.0566923" lon="13.5799357"><ele>689.0</ele><time>2026-05-01T07:39:44.038Z</time></trkpt><trkpt lat="42.0566185" lon="13.580101"><ele>689.0</ele><time>2026-05-01T07:39:45.049Z</time></trkpt><trkpt lat="42.056543" lon="13.58026"><ele>689.0</ele><time>2026-05-01T07:39:46.055Z</time></trkpt><trkpt lat="42.0564696" lon="13.5804117"><ele>689.0</ele><time>2026-05-01T07:39:47.053Z</time></trkpt><trkpt lat="42.0564015" lon="13.5805503"><ele>689.0</ele><time>2026-05-01T07:39:48.058Z</time></trkpt><trkpt lat="42.0563376" lon="13.5806716"><ele>689.0</ele><time>2026-05-01T07:39:49.053Z</time></trkpt><trkpt lat="42.0562692" lon="13.5807803"><ele>689.0</ele><time>2026-05-01T07:39:50.046Z</time></trkpt><trkpt lat="42.0561917" lon="13.5808555"><ele>689.0</ele><time>2026-05-01T07:39:51.051Z</time></trkpt><trkpt lat="42.0561067" lon="13.580901"><ele>689.0</ele><time>2026-05-01T07:39:52.048Z</time></trkpt><trkpt lat="42.0560109" lon="13.580935"><ele>689.0</ele><time>2026-05-01T07:39:53.053Z</time></trkpt><trkpt lat="42.0559157" lon="13.5809544"><ele>689.0</ele><time>2026-05-01T07:39:54.056Z</time></trkpt><trkpt lat="42.0558224" lon="13.580956"><ele>689.0</ele><time>2026-05-01T07:39:55.045Z</time></trkpt><trkpt lat="42.0557306" lon="13.5809214"><ele>689.0</ele><time>2026-05-01T07:39:56.051Z</time></trkpt><trkpt lat="42.0556412" lon="13.5808518"><ele>689.0</ele><time>2026-05-01T07:39:57.054Z</time></trkpt><trkpt lat="42.0555582" lon="13.5807692"><ele>688.6666666666666</ele><time>2026-05-01T07:39:58.045Z</time></trkpt><trkpt lat="42.0554753" lon="13.5806972"><ele>688.3333333333333</ele><time>2026-05-01T07:39:59.063Z</time></trkpt><trkpt lat="42.0553981" lon="13.580637"><ele>688.0</ele><time>2026-05-01T07:40:00.052Z</time></trkpt><trkpt lat="42.0553334" lon="13.5805883"><ele>687.6666666666666</ele><time>2026-05-01T07:40:01.051Z</time></trkpt><trkpt lat="42.0552334" lon="13.5805266"><ele>687.3333333333334</ele><time>2026-05-01T07:40:03.059Z</time></trkpt><trkpt lat="42.0551649" lon="13.5804927"><ele>687.0</ele><time>2026-05-01T07:40:05.038Z</time></trkpt><trkpt lat="42.0550812" lon="13.58048"><ele>687.0</ele><time>2026-05-01T07:40:08.065Z</time></trkpt><trkpt lat="42.0550051" lon="13.5804952"><ele>687.0</ele><time>2026-05-01T07:40:12.063Z</time></trkpt><trkpt lat="42.0550977" lon="13.5804987"><ele>687.0</ele><time>2026-05-01T07:49:04.034Z</time></trkpt><trkpt lat="42.0551722" lon="13.5805373"><ele>687.0</ele><time>2026-05-01T07:49:05.046Z</time></trkpt><trkpt lat="42.0552453" lon="13.5805666"><ele>687.0</ele><time>2026-05-01T07:49:06.032Z</time></trkpt><trkpt lat="42.0553196" lon="13.5806065"><ele>687.0</ele><time>2026-05-01T07:49:07.049Z</time></trkpt><trkpt lat="42.0553897" lon="13.5806628"><ele>687.0</ele><time>2026-05-01T07:49:08.046Z</time></trkpt><trkpt lat="42.0554565" lon="13.5807397"><ele>687.0</ele><time>2026-05-01T07:49:09.053Z</time></trkpt><trkpt lat="42.055537" lon="13.5807939"><ele>687.0</ele><time>2026-05-01T07:49:10.053Z</time></trkpt><trkpt lat="42.0556141" lon="13.5808524"><ele>687.0</ele><time>2026-05-01T07:49:11.046Z</time></trkpt><trkpt lat="42.0556931" lon="13.5809078"><ele>687.0</ele><time>2026-05-01T07:49:12.047Z</time></trkpt><trkpt lat="42.0557481" lon="13.5809827"><ele>687.0</ele><time>2026-05-01T07:49:13.055Z</time></trkpt><trkpt lat="42.0557954" lon="13.5810695"><ele>687.4000000000001</ele><time>2026-05-01T07:49:14.042Z</time></trkpt><trkpt lat="42.0558258" lon="13.5811635"><ele>687.8000000000001</ele><time>2026-05-01T07:49:15.055Z</time></trkpt><trkpt lat="42.0558545" lon="13.5812703"><ele>688.2</ele><time>2026-05-01T07:49:16.05Z</time></trkpt><trkpt lat="42.0558893" lon="13.5813872"><ele>688.6</ele><time>2026-05-01T07:49:17.059Z</time></trkpt><trkpt lat="42.0559349" lon="13.5815106"><ele>689.0</ele><time>2026-05-01T07:49:18.057Z</time></trkpt><trkpt lat="42.0559904" lon="13.5816334"><ele>689.6</ele><time>2026-05-01T07:49:19.075Z</time></trkpt><trkpt lat="42.0560198" lon="13.5817575"><ele>690.2</ele><time>2026-05-01T07:49:20.058Z</time></trkpt><trkpt lat="42.0560361" lon="13.5818868"><ele>690.8000000000001</ele><time>2026-05-01T07:49:21.064Z</time></trkpt><trkpt lat="42.0560324" lon="13.5820171"><ele>691.4000000000001</ele><time>2026-05-01T07:49:22.049Z</time></trkpt><trkpt lat="42.0560255" lon="13.5821488"><ele>692.0</ele><time>2026-05-01T07:49:23.058Z</time></trkpt><trkpt lat="42.0560233" lon="13.5822821"><ele>692.6</ele><time>2026-05-01T07:49:24.051Z</time></trkpt><trkpt lat="42.0560251" lon="13.5824141"><ele>693.2</ele><time>2026-05-01T07:49:25.064Z</time></trkpt><trkpt lat="42.0560338" lon="13.5825484"><ele>693.8</ele><time>2026-05-01T07:49:26.047Z</time></trkpt><trkpt lat="42.0560516" lon="13.5826832"><ele>694.4</ele><time>2026-05-01T07:49:27.058Z</time></trkpt><trkpt lat="42.0560837" lon="13.5828225"><ele>695.0</ele><time>2026-05-01T07:49:28.051Z</time></trkpt><trkpt lat="42.0561322" lon="13.5829797"><ele>695.25</ele><time>2026-05-01T07:49:29.049Z</time></trkpt><trkpt lat="42.05618" lon="13.5831413"><ele>695.5</ele><time>2026-05-01T07:49:30.059Z</time></trkpt><trkpt lat="42.05623" lon="13.5833058"><ele>695.75</ele><time>2026-05-01T07:49:31.046Z</time></trkpt><trkpt lat="42.0562813" lon="13.5834752"><ele>696.0</ele><time>2026-05-01T07:49:32.044Z</time></trkpt><trkpt lat="42.0563351" lon="13.583647"><ele>696.5</ele><time>2026-05-01T07:49:33.048Z</time></trkpt><trkpt lat="42.0563896" lon="13.583825"><ele>697.0</ele><time>2026-05-01T07:49:34.053Z</time></trkpt><trkpt lat="42.0564435" lon="13.5840047"><ele>697.5</ele><time>2026-05-01T07:49:35.049Z</time></trkpt><trkpt lat="42.0564857" lon="13.5841836"><ele>698.0</ele><time>2026-05-01T07:49:36.056Z</time></trkpt><trkpt lat="42.0565127" lon="13.5843624"><ele>699.0</ele><time>2026-05-01T07:49:37.05Z</time></trkpt><trkpt lat="42.056521" lon="13.584549"><ele>700.0</ele><time>2026-05-01T07:49:38.069Z</time></trkpt><trkpt lat="42.0565188" lon="13.5847311"><ele>701.0</ele><time>2026-05-01T07:49:39.058Z</time></trkpt><trkpt lat="42.056517" lon="13.5849225"><ele>702.0</ele><time>2026-05-01T07:49:40.05Z</time></trkpt><trkpt lat="42.0565074" lon="13.5851116"><ele>702.0</ele><time>2026-05-01T07:49:41.085Z</time></trkpt><trkpt lat="42.0564907" lon="13.5853056"><ele>702.0</ele><time>2026-05-01T07:49:42.07Z</time></trkpt><trkpt lat="42.0564771" lon="13.5855002"><ele>702.0</ele><time>2026-05-01T07:49:43.049Z</time></trkpt><trkpt lat="42.0564646" lon="13.5856953"><ele>702.0</ele><time>2026-05-01T07:49:44.075Z</time></trkpt><trkpt lat="42.0564555" lon="13.5858925"><ele>702.5</ele><time>2026-05-01T07:49:45.045Z</time></trkpt><trkpt lat="42.0564456" lon="13.5860909"><ele>703.0</ele><time>2026-05-01T07:49:46.062Z</time></trkpt><trkpt lat="42.0564327" lon="13.586294"><ele>703.5</ele><time>2026-05-01T07:49:47.059Z</time></trkpt><trkpt lat="42.0564245" lon="13.58649"><ele>704.0</ele><time>2026-05-01T07:49:48.052Z</time></trkpt><trkpt lat="42.0564103" lon="13.5866962"><ele>705.0</ele><time>2026-05-01T07:49:49.077Z</time></trkpt><trkpt lat="42.0563953" lon="13.5869029"><ele>706.0</ele><time>2026-05-01T07:49:50.056Z</time></trkpt><trkpt lat="42.056381" lon="13.5871183"><ele>707.0</ele><time>2026-05-01T07:49:51.055Z</time></trkpt><trkpt lat="42.0563677" lon="13.5873346"><ele>708.0</ele><time>2026-05-01T07:49:52.055Z</time></trkpt><trkpt lat="42.0563568" lon="13.5875568"><ele>709.0</ele><time>2026-05-01T07:49:53.059Z</time></trkpt><trkpt lat="42.0563444" lon="13.5877805"><ele>710.0</ele><time>2026-05-01T07:49:54.056Z</time></trkpt><trkpt lat="42.0563347" lon="13.5880012"><ele>710.6666666666666</ele><time>2026-05-01T07:49:55.059Z</time></trkpt><trkpt lat="42.0563205" lon="13.5882125"><ele>711.3333333333334</ele><time>2026-05-01T07:49:56.054Z</time></trkpt><trkpt lat="42.05631" lon="13.5884175"><ele>712.0</ele><time>2026-05-01T07:49:57.073Z</time></trkpt><trkpt lat="42.056296" lon="13.5886247"><ele>712.5</ele><time>2026-05-01T07:49:58.051Z</time></trkpt><trkpt lat="42.0562835" lon="13.5888307"><ele>713.0</ele><time>2026-05-01T07:49:59.065Z</time></trkpt><trkpt lat="42.0562712" lon="13.5890285"><ele>713.5</ele><time>2026-05-01T07:50:00.064Z</time></trkpt><trkpt lat="42.056258" lon="13.5892251"><ele>714.0</ele><time>2026-05-01T07:50:01.051Z</time></trkpt><trkpt lat="42.0562456" lon="13.5894183"><ele>714.0</ele><time>2026-05-01T07:50:02.059Z</time></trkpt><trkpt lat="42.0562363" lon="13.5896148"><ele>714.0</ele><time>2026-05-01T07:50:03.054Z</time></trkpt><trkpt lat="42.056225" lon="13.5898129"><ele>714.0</ele><time>2026-05-01T07:50:04.05Z</time></trkpt><trkpt lat="42.0562185" lon="13.5900221"><ele>714.0</ele><time>2026-05-01T07:50:05.069Z</time></trkpt><trkpt lat="42.0562083" lon="13.5902344"><ele>714.6666666666666</ele><time>2026-05-01T07:50:06.055Z</time></trkpt><trkpt lat="42.0561936" lon="13.5904481"><ele>715.3333333333333</ele><time>2026-05-01T07:50:07.066Z</time></trkpt><trkpt lat="42.0561828" lon="13.590656"><ele>716.0</ele><time>2026-05-01T07:50:08.054Z</time></trkpt><trkpt lat="42.0561702" lon="13.5908687"><ele>716.0</ele><time>2026-05-01T07:50:09.059Z</time></trkpt><trkpt lat="42.0561552" lon="13.5910773"><ele>716.0</ele><time>2026-05-01T07:50:10.056Z</time></trkpt><trkpt lat="42.0561443" lon="13.5912924"><ele>716.0</ele><time>2026-05-01T07:50:11.051Z</time></trkpt><trkpt lat="42.0561288" lon="13.5915112"><ele>716.0</ele><time>2026-05-01T07:50:12.067Z</time></trkpt><trkpt lat="42.056118" lon="13.5917314"><ele>716.0</ele><time>2026-05-01T07:50:13.053Z</time></trkpt><trkpt lat="42.0561028" lon="13.5919579"><ele>716.0</ele><time>2026-05-01T07:50:14.045Z</time></trkpt><trkpt lat="42.0560874" lon="13.592187"><ele>716.6666666666666</ele><time>2026-05-01T07:50:15.052Z</time></trkpt><trkpt lat="42.0560737" lon="13.5924102"><ele>717.3333333333334</ele><time>2026-05-01T07:50:16.058Z</time></trkpt><trkpt lat="42.0560658" lon="13.5926261"><ele>718.0</ele><time>2026-05-01T07:50:17.063Z</time></trkpt><trkpt lat="42.0560586" lon="13.5928329"><ele>718.3333333333334</ele><time>2026-05-01T07:50:18.083Z</time></trkpt><trkpt lat="42.0560519" lon="13.5930392"><ele>718.6666666666666</ele><time>2026-05-01T07:50:19.055Z</time></trkpt><trkpt lat="42.0560547" lon="13.593241"><ele>719.0</ele><time>2026-05-01T07:50:20.047Z</time></trkpt><trkpt lat="42.0560666" lon="13.5934521"><ele>719.0</ele><time>2026-05-01T07:50:21.066Z</time></trkpt><trkpt lat="42.0560751" lon="13.5936593"><ele>719.0</ele><time>2026-05-01T07:50:22.067Z</time></trkpt><trkpt lat="42.0560928" lon="13.5938639"><ele>719.0</ele><time>2026-05-01T07:50:23.086Z</time></trkpt><trkpt lat="42.0561093" lon="13.5940679"><ele>719.3333333333333</ele><time>2026-05-01T07:50:24.062Z</time></trkpt><trkpt lat="42.0561252" lon="13.5942713"><ele>719.6666666666666</ele><time>2026-05-01T07:50:25.065Z</time></trkpt><trkpt lat="42.0561423" lon="13.5944778"><ele>720.0</ele><time>2026-05-01T07:50:26.057Z</time></trkpt><trkpt lat="42.0561632" lon="13.5946808"><ele>720.0</ele><time>2026-05-01T07:50:27.067Z</time></trkpt><trkpt lat="42.0561861" lon="13.5948837"><ele>720.0</ele><time>2026-05-01T07:50:28.05Z</time></trkpt><trkpt lat="42.0562089" lon="13.5950873"><ele>720.0</ele><time>2026-05-01T07:50:29.059Z</time></trkpt><trkpt lat="42.0562285" lon="13.5952908"><ele>720.3333333333334</ele><time>2026-05-01T07:50:30.068Z</time></trkpt><trkpt lat="42.0562519" lon="13.5954937"><ele>720.6666666666667</ele><time>2026-05-01T07:50:31.033Z</time></trkpt><trkpt lat="42.0562765" lon="13.5957082"><ele>721.0</ele><time>2026-05-01T07:50:32.068Z</time></trkpt><trkpt lat="42.0563004" lon="13.595916"><ele>721.0</ele><time>2026-05-01T07:50:33.051Z</time></trkpt><trkpt lat="42.0563216" lon="13.5961234"><ele>721.0</ele><time>2026-05-01T07:50:34.082Z</time></trkpt><trkpt lat="42.0563451" lon="13.5963208"><ele>721.0</ele><time>2026-05-01T07:50:35.055Z</time></trkpt><trkpt lat="42.0563697" lon="13.5965278"><ele>721.0</ele><time>2026-05-01T07:50:36.075Z</time></trkpt><trkpt lat="42.0563952" lon="13.5967337"><ele>721.0</ele><time>2026-05-01T07:50:37.059Z</time></trkpt><trkpt lat="42.0564157" lon="13.5969414"><ele>721.0</ele><time>2026-05-01T07:50:38.058Z</time></trkpt><trkpt lat="42.0564384" lon="13.5971466"><ele>721.0</ele><time>2026-05-01T07:50:39.054Z</time></trkpt><trkpt lat="42.0564579" lon="13.5973475"><ele>721.0</ele><time>2026-05-01T07:50:40.049Z</time></trkpt><trkpt lat="42.0564757" lon="13.5975542"><ele>721.0</ele><time>2026-05-01T07:50:41.069Z</time></trkpt><trkpt lat="42.0564964" lon="13.5977619"><ele>721.6666666666667</ele><time>2026-05-01T07:50:42.059Z</time></trkpt><trkpt lat="42.0565196" lon="13.5979717"><ele>722.3333333333334</ele><time>2026-05-01T07:50:43.077Z</time></trkpt><trkpt lat="42.0565444" lon="13.5981801"><ele>723.0</ele><time>2026-05-01T07:50:44.057Z</time></trkpt><trkpt lat="42.0565691" lon="13.5983841"><ele>723.0</ele><time>2026-05-01T07:50:45.05Z</time></trkpt><trkpt lat="42.0565879" lon="13.5985852"><ele>723.0</ele><time>2026-05-01T07:50:46.072Z</time></trkpt><trkpt lat="42.056609" lon="13.5987899"><ele>723.0</ele><time>2026-05-01T07:50:47.061Z</time></trkpt><trkpt lat="42.0566278" lon="13.5989919"><ele>723.6666666666666</ele><time>2026-05-01T07:50:48.056Z</time></trkpt><trkpt lat="42.0566486" lon="13.5991973"><ele>724.3333333333333</ele><time>2026-05-01T07:50:49.075Z</time></trkpt><trkpt lat="42.0566695" lon="13.5993988"><ele>725.0</ele><time>2026-05-01T07:50:50.059Z</time></trkpt><trkpt lat="42.0566927" lon="13.5995999"><ele>726.3333333333333</ele><time>2026-05-01T07:50:51.076Z</time></trkpt><trkpt lat="42.0567139" lon="13.5998033"><ele>727.6666666666666</ele><time>2026-05-01T07:50:52.067Z</time></trkpt><trkpt lat="42.056735" lon="13.6000143"><ele>729.0</ele><time>2026-05-01T07:50:53.049Z</time></trkpt><trkpt lat="42.0567571" lon="13.6002344"><ele>729.25</ele><time>2026-05-01T07:50:54.059Z</time></trkpt><trkpt lat="42.0567789" lon="13.6004353"><ele>729.5</ele><time>2026-05-01T07:50:55.065Z</time></trkpt><trkpt lat="42.0567983" lon="13.600612"><ele>729.75</ele><time>2026-05-01T07:50:56.06Z</time></trkpt><trkpt lat="42.0568151" lon="13.6007768"><ele>730.0</ele><time>2026-05-01T07:50:57.052Z</time></trkpt><trkpt lat="42.0568323" lon="13.6009303"><ele>730.0</ele><time>2026-05-01T07:50:58.073Z</time></trkpt><trkpt lat="42.0568429" lon="13.6010776"><ele>730.0</ele><time>2026-05-01T07:50:59.051Z</time></trkpt><trkpt lat="42.0568603" lon="13.6012161"><ele>730.0</ele><time>2026-05-01T07:51:00.044Z</time></trkpt><trkpt lat="42.0568775" lon="13.6013592"><ele>730.0</ele><time>2026-05-01T07:51:01.058Z</time></trkpt><trkpt lat="42.0568903" lon="13.6014893"><ele>730.0</ele><time>2026-05-01T07:51:02.056Z</time></trkpt><trkpt lat="42.0569062" lon="13.6016156"><ele>730.4</ele><time>2026-05-01T07:51:03.064Z</time></trkpt><trkpt lat="42.0569166" lon="13.6017396"><ele>730.8</ele><time>2026-05-01T07:51:04.065Z</time></trkpt><trkpt lat="42.0569279" lon="13.6018644"><ele>731.2</ele><time>2026-05-01T07:51:05.062Z</time></trkpt><trkpt lat="42.0569423" lon="13.6019885"><ele>731.6</ele><time>2026-05-01T07:51:06.054Z</time></trkpt><trkpt lat="42.0569574" lon="13.6021081"><ele>732.0</ele><time>2026-05-01T07:51:07.058Z</time></trkpt><trkpt lat="42.0569696" lon="13.6022351"><ele>732.3333333333334</ele><time>2026-05-01T07:51:08.06Z</time></trkpt><trkpt lat="42.0569835" lon="13.6023556"><ele>732.6666666666666</ele><time>2026-05-01T07:51:09.06Z</time></trkpt><trkpt lat="42.0569883" lon="13.6024672"><ele>733.0</ele><time>2026-05-01T07:51:10.052Z</time></trkpt><trkpt lat="42.0569921" lon="13.6025679"><ele>733.3333333333333</ele><time>2026-05-01T07:51:11.053Z</time></trkpt><trkpt lat="42.0569974" lon="13.6026709"><ele>733.6666666666666</ele><time>2026-05-01T07:51:12.05Z</time></trkpt><trkpt lat="42.0569928" lon="13.6027813"><ele>734.0</ele><time>2026-05-01T07:51:13.049Z</time></trkpt><trkpt lat="42.0569786" lon="13.6028812"><ele>734.7142857142857</ele><time>2026-05-01T07:51:14.079Z</time></trkpt><trkpt lat="42.0569582" lon="13.6029868"><ele>735.4285714285714</ele><time>2026-05-01T07:51:15.053Z</time></trkpt><trkpt lat="42.0569437" lon="13.6030861"><ele>736.1428571428571</ele><time>2026-05-01T07:51:16.063Z</time></trkpt><trkpt lat="42.0569527" lon="13.603185"><ele>736.8571428571429</ele><time>2026-05-01T07:51:17.062Z</time></trkpt><trkpt lat="42.0569668" lon="13.6032869"><ele>737.5714285714287</ele><time>2026-05-01T07:51:18.052Z</time></trkpt><trkpt lat="42.0569608" lon="13.6033771"><ele>738.2857142857143</ele><time>2026-05-01T07:51:19.057Z</time></trkpt><trkpt lat="42.0569496" lon="13.6034743"><ele>739.0</ele><time>2026-05-01T07:51:20.05Z</time></trkpt><trkpt lat="42.0569379" lon="13.6035713"><ele>739.5</ele><time>2026-05-01T07:51:21.065Z</time></trkpt><trkpt lat="42.0569248" lon="13.6036752"><ele>740.0</ele><time>2026-05-01T07:51:22.067Z</time></trkpt><trkpt lat="42.0569219" lon="13.6037844"><ele>740.5</ele><time>2026-05-01T07:51:23.053Z</time></trkpt><trkpt lat="42.0569284" lon="13.6038969"><ele>741.0</ele><time>2026-05-01T07:51:24.056Z</time></trkpt><trkpt lat="42.0569408" lon="13.6040167"><ele>741.5</ele><time>2026-05-01T07:51:25.062Z</time></trkpt><trkpt lat="42.0569575" lon="13.6041406"><ele>742.0</ele><time>2026-05-01T07:51:26.061Z</time></trkpt><trkpt lat="42.0569707" lon="13.6042703"><ele>742.0</ele><time>2026-05-01T07:51:27.064Z</time></trkpt><trkpt lat="42.0569801" lon="13.60439"><ele>742.0</ele><time>2026-05-01T07:51:28.053Z</time></trkpt><trkpt lat="42.0569856" lon="13.6044978"><ele>742.0</ele><time>2026-05-01T07:51:29.061Z</time></trkpt><trkpt lat="42.0569909" lon="13.6046041"><ele>742.0</ele><time>2026-05-01T07:51:30.06Z</time></trkpt><trkpt lat="42.0569906" lon="13.6047073"><ele>742.0</ele><time>2026-05-01T07:51:31.058Z</time></trkpt><trkpt lat="42.0569939" lon="13.6048125"><ele>742.0</ele><time>2026-05-01T07:51:32.059Z</time></trkpt><trkpt lat="42.0569964" lon="13.6049207"><ele>742.5</ele><time>2026-05-01T07:51:33.057Z</time></trkpt><trkpt lat="42.0569997" lon="13.6050256"><ele>743.0</ele><time>2026-05-01T07:51:34.041Z</time></trkpt><trkpt lat="42.057011" lon="13.6051435"><ele>743.5</ele><time>2026-05-01T07:51:35.052Z</time></trkpt><trkpt lat="42.0570275" lon="13.6052679"><ele>744.0</ele><time>2026-05-01T07:51:36.045Z</time></trkpt><trkpt lat="42.0570402" lon="13.6053867"><ele>744.5</ele><time>2026-05-01T07:51:37.068Z</time></trkpt><trkpt lat="42.0570584" lon="13.6054956"><ele>745.0</ele><time>2026-05-01T07:51:38.05Z</time></trkpt><trkpt lat="42.0570769" lon="13.6055953"><ele>745.6666666666667</ele><time>2026-05-01T07:51:39.053Z</time></trkpt><trkpt lat="42.0570925" lon="13.605697"><ele>746.3333333333334</ele><time>2026-05-01T07:51:40.058Z</time></trkpt><trkpt lat="42.0571083" lon="13.6058015"><ele>747.0</ele><time>2026-05-01T07:51:41.049Z</time></trkpt><trkpt lat="42.0571154" lon="13.6059086"><ele>747.6666666666666</ele><time>2026-05-01T07:51:42.044Z</time></trkpt><trkpt lat="42.0571234" lon="13.6060084"><ele>748.3333333333333</ele><time>2026-05-01T07:51:43.061Z</time></trkpt><trkpt lat="42.0571338" lon="13.6061069"><ele>749.0</ele><time>2026-05-01T07:51:44.047Z</time></trkpt><trkpt lat="42.0571457" lon="13.606205"><ele>749.5</ele><time>2026-05-01T07:51:45.056Z</time></trkpt><trkpt lat="42.0571555" lon="13.6063048"><ele>750.0</ele><time>2026-05-01T07:51:46.051Z</time></trkpt><trkpt lat="42.0571661" lon="13.6064081"><ele>750.5</ele><time>2026-05-01T07:51:47.058Z</time></trkpt><trkpt lat="42.0571775" lon="13.6065111"><ele>751.0</ele><time>2026-05-01T07:51:48.053Z</time></trkpt><trkpt lat="42.0571875" lon="13.6066195"><ele>751.5</ele><time>2026-05-01T07:51:49.062Z</time></trkpt><trkpt lat="42.0571995" lon="13.6067276"><ele>752.0</ele><time>2026-05-01T07:51:50.049Z</time></trkpt><trkpt lat="42.0572091" lon="13.6068404"><ele>752.0</ele><time>2026-05-01T07:51:51.06Z</time></trkpt><trkpt lat="42.0572129" lon="13.6069438"><ele>752.0</ele><time>2026-05-01T07:51:52.059Z</time></trkpt><trkpt lat="42.0572168" lon="13.6070395"><ele>752.0</ele><time>2026-05-01T07:51:53.05Z</time></trkpt><trkpt lat="42.0572264" lon="13.6071328"><ele>752.0</ele><time>2026-05-01T07:51:54.061Z</time></trkpt><trkpt lat="42.0572489" lon="13.6072244"><ele>752.0</ele><time>2026-05-01T07:51:55.054Z</time></trkpt><trkpt lat="42.0572645" lon="13.6073202"><ele>752.0</ele><time>2026-05-01T07:51:56.056Z</time></trkpt><trkpt lat="42.0572828" lon="13.6074217"><ele>752.0</ele><time>2026-05-01T07:51:57.058Z</time></trkpt><trkpt lat="42.0573042" lon="13.6075166"><ele>752.2857142857142</ele><time>2026-05-01T07:51:58.069Z</time></trkpt><trkpt lat="42.0573207" lon="13.607617"><ele>752.5714285714286</ele><time>2026-05-01T07:51:59.067Z</time></trkpt><trkpt lat="42.0573311" lon="13.6077022"><ele>752.8571428571429</ele><time>2026-05-01T07:52:00.055Z</time></trkpt><trkpt lat="42.0573546" lon="13.6077854"><ele>753.1428571428571</ele><time>2026-05-01T07:52:01.08Z</time></trkpt><trkpt lat="42.0573806" lon="13.6078693"><ele>753.4285714285714</ele><time>2026-05-01T07:52:02.047Z</time></trkpt><trkpt lat="42.0574143" lon="13.6079513"><ele>753.7142857142857</ele><time>2026-05-01T07:52:03.047Z</time></trkpt><trkpt lat="42.0574514" lon="13.6080271"><ele>754.0</ele><time>2026-05-01T07:52:04.05Z</time></trkpt><trkpt lat="42.0574926" lon="13.6081002"><ele>753.75</ele><time>2026-05-01T07:52:05.047Z</time></trkpt><trkpt lat="42.0575612" lon="13.6082327"><ele>753.5</ele><time>2026-05-01T07:52:07.053Z</time></trkpt><trkpt lat="42.0575932" lon="13.6083877"><ele>753.25</ele><time>2026-05-01T07:52:09.055Z</time></trkpt><trkpt lat="42.0576328" lon="13.6085347"><ele>753.0</ele><time>2026-05-01T07:52:11.051Z</time></trkpt><trkpt lat="42.0576788" lon="13.6086945"><ele>753.0</ele><time>2026-05-01T07:52:13.045Z</time></trkpt><trkpt lat="42.057713" lon="13.6087745"><ele>753.0</ele><time>2026-05-01T07:52:14.054Z</time></trkpt><trkpt lat="42.0577704" lon="13.6089126"><ele>753.0</ele><time>2026-05-01T07:52:16.053Z</time></trkpt><trkpt lat="42.0578374" lon="13.6090364"><ele>753.0</ele><time>2026-05-01T07:52:18.054Z</time></trkpt><trkpt lat="42.0579294" lon="13.6091412"><ele>753.0</ele><time>2026-05-01T07:52:20.052Z</time></trkpt><trkpt lat="42.058038" lon="13.6092065"><ele>753.0</ele><time>2026-05-01T07:52:22.063Z</time></trkpt><trkpt lat="42.0581009" lon="13.6092427"><ele>753.0</ele><time>2026-05-01T07:52:23.046Z</time></trkpt><trkpt lat="42.0581721" lon="13.6092854"><ele>753.0</ele><time>2026-05-01T07:52:24.056Z</time></trkpt><trkpt lat="42.0582373" lon="13.6093382"><ele>753.0</ele><time>2026-05-01T07:52:25.058Z</time></trkpt><trkpt lat="42.0583399" lon="13.6093989"><ele>753.0</ele><time>2026-05-01T07:52:27.062Z</time></trkpt><trkpt lat="42.0583929" lon="13.6094522"><ele>753.0</ele><time>2026-05-01T07:52:29.056Z</time></trkpt><trkpt lat="42.0584225" lon="13.6095567"><ele>754.0</ele><time>2026-05-01T07:52:31.067Z</time></trkpt><trkpt lat="42.0584354" lon="13.609686"><ele>755.0</ele><time>2026-05-01T07:52:33.045Z</time></trkpt><trkpt lat="42.058465" lon="13.6098148"><ele>756.0</ele><time>2026-05-01T07:52:35.054Z</time></trkpt><trkpt lat="42.0585118" lon="13.6099434"><ele>757.0</ele><time>2026-05-01T07:52:37.047Z</time></trkpt><trkpt lat="42.0585666" lon="13.6100797"><ele>758.0</ele><time>2026-05-01T07:52:39.057Z</time></trkpt><trkpt lat="42.0586427" lon="13.6101937"><ele>758.0000000000001</ele><time>2026-05-01T07:52:41.05Z</time></trkpt><trkpt lat="42.0587216" lon="13.6103075"><ele>758.0</ele><time>2026-05-01T07:52:43.06Z</time></trkpt><trkpt lat="42.0587636" lon="13.6103707"><ele>758.0</ele><time>2026-05-01T07:52:44.066Z</time></trkpt><trkpt lat="42.0588048" lon="13.6104404"><ele>758.0</ele><time>2026-05-01T07:52:45.043Z</time></trkpt><trkpt lat="42.0588508" lon="13.6105086"><ele>758.0</ele><time>2026-05-01T07:52:46.054Z</time></trkpt><trkpt lat="42.0589017" lon="13.610571"><ele>758.0000000000001</ele><time>2026-05-01T07:52:47.053Z</time></trkpt><trkpt lat="42.0589603" lon="13.6106149"><ele>758.0</ele><time>2026-05-01T07:52:48.048Z</time></trkpt><trkpt lat="42.0590543" lon="13.6106741"><ele>757.5</ele><time>2026-05-01T07:52:50.056Z</time></trkpt><trkpt lat="42.0591413" lon="13.6107774"><ele>757.0</ele><time>2026-05-01T07:52:52.052Z</time></trkpt><trkpt lat="42.0591878" lon="13.6108451"><ele>756.5</ele><time>2026-05-01T07:52:53.052Z</time></trkpt><trkpt lat="42.0592302" lon="13.6109264"><ele>756.0</ele><time>2026-05-01T07:52:54.066Z</time></trkpt><trkpt lat="42.0592653" lon="13.6110047"><ele>755.5</ele><time>2026-05-01T07:52:55.05Z</time></trkpt><trkpt lat="42.0593388" lon="13.611131"><ele>755.0</ele><time>2026-05-01T07:52:57.053Z</time></trkpt><trkpt lat="42.0594126" lon="13.6112597"><ele>755.0</ele><time>2026-05-01T07:52:59.049Z</time></trkpt><trkpt lat="42.0594788" lon="13.6113853"><ele>755.0</ele><time>2026-05-01T07:53:01.06Z</time></trkpt><trkpt lat="42.0595315" lon="13.6115339"><ele>755.0</ele><time>2026-05-01T07:53:03.045Z</time></trkpt><trkpt lat="42.0595552" lon="13.6116229"><ele>755.0</ele><time>2026-05-01T07:53:04.052Z</time></trkpt><trkpt lat="42.0595729" lon="13.6117159"><ele>755.0</ele><time>2026-05-01T07:53:05.034Z</time></trkpt><trkpt lat="42.059585" lon="13.6118033"><ele>755.0</ele><time>2026-05-01T07:53:06.032Z</time></trkpt><trkpt lat="42.0596009" lon="13.6118861"><ele>755.1666666666666</ele><time>2026-05-01T07:53:07.047Z</time></trkpt><trkpt lat="42.059652" lon="13.6120318"><ele>755.3333333333333</ele><time>2026-05-01T07:53:09.044Z</time></trkpt><trkpt lat="42.0596845" lon="13.6121082"><ele>755.5</ele><time>2026-05-01T07:53:10.05Z</time></trkpt><trkpt lat="42.0597266" lon="13.6121804"><ele>755.6666666666666</ele><time>2026-05-01T07:53:11.053Z</time></trkpt><trkpt lat="42.0597738" lon="13.6122451"><ele>755.8333333333334</ele><time>2026-05-01T07:53:12.052Z</time></trkpt><trkpt lat="42.0598263" lon="13.6123022"><ele>756.0</ele><time>2026-05-01T07:53:13.048Z</time></trkpt><trkpt lat="42.0598848" lon="13.6123678"><ele>756.0</ele><time>2026-05-01T07:53:14.051Z</time></trkpt><trkpt lat="42.0599414" lon="13.6124352"><ele>756.0</ele><time>2026-05-01T07:53:15.061Z</time></trkpt><trkpt lat="42.0599939" lon="13.6124912"><ele>756.0</ele><time>2026-05-01T07:53:16.056Z</time></trkpt><trkpt lat="42.0600496" lon="13.6125355"><ele>756.0</ele><time>2026-05-01T07:53:17.046Z</time></trkpt><trkpt lat="42.0601528" lon="13.6126253"><ele>756.0</ele><time>2026-05-01T07:53:19.053Z</time></trkpt><trkpt lat="42.0602072" lon="13.6126783"><ele>756.0</ele><time>2026-05-01T07:53:20.058Z</time></trkpt><trkpt lat="42.0602578" lon="13.6127429"><ele>756.5</ele><time>2026-05-01T07:53:21.055Z</time></trkpt><trkpt lat="42.0602999" lon="13.6128337"><ele>757.0</ele><time>2026-05-01T07:53:22.042Z</time></trkpt><trkpt lat="42.0603282" lon="13.6129217"><ele>757.5</ele><time>2026-05-01T07:53:23.058Z</time></trkpt><trkpt lat="42.0603557" lon="13.6130079"><ele>758.0</ele><time>2026-05-01T07:53:24.05Z</time></trkpt><trkpt lat="42.0603886" lon="13.6130902"><ele>758.5</ele><time>2026-05-01T07:53:25.058Z</time></trkpt><trkpt lat="42.0604494" lon="13.6132253"><ele>759.0</ele><time>2026-05-01T07:53:27.051Z</time></trkpt><trkpt lat="42.0604816" lon="13.6133042"><ele>759.0</ele><time>2026-05-01T07:53:28.079Z</time></trkpt><trkpt lat="42.0605224" lon="13.6133857"><ele>759.0</ele><time>2026-05-01T07:53:29.048Z</time></trkpt><trkpt lat="42.0605681" lon="13.6134647"><ele>759.0</ele><time>2026-05-01T07:53:30.047Z</time></trkpt><trkpt lat="42.0606115" lon="13.6135343"><ele>759.0</ele><time>2026-05-01T07:53:31.055Z</time></trkpt><trkpt lat="42.0606901" lon="13.6136571"><ele>759.0</ele><time>2026-05-01T07:53:33.048Z</time></trkpt><trkpt lat="42.0607563" lon="13.6137643"><ele>759.0</ele><time>2026-05-01T07:53:35.051Z</time></trkpt><trkpt lat="42.0608196" lon="13.6138646"><ele>759.5</ele><time>2026-05-01T07:53:37.058Z</time></trkpt><trkpt lat="42.0608939" lon="13.6139896"><ele>760.0</ele><time>2026-05-01T07:53:39.061Z</time></trkpt><trkpt lat="42.0609329" lon="13.6140624"><ele>760.5</ele><time>2026-05-01T07:53:40.042Z</time></trkpt><trkpt lat="42.0609674" lon="13.6141378"><ele>761.0</ele><time>2026-05-01T07:53:41.059Z</time></trkpt><trkpt lat="42.0610055" lon="13.6142232"><ele>761.5</ele><time>2026-05-01T07:53:42.058Z</time></trkpt><trkpt lat="42.0610403" lon="13.61431"><ele>762.0</ele><time>2026-05-01T07:53:43.059Z</time></trkpt><trkpt lat="42.0610767" lon="13.6144066"><ele>762.1666666666666</ele><time>2026-05-01T07:53:44.074Z</time></trkpt><trkpt lat="42.061106" lon="13.6144979"><ele>762.3333333333334</ele><time>2026-05-01T07:53:45.063Z</time></trkpt><trkpt lat="42.0611281" lon="13.614585"><ele>762.5</ele><time>2026-05-01T07:53:46.055Z</time></trkpt><trkpt lat="42.0611465" lon="13.6146693"><ele>762.6666666666667</ele><time>2026-05-01T07:53:47.055Z</time></trkpt><trkpt lat="42.0611641" lon="13.6147557"><ele>762.8333333333334</ele><time>2026-05-01T07:53:48.053Z</time></trkpt><trkpt lat="42.0611814" lon="13.6148421"><ele>763.0</ele><time>2026-05-01T07:53:49.068Z</time></trkpt><trkpt lat="42.0611994" lon="13.6149898"><ele>763.0</ele><time>2026-05-01T07:53:51.054Z</time></trkpt><trkpt lat="42.0612027" lon="13.6151334"><ele>763.0</ele><time>2026-05-01T07:53:53.056Z</time></trkpt><trkpt lat="42.0612031" lon="13.6152791"><ele>763.0</ele><time>2026-05-01T07:53:55.039Z</time></trkpt><trkpt lat="42.0612124" lon="13.6154318"><ele>763.0</ele><time>2026-05-01T07:53:57.047Z</time></trkpt><trkpt lat="42.0612379" lon="13.6155684"><ele>763.0</ele><time>2026-05-01T07:53:59.073Z</time></trkpt><trkpt lat="42.0612485" lon="13.6157095"><ele>763.6666666666667</ele><time>2026-05-01T07:54:01.053Z</time></trkpt><trkpt lat="42.0612558" lon="13.6158024"><ele>764.3333333333334</ele><time>2026-05-01T07:54:03.073Z</time></trkpt><trkpt lat="42.0612714" lon="13.6159336"><ele>765.0</ele><time>2026-05-01T07:54:06.048Z</time></trkpt><trkpt lat="42.0612799" lon="13.6160278"><ele>765.6666666666666</ele><time>2026-05-01T07:54:08.051Z</time></trkpt><trkpt lat="42.0612807" lon="13.6161264"><ele>766.3333333333333</ele><time>2026-05-01T07:54:10.063Z</time></trkpt><trkpt lat="42.0612659" lon="13.6162318"><ele>767.0</ele><time>2026-05-01T07:54:12.048Z</time></trkpt><trkpt lat="42.0612542" lon="13.6163335"><ele>767.2857142857143</ele><time>2026-05-01T07:54:14.057Z</time></trkpt><trkpt lat="42.0612659" lon="13.6164489"><ele>767.5714285714287</ele><time>2026-05-01T07:54:16.045Z</time></trkpt><trkpt lat="42.0612799" lon="13.616532"><ele>767.8571428571429</ele><time>2026-05-01T07:54:18.045Z</time></trkpt><trkpt lat="42.0612878" lon="13.6166203"><ele>768.1428571428571</ele><time>2026-05-01T07:54:20.051Z</time></trkpt><trkpt lat="42.0613021" lon="13.6167036"><ele>768.4285714285714</ele><time>2026-05-01T07:54:23.065Z</time></trkpt><trkpt lat="42.0613136" lon="13.6167967"><ele>768.7142857142857</ele><time>2026-05-01T07:54:51.056Z</time></trkpt><trkpt lat="42.0613149" lon="13.6169133"><ele>769.0</ele><time>2026-05-01T07:54:54.05Z</time></trkpt><trkpt lat="42.0613017" lon="13.6170137"><ele>771.8000000000001</ele><time>2026-05-01T07:54:57.044Z</time></trkpt><trkpt lat="42.0612752" lon="13.6171451"><ele>774.6</ele><time>2026-05-01T07:55:00.047Z</time></trkpt><trkpt lat="42.06129" lon="13.6172612"><ele>777.4</ele><time>2026-05-01T07:55:02.054Z</time></trkpt><trkpt lat="42.0613349" lon="13.6173875"><ele>780.2</ele><time>2026-05-01T07:55:04.044Z</time></trkpt><trkpt lat="42.0614008" lon="13.6175009"><ele>783.0</ele><time>2026-05-01T07:55:06.049Z</time></trkpt><trkpt lat="42.0614643" lon="13.6175982"><ele>783.0</ele><time>2026-05-01T07:55:08.061Z</time></trkpt><trkpt lat="42.0615126" lon="13.6177421"><ele>783.0</ele><time>2026-05-01T07:55:10.05Z</time></trkpt><trkpt lat="42.0615412" lon="13.617863"><ele>783.0</ele><time>2026-05-01T07:55:12.048Z</time></trkpt><trkpt lat="42.0615298" lon="13.6179805"><ele>783.0</ele><time>2026-05-01T07:55:14.05Z</time></trkpt><trkpt lat="42.0615099" lon="13.6180904"><ele>783.0</ele><time>2026-05-01T07:55:16.045Z</time></trkpt><trkpt lat="42.0614382" lon="13.6181778"><ele>785.0</ele><time>2026-05-01T07:55:18.054Z</time></trkpt><trkpt lat="42.0613472" lon="13.6182257"><ele>787.0</ele><time>2026-05-01T07:55:20.049Z</time></trkpt><trkpt lat="42.0612601" lon="13.6182675"><ele>789.0</ele><time>2026-05-01T07:55:22.049Z</time></trkpt><trkpt lat="42.0611594" lon="13.6183119"><ele>791.0</ele><time>2026-05-01T07:55:24.05Z</time></trkpt><trkpt lat="42.061093" lon="13.6183502"><ele>793.0</ele><time>2026-05-01T07:55:26.06Z</time></trkpt><trkpt lat="42.0610383" lon="13.61843"><ele>795.0</ele><time>2026-05-01T07:55:28.045Z</time></trkpt><trkpt lat="42.0610053" lon="13.6185204"><ele>795.0</ele><time>2026-05-01T07:55:30.049Z</time></trkpt><trkpt lat="42.0609939" lon="13.6186052"><ele>795.0</ele><time>2026-05-01T07:55:32.048Z</time></trkpt><trkpt lat="42.0609657" lon="13.6186931"><ele>795.0</ele><time>2026-05-01T07:55:34.062Z</time></trkpt><trkpt lat="42.0609058" lon="13.6187661"><ele>795.0</ele><time>2026-05-01T07:55:37.061Z</time></trkpt><trkpt lat="42.0608367" lon="13.6187598"><ele>795.0</ele><time>2026-05-01T07:55:39.054Z</time></trkpt><trkpt lat="42.0607564" lon="13.6187395"><ele>795.0</ele><time>2026-05-01T07:55:41.05Z</time></trkpt><trkpt lat="42.0606853" lon="13.6187025"><ele>795.0</ele><time>2026-05-01T07:55:43.054Z</time></trkpt><trkpt lat="42.0606135" lon="13.6186879"><ele>798.1666666666666</ele><time>2026-05-01T07:55:45.061Z</time></trkpt><trkpt lat="42.0605656" lon="13.6188044"><ele>801.3333333333333</ele><time>2026-05-01T07:55:47.06Z</time></trkpt><trkpt lat="42.0605945" lon="13.6189608"><ele>804.5</ele><time>2026-05-01T07:55:49.055Z</time></trkpt><trkpt lat="42.0606243" lon="13.6190372"><ele>807.6666666666666</ele><time>2026-05-01T07:55:50.06Z</time></trkpt><trkpt lat="42.060659" lon="13.6191147"><ele>810.8333333333333</ele><time>2026-05-01T07:55:51.067Z</time></trkpt><trkpt lat="42.0606917" lon="13.6191936"><ele>814.0</ele><time>2026-05-01T07:55:52.064Z</time></trkpt><trkpt lat="42.0607238" lon="13.6192677"><ele>814.0000000000001</ele><time>2026-05-01T07:55:53.05Z</time></trkpt><trkpt lat="42.0607546" lon="13.6193505"><ele>814.0</ele><time>2026-05-01T07:55:54.052Z</time></trkpt><trkpt lat="42.0607849" lon="13.6194303"><ele>814.0</ele><time>2026-05-01T07:55:55.049Z</time></trkpt><trkpt lat="42.0608177" lon="13.6195125"><ele>814.0</ele><time>2026-05-01T07:55:56.052Z</time></trkpt><trkpt lat="42.0608511" lon="13.619594"><ele>814.0</ele><time>2026-05-01T07:55:57.072Z</time></trkpt><trkpt lat="42.0608877" lon="13.6196661"><ele>814.0000000000001</ele><time>2026-05-01T07:55:58.055Z</time></trkpt><trkpt lat="42.0609371" lon="13.619732"><ele>814.0</ele><time>2026-05-01T07:55:59.053Z</time></trkpt><trkpt lat="42.06099" lon="13.6197851"><ele>812.75</ele><time>2026-05-01T07:56:00.047Z</time></trkpt><trkpt lat="42.0610974" lon="13.619868"><ele>811.5</ele><time>2026-05-01T07:56:02.05Z</time></trkpt><trkpt lat="42.0612037" lon="13.6199378"><ele>810.25</ele><time>2026-05-01T07:56:04.051Z</time></trkpt><trkpt lat="42.0612941" lon="13.6200108"><ele>809.0</ele><time>2026-05-01T07:56:06.056Z</time></trkpt><trkpt lat="42.0613624" lon="13.6201351"><ele>809.0</ele><time>2026-05-01T07:56:08.045Z</time></trkpt><trkpt lat="42.0614227" lon="13.6202663"><ele>809.0</ele><time>2026-05-01T07:56:10.051Z</time></trkpt><trkpt lat="42.0614635" lon="13.6203903"><ele>809.0</ele><time>2026-05-01T07:56:12.054Z</time></trkpt><trkpt lat="42.0614442" lon="13.6204736"><ele>809.0</ele><time>2026-05-01T07:56:14.054Z</time></trkpt><trkpt lat="42.0613653" lon="13.6205058"><ele>809.0</ele><time>2026-05-01T07:56:16.042Z</time></trkpt><trkpt lat="42.0612404" lon="13.6204572"><ele>811.1666666666667</ele><time>2026-05-01T07:56:18.057Z</time></trkpt><trkpt lat="42.0611284" lon="13.6204421"><ele>813.3333333333334</ele><time>2026-05-01T07:56:20.056Z</time></trkpt><trkpt lat="42.0610084" lon="13.6204412"><ele>815.5</ele><time>2026-05-01T07:56:22.054Z</time></trkpt><trkpt lat="42.06094" lon="13.6204574"><ele>817.6666666666667</ele><time>2026-05-01T07:56:23.055Z</time></trkpt><trkpt lat="42.0608754" lon="13.6204853"><ele>819.8333333333334</ele><time>2026-05-01T07:56:24.065Z</time></trkpt><trkpt lat="42.0608098" lon="13.6205062"><ele>822.0</ele><time>2026-05-01T07:56:25.046Z</time></trkpt><trkpt lat="42.0607384" lon="13.6205272"><ele>822.8333333333334</ele><time>2026-05-01T07:56:26.047Z</time></trkpt><trkpt lat="42.0606669" lon="13.6205527"><ele>823.6666666666667</ele><time>2026-05-01T07:56:27.053Z</time></trkpt><trkpt lat="42.0605881" lon="13.6205731"><ele>824.5</ele><time>2026-05-01T07:56:28.052Z</time></trkpt><trkpt lat="42.0605042" lon="13.6206064"><ele>825.3333333333334</ele><time>2026-05-01T07:56:29.051Z</time></trkpt><trkpt lat="42.0604286" lon="13.6206474"><ele>826.1666666666667</ele><time>2026-05-01T07:56:30.076Z</time></trkpt><trkpt lat="42.0603594" lon="13.6206853"><ele>827.0</ele><time>2026-05-01T07:56:31.05Z</time></trkpt><trkpt lat="42.0602842" lon="13.6207237"><ele>827.0</ele><time>2026-05-01T07:56:32.054Z</time></trkpt><trkpt lat="42.060222" lon="13.6207664"><ele>827.0</ele><time>2026-05-01T07:56:33.057Z</time></trkpt><trkpt lat="42.0601525" lon="13.6208535"><ele>827.0</ele><time>2026-05-01T07:56:35.049Z</time></trkpt><trkpt lat="42.0601457" lon="13.6209547"><ele>827.0</ele><time>2026-05-01T07:56:37.082Z</time></trkpt><trkpt lat="42.0601982" lon="13.6210388"><ele>827.0</ele><time>2026-05-01T07:56:39.047Z</time></trkpt><trkpt lat="42.0603205" lon="13.6211385"><ele>828.2</ele><time>2026-05-01T07:56:41.055Z</time></trkpt><trkpt lat="42.0603973" lon="13.6212281"><ele>829.4000000000001</ele><time>2026-05-01T07:56:42.048Z</time></trkpt><trkpt lat="42.0604775" lon="13.621319"><ele>830.5999999999999</ele><time>2026-05-01T07:56:43.054Z</time></trkpt><trkpt lat="42.0605532" lon="13.6213945"><ele>831.8</ele><time>2026-05-01T07:56:44.049Z</time></trkpt><trkpt lat="42.0606194" lon="13.6214712"><ele>833.0</ele><time>2026-05-01T07:56:45.051Z</time></trkpt><trkpt lat="42.0606822" lon="13.6215472"><ele>833.0000000000001</ele><time>2026-05-01T07:56:46.058Z</time></trkpt><trkpt lat="42.0607472" lon="13.6216256"><ele>833.0</ele><time>2026-05-01T07:56:47.054Z</time></trkpt><trkpt lat="42.0608092" lon="13.6217059"><ele>833.0</ele><time>2026-05-01T07:56:48.078Z</time></trkpt><trkpt lat="42.0608744" lon="13.6217836"><ele>833.0</ele><time>2026-05-01T07:56:49.05Z</time></trkpt><trkpt lat="42.0609377" lon="13.6218612"><ele>833.0000000000001</ele><time>2026-05-01T07:56:50.061Z</time></trkpt><trkpt lat="42.0609996" lon="13.6219389"><ele>833.0</ele><time>2026-05-01T07:56:51.055Z</time></trkpt><trkpt lat="42.0610617" lon="13.6220092"><ele>833.0000000000001</ele><time>2026-05-01T07:56:52.042Z</time></trkpt><trkpt lat="42.0611249" lon="13.6220867"><ele>833.0</ele><time>2026-05-01T07:56:53.094Z</time></trkpt><trkpt lat="42.0611779" lon="13.6221791"><ele>833.0</ele><time>2026-05-01T07:56:54.059Z</time></trkpt><trkpt lat="42.061227" lon="13.6222763"><ele>833.0</ele><time>2026-05-01T07:56:55.061Z</time></trkpt><trkpt lat="42.0612687" lon="13.6223779"><ele>833.0000000000001</ele><time>2026-05-01T07:56:56.05Z</time></trkpt><trkpt lat="42.0613061" lon="13.6224737"><ele>833.0</ele><time>2026-05-01T07:56:57.052Z</time></trkpt><trkpt lat="42.0613374" lon="13.622573"><ele>833.0</ele><time>2026-05-01T07:56:58.052Z</time></trkpt><trkpt lat="42.0613656" lon="13.6226771"><ele>833.0</ele><time>2026-05-01T07:56:59.047Z</time></trkpt><trkpt lat="42.0613958" lon="13.622792"><ele>833.0</ele><time>2026-05-01T07:57:00.044Z</time></trkpt><trkpt lat="42.0614188" lon="13.6229163"><ele>833.0</ele><time>2026-05-01T07:57:01.052Z</time></trkpt><trkpt lat="42.0614436" lon="13.6230403"><ele>833.0</ele><time>2026-05-01T07:57:02.059Z</time></trkpt><trkpt lat="42.0614758" lon="13.6231603"><ele>833.4</ele><time>2026-05-01T07:57:03.052Z</time></trkpt><trkpt lat="42.0615107" lon="13.6232816"><ele>833.8</ele><time>2026-05-01T07:57:04.045Z</time></trkpt><trkpt lat="42.0615521" lon="13.6234027"><ele>834.2</ele><time>2026-05-01T07:57:05.055Z</time></trkpt><trkpt lat="42.0615886" lon="13.6235206"><ele>834.6</ele><time>2026-05-01T07:57:06.045Z</time></trkpt><trkpt lat="42.0616296" lon="13.6236404"><ele>835.0</ele><time>2026-05-01T07:57:07.057Z</time></trkpt><trkpt lat="42.0616733" lon="13.6237632"><ele>835.6</ele><time>2026-05-01T07:57:08.062Z</time></trkpt><trkpt lat="42.0617184" lon="13.6238841"><ele>836.2</ele><time>2026-05-01T07:57:09.052Z</time></trkpt><trkpt lat="42.0617615" lon="13.6240012"><ele>836.8</ele><time>2026-05-01T07:57:10.054Z</time></trkpt><trkpt lat="42.0618011" lon="13.6241167"><ele>837.4</ele><time>2026-05-01T07:57:11.053Z</time></trkpt><trkpt lat="42.0618366" lon="13.6242294"><ele>838.0</ele><time>2026-05-01T07:57:12.051Z</time></trkpt><trkpt lat="42.0618708" lon="13.6243356"><ele>838.0</ele><time>2026-05-01T07:57:13.049Z</time></trkpt><trkpt lat="42.0618994" lon="13.6244416"><ele>838.0</ele><time>2026-05-01T07:57:14.057Z</time></trkpt><trkpt lat="42.0619287" lon="13.6245547"><ele>838.0</ele><time>2026-05-01T07:57:15.045Z</time></trkpt><trkpt lat="42.0619641" lon="13.6246801"><ele>838.0</ele><time>2026-05-01T07:57:16.088Z</time></trkpt><trkpt lat="42.0620003" lon="13.6248105"><ele>838.0</ele><time>2026-05-01T07:57:17.052Z</time></trkpt><trkpt lat="42.0620411" lon="13.6249433"><ele>838.25</ele><time>2026-05-01T07:57:18.049Z</time></trkpt><trkpt lat="42.0620808" lon="13.6250845"><ele>838.5</ele><time>2026-05-01T07:57:19.056Z</time></trkpt><trkpt lat="42.0621247" lon="13.6252292"><ele>838.75</ele><time>2026-05-01T07:57:20.047Z</time></trkpt><trkpt lat="42.0621659" lon="13.6253715"><ele>839.0</ele><time>2026-05-01T07:57:21.056Z</time></trkpt><trkpt lat="42.0622059" lon="13.6255129"><ele>839.2</ele><time>2026-05-01T07:57:22.048Z</time></trkpt><trkpt lat="42.0622457" lon="13.625651"><ele>839.4000000000001</ele><time>2026-05-01T07:57:23.053Z</time></trkpt><trkpt lat="42.0622835" lon="13.6257836"><ele>839.6</ele><time>2026-05-01T07:57:24.053Z</time></trkpt><trkpt lat="42.0623265" lon="13.6259078"><ele>839.8</ele><time>2026-05-01T07:57:25.04Z</time></trkpt><trkpt lat="42.0623732" lon="13.6260305"><ele>840.0</ele><time>2026-05-01T07:57:26.046Z</time></trkpt><trkpt lat="42.0624273" lon="13.6261448"><ele>840.4</ele><time>2026-05-01T07:57:27.064Z</time></trkpt><trkpt lat="42.0624821" lon="13.6262609"><ele>840.8</ele><time>2026-05-01T07:57:28.05Z</time></trkpt><trkpt lat="42.0625423" lon="13.6263865"><ele>841.2</ele><time>2026-05-01T07:57:29.073Z</time></trkpt><trkpt lat="42.0626068" lon="13.6265078"><ele>841.6</ele><time>2026-05-01T07:57:30.047Z</time></trkpt><trkpt lat="42.0626627" lon="13.6266339"><ele>842.0</ele><time>2026-05-01T07:57:31.046Z</time></trkpt><trkpt lat="42.062718" lon="13.626751"><ele>842.0</ele><time>2026-05-01T07:57:32.045Z</time></trkpt><trkpt lat="42.0627763" lon="13.626867"><ele>842.0</ele><time>2026-05-01T07:57:33.053Z</time></trkpt><trkpt lat="42.0628303" lon="13.6269866"><ele>842.0</ele><time>2026-05-01T07:57:34.078Z</time></trkpt><trkpt lat="42.0628835" lon="13.6271099"><ele>842.0</ele><time>2026-05-01T07:57:35.057Z</time></trkpt><trkpt lat="42.0629321" lon="13.6272341"><ele>842.0</ele><time>2026-05-01T07:57:36.052Z</time></trkpt><trkpt lat="42.0629774" lon="13.6273469"><ele>842.0000000000001</ele><time>2026-05-01T07:57:37.06Z</time></trkpt><trkpt lat="42.0630219" lon="13.6274514"><ele>842.0</ele><time>2026-05-01T07:57:38.053Z</time></trkpt><trkpt lat="42.0630631" lon="13.6275537"><ele>842.0</ele><time>2026-05-01T07:57:39.054Z</time></trkpt><trkpt lat="42.0631014" lon="13.6276552"><ele>842.0</ele><time>2026-05-01T07:57:40.048Z</time></trkpt><trkpt lat="42.0631368" lon="13.6277307"><ele>842.0000000000001</ele><time>2026-05-01T07:57:41.049Z</time></trkpt><trkpt lat="42.0631959" lon="13.6278661"><ele>842.0</ele><time>2026-05-01T07:57:43.044Z</time></trkpt><trkpt lat="42.0632882" lon="13.6279795"><ele>842.5</ele><time>2026-05-01T07:57:45.05Z</time></trkpt><trkpt lat="42.0633719" lon="13.6280462"><ele>843.0</ele><time>2026-05-01T07:57:46.049Z</time></trkpt><trkpt lat="42.0634765" lon="13.6281188"><ele>843.5</ele><time>2026-05-01T07:57:47.066Z</time></trkpt><trkpt lat="42.0636059" lon="13.6281867"><ele>844.0</ele><time>2026-05-01T07:57:48.058Z</time></trkpt><trkpt lat="42.0637471" lon="13.6282489"><ele>844.0</ele><time>2026-05-01T07:57:49.051Z</time></trkpt><trkpt lat="42.0638703" lon="13.6283106"><ele>844.0</ele><time>2026-05-01T07:57:50.054Z</time></trkpt><trkpt lat="42.0639897" lon="13.6283596"><ele>844.0</ele><time>2026-05-01T07:57:51.052Z</time></trkpt><trkpt lat="42.0641017" lon="13.6284087"><ele>844.0</ele><time>2026-05-01T07:57:52.042Z</time></trkpt><trkpt lat="42.0642103" lon="13.6284607"><ele>844.25</ele><time>2026-05-01T07:57:53.046Z</time></trkpt><trkpt lat="42.0643121" lon="13.6285185"><ele>844.5</ele><time>2026-05-01T07:57:54.047Z</time></trkpt><trkpt lat="42.0644031" lon="13.6285961"><ele>844.75</ele><time>2026-05-01T07:57:55.044Z</time></trkpt><trkpt lat="42.0644925" lon="13.6286959"><ele>845.0</ele><time>2026-05-01T07:57:56.049Z</time></trkpt><trkpt lat="42.0645712" lon="13.6288161"><ele>845.0</ele><time>2026-05-01T07:57:57.052Z</time></trkpt><trkpt lat="42.0646433" lon="13.6289512"><ele>845.0</ele><time>2026-05-01T07:57:58.047Z</time></trkpt><trkpt lat="42.0647106" lon="13.6290849"><ele>845.0</ele><time>2026-05-01T07:57:59.054Z</time></trkpt><trkpt lat="42.0647803" lon="13.6292228"><ele>845.0</ele><time>2026-05-01T07:58:00.05Z</time></trkpt><trkpt lat="42.0648491" lon="13.6293686"><ele>845.75</ele><time>2026-05-01T07:58:01.05Z</time></trkpt><trkpt lat="42.0649164" lon="13.6295115"><ele>846.5</ele><time>2026-05-01T07:58:02.06Z</time></trkpt><trkpt lat="42.0649898" lon="13.6296553"><ele>847.25</ele><time>2026-05-01T07:58:03.051Z</time></trkpt><trkpt lat="42.0650674" lon="13.6298095"><ele>848.0</ele><time>2026-05-01T07:58:04.049Z</time></trkpt><trkpt lat="42.065142" lon="13.6299681"><ele>848.0</ele><time>2026-05-01T07:58:05.054Z</time></trkpt><trkpt lat="42.0652247" lon="13.6301229"><ele>848.0</ele><time>2026-05-01T07:58:06.055Z</time></trkpt><trkpt lat="42.0653115" lon="13.630283"><ele>848.0</ele><time>2026-05-01T07:58:07.077Z</time></trkpt><trkpt lat="42.0653934" lon="13.6304441"><ele>848.0</ele><time>2026-05-01T07:58:08.053Z</time></trkpt><trkpt lat="42.0654674" lon="13.6306068"><ele>848.25</ele><time>2026-05-01T07:58:09.048Z</time></trkpt><trkpt lat="42.0655419" lon="13.630761"><ele>848.5</ele><time>2026-05-01T07:58:10.054Z</time></trkpt><trkpt lat="42.0656183" lon="13.6309055"><ele>848.75</ele><time>2026-05-01T07:58:11.055Z</time></trkpt><trkpt lat="42.0656913" lon="13.6310376"><ele>849.0</ele><time>2026-05-01T07:58:12.079Z</time></trkpt><trkpt lat="42.0657604" lon="13.631176"><ele>851.5</ele><time>2026-05-01T07:58:13.046Z</time></trkpt><trkpt lat="42.0658317" lon="13.631311"><ele>854.0</ele><time>2026-05-01T07:58:14.051Z</time></trkpt><trkpt lat="42.0658973" lon="13.6314414"><ele>856.5</ele><time>2026-05-01T07:58:15.056Z</time></trkpt><trkpt lat="42.0659694" lon="13.6315655"><ele>859.0</ele><time>2026-05-01T07:58:16.048Z</time></trkpt><trkpt lat="42.0660561" lon="13.6316797"><ele>859.0</ele><time>2026-05-01T07:58:17.078Z</time></trkpt><trkpt lat="42.0661581" lon="13.6317565"><ele>859.0</ele><time>2026-05-01T07:58:18.05Z</time></trkpt><trkpt lat="42.0662873" lon="13.6317934"><ele>859.0</ele><time>2026-05-01T07:58:19.053Z</time></trkpt><trkpt lat="42.0664243" lon="13.6317822"><ele>859.0</ele><time>2026-05-01T07:58:20.043Z</time></trkpt><trkpt lat="42.0665655" lon="13.6317394"><ele>860.25</ele><time>2026-05-01T07:58:21.051Z</time></trkpt><trkpt lat="42.0667112" lon="13.6316884"><ele>861.5</ele><time>2026-05-01T07:58:22.048Z</time></trkpt><trkpt lat="42.0668488" lon="13.6316441"><ele>862.75</ele><time>2026-05-01T07:58:23.048Z</time></trkpt><trkpt lat="42.0669809" lon="13.6316042"><ele>864.0</ele><time>2026-05-01T07:58:24.055Z</time></trkpt><trkpt lat="42.0671098" lon="13.6315633"><ele>864.0</ele><time>2026-05-01T07:58:25.05Z</time></trkpt><trkpt lat="42.0672369" lon="13.6315221"><ele>864.0</ele><time>2026-05-01T07:58:26.051Z</time></trkpt><trkpt lat="42.0673655" lon="13.6314798"><ele>864.0</ele><time>2026-05-01T07:58:27.052Z</time></trkpt><trkpt lat="42.0674932" lon="13.6314389"><ele>864.0</ele><time>2026-05-01T07:58:28.044Z</time></trkpt><trkpt lat="42.067622" lon="13.6313975"><ele>865.25</ele><time>2026-05-01T07:58:29.055Z</time></trkpt><trkpt lat="42.0677566" lon="13.6313607"><ele>866.5</ele><time>2026-05-01T07:58:30.04Z</time></trkpt><trkpt lat="42.0678878" lon="13.6313106"><ele>867.75</ele><time>2026-05-01T07:58:31.093Z</time></trkpt><trkpt lat="42.0680061" lon="13.6312369"><ele>869.0</ele><time>2026-05-01T07:58:32.047Z</time></trkpt><trkpt lat="42.0681164" lon="13.6311527"><ele>868.5</ele><time>2026-05-01T07:58:33.049Z</time></trkpt><trkpt lat="42.0682269" lon="13.6310704"><ele>868.0</ele><time>2026-05-01T07:58:34.06Z</time></trkpt><trkpt lat="42.0683347" lon="13.6310036"><ele>867.5</ele><time>2026-05-01T07:58:35.047Z</time></trkpt><trkpt lat="42.0684454" lon="13.6309588"><ele>867.0</ele><time>2026-05-01T07:58:36.047Z</time></trkpt><trkpt lat="42.0685582" lon="13.6309504"><ele>867.0</ele><time>2026-05-01T07:58:37.063Z</time></trkpt><trkpt lat="42.0686826" lon="13.6309873"><ele>867.0</ele><time>2026-05-01T07:58:38.051Z</time></trkpt><trkpt lat="42.0688055" lon="13.6310416"><ele>867.0</ele><time>2026-05-01T07:58:39.059Z</time></trkpt><trkpt lat="42.0689071" lon="13.6311423"><ele>867.0</ele><time>2026-05-01T07:58:40.051Z</time></trkpt><trkpt lat="42.068999" lon="13.631279"><ele>868.3333333333333</ele><time>2026-05-01T07:58:41.066Z</time></trkpt><trkpt lat="42.069073" lon="13.6314399"><ele>869.6666666666666</ele><time>2026-05-01T07:58:42.057Z</time></trkpt><trkpt lat="42.0691303" lon="13.6316287"><ele>871.0</ele><time>2026-05-01T07:58:43.053Z</time></trkpt><trkpt lat="42.0691768" lon="13.6318384"><ele>873.3333333333333</ele><time>2026-05-01T07:58:44.052Z</time></trkpt><trkpt lat="42.0692263" lon="13.6320428"><ele>875.6666666666667</ele><time>2026-05-01T07:58:45.061Z</time></trkpt><trkpt lat="42.0692794" lon="13.6322405"><ele>878.0</ele><time>2026-05-01T07:58:46.043Z</time></trkpt><trkpt lat="42.0693306" lon="13.6324248"><ele>878.0</ele><time>2026-05-01T07:58:47.051Z</time></trkpt><trkpt lat="42.0693786" lon="13.6326024"><ele>878.0</ele><time>2026-05-01T07:58:48.053Z</time></trkpt><trkpt lat="42.0694251" lon="13.6327784"><ele>878.0</ele><time>2026-05-01T07:58:49.052Z</time></trkpt><trkpt lat="42.0694718" lon="13.632948"><ele>878.0</ele><time>2026-05-01T07:58:50.052Z</time></trkpt><trkpt lat="42.0695179" lon="13.6331237"><ele>879.5</ele><time>2026-05-01T07:58:51.058Z</time></trkpt><trkpt lat="42.0695568" lon="13.6332928"><ele>881.0</ele><time>2026-05-01T07:58:52.058Z</time></trkpt><trkpt lat="42.0695892" lon="13.6334526"><ele>882.5</ele><time>2026-05-01T07:58:53.052Z</time></trkpt><trkpt lat="42.0696128" lon="13.6336136"><ele>884.0</ele><time>2026-05-01T07:58:54.05Z</time></trkpt><trkpt lat="42.0696231" lon="13.6337729"><ele>885.0</ele><time>2026-05-01T07:58:55.047Z</time></trkpt><trkpt lat="42.0696393" lon="13.6339345"><ele>886.0</ele><time>2026-05-01T07:58:56.053Z</time></trkpt><trkpt lat="42.0696597" lon="13.6340925"><ele>887.0</ele><time>2026-05-01T07:58:57.052Z</time></trkpt><trkpt lat="42.0696904" lon="13.634249"><ele>888.0</ele><time>2026-05-01T07:58:58.064Z</time></trkpt><trkpt lat="42.0697452" lon="13.634405"><ele>888.25</ele><time>2026-05-01T07:58:59.051Z</time></trkpt><trkpt lat="42.0698095" lon="13.6345593"><ele>888.5</ele><time>2026-05-01T07:59:00.083Z</time></trkpt><trkpt lat="42.0698857" lon="13.6347131"><ele>888.75</ele><time>2026-05-01T07:59:01.053Z</time></trkpt><trkpt lat="42.0699679" lon="13.6348594"><ele>889.0</ele><time>2026-05-01T07:59:02.046Z</time></trkpt><trkpt lat="42.0700526" lon="13.6350037"><ele>889.0</ele><time>2026-05-01T07:59:03.049Z</time></trkpt><trkpt lat="42.0701342" lon="13.6351423"><ele>889.0</ele><time>2026-05-01T07:59:04.045Z</time></trkpt><trkpt lat="42.0702105" lon="13.6352693"><ele>889.0</ele><time>2026-05-01T07:59:05.051Z</time></trkpt><trkpt lat="42.0702844" lon="13.6353909"><ele>889.0</ele><time>2026-05-01T07:59:06.045Z</time></trkpt><trkpt lat="42.0703555" lon="13.6355035"><ele>892.2</ele><time>2026-05-01T07:59:07.074Z</time></trkpt><trkpt lat="42.0704238" lon="13.6356191"><ele>895.4000000000001</ele><time>2026-05-01T07:59:08.053Z</time></trkpt><trkpt lat="42.0704904" lon="13.6357385"><ele>898.6</ele><time>2026-05-01T07:59:09.05Z</time></trkpt><trkpt lat="42.0705543" lon="13.6358558"><ele>901.8</ele><time>2026-05-01T07:59:10.05Z</time></trkpt><trkpt lat="42.0706104" lon="13.6359667"><ele>905.0</ele><time>2026-05-01T07:59:11.058Z</time></trkpt><trkpt lat="42.0706533" lon="13.6360553"><ele>905.0000000000001</ele><time>2026-05-01T07:59:12.047Z</time></trkpt><trkpt lat="42.0706894" lon="13.6361386"><ele>905.0</ele><time>2026-05-01T07:59:13.042Z</time></trkpt><trkpt lat="42.0707272" lon="13.6362123"><ele>905.0</ele><time>2026-05-01T07:59:14.047Z</time></trkpt><trkpt lat="42.0707688" lon="13.6362925"><ele>905.0</ele><time>2026-05-01T07:59:15.056Z</time></trkpt><trkpt lat="42.0708197" lon="13.6363791"><ele>905.0000000000001</ele><time>2026-05-01T07:59:16.037Z</time></trkpt><trkpt lat="42.0708786" lon="13.6364696"><ele>905.0</ele><time>2026-05-01T07:59:17.073Z</time></trkpt><trkpt lat="42.070947" lon="13.6365578"><ele>905.0</ele><time>2026-05-01T07:59:18.05Z</time></trkpt><trkpt lat="42.0710175" lon="13.636638"><ele>905.0</ele><time>2026-05-01T07:59:19.044Z</time></trkpt><trkpt lat="42.0710894" lon="13.6367086"><ele>905.0</ele><time>2026-05-01T07:59:20.049Z</time></trkpt><trkpt lat="42.0711686" lon="13.6367849"><ele>905.0</ele><time>2026-05-01T07:59:21.053Z</time></trkpt><trkpt lat="42.0712447" lon="13.6368714"><ele>905.0</ele><time>2026-05-01T07:59:22.047Z</time></trkpt><trkpt lat="42.0713202" lon="13.6369653"><ele>904.6</ele><time>2026-05-01T07:59:23.053Z</time></trkpt><trkpt lat="42.0713973" lon="13.6370613"><ele>904.2</ele><time>2026-05-01T07:59:24.053Z</time></trkpt><trkpt lat="42.0714723" lon="13.637162"><ele>903.8</ele><time>2026-05-01T07:59:25.053Z</time></trkpt><trkpt lat="42.0715519" lon="13.6372614"><ele>903.4</ele><time>2026-05-01T07:59:26.041Z</time></trkpt><trkpt lat="42.0716353" lon="13.6373645"><ele>903.0</ele><time>2026-05-01T07:59:27.045Z</time></trkpt><trkpt lat="42.0717315" lon="13.637465"><ele>903.0</ele><time>2026-05-01T07:59:28.059Z</time></trkpt><trkpt lat="42.0718328" lon="13.6375671"><ele>903.0</ele><time>2026-05-01T07:59:29.051Z</time></trkpt><trkpt lat="42.0719372" lon="13.6376566"><ele>903.0</ele><time>2026-05-01T07:59:30.071Z</time></trkpt><trkpt lat="42.0720463" lon="13.637738"><ele>903.0</ele><time>2026-05-01T07:59:31.055Z</time></trkpt><trkpt lat="42.0721528" lon="13.6378137"><ele>904.75</ele><time>2026-05-01T07:59:32.045Z</time></trkpt><trkpt lat="42.0722614" lon="13.6378873"><ele>906.5</ele><time>2026-05-01T07:59:33.041Z</time></trkpt><trkpt lat="42.0723687" lon="13.6379486"><ele>908.25</ele><time>2026-05-01T07:59:34.051Z</time></trkpt><trkpt lat="42.0724754" lon="13.638008"><ele>910.0</ele><time>2026-05-01T07:59:35.046Z</time></trkpt><trkpt lat="42.0725843" lon="13.6380609"><ele>910.0</ele><time>2026-05-01T07:59:36.047Z</time></trkpt><trkpt lat="42.0726903" lon="13.6381191"><ele>910.0</ele><time>2026-05-01T07:59:37.068Z</time></trkpt><trkpt lat="42.0727929" lon="13.6381823"><ele>910.0</ele><time>2026-05-01T07:59:38.051Z</time></trkpt><trkpt lat="42.0728881" lon="13.6382416"><ele>910.0</ele><time>2026-05-01T07:59:39.058Z</time></trkpt><trkpt lat="42.0729768" lon="13.6383166"><ele>910.0</ele><time>2026-05-01T07:59:40.057Z</time></trkpt><trkpt lat="42.0730626" lon="13.6384173"><ele>910.0</ele><time>2026-05-01T07:59:41.05Z</time></trkpt><trkpt lat="42.0731453" lon="13.6385289"><ele>910.0</ele><time>2026-05-01T07:59:42.048Z</time></trkpt><trkpt lat="42.0732265" lon="13.6386577"><ele>910.0</ele><time>2026-05-01T07:59:43.05Z</time></trkpt><trkpt lat="42.0733024" lon="13.6387928"><ele>910.0</ele><time>2026-05-01T07:59:44.076Z</time></trkpt><trkpt lat="42.0733854" lon="13.6389307"><ele>911.75</ele><time>2026-05-01T07:59:45.049Z</time></trkpt><trkpt lat="42.0734661" lon="13.6390628"><ele>913.5</ele><time>2026-05-01T07:59:46.056Z</time></trkpt><trkpt lat="42.073552" lon="13.6391836"><ele>915.25</ele><time>2026-05-01T07:59:47.04Z</time></trkpt><trkpt lat="42.0736421" lon="13.6392968"><ele>917.0</ele><time>2026-05-01T07:59:48.059Z</time></trkpt><trkpt lat="42.0737303" lon="13.6394034"><ele>918.25</ele><time>2026-05-01T07:59:49.058Z</time></trkpt><trkpt lat="42.0738219" lon="13.639511"><ele>919.5</ele><time>2026-05-01T07:59:50.045Z</time></trkpt><trkpt lat="42.0739202" lon="13.6396168"><ele>920.75</ele><time>2026-05-01T07:59:51.048Z</time></trkpt><trkpt lat="42.0740185" lon="13.6397269"><ele>922.0</ele><time>2026-05-01T07:59:52.048Z</time></trkpt><trkpt lat="42.0741188" lon="13.639831"><ele>922.0</ele><time>2026-05-01T07:59:53.047Z</time></trkpt><trkpt lat="42.0742227" lon="13.6399377"><ele>922.0</ele><time>2026-05-01T07:59:54.084Z</time></trkpt><trkpt lat="42.0743245" lon="13.6400501"><ele>922.0</ele><time>2026-05-01T07:59:55.043Z</time></trkpt><trkpt lat="42.074423" lon="13.6401681"><ele>922.0</ele><time>2026-05-01T07:59:56.049Z</time></trkpt><trkpt lat="42.0745182" lon="13.6402859"><ele>927.75</ele><time>2026-05-01T07:59:57.051Z</time></trkpt><trkpt lat="42.0746145" lon="13.6404088"><ele>933.5</ele><time>2026-05-01T07:59:58.05Z</time></trkpt><trkpt lat="42.0747076" lon="13.6405282"><ele>939.25</ele><time>2026-05-01T07:59:59.047Z</time></trkpt><trkpt lat="42.0747973" lon="13.6406526"><ele>945.0</ele><time>2026-05-01T08:00:00.047Z</time></trkpt><trkpt lat="42.0748818" lon="13.6407799"><ele>942.75</ele><time>2026-05-01T08:00:01.077Z</time></trkpt><trkpt lat="42.0749671" lon="13.6409033"><ele>940.5</ele><time>2026-05-01T08:00:02.04Z</time></trkpt><trkpt lat="42.0750551" lon="13.6410334"><ele>938.25</ele><time>2026-05-01T08:00:03.052Z</time></trkpt><trkpt lat="42.0751465" lon="13.6411675"><ele>936.0</ele><time>2026-05-01T08:00:04.047Z</time></trkpt><trkpt lat="42.0752336" lon="13.6413038"><ele>936.0</ele><time>2026-05-01T08:00:05.042Z</time></trkpt><trkpt lat="42.0753189" lon="13.6414381"><ele>936.0</ele><time>2026-05-01T08:00:06.046Z</time></trkpt><trkpt lat="42.0754068" lon="13.6415736"><ele>936.0</ele><time>2026-05-01T08:00:07.053Z</time></trkpt><trkpt lat="42.0754943" lon="13.6417107"><ele>936.0</ele><time>2026-05-01T08:00:08.04Z</time></trkpt><trkpt lat="42.0755868" lon="13.6418435"><ele>936.0</ele><time>2026-05-01T08:00:09.05Z</time></trkpt><trkpt lat="42.0756878" lon="13.64197"><ele>936.0</ele><time>2026-05-01T08:00:10.037Z</time></trkpt><trkpt lat="42.0757918" lon="13.6420873"><ele>936.0</ele><time>2026-05-01T08:00:11.05Z</time></trkpt><trkpt lat="42.0758971" lon="13.6422038"><ele>936.0</ele><time>2026-05-01T08:00:12.042Z</time></trkpt><trkpt lat="42.0760044" lon="13.6423211"><ele>936.0</ele><time>2026-05-01T08:00:13.035Z</time></trkpt><trkpt lat="42.0761123" lon="13.6424419"><ele>936.0</ele><time>2026-05-01T08:00:14.037Z</time></trkpt><trkpt lat="42.0762222" lon="13.6425641"><ele>936.0</ele><time>2026-05-01T08:00:15.046Z</time></trkpt><trkpt lat="42.0763309" lon="13.6426957"><ele>936.0</ele><time>2026-05-01T08:00:16.038Z</time></trkpt><trkpt lat="42.0764337" lon="13.6428318"><ele>937.5</ele><time>2026-05-01T08:00:17.067Z</time></trkpt><trkpt lat="42.0765364" lon="13.6429638"><ele>939.0</ele><time>2026-05-01T08:00:18.048Z</time></trkpt><trkpt lat="42.0766342" lon="13.6430924"><ele>940.5</ele><time>2026-05-01T08:00:19.04Z</time></trkpt><trkpt lat="42.0767293" lon="13.6432279"><ele>942.0</ele><time>2026-05-01T08:00:20.052Z</time></trkpt><trkpt lat="42.0768232" lon="13.6433639"><ele>942.0</ele><time>2026-05-01T08:00:21.046Z</time></trkpt><trkpt lat="42.0769169" lon="13.6435027"><ele>942.0</ele><time>2026-05-01T08:00:22.063Z</time></trkpt><trkpt lat="42.0770126" lon="13.6436389"><ele>942.0</ele><time>2026-05-01T08:00:23.047Z</time></trkpt><trkpt lat="42.0771053" lon="13.6437732"><ele>942.0</ele><time>2026-05-01T08:00:24.047Z</time></trkpt><trkpt lat="42.0772077" lon="13.6439093"><ele>943.75</ele><time>2026-05-01T08:00:25.062Z</time></trkpt><trkpt lat="42.0773158" lon="13.6440359"><ele>945.5</ele><time>2026-05-01T08:00:26.042Z</time></trkpt><trkpt lat="42.0774362" lon="13.6441584"><ele>947.25</ele><time>2026-05-01T08:00:27.056Z</time></trkpt><trkpt lat="42.0775584" lon="13.6442781"><ele>949.0</ele><time>2026-05-01T08:00:28.056Z</time></trkpt><trkpt lat="42.0776811" lon="13.6443992"><ele>953.3333333333333</ele><time>2026-05-01T08:00:29.044Z</time></trkpt><trkpt lat="42.0777984" lon="13.6445268"><ele>957.6666666666667</ele><time>2026-05-01T08:00:30.05Z</time></trkpt><trkpt lat="42.0779088" lon="13.6446817"><ele>962.0</ele><time>2026-05-01T08:00:31.041Z</time></trkpt><trkpt lat="42.0779975" lon="13.6448416"><ele>962.0</ele><time>2026-05-01T08:00:32.045Z</time></trkpt><trkpt lat="42.0780793" lon="13.6450095"><ele>962.0</ele><time>2026-05-01T08:00:33.041Z</time></trkpt><trkpt lat="42.0781651" lon="13.6451743"><ele>962.0</ele><time>2026-05-01T08:00:34.065Z</time></trkpt><trkpt lat="42.0782509" lon="13.645329"><ele>962.0</ele><time>2026-05-01T08:00:35.034Z</time></trkpt><trkpt lat="42.0783363" lon="13.6454803"><ele>961.5</ele><time>2026-05-01T08:00:36.051Z</time></trkpt><trkpt lat="42.0784273" lon="13.6456292"><ele>961.0</ele><time>2026-05-01T08:00:37.043Z</time></trkpt><trkpt lat="42.0785307" lon="13.6457732"><ele>960.5</ele><time>2026-05-01T08:00:38.045Z</time></trkpt><trkpt lat="42.0786472" lon="13.6458898"><ele>960.0</ele><time>2026-05-01T08:00:39.044Z</time></trkpt><trkpt lat="42.0787692" lon="13.6459912"><ele>960.0</ele><time>2026-05-01T08:00:40.036Z</time></trkpt><trkpt lat="42.0788855" lon="13.6460999"><ele>960.0</ele><time>2026-05-01T08:00:41.042Z</time></trkpt><trkpt lat="42.0789867" lon="13.6462155"><ele>960.0</ele><time>2026-05-01T08:00:42.053Z</time></trkpt><trkpt lat="42.0790783" lon="13.6463373"><ele>960.0</ele><time>2026-05-01T08:00:43.043Z</time></trkpt><trkpt lat="42.0791632" lon="13.6464682"><ele>960.25</ele><time>2026-05-01T08:00:44.066Z</time></trkpt><trkpt lat="42.0792359" lon="13.6465932"><ele>960.5</ele><time>2026-05-01T08:00:45.049Z</time></trkpt><trkpt lat="42.0793004" lon="13.6467243"><ele>960.75</ele><time>2026-05-01T08:00:46.043Z</time></trkpt><trkpt lat="42.0793576" lon="13.6468555"><ele>961.0</ele><time>2026-05-01T08:00:47.048Z</time></trkpt><trkpt lat="42.0794118" lon="13.6469889"><ele>963.1999999999999</ele><time>2026-05-01T08:00:48.047Z</time></trkpt><trkpt lat="42.0794627" lon="13.6471101"><ele>965.3999999999999</ele><time>2026-05-01T08:00:49.048Z</time></trkpt><trkpt lat="42.0795181" lon="13.6472275"><ele>967.6</ele><time>2026-05-01T08:00:50.056Z</time></trkpt><trkpt lat="42.0795763" lon="13.6473356"><ele>969.8</ele><time>2026-05-01T08:00:51.044Z</time></trkpt><trkpt lat="42.0796403" lon="13.6474435"><ele>972.0</ele><time>2026-05-01T08:00:52.042Z</time></trkpt><trkpt lat="42.0797073" lon="13.6475469"><ele>972.0</ele><time>2026-05-01T08:00:53.043Z</time></trkpt><trkpt lat="42.0797722" lon="13.6476468"><ele>972.0</ele><time>2026-05-01T08:00:54.051Z</time></trkpt><trkpt lat="42.0798345" lon="13.6477432"><ele>972.0</ele><time>2026-05-01T08:00:55.047Z</time></trkpt><trkpt lat="42.0798946" lon="13.647831"><ele>972.0</ele><time>2026-05-01T08:00:56.06Z</time></trkpt><trkpt lat="42.079959" lon="13.6479178"><ele>972.0</ele><time>2026-05-01T08:00:57.044Z</time></trkpt><trkpt lat="42.0800285" lon="13.6480005"><ele>969.4000000000001</ele><time>2026-05-01T08:00:58.054Z</time></trkpt><trkpt lat="42.0800974" lon="13.6480843"><ele>966.8000000000001</ele><time>2026-05-01T08:00:59.045Z</time></trkpt><trkpt lat="42.0801667" lon="13.6481744"><ele>964.2</ele><time>2026-05-01T08:01:00.063Z</time></trkpt><trkpt lat="42.080232" lon="13.6482618"><ele>961.6</ele><time>2026-05-01T08:01:01.047Z</time></trkpt><trkpt lat="42.0802911" lon="13.6483508"><ele>959.0</ele><time>2026-05-01T08:01:02.06Z</time></trkpt><trkpt lat="42.0803538" lon="13.6484342"><ele>959.0</ele><time>2026-05-01T08:01:03.055Z</time></trkpt><trkpt lat="42.080414" lon="13.6485255"><ele>959.0000000000001</ele><time>2026-05-01T08:01:04.044Z</time></trkpt><trkpt lat="42.080475" lon="13.648625"><ele>959.0000000000001</ele><time>2026-05-01T08:01:05.078Z</time></trkpt><trkpt lat="42.0805402" lon="13.6487223"><ele>959.0</ele><time>2026-05-01T08:01:06.05Z</time></trkpt><trkpt lat="42.0806079" lon="13.6488176"><ele>959.0</ele><time>2026-05-01T08:01:07.057Z</time></trkpt><trkpt lat="42.0806849" lon="13.6489008"><ele>959.4000000000001</ele><time>2026-05-01T08:01:08.057Z</time></trkpt><trkpt lat="42.080763" lon="13.6489841"><ele>959.8000000000001</ele><time>2026-05-01T08:01:09.053Z</time></trkpt><trkpt lat="42.0808437" lon="13.6490602"><ele>960.1999999999999</ele><time>2026-05-01T08:01:10.049Z</time></trkpt><trkpt lat="42.0809223" lon="13.6491253"><ele>960.5999999999999</ele><time>2026-05-01T08:01:11.061Z</time></trkpt><trkpt lat="42.0810011" lon="13.6491837"><ele>961.0</ele><time>2026-05-01T08:01:12.053Z</time></trkpt><trkpt lat="42.0810716" lon="13.6492389"><ele>961.4999999999999</ele><time>2026-05-01T08:01:13.047Z</time></trkpt><trkpt lat="42.0811396" lon="13.6492896"><ele>962.0</ele><time>2026-05-01T08:01:14.047Z</time></trkpt><trkpt lat="42.0812104" lon="13.6493531"><ele>962.5</ele><time>2026-05-01T08:01:15.066Z</time></trkpt><trkpt lat="42.0812837" lon="13.6494198"><ele>963.0</ele><time>2026-05-01T08:01:16.053Z</time></trkpt><trkpt lat="42.081354" lon="13.6494846"><ele>963.4999999999999</ele><time>2026-05-01T08:01:17.062Z</time></trkpt><trkpt lat="42.0814253" lon="13.6495482"><ele>964.0</ele><time>2026-05-01T08:01:18.066Z</time></trkpt><trkpt lat="42.0814932" lon="13.649625"><ele>964.3333333333333</ele><time>2026-05-01T08:01:19.082Z</time></trkpt><trkpt lat="42.0815511" lon="13.6497122"><ele>964.6666666666666</ele><time>2026-05-01T08:01:20.048Z</time></trkpt><trkpt lat="42.0816169" lon="13.6497968"><ele>965.0</ele><time>2026-05-01T08:01:21.052Z</time></trkpt><trkpt lat="42.0816814" lon="13.6498835"><ele>965.3333333333333</ele><time>2026-05-01T08:01:22.051Z</time></trkpt><trkpt lat="42.0817458" lon="13.6499597"><ele>965.6666666666666</ele><time>2026-05-01T08:01:23.042Z</time></trkpt><trkpt lat="42.081811" lon="13.6500361"><ele>966.0</ele><time>2026-05-01T08:01:24.06Z</time></trkpt><trkpt lat="42.0818757" lon="13.6501131"><ele>967.1999999999999</ele><time>2026-05-01T08:01:25.059Z</time></trkpt><trkpt lat="42.0819449" lon="13.6501987"><ele>968.3999999999999</ele><time>2026-05-01T08:01:26.068Z</time></trkpt><trkpt lat="42.082011" lon="13.6502824"><ele>969.6</ele><time>2026-05-01T08:01:27.054Z</time></trkpt><trkpt lat="42.08208" lon="13.6503632"><ele>970.8</ele><time>2026-05-01T08:01:28.057Z</time></trkpt><trkpt lat="42.0821463" lon="13.6504472"><ele>972.0</ele><time>2026-05-01T08:01:29.048Z</time></trkpt><trkpt lat="42.0822145" lon="13.6505324"><ele>972.0</ele><time>2026-05-01T08:01:30.051Z</time></trkpt><trkpt lat="42.0822844" lon="13.650616"><ele>972.0</ele><time>2026-05-01T08:01:31.056Z</time></trkpt><trkpt lat="42.082349" lon="13.6506966"><ele>972.0</ele><time>2026-05-01T08:01:32.045Z</time></trkpt><trkpt lat="42.0824162" lon="13.650776"><ele>972.0</ele><time>2026-05-01T08:01:33.055Z</time></trkpt><trkpt lat="42.0824792" lon="13.6508543"><ele>972.0</ele><time>2026-05-01T08:01:34.046Z</time></trkpt><trkpt lat="42.082546" lon="13.6509371"><ele>972.0</ele><time>2026-05-01T08:01:35.057Z</time></trkpt><trkpt lat="42.0826158" lon="13.6510226"><ele>973.2</ele><time>2026-05-01T08:01:36.04Z</time></trkpt><trkpt lat="42.0826833" lon="13.6510998"><ele>974.4000000000001</ele><time>2026-05-01T08:01:37.073Z</time></trkpt><trkpt lat="42.0827408" lon="13.6511827"><ele>975.5999999999999</ele><time>2026-05-01T08:01:38.042Z</time></trkpt><trkpt lat="42.0828098" lon="13.6512709"><ele>976.8</ele><time>2026-05-01T08:01:39.055Z</time></trkpt><trkpt lat="42.0828872" lon="13.6513555"><ele>978.0</ele><time>2026-05-01T08:01:40.049Z</time></trkpt><trkpt lat="42.0829736" lon="13.6514385"><ele>978.4</ele><time>2026-05-01T08:01:41.053Z</time></trkpt><trkpt lat="42.0830534" lon="13.6515117"><ele>978.8</ele><time>2026-05-01T08:01:42.042Z</time></trkpt><trkpt lat="42.0831285" lon="13.6515795"><ele>979.2</ele><time>2026-05-01T08:01:43.052Z</time></trkpt><trkpt lat="42.0832052" lon="13.6516459"><ele>979.6</ele><time>2026-05-01T08:01:44.05Z</time></trkpt><trkpt lat="42.0832851" lon="13.651711"><ele>980.0</ele><time>2026-05-01T08:01:45.056Z</time></trkpt><trkpt lat="42.0833676" lon="13.6517785"><ele>981.0</ele><time>2026-05-01T08:01:46.06Z</time></trkpt><trkpt lat="42.0834556" lon="13.6518428"><ele>982.0</ele><time>2026-05-01T08:01:47.044Z</time></trkpt><trkpt lat="42.08355" lon="13.6519116"><ele>983.0</ele><time>2026-05-01T08:01:48.042Z</time></trkpt><trkpt lat="42.0836421" lon="13.6519805"><ele>984.0</ele><time>2026-05-01T08:01:49.054Z</time></trkpt><trkpt lat="42.083736" lon="13.652053"><ele>985.0</ele><time>2026-05-01T08:01:50.047Z</time></trkpt><trkpt lat="42.08382" lon="13.6521134"><ele>985.4</ele><time>2026-05-01T08:01:51.041Z</time></trkpt><trkpt lat="42.0839001" lon="13.6521685"><ele>985.8</ele><time>2026-05-01T08:01:52.051Z</time></trkpt><trkpt lat="42.0839884" lon="13.6522294"><ele>986.2</ele><time>2026-05-01T08:01:53.046Z</time></trkpt><trkpt lat="42.0840772" lon="13.6522878"><ele>986.6</ele><time>2026-05-01T08:01:54.057Z</time></trkpt><trkpt lat="42.0841635" lon="13.6523477"><ele>987.0</ele><time>2026-05-01T08:01:55.042Z</time></trkpt><trkpt lat="42.0842545" lon="13.6524094"><ele>987.8</ele><time>2026-05-01T08:01:56.051Z</time></trkpt><trkpt lat="42.0843445" lon="13.6524812"><ele>988.6</ele><time>2026-05-01T08:01:57.04Z</time></trkpt><trkpt lat="42.0844386" lon="13.6525554"><ele>989.3999999999999</ele><time>2026-05-01T08:01:58.053Z</time></trkpt><trkpt lat="42.0845334" lon="13.6526285"><ele>990.1999999999999</ele><time>2026-05-01T08:01:59.05Z</time></trkpt><trkpt lat="42.0846241" lon="13.6526997"><ele>991.0</ele><time>2026-05-01T08:02:00.047Z</time></trkpt><trkpt lat="42.0847126" lon="13.6527773"><ele>993.4</ele><time>2026-05-01T08:02:01.048Z</time></trkpt><trkpt lat="42.0847942" lon="13.6528491"><ele>995.8</ele><time>2026-05-01T08:02:02.047Z</time></trkpt><trkpt lat="42.084871" lon="13.6529139"><ele>998.1999999999999</ele><time>2026-05-01T08:02:03.047Z</time></trkpt><trkpt lat="42.0849439" lon="13.6529808"><ele>1000.5999999999999</ele><time>2026-05-01T08:02:04.043Z</time></trkpt><trkpt lat="42.0850116" lon="13.6530516"><ele>1003.0</ele><time>2026-05-01T08:02:05.049Z</time></trkpt><trkpt lat="42.0850739" lon="13.6531352"><ele>1003.0</ele><time>2026-05-01T08:02:06.053Z</time></trkpt><trkpt lat="42.0851283" lon="13.6532401"><ele>1003.0</ele><time>2026-05-01T08:02:07.042Z</time></trkpt><trkpt lat="42.0851718" lon="13.6533423"><ele>1003.0</ele><time>2026-05-01T08:02:08.06Z</time></trkpt><trkpt lat="42.0852096" lon="13.6534506"><ele>1003.0</ele><time>2026-05-01T08:02:09.045Z</time></trkpt><trkpt lat="42.0852526" lon="13.6535677"><ele>1003.0</ele><time>2026-05-01T08:02:10.036Z</time></trkpt><trkpt lat="42.0853048" lon="13.653676"><ele>1004.9999999999999</ele><time>2026-05-01T08:02:11.062Z</time></trkpt><trkpt lat="42.0853558" lon="13.6537768"><ele>1007.0</ele><time>2026-05-01T08:02:12.042Z</time></trkpt><trkpt lat="42.0853896" lon="13.6538732"><ele>1009.0</ele><time>2026-05-01T08:02:13.062Z</time></trkpt><trkpt lat="42.0854027" lon="13.6539892"><ele>1011.0</ele><time>2026-05-01T08:02:14.054Z</time></trkpt><trkpt lat="42.0854094" lon="13.6541135"><ele>1012.9999999999999</ele><time>2026-05-01T08:02:15.042Z</time></trkpt><trkpt lat="42.0854133" lon="13.654241"><ele>1015.0</ele><time>2026-05-01T08:02:16.054Z</time></trkpt><trkpt lat="42.0854125" lon="13.6543685"><ele>1015.6</ele><time>2026-05-01T08:02:17.054Z</time></trkpt><trkpt lat="42.0854142" lon="13.6544985"><ele>1016.2</ele><time>2026-05-01T08:02:18.058Z</time></trkpt><trkpt lat="42.0854015" lon="13.6546218"><ele>1016.8</ele><time>2026-05-01T08:02:19.06Z</time></trkpt><trkpt lat="42.0853837" lon="13.6547409"><ele>1017.4</ele><time>2026-05-01T08:02:20.044Z</time></trkpt><trkpt lat="42.0853623" lon="13.6548544"><ele>1018.0</ele><time>2026-05-01T08:02:21.053Z</time></trkpt><trkpt lat="42.0853473" lon="13.6549746"><ele>1018.0</ele><time>2026-05-01T08:02:22.056Z</time></trkpt><trkpt lat="42.0853302" lon="13.6550965"><ele>1018.0</ele><time>2026-05-01T08:02:23.03Z</time></trkpt><trkpt lat="42.0853069" lon="13.6552137"><ele>1018.0</ele><time>2026-05-01T08:02:24.055Z</time></trkpt><trkpt lat="42.0852789" lon="13.6553303"><ele>1018.0</ele><time>2026-05-01T08:02:25.049Z</time></trkpt><trkpt lat="42.0852514" lon="13.6554449"><ele>1018.0</ele><time>2026-05-01T08:02:26.045Z</time></trkpt><trkpt lat="42.0852294" lon="13.6555616"><ele>1018.2</ele><time>2026-05-01T08:02:27.049Z</time></trkpt><trkpt lat="42.0852069" lon="13.655681"><ele>1018.4</ele><time>2026-05-01T08:02:28.049Z</time></trkpt><trkpt lat="42.0851801" lon="13.6558042"><ele>1018.6000000000001</ele><time>2026-05-01T08:02:29.053Z</time></trkpt><trkpt lat="42.0851533" lon="13.6559302"><ele>1018.8000000000001</ele><time>2026-05-01T08:02:30.047Z</time></trkpt><trkpt lat="42.0851302" lon="13.6560654"><ele>1019.0</ele><time>2026-05-01T08:02:31.044Z</time></trkpt><trkpt lat="42.0851045" lon="13.6561963"><ele>1019.0</ele><time>2026-05-01T08:02:32.056Z</time></trkpt><trkpt lat="42.0850789" lon="13.6563277"><ele>1019.0000000000001</ele><time>2026-05-01T08:02:33.07Z</time></trkpt><trkpt lat="42.0850509" lon="13.6564594"><ele>1019.0000000000001</ele><time>2026-05-01T08:02:34.044Z</time></trkpt><trkpt lat="42.085024" lon="13.656591"><ele>1019.0</ele><time>2026-05-01T08:02:35.067Z</time></trkpt><trkpt lat="42.0849931" lon="13.6567193"><ele>1019.0</ele><time>2026-05-01T08:02:36.054Z</time></trkpt><trkpt lat="42.0849637" lon="13.6568535"><ele>1020.25</ele><time>2026-05-01T08:02:37.048Z</time></trkpt><trkpt lat="42.0849378" lon="13.6569983"><ele>1021.5</ele><time>2026-05-01T08:02:38.056Z</time></trkpt><trkpt lat="42.0849146" lon="13.6571443"><ele>1022.75</ele><time>2026-05-01T08:02:39.053Z</time></trkpt><trkpt lat="42.0848952" lon="13.6572937"><ele>1024.0</ele><time>2026-05-01T08:02:40.057Z</time></trkpt><trkpt lat="42.0848751" lon="13.6574474"><ele>1024.5</ele><time>2026-05-01T08:02:41.053Z</time></trkpt><trkpt lat="42.0848521" lon="13.6575998"><ele>1025.0</ele><time>2026-05-01T08:02:42.033Z</time></trkpt><trkpt lat="42.0848233" lon="13.657762"><ele>1025.5</ele><time>2026-05-01T08:02:43.06Z</time></trkpt><trkpt lat="42.0847921" lon="13.6579338"><ele>1026.0</ele><time>2026-05-01T08:02:44.047Z</time></trkpt><trkpt lat="42.0847555" lon="13.6580976"><ele>1026.0</ele><time>2026-05-01T08:02:45.076Z</time></trkpt><trkpt lat="42.0847121" lon="13.6582582"><ele>1026.0</ele><time>2026-05-01T08:02:46.053Z</time></trkpt><trkpt lat="42.0846663" lon="13.6584255"><ele>1026.0</ele><time>2026-05-01T08:02:47.057Z</time></trkpt><trkpt lat="42.0846109" lon="13.6585862"><ele>1026.0</ele><time>2026-05-01T08:02:48.041Z</time></trkpt><trkpt lat="42.0845549" lon="13.6587379"><ele>1025.25</ele><time>2026-05-01T08:02:49.054Z</time></trkpt><trkpt lat="42.0845056" lon="13.6588794"><ele>1024.5</ele><time>2026-05-01T08:02:50.042Z</time></trkpt><trkpt lat="42.0844514" lon="13.6590213"><ele>1023.75</ele><time>2026-05-01T08:02:51.049Z</time></trkpt><trkpt lat="42.0843914" lon="13.6591762"><ele>1023.0</ele><time>2026-05-01T08:02:52.051Z</time></trkpt><trkpt lat="42.0843334" lon="13.6593383"><ele>1023.25</ele><time>2026-05-01T08:02:53.049Z</time></trkpt><trkpt lat="42.0842778" lon="13.6594906"><ele>1023.5</ele><time>2026-05-01T08:02:54.073Z</time></trkpt><trkpt lat="42.0842223" lon="13.6596356"><ele>1023.75</ele><time>2026-05-01T08:02:55.05Z</time></trkpt><trkpt lat="42.0841686" lon="13.6597702"><ele>1024.0</ele><time>2026-05-01T08:02:56.045Z</time></trkpt><trkpt lat="42.0841199" lon="13.6598879"><ele>1024.4</ele><time>2026-05-01T08:02:57.054Z</time></trkpt><trkpt lat="42.0840784" lon="13.6600112"><ele>1024.8000000000002</ele><time>2026-05-01T08:02:58.043Z</time></trkpt><trkpt lat="42.0840267" lon="13.6601267"><ele>1025.1999999999998</ele><time>2026-05-01T08:02:59.05Z</time></trkpt><trkpt lat="42.0839765" lon="13.6602387"><ele>1025.6</ele><time>2026-05-01T08:03:00.038Z</time></trkpt><trkpt lat="42.0839292" lon="13.6603589"><ele>1026.0</ele><time>2026-05-01T08:03:01.063Z</time></trkpt><trkpt lat="42.0838843" lon="13.6604919"><ele>1026.0</ele><time>2026-05-01T08:03:02.059Z</time></trkpt><trkpt lat="42.0838384" lon="13.6606328"><ele>1026.0</ele><time>2026-05-01T08:03:03.047Z</time></trkpt><trkpt lat="42.083797" lon="13.6607593"><ele>1026.0</ele><time>2026-05-01T08:03:04.06Z</time></trkpt><trkpt lat="42.0837543" lon="13.6608835"><ele>1026.0</ele><time>2026-05-01T08:03:05.054Z</time></trkpt><trkpt lat="42.0837084" lon="13.6610058"><ele>1026.0</ele><time>2026-05-01T08:03:06.051Z</time></trkpt><trkpt lat="42.0836619" lon="13.6611232"><ele>1027.0</ele><time>2026-05-01T08:03:07.055Z</time></trkpt><trkpt lat="42.0836104" lon="13.6612227"><ele>1028.0</ele><time>2026-05-01T08:03:08.048Z</time></trkpt><trkpt lat="42.0835553" lon="13.6613119"><ele>1029.0</ele><time>2026-05-01T08:03:09.052Z</time></trkpt><trkpt lat="42.0834962" lon="13.6613912"><ele>1030.0</ele><time>2026-05-01T08:03:10.049Z</time></trkpt><trkpt lat="42.0834328" lon="13.6614562"><ele>1031.0</ele><time>2026-05-01T08:03:11.048Z</time></trkpt><trkpt lat="42.0833561" lon="13.661516"><ele>1032.0</ele><time>2026-05-01T08:03:12.052Z</time></trkpt><trkpt lat="42.0832776" lon="13.6615831"><ele>1032.0</ele><time>2026-05-01T08:03:13.046Z</time></trkpt><trkpt lat="42.0832032" lon="13.6616575"><ele>1032.0</ele><time>2026-05-01T08:03:14.046Z</time></trkpt><trkpt lat="42.083147" lon="13.6617475"><ele>1032.0</ele><time>2026-05-01T08:03:15.045Z</time></trkpt><trkpt lat="42.0831036" lon="13.6618414"><ele>1032.0</ele><time>2026-05-01T08:03:16.046Z</time></trkpt><trkpt lat="42.0830728" lon="13.6619515"><ele>1032.0</ele><time>2026-05-01T08:03:17.039Z</time></trkpt><trkpt lat="42.0830536" lon="13.6620708"><ele>1032.0</ele><time>2026-05-01T08:03:18.059Z</time></trkpt><trkpt lat="42.0830441" lon="13.6622014"><ele>1035.0</ele><time>2026-05-01T08:03:19.033Z</time></trkpt><trkpt lat="42.0830382" lon="13.6623407"><ele>1038.0</ele><time>2026-05-01T08:03:20.044Z</time></trkpt><trkpt lat="42.0830373" lon="13.6624748"><ele>1041.0</ele><time>2026-05-01T08:03:21.047Z</time></trkpt><trkpt lat="42.0830373" lon="13.6626051"><ele>1044.0</ele><time>2026-05-01T08:03:22.045Z</time></trkpt><trkpt lat="42.083031" lon="13.6627292"><ele>1047.0</ele><time>2026-05-01T08:03:23.04Z</time></trkpt><trkpt lat="42.0830225" lon="13.6628533"><ele>1048.1666666666667</ele><time>2026-05-01T08:03:24.04Z</time></trkpt><trkpt lat="42.0830143" lon="13.6629695"><ele>1049.3333333333333</ele><time>2026-05-01T08:03:25.053Z</time></trkpt><trkpt lat="42.0830061" lon="13.6630833"><ele>1050.5</ele><time>2026-05-01T08:03:26.046Z</time></trkpt><trkpt lat="42.0829959" lon="13.6631936"><ele>1051.6666666666665</ele><time>2026-05-01T08:03:27.042Z</time></trkpt><trkpt lat="42.0829816" lon="13.6632899"><ele>1052.8333333333333</ele><time>2026-05-01T08:03:28.046Z</time></trkpt><trkpt lat="42.0829654" lon="13.6633883"><ele>1054.0</ele><time>2026-05-01T08:03:29.039Z</time></trkpt><trkpt lat="42.0829442" lon="13.663491"><ele>1054.0</ele><time>2026-05-01T08:03:30.045Z</time></trkpt><trkpt lat="42.0829111" lon="13.6635942"><ele>1054.0</ele><time>2026-05-01T08:03:31.041Z</time></trkpt><trkpt lat="42.0828805" lon="13.6636941"><ele>1054.0</ele><time>2026-05-01T08:03:32.047Z</time></trkpt><trkpt lat="42.0828569" lon="13.6637989"><ele>1054.0</ele><time>2026-05-01T08:03:33.048Z</time></trkpt><trkpt lat="42.082826" lon="13.6639039"><ele>1054.0</ele><time>2026-05-01T08:03:34.04Z</time></trkpt><trkpt lat="42.0827902" lon="13.6640032"><ele>1054.0</ele><time>2026-05-01T08:03:35.058Z</time></trkpt><trkpt lat="42.0827487" lon="13.6641014"><ele>1054.0</ele><time>2026-05-01T08:03:36.046Z</time></trkpt><trkpt lat="42.0826906" lon="13.6642039"><ele>1054.0</ele><time>2026-05-01T08:03:37.037Z</time></trkpt><trkpt lat="42.0826346" lon="13.6643096"><ele>1054.0</ele><time>2026-05-01T08:03:38.04Z</time></trkpt><trkpt lat="42.0825744" lon="13.6644142"><ele>1054.0</ele><time>2026-05-01T08:03:39.045Z</time></trkpt><trkpt lat="42.0825106" lon="13.6645155"><ele>1054.0</ele><time>2026-05-01T08:03:40.041Z</time></trkpt><trkpt lat="42.0824474" lon="13.6646045"><ele>1054.8333333333333</ele><time>2026-05-01T08:03:41.047Z</time></trkpt><trkpt lat="42.0823821" lon="13.6646789"><ele>1055.6666666666665</ele><time>2026-05-01T08:03:42.048Z</time></trkpt><trkpt lat="42.0823111" lon="13.6647433"><ele>1056.5</ele><time>2026-05-01T08:03:43.046Z</time></trkpt><trkpt lat="42.0822412" lon="13.6647958"><ele>1057.3333333333333</ele><time>2026-05-01T08:03:44.059Z</time></trkpt><trkpt lat="42.082166" lon="13.6648395"><ele>1058.1666666666667</ele><time>2026-05-01T08:03:45.036Z</time></trkpt><trkpt lat="42.0820891" lon="13.6648752"><ele>1059.0</ele><time>2026-05-01T08:03:46.053Z</time></trkpt><trkpt lat="42.0820083" lon="13.6649101"><ele>1059.0</ele><time>2026-05-01T08:03:47.056Z</time></trkpt><trkpt lat="42.081925" lon="13.6649523"><ele>1059.0</ele><time>2026-05-01T08:03:48.049Z</time></trkpt><trkpt lat="42.0818431" lon="13.6649929"><ele>1059.0</ele><time>2026-05-01T08:03:49.054Z</time></trkpt><trkpt lat="42.0817638" lon="13.6650346"><ele>1059.0</ele><time>2026-05-01T08:03:50.046Z</time></trkpt><trkpt lat="42.081688" lon="13.6650871"><ele>1059.0</ele><time>2026-05-01T08:03:51.055Z</time></trkpt><trkpt lat="42.0816148" lon="13.6651498"><ele>1059.0</ele><time>2026-05-01T08:03:52.043Z</time></trkpt><trkpt lat="42.0815468" lon="13.6652177"><ele>1061.6666666666667</ele><time>2026-05-01T08:03:53.058Z</time></trkpt><trkpt lat="42.0814834" lon="13.6652828"><ele>1064.3333333333333</ele><time>2026-05-01T08:03:54.065Z</time></trkpt><trkpt lat="42.0814294" lon="13.6653566"><ele>1067.0</ele><time>2026-05-01T08:03:55.052Z</time></trkpt><trkpt lat="42.0813884" lon="13.6654385"><ele>1069.6666666666665</ele><time>2026-05-01T08:03:56.048Z</time></trkpt><trkpt lat="42.0813625" lon="13.6655402"><ele>1072.3333333333333</ele><time>2026-05-01T08:03:57.048Z</time></trkpt><trkpt lat="42.0813473" lon="13.6656517"><ele>1075.0</ele><time>2026-05-01T08:03:58.05Z</time></trkpt><trkpt lat="42.0813353" lon="13.6657498"><ele>1075.0</ele><time>2026-05-01T08:03:59.042Z</time></trkpt><trkpt lat="42.0813314" lon="13.6658519"><ele>1075.0</ele><time>2026-05-01T08:04:00.05Z</time></trkpt><trkpt lat="42.0813282" lon="13.6659594"><ele>1075.0</ele><time>2026-05-01T08:04:01.031Z</time></trkpt><trkpt lat="42.081325" lon="13.6660693"><ele>1075.0</ele><time>2026-05-01T08:04:02.045Z</time></trkpt><trkpt lat="42.0813137" lon="13.6661785"><ele>1075.0</ele><time>2026-05-01T08:04:03.041Z</time></trkpt><trkpt lat="42.0812958" lon="13.6662856"><ele>1075.0</ele><time>2026-05-01T08:04:04.047Z</time></trkpt><trkpt lat="42.0812771" lon="13.6663944"><ele>1077.6666666666665</ele><time>2026-05-01T08:04:05.043Z</time></trkpt><trkpt lat="42.0812627" lon="13.6665103"><ele>1080.3333333333333</ele><time>2026-05-01T08:04:06.038Z</time></trkpt><trkpt lat="42.0812479" lon="13.6666191"><ele>1083.0</ele><time>2026-05-01T08:04:07.057Z</time></trkpt><trkpt lat="42.081232" lon="13.6667298"><ele>1085.6666666666667</ele><time>2026-05-01T08:04:08.043Z</time></trkpt><trkpt lat="42.0812288" lon="13.6668494"><ele>1088.3333333333335</ele><time>2026-05-01T08:04:09.046Z</time></trkpt><trkpt lat="42.0812379" lon="13.666968"><ele>1091.0</ele><time>2026-05-01T08:04:10.05Z</time></trkpt><trkpt lat="42.0812627" lon="13.6670823"><ele>1093.0</ele><time>2026-05-01T08:04:11.05Z</time></trkpt><trkpt lat="42.0812909" lon="13.6671937"><ele>1095.0</ele><time>2026-05-01T08:04:12.049Z</time></trkpt><trkpt lat="42.0813205" lon="13.6673074"><ele>1097.0</ele><time>2026-05-01T08:04:13.042Z</time></trkpt><trkpt lat="42.0813478" lon="13.667412"><ele>1099.0</ele><time>2026-05-01T08:04:14.045Z</time></trkpt><trkpt lat="42.0813743" lon="13.6675131"><ele>1101.0</ele><time>2026-05-01T08:04:15.031Z</time></trkpt><trkpt lat="42.0813954" lon="13.6676137"><ele>1103.0</ele><time>2026-05-01T08:04:16.05Z</time></trkpt><trkpt lat="42.0814146" lon="13.6677163"><ele>1104.4285714285716</ele><time>2026-05-01T08:04:17.043Z</time></trkpt><trkpt lat="42.081423" lon="13.6678206"><ele>1105.857142857143</ele><time>2026-05-01T08:04:18.046Z</time></trkpt><trkpt lat="42.0814258" lon="13.6679206"><ele>1107.2857142857142</ele><time>2026-05-01T08:04:19.048Z</time></trkpt><trkpt lat="42.0814304" lon="13.6680219"><ele>1108.7142857142858</ele><time>2026-05-01T08:04:20.046Z</time></trkpt><trkpt lat="42.081428" lon="13.6681202"><ele>1110.142857142857</ele><time>2026-05-01T08:04:21.044Z</time></trkpt><trkpt lat="42.0814115" lon="13.6682135"><ele>1111.5714285714287</ele><time>2026-05-01T08:04:22.043Z</time></trkpt><trkpt lat="42.0813814" lon="13.6682996"><ele>1113.0</ele><time>2026-05-01T08:04:23.049Z</time></trkpt><trkpt lat="42.0813508" lon="13.6683832"><ele>1113.0</ele><time>2026-05-01T08:04:24.04Z</time></trkpt><trkpt lat="42.0813159" lon="13.6684591"><ele>1113.0</ele><time>2026-05-01T08:04:25.041Z</time></trkpt><trkpt lat="42.0812725" lon="13.6685411"><ele>1113.0</ele><time>2026-05-01T08:04:26.046Z</time></trkpt><trkpt lat="42.0812356" lon="13.6686345"><ele>1113.0</ele><time>2026-05-01T08:04:27.043Z</time></trkpt><trkpt lat="42.0812093" lon="13.6687344"><ele>1113.0</ele><time>2026-05-01T08:04:28.041Z</time></trkpt><trkpt lat="42.0811924" lon="13.6688315"><ele>1113.0</ele><time>2026-05-01T08:04:29.051Z</time></trkpt><trkpt lat="42.0811744" lon="13.6689325"><ele>1113.0</ele><time>2026-05-01T08:04:30.049Z</time></trkpt><trkpt lat="42.0811599" lon="13.6690527"><ele>1112.6666666666667</ele><time>2026-05-01T08:04:31.046Z</time></trkpt><trkpt lat="42.0811362" lon="13.6691737"><ele>1112.3333333333333</ele><time>2026-05-01T08:04:32.047Z</time></trkpt><trkpt lat="42.0811205" lon="13.669288"><ele>1112.0</ele><time>2026-05-01T08:04:33.04Z</time></trkpt><trkpt lat="42.0811039" lon="13.6694006"><ele>1111.6666666666665</ele><time>2026-05-01T08:04:34.062Z</time></trkpt><trkpt lat="42.0810856" lon="13.6695166"><ele>1111.3333333333333</ele><time>2026-05-01T08:04:35.043Z</time></trkpt><trkpt lat="42.0810744" lon="13.6696306"><ele>1111.0</ele><time>2026-05-01T08:04:36.047Z</time></trkpt><trkpt lat="42.0810658" lon="13.6697414"><ele>1111.0</ele><time>2026-05-01T08:04:37.052Z</time></trkpt><trkpt lat="42.0810546" lon="13.6698515"><ele>1111.0</ele><time>2026-05-01T08:04:38.047Z</time></trkpt><trkpt lat="42.0810412" lon="13.669964"><ele>1111.0</ele><time>2026-05-01T08:04:39.042Z</time></trkpt><trkpt lat="42.0810202" lon="13.6700726"><ele>1111.0</ele><time>2026-05-01T08:04:40.043Z</time></trkpt><trkpt lat="42.0809911" lon="13.6701781"><ele>1111.0</ele><time>2026-05-01T08:04:41.038Z</time></trkpt><trkpt lat="42.0809583" lon="13.6702887"><ele>1111.0</ele><time>2026-05-01T08:04:42.043Z</time></trkpt><trkpt lat="42.0809275" lon="13.6703985"><ele>1110.0</ele><time>2026-05-01T08:04:43.045Z</time></trkpt><trkpt lat="42.0808958" lon="13.6705071"><ele>1109.0</ele><time>2026-05-01T08:04:44.049Z</time></trkpt><trkpt lat="42.0808627" lon="13.6706151"><ele>1108.0</ele><time>2026-05-01T08:04:45.054Z</time></trkpt><trkpt lat="42.0808213" lon="13.6707256"><ele>1107.0</ele><time>2026-05-01T08:04:46.049Z</time></trkpt><trkpt lat="42.0807805" lon="13.670838"><ele>1106.0</ele><time>2026-05-01T08:04:47.048Z</time></trkpt><trkpt lat="42.0807405" lon="13.6709515"><ele>1109.3999999999999</ele><time>2026-05-01T08:04:48.053Z</time></trkpt><trkpt lat="42.0806964" lon="13.6710747"><ele>1112.8</ele><time>2026-05-01T08:04:49.054Z</time></trkpt><trkpt lat="42.0806519" lon="13.6712017"><ele>1116.1999999999998</ele><time>2026-05-01T08:04:50.045Z</time></trkpt><trkpt lat="42.0806116" lon="13.6713323"><ele>1119.6</ele><time>2026-05-01T08:04:51.059Z</time></trkpt><trkpt lat="42.0805729" lon="13.6714659"><ele>1123.0</ele><time>2026-05-01T08:04:52.047Z</time></trkpt><trkpt lat="42.080534" lon="13.671597"><ele>1123.0</ele><time>2026-05-01T08:04:53.043Z</time></trkpt><trkpt lat="42.080503" lon="13.671723"><ele>1123.0</ele><time>2026-05-01T08:04:54.047Z</time></trkpt><trkpt lat="42.0804707" lon="13.6718417"><ele>1123.0</ele><time>2026-05-01T08:04:55.045Z</time></trkpt><trkpt lat="42.0804389" lon="13.671953"><ele>1123.0</ele><time>2026-05-01T08:04:56.062Z</time></trkpt><trkpt lat="42.0804108" lon="13.672068"><ele>1123.0</ele><time>2026-05-01T08:04:57.046Z</time></trkpt><trkpt lat="42.0803913" lon="13.6721777"><ele>1123.0</ele><time>2026-05-01T08:04:58.039Z</time></trkpt><trkpt lat="42.0803721" lon="13.6722853"><ele>1123.0</ele><time>2026-05-01T08:04:59.041Z</time></trkpt><trkpt lat="42.0803573" lon="13.6723968"><ele>1123.0</ele><time>2026-05-01T08:05:00.039Z</time></trkpt><trkpt lat="42.0803479" lon="13.6725138"><ele>1123.0</ele><time>2026-05-01T08:05:01.045Z</time></trkpt><trkpt lat="42.0803474" lon="13.6726402"><ele>1123.0</ele><time>2026-05-01T08:05:02.047Z</time></trkpt><trkpt lat="42.0803453" lon="13.6727731"><ele>1123.0</ele><time>2026-05-01T08:05:03.036Z</time></trkpt><trkpt lat="42.0803454" lon="13.672904"><ele>1122.1666666666665</ele><time>2026-05-01T08:05:04.048Z</time></trkpt><trkpt lat="42.0803449" lon="13.6730286"><ele>1121.3333333333333</ele><time>2026-05-01T08:05:05.049Z</time></trkpt><trkpt lat="42.0803479" lon="13.6731462"><ele>1120.5</ele><time>2026-05-01T08:05:06.045Z</time></trkpt><trkpt lat="42.0803501" lon="13.6732581"><ele>1119.6666666666667</ele><time>2026-05-01T08:05:07.045Z</time></trkpt><trkpt lat="42.0803444" lon="13.673368"><ele>1118.8333333333335</ele><time>2026-05-01T08:05:08.07Z</time></trkpt><trkpt lat="42.0803441" lon="13.67349"><ele>1118.0</ele><time>2026-05-01T08:05:09.04Z</time></trkpt><trkpt lat="42.0803468" lon="13.6736144"><ele>1117.0</ele><time>2026-05-01T08:05:10.04Z</time></trkpt><trkpt lat="42.080345" lon="13.6737362"><ele>1116.0</ele><time>2026-05-01T08:05:11.042Z</time></trkpt><trkpt lat="42.0803393" lon="13.6738582"><ele>1115.0</ele><time>2026-05-01T08:05:12.045Z</time></trkpt><trkpt lat="42.0803314" lon="13.6739779"><ele>1114.0</ele><time>2026-05-01T08:05:13.046Z</time></trkpt><trkpt lat="42.080318" lon="13.6740971"><ele>1113.0</ele><time>2026-05-01T08:05:14.055Z</time></trkpt><trkpt lat="42.0803033" lon="13.6742163"><ele>1112.0</ele><time>2026-05-01T08:05:15.048Z</time></trkpt><trkpt lat="42.0802826" lon="13.6743362"><ele>1111.6</ele><time>2026-05-01T08:05:16.06Z</time></trkpt><trkpt lat="42.0802576" lon="13.6744522"><ele>1111.2</ele><time>2026-05-01T08:05:17.051Z</time></trkpt><trkpt lat="42.0802311" lon="13.6745748"><ele>1110.8</ele><time>2026-05-01T08:05:18.046Z</time></trkpt><trkpt lat="42.0801982" lon="13.6747077"><ele>1110.4</ele><time>2026-05-01T08:05:19.062Z</time></trkpt><trkpt lat="42.0801634" lon="13.6748407"><ele>1110.0</ele><time>2026-05-01T08:05:20.043Z</time></trkpt><trkpt lat="42.0801334" lon="13.6749858"><ele>1110.0</ele><time>2026-05-01T08:05:21.055Z</time></trkpt><trkpt lat="42.0800995" lon="13.6751257"><ele>1110.0</ele><time>2026-05-01T08:05:22.043Z</time></trkpt><trkpt lat="42.0800699" lon="13.675254"><ele>1110.0</ele><time>2026-05-01T08:05:23.046Z</time></trkpt><trkpt lat="42.0800425" lon="13.6753826"><ele>1110.0</ele><time>2026-05-01T08:05:24.046Z</time></trkpt><trkpt lat="42.0800093" lon="13.6755157"><ele>1110.0</ele><time>2026-05-01T08:05:25.05Z</time></trkpt><trkpt lat="42.0799818" lon="13.6756535"><ele>1111.0</ele><time>2026-05-01T08:05:26.047Z</time></trkpt><trkpt lat="42.0799538" lon="13.6757983"><ele>1112.0</ele><time>2026-05-01T08:05:27.044Z</time></trkpt><trkpt lat="42.0799336" lon="13.6759508"><ele>1113.0</ele><time>2026-05-01T08:05:28.054Z</time></trkpt><trkpt lat="42.0799181" lon="13.6761025"><ele>1114.0</ele><time>2026-05-01T08:05:29.047Z</time></trkpt><trkpt lat="42.079902" lon="13.6762466"><ele>1115.0</ele><time>2026-05-01T08:05:30.058Z</time></trkpt><trkpt lat="42.0798917" lon="13.676388"><ele>1116.5</ele><time>2026-05-01T08:05:31.05Z</time></trkpt><trkpt lat="42.079884" lon="13.6765191"><ele>1118.0</ele><time>2026-05-01T08:05:32.04Z</time></trkpt><trkpt lat="42.0798719" lon="13.6766383"><ele>1119.5</ele><time>2026-05-01T08:05:33.056Z</time></trkpt><trkpt lat="42.0798642" lon="13.6767533"><ele>1121.0</ele><time>2026-05-01T08:05:34.046Z</time></trkpt><trkpt lat="42.0798587" lon="13.6768682"><ele>1122.5</ele><time>2026-05-01T08:05:35.052Z</time></trkpt><trkpt lat="42.0798605" lon="13.6769879"><ele>1124.0</ele><time>2026-05-01T08:05:36.046Z</time></trkpt><trkpt lat="42.0798626" lon="13.6770962"><ele>1123.6666666666667</ele><time>2026-05-01T08:05:37.061Z</time></trkpt><trkpt lat="42.0798613" lon="13.6771936"><ele>1123.3333333333335</ele><time>2026-05-01T08:05:38.068Z</time></trkpt><trkpt lat="42.0798636" lon="13.6772892"><ele>1123.0</ele><time>2026-05-01T08:05:39.048Z</time></trkpt><trkpt lat="42.0798793" lon="13.677391"><ele>1122.6666666666667</ele><time>2026-05-01T08:05:40.052Z</time></trkpt><trkpt lat="42.0799086" lon="13.6774977"><ele>1122.3333333333333</ele><time>2026-05-01T08:05:41.051Z</time></trkpt><trkpt lat="42.0799543" lon="13.6775901"><ele>1122.0</ele><time>2026-05-01T08:05:42.055Z</time></trkpt><trkpt lat="42.0799984" lon="13.6776804"><ele>1122.0</ele><time>2026-05-01T08:05:43.063Z</time></trkpt><trkpt lat="42.0800473" lon="13.6777671"><ele>1122.0</ele><time>2026-05-01T08:05:44.067Z</time></trkpt><trkpt lat="42.0801028" lon="13.6778604"><ele>1122.0</ele><time>2026-05-01T08:05:45.043Z</time></trkpt><trkpt lat="42.0801711" lon="13.6779452"><ele>1122.0</ele><time>2026-05-01T08:05:46.046Z</time></trkpt><trkpt lat="42.0802437" lon="13.6780173"><ele>1122.0</ele><time>2026-05-01T08:05:47.056Z</time></trkpt><trkpt lat="42.0803186" lon="13.6780803"><ele>1122.0</ele><time>2026-05-01T08:05:48.046Z</time></trkpt><trkpt lat="42.0803951" lon="13.6781245"><ele>1122.2</ele><time>2026-05-01T08:05:49.046Z</time></trkpt><trkpt lat="42.0804784" lon="13.6781606"><ele>1122.4</ele><time>2026-05-01T08:05:50.044Z</time></trkpt><trkpt lat="42.0805671" lon="13.6781809"><ele>1122.6</ele><time>2026-05-01T08:05:51.045Z</time></trkpt><trkpt lat="42.080659" lon="13.6781865"><ele>1122.8</ele><time>2026-05-01T08:05:52.05Z</time></trkpt><trkpt lat="42.0807494" lon="13.6781809"><ele>1123.0</ele><time>2026-05-01T08:05:53.041Z</time></trkpt><trkpt lat="42.0808445" lon="13.6781799"><ele>1123.0</ele><time>2026-05-01T08:05:54.053Z</time></trkpt><trkpt lat="42.0809392" lon="13.6781695"><ele>1123.0</ele><time>2026-05-01T08:05:55.051Z</time></trkpt><trkpt lat="42.0810301" lon="13.6781507"><ele>1123.0</ele><time>2026-05-01T08:05:56.056Z</time></trkpt><trkpt lat="42.0811163" lon="13.6781291"><ele>1123.0</ele><time>2026-05-01T08:05:57.053Z</time></trkpt><trkpt lat="42.0812085" lon="13.6781185"><ele>1123.0</ele><time>2026-05-01T08:05:58.051Z</time></trkpt><trkpt lat="42.0813067" lon="13.6781166"><ele>1123.0</ele><time>2026-05-01T08:05:59.059Z</time></trkpt><trkpt lat="42.0814152" lon="13.6781243"><ele>1123.0</ele><time>2026-05-01T08:06:00.048Z</time></trkpt><trkpt lat="42.081524" lon="13.6781349"><ele>1123.0</ele><time>2026-05-01T08:06:01.047Z</time></trkpt><trkpt lat="42.0816262" lon="13.6781482"><ele>1123.0</ele><time>2026-05-01T08:06:02.043Z</time></trkpt><trkpt lat="42.0817246" lon="13.6781653"><ele>1123.0</ele><time>2026-05-01T08:06:03.054Z</time></trkpt><trkpt lat="42.0818141" lon="13.6781918"><ele>1123.2</ele><time>2026-05-01T08:06:04.051Z</time></trkpt><trkpt lat="42.0819038" lon="13.678229"><ele>1123.4</ele><time>2026-05-01T08:06:05.052Z</time></trkpt><trkpt lat="42.0819981" lon="13.6782669"><ele>1123.6000000000001</ele><time>2026-05-01T08:06:06.052Z</time></trkpt><trkpt lat="42.0820952" lon="13.6783113"><ele>1123.8</ele><time>2026-05-01T08:06:07.054Z</time></trkpt><trkpt lat="42.0821938" lon="13.6783614"><ele>1124.0</ele><time>2026-05-01T08:06:08.046Z</time></trkpt><trkpt lat="42.0822938" lon="13.6784181"><ele>1124.0</ele><time>2026-05-01T08:06:09.046Z</time></trkpt><trkpt lat="42.0823929" lon="13.6784708"><ele>1124.0</ele><time>2026-05-01T08:06:10.057Z</time></trkpt><trkpt lat="42.0824853" lon="13.6785103"><ele>1124.0</ele><time>2026-05-01T08:06:11.047Z</time></trkpt><trkpt lat="42.0825836" lon="13.6785277"><ele>1124.0</ele><time>2026-05-01T08:06:12.058Z</time></trkpt><trkpt lat="42.0826786" lon="13.6785309"><ele>1124.0</ele><time>2026-05-01T08:06:13.054Z</time></trkpt><trkpt lat="42.0827715" lon="13.6785294"><ele>1124.4</ele><time>2026-05-01T08:06:14.042Z</time></trkpt><trkpt lat="42.082866" lon="13.6785072"><ele>1124.8000000000002</ele><time>2026-05-01T08:06:15.049Z</time></trkpt><trkpt lat="42.0829596" lon="13.6784699"><ele>1125.1999999999998</ele><time>2026-05-01T08:06:16.051Z</time></trkpt><trkpt lat="42.0830493" lon="13.6784271"><ele>1125.6</ele><time>2026-05-01T08:06:17.051Z</time></trkpt><trkpt lat="42.0831346" lon="13.6783736"><ele>1126.0</ele><time>2026-05-01T08:06:18.071Z</time></trkpt><trkpt lat="42.0832194" lon="13.6783122"><ele>1125.8</ele><time>2026-05-01T08:06:19.05Z</time></trkpt><trkpt lat="42.0833111" lon="13.6782503"><ele>1125.6</ele><time>2026-05-01T08:06:20.053Z</time></trkpt><trkpt lat="42.0834033" lon="13.678187"><ele>1125.4</ele><time>2026-05-01T08:06:21.05Z</time></trkpt><trkpt lat="42.0834945" lon="13.6781238"><ele>1125.2</ele><time>2026-05-01T08:06:22.047Z</time></trkpt><trkpt lat="42.0835831" lon="13.6780645"><ele>1125.0</ele><time>2026-05-01T08:06:23.045Z</time></trkpt><trkpt lat="42.0836683" lon="13.6780085"><ele>1125.0</ele><time>2026-05-01T08:06:24.054Z</time></trkpt><trkpt lat="42.0837444" lon="13.6779436"><ele>1125.0</ele><time>2026-05-01T08:06:25.045Z</time></trkpt><trkpt lat="42.0838147" lon="13.6778751"><ele>1125.0</ele><time>2026-05-01T08:06:26.049Z</time></trkpt><trkpt lat="42.0838958" lon="13.677803"><ele>1125.0</ele><time>2026-05-01T08:06:27.051Z</time></trkpt><trkpt lat="42.0839717" lon="13.6777204"><ele>1125.0</ele><time>2026-05-01T08:06:28.049Z</time></trkpt><trkpt lat="42.0840507" lon="13.6776407"><ele>1126.2</ele><time>2026-05-01T08:06:29.068Z</time></trkpt><trkpt lat="42.0841208" lon="13.677548"><ele>1127.4</ele><time>2026-05-01T08:06:30.049Z</time></trkpt><trkpt lat="42.0841875" lon="13.6774527"><ele>1128.6</ele><time>2026-05-01T08:06:31.066Z</time></trkpt><trkpt lat="42.0842481" lon="13.6773503"><ele>1129.8</ele><time>2026-05-01T08:06:32.045Z</time></trkpt><trkpt lat="42.0843028" lon="13.6772374"><ele>1131.0</ele><time>2026-05-01T08:06:33.055Z</time></trkpt><trkpt lat="42.0843484" lon="13.6771221"><ele>1131.0</ele><time>2026-05-01T08:06:34.053Z</time></trkpt><trkpt lat="42.0843895" lon="13.6770086"><ele>1131.0</ele><time>2026-05-01T08:06:35.047Z</time></trkpt><trkpt lat="42.0844394" lon="13.6768967"><ele>1131.0</ele><time>2026-05-01T08:06:36.036Z</time></trkpt><trkpt lat="42.0844937" lon="13.676793"><ele>1131.0</ele><time>2026-05-01T08:06:37.046Z</time></trkpt><trkpt lat="42.0845516" lon="13.6766902"><ele>1131.0</ele><time>2026-05-01T08:06:38.045Z</time></trkpt><trkpt lat="42.0846174" lon="13.676597"><ele>1131.8</ele><time>2026-05-01T08:06:39.048Z</time></trkpt><trkpt lat="42.0846841" lon="13.6764989"><ele>1132.6</ele><time>2026-05-01T08:06:40.042Z</time></trkpt><trkpt lat="42.0847511" lon="13.676416"><ele>1133.4</ele><time>2026-05-01T08:06:41.047Z</time></trkpt><trkpt lat="42.0848193" lon="13.6763476"><ele>1134.2</ele><time>2026-05-01T08:06:42.072Z</time></trkpt><trkpt lat="42.0848961" lon="13.6762904"><ele>1135.0</ele><time>2026-05-01T08:06:43.057Z</time></trkpt><trkpt lat="42.0849848" lon="13.6762492"><ele>1135.0</ele><time>2026-05-01T08:06:44.042Z</time></trkpt><trkpt lat="42.0850825" lon="13.6762298"><ele>1135.0</ele><time>2026-05-01T08:06:45.049Z</time></trkpt><trkpt lat="42.085185" lon="13.6762202"><ele>1135.0</ele><time>2026-05-01T08:06:46.053Z</time></trkpt><trkpt lat="42.0852894" lon="13.6762313"><ele>1135.0</ele><time>2026-05-01T08:06:47.041Z</time></trkpt><trkpt lat="42.0853992" lon="13.6762484"><ele>1135.0</ele><time>2026-05-01T08:06:48.047Z</time></trkpt><trkpt lat="42.0855041" lon="13.6762585"><ele>1135.0</ele><time>2026-05-01T08:06:49.044Z</time></trkpt><trkpt lat="42.0856102" lon="13.6762512"><ele>1135.0</ele><time>2026-05-01T08:06:50.05Z</time></trkpt><trkpt lat="42.0857191" lon="13.6762496"><ele>1135.0</ele><time>2026-05-01T08:06:51.051Z</time></trkpt><trkpt lat="42.0858235" lon="13.6762501"><ele>1135.0</ele><time>2026-05-01T08:06:52.051Z</time></trkpt><trkpt lat="42.0859243" lon="13.6762454"><ele>1135.0</ele><time>2026-05-01T08:06:53.054Z</time></trkpt><trkpt lat="42.0860242" lon="13.6762366"><ele>1137.0</ele><time>2026-05-01T08:06:54.051Z</time></trkpt><trkpt lat="42.0861258" lon="13.6762176"><ele>1139.0</ele><time>2026-05-01T08:06:55.048Z</time></trkpt><trkpt lat="42.0862269" lon="13.6761907"><ele>1141.0</ele><time>2026-05-01T08:06:56.046Z</time></trkpt><trkpt lat="42.0863284" lon="13.6761685"><ele>1143.0</ele><time>2026-05-01T08:06:57.058Z</time></trkpt><trkpt lat="42.0864276" lon="13.6761321"><ele>1145.0</ele><time>2026-05-01T08:06:58.048Z</time></trkpt><trkpt lat="42.0865189" lon="13.6760973"><ele>1144.8</ele><time>2026-05-01T08:06:59.049Z</time></trkpt><trkpt lat="42.0866069" lon="13.6760472"><ele>1144.6</ele><time>2026-05-01T08:07:00.04Z</time></trkpt><trkpt lat="42.0866897" lon="13.6759901"><ele>1144.4</ele><time>2026-05-01T08:07:01.06Z</time></trkpt><trkpt lat="42.086773" lon="13.6759436"><ele>1144.2</ele><time>2026-05-01T08:07:02.04Z</time></trkpt><trkpt lat="42.0868661" lon="13.6759038"><ele>1144.0</ele><time>2026-05-01T08:07:03.049Z</time></trkpt><trkpt lat="42.086962" lon="13.6758731"><ele>1144.0</ele><time>2026-05-01T08:07:04.047Z</time></trkpt><trkpt lat="42.087045" lon="13.6758434"><ele>1144.0</ele><time>2026-05-01T08:07:05.05Z</time></trkpt><trkpt lat="42.087119" lon="13.6758121"><ele>1144.0</ele><time>2026-05-01T08:07:06.043Z</time></trkpt><trkpt lat="42.0871946" lon="13.6757809"><ele>1144.0</ele><time>2026-05-01T08:07:07.059Z</time></trkpt><trkpt lat="42.0872736" lon="13.6757579"><ele>1144.0</ele><time>2026-05-01T08:07:08.083Z</time></trkpt><trkpt lat="42.0873563" lon="13.6757369"><ele>1144.0</ele><time>2026-05-01T08:07:09.046Z</time></trkpt><trkpt lat="42.0874371" lon="13.675711"><ele>1143.6666666666665</ele><time>2026-05-01T08:07:10.058Z</time></trkpt><trkpt lat="42.0875212" lon="13.6756972"><ele>1143.3333333333333</ele><time>2026-05-01T08:07:11.047Z</time></trkpt><trkpt lat="42.0876058" lon="13.6757027"><ele>1143.0</ele><time>2026-05-01T08:07:12.043Z</time></trkpt><trkpt lat="42.0876911" lon="13.6757265"><ele>1142.6666666666667</ele><time>2026-05-01T08:07:13.045Z</time></trkpt><trkpt lat="42.0877808" lon="13.6757569"><ele>1142.3333333333335</ele><time>2026-05-01T08:07:14.043Z</time></trkpt><trkpt lat="42.0878678" lon="13.6757901"><ele>1142.0</ele><time>2026-05-01T08:07:15.049Z</time></trkpt><trkpt lat="42.0879534" lon="13.675823"><ele>1142.0</ele><time>2026-05-01T08:07:16.042Z</time></trkpt><trkpt lat="42.0880373" lon="13.6758638"><ele>1142.0</ele><time>2026-05-01T08:07:17.054Z</time></trkpt><trkpt lat="42.0881249" lon="13.6759033"><ele>1142.0</ele><time>2026-05-01T08:07:18.045Z</time></trkpt><trkpt lat="42.0882107" lon="13.6759394"><ele>1142.0</ele><time>2026-05-01T08:07:19.052Z</time></trkpt><trkpt lat="42.0882909" lon="13.6759719"><ele>1142.0</ele><time>2026-05-01T08:07:20.047Z</time></trkpt><trkpt lat="42.0883709" lon="13.6759985"><ele>1142.0</ele><time>2026-05-01T08:07:21.046Z</time></trkpt><trkpt lat="42.0884523" lon="13.6760318"><ele>1142.1666666666667</ele><time>2026-05-01T08:07:22.055Z</time></trkpt><trkpt lat="42.0885338" lon="13.676062"><ele>1142.3333333333335</ele><time>2026-05-01T08:07:23.046Z</time></trkpt><trkpt lat="42.088614" lon="13.6760954"><ele>1142.5</ele><time>2026-05-01T08:07:24.07Z</time></trkpt><trkpt lat="42.0886977" lon="13.6761377"><ele>1142.6666666666667</ele><time>2026-05-01T08:07:25.044Z</time></trkpt><trkpt lat="42.0887777" lon="13.6761803"><ele>1142.8333333333333</ele><time>2026-05-01T08:07:26.057Z</time></trkpt><trkpt lat="42.0888598" lon="13.676236"><ele>1143.0</ele><time>2026-05-01T08:07:27.055Z</time></trkpt><trkpt lat="42.0889405" lon="13.6762974"><ele>1145.0</ele><time>2026-05-01T08:07:28.054Z</time></trkpt><trkpt lat="42.0890206" lon="13.676357"><ele>1147.0</ele><time>2026-05-01T08:07:29.049Z</time></trkpt><trkpt lat="42.0891075" lon="13.6763973"><ele>1149.0</ele><time>2026-05-01T08:07:30.044Z</time></trkpt><trkpt lat="42.0891972" lon="13.6764243"><ele>1151.0</ele><time>2026-05-01T08:07:31.046Z</time></trkpt><trkpt lat="42.0892814" lon="13.6764352"><ele>1153.0</ele><time>2026-05-01T08:07:32.048Z</time></trkpt><trkpt lat="42.089368" lon="13.6764397"><ele>1155.0</ele><time>2026-05-01T08:07:33.044Z</time></trkpt><trkpt lat="42.0894612" lon="13.6764538"><ele>1155.0</ele><time>2026-05-01T08:07:34.044Z</time></trkpt><trkpt lat="42.0895517" lon="13.6764595"><ele>1155.0</ele><time>2026-05-01T08:07:35.044Z</time></trkpt><trkpt lat="42.0896293" lon="13.6764637"><ele>1155.0</ele><time>2026-05-01T08:07:36.042Z</time></trkpt><trkpt lat="42.0896935" lon="13.6764696"><ele>1155.0</ele><time>2026-05-01T08:07:37.061Z</time></trkpt><trkpt lat="42.0898207" lon="13.6765203"><ele>1155.0</ele><time>2026-05-01T08:07:39.048Z</time></trkpt><trkpt lat="42.0898872" lon="13.6765506"><ele>1155.0</ele><time>2026-05-01T08:07:40.04Z</time></trkpt><trkpt lat="42.0899969" lon="13.6766217"><ele>1153.5</ele><time>2026-05-01T08:07:42.042Z</time></trkpt><trkpt lat="42.090051" lon="13.6766754"><ele>1152.0</ele><time>2026-05-01T08:07:43.047Z</time></trkpt><trkpt lat="42.0901157" lon="13.676716"><ele>1150.5</ele><time>2026-05-01T08:07:44.048Z</time></trkpt><trkpt lat="42.0901915" lon="13.6767532"><ele>1149.0</ele><time>2026-05-01T08:07:45.049Z</time></trkpt><trkpt lat="42.0902639" lon="13.6767916"><ele>1147.5</ele><time>2026-05-01T08:07:46.047Z</time></trkpt><trkpt lat="42.0903293" lon="13.6768473"><ele>1146.0</ele><time>2026-05-01T08:07:47.043Z</time></trkpt><trkpt lat="42.0904021" lon="13.6769175"><ele>1146.6666666666667</ele><time>2026-05-01T08:07:48.051Z</time></trkpt><trkpt lat="42.0904853" lon="13.6769992"><ele>1147.3333333333333</ele><time>2026-05-01T08:07:49.047Z</time></trkpt><trkpt lat="42.0905692" lon="13.6770791"><ele>1148.0</ele><time>2026-05-01T08:07:50.051Z</time></trkpt><trkpt lat="42.0906345" lon="13.6771386"><ele>1148.6666666666665</ele><time>2026-05-01T08:07:51.041Z</time></trkpt><trkpt lat="42.0907024" lon="13.6771831"><ele>1149.3333333333333</ele><time>2026-05-01T08:07:52.053Z</time></trkpt><trkpt lat="42.0907638" lon="13.6772347"><ele>1150.0</ele><time>2026-05-01T08:07:53.051Z</time></trkpt><trkpt lat="42.0908205" lon="13.6773061"><ele>1150.0</ele><time>2026-05-01T08:07:54.048Z</time></trkpt><trkpt lat="42.0908922" lon="13.6773751"><ele>1150.0</ele><time>2026-05-01T08:07:55.045Z</time></trkpt><trkpt lat="42.0909711" lon="13.6774465"><ele>1150.0</ele><time>2026-05-01T08:07:56.052Z</time></trkpt><trkpt lat="42.0910592" lon="13.6775081"><ele>1150.0</ele><time>2026-05-01T08:07:57.043Z</time></trkpt><trkpt lat="42.0911489" lon="13.6775681"><ele>1150.0</ele><time>2026-05-01T08:07:58.038Z</time></trkpt><trkpt lat="42.0912364" lon="13.6776188"><ele>1150.0</ele><time>2026-05-01T08:07:59.05Z</time></trkpt><trkpt lat="42.0913233" lon="13.6776697"><ele>1150.0</ele><time>2026-05-01T08:08:00.04Z</time></trkpt><trkpt lat="42.0914111" lon="13.6777281"><ele>1150.0</ele><time>2026-05-01T08:08:01.052Z</time></trkpt><trkpt lat="42.0914938" lon="13.6777852"><ele>1150.0</ele><time>2026-05-01T08:08:02.044Z</time></trkpt><trkpt lat="42.0915743" lon="13.6778427"><ele>1150.0</ele><time>2026-05-01T08:08:03.045Z</time></trkpt><trkpt lat="42.0916542" lon="13.6779032"><ele>1151.5</ele><time>2026-05-01T08:08:04.046Z</time></trkpt><trkpt lat="42.0917367" lon="13.6779605"><ele>1153.0</ele><time>2026-05-01T08:08:05.043Z</time></trkpt><trkpt lat="42.0918134" lon="13.6780037"><ele>1154.5</ele><time>2026-05-01T08:08:06.049Z</time></trkpt><trkpt lat="42.091894" lon="13.6780192"><ele>1156.0</ele><time>2026-05-01T08:08:07.056Z</time></trkpt><trkpt lat="42.0919772" lon="13.678018"><ele>1157.5</ele><time>2026-05-01T08:08:08.04Z</time></trkpt><trkpt lat="42.092053" lon="13.6779931"><ele>1159.0</ele><time>2026-05-01T08:08:09.06Z</time></trkpt><trkpt lat="42.092137" lon="13.677958"><ele>1159.0</ele><time>2026-05-01T08:08:10.037Z</time></trkpt><trkpt lat="42.0922303" lon="13.6779123"><ele>1159.0</ele><time>2026-05-01T08:08:11.038Z</time></trkpt><trkpt lat="42.0923223" lon="13.6778674"><ele>1159.0</ele><time>2026-05-01T08:08:12.042Z</time></trkpt><trkpt lat="42.0924071" lon="13.6778283"><ele>1159.0</ele><time>2026-05-01T08:08:13.047Z</time></trkpt><trkpt lat="42.0924892" lon="13.6777893"><ele>1159.0</ele><time>2026-05-01T08:08:14.046Z</time></trkpt><trkpt lat="42.0925784" lon="13.6777587"><ele>1156.8</ele><time>2026-05-01T08:08:15.045Z</time></trkpt><trkpt lat="42.0926868" lon="13.6777444"><ele>1154.6000000000001</ele><time>2026-05-01T08:08:16.048Z</time></trkpt><trkpt lat="42.092799" lon="13.6777287"><ele>1152.4</ele><time>2026-05-01T08:08:17.043Z</time></trkpt><trkpt lat="42.0929013" lon="13.6777058"><ele>1150.2</ele><time>2026-05-01T08:08:18.04Z</time></trkpt><trkpt lat="42.0929902" lon="13.6776908"><ele>1148.0</ele><time>2026-05-01T08:08:19.053Z</time></trkpt><trkpt lat="42.0930689" lon="13.6776881"><ele>1148.0</ele><time>2026-05-01T08:08:20.054Z</time></trkpt><trkpt lat="42.093152" lon="13.6776995"><ele>1148.0</ele><time>2026-05-01T08:08:21.05Z</time></trkpt><trkpt lat="42.0932339" lon="13.6777273"><ele>1148.0</ele><time>2026-05-01T08:08:22.068Z</time></trkpt><trkpt lat="42.093308" lon="13.6777605"><ele>1148.0</ele><time>2026-05-01T08:08:23.053Z</time></trkpt><trkpt lat="42.0933779" lon="13.6777907"><ele>1148.0</ele><time>2026-05-01T08:08:24.041Z</time></trkpt><trkpt lat="42.0934463" lon="13.6778027"><ele>1148.0</ele><time>2026-05-01T08:08:25.051Z</time></trkpt><trkpt lat="42.0935127" lon="13.6778031"><ele>1147.8333333333335</ele><time>2026-05-01T08:08:26.051Z</time></trkpt><trkpt lat="42.0936378" lon="13.6777593"><ele>1147.6666666666667</ele><time>2026-05-01T08:08:28.048Z</time></trkpt><trkpt lat="42.0936954" lon="13.6777112"><ele>1147.5</ele><time>2026-05-01T08:08:29.042Z</time></trkpt><trkpt lat="42.0937405" lon="13.6776467"><ele>1147.3333333333333</ele><time>2026-05-01T08:08:30.058Z</time></trkpt><trkpt lat="42.0937824" lon="13.6775711"><ele>1147.1666666666665</ele><time>2026-05-01T08:08:31.047Z</time></trkpt><trkpt lat="42.0938112" lon="13.6774877"><ele>1147.0</ele><time>2026-05-01T08:08:32.043Z</time></trkpt><trkpt lat="42.0938405" lon="13.6774067"><ele>1147.0</ele><time>2026-05-01T08:08:33.042Z</time></trkpt><trkpt lat="42.0938664" lon="13.6773279"><ele>1147.0</ele><time>2026-05-01T08:08:34.053Z</time></trkpt><trkpt lat="42.0938924" lon="13.6772478"><ele>1147.0</ele><time>2026-05-01T08:08:35.041Z</time></trkpt><trkpt lat="42.0939652" lon="13.6771003"><ele>1147.0</ele><time>2026-05-01T08:08:37.042Z</time></trkpt><trkpt lat="42.0940201" lon="13.6770173"><ele>1147.0</ele><time>2026-05-01T08:08:38.068Z</time></trkpt><trkpt lat="42.0940837" lon="13.6769342"><ele>1147.0</ele><time>2026-05-01T08:08:39.05Z</time></trkpt><trkpt lat="42.0941518" lon="13.6768583"><ele>1147.6666666666665</ele><time>2026-05-01T08:08:40.048Z</time></trkpt><trkpt lat="42.0942202" lon="13.6767837"><ele>1148.3333333333333</ele><time>2026-05-01T08:08:41.037Z</time></trkpt><trkpt lat="42.0942911" lon="13.676711"><ele>1149.0</ele><time>2026-05-01T08:08:42.05Z</time></trkpt><trkpt lat="42.0943562" lon="13.6766406"><ele>1149.6666666666667</ele><time>2026-05-01T08:08:43.049Z</time></trkpt><trkpt lat="42.0944174" lon="13.6765696"><ele>1150.3333333333335</ele><time>2026-05-01T08:08:44.055Z</time></trkpt><trkpt lat="42.0944722" lon="13.6765035"><ele>1151.0</ele><time>2026-05-01T08:08:45.043Z</time></trkpt><trkpt lat="42.0945283" lon="13.6764412"><ele>1151.0</ele><time>2026-05-01T08:08:46.064Z</time></trkpt><trkpt lat="42.0945851" lon="13.6763869"><ele>1151.0</ele><time>2026-05-01T08:08:47.053Z</time></trkpt><trkpt lat="42.0946843" lon="13.676287"><ele>1151.0</ele><time>2026-05-01T08:08:49.049Z</time></trkpt><trkpt lat="42.0947791" lon="13.6762041"><ele>1151.0</ele><time>2026-05-01T08:08:51.045Z</time></trkpt><trkpt lat="42.0948675" lon="13.6761183"><ele>1151.0</ele><time>2026-05-01T08:08:53.041Z</time></trkpt><trkpt lat="42.0949618" lon="13.6760198"><ele>1152.75</ele><time>2026-05-01T08:08:55.04Z</time></trkpt><trkpt lat="42.0950466" lon="13.675922"><ele>1154.5</ele><time>2026-05-01T08:08:57.039Z</time></trkpt><trkpt lat="42.095132" lon="13.6758209"><ele>1156.25</ele><time>2026-05-01T08:08:59.041Z</time></trkpt><trkpt lat="42.0952199" lon="13.6757197"><ele>1158.0</ele><time>2026-05-01T08:09:01.04Z</time></trkpt><trkpt lat="42.095309" lon="13.6756278"><ele>1158.0</ele><time>2026-05-01T08:09:03.042Z</time></trkpt><trkpt lat="42.0954074" lon="13.675538"><ele>1158.0</ele><time>2026-05-01T08:09:05.04Z</time></trkpt><trkpt lat="42.0954635" lon="13.6754875"><ele>1158.0</ele><time>2026-05-01T08:09:06.051Z</time></trkpt><trkpt lat="42.0955244" lon="13.6754454"><ele>1158.0</ele><time>2026-05-01T08:09:07.041Z</time></trkpt><trkpt lat="42.0956483" lon="13.6754147"><ele>1158.0</ele><time>2026-05-01T08:09:09.048Z</time></trkpt><trkpt lat="42.0957161" lon="13.6754243"><ele>1158.0</ele><time>2026-05-01T08:09:10.052Z</time></trkpt><trkpt lat="42.0957852" lon="13.6754476"><ele>1159.3333333333333</ele><time>2026-05-01T08:09:11.057Z</time></trkpt><trkpt lat="42.09585" lon="13.675481"><ele>1160.6666666666667</ele><time>2026-05-01T08:09:12.046Z</time></trkpt><trkpt lat="42.095907" lon="13.675525"><ele>1162.0</ele><time>2026-05-01T08:09:13.042Z</time></trkpt><trkpt lat="42.0959651" lon="13.6755702"><ele>1163.3333333333335</ele><time>2026-05-01T08:09:14.053Z</time></trkpt><trkpt lat="42.0960639" lon="13.6756556"><ele>1164.6666666666667</ele><time>2026-05-01T08:09:16.068Z</time></trkpt><trkpt lat="42.0961273" lon="13.6756887"><ele>1166.0</ele><time>2026-05-01T08:09:17.038Z</time></trkpt><trkpt lat="42.0962011" lon="13.6756969"><ele>1166.0000000000002</ele><time>2026-05-01T08:09:18.046Z</time></trkpt><trkpt lat="42.0962786" lon="13.6756827"><ele>1166.0</ele><time>2026-05-01T08:09:19.044Z</time></trkpt><trkpt lat="42.0963459" lon="13.6756406"><ele>1166.0</ele><time>2026-05-01T08:09:20.046Z</time></trkpt><trkpt lat="42.096404" lon="13.675586"><ele>1166.0</ele><time>2026-05-01T08:09:21.044Z</time></trkpt><trkpt lat="42.0964571" lon="13.6755292"><ele>1166.0</ele><time>2026-05-01T08:09:22.056Z</time></trkpt><trkpt lat="42.0965139" lon="13.675466"><ele>1166.0000000000002</ele><time>2026-05-01T08:09:23.046Z</time></trkpt><trkpt lat="42.0965638" lon="13.6754038"><ele>1166.0</ele><time>2026-05-01T08:09:24.046Z</time></trkpt><trkpt lat="42.0966071" lon="13.6753238"><ele>1165.3333333333335</ele><time>2026-05-01T08:09:25.041Z</time></trkpt><trkpt lat="42.0966512" lon="13.6752511"><ele>1164.6666666666667</ele><time>2026-05-01T08:09:26.046Z</time></trkpt><trkpt lat="42.0967029" lon="13.6751739"><ele>1164.0</ele><time>2026-05-01T08:09:27.052Z</time></trkpt><trkpt lat="42.0967533" lon="13.6750935"><ele>1163.3333333333333</ele><time>2026-05-01T08:09:28.047Z</time></trkpt><trkpt lat="42.09681" lon="13.6750091"><ele>1162.6666666666665</ele><time>2026-05-01T08:09:29.041Z</time></trkpt><trkpt lat="42.0968652" lon="13.6749247"><ele>1162.0</ele><time>2026-05-01T08:09:30.05Z</time></trkpt><trkpt lat="42.0969208" lon="13.6748413"><ele>1162.0</ele><time>2026-05-01T08:09:31.042Z</time></trkpt><trkpt lat="42.0969792" lon="13.6747657"><ele>1162.0</ele><time>2026-05-01T08:09:32.054Z</time></trkpt><trkpt lat="42.0970422" lon="13.6746843"><ele>1162.0</ele><time>2026-05-01T08:09:33.044Z</time></trkpt><trkpt lat="42.0971013" lon="13.6746016"><ele>1162.0</ele><time>2026-05-01T08:09:34.051Z</time></trkpt><trkpt lat="42.0971614" lon="13.6745085"><ele>1162.0</ele><time>2026-05-01T08:09:35.046Z</time></trkpt><trkpt lat="42.0972134" lon="13.6744187"><ele>1162.0</ele><time>2026-05-01T08:09:36.047Z</time></trkpt><trkpt lat="42.0972688" lon="13.6743306"><ele>1161.5</ele><time>2026-05-01T08:09:37.058Z</time></trkpt><trkpt lat="42.0973204" lon="13.6742368"><ele>1161.0</ele><time>2026-05-01T08:09:38.043Z</time></trkpt><trkpt lat="42.0973746" lon="13.6741372"><ele>1160.5</ele><time>2026-05-01T08:09:39.051Z</time></trkpt><trkpt lat="42.0974243" lon="13.6740456"><ele>1160.0</ele><time>2026-05-01T08:09:40.046Z</time></trkpt><trkpt lat="42.0974714" lon="13.6739702"><ele>1159.5</ele><time>2026-05-01T08:09:41.053Z</time></trkpt><trkpt lat="42.0975137" lon="13.6739057"><ele>1159.0</ele><time>2026-05-01T08:09:42.049Z</time></trkpt><trkpt lat="42.0975901" lon="13.6737914"><ele>1159.8</ele><time>2026-05-01T08:09:44.047Z</time></trkpt><trkpt lat="42.0976231" lon="13.6737143"><ele>1160.6000000000001</ele><time>2026-05-01T08:09:46.054Z</time></trkpt><trkpt lat="42.0976743" lon="13.6735991"><ele>1161.4</ele><time>2026-05-01T08:10:26.056Z</time></trkpt><trkpt lat="42.0977486" lon="13.6735052"><ele>1162.2</ele><time>2026-05-01T08:10:28.047Z</time></trkpt><trkpt lat="42.0978338" lon="13.6734086"><ele>1163.0</ele><time>2026-05-01T08:10:30.042Z</time></trkpt><trkpt lat="42.0978912" lon="13.6733421"><ele>1163.0</ele><time>2026-05-01T08:10:31.043Z</time></trkpt><trkpt lat="42.0979464" lon="13.6732779"><ele>1163.0</ele><time>2026-05-01T08:10:32.042Z</time></trkpt><trkpt lat="42.0980335" lon="13.6731633"><ele>1163.0</ele><time>2026-05-01T08:10:34.044Z</time></trkpt><trkpt lat="42.0981195" lon="13.6730507"><ele>1163.0</ele><time>2026-05-01T08:10:36.055Z</time></trkpt><trkpt lat="42.0981697" lon="13.6729925"><ele>1163.0</ele><time>2026-05-01T08:10:37.051Z</time></trkpt><trkpt lat="42.0982264" lon="13.6729425"><ele>1163.0</ele><time>2026-05-01T08:10:38.05Z</time></trkpt><trkpt lat="42.0982948" lon="13.6728948"><ele>1163.142857142857</ele><time>2026-05-01T08:10:39.046Z</time></trkpt><trkpt lat="42.098369" lon="13.6728593"><ele>1163.2857142857142</ele><time>2026-05-01T08:10:40.048Z</time></trkpt><trkpt lat="42.0984411" lon="13.6728332"><ele>1163.4285714285713</ele><time>2026-05-01T08:10:41.049Z</time></trkpt><trkpt lat="42.0985132" lon="13.6728133"><ele>1163.5714285714284</ele><time>2026-05-01T08:10:42.039Z</time></trkpt><trkpt lat="42.0985844" lon="13.6728025"><ele>1163.7142857142856</ele><time>2026-05-01T08:10:43.051Z</time></trkpt><trkpt lat="42.0986541" lon="13.6727961"><ele>1163.857142857143</ele><time>2026-05-01T08:10:44.048Z</time></trkpt><trkpt lat="42.0987292" lon="13.6727836"><ele>1164.0</ele><time>2026-05-01T08:10:45.053Z</time></trkpt><trkpt lat="42.0988081" lon="13.6727609"><ele>1164.0</ele><time>2026-05-01T08:10:46.056Z</time></trkpt><trkpt lat="42.0988836" lon="13.6727411"><ele>1164.0</ele><time>2026-05-01T08:10:47.058Z</time></trkpt><trkpt lat="42.0989561" lon="13.6727198"><ele>1164.0</ele><time>2026-05-01T08:10:48.043Z</time></trkpt><trkpt lat="42.0990242" lon="13.6727022"><ele>1164.0</ele><time>2026-05-01T08:10:49.065Z</time></trkpt><trkpt lat="42.0990941" lon="13.6726781"><ele>1164.0</ele><time>2026-05-01T08:10:50.052Z</time></trkpt><trkpt lat="42.0991651" lon="13.672651"><ele>1164.0</ele><time>2026-05-01T08:10:51.044Z</time></trkpt><trkpt lat="42.0992295" lon="13.6726229"><ele>1164.0</ele><time>2026-05-01T08:10:52.044Z</time></trkpt><trkpt lat="42.0992895" lon="13.6725894"><ele>1165.4285714285713</ele><time>2026-05-01T08:10:53.049Z</time></trkpt><trkpt lat="42.0993522" lon="13.6725584"><ele>1166.8571428571427</ele><time>2026-05-01T08:10:54.049Z</time></trkpt><trkpt lat="42.0994108" lon="13.6725207"><ele>1168.2857142857142</ele><time>2026-05-01T08:10:55.058Z</time></trkpt><trkpt lat="42.0994696" lon="13.6724864"><ele>1169.7142857142858</ele><time>2026-05-01T08:10:56.05Z</time></trkpt><trkpt lat="42.0995346" lon="13.672461"><ele>1171.1428571428573</ele><time>2026-05-01T08:10:57.067Z</time></trkpt><trkpt lat="42.0996062" lon="13.6724507"><ele>1172.5714285714287</ele><time>2026-05-01T08:10:58.056Z</time></trkpt><trkpt lat="42.0996813" lon="13.6724524"><ele>1174.0</ele><time>2026-05-01T08:10:59.042Z</time></trkpt><trkpt lat="42.099755" lon="13.6724714"><ele>1174.0</ele><time>2026-05-01T08:11:00.048Z</time></trkpt><trkpt lat="42.0998263" lon="13.6725113"><ele>1174.0</ele><time>2026-05-01T08:11:01.06Z</time></trkpt><trkpt lat="42.0998962" lon="13.6725576"><ele>1174.0</ele><time>2026-05-01T08:11:02.061Z</time></trkpt><trkpt lat="42.0999621" lon="13.6726146"><ele>1174.0</ele><time>2026-05-01T08:11:03.064Z</time></trkpt><trkpt lat="42.1000215" lon="13.6726764"><ele>1174.0</ele><time>2026-05-01T08:11:04.05Z</time></trkpt><trkpt lat="42.1000753" lon="13.6727463"><ele>1174.0</ele><time>2026-05-01T08:11:05.059Z</time></trkpt><trkpt lat="42.1001274" lon="13.6728243"><ele>1176.3333333333333</ele><time>2026-05-01T08:11:06.065Z</time></trkpt><trkpt lat="42.1001767" lon="13.6728983"><ele>1178.6666666666665</ele><time>2026-05-01T08:11:07.068Z</time></trkpt><trkpt lat="42.1002317" lon="13.672963"><ele>1181.0</ele><time>2026-05-01T08:11:08.055Z</time></trkpt><trkpt lat="42.1002881" lon="13.6730086"><ele>1183.3333333333333</ele><time>2026-05-01T08:11:09.074Z</time></trkpt><trkpt lat="42.1004029" lon="13.6730618"><ele>1185.6666666666667</ele><time>2026-05-01T08:11:11.055Z</time></trkpt><trkpt lat="42.1005144" lon="13.6730983"><ele>1188.0</ele><time>2026-05-01T08:11:13.052Z</time></trkpt><trkpt lat="42.1005748" lon="13.6731223"><ele>1188.0</ele><time>2026-05-01T08:11:14.044Z</time></trkpt><trkpt lat="42.1006819" lon="13.6731858"><ele>1188.0</ele><time>2026-05-01T08:11:16.054Z</time></trkpt><trkpt lat="42.1007807" lon="13.6732541"><ele>1188.0</ele><time>2026-05-01T08:11:18.053Z</time></trkpt><trkpt lat="42.1008889" lon="13.6732675"><ele>1188.0</ele><time>2026-05-01T08:11:20.027Z</time></trkpt><trkpt lat="42.1010058" lon="13.6732086"><ele>1187.3333333333333</ele><time>2026-05-01T08:11:22.062Z</time></trkpt><trkpt lat="42.1010662" lon="13.6731562"><ele>1186.6666666666667</ele><time>2026-05-01T08:11:23.038Z</time></trkpt><trkpt lat="42.101132" lon="13.6730995"><ele>1186.0</ele><time>2026-05-01T08:11:24.056Z</time></trkpt><trkpt lat="42.1011961" lon="13.6730418"><ele>1185.3333333333335</ele><time>2026-05-01T08:11:25.067Z</time></trkpt><trkpt lat="42.1012569" lon="13.6729752"><ele>1184.6666666666667</ele><time>2026-05-01T08:11:26.043Z</time></trkpt><trkpt lat="42.101315" lon="13.6729145"><ele>1184.0</ele><time>2026-05-01T08:11:27.06Z</time></trkpt><trkpt lat="42.1013715" lon="13.6728557"><ele>1184.0</ele><time>2026-05-01T08:11:28.061Z</time></trkpt><trkpt lat="42.1014282" lon="13.6727946"><ele>1184.0</ele><time>2026-05-01T08:11:29.057Z</time></trkpt><trkpt lat="42.1014824" lon="13.6727254"><ele>1184.0</ele><time>2026-05-01T08:11:30.079Z</time></trkpt><trkpt lat="42.1015265" lon="13.6726485"><ele>1184.0</ele><time>2026-05-01T08:11:31.05Z</time></trkpt><trkpt lat="42.1015563" lon="13.6725677"><ele>1184.0</ele><time>2026-05-01T08:11:32.046Z</time></trkpt><trkpt lat="42.1015774" lon="13.6724803"><ele>1184.0</ele><time>2026-05-01T08:11:33.05Z</time></trkpt><trkpt lat="42.1015943" lon="13.67239"><ele>1184.0</ele><time>2026-05-01T08:11:34.045Z</time></trkpt><trkpt lat="42.1016146" lon="13.6723067"><ele>1183.0</ele><time>2026-05-01T08:11:35.051Z</time></trkpt><trkpt lat="42.101648" lon="13.6722229"><ele>1182.0</ele><time>2026-05-01T08:11:36.048Z</time></trkpt><trkpt lat="42.1016891" lon="13.6721463"><ele>1181.0</ele><time>2026-05-01T08:11:37.045Z</time></trkpt><trkpt lat="42.1017334" lon="13.6720844"><ele>1180.0</ele><time>2026-05-01T08:11:38.061Z</time></trkpt><trkpt lat="42.1018227" lon="13.6719556"><ele>1179.0</ele><time>2026-05-01T08:11:40.047Z</time></trkpt><trkpt lat="42.1018774" lon="13.671862"><ele>1178.0</ele><time>2026-05-01T08:11:41.073Z</time></trkpt><trkpt lat="42.1019332" lon="13.6717596"><ele>1180.1666666666667</ele><time>2026-05-01T08:11:42.05Z</time></trkpt><trkpt lat="42.1019805" lon="13.6716563"><ele>1182.3333333333335</ele><time>2026-05-01T08:11:43.05Z</time></trkpt><trkpt lat="42.1020188" lon="13.6715503"><ele>1184.5</ele><time>2026-05-01T08:11:44.048Z</time></trkpt><trkpt lat="42.1020552" lon="13.6714505"><ele>1186.6666666666667</ele><time>2026-05-01T08:11:45.058Z</time></trkpt><trkpt lat="42.102084" lon="13.6713671"><ele>1188.8333333333333</ele><time>2026-05-01T08:11:46.052Z</time></trkpt><trkpt lat="42.1021584" lon="13.6712418"><ele>1191.0</ele><time>2026-05-01T08:11:48.057Z</time></trkpt><trkpt lat="42.102261" lon="13.67118"><ele>1191.0</ele><time>2026-05-01T08:11:50.058Z</time></trkpt><trkpt lat="42.1023822" lon="13.6711624"><ele>1191.0</ele><time>2026-05-01T08:11:52.056Z</time></trkpt><trkpt lat="42.1024799" lon="13.6712199"><ele>1191.0</ele><time>2026-05-01T08:11:54.066Z</time></trkpt><trkpt lat="42.1025282" lon="13.6713523"><ele>1191.0</ele><time>2026-05-01T08:11:56.049Z</time></trkpt><trkpt lat="42.1025324" lon="13.6714379"><ele>1191.0</ele><time>2026-05-01T08:11:57.059Z</time></trkpt><trkpt lat="42.1025249" lon="13.671539"><ele>1189.0</ele><time>2026-05-01T08:11:58.064Z</time></trkpt><trkpt lat="42.1025069" lon="13.6716463"><ele>1187.0</ele><time>2026-05-01T08:11:59.047Z</time></trkpt><trkpt lat="42.1024918" lon="13.6717647"><ele>1185.0</ele><time>2026-05-01T08:12:00.04Z</time></trkpt><trkpt lat="42.1024808" lon="13.6718693"><ele>1183.0</ele><time>2026-05-01T08:12:01.05Z</time></trkpt><trkpt lat="42.1024719" lon="13.6719707"><ele>1181.0</ele><time>2026-05-01T08:12:02.056Z</time></trkpt><trkpt lat="42.1024662" lon="13.6720712"><ele>1179.0</ele><time>2026-05-01T08:12:03.054Z</time></trkpt><trkpt lat="42.1024658" lon="13.6721672"><ele>1177.8333333333333</ele><time>2026-05-01T08:12:04.054Z</time></trkpt><trkpt lat="42.1024611" lon="13.6722594"><ele>1176.6666666666667</ele><time>2026-05-01T08:12:05.057Z</time></trkpt><trkpt lat="42.102455" lon="13.6723457"><ele>1175.5</ele><time>2026-05-01T08:12:06.059Z</time></trkpt><trkpt lat="42.1024394" lon="13.6725085"><ele>1174.3333333333335</ele><time>2026-05-01T08:12:08.05Z</time></trkpt><trkpt lat="42.1024257" lon="13.6726009"><ele>1173.1666666666667</ele><time>2026-05-01T08:12:09.025Z</time></trkpt><trkpt lat="42.1024295" lon="13.6726918"><ele>1172.0</ele><time>2026-05-01T08:12:10.073Z</time></trkpt><trkpt lat="42.1024443" lon="13.6727751"><ele>1170.8333333333335</ele><time>2026-05-01T08:12:11.045Z</time></trkpt><trkpt lat="42.1024668" lon="13.6728647"><ele>1169.6666666666667</ele><time>2026-05-01T08:12:12.055Z</time></trkpt><trkpt lat="42.102498" lon="13.6729519"><ele>1168.5</ele><time>2026-05-01T08:12:13.053Z</time></trkpt><trkpt lat="42.1025276" lon="13.6730429"><ele>1167.3333333333333</ele><time>2026-05-01T08:12:14.056Z</time></trkpt><trkpt lat="42.1025535" lon="13.6731375"><ele>1166.1666666666665</ele><time>2026-05-01T08:12:15.057Z</time></trkpt><trkpt lat="42.1025767" lon="13.6732252"><ele>1165.0</ele><time>2026-05-01T08:12:16.078Z</time></trkpt><trkpt lat="42.1026147" lon="13.6733726"><ele>1165.0</ele><time>2026-05-01T08:12:18.059Z</time></trkpt><trkpt lat="42.1026544" lon="13.6735025"><ele>1165.0</ele><time>2026-05-01T08:12:20.043Z</time></trkpt><trkpt lat="42.1026689" lon="13.6736545"><ele>1165.0</ele><time>2026-05-01T08:12:22.053Z</time></trkpt><trkpt lat="42.1026649" lon="13.6738157"><ele>1165.0</ele><time>2026-05-01T08:12:24.047Z</time></trkpt><trkpt lat="42.1026677" lon="13.6739687"><ele>1164.1666666666665</ele><time>2026-05-01T08:12:26.053Z</time></trkpt><trkpt lat="42.102676" lon="13.6741272"><ele>1163.3333333333333</ele><time>2026-05-01T08:12:28.061Z</time></trkpt><trkpt lat="42.1026904" lon="13.6742133"><ele>1162.5</ele><time>2026-05-01T08:12:29.046Z</time></trkpt><trkpt lat="42.1027111" lon="13.6743015"><ele>1161.6666666666667</ele><time>2026-05-01T08:12:30.058Z</time></trkpt><trkpt lat="42.1027269" lon="13.6743919"><ele>1160.8333333333335</ele><time>2026-05-01T08:12:31.057Z</time></trkpt><trkpt lat="42.1027516" lon="13.6745504"><ele>1160.0</ele><time>2026-05-01T08:12:33.052Z</time></trkpt><trkpt lat="42.1027546" lon="13.6747052"><ele>1158.8</ele><time>2026-05-01T08:12:35.047Z</time></trkpt><trkpt lat="42.1027839" lon="13.6748453"><ele>1157.6</ele><time>2026-05-01T08:12:37.045Z</time></trkpt><trkpt lat="42.1028345" lon="13.6749704"><ele>1156.4</ele><time>2026-05-01T08:12:39.053Z</time></trkpt><trkpt lat="42.1028839" lon="13.6750886"><ele>1155.2</ele><time>2026-05-01T08:12:41.069Z</time></trkpt><trkpt lat="42.1029435" lon="13.6752047"><ele>1154.0</ele><time>2026-05-01T08:12:43.059Z</time></trkpt><trkpt lat="42.1030264" lon="13.675306"><ele>1152.5</ele><time>2026-05-01T08:12:45.053Z</time></trkpt><trkpt lat="42.1031167" lon="13.6754049"><ele>1151.0</ele><time>2026-05-01T08:12:47.053Z</time></trkpt><trkpt lat="42.1032048" lon="13.6755105"><ele>1149.5</ele><time>2026-05-01T08:12:49.051Z</time></trkpt><trkpt lat="42.1032837" lon="13.6756281"><ele>1148.0</ele><time>2026-05-01T08:12:51.063Z</time></trkpt><trkpt lat="42.103358" lon="13.6757508"><ele>1147.6</ele><time>2026-05-01T08:12:53.049Z</time></trkpt><trkpt lat="42.1034259" lon="13.6758695"><ele>1147.1999999999998</ele><time>2026-05-01T08:12:55.057Z</time></trkpt><trkpt lat="42.1034848" lon="13.6759872"><ele>1146.8</ele><time>2026-05-01T08:12:57.054Z</time></trkpt><trkpt lat="42.1035463" lon="13.6761004"><ele>1146.3999999999999</ele><time>2026-05-01T08:12:59.091Z</time></trkpt><trkpt lat="42.1035973" lon="13.676217"><ele>1146.0</ele><time>2026-05-01T08:13:01.053Z</time></trkpt><trkpt lat="42.1036612" lon="13.6763256"><ele>1146.0</ele><time>2026-05-01T08:13:03.038Z</time></trkpt><trkpt lat="42.1037315" lon="13.6764331"><ele>1146.0</ele><time>2026-05-01T08:13:05.041Z</time></trkpt><trkpt lat="42.1037933" lon="13.6765463"><ele>1146.0</ele><time>2026-05-01T08:13:07.039Z</time></trkpt><trkpt lat="42.1038387" lon="13.6766722"><ele>1146.0</ele><time>2026-05-01T08:13:09.045Z</time></trkpt><trkpt lat="42.1039157" lon="13.6767751"><ele>1146.0</ele><time>2026-05-01T08:13:11.047Z</time></trkpt><trkpt lat="42.1040309" lon="13.6768356"><ele>1144.5</ele><time>2026-05-01T08:13:13.059Z</time></trkpt><trkpt lat="42.1040952" lon="13.6768608"><ele>1143.0</ele><time>2026-05-01T08:13:14.047Z</time></trkpt><trkpt lat="42.1041638" lon="13.6768886"><ele>1141.5</ele><time>2026-05-01T08:13:15.055Z</time></trkpt><trkpt lat="42.1042269" lon="13.6769126"><ele>1140.0</ele><time>2026-05-01T08:13:16.065Z</time></trkpt><trkpt lat="42.1042877" lon="13.6769361"><ele>1138.5</ele><time>2026-05-01T08:13:17.048Z</time></trkpt><trkpt lat="42.104409" lon="13.6770023"><ele>1137.0</ele><time>2026-05-01T08:13:19.054Z</time></trkpt><trkpt lat="42.1044681" lon="13.6770545"><ele>1136.2</ele><time>2026-05-01T08:13:20.049Z</time></trkpt><trkpt lat="42.1045667" lon="13.6771441"><ele>1135.4</ele><time>2026-05-01T08:13:22.046Z</time></trkpt><trkpt lat="42.1046555" lon="13.6772415"><ele>1134.6</ele><time>2026-05-01T08:13:24.051Z</time></trkpt><trkpt lat="42.104742" lon="13.6772857"><ele>1133.8</ele><time>2026-05-01T08:13:26.061Z</time></trkpt><trkpt lat="42.1048279" lon="13.6772275"><ele>1133.0</ele><time>2026-05-01T08:13:28.06Z</time></trkpt><trkpt lat="42.1048685" lon="13.6771108"><ele>1133.0</ele><time>2026-05-01T08:13:30.047Z</time></trkpt><trkpt lat="42.1048697" lon="13.6770205"><ele>1133.0</ele><time>2026-05-01T08:13:31.05Z</time></trkpt><trkpt lat="42.1048703" lon="13.6769092"><ele>1133.0</ele><time>2026-05-01T08:13:32.054Z</time></trkpt><trkpt lat="42.1048598" lon="13.6767973"><ele>1133.0</ele><time>2026-05-01T08:13:33.05Z</time></trkpt><trkpt lat="42.1048528" lon="13.6767068"><ele>1133.0</ele><time>2026-05-01T08:13:34.056Z</time></trkpt><trkpt lat="42.1048404" lon="13.6765605"><ele>1133.0</ele><time>2026-05-01T08:13:36.05Z</time></trkpt><trkpt lat="42.1048735" lon="13.6763859"><ele>1132.6</ele><time>2026-05-01T08:13:38.044Z</time></trkpt><trkpt lat="42.1048925" lon="13.6762958"><ele>1132.1999999999998</ele><time>2026-05-01T08:13:39.056Z</time></trkpt><trkpt lat="42.1049143" lon="13.6761432"><ele>1131.8</ele><time>2026-05-01T08:13:41.045Z</time></trkpt><trkpt lat="42.104955" lon="13.6759915"><ele>1131.3999999999999</ele><time>2026-05-01T08:13:43.044Z</time></trkpt><trkpt lat="42.1049658" lon="13.6759039"><ele>1131.0</ele><time>2026-05-01T08:13:44.059Z</time></trkpt><trkpt lat="42.1049723" lon="13.6757958"><ele>1131.0</ele><time>2026-05-01T08:13:45.053Z</time></trkpt><trkpt lat="42.1049777" lon="13.6756825"><ele>1131.0</ele><time>2026-05-01T08:13:46.045Z</time></trkpt><trkpt lat="42.1049807" lon="13.6755651"><ele>1131.0</ele><time>2026-05-01T08:13:47.036Z</time></trkpt><trkpt lat="42.1049805" lon="13.6754522"><ele>1131.0</ele><time>2026-05-01T08:13:48.045Z</time></trkpt><trkpt lat="42.104983" lon="13.6753443"><ele>1131.0</ele><time>2026-05-01T08:13:49.057Z</time></trkpt><trkpt lat="42.1049921" lon="13.6752417"><ele>1131.0</ele><time>2026-05-01T08:13:50.042Z</time></trkpt><trkpt lat="42.1050011" lon="13.6751438"><ele>1131.3333333333333</ele><time>2026-05-01T08:13:51.047Z</time></trkpt><trkpt lat="42.105008" lon="13.6750508"><ele>1131.6666666666667</ele><time>2026-05-01T08:13:52.052Z</time></trkpt><trkpt lat="42.1050274" lon="13.6749597"><ele>1132.0</ele><time>2026-05-01T08:13:53.05Z</time></trkpt><trkpt lat="42.1050656" lon="13.6748834"><ele>1132.3333333333335</ele><time>2026-05-01T08:13:54.044Z</time></trkpt><trkpt lat="42.1051092" lon="13.6748207"><ele>1132.6666666666667</ele><time>2026-05-01T08:13:55.051Z</time></trkpt><trkpt lat="42.1051908" lon="13.6747107"><ele>1133.0</ele><time>2026-05-01T08:13:57.052Z</time></trkpt><trkpt lat="42.1052778" lon="13.6746643"><ele>1133.0</ele><time>2026-05-01T08:13:59.044Z</time></trkpt><trkpt lat="42.1053862" lon="13.6746914"><ele>1133.0</ele><time>2026-05-01T08:14:01.044Z</time></trkpt><trkpt lat="42.1054651" lon="13.6747987"><ele>1133.0</ele><time>2026-05-01T08:14:03.043Z</time></trkpt><trkpt lat="42.1055186" lon="13.6749379"><ele>1133.0</ele><time>2026-05-01T08:14:05.036Z</time></trkpt><trkpt lat="42.1055324" lon="13.6750207"><ele>1133.0</ele><time>2026-05-01T08:14:06.052Z</time></trkpt><trkpt lat="42.1055348" lon="13.6751133"><ele>1133.0</ele><time>2026-05-01T08:14:07.055Z</time></trkpt><trkpt lat="42.1055367" lon="13.6752121"><ele>1133.0</ele><time>2026-05-01T08:14:08.066Z</time></trkpt><trkpt lat="42.1055335" lon="13.6753173"><ele>1133.0</ele><time>2026-05-01T08:14:09.054Z</time></trkpt><trkpt lat="42.1055274" lon="13.6754357"><ele>1133.0</ele><time>2026-05-01T08:14:10.054Z</time></trkpt><trkpt lat="42.1055307" lon="13.6755471"><ele>1133.0</ele><time>2026-05-01T08:14:11.053Z</time></trkpt><trkpt lat="42.1055445" lon="13.6756627"><ele>1133.0</ele><time>2026-05-01T08:14:12.045Z</time></trkpt><trkpt lat="42.1055664" lon="13.6757691"><ele>1132.6666666666667</ele><time>2026-05-01T08:14:13.062Z</time></trkpt><trkpt lat="42.1055813" lon="13.6758717"><ele>1132.3333333333335</ele><time>2026-05-01T08:14:14.056Z</time></trkpt><trkpt lat="42.1055865" lon="13.6759733"><ele>1132.0</ele><time>2026-05-01T08:14:15.045Z</time></trkpt><trkpt lat="42.1055854" lon="13.6760801"><ele>1131.6666666666667</ele><time>2026-05-01T08:14:16.04Z</time></trkpt><trkpt lat="42.1055847" lon="13.676185"><ele>1131.3333333333333</ele><time>2026-05-01T08:14:17.044Z</time></trkpt><trkpt lat="42.1055853" lon="13.6762881"><ele>1131.0</ele><time>2026-05-01T08:14:18.04Z</time></trkpt><trkpt lat="42.1055939" lon="13.676389"><ele>1129.8333333333333</ele><time>2026-05-01T08:14:19.048Z</time></trkpt><trkpt lat="42.1056132" lon="13.6764912"><ele>1128.6666666666667</ele><time>2026-05-01T08:14:20.044Z</time></trkpt><trkpt lat="42.1056408" lon="13.6765937"><ele>1127.5</ele><time>2026-05-01T08:14:21.04Z</time></trkpt><trkpt lat="42.105672" lon="13.676691"><ele>1126.3333333333335</ele><time>2026-05-01T08:14:22.052Z</time></trkpt><trkpt lat="42.105709" lon="13.676794"><ele>1125.1666666666667</ele><time>2026-05-01T08:14:23.048Z</time></trkpt><trkpt lat="42.105758" lon="13.6768822"><ele>1124.0</ele><time>2026-05-01T08:14:24.038Z</time></trkpt><trkpt lat="42.1058115" lon="13.6769551"><ele>1121.3333333333335</ele><time>2026-05-01T08:14:25.05Z</time></trkpt><trkpt lat="42.1058586" lon="13.6770277"><ele>1118.6666666666667</ele><time>2026-05-01T08:14:26.045Z</time></trkpt><trkpt lat="42.1058959" lon="13.6771155"><ele>1116.0</ele><time>2026-05-01T08:14:27.045Z</time></trkpt><trkpt lat="42.1059241" lon="13.6772238"><ele>1113.3333333333333</ele><time>2026-05-01T08:14:28.046Z</time></trkpt><trkpt lat="42.1059421" lon="13.677332"><ele>1110.6666666666665</ele><time>2026-05-01T08:14:29.042Z</time></trkpt><trkpt lat="42.1059426" lon="13.6774297"><ele>1108.0</ele><time>2026-05-01T08:14:30.049Z</time></trkpt><trkpt lat="42.1059403" lon="13.6775288"><ele>1108.0</ele><time>2026-05-01T08:14:31.044Z</time></trkpt><trkpt lat="42.1059472" lon="13.6776266"><ele>1108.0</ele><time>2026-05-01T08:14:32.058Z</time></trkpt><trkpt lat="42.1059584" lon="13.6777356"><ele>1108.0</ele><time>2026-05-01T08:14:33.046Z</time></trkpt><trkpt lat="42.1059735" lon="13.6778354"><ele>1108.0</ele><time>2026-05-01T08:14:34.048Z</time></trkpt><trkpt lat="42.1060022" lon="13.6779143"><ele>1108.0</ele><time>2026-05-01T08:14:35.059Z</time></trkpt><trkpt lat="42.1060655" lon="13.6780684"><ele>1108.0</ele><time>2026-05-01T08:14:37.045Z</time></trkpt><trkpt lat="42.1060834" lon="13.6781612"><ele>1107.5</ele><time>2026-05-01T08:14:38.047Z</time></trkpt><trkpt lat="42.106075" lon="13.678266"><ele>1107.0</ele><time>2026-05-01T08:14:39.049Z</time></trkpt><trkpt lat="42.1060538" lon="13.6783904"><ele>1106.5</ele><time>2026-05-01T08:14:40.04Z</time></trkpt><trkpt lat="42.106024" lon="13.678514"><ele>1106.0</ele><time>2026-05-01T08:14:41.048Z</time></trkpt><trkpt lat="42.1059918" lon="13.678628"><ele>1105.5</ele><time>2026-05-01T08:14:42.038Z</time></trkpt><trkpt lat="42.1059686" lon="13.6787363"><ele>1105.0</ele><time>2026-05-01T08:14:43.05Z</time></trkpt><trkpt lat="42.1059419" lon="13.6788507"><ele>1105.0</ele><time>2026-05-01T08:14:44.045Z</time></trkpt><trkpt lat="42.1059117" lon="13.6789661"><ele>1105.0</ele><time>2026-05-01T08:14:45.041Z</time></trkpt><trkpt lat="42.105878" lon="13.6790757"><ele>1105.0</ele><time>2026-05-01T08:14:46.048Z</time></trkpt><trkpt lat="42.1058325" lon="13.6791745"><ele>1105.0</ele><time>2026-05-01T08:14:47.034Z</time></trkpt><trkpt lat="42.1057821" lon="13.6792551"><ele>1105.0</ele><time>2026-05-01T08:14:48.052Z</time></trkpt><trkpt lat="42.1057352" lon="13.6793321"><ele>1105.0</ele><time>2026-05-01T08:14:49.054Z</time></trkpt><trkpt lat="42.1056801" lon="13.679419"><ele>1104.5</ele><time>2026-05-01T08:14:50.046Z</time></trkpt><trkpt lat="42.1056323" lon="13.6795038"><ele>1104.0</ele><time>2026-05-01T08:14:51.044Z</time></trkpt><trkpt lat="42.1055876" lon="13.6795889"><ele>1103.5</ele><time>2026-05-01T08:14:52.053Z</time></trkpt><trkpt lat="42.1055607" lon="13.6796717"><ele>1103.0</ele><time>2026-05-01T08:14:53.052Z</time></trkpt><trkpt lat="42.1055721" lon="13.6798419"><ele>1102.5</ele><time>2026-05-01T08:14:55.051Z</time></trkpt><trkpt lat="42.1055945" lon="13.6799402"><ele>1102.0</ele><time>2026-05-01T08:14:56.042Z</time></trkpt><trkpt lat="42.1056209" lon="13.6800549"><ele>1102.0</ele><time>2026-05-01T08:14:57.047Z</time></trkpt><trkpt lat="42.1056388" lon="13.6801808"><ele>1102.0</ele><time>2026-05-01T08:14:58.047Z</time></trkpt><trkpt lat="42.1056303" lon="13.6803141"><ele>1102.0</ele><time>2026-05-01T08:14:59.062Z</time></trkpt><trkpt lat="42.1056169" lon="13.6804228"><ele>1102.0</ele><time>2026-05-01T08:15:00.038Z</time></trkpt><trkpt lat="42.1055982" lon="13.68052"><ele>1102.0</ele><time>2026-05-01T08:15:01.045Z</time></trkpt><trkpt lat="42.1055832" lon="13.6806241"><ele>1102.0</ele><time>2026-05-01T08:15:02.039Z</time></trkpt><trkpt lat="42.1055748" lon="13.6807343"><ele>1099.8333333333333</ele><time>2026-05-01T08:15:03.052Z</time></trkpt><trkpt lat="42.1055711" lon="13.6808523"><ele>1097.6666666666665</ele><time>2026-05-01T08:15:04.041Z</time></trkpt><trkpt lat="42.105567" lon="13.6809732"><ele>1095.5</ele><time>2026-05-01T08:15:05.072Z</time></trkpt><trkpt lat="42.1055695" lon="13.681094"><ele>1093.3333333333333</ele><time>2026-05-01T08:15:06.046Z</time></trkpt><trkpt lat="42.105575" lon="13.6812051"><ele>1091.1666666666667</ele><time>2026-05-01T08:15:07.048Z</time></trkpt><trkpt lat="42.1055785" lon="13.681317"><ele>1089.0</ele><time>2026-05-01T08:15:08.046Z</time></trkpt><trkpt lat="42.1055938" lon="13.6814271"><ele>1086.1666666666667</ele><time>2026-05-01T08:15:09.053Z</time></trkpt><trkpt lat="42.1056064" lon="13.6815329"><ele>1083.3333333333333</ele><time>2026-05-01T08:15:10.044Z</time></trkpt><trkpt lat="42.1056189" lon="13.6816702"><ele>1080.5</ele><time>2026-05-01T08:15:12.045Z</time></trkpt><trkpt lat="42.1056293" lon="13.6817567"><ele>1077.6666666666665</ele><time>2026-05-01T08:16:55.056Z</time></trkpt><trkpt lat="42.1056138" lon="13.6818446"><ele>1074.8333333333333</ele><time>2026-05-01T08:16:57.049Z</time></trkpt><trkpt lat="42.1055772" lon="13.6819838"><ele>1072.0</ele><time>2026-05-01T08:16:59.056Z</time></trkpt><trkpt lat="42.1055516" lon="13.6821612"><ele>1070.0</ele><time>2026-05-01T08:17:01.043Z</time></trkpt><trkpt lat="42.1055331" lon="13.6822598"><ele>1068.0</ele><time>2026-05-01T08:17:02.044Z</time></trkpt><trkpt lat="42.1055199" lon="13.6823626"><ele>1066.0</ele><time>2026-05-01T08:17:03.044Z</time></trkpt><trkpt lat="42.1055122" lon="13.6824656"><ele>1064.0</ele><time>2026-05-01T08:17:04.049Z</time></trkpt><trkpt lat="42.1055089" lon="13.6825679"><ele>1062.0</ele><time>2026-05-01T08:17:05.063Z</time></trkpt><trkpt lat="42.1055009" lon="13.682668"><ele>1060.0</ele><time>2026-05-01T08:17:06.053Z</time></trkpt><trkpt lat="42.1054931" lon="13.6827793"><ele>1059.8333333333333</ele><time>2026-05-01T08:17:07.051Z</time></trkpt><trkpt lat="42.1054802" lon="13.6828972"><ele>1059.6666666666665</ele><time>2026-05-01T08:17:08.052Z</time></trkpt><trkpt lat="42.1054657" lon="13.683018"><ele>1059.5</ele><time>2026-05-01T08:17:09.066Z</time></trkpt><trkpt lat="42.1054515" lon="13.6831336"><ele>1059.3333333333333</ele><time>2026-05-01T08:17:10.045Z</time></trkpt><trkpt lat="42.1054374" lon="13.6832496"><ele>1059.1666666666667</ele><time>2026-05-01T08:17:11.042Z</time></trkpt><trkpt lat="42.1054255" lon="13.6833712"><ele>1059.0</ele><time>2026-05-01T08:17:12.046Z</time></trkpt><trkpt lat="42.1054128" lon="13.6834874"><ele>1057.8333333333333</ele><time>2026-05-01T08:17:13.063Z</time></trkpt><trkpt lat="42.1054013" lon="13.6835982"><ele>1056.6666666666667</ele><time>2026-05-01T08:17:14.053Z</time></trkpt><trkpt lat="42.1053947" lon="13.6837132"><ele>1055.5</ele><time>2026-05-01T08:17:15.071Z</time></trkpt><trkpt lat="42.1053919" lon="13.6838148"><ele>1054.3333333333335</ele><time>2026-05-01T08:17:16.055Z</time></trkpt><trkpt lat="42.1053952" lon="13.6839126"><ele>1053.1666666666667</ele><time>2026-05-01T08:17:17.048Z</time></trkpt><trkpt lat="42.1054204" lon="13.6840066"><ele>1052.0</ele><time>2026-05-01T08:17:18.047Z</time></trkpt><trkpt lat="42.105454" lon="13.6840884"><ele>1052.0</ele><time>2026-05-01T08:17:19.041Z</time></trkpt><trkpt lat="42.1055087" lon="13.6841511"><ele>1052.0</ele><time>2026-05-01T08:17:20.062Z</time></trkpt><trkpt lat="42.1055847" lon="13.684216"><ele>1052.0</ele><time>2026-05-01T08:17:21.067Z</time></trkpt><trkpt lat="42.1056828" lon="13.684282"><ele>1052.0</ele><time>2026-05-01T08:17:22.05Z</time></trkpt><trkpt lat="42.1057804" lon="13.6843267"><ele>1052.0</ele><time>2026-05-01T08:17:23.048Z</time></trkpt><trkpt lat="42.1058731" lon="13.6843686"><ele>1054.5</ele><time>2026-05-01T08:17:24.053Z</time></trkpt><trkpt lat="42.1059611" lon="13.684412"><ele>1057.0</ele><time>2026-05-01T08:17:25.046Z</time></trkpt><trkpt lat="42.1060361" lon="13.6844603"><ele>1059.5</ele><time>2026-05-01T08:17:26.047Z</time></trkpt><trkpt lat="42.1060965" lon="13.6845222"><ele>1062.0</ele><time>2026-05-01T08:17:27.046Z</time></trkpt><trkpt lat="42.1061384" lon="13.6846023"><ele>1064.5</ele><time>2026-05-01T08:17:28.039Z</time></trkpt><trkpt lat="42.1061592" lon="13.6846926"><ele>1067.0</ele><time>2026-05-01T08:17:29.051Z</time></trkpt><trkpt lat="42.1061565" lon="13.6847872"><ele>1067.0</ele><time>2026-05-01T08:17:30.048Z</time></trkpt><trkpt lat="42.1061324" lon="13.6848885"><ele>1067.0</ele><time>2026-05-01T08:17:31.048Z</time></trkpt><trkpt lat="42.106089" lon="13.6849806"><ele>1067.0</ele><time>2026-05-01T08:17:32.055Z</time></trkpt><trkpt lat="42.1060317" lon="13.6850591"><ele>1067.0</ele><time>2026-05-01T08:17:33.049Z</time></trkpt><trkpt lat="42.1059672" lon="13.6851394"><ele>1067.0</ele><time>2026-05-01T08:17:34.061Z</time></trkpt><trkpt lat="42.105909" lon="13.6852206"><ele>1067.0</ele><time>2026-05-01T08:17:35.061Z</time></trkpt><trkpt lat="42.1058737" lon="13.685306"><ele>1065.8</ele><time>2026-05-01T08:17:36.039Z</time></trkpt><trkpt lat="42.1058533" lon="13.6854769"><ele>1064.6</ele><time>2026-05-01T08:17:38.056Z</time></trkpt><trkpt lat="42.1058807" lon="13.6855724"><ele>1063.3999999999999</ele><time>2026-05-01T08:17:39.078Z</time></trkpt><trkpt lat="42.1059192" lon="13.6856706"><ele>1062.2</ele><time>2026-05-01T08:17:40.047Z</time></trkpt><trkpt lat="42.1059832" lon="13.6857536"><ele>1061.0</ele><time>2026-05-01T08:17:41.051Z</time></trkpt><trkpt lat="42.106063" lon="13.6858282"><ele>1061.0</ele><time>2026-05-01T08:17:42.043Z</time></trkpt><trkpt lat="42.1061537" lon="13.6859009"><ele>1061.0</ele><time>2026-05-01T08:17:43.049Z</time></trkpt><trkpt lat="42.1062456" lon="13.6859869"><ele>1061.0</ele><time>2026-05-01T08:17:44.053Z</time></trkpt><trkpt lat="42.1063386" lon="13.6860865"><ele>1061.0</ele><time>2026-05-01T08:17:45.054Z</time></trkpt><trkpt lat="42.1064309" lon="13.6862043"><ele>1061.6</ele><time>2026-05-01T08:17:46.064Z</time></trkpt><trkpt lat="42.1065177" lon="13.6863085"><ele>1062.1999999999998</ele><time>2026-05-01T08:17:47.053Z</time></trkpt><trkpt lat="42.1065992" lon="13.6864001"><ele>1062.8000000000002</ele><time>2026-05-01T08:17:48.046Z</time></trkpt><trkpt lat="42.1066779" lon="13.6864798"><ele>1063.4</ele><time>2026-05-01T08:17:49.055Z</time></trkpt><trkpt lat="42.1067638" lon="13.6865628"><ele>1064.0</ele><time>2026-05-01T08:17:50.05Z</time></trkpt><trkpt lat="42.1068518" lon="13.6866358"><ele>1064.0</ele><time>2026-05-01T08:17:51.059Z</time></trkpt><trkpt lat="42.1069513" lon="13.686698"><ele>1064.0</ele><time>2026-05-01T08:17:52.056Z</time></trkpt><trkpt lat="42.1070522" lon="13.6867586"><ele>1064.0</ele><time>2026-05-01T08:17:53.063Z</time></trkpt><trkpt lat="42.107159" lon="13.686807"><ele>1064.0</ele><time>2026-05-01T08:17:54.048Z</time></trkpt><trkpt lat="42.1072692" lon="13.686845"><ele>1064.0</ele><time>2026-05-01T08:17:55.056Z</time></trkpt><trkpt lat="42.1073859" lon="13.6868732"><ele>1065.6000000000001</ele><time>2026-05-01T08:17:56.042Z</time></trkpt><trkpt lat="42.1075046" lon="13.6869066"><ele>1067.2</ele><time>2026-05-01T08:17:57.058Z</time></trkpt><trkpt lat="42.1076185" lon="13.6869254"><ele>1068.8000000000002</ele><time>2026-05-01T08:17:58.05Z</time></trkpt><trkpt lat="42.1077213" lon="13.6869355"><ele>1070.4</ele><time>2026-05-01T08:17:59.055Z</time></trkpt><trkpt lat="42.1078222" lon="13.6869348"><ele>1072.0</ele><time>2026-05-01T08:18:00.047Z</time></trkpt><trkpt lat="42.1079331" lon="13.6869241"><ele>1072.0</ele><time>2026-05-01T08:18:01.056Z</time></trkpt><trkpt lat="42.1080409" lon="13.6868904"><ele>1072.0</ele><time>2026-05-01T08:18:02.046Z</time></trkpt><trkpt lat="42.1081411" lon="13.6868463"><ele>1072.0</ele><time>2026-05-01T08:18:03.064Z</time></trkpt><trkpt lat="42.1082292" lon="13.6867975"><ele>1072.0</ele><time>2026-05-01T08:18:04.046Z</time></trkpt><trkpt lat="42.1083079" lon="13.6867525"><ele>1072.0</ele><time>2026-05-01T08:18:05.055Z</time></trkpt><trkpt lat="42.1083774" lon="13.6867174"><ele>1071.6666666666665</ele><time>2026-05-01T08:18:06.066Z</time></trkpt><trkpt lat="42.1084424" lon="13.6866846"><ele>1071.3333333333333</ele><time>2026-05-01T08:18:07.064Z</time></trkpt><trkpt lat="42.1085088" lon="13.6866559"><ele>1071.0</ele><time>2026-05-01T08:18:08.063Z</time></trkpt><trkpt lat="42.1085892" lon="13.6866291"><ele>1070.6666666666667</ele><time>2026-05-01T08:18:09.057Z</time></trkpt><trkpt lat="42.1086867" lon="13.6865988"><ele>1070.3333333333335</ele><time>2026-05-01T08:18:10.052Z</time></trkpt><trkpt lat="42.1087894" lon="13.6865612"><ele>1070.0</ele><time>2026-05-01T08:18:11.049Z</time></trkpt><trkpt lat="42.1089091" lon="13.6865321"><ele>1070.0</ele><time>2026-05-01T08:18:12.062Z</time></trkpt><trkpt lat="42.1090464" lon="13.6865063"><ele>1070.0</ele><time>2026-05-01T08:18:13.078Z</time></trkpt><trkpt lat="42.1091878" lon="13.686489"><ele>1070.0</ele><time>2026-05-01T08:18:14.046Z</time></trkpt><trkpt lat="42.1093221" lon="13.6864821"><ele>1070.0</ele><time>2026-05-01T08:18:15.038Z</time></trkpt><trkpt lat="42.1094466" lon="13.6864733"><ele>1067.0</ele><time>2026-05-01T08:18:16.06Z</time></trkpt><trkpt lat="42.1095713" lon="13.6864596"><ele>1064.0</ele><time>2026-05-01T08:18:17.059Z</time></trkpt><trkpt lat="42.1096877" lon="13.6864332"><ele>1061.0</ele><time>2026-05-01T08:18:18.049Z</time></trkpt><trkpt lat="42.1098006" lon="13.6863932"><ele>1058.0</ele><time>2026-05-01T08:18:19.051Z</time></trkpt><trkpt lat="42.1099124" lon="13.6863368"><ele>1058.0</ele><time>2026-05-01T08:18:20.048Z</time></trkpt><trkpt lat="42.1100189" lon="13.6862727"><ele>1058.0</ele><time>2026-05-01T08:18:21.051Z</time></trkpt><trkpt lat="42.1101119" lon="13.6862266"><ele>1058.0</ele><time>2026-05-01T08:18:22.05Z</time></trkpt><trkpt lat="42.1101964" lon="13.6861971"><ele>1058.0</ele><time>2026-05-01T08:18:23.054Z</time></trkpt><trkpt lat="42.1102688" lon="13.6861821"><ele>1058.0</ele><time>2026-05-01T08:18:24.05Z</time></trkpt><trkpt lat="42.1103331" lon="13.6861925"><ele>1058.0</ele><time>2026-05-01T08:18:25.055Z</time></trkpt><trkpt lat="42.1103912" lon="13.6862263"><ele>1058.0</ele><time>2026-05-01T08:18:26.065Z</time></trkpt><trkpt lat="42.1104233" lon="13.6863751"><ele>1058.0</ele><time>2026-05-01T08:18:28.065Z</time></trkpt><trkpt lat="42.1103997" lon="13.6864673"><ele>1058.0</ele><time>2026-05-01T08:18:29.048Z</time></trkpt><trkpt lat="42.1103551" lon="13.6865656"><ele>1058.0</ele><time>2026-05-01T08:18:30.053Z</time></trkpt><trkpt lat="42.1102973" lon="13.6866806"><ele>1058.0</ele><time>2026-05-01T08:18:31.061Z</time></trkpt><trkpt lat="42.1102387" lon="13.6868143"><ele>1057.0</ele><time>2026-05-01T08:18:32.048Z</time></trkpt><trkpt lat="42.1101791" lon="13.6869484"><ele>1056.0</ele><time>2026-05-01T08:18:33.052Z</time></trkpt><trkpt lat="42.1101187" lon="13.6870767"><ele>1055.0</ele><time>2026-05-01T08:18:34.048Z</time></trkpt><trkpt lat="42.1100598" lon="13.6872068"><ele>1054.0</ele><time>2026-05-01T08:18:35.059Z</time></trkpt><trkpt lat="42.1099961" lon="13.6873457"><ele>1054.0</ele><time>2026-05-01T08:18:36.046Z</time></trkpt><trkpt lat="42.1099313" lon="13.6874877"><ele>1054.0</ele><time>2026-05-01T08:18:37.061Z</time></trkpt><trkpt lat="42.1098623" lon="13.6876141"><ele>1054.0</ele><time>2026-05-01T08:18:38.05Z</time></trkpt><trkpt lat="42.1097942" lon="13.6877223"><ele>1054.0</ele><time>2026-05-01T08:18:39.045Z</time></trkpt><trkpt lat="42.1097295" lon="13.6878314"><ele>1054.0</ele><time>2026-05-01T08:18:40.055Z</time></trkpt><trkpt lat="42.1096762" lon="13.6879405"><ele>1048.4</ele><time>2026-05-01T08:18:41.043Z</time></trkpt><trkpt lat="42.1096304" lon="13.6880488"><ele>1042.8000000000002</ele><time>2026-05-01T08:18:42.047Z</time></trkpt><trkpt lat="42.1095915" lon="13.6881644"><ele>1037.1999999999998</ele><time>2026-05-01T08:18:43.054Z</time></trkpt><trkpt lat="42.109568" lon="13.6882848"><ele>1031.6</ele><time>2026-05-01T08:18:44.052Z</time></trkpt><trkpt lat="42.1095595" lon="13.6884053"><ele>1026.0</ele><time>2026-05-01T08:18:45.07Z</time></trkpt><trkpt lat="42.1095684" lon="13.688515"><ele>1025.0</ele><time>2026-05-01T08:18:46.063Z</time></trkpt><trkpt lat="42.1096025" lon="13.6886122"><ele>1024.0</ele><time>2026-05-01T08:18:47.056Z</time></trkpt><trkpt lat="42.1096532" lon="13.6886944"><ele>1023.0</ele><time>2026-05-01T08:18:48.051Z</time></trkpt><trkpt lat="42.1097203" lon="13.6887741"><ele>1022.0</ele><time>2026-05-01T08:18:49.047Z</time></trkpt><trkpt lat="42.1097873" lon="13.6888594"><ele>1021.0</ele><time>2026-05-01T08:18:50.044Z</time></trkpt><trkpt lat="42.1098457" lon="13.6889565"><ele>1020.0</ele><time>2026-05-01T08:18:51.058Z</time></trkpt><trkpt lat="42.1098761" lon="13.6890585"><ele>1020.0</ele><time>2026-05-01T08:18:52.057Z</time></trkpt><trkpt lat="42.1098854" lon="13.6891719"><ele>1020.0</ele><time>2026-05-01T08:18:53.05Z</time></trkpt><trkpt lat="42.1098771" lon="13.68929"><ele>1020.0</ele><time>2026-05-01T08:18:54.054Z</time></trkpt><trkpt lat="42.109847" lon="13.6893917"><ele>1020.0</ele><time>2026-05-01T08:18:55.04Z</time></trkpt><trkpt lat="42.1098063" lon="13.6894901"><ele>1020.0</ele><time>2026-05-01T08:18:56.095Z</time></trkpt><trkpt lat="42.1097578" lon="13.6895907"><ele>1020.0</ele><time>2026-05-01T08:18:57.055Z</time></trkpt><trkpt lat="42.1097214" lon="13.6896915"><ele>1020.2</ele><time>2026-05-01T08:18:58.065Z</time></trkpt><trkpt lat="42.1096952" lon="13.6897986"><ele>1020.4</ele><time>2026-05-01T08:18:59.048Z</time></trkpt><trkpt lat="42.1096743" lon="13.6899174"><ele>1020.5999999999999</ele><time>2026-05-01T08:19:00.049Z</time></trkpt><trkpt lat="42.1096562" lon="13.6900593"><ele>1020.8</ele><time>2026-05-01T08:19:01.065Z</time></trkpt><trkpt lat="42.1096428" lon="13.6902111"><ele>1021.0</ele><time>2026-05-01T08:19:02.055Z</time></trkpt><trkpt lat="42.1096306" lon="13.6903688"><ele>1019.75</ele><time>2026-05-01T08:19:03.077Z</time></trkpt><trkpt lat="42.1096205" lon="13.6905202"><ele>1018.5</ele><time>2026-05-01T08:19:04.048Z</time></trkpt><trkpt lat="42.109607" lon="13.6906785"><ele>1017.25</ele><time>2026-05-01T08:19:05.057Z</time></trkpt><trkpt lat="42.1095919" lon="13.6908545"><ele>1016.0</ele><time>2026-05-01T08:19:06.054Z</time></trkpt><trkpt lat="42.1095685" lon="13.6910262"><ele>1014.5</ele><time>2026-05-01T08:19:07.054Z</time></trkpt><trkpt lat="42.109548" lon="13.6911989"><ele>1013.0</ele><time>2026-05-01T08:19:08.056Z</time></trkpt><trkpt lat="42.109523" lon="13.6913637"><ele>1011.5</ele><time>2026-05-01T08:19:09.057Z</time></trkpt><trkpt lat="42.1094976" lon="13.6915259"><ele>1010.0</ele><time>2026-05-01T08:19:10.086Z</time></trkpt><trkpt lat="42.1094727" lon="13.6916887"><ele>1010.0</ele><time>2026-05-01T08:19:11.051Z</time></trkpt><trkpt lat="42.1094426" lon="13.691845"><ele>1010.0</ele><time>2026-05-01T08:19:12.043Z</time></trkpt><trkpt lat="42.109416" lon="13.6920144"><ele>1010.0</ele><time>2026-05-01T08:19:13.055Z</time></trkpt><trkpt lat="42.1093872" lon="13.692201"><ele>1010.0</ele><time>2026-05-01T08:19:14.051Z</time></trkpt><trkpt lat="42.1093589" lon="13.6923853"><ele>1009.0</ele><time>2026-05-01T08:19:15.052Z</time></trkpt><trkpt lat="42.1093273" lon="13.6925645"><ele>1008.0</ele><time>2026-05-01T08:19:16.052Z</time></trkpt><trkpt lat="42.109305" lon="13.6927484"><ele>1007.0</ele><time>2026-05-01T08:19:17.05Z</time></trkpt><trkpt lat="42.109285" lon="13.6929259"><ele>1006.0</ele><time>2026-05-01T08:19:18.045Z</time></trkpt><trkpt lat="42.1092631" lon="13.6931006"><ele>1005.0</ele><time>2026-05-01T08:19:19.053Z</time></trkpt><trkpt lat="42.109241" lon="13.6932745"><ele>1004.0</ele><time>2026-05-01T08:19:20.072Z</time></trkpt><trkpt lat="42.1092174" lon="13.6934404"><ele>1003.0</ele><time>2026-05-01T08:19:21.05Z</time></trkpt><trkpt lat="42.1091906" lon="13.693602"><ele>1002.0</ele><time>2026-05-01T08:19:22.05Z</time></trkpt><trkpt lat="42.1091624" lon="13.6937674"><ele>1001.5</ele><time>2026-05-01T08:19:23.049Z</time></trkpt><trkpt lat="42.1091338" lon="13.6939262"><ele>1001.0</ele><time>2026-05-01T08:19:24.05Z</time></trkpt><trkpt lat="42.109099" lon="13.6940795"><ele>1000.5</ele><time>2026-05-01T08:19:25.044Z</time></trkpt><trkpt lat="42.1090607" lon="13.6942361"><ele>1000.0</ele><time>2026-05-01T08:19:26.062Z</time></trkpt><trkpt lat="42.1090132" lon="13.6944003"><ele>992.5</ele><time>2026-05-01T08:19:27.056Z</time></trkpt><trkpt lat="42.1089638" lon="13.694575"><ele>985.0</ele><time>2026-05-01T08:19:28.052Z</time></trkpt><trkpt lat="42.1089131" lon="13.6947593"><ele>977.5</ele><time>2026-05-01T08:19:29.052Z</time></trkpt><trkpt lat="42.1088616" lon="13.6949488"><ele>970.0</ele><time>2026-05-01T08:19:30.053Z</time></trkpt><trkpt lat="42.1088078" lon="13.6951395"><ele>970.25</ele><time>2026-05-01T08:19:31.065Z</time></trkpt><trkpt lat="42.1087555" lon="13.6953221"><ele>970.5</ele><time>2026-05-01T08:19:32.057Z</time></trkpt><trkpt lat="42.1087019" lon="13.6954921"><ele>970.75</ele><time>2026-05-01T08:19:33.071Z</time></trkpt><trkpt lat="42.1086541" lon="13.6956594"><ele>971.0</ele><time>2026-05-01T08:19:34.061Z</time></trkpt><trkpt lat="42.1085999" lon="13.6958115"><ele>971.0</ele><time>2026-05-01T08:19:35.049Z</time></trkpt><trkpt lat="42.1085439" lon="13.6959655"><ele>971.0</ele><time>2026-05-01T08:19:36.049Z</time></trkpt><trkpt lat="42.1084826" lon="13.6961217"><ele>971.0</ele><time>2026-05-01T08:19:37.058Z</time></trkpt><trkpt lat="42.1084167" lon="13.6962868"><ele>971.0</ele><time>2026-05-01T08:19:38.058Z</time></trkpt><trkpt lat="42.1083457" lon="13.6964504"><ele>971.25</ele><time>2026-05-01T08:19:39.051Z</time></trkpt><trkpt lat="42.1082731" lon="13.6966026"><ele>971.5</ele><time>2026-05-01T08:19:40.054Z</time></trkpt><trkpt lat="42.1082124" lon="13.6967493"><ele>971.75</ele><time>2026-05-01T08:19:41.05Z</time></trkpt><trkpt lat="42.1081602" lon="13.6968827"><ele>972.0</ele><time>2026-05-01T08:19:42.057Z</time></trkpt><trkpt lat="42.1081207" lon="13.6970109"><ele>967.8</ele><time>2026-05-01T08:19:43.065Z</time></trkpt><trkpt lat="42.1080898" lon="13.6971276"><ele>963.6</ele><time>2026-05-01T08:19:44.056Z</time></trkpt><trkpt lat="42.1080692" lon="13.6972415"><ele>959.3999999999999</ele><time>2026-05-01T08:19:45.058Z</time></trkpt><trkpt lat="42.1080557" lon="13.6973638"><ele>955.1999999999999</ele><time>2026-05-01T08:19:46.056Z</time></trkpt><trkpt lat="42.1080539" lon="13.6974891"><ele>951.0</ele><time>2026-05-01T08:19:47.051Z</time></trkpt><trkpt lat="42.1080748" lon="13.6976127"><ele>951.0</ele><time>2026-05-01T08:19:48.057Z</time></trkpt><trkpt lat="42.1081161" lon="13.6977325"><ele>950.9999999999999</ele><time>2026-05-01T08:19:49.045Z</time></trkpt><trkpt lat="42.1081666" lon="13.6978486"><ele>950.9999999999999</ele><time>2026-05-01T08:19:50.054Z</time></trkpt><trkpt lat="42.1082221" lon="13.6979621"><ele>951.0</ele><time>2026-05-01T08:19:51.049Z</time></trkpt><trkpt lat="42.1082642" lon="13.6980839"><ele>951.0</ele><time>2026-05-01T08:19:52.058Z</time></trkpt><trkpt lat="42.1082983" lon="13.6981989"><ele>952.0</ele><time>2026-05-01T08:19:53.064Z</time></trkpt><trkpt lat="42.1083282" lon="13.6983102"><ele>953.0</ele><time>2026-05-01T08:19:54.056Z</time></trkpt><trkpt lat="42.1083591" lon="13.6984094"><ele>954.0</ele><time>2026-05-01T08:19:55.055Z</time></trkpt><trkpt lat="42.1084001" lon="13.698495"><ele>955.0</ele><time>2026-05-01T08:19:56.056Z</time></trkpt><trkpt lat="42.1084545" lon="13.6985586"><ele>956.0</ele><time>2026-05-01T08:19:57.057Z</time></trkpt><trkpt lat="42.1085215" lon="13.698592"><ele>957.0</ele><time>2026-05-01T08:19:58.079Z</time></trkpt><trkpt lat="42.108605" lon="13.6986104"><ele>957.0</ele><time>2026-05-01T08:19:59.052Z</time></trkpt><trkpt lat="42.1086985" lon="13.6985972"><ele>957.0</ele><time>2026-05-01T08:20:00.052Z</time></trkpt><trkpt lat="42.1088001" lon="13.6985699"><ele>957.0</ele><time>2026-05-01T08:20:01.043Z</time></trkpt><trkpt lat="42.1089065" lon="13.6985454"><ele>957.0</ele><time>2026-05-01T08:20:02.05Z</time></trkpt><trkpt lat="42.1090152" lon="13.6985191"><ele>957.0</ele><time>2026-05-01T08:20:03.057Z</time></trkpt><trkpt lat="42.1091232" lon="13.6984901"><ele>957.2</ele><time>2026-05-01T08:20:04.053Z</time></trkpt><trkpt lat="42.1092291" lon="13.6984619"><ele>957.4000000000001</ele><time>2026-05-01T08:20:05.062Z</time></trkpt><trkpt lat="42.1093338" lon="13.698426"><ele>957.5999999999999</ele><time>2026-05-01T08:20:06.049Z</time></trkpt><trkpt lat="42.1094411" lon="13.6983839"><ele>957.8</ele><time>2026-05-01T08:20:07.065Z</time></trkpt><trkpt lat="42.1095458" lon="13.6983366"><ele>958.0</ele><time>2026-05-01T08:20:08.058Z</time></trkpt><trkpt lat="42.1096483" lon="13.6982846"><ele>958.0</ele><time>2026-05-01T08:20:09.045Z</time></trkpt><trkpt lat="42.1097502" lon="13.6982315"><ele>958.0</ele><time>2026-05-01T08:20:10.05Z</time></trkpt><trkpt lat="42.1098531" lon="13.6981802"><ele>958.0</ele><time>2026-05-01T08:20:11.051Z</time></trkpt><trkpt lat="42.1099529" lon="13.6981336"><ele>958.0</ele><time>2026-05-01T08:20:12.06Z</time></trkpt><trkpt lat="42.1100533" lon="13.6980901"><ele>958.0</ele><time>2026-05-01T08:20:13.051Z</time></trkpt><trkpt lat="42.1101536" lon="13.6980427"><ele>959.5999999999999</ele><time>2026-05-01T08:20:14.067Z</time></trkpt><trkpt lat="42.1102533" lon="13.6979939"><ele>961.1999999999999</ele><time>2026-05-01T08:20:15.056Z</time></trkpt><trkpt lat="42.1103489" lon="13.6979406"><ele>962.8</ele><time>2026-05-01T08:20:16.042Z</time></trkpt><trkpt lat="42.1104415" lon="13.6978828"><ele>964.4</ele><time>2026-05-01T08:20:17.052Z</time></trkpt><trkpt lat="42.1105437" lon="13.6978207"><ele>966.0</ele><time>2026-05-01T08:20:18.047Z</time></trkpt><trkpt lat="42.1106444" lon="13.6977445"><ele>960.4</ele><time>2026-05-01T08:20:19.055Z</time></trkpt><trkpt lat="42.1107416" lon="13.6976679"><ele>954.8</ele><time>2026-05-01T08:20:20.05Z</time></trkpt><trkpt lat="42.1108387" lon="13.6975986"><ele>949.1999999999999</ele><time>2026-05-01T08:20:21.066Z</time></trkpt><trkpt lat="42.1109383" lon="13.6975379"><ele>943.5999999999999</ele><time>2026-05-01T08:20:22.043Z</time></trkpt><trkpt lat="42.1110418" lon="13.6974851"><ele>938.0</ele><time>2026-05-01T08:20:23.045Z</time></trkpt><trkpt lat="42.1111407" lon="13.6974369"><ele>938.0</ele><time>2026-05-01T08:20:24.052Z</time></trkpt><trkpt lat="42.1112424" lon="13.697389"><ele>938.0</ele><time>2026-05-01T08:20:25.045Z</time></trkpt><trkpt lat="42.1113521" lon="13.6973509"><ele>938.0</ele><time>2026-05-01T08:20:26.04Z</time></trkpt><trkpt lat="42.1114642" lon="13.69731"><ele>938.0</ele><time>2026-05-01T08:20:27.054Z</time></trkpt><trkpt lat="42.1115797" lon="13.6972633"><ele>930.5</ele><time>2026-05-01T08:20:28.044Z</time></trkpt><trkpt lat="42.1116931" lon="13.6972017"><ele>923.0</ele><time>2026-05-01T08:20:29.058Z</time></trkpt><trkpt lat="42.1118053" lon="13.6971317"><ele>915.5</ele><time>2026-05-01T08:20:30.049Z</time></trkpt><trkpt lat="42.111919" lon="13.6970615"><ele>908.0</ele><time>2026-05-01T08:20:31.04Z</time></trkpt><trkpt lat="42.1120334" lon="13.6969922"><ele>908.0</ele><time>2026-05-01T08:20:32.035Z</time></trkpt><trkpt lat="42.1121415" lon="13.6969221"><ele>908.0</ele><time>2026-05-01T08:20:33.04Z</time></trkpt><trkpt lat="42.1122495" lon="13.6968576"><ele>908.0</ele><time>2026-05-01T08:20:34.055Z</time></trkpt><trkpt lat="42.1123513" lon="13.6967934"><ele>908.0</ele><time>2026-05-01T08:20:35.045Z</time></trkpt><trkpt lat="42.112448" lon="13.6967403"><ele>910.0</ele><time>2026-05-01T08:20:36.092Z</time></trkpt><trkpt lat="42.1125424" lon="13.6966884"><ele>912.0</ele><time>2026-05-01T08:20:37.046Z</time></trkpt><trkpt lat="42.1126346" lon="13.6966286"><ele>914.0</ele><time>2026-05-01T08:20:38.052Z</time></trkpt><trkpt lat="42.1127239" lon="13.6965692"><ele>916.0</ele><time>2026-05-01T08:20:39.053Z</time></trkpt><trkpt lat="42.1128151" lon="13.6965151"><ele>918.0</ele><time>2026-05-01T08:20:40.041Z</time></trkpt><trkpt lat="42.1129084" lon="13.6964668"><ele>918.0</ele><time>2026-05-01T08:20:41.045Z</time></trkpt><trkpt lat="42.1130077" lon="13.69642"><ele>918.0</ele><time>2026-05-01T08:20:42.043Z</time></trkpt><trkpt lat="42.1131091" lon="13.6963795"><ele>918.0</ele><time>2026-05-01T08:20:43.035Z</time></trkpt><trkpt lat="42.1132148" lon="13.6963462"><ele>918.0</ele><time>2026-05-01T08:20:44.053Z</time></trkpt><trkpt lat="42.1133218" lon="13.6963148"><ele>918.0</ele><time>2026-05-01T08:20:45.047Z</time></trkpt><trkpt lat="42.1134339" lon="13.6962921"><ele>913.4</ele><time>2026-05-01T08:20:46.05Z</time></trkpt><trkpt lat="42.1135408" lon="13.6962618"><ele>908.8</ele><time>2026-05-01T08:20:47.046Z</time></trkpt><trkpt lat="42.1136473" lon="13.6962316"><ele>904.2</ele><time>2026-05-01T08:20:48.043Z</time></trkpt><trkpt lat="42.1137519" lon="13.6961962"><ele>899.6</ele><time>2026-05-01T08:20:49.054Z</time></trkpt><trkpt lat="42.1138581" lon="13.6961585"><ele>895.0</ele><time>2026-05-01T08:20:50.05Z</time></trkpt><trkpt lat="42.1139671" lon="13.696126"><ele>890.75</ele><time>2026-05-01T08:20:51.048Z</time></trkpt><trkpt lat="42.1140837" lon="13.6960947"><ele>886.5</ele><time>2026-05-01T08:20:52.041Z</time></trkpt><trkpt lat="42.1142076" lon="13.6960698"><ele>882.25</ele><time>2026-05-01T08:20:53.051Z</time></trkpt><trkpt lat="42.1143368" lon="13.6960339"><ele>878.0</ele><time>2026-05-01T08:20:54.047Z</time></trkpt><trkpt lat="42.1144681" lon="13.6960006"><ele>884.5</ele><time>2026-05-01T08:20:55.054Z</time></trkpt><trkpt lat="42.1145999" lon="13.6959768"><ele>891.0</ele><time>2026-05-01T08:20:56.043Z</time></trkpt><trkpt lat="42.1147287" lon="13.6959445"><ele>897.5</ele><time>2026-05-01T08:20:57.054Z</time></trkpt><trkpt lat="42.1148563" lon="13.6959154"><ele>904.0</ele><time>2026-05-01T08:20:58.043Z</time></trkpt><trkpt lat="42.1149827" lon="13.6958865"><ele>904.0</ele><time>2026-05-01T08:20:59.046Z</time></trkpt><trkpt lat="42.1151006" lon="13.6958601"><ele>904.0</ele><time>2026-05-01T08:21:00.058Z</time></trkpt><trkpt lat="42.1152198" lon="13.6958312"><ele>904.0</ele><time>2026-05-01T08:21:01.038Z</time></trkpt><trkpt lat="42.1153418" lon="13.6958016"><ele>904.0</ele><time>2026-05-01T08:21:02.047Z</time></trkpt><trkpt lat="42.1154614" lon="13.6957689"><ele>904.0</ele><time>2026-05-01T08:21:03.051Z</time></trkpt><trkpt lat="42.1155832" lon="13.6957387"><ele>904.0</ele><time>2026-05-01T08:21:04.058Z</time></trkpt><trkpt lat="42.1157059" lon="13.6957052"><ele>904.0</ele><time>2026-05-01T08:21:05.05Z</time></trkpt><trkpt lat="42.1158231" lon="13.6956708"><ele>904.0</ele><time>2026-05-01T08:21:06.056Z</time></trkpt><trkpt lat="42.1159488" lon="13.695636"><ele>899.0</ele><time>2026-05-01T08:21:07.049Z</time></trkpt><trkpt lat="42.116069" lon="13.6955984"><ele>894.0</ele><time>2026-05-01T08:21:08.045Z</time></trkpt><trkpt lat="42.1161899" lon="13.6955595"><ele>889.0</ele><time>2026-05-01T08:21:09.075Z</time></trkpt><trkpt lat="42.1163113" lon="13.695521"><ele>884.0</ele><time>2026-05-01T08:21:10.052Z</time></trkpt><trkpt lat="42.1164395" lon="13.6954902"><ele>884.0</ele><time>2026-05-01T08:21:11.047Z</time></trkpt><trkpt lat="42.1165664" lon="13.6954575"><ele>884.0</ele><time>2026-05-01T08:21:12.05Z</time></trkpt><trkpt lat="42.1166972" lon="13.6954285"><ele>884.0</ele><time>2026-05-01T08:21:13.059Z</time></trkpt><trkpt lat="42.1168298" lon="13.6953999"><ele>884.0</ele><time>2026-05-01T08:21:14.086Z</time></trkpt><trkpt lat="42.1169596" lon="13.6953619"><ele>878.75</ele><time>2026-05-01T08:21:15.05Z</time></trkpt><trkpt lat="42.1170911" lon="13.695327"><ele>873.5</ele><time>2026-05-01T08:21:16.051Z</time></trkpt><trkpt lat="42.1172189" lon="13.6953021"><ele>868.25</ele><time>2026-05-01T08:21:17.045Z</time></trkpt><trkpt lat="42.1173441" lon="13.6952905"><ele>863.0</ele><time>2026-05-01T08:21:18.045Z</time></trkpt><trkpt lat="42.1174612" lon="13.6952644"><ele>869.0</ele><time>2026-05-01T08:21:19.046Z</time></trkpt><trkpt lat="42.1175828" lon="13.6952368"><ele>875.0</ele><time>2026-05-01T08:21:20.044Z</time></trkpt><trkpt lat="42.1177031" lon="13.6951965"><ele>881.0</ele><time>2026-05-01T08:21:21.054Z</time></trkpt><trkpt lat="42.1178169" lon="13.6951343"><ele>887.0</ele><time>2026-05-01T08:21:22.043Z</time></trkpt><trkpt lat="42.1179333" lon="13.6950661"><ele>887.0</ele><time>2026-05-01T08:21:23.049Z</time></trkpt><trkpt lat="42.1180437" lon="13.6949898"><ele>887.0</ele><time>2026-05-01T08:21:24.052Z</time></trkpt><trkpt lat="42.1181566" lon="13.6949126"><ele>887.0</ele><time>2026-05-01T08:21:25.065Z</time></trkpt><trkpt lat="42.1182686" lon="13.6948405"><ele>887.0</ele><time>2026-05-01T08:21:26.044Z</time></trkpt><trkpt lat="42.1183796" lon="13.6947738"><ele>879.5</ele><time>2026-05-01T08:21:27.056Z</time></trkpt><trkpt lat="42.1184886" lon="13.6947108"><ele>872.0</ele><time>2026-05-01T08:21:28.056Z</time></trkpt><trkpt lat="42.1185927" lon="13.6946455"><ele>864.5</ele><time>2026-05-01T08:21:29.052Z</time></trkpt><trkpt lat="42.1186961" lon="13.6945807"><ele>857.0</ele><time>2026-05-01T08:21:30.074Z</time></trkpt><trkpt lat="42.1187927" lon="13.6945183"><ele>857.0</ele><time>2026-05-01T08:21:31.054Z</time></trkpt><trkpt lat="42.1188868" lon="13.6944633"><ele>857.0</ele><time>2026-05-01T08:21:32.052Z</time></trkpt><trkpt lat="42.1189767" lon="13.6944184"><ele>857.0</ele><time>2026-05-01T08:21:33.047Z</time></trkpt><trkpt lat="42.119073" lon="13.69439"><ele>857.0</ele><time>2026-05-01T08:21:34.057Z</time></trkpt><trkpt lat="42.1191753" lon="13.6943801"><ele>857.0</ele><time>2026-05-01T08:21:35.05Z</time></trkpt><trkpt lat="42.1192793" lon="13.6943662"><ele>858.75</ele><time>2026-05-01T08:21:36.045Z</time></trkpt><trkpt lat="42.1193912" lon="13.6943389"><ele>860.5</ele><time>2026-05-01T08:21:37.036Z</time></trkpt><trkpt lat="42.1195082" lon="13.6942963"><ele>862.25</ele><time>2026-05-01T08:21:38.05Z</time></trkpt><trkpt lat="42.1196302" lon="13.6942413"><ele>864.0</ele><time>2026-05-01T08:21:39.051Z</time></trkpt><trkpt lat="42.1197526" lon="13.694179"><ele>864.0</ele><time>2026-05-01T08:21:40.05Z</time></trkpt><trkpt lat="42.1198713" lon="13.6941193"><ele>864.0</ele><time>2026-05-01T08:21:41.048Z</time></trkpt><trkpt lat="42.119986" lon="13.6940628"><ele>864.0</ele><time>2026-05-01T08:21:42.056Z</time></trkpt><trkpt lat="42.1201017" lon="13.694012"><ele>864.0</ele><time>2026-05-01T08:21:43.054Z</time></trkpt><trkpt lat="42.1202191" lon="13.6939581"><ele>857.75</ele><time>2026-05-01T08:21:44.048Z</time></trkpt><trkpt lat="42.1203365" lon="13.6939057"><ele>851.5</ele><time>2026-05-01T08:21:45.055Z</time></trkpt><trkpt lat="42.1204553" lon="13.6938603"><ele>845.25</ele><time>2026-05-01T08:21:46.057Z</time></trkpt><trkpt lat="42.1205723" lon="13.6938116"><ele>839.0</ele><time>2026-05-01T08:21:47.07Z</time></trkpt><trkpt lat="42.1206878" lon="13.6937619"><ele>840.8000000000001</ele><time>2026-05-01T08:21:48.046Z</time></trkpt><trkpt lat="42.1207945" lon="13.6937155"><ele>842.6</ele><time>2026-05-01T08:21:49.038Z</time></trkpt><trkpt lat="42.1209042" lon="13.6936699"><ele>844.4</ele><time>2026-05-01T08:21:50.046Z</time></trkpt><trkpt lat="42.1210111" lon="13.6936361"><ele>846.2</ele><time>2026-05-01T08:21:51.041Z</time></trkpt><trkpt lat="42.121116" lon="13.6936026"><ele>848.0</ele><time>2026-05-01T08:21:52.05Z</time></trkpt><trkpt lat="42.1212177" lon="13.6935632"><ele>848.0</ele><time>2026-05-01T08:21:53.047Z</time></trkpt><trkpt lat="42.1213168" lon="13.6935192"><ele>848.0</ele><time>2026-05-01T08:21:54.052Z</time></trkpt><trkpt lat="42.1214176" lon="13.6934776"><ele>848.0</ele><time>2026-05-01T08:21:55.048Z</time></trkpt><trkpt lat="42.1215206" lon="13.6934337"><ele>848.0</ele><time>2026-05-01T08:21:56.043Z</time></trkpt><trkpt lat="42.1216216" lon="13.6933762"><ele>848.0</ele><time>2026-05-01T08:21:57.056Z</time></trkpt><trkpt lat="42.1217183" lon="13.6933183"><ele>842.75</ele><time>2026-05-01T08:21:58.046Z</time></trkpt><trkpt lat="42.1218135" lon="13.6932547"><ele>837.5</ele><time>2026-05-01T08:21:59.049Z</time></trkpt><trkpt lat="42.1219174" lon="13.6931811"><ele>832.25</ele><time>2026-05-01T08:22:00.052Z</time></trkpt><trkpt lat="42.1220227" lon="13.6931108"><ele>827.0</ele><time>2026-05-01T08:22:01.042Z</time></trkpt><trkpt lat="42.1221251" lon="13.6930384"><ele>827.0</ele><time>2026-05-01T08:22:02.051Z</time></trkpt><trkpt lat="42.1222286" lon="13.6929694"><ele>827.0</ele><time>2026-05-01T08:22:03.064Z</time></trkpt><trkpt lat="42.1223189" lon="13.6929017"><ele>827.0</ele><time>2026-05-01T08:22:04.045Z</time></trkpt><trkpt lat="42.1224062" lon="13.692855"><ele>827.0</ele><time>2026-05-01T08:22:05.044Z</time></trkpt><trkpt lat="42.1224845" lon="13.6928314"><ele>827.0</ele><time>2026-05-01T08:22:06.052Z</time></trkpt><trkpt lat="42.1225496" lon="13.692836"><ele>823.6666666666667</ele><time>2026-05-01T08:22:07.043Z</time></trkpt><trkpt lat="42.1226198" lon="13.6929281"><ele>820.3333333333334</ele><time>2026-05-01T08:22:09.047Z</time></trkpt><trkpt lat="42.1226155" lon="13.6930195"><ele>817.0</ele><time>2026-05-01T08:22:10.044Z</time></trkpt><trkpt lat="42.1225884" lon="13.6931151"><ele>813.6666666666667</ele><time>2026-05-01T08:22:11.064Z</time></trkpt><trkpt lat="42.1225567" lon="13.6932328"><ele>810.3333333333334</ele><time>2026-05-01T08:22:12.048Z</time></trkpt><trkpt lat="42.1225196" lon="13.6933412"><ele>807.0</ele><time>2026-05-01T08:22:13.041Z</time></trkpt><trkpt lat="42.122482" lon="13.6934503"><ele>807.0</ele><time>2026-05-01T08:22:14.045Z</time></trkpt><trkpt lat="42.1224508" lon="13.6935505"><ele>807.0</ele><time>2026-05-01T08:22:15.051Z</time></trkpt><trkpt lat="42.1224195" lon="13.6936568"><ele>807.0</ele><time>2026-05-01T08:22:16.052Z</time></trkpt><trkpt lat="42.1223843" lon="13.6937617"><ele>807.0</ele><time>2026-05-01T08:22:17.063Z</time></trkpt><trkpt lat="42.1223449" lon="13.6938752"><ele>807.0</ele><time>2026-05-01T08:22:18.052Z</time></trkpt><trkpt lat="42.1223081" lon="13.6939827"><ele>807.0</ele><time>2026-05-01T08:22:19.052Z</time></trkpt><trkpt lat="42.1222771" lon="13.6940797"><ele>807.5</ele><time>2026-05-01T08:22:20.044Z</time></trkpt><trkpt lat="42.1222481" lon="13.6941789"><ele>808.0</ele><time>2026-05-01T08:22:21.043Z</time></trkpt><trkpt lat="42.1222185" lon="13.6942649"><ele>808.5</ele><time>2026-05-01T08:22:22.059Z</time></trkpt><trkpt lat="42.1221606" lon="13.6943808"><ele>809.0</ele><time>2026-05-01T08:22:24.054Z</time></trkpt><trkpt lat="42.1220917" lon="13.6944733"><ele>809.5</ele><time>2026-05-01T08:22:26.049Z</time></trkpt><trkpt lat="42.1220388" lon="13.6945528"><ele>810.0</ele><time>2026-05-01T08:22:29.068Z</time></trkpt><trkpt lat="42.1221144" lon="13.6946219"><ele>807.2</ele><time>2026-05-01T08:22:33.05Z</time></trkpt><trkpt lat="42.1222015" lon="13.6946495"><ele>804.4</ele><time>2026-05-01T08:22:35.059Z</time></trkpt><trkpt lat="42.1222996" lon="13.6946702"><ele>801.5999999999999</ele><time>2026-05-01T08:22:37.049Z</time></trkpt><trkpt lat="42.1224134" lon="13.6946723"><ele>798.8</ele><time>2026-05-01T08:22:39.05Z</time></trkpt><trkpt lat="42.1225251" lon="13.6946486"><ele>796.0</ele><time>2026-05-01T08:22:41.046Z</time></trkpt><trkpt lat="42.1226527" lon="13.6946116"><ele>796.1999999999999</ele><time>2026-05-01T08:22:43.046Z</time></trkpt><trkpt lat="42.1227663" lon="13.6945509"><ele>796.4</ele><time>2026-05-01T08:22:45.064Z</time></trkpt><trkpt lat="42.1228219" lon="13.6945065"><ele>796.6</ele><time>2026-05-01T08:22:46.05Z</time></trkpt><trkpt lat="42.1229163" lon="13.6944277"><ele>796.8</ele><time>2026-05-01T08:22:48.065Z</time></trkpt><trkpt lat="42.1229955" lon="13.6943494"><ele>797.0</ele><time>2026-05-01T08:22:50.038Z</time></trkpt><trkpt lat="42.1230772" lon="13.6942553"><ele>797.0</ele><time>2026-05-01T08:22:52.053Z</time></trkpt><trkpt lat="42.1231581" lon="13.6941548"><ele>797.0</ele><time>2026-05-01T08:22:54.044Z</time></trkpt><trkpt lat="42.1232397" lon="13.6940588"><ele>797.0</ele><time>2026-05-01T08:22:56.046Z</time></trkpt><trkpt lat="42.1233379" lon="13.6939797"><ele>797.0</ele><time>2026-05-01T08:22:58.059Z</time></trkpt><trkpt lat="42.1234459" lon="13.6939071"><ele>792.6</ele><time>2026-05-01T08:23:00.049Z</time></trkpt><trkpt lat="42.1235397" lon="13.6938654"><ele>788.2</ele><time>2026-05-01T08:23:02.05Z</time></trkpt><trkpt lat="42.1236289" lon="13.6938304"><ele>783.8</ele><time>2026-05-01T08:23:04.042Z</time></trkpt><trkpt lat="42.1237275" lon="13.6937844"><ele>779.4</ele><time>2026-05-01T08:23:06.055Z</time></trkpt><trkpt lat="42.1238275" lon="13.6937202"><ele>775.0</ele><time>2026-05-01T08:23:08.051Z</time></trkpt><trkpt lat="42.1239109" lon="13.693649"><ele>773.2</ele><time>2026-05-01T08:23:10.049Z</time></trkpt><trkpt lat="42.1239716" lon="13.6935661"><ele>771.4</ele><time>2026-05-01T08:23:12.055Z</time></trkpt><trkpt lat="42.1240202" lon="13.6934818"><ele>769.5999999999999</ele><time>2026-05-01T08:23:14.07Z</time></trkpt><trkpt lat="42.1240656" lon="13.6933926"><ele>767.8</ele><time>2026-05-01T08:23:16.062Z</time></trkpt><trkpt lat="42.1240825" lon="13.6932514"><ele>766.0</ele><time>2026-05-01T08:23:18.057Z</time></trkpt><trkpt lat="42.1240831" lon="13.6930932"><ele>766.0</ele><time>2026-05-01T08:23:20.058Z</time></trkpt><trkpt lat="42.1240796" lon="13.6929411"><ele>766.0</ele><time>2026-05-01T08:23:22.045Z</time></trkpt><trkpt lat="42.1240926" lon="13.6927792"><ele>766.0</ele><time>2026-05-01T08:23:24.045Z</time></trkpt><trkpt lat="42.1240975" lon="13.6926893"><ele>766.0</ele><time>2026-05-01T08:23:25.049Z</time></trkpt><trkpt lat="42.1241008" lon="13.6925322"><ele>766.0</ele><time>2026-05-01T08:23:27.062Z</time></trkpt><trkpt lat="42.1241124" lon="13.6923926"><ele>766.1999999999999</ele><time>2026-05-01T08:23:29.045Z</time></trkpt><trkpt lat="42.1241339" lon="13.6922619"><ele>766.4</ele><time>2026-05-01T08:23:31.048Z</time></trkpt><trkpt lat="42.1241631" lon="13.6921314"><ele>766.6</ele><time>2026-05-01T08:23:33.053Z</time></trkpt><trkpt lat="42.1242284" lon="13.6920734"><ele>766.8</ele><time>2026-05-01T08:23:35.06Z</time></trkpt><trkpt lat="42.1243007" lon="13.6921053"><ele>767.0</ele><time>2026-05-01T08:23:38.05Z</time></trkpt><trkpt lat="42.1243316" lon="13.692237"><ele>767.0</ele><time>2026-05-01T08:23:41.039Z</time></trkpt><trkpt lat="42.1243572" lon="13.6923509"><ele>767.0</ele><time>2026-05-01T08:23:43.047Z</time></trkpt><trkpt lat="42.1243976" lon="13.6924699"><ele>767.0</ele><time>2026-05-01T08:23:45.037Z</time></trkpt><trkpt lat="42.1244577" lon="13.6925942"><ele>767.0</ele><time>2026-05-01T08:23:47.041Z</time></trkpt><trkpt lat="42.124525" lon="13.6927109"><ele>767.0</ele><time>2026-05-01T08:23:49.05Z</time></trkpt><trkpt lat="42.1245887" lon="13.6928047"><ele>766.8571428571429</ele><time>2026-05-01T08:23:51.039Z</time></trkpt><trkpt lat="42.1246497" lon="13.6928722"><ele>766.7142857142858</ele><time>2026-05-01T08:23:53.039Z</time></trkpt><trkpt lat="42.1247056" lon="13.6929378"><ele>766.5714285714286</ele><time>2026-05-01T08:23:55.051Z</time></trkpt><trkpt lat="42.1247511" lon="13.6929976"><ele>766.4285714285714</ele><time>2026-05-01T08:23:57.046Z</time></trkpt><trkpt lat="42.124802" lon="13.6930629"><ele>766.2857142857142</ele><time>2026-05-01T08:23:59.036Z</time></trkpt><trkpt lat="42.1248687" lon="13.693134"><ele>766.1428571428571</ele><time>2026-05-01T08:24:01.049Z</time></trkpt><trkpt lat="42.1249276" lon="13.6931908"><ele>766.0</ele><time>2026-05-01T08:24:03.056Z</time></trkpt><trkpt lat="42.1249866" lon="13.6932828"><ele>762.0</ele><time>2026-05-01T08:24:06.042Z</time></trkpt><trkpt lat="42.1250293" lon="13.6933584"><ele>758.0</ele><time>2026-05-01T08:24:09.044Z</time></trkpt><trkpt lat="42.1250674" lon="13.6934399"><ele>754.0</ele><time>2026-05-01T08:24:12.042Z</time></trkpt><trkpt lat="42.1251096" lon="13.693526"><ele>750.0</ele><time>2026-05-01T08:24:15.046Z</time></trkpt><trkpt lat="42.125157" lon="13.6936338"><ele>746.0</ele><time>2026-05-01T08:24:18.043Z</time></trkpt><trkpt lat="42.1251937" lon="13.6937367"><ele>742.0</ele><time>2026-05-01T08:24:20.046Z</time></trkpt><trkpt lat="42.1252398" lon="13.6938621"><ele>740.4000000000001</ele><time>2026-05-01T08:24:22.045Z</time></trkpt><trkpt lat="42.1253075" lon="13.6939933"><ele>738.8000000000001</ele><time>2026-05-01T08:24:24.055Z</time></trkpt><trkpt lat="42.1253692" lon="13.6941316"><ele>737.2</ele><time>2026-05-01T08:24:26.038Z</time></trkpt><trkpt lat="42.1254129" lon="13.6942872"><ele>735.6</ele><time>2026-05-01T08:24:28.047Z</time></trkpt><trkpt lat="42.1254356" lon="13.6943752"><ele>734.0</ele><time>2026-05-01T08:24:29.035Z</time></trkpt><trkpt lat="42.1254638" lon="13.6944691"><ele>733.1666666666666</ele><time>2026-05-01T08:24:30.05Z</time></trkpt><trkpt lat="42.1254841" lon="13.694565"><ele>732.3333333333333</ele><time>2026-05-01T08:24:31.045Z</time></trkpt><trkpt lat="42.1255026" lon="13.694665"><ele>731.5</ele><time>2026-05-01T08:24:32.051Z</time></trkpt><trkpt lat="42.1255229" lon="13.6947695"><ele>730.6666666666666</ele><time>2026-05-01T08:24:33.048Z</time></trkpt><trkpt lat="42.1255429" lon="13.6948771"><ele>729.8333333333334</ele><time>2026-05-01T08:24:34.056Z</time></trkpt><trkpt lat="42.1255584" lon="13.6949895"><ele>729.0</ele><time>2026-05-01T08:24:35.04Z</time></trkpt><trkpt lat="42.1255747" lon="13.6951062"><ele>729.0</ele><time>2026-05-01T08:24:36.051Z</time></trkpt><trkpt lat="42.125596" lon="13.6952219"><ele>729.0</ele><time>2026-05-01T08:24:37.055Z</time></trkpt><trkpt lat="42.1256161" lon="13.6953312"><ele>729.0</ele><time>2026-05-01T08:24:38.042Z</time></trkpt><trkpt lat="42.1256379" lon="13.6954415"><ele>729.0</ele><time>2026-05-01T08:24:39.05Z</time></trkpt><trkpt lat="42.125661" lon="13.6955481"><ele>729.0</ele><time>2026-05-01T08:24:40.047Z</time></trkpt><trkpt lat="42.1256843" lon="13.6956552"><ele>729.0</ele><time>2026-05-01T08:24:41.04Z</time></trkpt><trkpt lat="42.1257104" lon="13.6957685"><ele>724.6666666666666</ele><time>2026-05-01T08:24:42.051Z</time></trkpt><trkpt lat="42.1257342" lon="13.6958754"><ele>720.3333333333334</ele><time>2026-05-01T08:24:43.054Z</time></trkpt><trkpt lat="42.1257568" lon="13.6959766"><ele>716.0</ele><time>2026-05-01T08:24:44.056Z</time></trkpt><trkpt lat="42.1257747" lon="13.6960781"><ele>711.6666666666667</ele><time>2026-05-01T08:24:45.071Z</time></trkpt><trkpt lat="42.1257909" lon="13.696172"><ele>707.3333333333334</ele><time>2026-05-01T08:24:46.046Z</time></trkpt><trkpt lat="42.1258108" lon="13.6962646"><ele>703.0</ele><time>2026-05-01T08:24:47.057Z</time></trkpt><trkpt lat="42.1258259" lon="13.6963549"><ele>700.2</ele><time>2026-05-01T08:24:48.048Z</time></trkpt><trkpt lat="42.1258383" lon="13.6964444"><ele>697.4</ele><time>2026-05-01T08:24:49.05Z</time></trkpt><trkpt lat="42.1258514" lon="13.6965368"><ele>694.6</ele><time>2026-05-01T08:24:50.085Z</time></trkpt><trkpt lat="42.1258647" lon="13.6966255"><ele>691.8000000000001</ele><time>2026-05-01T08:24:51.053Z</time></trkpt><trkpt lat="42.1258918" lon="13.6967917"><ele>689.0</ele><time>2026-05-01T08:24:53.048Z</time></trkpt><trkpt lat="42.1259344" lon="13.6969527"><ele>686.6</ele><time>2026-05-01T08:24:55.058Z</time></trkpt><trkpt lat="42.1259539" lon="13.6970336"><ele>684.2</ele><time>2026-05-01T08:24:56.052Z</time></trkpt><trkpt lat="42.1259797" lon="13.6971773"><ele>681.8000000000001</ele><time>2026-05-01T08:24:58.052Z</time></trkpt><trkpt lat="42.1260121" lon="13.6973173"><ele>679.4000000000001</ele><time>2026-05-01T08:25:00.051Z</time></trkpt><trkpt lat="42.1260445" lon="13.6974512"><ele>677.0</ele><time>2026-05-01T08:25:02.046Z</time></trkpt><trkpt lat="42.1260759" lon="13.697611"><ele>674.25</ele><time>2026-05-01T08:25:04.048Z</time></trkpt><trkpt lat="42.1261042" lon="13.6977699"><ele>671.5</ele><time>2026-05-01T08:25:06.054Z</time></trkpt><trkpt lat="42.1261164" lon="13.6979314"><ele>668.75</ele><time>2026-05-01T08:25:08.053Z</time></trkpt><trkpt lat="42.126115" lon="13.6980791"><ele>666.0</ele><time>2026-05-01T08:25:10.049Z</time></trkpt><trkpt lat="42.1261107" lon="13.6982212"><ele>666.0</ele><time>2026-05-01T08:25:12.048Z</time></trkpt><trkpt lat="42.1261014" lon="13.6983636"><ele>666.0</ele><time>2026-05-01T08:25:14.045Z</time></trkpt><trkpt lat="42.1260908" lon="13.6985049"><ele>666.0</ele><time>2026-05-01T08:25:16.062Z</time></trkpt><trkpt lat="42.1260694" lon="13.6986336"><ele>666.0</ele><time>2026-05-01T08:25:18.049Z</time></trkpt><trkpt lat="42.1260723" lon="13.6987681"><ele>666.0</ele><time>2026-05-01T08:25:20.048Z</time></trkpt><trkpt lat="42.1260802" lon="13.6988972"><ele>665.0</ele><time>2026-05-01T08:25:22.046Z</time></trkpt><trkpt lat="42.1261158" lon="13.6990069"><ele>664.0</ele><time>2026-05-01T08:25:24.053Z</time></trkpt><trkpt lat="42.1261787" lon="13.6990623"><ele>663.0</ele><time>2026-05-01T08:25:27.045Z</time></trkpt><trkpt lat="42.1262301" lon="13.6991875"><ele>662.0</ele><time>2026-05-01T08:26:39.047Z</time></trkpt><trkpt lat="42.1262815" lon="13.6992858"><ele>661.0</ele><time>2026-05-01T08:26:41.063Z</time></trkpt><trkpt lat="42.1263094" lon="13.6993649"><ele>660.0</ele><time>2026-05-01T08:26:43.071Z</time></trkpt><trkpt lat="42.1263607" lon="13.6994333"><ele>659.0</ele><time>2026-05-01T08:26:47.061Z</time></trkpt><trkpt lat="42.126433" lon="13.6994253"><ele>658.0</ele><time>2026-05-01T08:26:50.038Z</time></trkpt><trkpt lat="42.126502" lon="13.6994362"><ele>657.0</ele><time>2026-05-01T08:26:53.041Z</time></trkpt><trkpt lat="42.1265358" lon="13.6995492"><ele>656.0</ele><time>2026-05-01T08:27:32.048Z</time></trkpt><trkpt lat="42.126527" lon="13.6996604"><ele>655.0</ele><time>2026-05-01T08:27:34.044Z</time></trkpt><trkpt lat="42.1265097" lon="13.6997676"><ele>654.0</ele><time>2026-05-01T08:27:36.061Z</time></trkpt><trkpt lat="42.1264988" lon="13.6998632"><ele>654.0</ele><time>2026-05-01T08:27:38.04Z</time></trkpt><trkpt lat="42.1264899" lon="13.699973"><ele>654.0</ele><time>2026-05-01T08:27:40.046Z</time></trkpt><trkpt lat="42.1264743" lon="13.700062"><ele>654.0</ele><time>2026-05-01T08:27:42.048Z</time></trkpt><trkpt lat="42.1264685" lon="13.7001812"><ele>654.0</ele><time>2026-05-01T08:27:45.046Z</time></trkpt><trkpt lat="42.1264629" lon="13.7002827"><ele>654.0</ele><time>2026-05-01T08:27:47.037Z</time></trkpt><trkpt lat="42.126468" lon="13.7003813"><ele>654.0</ele><time>2026-05-01T08:27:49.044Z</time></trkpt><trkpt lat="42.1264605" lon="13.7004989"><ele>652.8333333333334</ele><time>2026-05-01T08:27:51.046Z</time></trkpt><trkpt lat="42.126453" lon="13.7005967"><ele>651.6666666666666</ele><time>2026-05-01T08:27:53.037Z</time></trkpt><trkpt lat="42.1264298" lon="13.7007202"><ele>650.5</ele><time>2026-05-01T08:27:56.034Z</time></trkpt><trkpt lat="42.1264281" lon="13.7008114"><ele>649.3333333333333</ele><time>2026-05-01T08:27:59.046Z</time></trkpt><trkpt lat="42.1263742" lon="13.7009282"><ele>648.1666666666666</ele><time>2026-05-01T08:29:38.042Z</time></trkpt><trkpt lat="42.1263102" lon="13.7010158"><ele>647.0</ele><time>2026-05-01T08:29:42.058Z</time></trkpt><trkpt lat="42.1262673" lon="13.7011123"><ele>646.0</ele><time>2026-05-01T08:29:45.05Z</time></trkpt><trkpt lat="42.1262557" lon="13.7011989"><ele>645.0</ele><time>2026-05-01T08:29:49.037Z</time></trkpt><trkpt lat="42.1262494" lon="13.7012846"><ele>644.0</ele><time>2026-05-01T08:30:27.058Z</time></trkpt><trkpt lat="42.1262549" lon="13.7013726"><ele>643.0</ele><time>2026-05-01T08:30:50.053Z</time></trkpt><trkpt lat="42.1261981" lon="13.7014586"><ele>642.0</ele><time>2026-05-01T08:30:53.045Z</time></trkpt><trkpt lat="42.1261731" lon="13.701552"><ele>641.0</ele><time>2026-05-01T08:30:55.051Z</time></trkpt><trkpt lat="42.1261742" lon="13.7016377"><ele>640.0</ele><time>2026-05-01T08:30:59.064Z</time></trkpt><trkpt lat="42.1262275" lon="13.7015461"><ele>640.0</ele><time>2026-05-01T08:31:02.056Z</time></trkpt><trkpt lat="42.1262648" lon="13.7014037"><ele>640.0</ele><time>2026-05-01T08:31:04.051Z</time></trkpt><trkpt lat="42.1262949" lon="13.7013227"><ele>640.0</ele><time>2026-05-01T08:31:06.058Z</time></trkpt><trkpt lat="42.1263393" lon="13.7012494"><ele>640.0</ele><time>2026-05-01T08:31:09.059Z</time></trkpt><trkpt lat="42.1263718" lon="13.7011079"><ele>640.0</ele><time>2026-05-01T08:33:47.056Z</time></trkpt><trkpt lat="42.126393" lon="13.7010064"><ele>640.0</ele><time>2026-05-01T08:33:49.048Z</time></trkpt><trkpt lat="42.1264437" lon="13.7009408"><ele>640.0</ele><time>2026-05-01T08:33:51.047Z</time></trkpt><trkpt lat="42.1265316" lon="13.7008781"><ele>640.0</ele><time>2026-05-01T08:33:53.047Z</time></trkpt><trkpt lat="42.1264847" lon="13.7008211"><ele>640.0</ele><time>2026-05-01T08:33:56.059Z</time></trkpt><trkpt lat="42.1264273" lon="13.7009371"><ele>640.0</ele><time>2026-05-01T08:33:59.037Z</time></trkpt><trkpt lat="42.1263933" lon="13.7010249"><ele>640.0</ele><time>2026-05-01T08:34:00.056Z</time></trkpt><trkpt lat="42.1263611" lon="13.7011026"><ele>640.0</ele><time>2026-05-01T08:34:01.064Z</time></trkpt><trkpt lat="42.1263299" lon="13.7012411"><ele>640.0</ele><time>2026-05-01T08:34:03.052Z</time></trkpt><trkpt lat="42.1263096" lon="13.7013323"><ele>640.0</ele><time>2026-05-01T08:34:05.049Z</time></trkpt><trkpt lat="42.1262666" lon="13.7014002"><ele>640.0</ele><time>2026-05-01T08:35:55.055Z</time></trkpt><trkpt lat="42.126231" lon="13.7015065"><ele>640.0</ele><time>2026-05-01T08:35:58.063Z</time></trkpt><trkpt lat="42.1262348" lon="13.7016018"><ele>640.0</ele><time>2026-05-01T08:36:01.068Z</time></trkpt><trkpt lat="42.1262972" lon="13.7016692"><ele>640.0</ele><time>2026-05-01T08:36:03.048Z</time></trkpt><trkpt lat="42.1263859" lon="13.7016994"><ele>640.0</ele><time>2026-05-01T08:36:05.049Z</time></trkpt><trkpt lat="42.1264944" lon="13.7017373"><ele>640.0</ele><time>2026-05-01T08:36:07.061Z</time></trkpt><trkpt lat="42.1266146" lon="13.7017784"><ele>640.0</ele><time>2026-05-01T08:36:09.043Z</time></trkpt><trkpt lat="42.1266767" lon="13.7017938"><ele>640.0</ele><time>2026-05-01T08:36:10.076Z</time></trkpt><trkpt lat="42.1267999" lon="13.7017888"><ele>640.0</ele><time>2026-05-01T08:36:12.046Z</time></trkpt><trkpt lat="42.1269153" lon="13.7017471"><ele>640.6</ele><time>2026-05-01T08:36:14.053Z</time></trkpt><trkpt lat="42.1270299" lon="13.7016998"><ele>641.2</ele><time>2026-05-01T08:36:16.059Z</time></trkpt><trkpt lat="42.1271377" lon="13.7016747"><ele>641.8</ele><time>2026-05-01T08:36:18.066Z</time></trkpt><trkpt lat="42.1272345" lon="13.7016486"><ele>642.4</ele><time>2026-05-01T08:36:20.059Z</time></trkpt><trkpt lat="42.1273017" lon="13.7016094"><ele>643.0</ele><time>2026-05-01T08:36:22.061Z</time></trkpt><trkpt lat="42.127402" lon="13.7015743"><ele>643.0</ele><time>2026-05-01T08:36:24.053Z</time></trkpt><trkpt lat="42.1274633" lon="13.7015455"><ele>643.0</ele><time>2026-05-01T08:36:25.055Z</time></trkpt><trkpt lat="42.1275413" lon="13.7015015"><ele>643.0</ele><time>2026-05-01T08:36:26.052Z</time></trkpt><trkpt lat="42.1276235" lon="13.7014372"><ele>643.0</ele><time>2026-05-01T08:36:27.05Z</time></trkpt><trkpt lat="42.1277012" lon="13.701368"><ele>643.0</ele><time>2026-05-01T08:36:28.062Z</time></trkpt><trkpt lat="42.1277715" lon="13.7012986"><ele>643.0</ele><time>2026-05-01T08:36:29.047Z</time></trkpt><trkpt lat="42.1278386" lon="13.7012263"><ele>643.0</ele><time>2026-05-01T08:36:30.072Z</time></trkpt><trkpt lat="42.1279104" lon="13.7011531"><ele>643.0</ele><time>2026-05-01T08:36:31.06Z</time></trkpt><trkpt lat="42.1279857" lon="13.7010775"><ele>643.0</ele><time>2026-05-01T08:36:32.052Z</time></trkpt><trkpt lat="42.1280638" lon="13.7009964"><ele>643.0</ele><time>2026-05-01T08:36:33.068Z</time></trkpt><trkpt lat="42.1281431" lon="13.7009089"><ele>643.0</ele><time>2026-05-01T08:36:34.05Z</time></trkpt><trkpt lat="42.1282265" lon="13.7008163"><ele>645.0</ele><time>2026-05-01T08:36:35.055Z</time></trkpt><trkpt lat="42.128311" lon="13.7007275"><ele>647.0</ele><time>2026-05-01T08:36:36.05Z</time></trkpt><trkpt lat="42.128398" lon="13.7006348"><ele>649.0</ele><time>2026-05-01T08:36:37.048Z</time></trkpt><trkpt lat="42.1284855" lon="13.7005409"><ele>651.0</ele><time>2026-05-01T08:36:38.055Z</time></trkpt><trkpt lat="42.1285635" lon="13.7004575"><ele>653.0</ele><time>2026-05-01T08:36:39.057Z</time></trkpt><trkpt lat="42.1286359" lon="13.7003781"><ele>653.0</ele><time>2026-05-01T08:36:40.053Z</time></trkpt><trkpt lat="42.1287095" lon="13.7002948"><ele>653.0</ele><time>2026-05-01T08:36:41.087Z</time></trkpt><trkpt lat="42.1287858" lon="13.7002131"><ele>653.0</ele><time>2026-05-01T08:36:42.049Z</time></trkpt><trkpt lat="42.1288614" lon="13.7001308"><ele>653.0</ele><time>2026-05-01T08:36:43.051Z</time></trkpt><trkpt lat="42.1289397" lon="13.7000476"><ele>653.0</ele><time>2026-05-01T08:36:44.051Z</time></trkpt><trkpt lat="42.1290193" lon="13.6999596"><ele>653.4</ele><time>2026-05-01T08:36:45.055Z</time></trkpt><trkpt lat="42.1290975" lon="13.699872"><ele>653.8</ele><time>2026-05-01T08:36:46.059Z</time></trkpt><trkpt lat="42.1291773" lon="13.6997852"><ele>654.2</ele><time>2026-05-01T08:36:47.064Z</time></trkpt><trkpt lat="42.129258" lon="13.6997011"><ele>654.6</ele><time>2026-05-01T08:36:48.074Z</time></trkpt><trkpt lat="42.1293323" lon="13.6996096"><ele>655.0</ele><time>2026-05-01T08:36:49.044Z</time></trkpt><trkpt lat="42.1294" lon="13.699513"><ele>656.6</ele><time>2026-05-01T08:36:50.055Z</time></trkpt><trkpt lat="42.129472" lon="13.6994104"><ele>658.2</ele><time>2026-05-01T08:36:51.05Z</time></trkpt><trkpt lat="42.1295441" lon="13.6993073"><ele>659.8</ele><time>2026-05-01T08:36:52.053Z</time></trkpt><trkpt lat="42.1296191" lon="13.6992075"><ele>661.4</ele><time>2026-05-01T08:36:53.047Z</time></trkpt><trkpt lat="42.1297" lon="13.6991057"><ele>663.0</ele><time>2026-05-01T08:36:54.046Z</time></trkpt><trkpt lat="42.1297849" lon="13.6990031"><ele>663.0</ele><time>2026-05-01T08:36:55.061Z</time></trkpt><trkpt lat="42.1298658" lon="13.6988921"><ele>663.0</ele><time>2026-05-01T08:36:56.055Z</time></trkpt><trkpt lat="42.1299513" lon="13.6987824"><ele>663.0</ele><time>2026-05-01T08:36:57.053Z</time></trkpt><trkpt lat="42.1300342" lon="13.6986703"><ele>663.0</ele><time>2026-05-01T08:36:58.062Z</time></trkpt><trkpt lat="42.1301219" lon="13.6985566"><ele>662.75</ele><time>2026-05-01T08:36:59.059Z</time></trkpt><trkpt lat="42.1302162" lon="13.6984465"><ele>662.5</ele><time>2026-05-01T08:37:00.074Z</time></trkpt><trkpt lat="42.1303096" lon="13.6983371"><ele>662.25</ele><time>2026-05-01T08:37:01.052Z</time></trkpt><trkpt lat="42.1304041" lon="13.6982259"><ele>662.0</ele><time>2026-05-01T08:37:02.05Z</time></trkpt><trkpt lat="42.1304963" lon="13.6981111"><ele>662.0</ele><time>2026-05-01T08:37:03.074Z</time></trkpt><trkpt lat="42.1305853" lon="13.69799"><ele>662.0</ele><time>2026-05-01T08:37:04.049Z</time></trkpt><trkpt lat="42.1306642" lon="13.6978672"><ele>662.0</ele><time>2026-05-01T08:37:05.055Z</time></trkpt><trkpt lat="42.1307339" lon="13.6977347"><ele>662.0</ele><time>2026-05-01T08:37:06.048Z</time></trkpt><trkpt lat="42.1307873" lon="13.6975977"><ele>662.2</ele><time>2026-05-01T08:37:07.054Z</time></trkpt><trkpt lat="42.1308205" lon="13.6974619"><ele>662.4000000000001</ele><time>2026-05-01T08:37:08.058Z</time></trkpt><trkpt lat="42.1308325" lon="13.6973198"><ele>662.5999999999999</ele><time>2026-05-01T08:37:09.073Z</time></trkpt><trkpt lat="42.1308369" lon="13.6971732"><ele>662.8</ele><time>2026-05-01T08:37:10.049Z</time></trkpt><trkpt lat="42.1308442" lon="13.6970273"><ele>663.0</ele><time>2026-05-01T08:37:11.048Z</time></trkpt><trkpt lat="42.1308476" lon="13.6968715"><ele>664.25</ele><time>2026-05-01T08:37:12.052Z</time></trkpt><trkpt lat="42.1308534" lon="13.6967079"><ele>665.5</ele><time>2026-05-01T08:37:13.054Z</time></trkpt><trkpt lat="42.1308746" lon="13.69654"><ele>666.75</ele><time>2026-05-01T08:37:14.054Z</time></trkpt><trkpt lat="42.1309041" lon="13.6963758"><ele>668.0</ele><time>2026-05-01T08:37:15.045Z</time></trkpt><trkpt lat="42.1309441" lon="13.6962102"><ele>670.0</ele><time>2026-05-01T08:37:16.051Z</time></trkpt><trkpt lat="42.1309926" lon="13.6960434"><ele>672.0</ele><time>2026-05-01T08:37:17.052Z</time></trkpt><trkpt lat="42.1310587" lon="13.6958886"><ele>674.0</ele><time>2026-05-01T08:37:18.061Z</time></trkpt><trkpt lat="42.1311341" lon="13.6957373"><ele>676.0</ele><time>2026-05-01T08:37:19.056Z</time></trkpt><trkpt lat="42.1312203" lon="13.695586"><ele>676.0</ele><time>2026-05-01T08:37:20.053Z</time></trkpt><trkpt lat="42.1313133" lon="13.6954324"><ele>676.0</ele><time>2026-05-01T08:37:21.05Z</time></trkpt><trkpt lat="42.1314044" lon="13.6952814"><ele>676.0</ele><time>2026-05-01T08:37:22.045Z</time></trkpt><trkpt lat="42.1314859" lon="13.6951385"><ele>676.0</ele><time>2026-05-01T08:37:23.056Z</time></trkpt><trkpt lat="42.1315492" lon="13.6950034"><ele>673.5</ele><time>2026-05-01T08:37:24.058Z</time></trkpt><trkpt lat="42.1315857" lon="13.6948561"><ele>671.0</ele><time>2026-05-01T08:37:25.06Z</time></trkpt><trkpt lat="42.131581" lon="13.6946827"><ele>668.5</ele><time>2026-05-01T08:37:26.051Z</time></trkpt><trkpt lat="42.1315356" lon="13.6944968"><ele>666.0</ele><time>2026-05-01T08:37:27.054Z</time></trkpt><trkpt lat="42.13145" lon="13.6943172"><ele>673.3333333333334</ele><time>2026-05-01T08:37:28.05Z</time></trkpt><trkpt lat="42.1313411" lon="13.6941513"><ele>680.6666666666667</ele><time>2026-05-01T08:37:29.037Z</time></trkpt><trkpt lat="42.1312303" lon="13.6940004"><ele>688.0</ele><time>2026-05-01T08:37:30.047Z</time></trkpt><trkpt lat="42.1311334" lon="13.693863"><ele>688.0</ele><time>2026-05-01T08:37:31.046Z</time></trkpt><trkpt lat="42.1310596" lon="13.6937372"><ele>688.0</ele><time>2026-05-01T08:37:32.041Z</time></trkpt><trkpt lat="42.1310034" lon="13.6935973"><ele>688.0</ele><time>2026-05-01T08:37:33.053Z</time></trkpt><trkpt lat="42.1309631" lon="13.6934441"><ele>688.0</ele><time>2026-05-01T08:37:34.041Z</time></trkpt><trkpt lat="42.1309594" lon="13.6932885"><ele>687.75</ele><time>2026-05-01T08:37:35.045Z</time></trkpt><trkpt lat="42.1309699" lon="13.693124"><ele>687.5</ele><time>2026-05-01T08:37:36.043Z</time></trkpt><trkpt lat="42.1309865" lon="13.6929568"><ele>687.25</ele><time>2026-05-01T08:37:37.047Z</time></trkpt><trkpt lat="42.1310013" lon="13.6927888"><ele>687.0</ele><time>2026-05-01T08:37:38.04Z</time></trkpt><trkpt lat="42.131016" lon="13.6926167"><ele>687.0</ele><time>2026-05-01T08:37:39.051Z</time></trkpt><trkpt lat="42.1310243" lon="13.6924347"><ele>687.0</ele><time>2026-05-01T08:37:40.048Z</time></trkpt><trkpt lat="42.131035" lon="13.6922593"><ele>687.0</ele><time>2026-05-01T08:37:41.06Z</time></trkpt><trkpt lat="42.13106" lon="13.6920944"><ele>687.0</ele><time>2026-05-01T08:37:42.042Z</time></trkpt><trkpt lat="42.1310988" lon="13.6919354"><ele>687.0</ele><time>2026-05-01T08:37:43.03Z</time></trkpt><trkpt lat="42.1311592" lon="13.6917911"><ele>687.0</ele><time>2026-05-01T08:37:44.04Z</time></trkpt><trkpt lat="42.1312423" lon="13.6916643"><ele>687.0</ele><time>2026-05-01T08:37:45.047Z</time></trkpt><trkpt lat="42.1313482" lon="13.6915778"><ele>687.0</ele><time>2026-05-01T08:37:46.029Z</time></trkpt><trkpt lat="42.1314694" lon="13.6915303"><ele>684.25</ele><time>2026-05-01T08:37:47.052Z</time></trkpt><trkpt lat="42.131596" lon="13.6915072"><ele>681.5</ele><time>2026-05-01T08:37:48.051Z</time></trkpt><trkpt lat="42.1317204" lon="13.6914994"><ele>678.75</ele><time>2026-05-01T08:37:49.05Z</time></trkpt><trkpt lat="42.1318459" lon="13.6914909"><ele>676.0</ele><time>2026-05-01T08:37:50.059Z</time></trkpt><trkpt lat="42.131967" lon="13.6914829"><ele>676.0</ele><time>2026-05-01T08:37:51.045Z</time></trkpt><trkpt lat="42.1320828" lon="13.6914741"><ele>676.0</ele><time>2026-05-01T08:37:52.054Z</time></trkpt><trkpt lat="42.1321866" lon="13.6914426"><ele>676.0</ele><time>2026-05-01T08:37:53.053Z</time></trkpt><trkpt lat="42.1322781" lon="13.6913801"><ele>676.0</ele><time>2026-05-01T08:37:54.051Z</time></trkpt><trkpt lat="42.1323505" lon="13.6912868"><ele>676.0</ele><time>2026-05-01T08:37:55.055Z</time></trkpt><trkpt lat="42.1323974" lon="13.6911547"><ele>674.5</ele><time>2026-05-01T08:37:56.054Z</time></trkpt><trkpt lat="42.1324023" lon="13.6910098"><ele>673.0</ele><time>2026-05-01T08:37:57.052Z</time></trkpt><trkpt lat="42.1323643" lon="13.690866"><ele>671.5</ele><time>2026-05-01T08:37:58.026Z</time></trkpt><trkpt lat="42.1322901" lon="13.6907147"><ele>670.0</ele><time>2026-05-01T08:37:59.053Z</time></trkpt><trkpt lat="42.1321912" lon="13.6905525"><ele>673.0</ele><time>2026-05-01T08:38:00.042Z</time></trkpt><trkpt lat="42.1320951" lon="13.6904087"><ele>676.0</ele><time>2026-05-01T08:38:01.067Z</time></trkpt><trkpt lat="42.1320075" lon="13.6902728"><ele>679.0</ele><time>2026-05-01T08:38:02.066Z</time></trkpt><trkpt lat="42.1319351" lon="13.6901495"><ele>682.0</ele><time>2026-05-01T08:38:03.051Z</time></trkpt><trkpt lat="42.1318687" lon="13.6900381"><ele>682.0</ele><time>2026-05-01T08:38:04.046Z</time></trkpt><trkpt lat="42.1318296" lon="13.6899116"><ele>682.0</ele><time>2026-05-01T08:38:05.047Z</time></trkpt><trkpt lat="42.1318448" lon="13.6897762"><ele>682.0</ele><time>2026-05-01T08:38:06.038Z</time></trkpt><trkpt lat="42.1318846" lon="13.6896306"><ele>682.0</ele><time>2026-05-01T08:38:07.039Z</time></trkpt><trkpt lat="42.1319372" lon="13.6894987"><ele>682.0</ele><time>2026-05-01T08:38:08.039Z</time></trkpt><trkpt lat="42.1319941" lon="13.6893826"><ele>686.5</ele><time>2026-05-01T08:38:09.046Z</time></trkpt><trkpt lat="42.132073" lon="13.6892673"><ele>691.0</ele><time>2026-05-01T08:38:10.046Z</time></trkpt><trkpt lat="42.1321662" lon="13.6891669"><ele>695.5</ele><time>2026-05-01T08:38:11.043Z</time></trkpt><trkpt lat="42.132264" lon="13.6890807"><ele>700.0</ele><time>2026-05-01T08:38:12.044Z</time></trkpt><trkpt lat="42.1323747" lon="13.6890238"><ele>696.75</ele><time>2026-05-01T08:38:13.045Z</time></trkpt><trkpt lat="42.1324896" lon="13.6890142"><ele>693.5</ele><time>2026-05-01T08:38:14.049Z</time></trkpt><trkpt lat="42.1325955" lon="13.6890336"><ele>690.25</ele><time>2026-05-01T08:38:15.05Z</time></trkpt><trkpt lat="42.1327108" lon="13.6891021"><ele>687.0</ele><time>2026-05-01T08:38:16.049Z</time></trkpt><trkpt lat="42.1328143" lon="13.6892165"><ele>687.0</ele><time>2026-05-01T08:38:17.035Z</time></trkpt><trkpt lat="42.1329175" lon="13.6893491"><ele>687.0</ele><time>2026-05-01T08:38:18.037Z</time></trkpt><trkpt lat="42.1330228" lon="13.6894571"><ele>687.0</ele><time>2026-05-01T08:38:19.043Z</time></trkpt><trkpt lat="42.1331346" lon="13.6895579"><ele>687.0</ele><time>2026-05-01T08:38:20.044Z</time></trkpt><trkpt lat="42.1332506" lon="13.6896305"><ele>686.0</ele><time>2026-05-01T08:38:21.041Z</time></trkpt><trkpt lat="42.1333745" lon="13.6896658"><ele>685.0</ele><time>2026-05-01T08:38:22.039Z</time></trkpt><trkpt lat="42.1335086" lon="13.6896685"><ele>684.0</ele><time>2026-05-01T08:38:23.045Z</time></trkpt><trkpt lat="42.1336435" lon="13.689657"><ele>683.0</ele><time>2026-05-01T08:38:24.048Z</time></trkpt><trkpt lat="42.1337788" lon="13.6896323"><ele>683.0</ele><time>2026-05-01T08:38:25.044Z</time></trkpt><trkpt lat="42.1339164" lon="13.6896035"><ele>683.0</ele><time>2026-05-01T08:38:26.044Z</time></trkpt><trkpt lat="42.134054" lon="13.6895711"><ele>683.0</ele><time>2026-05-01T08:38:27.044Z</time></trkpt><trkpt lat="42.1341878" lon="13.6895391"><ele>683.0</ele><time>2026-05-01T08:38:28.051Z</time></trkpt><trkpt lat="42.1343201" lon="13.6895054"><ele>682.25</ele><time>2026-05-01T08:38:29.042Z</time></trkpt><trkpt lat="42.1344545" lon="13.6894662"><ele>681.5</ele><time>2026-05-01T08:38:30.043Z</time></trkpt><trkpt lat="42.1345891" lon="13.6894228"><ele>680.75</ele><time>2026-05-01T08:38:31.039Z</time></trkpt><trkpt lat="42.1347185" lon="13.6893637"><ele>680.0</ele><time>2026-05-01T08:38:32.046Z</time></trkpt><trkpt lat="42.134839" lon="13.6892982"><ele>684.25</ele><time>2026-05-01T08:38:33.052Z</time></trkpt><trkpt lat="42.1349572" lon="13.6892377"><ele>688.5</ele><time>2026-05-01T08:38:34.043Z</time></trkpt><trkpt lat="42.1350846" lon="13.6891885"><ele>692.75</ele><time>2026-05-01T08:38:35.039Z</time></trkpt><trkpt lat="42.1352199" lon="13.6891666"><ele>697.0</ele><time>2026-05-01T08:38:36.04Z</time></trkpt><trkpt lat="42.1353535" lon="13.689168"><ele>697.0</ele><time>2026-05-01T08:38:37.044Z</time></trkpt><trkpt lat="42.1354881" lon="13.6891787"><ele>697.0</ele><time>2026-05-01T08:38:38.052Z</time></trkpt><trkpt lat="42.1356189" lon="13.6891808"><ele>697.0</ele><time>2026-05-01T08:38:39.036Z</time></trkpt><trkpt lat="42.1357504" lon="13.6891659"><ele>697.0</ele><time>2026-05-01T08:38:40.036Z</time></trkpt><trkpt lat="42.1358821" lon="13.6891172"><ele>697.3333333333334</ele><time>2026-05-01T08:38:41.051Z</time></trkpt><trkpt lat="42.1360202" lon="13.6890328"><ele>697.6666666666666</ele><time>2026-05-01T08:38:42.053Z</time></trkpt><trkpt lat="42.1361587" lon="13.6889256"><ele>698.0</ele><time>2026-05-01T08:38:43.045Z</time></trkpt><trkpt lat="42.1362946" lon="13.6888077"><ele>698.0</ele><time>2026-05-01T08:38:44.048Z</time></trkpt><trkpt lat="42.1364326" lon="13.6886892"><ele>698.0</ele><time>2026-05-01T08:38:45.033Z</time></trkpt><trkpt lat="42.1365613" lon="13.6885776"><ele>698.0</ele><time>2026-05-01T08:38:46.047Z</time></trkpt><trkpt lat="42.1366946" lon="13.6884555"><ele>699.6666666666666</ele><time>2026-05-01T08:38:47.055Z</time></trkpt><trkpt lat="42.1368278" lon="13.6883261"><ele>701.3333333333334</ele><time>2026-05-01T08:38:48.048Z</time></trkpt><trkpt lat="42.1369642" lon="13.6881932"><ele>703.0</ele><time>2026-05-01T08:38:49.059Z</time></trkpt><trkpt lat="42.1371018" lon="13.6880573"><ele>703.0</ele><time>2026-05-01T08:38:50.046Z</time></trkpt><trkpt lat="42.1372441" lon="13.6879144"><ele>703.0</ele><time>2026-05-01T08:38:51.067Z</time></trkpt><trkpt lat="42.1373901" lon="13.6877841"><ele>703.0</ele><time>2026-05-01T08:38:52.051Z</time></trkpt><trkpt lat="42.1375306" lon="13.6876524"><ele>704.0</ele><time>2026-05-01T08:38:53.046Z</time></trkpt><trkpt lat="42.1376679" lon="13.6875224"><ele>705.0</ele><time>2026-05-01T08:38:54.045Z</time></trkpt><trkpt lat="42.1378042" lon="13.6873976"><ele>706.0</ele><time>2026-05-01T08:38:55.059Z</time></trkpt><trkpt lat="42.1379344" lon="13.687279"><ele>706.0</ele><time>2026-05-01T08:38:56.042Z</time></trkpt><trkpt lat="42.138064" lon="13.6871595"><ele>706.0</ele><time>2026-05-01T08:38:57.05Z</time></trkpt><trkpt lat="42.1381943" lon="13.6870409"><ele>706.0</ele><time>2026-05-01T08:38:58.047Z</time></trkpt><trkpt lat="42.1383252" lon="13.6869125"><ele>709.0</ele><time>2026-05-01T08:38:59.051Z</time></trkpt><trkpt lat="42.1384552" lon="13.6867828"><ele>712.0</ele><time>2026-05-01T08:39:00.043Z</time></trkpt><trkpt lat="42.1385773" lon="13.6866541"><ele>715.0</ele><time>2026-05-01T08:39:01.05Z</time></trkpt><trkpt lat="42.1387009" lon="13.6865307"><ele>715.0</ele><time>2026-05-01T08:39:02.046Z</time></trkpt><trkpt lat="42.1388254" lon="13.6864069"><ele>715.0</ele><time>2026-05-01T08:39:03.059Z</time></trkpt><trkpt lat="42.1389563" lon="13.6862798"><ele>715.0</ele><time>2026-05-01T08:39:04.06Z</time></trkpt><trkpt lat="42.1390943" lon="13.6861472"><ele>716.6666666666667</ele><time>2026-05-01T08:39:05.072Z</time></trkpt><trkpt lat="42.1392411" lon="13.6860007"><ele>718.3333333333334</ele><time>2026-05-01T08:39:06.065Z</time></trkpt><trkpt lat="42.1393994" lon="13.6858488"><ele>720.0</ele><time>2026-05-01T08:39:07.059Z</time></trkpt><trkpt lat="42.139575" lon="13.6857079"><ele>720.0</ele><time>2026-05-01T08:39:08.047Z</time></trkpt><trkpt lat="42.1397629" lon="13.6856032"><ele>720.0</ele><time>2026-05-01T08:39:09.063Z</time></trkpt><trkpt lat="42.1399546" lon="13.685541"><ele>720.0</ele><time>2026-05-01T08:39:10.055Z</time></trkpt><trkpt lat="42.1401423" lon="13.6854905"><ele>716.0</ele><time>2026-05-01T08:39:11.064Z</time></trkpt><trkpt lat="42.1403278" lon="13.6854375"><ele>712.0</ele><time>2026-05-01T08:39:12.053Z</time></trkpt><trkpt lat="42.1405095" lon="13.6853876"><ele>708.0</ele><time>2026-05-01T08:39:13.059Z</time></trkpt><trkpt lat="42.1406823" lon="13.6853326"><ele>708.3333333333334</ele><time>2026-05-01T08:39:14.052Z</time></trkpt><trkpt lat="42.1408484" lon="13.6852777"><ele>708.6666666666667</ele><time>2026-05-01T08:39:15.048Z</time></trkpt><trkpt lat="42.1410117" lon="13.6852152"><ele>709.0</ele><time>2026-05-01T08:39:16.075Z</time></trkpt><trkpt lat="42.1411731" lon="13.6851441"><ele>712.6666666666667</ele><time>2026-05-01T08:39:17.067Z</time></trkpt><trkpt lat="42.1413241" lon="13.6850571"><ele>716.3333333333334</ele><time>2026-05-01T08:39:18.06Z</time></trkpt><trkpt lat="42.1414743" lon="13.6849518"><ele>720.0</ele><time>2026-05-01T08:39:19.051Z</time></trkpt><trkpt lat="42.1416195" lon="13.684838"><ele>720.0</ele><time>2026-05-01T08:39:20.065Z</time></trkpt><trkpt lat="42.1417612" lon="13.684713"><ele>720.0</ele><time>2026-05-01T08:39:21.053Z</time></trkpt><trkpt lat="42.1418948" lon="13.6845861"><ele>720.0</ele><time>2026-05-01T08:39:22.057Z</time></trkpt><trkpt lat="42.142025" lon="13.6844597"><ele>720.3333333333334</ele><time>2026-05-01T08:39:23.083Z</time></trkpt><trkpt lat="42.1421547" lon="13.6843379"><ele>720.6666666666667</ele><time>2026-05-01T08:39:24.066Z</time></trkpt><trkpt lat="42.1422856" lon="13.684224"><ele>721.0</ele><time>2026-05-01T08:39:25.046Z</time></trkpt><trkpt lat="42.1424185" lon="13.6841245"><ele>721.0</ele><time>2026-05-01T08:39:26.062Z</time></trkpt><trkpt lat="42.1425578" lon="13.684047"><ele>721.0</ele><time>2026-05-01T08:39:27.066Z</time></trkpt><trkpt lat="42.142709" lon="13.6839938"><ele>721.0</ele><time>2026-05-01T08:39:28.073Z</time></trkpt><trkpt lat="42.1428725" lon="13.6839732"><ele>721.0</ele><time>2026-05-01T08:39:29.075Z</time></trkpt><trkpt lat="42.143045" lon="13.6839778"><ele>721.0</ele><time>2026-05-01T08:39:30.068Z</time></trkpt><trkpt lat="42.1432216" lon="13.6840005"><ele>721.0</ele><time>2026-05-01T08:39:31.05Z</time></trkpt><trkpt lat="42.1433974" lon="13.684018"><ele>722.6666666666667</ele><time>2026-05-01T08:39:32.05Z</time></trkpt><trkpt lat="42.143572" lon="13.6840349"><ele>724.3333333333334</ele><time>2026-05-01T08:39:33.054Z</time></trkpt><trkpt lat="42.1437398" lon="13.6840393"><ele>726.0</ele><time>2026-05-01T08:39:34.055Z</time></trkpt><trkpt lat="42.1439064" lon="13.684037"><ele>727.3333333333334</ele><time>2026-05-01T08:39:35.053Z</time></trkpt><trkpt lat="42.14407" lon="13.6840273"><ele>728.6666666666667</ele><time>2026-05-01T08:39:36.073Z</time></trkpt><trkpt lat="42.1442265" lon="13.6840035"><ele>730.0</ele><time>2026-05-01T08:39:37.05Z</time></trkpt><trkpt lat="42.1443852" lon="13.6839784"><ele>730.0</ele><time>2026-05-01T08:39:38.045Z</time></trkpt><trkpt lat="42.1445438" lon="13.6839483"><ele>730.0</ele><time>2026-05-01T08:39:39.043Z</time></trkpt><trkpt lat="42.1446971" lon="13.6839107"><ele>730.0</ele><time>2026-05-01T08:39:40.055Z</time></trkpt><trkpt lat="42.1448479" lon="13.6838665"><ele>729.3333333333334</ele><time>2026-05-01T08:39:41.086Z</time></trkpt><trkpt lat="42.1449919" lon="13.6837951"><ele>728.6666666666666</ele><time>2026-05-01T08:39:42.058Z</time></trkpt><trkpt lat="42.1451336" lon="13.6837099"><ele>728.0</ele><time>2026-05-01T08:39:43.057Z</time></trkpt><trkpt lat="42.1452773" lon="13.6835998"><ele>730.0</ele><time>2026-05-01T08:39:44.055Z</time></trkpt><trkpt lat="42.1454146" lon="13.6834646"><ele>732.0</ele><time>2026-05-01T08:39:45.059Z</time></trkpt><trkpt lat="42.1455521" lon="13.6833272"><ele>734.0</ele><time>2026-05-01T08:39:46.062Z</time></trkpt><trkpt lat="42.145687" lon="13.6831968"><ele>732.6666666666666</ele><time>2026-05-01T08:39:47.066Z</time></trkpt><trkpt lat="42.1458194" lon="13.6830634"><ele>731.3333333333334</ele><time>2026-05-01T08:39:48.051Z</time></trkpt><trkpt lat="42.1459556" lon="13.6829356"><ele>730.0</ele><time>2026-05-01T08:39:49.055Z</time></trkpt><trkpt lat="42.1460873" lon="13.6828085"><ele>732.5</ele><time>2026-05-01T08:39:50.062Z</time></trkpt><trkpt lat="42.1462145" lon="13.6826812"><ele>735.0</ele><time>2026-05-01T08:39:51.068Z</time></trkpt><trkpt lat="42.1463291" lon="13.682557"><ele>737.5</ele><time>2026-05-01T08:39:52.054Z</time></trkpt><trkpt lat="42.1464192" lon="13.6824202"><ele>740.0</ele><time>2026-05-01T08:39:53.076Z</time></trkpt><trkpt lat="42.1464785" lon="13.6822681"><ele>740.0</ele><time>2026-05-01T08:39:54.047Z</time></trkpt><trkpt lat="42.1465065" lon="13.6820916"><ele>740.0</ele><time>2026-05-01T08:39:55.051Z</time></trkpt><trkpt lat="42.1465103" lon="13.6819025"><ele>740.0</ele><time>2026-05-01T08:39:56.063Z</time></trkpt><trkpt lat="42.146479" lon="13.6816853"><ele>740.0</ele><time>2026-05-01T08:39:57.059Z</time></trkpt><trkpt lat="42.1464201" lon="13.6814652"><ele>741.5</ele><time>2026-05-01T08:39:58.051Z</time></trkpt><trkpt lat="42.1463586" lon="13.6812659"><ele>743.0</ele><time>2026-05-01T08:39:59.055Z</time></trkpt><trkpt lat="42.1463102" lon="13.6811027"><ele>744.5</ele><time>2026-05-01T08:40:00.047Z</time></trkpt><trkpt lat="42.1462774" lon="13.6809532"><ele>746.0</ele><time>2026-05-01T08:40:01.048Z</time></trkpt><trkpt lat="42.1462863" lon="13.6808257"><ele>746.5999999999999</ele><time>2026-05-01T08:40:02.042Z</time></trkpt><trkpt lat="42.1463262" lon="13.6807106"><ele>747.2</ele><time>2026-05-01T08:40:03.051Z</time></trkpt><trkpt lat="42.1464056" lon="13.6806242"><ele>747.8</ele><time>2026-05-01T08:40:04.049Z</time></trkpt><trkpt lat="42.1465083" lon="13.6805955"><ele>748.4000000000001</ele><time>2026-05-01T08:40:05.057Z</time></trkpt><trkpt lat="42.1466174" lon="13.6805979"><ele>749.0</ele><time>2026-05-01T08:40:06.047Z</time></trkpt><trkpt lat="42.1467329" lon="13.6806537"><ele>746.5</ele><time>2026-05-01T08:40:07.055Z</time></trkpt><trkpt lat="42.1468682" lon="13.6807298"><ele>744.0</ele><time>2026-05-01T08:40:08.054Z</time></trkpt><trkpt lat="42.1470035" lon="13.6808024"><ele>741.5</ele><time>2026-05-01T08:40:09.041Z</time></trkpt><trkpt lat="42.1471388" lon="13.6808655"><ele>739.0</ele><time>2026-05-01T08:40:10.055Z</time></trkpt><trkpt lat="42.1472656" lon="13.6808968"><ele>738.5</ele><time>2026-05-01T08:40:11.055Z</time></trkpt><trkpt lat="42.1473946" lon="13.6808847"><ele>738.0</ele><time>2026-05-01T08:40:12.049Z</time></trkpt><trkpt lat="42.1475158" lon="13.6808231"><ele>737.5</ele><time>2026-05-01T08:40:13.039Z</time></trkpt><trkpt lat="42.1476282" lon="13.6807161"><ele>737.0</ele><time>2026-05-01T08:40:14.049Z</time></trkpt><trkpt lat="42.1477221" lon="13.680575"><ele>737.0</ele><time>2026-05-01T08:40:15.062Z</time></trkpt><trkpt lat="42.1478053" lon="13.6804115"><ele>737.0</ele><time>2026-05-01T08:40:16.058Z</time></trkpt><trkpt lat="42.1478874" lon="13.6802551"><ele>737.0</ele><time>2026-05-01T08:40:17.057Z</time></trkpt><trkpt lat="42.1479648" lon="13.6801057"><ele>737.0</ele><time>2026-05-01T08:40:18.054Z</time></trkpt><trkpt lat="42.1480473" lon="13.6799741"><ele>737.0</ele><time>2026-05-01T08:40:19.058Z</time></trkpt><trkpt lat="42.1481317" lon="13.6798628"><ele>737.0</ele><time>2026-05-01T08:40:20.073Z</time></trkpt><trkpt lat="42.1482271" lon="13.6797809"><ele>737.0</ele><time>2026-05-01T08:40:21.048Z</time></trkpt><trkpt lat="42.1483266" lon="13.6797509"><ele>737.0</ele><time>2026-05-01T08:40:22.05Z</time></trkpt><trkpt lat="42.1484245" lon="13.6797654"><ele>737.0</ele><time>2026-05-01T08:40:23.046Z</time></trkpt><trkpt lat="42.1485213" lon="13.679818"><ele>737.0</ele><time>2026-05-01T08:40:24.054Z</time></trkpt><trkpt lat="42.1486184" lon="13.6798794"><ele>737.0</ele><time>2026-05-01T08:40:25.056Z</time></trkpt><trkpt lat="42.14872" lon="13.6799569"><ele>737.0</ele><time>2026-05-01T08:40:26.05Z</time></trkpt><trkpt lat="42.148826" lon="13.6800455"><ele>737.0</ele><time>2026-05-01T08:40:27.049Z</time></trkpt><trkpt lat="42.1489303" lon="13.6801335"><ele>737.0</ele><time>2026-05-01T08:40:28.047Z</time></trkpt><trkpt lat="42.1490299" lon="13.6802245"><ele>737.0</ele><time>2026-05-01T08:40:29.055Z</time></trkpt><trkpt lat="42.1491289" lon="13.6803188"><ele>737.0</ele><time>2026-05-01T08:40:30.065Z</time></trkpt><trkpt lat="42.1492304" lon="13.6804221"><ele>737.0</ele><time>2026-05-01T08:40:31.047Z</time></trkpt><trkpt lat="42.1493327" lon="13.6805316"><ele>736.5</ele><time>2026-05-01T08:40:32.047Z</time></trkpt><trkpt lat="42.1494335" lon="13.6806373"><ele>736.0</ele><time>2026-05-01T08:40:33.059Z</time></trkpt><trkpt lat="42.1495345" lon="13.6807382"><ele>735.5</ele><time>2026-05-01T08:40:34.052Z</time></trkpt><trkpt lat="42.1496543" lon="13.6808256"><ele>735.0</ele><time>2026-05-01T08:40:35.049Z</time></trkpt><trkpt lat="42.1497822" lon="13.6808949"><ele>737.75</ele><time>2026-05-01T08:40:36.045Z</time></trkpt><trkpt lat="42.1499112" lon="13.6809464"><ele>740.5</ele><time>2026-05-01T08:40:37.056Z</time></trkpt><trkpt lat="42.1500443" lon="13.6810021"><ele>743.25</ele><time>2026-05-01T08:40:38.054Z</time></trkpt><trkpt lat="42.1501818" lon="13.6810569"><ele>746.0</ele><time>2026-05-01T08:40:39.05Z</time></trkpt><trkpt lat="42.1503225" lon="13.6811216"><ele>742.3333333333333</ele><time>2026-05-01T08:40:40.057Z</time></trkpt><trkpt lat="42.1504589" lon="13.6811988"><ele>738.6666666666666</ele><time>2026-05-01T08:40:41.05Z</time></trkpt><trkpt lat="42.1505989" lon="13.6812895"><ele>735.0</ele><time>2026-05-01T08:40:42.051Z</time></trkpt><trkpt lat="42.1507315" lon="13.6813785"><ele>735.0</ele><time>2026-05-01T08:40:43.06Z</time></trkpt><trkpt lat="42.1508616" lon="13.6814722"><ele>735.0</ele><time>2026-05-01T08:40:44.055Z</time></trkpt><trkpt lat="42.1509785" lon="13.68158"><ele>735.0</ele><time>2026-05-01T08:40:45.056Z</time></trkpt><trkpt lat="42.1510906" lon="13.6817059"><ele>735.0</ele><time>2026-05-01T08:40:46.045Z</time></trkpt><trkpt lat="42.1511967" lon="13.6818538"><ele>729.3333333333334</ele><time>2026-05-01T08:40:47.063Z</time></trkpt><trkpt lat="42.1512867" lon="13.6820246"><ele>723.6666666666667</ele><time>2026-05-01T08:40:48.05Z</time></trkpt><trkpt lat="42.1513643" lon="13.6822146"><ele>718.0</ele><time>2026-05-01T08:40:49.053Z</time></trkpt><trkpt lat="42.1514289" lon="13.6824034"><ele>718.0</ele><time>2026-05-01T08:40:50.054Z</time></trkpt><trkpt lat="42.1514842" lon="13.6825988"><ele>718.0</ele><time>2026-05-01T08:40:51.054Z</time></trkpt><trkpt lat="42.1515388" lon="13.6827857"><ele>718.0</ele><time>2026-05-01T08:40:52.056Z</time></trkpt><trkpt lat="42.1515927" lon="13.6829727"><ele>718.25</ele><time>2026-05-01T08:40:53.063Z</time></trkpt><trkpt lat="42.1516386" lon="13.683151"><ele>718.5</ele><time>2026-05-01T08:40:54.052Z</time></trkpt><trkpt lat="42.1516737" lon="13.6833333"><ele>718.75</ele><time>2026-05-01T08:40:55.054Z</time></trkpt><trkpt lat="42.1516949" lon="13.6835096"><ele>719.0</ele><time>2026-05-01T08:40:56.053Z</time></trkpt><trkpt lat="42.1517065" lon="13.6836942"><ele>719.0</ele><time>2026-05-01T08:40:57.06Z</time></trkpt><trkpt lat="42.1517112" lon="13.6838919"><ele>719.0</ele><time>2026-05-01T08:40:58.055Z</time></trkpt><trkpt lat="42.1517028" lon="13.6840941"><ele>719.0</ele><time>2026-05-01T08:40:59.067Z</time></trkpt><trkpt lat="42.1516904" lon="13.6842919"><ele>719.0</ele><time>2026-05-01T08:41:00.043Z</time></trkpt><trkpt lat="42.1516769" lon="13.68449"><ele>717.25</ele><time>2026-05-01T08:41:01.057Z</time></trkpt><trkpt lat="42.1516659" lon="13.6846945"><ele>715.5</ele><time>2026-05-01T08:41:02.046Z</time></trkpt><trkpt lat="42.1516564" lon="13.6848958"><ele>713.75</ele><time>2026-05-01T08:41:03.036Z</time></trkpt><trkpt lat="42.1516496" lon="13.6850915"><ele>712.0</ele><time>2026-05-01T08:41:04.062Z</time></trkpt><trkpt lat="42.151641" lon="13.6852701"><ele>710.6</ele><time>2026-05-01T08:41:05.057Z</time></trkpt><trkpt lat="42.1516362" lon="13.6854298"><ele>709.2</ele><time>2026-05-01T08:41:06.084Z</time></trkpt><trkpt lat="42.1516444" lon="13.685575"><ele>707.8</ele><time>2026-05-01T08:41:07.042Z</time></trkpt><trkpt lat="42.1516726" lon="13.6857083"><ele>706.4</ele><time>2026-05-01T08:41:08.044Z</time></trkpt><trkpt lat="42.1517286" lon="13.6858166"><ele>705.0</ele><time>2026-05-01T08:41:09.042Z</time></trkpt><trkpt lat="42.1518154" lon="13.6858899"><ele>705.0</ele><time>2026-05-01T08:41:10.056Z</time></trkpt><trkpt lat="42.1519307" lon="13.6859253"><ele>705.0</ele><time>2026-05-01T08:41:11.051Z</time></trkpt><trkpt lat="42.1520603" lon="13.6859172"><ele>705.0</ele><time>2026-05-01T08:41:12.051Z</time></trkpt><trkpt lat="42.152193" lon="13.6858809"><ele>705.0</ele><time>2026-05-01T08:41:13.052Z</time></trkpt><trkpt lat="42.1523326" lon="13.6858473"><ele>705.25</ele><time>2026-05-01T08:41:14.049Z</time></trkpt><trkpt lat="42.1524719" lon="13.6858308"><ele>705.5</ele><time>2026-05-01T08:41:15.073Z</time></trkpt><trkpt lat="42.152602" lon="13.6858349"><ele>705.75</ele><time>2026-05-01T08:41:16.054Z</time></trkpt><trkpt lat="42.1527274" lon="13.6858389"><ele>706.0</ele><time>2026-05-01T08:41:17.051Z</time></trkpt><trkpt lat="42.15284" lon="13.6858275"><ele>706.0</ele><time>2026-05-01T08:41:18.06Z</time></trkpt><trkpt lat="42.1529451" lon="13.685788"><ele>706.0</ele><time>2026-05-01T08:41:19.046Z</time></trkpt><trkpt lat="42.1530362" lon="13.6857045"><ele>706.0</ele><time>2026-05-01T08:41:20.046Z</time></trkpt><trkpt lat="42.1531229" lon="13.6855772"><ele>706.0</ele><time>2026-05-01T08:41:21.054Z</time></trkpt><trkpt lat="42.1531991" lon="13.685423"><ele>706.5</ele><time>2026-05-01T08:41:22.04Z</time></trkpt><trkpt lat="42.1532659" lon="13.6852606"><ele>707.0</ele><time>2026-05-01T08:41:23.05Z</time></trkpt><trkpt lat="42.1533306" lon="13.685087"><ele>707.5</ele><time>2026-05-01T08:41:24.045Z</time></trkpt><trkpt lat="42.1534035" lon="13.6849282"><ele>708.0</ele><time>2026-05-01T08:41:25.095Z</time></trkpt><trkpt lat="42.1534732" lon="13.6847708"><ele>708.0</ele><time>2026-05-01T08:41:26.053Z</time></trkpt><trkpt lat="42.1535421" lon="13.684622"><ele>708.0</ele><time>2026-05-01T08:41:27.037Z</time></trkpt><trkpt lat="42.1536202" lon="13.6844887"><ele>708.0</ele><time>2026-05-01T08:41:28.059Z</time></trkpt><trkpt lat="42.1536918" lon="13.6843635"><ele>708.0</ele><time>2026-05-01T08:41:29.052Z</time></trkpt><trkpt lat="42.1537566" lon="13.6842521"><ele>708.8333333333334</ele><time>2026-05-01T08:41:30.041Z</time></trkpt><trkpt lat="42.1538237" lon="13.6841659"><ele>709.6666666666666</ele><time>2026-05-01T08:41:31.083Z</time></trkpt><trkpt lat="42.1538863" lon="13.684091"><ele>710.5</ele><time>2026-05-01T08:41:32.037Z</time></trkpt><trkpt lat="42.1539537" lon="13.6840516"><ele>711.3333333333333</ele><time>2026-05-01T08:41:33.047Z</time></trkpt><trkpt lat="42.1540237" lon="13.6840501"><ele>712.1666666666666</ele><time>2026-05-01T08:41:34.052Z</time></trkpt><trkpt lat="42.1540872" lon="13.6840909"><ele>713.0</ele><time>2026-05-01T08:41:35.042Z</time></trkpt><trkpt lat="42.1541342" lon="13.6841786"><ele>712.0</ele><time>2026-05-01T08:41:36.069Z</time></trkpt><trkpt lat="42.1541478" lon="13.6842956"><ele>711.0</ele><time>2026-05-01T08:41:37.045Z</time></trkpt><trkpt lat="42.1541241" lon="13.6844309"><ele>710.0</ele><time>2026-05-01T08:41:38.046Z</time></trkpt><trkpt lat="42.1540756" lon="13.6845834"><ele>709.0</ele><time>2026-05-01T08:41:39.043Z</time></trkpt><trkpt lat="42.1540307" lon="13.6847402"><ele>708.0</ele><time>2026-05-01T08:41:40.044Z</time></trkpt><trkpt lat="42.1539865" lon="13.6849081"><ele>708.0</ele><time>2026-05-01T08:41:41.045Z</time></trkpt><trkpt lat="42.1539426" lon="13.6850876"><ele>708.0</ele><time>2026-05-01T08:41:42.047Z</time></trkpt><trkpt lat="42.1538985" lon="13.6852639"><ele>708.0</ele><time>2026-05-01T08:41:43.048Z</time></trkpt><trkpt lat="42.1538498" lon="13.685447"><ele>708.0</ele><time>2026-05-01T08:41:44.052Z</time></trkpt><trkpt lat="42.1538031" lon="13.6856392"><ele>703.0</ele><time>2026-05-01T08:41:45.037Z</time></trkpt><trkpt lat="42.1537537" lon="13.685832"><ele>698.0</ele><time>2026-05-01T08:41:46.056Z</time></trkpt><trkpt lat="42.1537035" lon="13.686029"><ele>693.0</ele><time>2026-05-01T08:41:47.047Z</time></trkpt><trkpt lat="42.153653" lon="13.6862339"><ele>690.25</ele><time>2026-05-01T08:41:48.048Z</time></trkpt><trkpt lat="42.1536152" lon="13.6864335"><ele>687.5</ele><time>2026-05-01T08:41:49.047Z</time></trkpt><trkpt lat="42.1535725" lon="13.6866164"><ele>684.75</ele><time>2026-05-01T08:41:50.048Z</time></trkpt><trkpt lat="42.1535352" lon="13.686796"><ele>682.0</ele><time>2026-05-01T08:41:51.043Z</time></trkpt><trkpt lat="42.1534943" lon="13.6869826"><ele>680.25</ele><time>2026-05-01T08:41:52.053Z</time></trkpt><trkpt lat="42.1534492" lon="13.6871695"><ele>678.5</ele><time>2026-05-01T08:41:53.051Z</time></trkpt><trkpt lat="42.1534108" lon="13.6873591"><ele>676.75</ele><time>2026-05-01T08:41:54.046Z</time></trkpt><trkpt lat="42.1533792" lon="13.6875483"><ele>675.0</ele><time>2026-05-01T08:41:55.066Z</time></trkpt><trkpt lat="42.1533454" lon="13.6877371"><ele>673.6666666666666</ele><time>2026-05-01T08:41:56.059Z</time></trkpt><trkpt lat="42.1533182" lon="13.6879371"><ele>672.3333333333333</ele><time>2026-05-01T08:41:57.055Z</time></trkpt><trkpt lat="42.1532938" lon="13.6881413"><ele>671.0</ele><time>2026-05-01T08:41:58.049Z</time></trkpt><trkpt lat="42.1532762" lon="13.6883505"><ele>671.0</ele><time>2026-05-01T08:41:59.055Z</time></trkpt><trkpt lat="42.1532557" lon="13.6885654"><ele>671.0</ele><time>2026-05-01T08:42:00.053Z</time></trkpt><trkpt lat="42.1532389" lon="13.6887772"><ele>671.0</ele><time>2026-05-01T08:42:01.048Z</time></trkpt><trkpt lat="42.1532247" lon="13.6889871"><ele>669.3333333333333</ele><time>2026-05-01T08:42:02.047Z</time></trkpt><trkpt lat="42.1532125" lon="13.689201"><ele>667.6666666666666</ele><time>2026-05-01T08:42:03.05Z</time></trkpt><trkpt lat="42.1532016" lon="13.6894254"><ele>666.0</ele><time>2026-05-01T08:42:04.058Z</time></trkpt><trkpt lat="42.1531895" lon="13.6896491"><ele>661.6666666666666</ele><time>2026-05-01T08:42:05.051Z</time></trkpt><trkpt lat="42.1531832" lon="13.6898827"><ele>657.3333333333333</ele><time>2026-05-01T08:42:06.066Z</time></trkpt><trkpt lat="42.15318" lon="13.6901146"><ele>653.0</ele><time>2026-05-01T08:42:07.054Z</time></trkpt><trkpt lat="42.1531749" lon="13.690346"><ele>651.3333333333333</ele><time>2026-05-01T08:42:08.049Z</time></trkpt><trkpt lat="42.1531685" lon="13.6905706"><ele>649.6666666666666</ele><time>2026-05-01T08:42:09.046Z</time></trkpt><trkpt lat="42.1531544" lon="13.6907933"><ele>648.0</ele><time>2026-05-01T08:42:10.049Z</time></trkpt><trkpt lat="42.1531363" lon="13.6910184"><ele>647.0</ele><time>2026-05-01T08:42:11.057Z</time></trkpt><trkpt lat="42.1531139" lon="13.6912436"><ele>646.0</ele><time>2026-05-01T08:42:12.059Z</time></trkpt><trkpt lat="42.1530916" lon="13.6914668"><ele>645.0</ele><time>2026-05-01T08:42:13.047Z</time></trkpt><trkpt lat="42.1530696" lon="13.6916905"><ele>645.0</ele><time>2026-05-01T08:42:14.058Z</time></trkpt><trkpt lat="42.1530484" lon="13.6919144"><ele>645.0</ele><time>2026-05-01T08:42:15.061Z</time></trkpt><trkpt lat="42.1530365" lon="13.6921434"><ele>645.0</ele><time>2026-05-01T08:42:16.047Z</time></trkpt><trkpt lat="42.1530317" lon="13.6923736"><ele>642.6666666666666</ele><time>2026-05-01T08:42:17.069Z</time></trkpt><trkpt lat="42.1530321" lon="13.6926011"><ele>640.3333333333333</ele><time>2026-05-01T08:42:18.046Z</time></trkpt><trkpt lat="42.153029" lon="13.6928204"><ele>638.0</ele><time>2026-05-01T08:42:19.059Z</time></trkpt><trkpt lat="42.1530277" lon="13.6930407"><ele>636.6666666666666</ele><time>2026-05-01T08:42:20.053Z</time></trkpt><trkpt lat="42.1530158" lon="13.6932595"><ele>635.3333333333334</ele><time>2026-05-01T08:42:21.062Z</time></trkpt><trkpt lat="42.1529884" lon="13.6934799"><ele>634.0</ele><time>2026-05-01T08:42:22.075Z</time></trkpt><trkpt lat="42.1529506" lon="13.6936963"><ele>633.0</ele><time>2026-05-01T08:42:23.053Z</time></trkpt><trkpt lat="42.1528944" lon="13.6939107"><ele>632.0</ele><time>2026-05-01T08:42:24.055Z</time></trkpt><trkpt lat="42.152826" lon="13.6941285"><ele>631.0</ele><time>2026-05-01T08:42:25.057Z</time></trkpt><trkpt lat="42.1527531" lon="13.6943443"><ele>629.6666666666667</ele><time>2026-05-01T08:42:26.046Z</time></trkpt><trkpt lat="42.1526766" lon="13.6945644"><ele>628.3333333333334</ele><time>2026-05-01T08:42:27.056Z</time></trkpt><trkpt lat="42.1525983" lon="13.6947852"><ele>627.0</ele><time>2026-05-01T08:42:28.056Z</time></trkpt><trkpt lat="42.1525241" lon="13.6950097"><ele>627.0</ele><time>2026-05-01T08:42:29.061Z</time></trkpt><trkpt lat="42.1524487" lon="13.6952301"><ele>627.0</ele><time>2026-05-01T08:42:30.041Z</time></trkpt><trkpt lat="42.1523792" lon="13.6954385"><ele>627.0</ele><time>2026-05-01T08:42:31.049Z</time></trkpt><trkpt lat="42.152312" lon="13.6956435"><ele>625.0</ele><time>2026-05-01T08:42:32.044Z</time></trkpt><trkpt lat="42.152243" lon="13.6958483"><ele>623.0</ele><time>2026-05-01T08:42:33.049Z</time></trkpt><trkpt lat="42.1521661" lon="13.6960686"><ele>621.0</ele><time>2026-05-01T08:42:34.065Z</time></trkpt><trkpt lat="42.1520881" lon="13.6962851"><ele>620.0</ele><time>2026-05-01T08:42:35.053Z</time></trkpt><trkpt lat="42.1520182" lon="13.6965018"><ele>619.0</ele><time>2026-05-01T08:42:36.048Z</time></trkpt><trkpt lat="42.1519495" lon="13.6967144"><ele>618.0</ele><time>2026-05-01T08:42:37.09Z</time></trkpt><trkpt lat="42.1518784" lon="13.6969203"><ele>617.0</ele><time>2026-05-01T08:42:38.047Z</time></trkpt><trkpt lat="42.1518147" lon="13.6971216"><ele>616.0</ele><time>2026-05-01T08:42:39.059Z</time></trkpt><trkpt lat="42.1517607" lon="13.6973208"><ele>615.0</ele><time>2026-05-01T08:42:40.047Z</time></trkpt><trkpt lat="42.1517078" lon="13.6975059"><ele>615.0</ele><time>2026-05-01T08:42:41.044Z</time></trkpt><trkpt lat="42.15167" lon="13.6976966"><ele>615.0</ele><time>2026-05-01T08:42:42.051Z</time></trkpt><trkpt lat="42.1516373" lon="13.6978973"><ele>615.0</ele><time>2026-05-01T08:42:43.063Z</time></trkpt><trkpt lat="42.1516229" lon="13.6981045"><ele>614.5</ele><time>2026-05-01T08:42:44.047Z</time></trkpt><trkpt lat="42.1516136" lon="13.698303"><ele>614.0</ele><time>2026-05-01T08:42:45.05Z</time></trkpt><trkpt lat="42.1516149" lon="13.6985025"><ele>613.5</ele><time>2026-05-01T08:42:46.055Z</time></trkpt><trkpt lat="42.1516203" lon="13.6987075"><ele>613.0</ele><time>2026-05-01T08:42:47.059Z</time></trkpt><trkpt lat="42.1516312" lon="13.6989137"><ele>612.0</ele><time>2026-05-01T08:42:48.049Z</time></trkpt><trkpt lat="42.151646" lon="13.6991194"><ele>611.0</ele><time>2026-05-01T08:42:49.051Z</time></trkpt><trkpt lat="42.1516638" lon="13.6993237"><ele>610.0</ele><time>2026-05-01T08:42:50.049Z</time></trkpt><trkpt lat="42.1516885" lon="13.6995265"><ele>608.0</ele><time>2026-05-01T08:42:51.062Z</time></trkpt><trkpt lat="42.151717" lon="13.6997261"><ele>606.0</ele><time>2026-05-01T08:42:52.065Z</time></trkpt><trkpt lat="42.1517473" lon="13.6999254"><ele>604.0</ele><time>2026-05-01T08:42:53.071Z</time></trkpt><trkpt lat="42.1517757" lon="13.7001229"><ele>603.5</ele><time>2026-05-01T08:42:54.052Z</time></trkpt><trkpt lat="42.1518047" lon="13.7003205"><ele>603.0</ele><time>2026-05-01T08:42:55.055Z</time></trkpt><trkpt lat="42.1518268" lon="13.7005159"><ele>602.5</ele><time>2026-05-01T08:42:56.053Z</time></trkpt><trkpt lat="42.1518224" lon="13.7007091"><ele>602.0</ele><time>2026-05-01T08:42:57.05Z</time></trkpt><trkpt lat="42.1517905" lon="13.70091"><ele>601.3333333333333</ele><time>2026-05-01T08:42:58.074Z</time></trkpt><trkpt lat="42.1517394" lon="13.7011158"><ele>600.6666666666666</ele><time>2026-05-01T08:42:59.05Z</time></trkpt><trkpt lat="42.1516711" lon="13.7013178"><ele>600.0</ele><time>2026-05-01T08:43:00.052Z</time></trkpt><trkpt lat="42.1515961" lon="13.7015193"><ele>599.6666666666666</ele><time>2026-05-01T08:43:01.045Z</time></trkpt><trkpt lat="42.1515263" lon="13.7017229"><ele>599.3333333333333</ele><time>2026-05-01T08:43:02.054Z</time></trkpt><trkpt lat="42.1514631" lon="13.7019222"><ele>599.0</ele><time>2026-05-01T08:43:03.057Z</time></trkpt><trkpt lat="42.1514016" lon="13.7021202"><ele>598.3333333333333</ele><time>2026-05-01T08:43:04.051Z</time></trkpt><trkpt lat="42.1513392" lon="13.7023172"><ele>597.6666666666666</ele><time>2026-05-01T08:43:05.062Z</time></trkpt><trkpt lat="42.151267" lon="13.7025202"><ele>597.0</ele><time>2026-05-01T08:43:06.055Z</time></trkpt><trkpt lat="42.1511968" lon="13.7027391"><ele>596.3333333333334</ele><time>2026-05-01T08:43:07.09Z</time></trkpt><trkpt lat="42.1511329" lon="13.7029752"><ele>595.6666666666667</ele><time>2026-05-01T08:43:08.051Z</time></trkpt><trkpt lat="42.1510818" lon="13.7032246"><ele>595.0</ele><time>2026-05-01T08:43:09.055Z</time></trkpt><trkpt lat="42.1510383" lon="13.7034772"><ele>595.0</ele><time>2026-05-01T08:43:10.053Z</time></trkpt><trkpt lat="42.150998" lon="13.7037199"><ele>595.0</ele><time>2026-05-01T08:43:11.053Z</time></trkpt><trkpt lat="42.1509617" lon="13.703968"><ele>595.0</ele><time>2026-05-01T08:43:12.059Z</time></trkpt><trkpt lat="42.1509181" lon="13.7042151"><ele>594.0</ele><time>2026-05-01T08:43:13.052Z</time></trkpt><trkpt lat="42.1508791" lon="13.7044667"><ele>593.0</ele><time>2026-05-01T08:43:14.083Z</time></trkpt><trkpt lat="42.1508445" lon="13.7047073"><ele>592.0</ele><time>2026-05-01T08:43:15.047Z</time></trkpt><trkpt lat="42.150809" lon="13.7049446"><ele>592.0</ele><time>2026-05-01T08:43:16.051Z</time></trkpt><trkpt lat="42.1507788" lon="13.7051783"><ele>592.0</ele><time>2026-05-01T08:43:17.062Z</time></trkpt><trkpt lat="42.150751" lon="13.7054073"><ele>592.0</ele><time>2026-05-01T08:43:18.059Z</time></trkpt><trkpt lat="42.150732" lon="13.7056398"><ele>592.0</ele><time>2026-05-01T08:43:19.059Z</time></trkpt><trkpt lat="42.150719" lon="13.705883"><ele>592.0</ele><time>2026-05-01T08:43:20.049Z</time></trkpt><trkpt lat="42.1507087" lon="13.7061259"><ele>592.0</ele><time>2026-05-01T08:43:21.063Z</time></trkpt><trkpt lat="42.1506981" lon="13.7063662"><ele>588.3333333333334</ele><time>2026-05-01T08:43:22.053Z</time></trkpt><trkpt lat="42.1506891" lon="13.7065912"><ele>584.6666666666666</ele><time>2026-05-01T08:43:23.053Z</time></trkpt><trkpt lat="42.1506714" lon="13.7068036"><ele>581.0</ele><time>2026-05-01T08:43:24.05Z</time></trkpt><trkpt lat="42.1506431" lon="13.7070147"><ele>580.6666666666666</ele><time>2026-05-01T08:43:25.047Z</time></trkpt><trkpt lat="42.150601" lon="13.7072273"><ele>580.3333333333334</ele><time>2026-05-01T08:43:26.047Z</time></trkpt><trkpt lat="42.1505485" lon="13.7074392"><ele>580.0</ele><time>2026-05-01T08:43:27.048Z</time></trkpt><trkpt lat="42.150476" lon="13.7076608"><ele>579.0</ele><time>2026-05-01T08:43:28.042Z</time></trkpt><trkpt lat="42.1503972" lon="13.7078834"><ele>578.0</ele><time>2026-05-01T08:43:29.052Z</time></trkpt><trkpt lat="42.1503126" lon="13.7081077"><ele>577.0</ele><time>2026-05-01T08:43:30.06Z</time></trkpt><trkpt lat="42.1502256" lon="13.7083405"><ele>577.0</ele><time>2026-05-01T08:43:31.051Z</time></trkpt><trkpt lat="42.1501341" lon="13.7085718"><ele>577.0</ele><time>2026-05-01T08:43:32.054Z</time></trkpt><trkpt lat="42.1500422" lon="13.7088044"><ele>577.0</ele><time>2026-05-01T08:43:33.06Z</time></trkpt><trkpt lat="42.1499439" lon="13.7090408"><ele>575.3333333333334</ele><time>2026-05-01T08:43:34.09Z</time></trkpt><trkpt lat="42.1498504" lon="13.7092811"><ele>573.6666666666666</ele><time>2026-05-01T08:43:35.063Z</time></trkpt><trkpt lat="42.1497619" lon="13.70952"><ele>572.0</ele><time>2026-05-01T08:43:36.05Z</time></trkpt><trkpt lat="42.149678" lon="13.7097516"><ele>571.3333333333333</ele><time>2026-05-01T08:43:37.047Z</time></trkpt><trkpt lat="42.1495958" lon="13.7099757"><ele>570.6666666666666</ele><time>2026-05-01T08:43:38.055Z</time></trkpt><trkpt lat="42.1495192" lon="13.7101999"><ele>570.0</ele><time>2026-05-01T08:43:39.055Z</time></trkpt><trkpt lat="42.1494344" lon="13.7104212"><ele>569.3333333333334</ele><time>2026-05-01T08:43:40.061Z</time></trkpt><trkpt lat="42.1493428" lon="13.710629"><ele>568.6666666666667</ele><time>2026-05-01T08:43:41.05Z</time></trkpt><trkpt lat="42.1492354" lon="13.7108326"><ele>568.0</ele><time>2026-05-01T08:43:42.072Z</time></trkpt><trkpt lat="42.149113" lon="13.7110325"><ele>566.3333333333334</ele><time>2026-05-01T08:43:43.047Z</time></trkpt><trkpt lat="42.1489823" lon="13.7112154"><ele>564.6666666666666</ele><time>2026-05-01T08:43:44.053Z</time></trkpt><trkpt lat="42.1488533" lon="13.7113971"><ele>563.0</ele><time>2026-05-01T08:43:45.046Z</time></trkpt><trkpt lat="42.1487279" lon="13.7115697"><ele>563.0</ele><time>2026-05-01T08:43:46.06Z</time></trkpt><trkpt lat="42.1486174" lon="13.7117284"><ele>563.0</ele><time>2026-05-01T08:43:47.051Z</time></trkpt><trkpt lat="42.1485224" lon="13.7118639"><ele>563.0</ele><time>2026-05-01T08:43:48.059Z</time></trkpt><trkpt lat="42.1484475" lon="13.7119767"><ele>563.0</ele><time>2026-05-01T08:43:49.072Z</time></trkpt><trkpt lat="42.1483798" lon="13.7120672"><ele>562.8333333333333</ele><time>2026-05-01T08:43:50.044Z</time></trkpt><trkpt lat="42.1483299" lon="13.7121499"><ele>562.6666666666666</ele><time>2026-05-01T08:43:51.054Z</time></trkpt><trkpt lat="42.1482861" lon="13.712227"><ele>562.5</ele><time>2026-05-01T08:43:52.058Z</time></trkpt><trkpt lat="42.1482523" lon="13.7122988"><ele>562.3333333333334</ele><time>2026-05-01T08:43:53.046Z</time></trkpt><trkpt lat="42.1482626" lon="13.7124353"><ele>562.1666666666667</ele><time>2026-05-01T08:43:55.052Z</time></trkpt><trkpt lat="42.1483716" lon="13.7125345"><ele>562.0</ele><time>2026-05-01T08:43:57.041Z</time></trkpt><trkpt lat="42.1484381" lon="13.7125628"><ele>562.0</ele><time>2026-05-01T08:43:58.058Z</time></trkpt><trkpt lat="42.1485102" lon="13.7126073"><ele>562.0</ele><time>2026-05-01T08:43:59.05Z</time></trkpt><trkpt lat="42.1485902" lon="13.7126675"><ele>562.0</ele><time>2026-05-01T08:44:00.048Z</time></trkpt><trkpt lat="42.1486816" lon="13.7127406"><ele>562.0</ele><time>2026-05-01T08:44:01.051Z</time></trkpt><trkpt lat="42.1487808" lon="13.7128187"><ele>562.0</ele><time>2026-05-01T08:44:02.057Z</time></trkpt><trkpt lat="42.1488924" lon="13.7128986"><ele>561.5</ele><time>2026-05-01T08:44:03.071Z</time></trkpt><trkpt lat="42.1490113" lon="13.7129822"><ele>561.0</ele><time>2026-05-01T08:44:04.051Z</time></trkpt><trkpt lat="42.1491334" lon="13.7130716"><ele>560.5</ele><time>2026-05-01T08:44:05.051Z</time></trkpt><trkpt lat="42.1492582" lon="13.7131617"><ele>560.0</ele><time>2026-05-01T08:44:06.043Z</time></trkpt><trkpt lat="42.1493889" lon="13.713259"><ele>560.25</ele><time>2026-05-01T08:44:07.058Z</time></trkpt><trkpt lat="42.1495164" lon="13.713354"><ele>560.5</ele><time>2026-05-01T08:44:08.054Z</time></trkpt><trkpt lat="42.1496347" lon="13.7134453"><ele>560.75</ele><time>2026-05-01T08:44:09.067Z</time></trkpt><trkpt lat="42.1497491" lon="13.7135257"><ele>561.0</ele><time>2026-05-01T08:44:10.079Z</time></trkpt><trkpt lat="42.1498603" lon="13.7136083"><ele>560.5</ele><time>2026-05-01T08:44:11.056Z</time></trkpt><trkpt lat="42.1499682" lon="13.7136754"><ele>560.0</ele><time>2026-05-01T08:44:12.056Z</time></trkpt><trkpt lat="42.1500817" lon="13.7137231"><ele>559.5</ele><time>2026-05-01T08:44:13.056Z</time></trkpt><trkpt lat="42.1502074" lon="13.7137407"><ele>559.0</ele><time>2026-05-01T08:44:14.059Z</time></trkpt><trkpt lat="42.1503359" lon="13.7137181"><ele>559.0</ele><time>2026-05-01T08:44:15.042Z</time></trkpt><trkpt lat="42.1504612" lon="13.7136546"><ele>559.0</ele><time>2026-05-01T08:44:16.065Z</time></trkpt><trkpt lat="42.150567" lon="13.7135448"><ele>559.0</ele><time>2026-05-01T08:44:17.058Z</time></trkpt><trkpt lat="42.1506571" lon="13.7134037"><ele>559.0</ele><time>2026-05-01T08:44:18.054Z</time></trkpt><trkpt lat="42.1507455" lon="13.7132286"><ele>558.3333333333334</ele><time>2026-05-01T08:44:19.057Z</time></trkpt><trkpt lat="42.15082" lon="13.7130236"><ele>557.6666666666666</ele><time>2026-05-01T08:44:20.058Z</time></trkpt><trkpt lat="42.1508903" lon="13.7128211"><ele>557.0</ele><time>2026-05-01T08:44:21.054Z</time></trkpt><trkpt lat="42.1509616" lon="13.7126358"><ele>557.0</ele><time>2026-05-01T08:44:22.068Z</time></trkpt><trkpt lat="42.1510382" lon="13.7124596"><ele>557.0</ele><time>2026-05-01T08:44:23.053Z</time></trkpt><trkpt lat="42.1511213" lon="13.7122837"><ele>557.0</ele><time>2026-05-01T08:44:24.059Z</time></trkpt><trkpt lat="42.1511959" lon="13.7121162"><ele>557.0</ele><time>2026-05-01T08:44:25.058Z</time></trkpt><trkpt lat="42.1512649" lon="13.711957"><ele>557.0</ele><time>2026-05-01T08:44:26.052Z</time></trkpt><trkpt lat="42.1513433" lon="13.7118132"><ele>557.0</ele><time>2026-05-01T08:44:27.052Z</time></trkpt><trkpt lat="42.1514319" lon="13.7117021"><ele>557.0</ele><time>2026-05-01T08:44:28.05Z</time></trkpt><trkpt lat="42.1515372" lon="13.7116367"><ele>555.75</ele><time>2026-05-01T08:44:29.053Z</time></trkpt><trkpt lat="42.1516563" lon="13.7116184"><ele>554.5</ele><time>2026-05-01T08:44:30.047Z</time></trkpt><trkpt lat="42.1517884" lon="13.7116229"><ele>553.25</ele><time>2026-05-01T08:44:31.062Z</time></trkpt><trkpt lat="42.1519183" lon="13.7116516"><ele>552.0</ele><time>2026-05-01T08:44:32.047Z</time></trkpt><trkpt lat="42.1520416" lon="13.7116949"><ele>552.0</ele><time>2026-05-01T08:44:33.056Z</time></trkpt><trkpt lat="42.1521572" lon="13.711759"><ele>552.0</ele><time>2026-05-01T08:44:34.055Z</time></trkpt><trkpt lat="42.1522562" lon="13.7118605"><ele>552.0</ele><time>2026-05-01T08:44:35.044Z</time></trkpt><trkpt lat="42.1523289" lon="13.7119856"><ele>552.0</ele><time>2026-05-01T08:44:36.054Z</time></trkpt><trkpt lat="42.1523884" lon="13.7121531"><ele>551.25</ele><time>2026-05-01T08:44:37.059Z</time></trkpt><trkpt lat="42.152434" lon="13.7123451"><ele>550.5</ele><time>2026-05-01T08:44:38.046Z</time></trkpt><trkpt lat="42.1524741" lon="13.7125389"><ele>549.75</ele><time>2026-05-01T08:44:39.038Z</time></trkpt><trkpt lat="42.1525167" lon="13.7127197"><ele>549.0</ele><time>2026-05-01T08:44:40.055Z</time></trkpt><trkpt lat="42.152568" lon="13.7129152"><ele>543.6666666666666</ele><time>2026-05-01T08:44:41.057Z</time></trkpt><trkpt lat="42.1526348" lon="13.7131077"><ele>538.3333333333333</ele><time>2026-05-01T08:44:42.05Z</time></trkpt><trkpt lat="42.1526991" lon="13.713297"><ele>533.0</ele><time>2026-05-01T08:44:43.046Z</time></trkpt><trkpt lat="42.1527667" lon="13.7134671"><ele>530.75</ele><time>2026-05-01T08:44:44.047Z</time></trkpt><trkpt lat="42.1528358" lon="13.7136241"><ele>528.5</ele><time>2026-05-01T08:44:45.044Z</time></trkpt><trkpt lat="42.1529054" lon="13.7137704"><ele>526.25</ele><time>2026-05-01T08:44:46.058Z</time></trkpt><trkpt lat="42.1529849" lon="13.7139019"><ele>524.0</ele><time>2026-05-01T08:44:47.045Z</time></trkpt><trkpt lat="42.1530848" lon="13.713993"><ele>524.0</ele><time>2026-05-01T08:44:48.049Z</time></trkpt><trkpt lat="42.1531956" lon="13.7140547"><ele>524.0</ele><time>2026-05-01T08:44:49.056Z</time></trkpt><trkpt lat="42.1533215" lon="13.7140787"><ele>524.0</ele><time>2026-05-01T08:44:50.051Z</time></trkpt><trkpt lat="42.1534601" lon="13.7140598"><ele>524.0</ele><time>2026-05-01T08:44:51.049Z</time></trkpt><trkpt lat="42.1536052" lon="13.7140064"><ele>524.0</ele><time>2026-05-01T08:44:52.059Z</time></trkpt><trkpt lat="42.1537456" lon="13.7139277"><ele>524.0</ele><time>2026-05-01T08:44:53.063Z</time></trkpt><trkpt lat="42.153887" lon="13.7138517"><ele>524.0</ele><time>2026-05-01T08:44:54.052Z</time></trkpt><trkpt lat="42.1540171" lon="13.713779"><ele>524.0</ele><time>2026-05-01T08:44:55.077Z</time></trkpt><trkpt lat="42.1541381" lon="13.7137057"><ele>522.75</ele><time>2026-05-01T08:44:56.054Z</time></trkpt><trkpt lat="42.154262" lon="13.7136522"><ele>521.5</ele><time>2026-05-01T08:44:57.053Z</time></trkpt><trkpt lat="42.1543867" lon="13.7136317"><ele>520.25</ele><time>2026-05-01T08:44:58.05Z</time></trkpt><trkpt lat="42.1545215" lon="13.7136535"><ele>519.0</ele><time>2026-05-01T08:44:59.052Z</time></trkpt><trkpt lat="42.1546638" lon="13.7137061"><ele>519.0</ele><time>2026-05-01T08:45:00.052Z</time></trkpt><trkpt lat="42.1548118" lon="13.7137858"><ele>519.0</ele><time>2026-05-01T08:45:01.052Z</time></trkpt><trkpt lat="42.1549633" lon="13.7138742"><ele>519.0</ele><time>2026-05-01T08:45:02.065Z</time></trkpt><trkpt lat="42.1551106" lon="13.7139568"><ele>518.0</ele><time>2026-05-01T08:45:03.064Z</time></trkpt><trkpt lat="42.1552425" lon="13.7140484"><ele>517.0</ele><time>2026-05-01T08:45:04.057Z</time></trkpt><trkpt lat="42.1553624" lon="13.7141655"><ele>516.0</ele><time>2026-05-01T08:45:05.049Z</time></trkpt><trkpt lat="42.1554775" lon="13.714311"><ele>514.3333333333334</ele><time>2026-05-01T08:45:06.053Z</time></trkpt><trkpt lat="42.1555882" lon="13.7144813"><ele>512.6666666666667</ele><time>2026-05-01T08:45:07.065Z</time></trkpt><trkpt lat="42.1556919" lon="13.7146813"><ele>511.0</ele><time>2026-05-01T08:45:08.054Z</time></trkpt><trkpt lat="42.1557955" lon="13.7149031"><ele>511.0</ele><time>2026-05-01T08:45:09.052Z</time></trkpt><trkpt lat="42.155893" lon="13.7151193"><ele>511.0</ele><time>2026-05-01T08:45:10.057Z</time></trkpt><trkpt lat="42.155992" lon="13.715329"><ele>511.0</ele><time>2026-05-01T08:45:11.059Z</time></trkpt><trkpt lat="42.1560915" lon="13.7155258"><ele>508.6666666666667</ele><time>2026-05-01T08:45:12.053Z</time></trkpt><trkpt lat="42.1561912" lon="13.7157271"><ele>506.33333333333337</ele><time>2026-05-01T08:45:13.046Z</time></trkpt><trkpt lat="42.156287" lon="13.7159296"><ele>504.0</ele><time>2026-05-01T08:45:14.05Z</time></trkpt><trkpt lat="42.1563826" lon="13.7161303"><ele>502.66666666666663</ele><time>2026-05-01T08:45:15.047Z</time></trkpt><trkpt lat="42.1564769" lon="13.7163349"><ele>501.3333333333333</ele><time>2026-05-01T08:45:16.048Z</time></trkpt><trkpt lat="42.156573" lon="13.7165242"><ele>500.0</ele><time>2026-05-01T08:45:17.05Z</time></trkpt><trkpt lat="42.156666" lon="13.7167063"><ele>500.0</ele><time>2026-05-01T08:45:18.054Z</time></trkpt><trkpt lat="42.156758" lon="13.7168867"><ele>500.0</ele><time>2026-05-01T08:45:19.068Z</time></trkpt><trkpt lat="42.1568548" lon="13.7170602"><ele>500.0</ele><time>2026-05-01T08:45:20.061Z</time></trkpt><trkpt lat="42.1569542" lon="13.7172179"><ele>496.3333333333333</ele><time>2026-05-01T08:45:21.05Z</time></trkpt><trkpt lat="42.1570677" lon="13.7173628"><ele>492.66666666666663</ele><time>2026-05-01T08:45:22.05Z</time></trkpt><trkpt lat="42.157192" lon="13.7174991"><ele>489.0</ele><time>2026-05-01T08:45:23.056Z</time></trkpt><trkpt lat="42.1573248" lon="13.7176273"><ele>488.0</ele><time>2026-05-01T08:45:24.048Z</time></trkpt><trkpt lat="42.1574632" lon="13.7177526"><ele>487.0</ele><time>2026-05-01T08:45:25.06Z</time></trkpt><trkpt lat="42.1575984" lon="13.7178779"><ele>486.0</ele><time>2026-05-01T08:45:26.051Z</time></trkpt><trkpt lat="42.1577301" lon="13.7180003"><ele>486.0</ele><time>2026-05-01T08:45:27.046Z</time></trkpt><trkpt lat="42.157852" lon="13.7181156"><ele>486.0</ele><time>2026-05-01T08:45:28.045Z</time></trkpt><trkpt lat="42.1579703" lon="13.7182456"><ele>486.0</ele><time>2026-05-01T08:45:29.051Z</time></trkpt><trkpt lat="42.1580634" lon="13.7183931"><ele>486.0</ele><time>2026-05-01T08:45:30.043Z</time></trkpt><trkpt lat="42.1581376" lon="13.7185673"><ele>486.33333333333337</ele><time>2026-05-01T08:45:31.07Z</time></trkpt><trkpt lat="42.1581951" lon="13.7187566"><ele>486.6666666666667</ele><time>2026-05-01T08:45:32.053Z</time></trkpt><trkpt lat="42.1582468" lon="13.7189586"><ele>487.0</ele><time>2026-05-01T08:45:33.061Z</time></trkpt><trkpt lat="42.1582941" lon="13.7191477"><ele>487.0</ele><time>2026-05-01T08:45:34.054Z</time></trkpt><trkpt lat="42.1583332" lon="13.7193272"><ele>487.0</ele><time>2026-05-01T08:45:35.047Z</time></trkpt><trkpt lat="42.1583622" lon="13.7195007"><ele>487.0</ele><time>2026-05-01T08:45:36.053Z</time></trkpt><trkpt lat="42.1583794" lon="13.7196822"><ele>487.0</ele><time>2026-05-01T08:45:37.044Z</time></trkpt><trkpt lat="42.1583703" lon="13.7198714"><ele>486.25</ele><time>2026-05-01T08:45:38.079Z</time></trkpt><trkpt lat="42.1583401" lon="13.7200661"><ele>485.5</ele><time>2026-05-01T08:45:39.05Z</time></trkpt><trkpt lat="42.1582735" lon="13.7202451"><ele>484.75</ele><time>2026-05-01T08:45:40.051Z</time></trkpt><trkpt lat="42.1581881" lon="13.7204049"><ele>484.0</ele><time>2026-05-01T08:45:41.058Z</time></trkpt><trkpt lat="42.1580969" lon="13.7205544"><ele>482.0</ele><time>2026-05-01T08:45:42.046Z</time></trkpt><trkpt lat="42.1580098" lon="13.7206992"><ele>480.0</ele><time>2026-05-01T08:45:43.052Z</time></trkpt><trkpt lat="42.1579415" lon="13.720828"><ele>478.0</ele><time>2026-05-01T08:45:44.053Z</time></trkpt><trkpt lat="42.1578846" lon="13.7209354"><ele>476.0</ele><time>2026-05-01T08:45:45.047Z</time></trkpt><trkpt lat="42.1578318" lon="13.7210316"><ele>474.0</ele><time>2026-05-01T08:45:46.059Z</time></trkpt><trkpt lat="42.1577973" lon="13.7211154"><ele>473.6</ele><time>2026-05-01T08:45:47.045Z</time></trkpt><trkpt lat="42.1578009" lon="13.7212475"><ele>473.2</ele><time>2026-05-01T08:45:49.057Z</time></trkpt><trkpt lat="42.1578868" lon="13.7213653"><ele>472.80000000000007</ele><time>2026-05-01T08:45:51.057Z</time></trkpt><trkpt lat="42.157946" lon="13.7213952"><ele>472.40000000000003</ele><time>2026-05-01T08:45:52.05Z</time></trkpt><trkpt lat="42.1580083" lon="13.7214147"><ele>472.0</ele><time>2026-05-01T08:45:53.058Z</time></trkpt><trkpt lat="42.1581094" lon="13.7214725"><ele>472.0</ele><time>2026-05-01T08:45:55.053Z</time></trkpt><trkpt lat="42.1581987" lon="13.7215184"><ele>472.00000000000006</ele><time>2026-05-01T08:45:57.062Z</time></trkpt><trkpt lat="42.1582892" lon="13.7215611"><ele>472.00000000000006</ele><time>2026-05-01T08:45:59.051Z</time></trkpt><trkpt lat="42.1584105" lon="13.7216146"><ele>472.0</ele><time>2026-05-01T08:46:01.051Z</time></trkpt><trkpt lat="42.1584839" lon="13.7216523"><ele>472.0</ele><time>2026-05-01T08:46:02.043Z</time></trkpt><trkpt lat="42.1585616" lon="13.7216908"><ele>473.0</ele><time>2026-05-01T08:46:03.052Z</time></trkpt><trkpt lat="42.1586414" lon="13.7217279"><ele>474.00000000000006</ele><time>2026-05-01T08:46:04.062Z</time></trkpt><trkpt lat="42.1587322" lon="13.7217704"><ele>475.00000000000006</ele><time>2026-05-01T08:46:05.06Z</time></trkpt><trkpt lat="42.1588371" lon="13.7218158"><ele>476.0</ele><time>2026-05-01T08:46:06.05Z</time></trkpt><trkpt lat="42.1589465" lon="13.7218631"><ele>477.0</ele><time>2026-05-01T08:46:07.06Z</time></trkpt><trkpt lat="42.1590556" lon="13.7219122"><ele>477.75</ele><time>2026-05-01T08:46:08.059Z</time></trkpt><trkpt lat="42.1591632" lon="13.721967"><ele>478.5</ele><time>2026-05-01T08:46:09.056Z</time></trkpt><trkpt lat="42.1592693" lon="13.7220174"><ele>479.25</ele><time>2026-05-01T08:46:10.051Z</time></trkpt><trkpt lat="42.1593769" lon="13.7220667"><ele>480.0</ele><time>2026-05-01T08:46:11.062Z</time></trkpt><trkpt lat="42.1594832" lon="13.7221155"><ele>480.0</ele><time>2026-05-01T08:46:12.046Z</time></trkpt><trkpt lat="42.1595842" lon="13.7221567"><ele>480.0</ele><time>2026-05-01T08:46:13.065Z</time></trkpt><trkpt lat="42.15968" lon="13.7221898"><ele>480.0</ele><time>2026-05-01T08:46:14.045Z</time></trkpt><trkpt lat="42.15977" lon="13.7222106"><ele>480.0</ele><time>2026-05-01T08:46:15.058Z</time></trkpt><trkpt lat="42.1598384" lon="13.7222154"><ele>480.0</ele><time>2026-05-01T08:46:16.052Z</time></trkpt><trkpt lat="42.1599211" lon="13.7221842"><ele>479.0</ele><time>2026-05-01T08:46:17.051Z</time></trkpt><trkpt lat="42.1600099" lon="13.72211"><ele>478.0</ele><time>2026-05-01T08:46:18.044Z</time></trkpt><trkpt lat="42.1600999" lon="13.7220243"><ele>477.0</ele><time>2026-05-01T08:46:19.053Z</time></trkpt><trkpt lat="42.1601975" lon="13.7219442"><ele>476.0</ele><time>2026-05-01T08:46:20.056Z</time></trkpt><trkpt lat="42.1603061" lon="13.7218742"><ele>475.0</ele><time>2026-05-01T08:46:21.052Z</time></trkpt><trkpt lat="42.1604229" lon="13.7218103"><ele>476.5</ele><time>2026-05-01T08:46:22.045Z</time></trkpt><trkpt lat="42.1605503" lon="13.721756"><ele>478.0</ele><time>2026-05-01T08:46:23.057Z</time></trkpt><trkpt lat="42.1606807" lon="13.7217109"><ele>479.5</ele><time>2026-05-01T08:46:24.049Z</time></trkpt><trkpt lat="42.1608026" lon="13.7216736"><ele>481.0</ele><time>2026-05-01T08:46:25.054Z</time></trkpt><trkpt lat="42.1609186" lon="13.721656"><ele>481.0</ele><time>2026-05-01T08:46:26.052Z</time></trkpt><trkpt lat="42.1610179" lon="13.7216276"><ele>481.0</ele><time>2026-05-01T08:46:27.052Z</time></trkpt><trkpt lat="42.161111" lon="13.721586"><ele>481.0</ele><time>2026-05-01T08:46:28.043Z</time></trkpt><trkpt lat="42.1612059" lon="13.7215224"><ele>481.0</ele><time>2026-05-01T08:46:29.057Z</time></trkpt><trkpt lat="42.1612986" lon="13.7214203"><ele>481.0</ele><time>2026-05-01T08:46:30.06Z</time></trkpt><trkpt lat="42.1613941" lon="13.7213193"><ele>481.0</ele><time>2026-05-01T08:46:31.044Z</time></trkpt><trkpt lat="42.1614932" lon="13.721232"><ele>481.0</ele><time>2026-05-01T08:46:32.066Z</time></trkpt><trkpt lat="42.1615905" lon="13.721163"><ele>481.0</ele><time>2026-05-01T08:46:33.054Z</time></trkpt><trkpt lat="42.1616913" lon="13.7211069"><ele>481.0</ele><time>2026-05-01T08:46:34.041Z</time></trkpt><trkpt lat="42.1618" lon="13.721061"><ele>483.75</ele><time>2026-05-01T08:46:35.047Z</time></trkpt><trkpt lat="42.1619196" lon="13.7210243"><ele>486.5</ele><time>2026-05-01T08:46:36.044Z</time></trkpt><trkpt lat="42.1620451" lon="13.7210076"><ele>489.25</ele><time>2026-05-01T08:46:37.055Z</time></trkpt><trkpt lat="42.1621685" lon="13.7209892"><ele>492.0</ele><time>2026-05-01T08:46:38.052Z</time></trkpt><trkpt lat="42.1622866" lon="13.7209638"><ele>488.5</ele><time>2026-05-01T08:46:39.067Z</time></trkpt><trkpt lat="42.1624032" lon="13.7209276"><ele>485.0</ele><time>2026-05-01T08:46:40.046Z</time></trkpt><trkpt lat="42.1625227" lon="13.7208864"><ele>481.5</ele><time>2026-05-01T08:46:41.046Z</time></trkpt><trkpt lat="42.1626327" lon="13.7208444"><ele>478.0</ele><time>2026-05-01T08:46:42.048Z</time></trkpt><trkpt lat="42.1627314" lon="13.7207994"><ele>478.0</ele><time>2026-05-01T08:46:43.055Z</time></trkpt><trkpt lat="42.1628312" lon="13.7207487"><ele>477.99999999999994</ele><time>2026-05-01T08:46:44.028Z</time></trkpt><trkpt lat="42.162927" lon="13.7206896"><ele>477.99999999999994</ele><time>2026-05-01T08:46:45.055Z</time></trkpt><trkpt lat="42.1630178" lon="13.7206154"><ele>478.0</ele><time>2026-05-01T08:46:46.037Z</time></trkpt><trkpt lat="42.163104" lon="13.7205308"><ele>478.0</ele><time>2026-05-01T08:46:47.054Z</time></trkpt><trkpt lat="42.1631799" lon="13.720419"><ele>477.5</ele><time>2026-05-01T08:46:48.048Z</time></trkpt><trkpt lat="42.1632444" lon="13.7202958"><ele>477.0</ele><time>2026-05-01T08:46:49.047Z</time></trkpt><trkpt lat="42.1632988" lon="13.7201596"><ele>476.5</ele><time>2026-05-01T08:46:50.053Z</time></trkpt><trkpt lat="42.1633414" lon="13.7200183"><ele>476.0</ele><time>2026-05-01T08:46:51.058Z</time></trkpt><trkpt lat="42.163382" lon="13.7198692"><ele>476.0</ele><time>2026-05-01T08:46:52.057Z</time></trkpt><trkpt lat="42.163427" lon="13.7197181"><ele>476.0</ele><time>2026-05-01T08:46:53.052Z</time></trkpt><trkpt lat="42.163481" lon="13.7195699"><ele>476.0</ele><time>2026-05-01T08:46:54.038Z</time></trkpt><trkpt lat="42.1635449" lon="13.7194263"><ele>476.0</ele><time>2026-05-01T08:46:55.048Z</time></trkpt><trkpt lat="42.1636111" lon="13.7192922"><ele>479.75</ele><time>2026-05-01T08:46:56.046Z</time></trkpt><trkpt lat="42.1636825" lon="13.7191733"><ele>483.5</ele><time>2026-05-01T08:46:57.039Z</time></trkpt><trkpt lat="42.1637617" lon="13.7190602"><ele>487.25</ele><time>2026-05-01T08:46:58.045Z</time></trkpt><trkpt lat="42.1638533" lon="13.7189587"><ele>491.0</ele><time>2026-05-01T08:46:59.043Z</time></trkpt><trkpt lat="42.163953" lon="13.71886"><ele>487.75</ele><time>2026-05-01T08:47:00.047Z</time></trkpt><trkpt lat="42.1640584" lon="13.7187702"><ele>484.5</ele><time>2026-05-01T08:47:01.051Z</time></trkpt><trkpt lat="42.1641643" lon="13.7186907"><ele>481.25</ele><time>2026-05-01T08:47:02.047Z</time></trkpt><trkpt lat="42.1642679" lon="13.7186157"><ele>478.0</ele><time>2026-05-01T08:47:03.043Z</time></trkpt><trkpt lat="42.1643766" lon="13.7185548"><ele>478.0</ele><time>2026-05-01T08:47:04.044Z</time></trkpt><trkpt lat="42.1644894" lon="13.7185115"><ele>477.99999999999994</ele><time>2026-05-01T08:47:05.043Z</time></trkpt><trkpt lat="42.1646031" lon="13.7184874"><ele>477.99999999999994</ele><time>2026-05-01T08:47:06.043Z</time></trkpt><trkpt lat="42.1647101" lon="13.7184834"><ele>478.0</ele><time>2026-05-01T08:47:07.046Z</time></trkpt><trkpt lat="42.1648143" lon="13.7185027"><ele>478.0</ele><time>2026-05-01T08:47:08.043Z</time></trkpt><trkpt lat="42.1649215" lon="13.7185444"><ele>473.75</ele><time>2026-05-01T08:47:09.056Z</time></trkpt><trkpt lat="42.1650367" lon="13.718622"><ele>469.5</ele><time>2026-05-01T08:47:10.042Z</time></trkpt><trkpt lat="42.165156" lon="13.7186974"><ele>465.25</ele><time>2026-05-01T08:47:11.055Z</time></trkpt><trkpt lat="42.1652772" lon="13.718755"><ele>461.0</ele><time>2026-05-01T08:47:12.041Z</time></trkpt><trkpt lat="42.1654065" lon="13.7188219"><ele>461.0</ele><time>2026-05-01T08:47:13.038Z</time></trkpt><trkpt lat="42.1655333" lon="13.7188779"><ele>461.0</ele><time>2026-05-01T08:47:14.046Z</time></trkpt><trkpt lat="42.1656615" lon="13.7189275"><ele>461.0</ele><time>2026-05-01T08:47:15.042Z</time></trkpt><trkpt lat="42.1657805" lon="13.7189617"><ele>461.0</ele><time>2026-05-01T08:47:16.033Z</time></trkpt><trkpt lat="42.1658995" lon="13.7189833"><ele>461.5</ele><time>2026-05-01T08:47:17.042Z</time></trkpt><trkpt lat="42.1660203" lon="13.7190032"><ele>462.0</ele><time>2026-05-01T08:47:18.047Z</time></trkpt><trkpt lat="42.1661445" lon="13.7190091"><ele>462.5</ele><time>2026-05-01T08:47:19.042Z</time></trkpt><trkpt lat="42.1662698" lon="13.7189987"><ele>463.0</ele><time>2026-05-01T08:47:20.028Z</time></trkpt><trkpt lat="42.1663966" lon="13.7189807"><ele>463.0</ele><time>2026-05-01T08:47:21.039Z</time></trkpt><trkpt lat="42.1665264" lon="13.7189686"><ele>463.0</ele><time>2026-05-01T08:47:22.04Z</time></trkpt><trkpt lat="42.1666575" lon="13.7189504"><ele>463.0</ele><time>2026-05-01T08:47:23.035Z</time></trkpt><trkpt lat="42.166787" lon="13.7189295"><ele>463.0</ele><time>2026-05-01T08:47:24.04Z</time></trkpt><trkpt lat="42.166908" lon="13.7189104"><ele>462.75</ele><time>2026-05-01T08:47:25.047Z</time></trkpt><trkpt lat="42.1670298" lon="13.7188874"><ele>462.5</ele><time>2026-05-01T08:47:26.043Z</time></trkpt><trkpt lat="42.1671502" lon="13.7188583"><ele>462.25</ele><time>2026-05-01T08:47:27.053Z</time></trkpt><trkpt lat="42.167269" lon="13.7188207"><ele>462.0</ele><time>2026-05-01T08:47:28.045Z</time></trkpt><trkpt lat="42.1673777" lon="13.7187872"><ele>462.0</ele><time>2026-05-01T08:47:29.042Z</time></trkpt><trkpt lat="42.1674851" lon="13.7187488"><ele>462.0</ele><time>2026-05-01T08:47:30.047Z</time></trkpt><trkpt lat="42.1675939" lon="13.718706"><ele>462.0</ele><time>2026-05-01T08:47:31.051Z</time></trkpt><trkpt lat="42.1677066" lon="13.7186534"><ele>462.0</ele><time>2026-05-01T08:47:32.041Z</time></trkpt><trkpt lat="42.1678152" lon="13.7186043"><ele>462.6</ele><time>2026-05-01T08:47:33.058Z</time></trkpt><trkpt lat="42.167925" lon="13.7185535"><ele>463.20000000000005</ele><time>2026-05-01T08:47:34.049Z</time></trkpt><trkpt lat="42.1680306" lon="13.7184907"><ele>463.8</ele><time>2026-05-01T08:47:35.053Z</time></trkpt><trkpt lat="42.1681201" lon="13.7184164"><ele>464.4</ele><time>2026-05-01T08:47:36.038Z</time></trkpt><trkpt lat="42.1682021" lon="13.7183204"><ele>465.0</ele><time>2026-05-01T08:47:37.039Z</time></trkpt><trkpt lat="42.168286" lon="13.7182059"><ele>465.0</ele><time>2026-05-01T08:47:38.035Z</time></trkpt><trkpt lat="42.1683672" lon="13.7180863"><ele>465.0</ele><time>2026-05-01T08:47:39.043Z</time></trkpt><trkpt lat="42.1684512" lon="13.717978"><ele>465.0</ele><time>2026-05-01T08:47:40.041Z</time></trkpt><trkpt lat="42.1685414" lon="13.7178882"><ele>465.0</ele><time>2026-05-01T08:47:41.053Z</time></trkpt><trkpt lat="42.1686392" lon="13.7178085"><ele>467.0</ele><time>2026-05-01T08:47:42.047Z</time></trkpt><trkpt lat="42.1687434" lon="13.7177351"><ele>469.0</ele><time>2026-05-01T08:47:43.041Z</time></trkpt><trkpt lat="42.168849" lon="13.7176688"><ele>471.0</ele><time>2026-05-01T08:47:44.047Z</time></trkpt><trkpt lat="42.1689586" lon="13.7176147"><ele>473.0</ele><time>2026-05-01T08:47:45.045Z</time></trkpt><trkpt lat="42.1690697" lon="13.7175645"><ele>473.0</ele><time>2026-05-01T08:47:46.036Z</time></trkpt><trkpt lat="42.1691851" lon="13.7175123"><ele>473.0</ele><time>2026-05-01T08:47:47.04Z</time></trkpt><trkpt lat="42.1693038" lon="13.7174532"><ele>473.0</ele><time>2026-05-01T08:47:48.038Z</time></trkpt><trkpt lat="42.1694286" lon="13.7173967"><ele>473.0</ele><time>2026-05-01T08:47:49.041Z</time></trkpt><trkpt lat="42.1695516" lon="13.7173493"><ele>473.0</ele><time>2026-05-01T08:47:50.058Z</time></trkpt><trkpt lat="42.1696742" lon="13.7173043"><ele>473.0</ele><time>2026-05-01T08:47:51.043Z</time></trkpt><trkpt lat="42.1697911" lon="13.7172575"><ele>473.0</ele><time>2026-05-01T08:47:52.036Z</time></trkpt><trkpt lat="42.1699036" lon="13.7172108"><ele>473.0</ele><time>2026-05-01T08:47:53.039Z</time></trkpt><trkpt lat="42.1700161" lon="13.7171696"><ele>471.2</ele><time>2026-05-01T08:47:54.042Z</time></trkpt><trkpt lat="42.1701288" lon="13.717128"><ele>469.4</ele><time>2026-05-01T08:47:55.04Z</time></trkpt><trkpt lat="42.1702372" lon="13.7170878"><ele>467.59999999999997</ele><time>2026-05-01T08:47:56.046Z</time></trkpt><trkpt lat="42.1703421" lon="13.717045"><ele>465.79999999999995</ele><time>2026-05-01T08:47:57.036Z</time></trkpt><trkpt lat="42.1704436" lon="13.7170004"><ele>464.0</ele><time>2026-05-01T08:47:58.044Z</time></trkpt><trkpt lat="42.1705398" lon="13.7169646"><ele>464.0</ele><time>2026-05-01T08:47:59.048Z</time></trkpt><trkpt lat="42.1706356" lon="13.7169397"><ele>464.0</ele><time>2026-05-01T08:48:00.025Z</time></trkpt><trkpt lat="42.170731" lon="13.7169099"><ele>464.0</ele><time>2026-05-01T08:48:01.042Z</time></trkpt><trkpt lat="42.1708258" lon="13.7168751"><ele>464.0</ele><time>2026-05-01T08:48:02.051Z</time></trkpt><trkpt lat="42.1709232" lon="13.7168296"><ele>464.0</ele><time>2026-05-01T08:48:03.04Z</time></trkpt><trkpt lat="42.171019" lon="13.7167667"><ele>464.6</ele><time>2026-05-01T08:48:04.066Z</time></trkpt><trkpt lat="42.1711086" lon="13.7166898"><ele>465.2</ele><time>2026-05-01T08:48:05.039Z</time></trkpt><trkpt lat="42.1711938" lon="13.7166113"><ele>465.80000000000007</ele><time>2026-05-01T08:48:06.043Z</time></trkpt><trkpt lat="42.1712557" lon="13.716519"><ele>466.40000000000003</ele><time>2026-05-01T08:48:07.048Z</time></trkpt><trkpt lat="42.1713051" lon="13.7164042"><ele>467.0</ele><time>2026-05-01T08:48:08.049Z</time></trkpt><trkpt lat="42.171351" lon="13.7162713"><ele>467.0</ele><time>2026-05-01T08:48:09.069Z</time></trkpt><trkpt lat="42.1713795" lon="13.7161186"><ele>467.0</ele><time>2026-05-01T08:48:10.044Z</time></trkpt><trkpt lat="42.1714106" lon="13.7159566"><ele>467.0</ele><time>2026-05-01T08:48:11.04Z</time></trkpt><trkpt lat="42.1714465" lon="13.7157959"><ele>467.0</ele><time>2026-05-01T08:48:12.046Z</time></trkpt><trkpt lat="42.1714887" lon="13.7156447"><ele>466.5</ele><time>2026-05-01T08:48:13.043Z</time></trkpt><trkpt lat="42.171538" lon="13.7154973"><ele>466.0</ele><time>2026-05-01T08:48:14.047Z</time></trkpt><trkpt lat="42.171587" lon="13.715349"><ele>465.5</ele><time>2026-05-01T08:48:15.046Z</time></trkpt><trkpt lat="42.1716394" lon="13.7152082"><ele>465.0</ele><time>2026-05-01T08:48:16.046Z</time></trkpt><trkpt lat="42.1716936" lon="13.7150729"><ele>466.2</ele><time>2026-05-01T08:48:17.042Z</time></trkpt><trkpt lat="42.1717468" lon="13.714941"><ele>467.4</ele><time>2026-05-01T08:48:18.032Z</time></trkpt><trkpt lat="42.1718053" lon="13.7148223"><ele>468.6</ele><time>2026-05-01T08:48:19.045Z</time></trkpt><trkpt lat="42.1718667" lon="13.7147016"><ele>469.8</ele><time>2026-05-01T08:48:20.041Z</time></trkpt><trkpt lat="42.1719284" lon="13.7145789"><ele>471.0</ele><time>2026-05-01T08:48:21.027Z</time></trkpt><trkpt lat="42.171991" lon="13.7144567"><ele>474.4</ele><time>2026-05-01T08:48:22.044Z</time></trkpt><trkpt lat="42.1720454" lon="13.714332"><ele>477.8</ele><time>2026-05-01T08:48:23.042Z</time></trkpt><trkpt lat="42.1720879" lon="13.7142087"><ele>481.19999999999993</ele><time>2026-05-01T08:48:24.055Z</time></trkpt><trkpt lat="42.1721211" lon="13.7140908"><ele>484.59999999999997</ele><time>2026-05-01T08:48:25.039Z</time></trkpt><trkpt lat="42.1721543" lon="13.7139837"><ele>488.0</ele><time>2026-05-01T08:48:26.037Z</time></trkpt><trkpt lat="42.1721873" lon="13.7138983"><ele>487.99999999999994</ele><time>2026-05-01T08:48:27.039Z</time></trkpt><trkpt lat="42.1722195" lon="13.7138251"><ele>488.0</ele><time>2026-05-01T08:48:28.04Z</time></trkpt><trkpt lat="42.1722978" lon="13.7137358"><ele>488.0</ele><time>2026-05-01T08:48:30.04Z</time></trkpt><trkpt lat="42.1724044" lon="13.7137422"><ele>488.0</ele><time>2026-05-01T08:48:32.034Z</time></trkpt><trkpt lat="42.1725025" lon="13.7137799"><ele>487.99999999999994</ele><time>2026-05-01T08:48:34.041Z</time></trkpt><trkpt lat="42.1725656" lon="13.7137928"><ele>488.0</ele><time>2026-05-01T08:48:35.039Z</time></trkpt><trkpt lat="42.172643" lon="13.7138236"><ele>484.3333333333333</ele><time>2026-05-01T08:48:36.045Z</time></trkpt><trkpt lat="42.1727215" lon="13.7138672"><ele>480.66666666666663</ele><time>2026-05-01T08:48:37.037Z</time></trkpt><trkpt lat="42.1728022" lon="13.7139259"><ele>477.0</ele><time>2026-05-01T08:48:38.033Z</time></trkpt><trkpt lat="42.1728787" lon="13.7139849"><ele>473.33333333333337</ele><time>2026-05-01T08:48:39.043Z</time></trkpt><trkpt lat="42.1729382" lon="13.7140426"><ele>469.6666666666667</ele><time>2026-05-01T08:48:40.045Z</time></trkpt><trkpt lat="42.1729987" lon="13.7140944"><ele>466.0</ele><time>2026-05-01T08:48:41.032Z</time></trkpt><trkpt lat="42.1730519" lon="13.7141461"><ele>466.00000000000006</ele><time>2026-05-01T08:48:42.044Z</time></trkpt><trkpt lat="42.1731586" lon="13.7142218"><ele>466.0</ele><time>2026-05-01T08:48:44.054Z</time></trkpt><trkpt lat="42.1732182" lon="13.7142603"><ele>466.0</ele><time>2026-05-01T08:48:45.045Z</time></trkpt><trkpt lat="42.1732864" lon="13.7142798"><ele>466.0</ele><time>2026-05-01T08:48:46.04Z</time></trkpt><trkpt lat="42.1733586" lon="13.7142675"><ele>466.00000000000006</ele><time>2026-05-01T08:48:47.047Z</time></trkpt><trkpt lat="42.1734283" lon="13.714217"><ele>466.0</ele><time>2026-05-01T08:48:48.036Z</time></trkpt><trkpt lat="42.1734908" lon="13.7141405"><ele>467.33333333333337</ele><time>2026-05-01T08:48:49.033Z</time></trkpt><trkpt lat="42.1735443" lon="13.7140458"><ele>468.6666666666667</ele><time>2026-05-01T08:48:50.046Z</time></trkpt><trkpt lat="42.1735919" lon="13.7139437"><ele>470.0</ele><time>2026-05-01T08:48:51.042Z</time></trkpt><trkpt lat="42.1736359" lon="13.7138477"><ele>471.33333333333337</ele><time>2026-05-01T08:48:52.046Z</time></trkpt><trkpt lat="42.1736813" lon="13.7137631"><ele>472.6666666666667</ele><time>2026-05-01T08:48:53.045Z</time></trkpt><trkpt lat="42.1737181" lon="13.7136851"><ele>474.0</ele><time>2026-05-01T08:48:54.05Z</time></trkpt><trkpt lat="42.1737643" lon="13.7135962"><ele>474.5714285714285</ele><time>2026-05-01T08:48:56.044Z</time></trkpt><trkpt lat="42.1738078" lon="13.71352"><ele>475.1428571428571</ele><time>2026-05-01T08:50:21.034Z</time></trkpt><trkpt lat="42.1738561" lon="13.7134475"><ele>475.7142857142857</ele><time>2026-05-01T08:50:22.053Z</time></trkpt><trkpt lat="42.1739068" lon="13.7133706"><ele>476.2857142857143</ele><time>2026-05-01T08:50:23.043Z</time></trkpt><trkpt lat="42.1739656" lon="13.7133105"><ele>476.8571428571429</ele><time>2026-05-01T08:50:24.051Z</time></trkpt><trkpt lat="42.1740279" lon="13.7132718"><ele>477.4285714285715</ele><time>2026-05-01T08:50:25.039Z</time></trkpt><trkpt lat="42.1740963" lon="13.7132526"><ele>478.00000000000006</ele><time>2026-05-01T08:50:26.055Z</time></trkpt><trkpt lat="42.1741713" lon="13.7132458"><ele>478.00000000000006</ele><time>2026-05-01T08:50:27.049Z</time></trkpt><trkpt lat="42.1742504" lon="13.7132443"><ele>478.0</ele><time>2026-05-01T08:50:28.039Z</time></trkpt><trkpt lat="42.1743216" lon="13.7132559"><ele>478.00000000000006</ele><time>2026-05-01T08:50:29.035Z</time></trkpt><trkpt lat="42.1743897" lon="13.7132792"><ele>478.00000000000006</ele><time>2026-05-01T08:50:30.053Z</time></trkpt><trkpt lat="42.1744532" lon="13.7133092"><ele>478.0</ele><time>2026-05-01T08:50:31.041Z</time></trkpt><trkpt lat="42.1745194" lon="13.713321"><ele>478.00000000000006</ele><time>2026-05-01T08:50:32.055Z</time></trkpt><trkpt lat="42.1745888" lon="13.7133143"><ele>478.00000000000006</ele><time>2026-05-01T08:50:33.057Z</time></trkpt><trkpt lat="42.174656" lon="13.7132857"><ele>478.0</ele><time>2026-05-01T08:50:34.057Z</time></trkpt><trkpt lat="42.1747317" lon="13.7132317"><ele>477.99999999999994</ele><time>2026-05-01T08:50:35.046Z</time></trkpt><trkpt lat="42.1748056" lon="13.7131656"><ele>477.99999999999994</ele><time>2026-05-01T08:50:36.043Z</time></trkpt><trkpt lat="42.1748808" lon="13.713092"><ele>478.0</ele><time>2026-05-01T08:50:37.039Z</time></trkpt><trkpt lat="42.1749628" lon="13.7130223"><ele>478.0</ele><time>2026-05-01T08:50:38.045Z</time></trkpt><trkpt lat="42.1750527" lon="13.712954"><ele>475.75</ele><time>2026-05-01T08:50:39.045Z</time></trkpt><trkpt lat="42.1751466" lon="13.7128881"><ele>473.5</ele><time>2026-05-01T08:50:40.041Z</time></trkpt><trkpt lat="42.1752428" lon="13.712814"><ele>471.25</ele><time>2026-05-01T08:50:41.045Z</time></trkpt><trkpt lat="42.1753366" lon="13.7127266"><ele>469.0</ele><time>2026-05-01T08:50:42.041Z</time></trkpt><trkpt lat="42.1754317" lon="13.7126257"><ele>469.0</ele><time>2026-05-01T08:50:43.037Z</time></trkpt><trkpt lat="42.1755244" lon="13.7125267"><ele>469.0</ele><time>2026-05-01T08:50:44.039Z</time></trkpt><trkpt lat="42.1756149" lon="13.7124302"><ele>469.0</ele><time>2026-05-01T08:50:45.047Z</time></trkpt><trkpt lat="42.175701" lon="13.7123374"><ele>469.0</ele><time>2026-05-01T08:50:46.039Z</time></trkpt><trkpt lat="42.175792" lon="13.7122577"><ele>470.0</ele><time>2026-05-01T08:50:47.045Z</time></trkpt><trkpt lat="42.1758819" lon="13.7121962"><ele>471.0</ele><time>2026-05-01T08:50:48.037Z</time></trkpt><trkpt lat="42.1759651" lon="13.7121458"><ele>472.0</ele><time>2026-05-01T08:50:49.054Z</time></trkpt><trkpt lat="42.1760465" lon="13.7121073"><ele>473.0</ele><time>2026-05-01T08:50:50.037Z</time></trkpt><trkpt lat="42.1761325" lon="13.7120927"><ele>474.0</ele><time>2026-05-01T08:50:51.043Z</time></trkpt><trkpt lat="42.1762235" lon="13.712104"><ele>474.0</ele><time>2026-05-01T08:50:52.039Z</time></trkpt><trkpt lat="42.1763133" lon="13.7121324"><ele>474.0</ele><time>2026-05-01T08:50:53.047Z</time></trkpt><trkpt lat="42.1763911" lon="13.7121519"><ele>474.0</ele><time>2026-05-01T08:50:54.046Z</time></trkpt><trkpt lat="42.1764661" lon="13.7121427"><ele>474.0</ele><time>2026-05-01T08:50:55.046Z</time></trkpt><trkpt lat="42.1765494" lon="13.7121013"><ele>474.0</ele><time>2026-05-01T08:50:56.056Z</time></trkpt><trkpt lat="42.1766244" lon="13.7120266"><ele>474.0</ele><time>2026-05-01T08:50:57.032Z</time></trkpt><trkpt lat="42.1766948" lon="13.7119231"><ele>474.2</ele><time>2026-05-01T08:50:58.037Z</time></trkpt><trkpt lat="42.1767679" lon="13.7118051"><ele>474.4</ele><time>2026-05-01T08:50:59.042Z</time></trkpt><trkpt lat="42.1768461" lon="13.7116932"><ele>474.6</ele><time>2026-05-01T08:51:00.037Z</time></trkpt><trkpt lat="42.1769228" lon="13.7116019"><ele>474.8</ele><time>2026-05-01T08:51:01.041Z</time></trkpt><trkpt lat="42.176987" lon="13.711529"><ele>475.0</ele><time>2026-05-01T08:51:02.041Z</time></trkpt><trkpt lat="42.1770362" lon="13.7114731"><ele>475.00000000000006</ele><time>2026-05-01T08:51:03.038Z</time></trkpt><trkpt lat="42.1770772" lon="13.7113931"><ele>475.0</ele><time>2026-05-01T08:51:05.036Z</time></trkpt><trkpt lat="42.1770165" lon="13.7113192"><ele>475.0</ele><time>2026-05-01T08:51:08.052Z</time></trkpt><trkpt lat="42.1769164" lon="13.7113384"><ele>475.0</ele><time>2026-05-01T08:51:10.047Z</time></trkpt><trkpt lat="42.1768404" lon="13.7113206"><ele>475.00000000000006</ele><time>2026-05-01T08:51:12.038Z</time></trkpt><trkpt lat="42.1767924" lon="13.7112418"><ele>475.0</ele><time>2026-05-01T08:51:14.044Z</time></trkpt><trkpt lat="42.1768461" lon="13.7113252"><ele>475.00000000000006</ele><time>2026-05-01T08:56:11.035Z</time></trkpt><trkpt lat="42.1769075" lon="13.7113473"><ele>475.0</ele><time>2026-05-01T08:56:12.039Z</time></trkpt><trkpt lat="42.1769781" lon="13.7113511"><ele>475.0</ele><time>2026-05-01T08:56:13.031Z</time></trkpt><trkpt lat="42.177052" lon="13.7113197"><ele>475.0</ele><time>2026-05-01T08:56:14.039Z</time></trkpt><trkpt lat="42.1771292" lon="13.7112895"><ele>475.00000000000006</ele><time>2026-05-01T08:56:15.048Z</time></trkpt><trkpt lat="42.1772114" lon="13.711262"><ele>475.0</ele><time>2026-05-01T08:56:16.041Z</time></trkpt><trkpt lat="42.177292" lon="13.7112427"><ele>477.33333333333337</ele><time>2026-05-01T08:56:17.039Z</time></trkpt><trkpt lat="42.1773726" lon="13.7112357"><ele>479.6666666666667</ele><time>2026-05-01T08:56:18.051Z</time></trkpt><trkpt lat="42.1774552" lon="13.7112226"><ele>482.0</ele><time>2026-05-01T08:56:19.039Z</time></trkpt><trkpt lat="42.1775315" lon="13.71122"><ele>484.33333333333337</ele><time>2026-05-01T08:56:20.049Z</time></trkpt><trkpt lat="42.1776036" lon="13.7112193"><ele>486.6666666666667</ele><time>2026-05-01T08:56:21.037Z</time></trkpt><trkpt lat="42.1776802" lon="13.7112323"><ele>489.0</ele><time>2026-05-01T08:56:22.038Z</time></trkpt><trkpt lat="42.1777632" lon="13.711258"><ele>489.0</ele><time>2026-05-01T08:56:23.103Z</time></trkpt><trkpt lat="42.1778462" lon="13.7112936"><ele>489.0</ele><time>2026-05-01T08:56:24.059Z</time></trkpt><trkpt lat="42.1779329" lon="13.7113306"><ele>489.0</ele><time>2026-05-01T08:56:25.048Z</time></trkpt><trkpt lat="42.1780179" lon="13.7113694"><ele>489.0</ele><time>2026-05-01T08:56:26.032Z</time></trkpt><trkpt lat="42.1781036" lon="13.7114045"><ele>489.0</ele><time>2026-05-01T08:56:27.037Z</time></trkpt><trkpt lat="42.1781903" lon="13.7114365"><ele>489.0</ele><time>2026-05-01T08:56:28.035Z</time></trkpt><trkpt lat="42.1782807" lon="13.7114537"><ele>490.6</ele><time>2026-05-01T08:56:29.042Z</time></trkpt><trkpt lat="42.1783737" lon="13.7114436"><ele>492.2</ele><time>2026-05-01T08:56:30.04Z</time></trkpt><trkpt lat="42.1784662" lon="13.7114107"><ele>493.80000000000007</ele><time>2026-05-01T08:56:31.036Z</time></trkpt><trkpt lat="42.1785659" lon="13.7113622"><ele>495.40000000000003</ele><time>2026-05-01T08:56:32.042Z</time></trkpt><trkpt lat="42.1786681" lon="13.7113038"><ele>497.0</ele><time>2026-05-01T08:56:33.04Z</time></trkpt><trkpt lat="42.1787609" lon="13.7112545"><ele>496.99999999999994</ele><time>2026-05-01T08:56:34.042Z</time></trkpt><trkpt lat="42.1788493" lon="13.711195"><ele>497.0</ele><time>2026-05-01T08:56:35.038Z</time></trkpt><trkpt lat="42.1789291" lon="13.7111319"><ele>497.0</ele><time>2026-05-01T08:56:36.048Z</time></trkpt><trkpt lat="42.1790031" lon="13.7110624"><ele>497.0</ele><time>2026-05-01T08:56:37.043Z</time></trkpt><trkpt lat="42.1790717" lon="13.711001"><ele>496.99999999999994</ele><time>2026-05-01T08:56:38.05Z</time></trkpt><trkpt lat="42.1791294" lon="13.7109483"><ele>497.0</ele><time>2026-05-01T08:56:39.041Z</time></trkpt><trkpt lat="42.1791875" lon="13.7109111"><ele>495.20000000000005</ele><time>2026-05-01T08:56:40.04Z</time></trkpt><trkpt lat="42.1792908" lon="13.7109279"><ele>493.40000000000003</ele><time>2026-05-01T08:56:42.073Z</time></trkpt><trkpt lat="42.1793107" lon="13.7110423"><ele>491.59999999999997</ele><time>2026-05-01T08:56:44.054Z</time></trkpt><trkpt lat="42.1792186" lon="13.7111554"><ele>489.79999999999995</ele><time>2026-05-01T08:56:46.037Z</time></trkpt><trkpt lat="42.1791488" lon="13.7111973"><ele>488.0</ele><time>2026-05-01T08:56:47.029Z</time></trkpt><trkpt lat="42.1790701" lon="13.7112501"><ele>489.79999999999995</ele><time>2026-05-01T08:56:48.046Z</time></trkpt><trkpt lat="42.1789829" lon="13.7113208"><ele>491.59999999999997</ele><time>2026-05-01T08:56:49.05Z</time></trkpt><trkpt lat="42.1788929" lon="13.7113855"><ele>493.40000000000003</ele><time>2026-05-01T08:56:50.044Z</time></trkpt><trkpt lat="42.1788017" lon="13.7114392"><ele>495.20000000000005</ele><time>2026-05-01T08:56:51.05Z</time></trkpt><trkpt lat="42.178717" lon="13.7114948"><ele>497.0</ele><time>2026-05-01T08:56:52.043Z</time></trkpt><trkpt lat="42.1786453" lon="13.7115668"><ele>496.99999999999994</ele><time>2026-05-01T08:56:53.054Z</time></trkpt><trkpt lat="42.1786024" lon="13.7116429"><ele>497.0</ele><time>2026-05-01T08:56:54.038Z</time></trkpt><trkpt lat="42.1785723" lon="13.7117386"><ele>497.0</ele><time>2026-05-01T08:56:55.05Z</time></trkpt><trkpt lat="42.1785378" lon="13.7118349"><ele>497.0</ele><time>2026-05-01T08:56:56.049Z</time></trkpt><trkpt lat="42.1784723" lon="13.7119173"><ele>496.99999999999994</ele><time>2026-05-01T08:56:57.052Z</time></trkpt><trkpt lat="42.1783985" lon="13.7119458"><ele>497.0</ele><time>2026-05-01T08:56:58.035Z</time></trkpt><trkpt lat="42.1783183" lon="13.7119265"><ele>496.99999999999994</ele><time>2026-05-01T08:56:59.057Z</time></trkpt><trkpt lat="42.1782467" lon="13.7118826"><ele>497.0</ele><time>2026-05-01T08:57:00.036Z</time></trkpt><trkpt lat="42.1781672" lon="13.7118208"><ele>497.0</ele><time>2026-05-01T08:57:02.044Z</time></trkpt><trkpt lat="42.1780854" lon="13.7117932"><ele>497.0</ele><time>2026-05-01T08:57:04.049Z</time></trkpt><trkpt lat="42.1779683" lon="13.7117823"><ele>496.99999999999994</ele><time>2026-05-01T08:57:06.049Z</time></trkpt><trkpt lat="42.1778976" lon="13.7117718"><ele>497.0</ele><time>2026-05-01T08:57:07.047Z</time></trkpt><trkpt lat="42.177823" lon="13.7117568"><ele>495.66666666666663</ele><time>2026-05-01T08:57:08.053Z</time></trkpt><trkpt lat="42.1777429" lon="13.7117506"><ele>494.3333333333333</ele><time>2026-05-01T08:57:09.054Z</time></trkpt><trkpt lat="42.1776599" lon="13.7117349"><ele>493.0</ele><time>2026-05-01T08:57:10.053Z</time></trkpt><trkpt lat="42.1775846" lon="13.7117201"><ele>491.66666666666663</ele><time>2026-05-01T08:57:11.04Z</time></trkpt><trkpt lat="42.1775129" lon="13.7117386"><ele>490.3333333333333</ele><time>2026-05-01T08:57:12.047Z</time></trkpt><trkpt lat="42.1774479" lon="13.7117803"><ele>489.0</ele><time>2026-05-01T08:57:13.049Z</time></trkpt><trkpt lat="42.177381" lon="13.7118474"><ele>489.1666666666667</ele><time>2026-05-01T08:57:14.041Z</time></trkpt><trkpt lat="42.1773217" lon="13.7119297"><ele>489.33333333333337</ele><time>2026-05-01T08:57:15.048Z</time></trkpt><trkpt lat="42.1772626" lon="13.7120247"><ele>489.5</ele><time>2026-05-01T08:57:16.035Z</time></trkpt><trkpt lat="42.1772032" lon="13.7121178"><ele>489.6666666666667</ele><time>2026-05-01T08:57:17.052Z</time></trkpt><trkpt lat="42.1771529" lon="13.7122142"><ele>489.83333333333337</ele><time>2026-05-01T08:57:18.059Z</time></trkpt><trkpt lat="42.1771097" lon="13.7123177"><ele>490.0</ele><time>2026-05-01T08:57:19.058Z</time></trkpt><trkpt lat="42.1770691" lon="13.7124236"><ele>490.0</ele><time>2026-05-01T08:57:20.045Z</time></trkpt><trkpt lat="42.1770397" lon="13.7125387"><ele>490.0</ele><time>2026-05-01T08:57:21.048Z</time></trkpt><trkpt lat="42.1770253" lon="13.7126568"><ele>490.0</ele><time>2026-05-01T08:57:22.049Z</time></trkpt><trkpt lat="42.1770178" lon="13.7127823"><ele>490.0</ele><time>2026-05-01T08:57:23.049Z</time></trkpt><trkpt lat="42.1770178" lon="13.7129128"><ele>490.0</ele><time>2026-05-01T08:57:24.044Z</time></trkpt><trkpt lat="42.1770117" lon="13.7130475"><ele>492.6</ele><time>2026-05-01T08:57:25.045Z</time></trkpt><trkpt lat="42.1769973" lon="13.7131826"><ele>495.2</ele><time>2026-05-01T08:57:26.051Z</time></trkpt><trkpt lat="42.176991" lon="13.7133175"><ele>497.79999999999995</ele><time>2026-05-01T08:57:27.058Z</time></trkpt><trkpt lat="42.1769904" lon="13.7134584"><ele>500.4</ele><time>2026-05-01T08:57:28.039Z</time></trkpt><trkpt lat="42.176983" lon="13.7135988"><ele>503.0</ele><time>2026-05-01T08:57:29.063Z</time></trkpt><trkpt lat="42.1769686" lon="13.7137368"><ele>505.79999999999995</ele><time>2026-05-01T08:57:30.038Z</time></trkpt><trkpt lat="42.1769481" lon="13.7138676"><ele>508.59999999999997</ele><time>2026-05-01T08:57:31.039Z</time></trkpt><trkpt lat="42.1769197" lon="13.7139967"><ele>511.40000000000003</ele><time>2026-05-01T08:57:32.045Z</time></trkpt><trkpt lat="42.1768791" lon="13.7141303"><ele>514.2</ele><time>2026-05-01T08:57:33.058Z</time></trkpt><trkpt lat="42.1768241" lon="13.7142606"><ele>517.0</ele><time>2026-05-01T08:57:34.048Z</time></trkpt><trkpt lat="42.1767718" lon="13.7143917"><ele>522.0</ele><time>2026-05-01T08:57:35.035Z</time></trkpt><trkpt lat="42.1767204" lon="13.7145176"><ele>527.0</ele><time>2026-05-01T08:57:36.05Z</time></trkpt><trkpt lat="42.1766688" lon="13.714636"><ele>532.0</ele><time>2026-05-01T08:57:37.04Z</time></trkpt><trkpt lat="42.1766197" lon="13.7147343"><ele>537.0</ele><time>2026-05-01T08:57:38.064Z</time></trkpt><trkpt lat="42.1765735" lon="13.7147928"><ele>542.0</ele><time>2026-05-01T08:57:39.042Z</time></trkpt><trkpt lat="42.1764514" lon="13.7148145"><ele>544.2</ele><time>2026-05-01T08:57:41.036Z</time></trkpt><trkpt lat="42.1763836" lon="13.7147638"><ele>546.4000000000001</ele><time>2026-05-01T08:57:42.037Z</time></trkpt><trkpt lat="42.1763143" lon="13.714684"><ele>548.5999999999999</ele><time>2026-05-01T08:57:43.066Z</time></trkpt><trkpt lat="42.1762377" lon="13.7146114"><ele>550.8</ele><time>2026-05-01T08:57:44.045Z</time></trkpt><trkpt lat="42.1761556" lon="13.7145426"><ele>553.0</ele><time>2026-05-01T08:57:45.047Z</time></trkpt><trkpt lat="42.1760718" lon="13.71447"><ele>547.1999999999999</ele><time>2026-05-01T08:57:46.037Z</time></trkpt><trkpt lat="42.1759967" lon="13.7143784"><ele>541.4</ele><time>2026-05-01T08:57:47.047Z</time></trkpt><trkpt lat="42.1759225" lon="13.7142829"><ele>535.5999999999999</ele><time>2026-05-01T08:57:48.049Z</time></trkpt><trkpt lat="42.1758462" lon="13.7141956"><ele>529.8</ele><time>2026-05-01T08:57:49.039Z</time></trkpt><trkpt lat="42.1757692" lon="13.7141095"><ele>524.0</ele><time>2026-05-01T08:57:50.04Z</time></trkpt><trkpt lat="42.1757023" lon="13.714038"><ele>524.0</ele><time>2026-05-01T08:57:51.042Z</time></trkpt><trkpt lat="42.1756477" lon="13.7139783"><ele>524.0</ele><time>2026-05-01T08:57:52.038Z</time></trkpt><trkpt lat="42.175593" lon="13.7139349"><ele>524.0</ele><time>2026-05-01T08:57:53.056Z</time></trkpt><trkpt lat="42.1754754" lon="13.7138949"><ele>524.0</ele><time>2026-05-01T08:57:55.048Z</time></trkpt><trkpt lat="42.1753757" lon="13.7139159"><ele>524.0</ele><time>2026-05-01T08:57:57.037Z</time></trkpt><trkpt lat="42.1752654" lon="13.7139961"><ele>524.0</ele><time>2026-05-01T08:57:59.045Z</time></trkpt><trkpt lat="42.175205" lon="13.7140535"><ele>524.0</ele><time>2026-05-01T08:58:00.053Z</time></trkpt><trkpt lat="42.1751361" lon="13.7141178"><ele>524.0</ele><time>2026-05-01T08:58:01.048Z</time></trkpt><trkpt lat="42.1750707" lon="13.7141935"><ele>524.0</ele><time>2026-05-01T08:58:02.046Z</time></trkpt><trkpt lat="42.1750076" lon="13.7142763"><ele>524.0</ele><time>2026-05-01T08:58:03.045Z</time></trkpt><trkpt lat="42.1749448" lon="13.7143639"><ele>524.0</ele><time>2026-05-01T08:58:04.061Z</time></trkpt><trkpt lat="42.1748831" lon="13.7144549"><ele>520.3333333333333</ele><time>2026-05-01T08:58:05.04Z</time></trkpt><trkpt lat="42.1748309" lon="13.71454"><ele>516.6666666666666</ele><time>2026-05-01T08:58:06.054Z</time></trkpt><trkpt lat="42.1747865" lon="13.7146128"><ele>513.0</ele><time>2026-05-01T08:58:07.044Z</time></trkpt><trkpt lat="42.1747466" lon="13.7146804"><ele>509.33333333333337</ele><time>2026-05-01T08:58:08.05Z</time></trkpt><trkpt lat="42.1747057" lon="13.7148443"><ele>505.6666666666667</ele><time>2026-05-01T08:58:10.069Z</time></trkpt><trkpt lat="42.1747169" lon="13.714943"><ele>502.0</ele><time>2026-05-01T08:58:11.05Z</time></trkpt><trkpt lat="42.1747594" lon="13.715037"><ele>502.00000000000006</ele><time>2026-05-01T08:58:12.044Z</time></trkpt><trkpt lat="42.1748187" lon="13.7151153"><ele>502.0</ele><time>2026-05-01T08:58:13.052Z</time></trkpt><trkpt lat="42.174882" lon="13.7152043"><ele>502.0</ele><time>2026-05-01T08:58:14.043Z</time></trkpt><trkpt lat="42.174939" lon="13.7152964"><ele>502.0</ele><time>2026-05-01T08:58:15.041Z</time></trkpt><trkpt lat="42.1749964" lon="13.715382"><ele>502.00000000000006</ele><time>2026-05-01T08:58:16.039Z</time></trkpt><trkpt lat="42.1750531" lon="13.7154712"><ele>502.0</ele><time>2026-05-01T08:58:17.047Z</time></trkpt><trkpt lat="42.1751003" lon="13.7155641"><ele>506.50000000000006</ele><time>2026-05-01T08:58:18.041Z</time></trkpt><trkpt lat="42.1751471" lon="13.7156645"><ele>511.0</ele><time>2026-05-01T08:58:19.043Z</time></trkpt><trkpt lat="42.1751866" lon="13.7157705"><ele>515.5</ele><time>2026-05-01T08:58:20.046Z</time></trkpt><trkpt lat="42.1752142" lon="13.7158813"><ele>520.0</ele><time>2026-05-01T08:58:21.051Z</time></trkpt><trkpt lat="42.1752331" lon="13.7159983"><ele>524.5</ele><time>2026-05-01T08:58:22.04Z</time></trkpt><trkpt lat="42.1752524" lon="13.7161122"><ele>529.0</ele><time>2026-05-01T08:58:23.049Z</time></trkpt><trkpt lat="42.175276" lon="13.7162297"><ele>529.0</ele><time>2026-05-01T08:58:24.049Z</time></trkpt><trkpt lat="42.175306" lon="13.7163462"><ele>529.0</ele><time>2026-05-01T08:58:25.054Z</time></trkpt><trkpt lat="42.1753426" lon="13.716459"><ele>529.0</ele><time>2026-05-01T08:58:26.042Z</time></trkpt><trkpt lat="42.1753765" lon="13.7165721"><ele>529.0</ele><time>2026-05-01T08:58:27.051Z</time></trkpt><trkpt lat="42.1754024" lon="13.7166861"><ele>529.0</ele><time>2026-05-01T08:58:28.044Z</time></trkpt><trkpt lat="42.1754167" lon="13.7168028"><ele>529.0</ele><time>2026-05-01T08:58:29.045Z</time></trkpt><trkpt lat="42.1754169" lon="13.7169251"><ele>531.6</ele><time>2026-05-01T08:58:30.048Z</time></trkpt><trkpt lat="42.1754096" lon="13.7170613"><ele>534.2</ele><time>2026-05-01T08:58:31.053Z</time></trkpt><trkpt lat="42.1754062" lon="13.7172042"><ele>536.8000000000001</ele><time>2026-05-01T08:58:32.071Z</time></trkpt><trkpt lat="42.1753995" lon="13.7173563"><ele>539.4</ele><time>2026-05-01T08:58:33.041Z</time></trkpt><trkpt lat="42.1753982" lon="13.7175098"><ele>542.0</ele><time>2026-05-01T08:58:34.047Z</time></trkpt><trkpt lat="42.1754118" lon="13.7176701"><ele>544.6</ele><time>2026-05-01T08:58:35.048Z</time></trkpt><trkpt lat="42.1754325" lon="13.7178283"><ele>547.2</ele><time>2026-05-01T08:58:36.046Z</time></trkpt><trkpt lat="42.1754445" lon="13.717976"><ele>549.8</ele><time>2026-05-01T08:58:37.045Z</time></trkpt><trkpt lat="42.175441" lon="13.718102"><ele>552.4</ele><time>2026-05-01T08:58:38.043Z</time></trkpt><trkpt lat="42.175413" lon="13.7182251"><ele>555.0</ele><time>2026-05-01T08:58:39.05Z</time></trkpt><trkpt lat="42.1753684" lon="13.7183426"><ele>555.0</ele><time>2026-05-01T08:58:40.042Z</time></trkpt><trkpt lat="42.1753206" lon="13.7184499"><ele>555.0</ele><time>2026-05-01T08:58:41.045Z</time></trkpt><trkpt lat="42.1752794" lon="13.7185493"><ele>555.0</ele><time>2026-05-01T08:58:42.054Z</time></trkpt><trkpt lat="42.1752506" lon="13.7186448"><ele>555.0</ele><time>2026-05-01T08:58:43.049Z</time></trkpt><trkpt lat="42.1752341" lon="13.7187348"><ele>555.0</ele><time>2026-05-01T08:58:44.041Z</time></trkpt><trkpt lat="42.1752432" lon="13.7188307"><ele>555.0</ele><time>2026-05-01T08:58:45.04Z</time></trkpt><trkpt lat="42.1752848" lon="13.7189217"><ele>558.0</ele><time>2026-05-01T08:58:46.047Z</time></trkpt><trkpt lat="42.1753565" lon="13.7189933"><ele>561.0</ele><time>2026-05-01T08:58:47.04Z</time></trkpt><trkpt lat="42.175438" lon="13.7190612"><ele>564.0</ele><time>2026-05-01T08:58:48.041Z</time></trkpt><trkpt lat="42.1755207" lon="13.719141"><ele>567.0</ele><time>2026-05-01T08:58:49.055Z</time></trkpt><trkpt lat="42.1755931" lon="13.7192296"><ele>570.0</ele><time>2026-05-01T08:58:50.043Z</time></trkpt><trkpt lat="42.1756592" lon="13.7193328"><ele>572.2</ele><time>2026-05-01T08:58:51.039Z</time></trkpt><trkpt lat="42.1757165" lon="13.7194466"><ele>574.4</ele><time>2026-05-01T08:58:52.056Z</time></trkpt><trkpt lat="42.1757712" lon="13.7195662"><ele>576.6</ele><time>2026-05-01T08:58:53.043Z</time></trkpt><trkpt lat="42.1758204" lon="13.7196897"><ele>578.8</ele><time>2026-05-01T08:58:54.047Z</time></trkpt><trkpt lat="42.1758642" lon="13.719818"><ele>581.0</ele><time>2026-05-01T08:58:55.049Z</time></trkpt><trkpt lat="42.1758964" lon="13.7199503"><ele>581.0</ele><time>2026-05-01T08:58:56.036Z</time></trkpt><trkpt lat="42.1759166" lon="13.7200879"><ele>581.0</ele><time>2026-05-01T08:58:57.037Z</time></trkpt><trkpt lat="42.1759334" lon="13.7202299"><ele>581.0</ele><time>2026-05-01T08:58:58.046Z</time></trkpt><trkpt lat="42.1759384" lon="13.7203715"><ele>581.0</ele><time>2026-05-01T08:58:59.043Z</time></trkpt><trkpt lat="42.1759293" lon="13.720511"><ele>581.0</ele><time>2026-05-01T08:59:00.05Z</time></trkpt><trkpt lat="42.1759115" lon="13.7206418"><ele>582.0</ele><time>2026-05-01T08:59:01.036Z</time></trkpt><trkpt lat="42.1758945" lon="13.7207497"><ele>583.0</ele><time>2026-05-01T08:59:02.039Z</time></trkpt><trkpt lat="42.1758816" lon="13.7208451"><ele>584.0</ele><time>2026-05-01T08:59:03.039Z</time></trkpt><trkpt lat="42.1758896" lon="13.720997"><ele>585.0</ele><time>2026-05-01T08:59:05.051Z</time></trkpt><trkpt lat="42.1759952" lon="13.7210612"><ele>586.0</ele><time>2026-05-01T08:59:07.055Z</time></trkpt><trkpt lat="42.1760877" lon="13.7209338"><ele>586.0</ele><time>2026-05-01T08:59:09.044Z</time></trkpt><trkpt lat="42.1761113" lon="13.7208172"><ele>586.0</ele><time>2026-05-01T08:59:10.041Z</time></trkpt><trkpt lat="42.1761316" lon="13.7206881"><ele>586.0</ele><time>2026-05-01T08:59:11.039Z</time></trkpt><trkpt lat="42.1761619" lon="13.7205473"><ele>586.0</ele><time>2026-05-01T08:59:12.047Z</time></trkpt><trkpt lat="42.17619" lon="13.7204078"><ele>586.0</ele><time>2026-05-01T08:59:13.047Z</time></trkpt><trkpt lat="42.1762273" lon="13.7202807"><ele>585.0</ele><time>2026-05-01T08:59:14.039Z</time></trkpt><trkpt lat="42.1762563" lon="13.7201469"><ele>584.0</ele><time>2026-05-01T08:59:15.053Z</time></trkpt><trkpt lat="42.1762741" lon="13.7200024"><ele>583.0</ele><time>2026-05-01T08:59:16.033Z</time></trkpt><trkpt lat="42.1762696" lon="13.7198563"><ele>582.0</ele><time>2026-05-01T08:59:17.056Z</time></trkpt><trkpt lat="42.176247" lon="13.7197056"><ele>581.0</ele><time>2026-05-01T08:59:18.041Z</time></trkpt><trkpt lat="42.1762195" lon="13.7195505"><ele>581.0</ele><time>2026-05-01T08:59:19.053Z</time></trkpt><trkpt lat="42.1761907" lon="13.7194085"><ele>581.0</ele><time>2026-05-01T08:59:20.05Z</time></trkpt><trkpt lat="42.1761583" lon="13.7192715"><ele>581.0</ele><time>2026-05-01T08:59:21.043Z</time></trkpt><trkpt lat="42.176127" lon="13.7191471"><ele>581.0</ele><time>2026-05-01T08:59:22.052Z</time></trkpt><trkpt lat="42.176097" lon="13.719025"><ele>581.0</ele><time>2026-05-01T08:59:23.042Z</time></trkpt><trkpt lat="42.1760843" lon="13.7189006"><ele>580.8</ele><time>2026-05-01T08:59:24.043Z</time></trkpt><trkpt lat="42.1760812" lon="13.7187727"><ele>580.6</ele><time>2026-05-01T08:59:25.056Z</time></trkpt><trkpt lat="42.1760869" lon="13.7186463"><ele>580.4</ele><time>2026-05-01T08:59:26.042Z</time></trkpt><trkpt lat="42.1760929" lon="13.718524"><ele>580.2</ele><time>2026-05-01T08:59:27.046Z</time></trkpt><trkpt lat="42.1761028" lon="13.7184046"><ele>580.0</ele><time>2026-05-01T08:59:28.047Z</time></trkpt><trkpt lat="42.1761134" lon="13.7182916"><ele>580.1666666666667</ele><time>2026-05-01T08:59:29.041Z</time></trkpt><trkpt lat="42.1761268" lon="13.7181794"><ele>580.3333333333334</ele><time>2026-05-01T08:59:30.041Z</time></trkpt><trkpt lat="42.1761455" lon="13.7180692"><ele>580.5</ele><time>2026-05-01T08:59:31.038Z</time></trkpt><trkpt lat="42.176158" lon="13.7179692"><ele>580.6666666666666</ele><time>2026-05-01T08:59:32.044Z</time></trkpt><trkpt lat="42.1761664" lon="13.7178805"><ele>580.8333333333333</ele><time>2026-05-01T08:59:33.041Z</time></trkpt><trkpt lat="42.1761935" lon="13.7177392"><ele>581.0</ele><time>2026-05-01T08:59:35.043Z</time></trkpt><trkpt lat="42.1762586" lon="13.7176702"><ele>581.0</ele><time>2026-05-01T08:59:37.067Z</time></trkpt><trkpt lat="42.1763553" lon="13.7176657"><ele>581.0</ele><time>2026-05-01T08:59:39.043Z</time></trkpt><trkpt lat="42.1764215" lon="13.7176852"><ele>581.0</ele><time>2026-05-01T08:59:40.048Z</time></trkpt><trkpt lat="42.1765131" lon="13.7177452"><ele>581.0</ele><time>2026-05-01T08:59:42.037Z</time></trkpt><trkpt lat="42.1765887" lon="13.7178254"><ele>581.0</ele><time>2026-05-01T08:59:44.06Z</time></trkpt><trkpt lat="42.1766391" lon="13.7178765"><ele>581.0</ele><time>2026-05-01T08:59:46.044Z</time></trkpt><trkpt lat="42.1767166" lon="13.7179389"><ele>584.3333333333333</ele><time>2026-05-01T08:59:48.049Z</time></trkpt><trkpt lat="42.1767765" lon="13.7179689"><ele>587.6666666666666</ele><time>2026-05-01T08:59:49.047Z</time></trkpt><trkpt lat="42.1768497" lon="13.7179994"><ele>591.0</ele><time>2026-05-01T08:59:50.054Z</time></trkpt><trkpt lat="42.176926" lon="13.7180344"><ele>594.3333333333334</ele><time>2026-05-01T08:59:51.054Z</time></trkpt><trkpt lat="42.1770056" lon="13.7180846"><ele>597.6666666666667</ele><time>2026-05-01T08:59:52.049Z</time></trkpt><trkpt lat="42.1770861" lon="13.7181537"><ele>601.0</ele><time>2026-05-01T08:59:53.047Z</time></trkpt><trkpt lat="42.1771618" lon="13.7182305"><ele>601.0</ele><time>2026-05-01T08:59:54.055Z</time></trkpt><trkpt lat="42.1772381" lon="13.7183168"><ele>601.0</ele><time>2026-05-01T08:59:55.044Z</time></trkpt><trkpt lat="42.1773077" lon="13.7184195"><ele>601.0</ele><time>2026-05-01T08:59:56.052Z</time></trkpt><trkpt lat="42.1773734" lon="13.7185302"><ele>601.0</ele><time>2026-05-01T08:59:57.046Z</time></trkpt><trkpt lat="42.1774473" lon="13.7186474"><ele>601.0</ele><time>2026-05-01T08:59:58.051Z</time></trkpt><trkpt lat="42.1775159" lon="13.7187706"><ele>602.5</ele><time>2026-05-01T08:59:59.035Z</time></trkpt><trkpt lat="42.177575" lon="13.7189022"><ele>604.0</ele><time>2026-05-01T09:00:00.049Z</time></trkpt><trkpt lat="42.1776329" lon="13.7190438"><ele>605.5</ele><time>2026-05-01T09:00:01.043Z</time></trkpt><trkpt lat="42.1776803" lon="13.7191965"><ele>607.0</ele><time>2026-05-01T09:00:02.057Z</time></trkpt><trkpt lat="42.1777205" lon="13.7193586"><ele>608.5</ele><time>2026-05-01T09:00:03.055Z</time></trkpt><trkpt lat="42.1777586" lon="13.7195202"><ele>610.0</ele><time>2026-05-01T09:00:04.045Z</time></trkpt><trkpt lat="42.1777988" lon="13.7196922"><ele>611.5</ele><time>2026-05-01T09:00:05.053Z</time></trkpt><trkpt lat="42.1778393" lon="13.7198579"><ele>613.0</ele><time>2026-05-01T09:00:06.056Z</time></trkpt><trkpt lat="42.1778821" lon="13.7200129"><ele>613.0</ele><time>2026-05-01T09:00:07.041Z</time></trkpt><trkpt lat="42.1779332" lon="13.7201447"><ele>613.0</ele><time>2026-05-01T09:00:08.046Z</time></trkpt><trkpt lat="42.1779881" lon="13.7202655"><ele>613.0</ele><time>2026-05-01T09:00:09.046Z</time></trkpt><trkpt lat="42.1780574" lon="13.7203624"><ele>613.0</ele><time>2026-05-01T09:00:10.021Z</time></trkpt><trkpt lat="42.1781419" lon="13.7204343"><ele>613.0</ele><time>2026-05-01T09:00:11.033Z</time></trkpt><trkpt lat="42.1782396" lon="13.7204799"><ele>612.8</ele><time>2026-05-01T09:00:12.043Z</time></trkpt><trkpt lat="42.1783399" lon="13.7204774"><ele>612.5999999999999</ele><time>2026-05-01T09:00:13.05Z</time></trkpt><trkpt lat="42.178427" lon="13.7204406"><ele>612.4000000000001</ele><time>2026-05-01T09:00:14.049Z</time></trkpt><trkpt lat="42.1785073" lon="13.7203674"><ele>612.2</ele><time>2026-05-01T09:00:15.047Z</time></trkpt><trkpt lat="42.1785757" lon="13.7202355"><ele>612.0</ele><time>2026-05-01T09:00:16.049Z</time></trkpt><trkpt lat="42.1786184" lon="13.7200896"><ele>611.25</ele><time>2026-05-01T09:00:17.046Z</time></trkpt><trkpt lat="42.1786679" lon="13.719933"><ele>610.5</ele><time>2026-05-01T09:00:18.045Z</time></trkpt><trkpt lat="42.1787279" lon="13.719774"><ele>609.75</ele><time>2026-05-01T09:00:19.06Z</time></trkpt><trkpt lat="42.178792" lon="13.71961"><ele>609.0</ele><time>2026-05-01T09:00:20.057Z</time></trkpt><trkpt lat="42.1788582" lon="13.7194471"><ele>607.5</ele><time>2026-05-01T09:00:21.047Z</time></trkpt><trkpt lat="42.1789343" lon="13.7192983"><ele>606.0</ele><time>2026-05-01T09:00:22.058Z</time></trkpt><trkpt lat="42.1790234" lon="13.7191663"><ele>604.5</ele><time>2026-05-01T09:00:23.054Z</time></trkpt><trkpt lat="42.179132" lon="13.719051"><ele>603.0</ele><time>2026-05-01T09:00:24.05Z</time></trkpt><trkpt lat="42.1792596" lon="13.7189567"><ele>607.3333333333334</ele><time>2026-05-01T09:00:25.047Z</time></trkpt><trkpt lat="42.1794043" lon="13.7188768"><ele>611.6666666666667</ele><time>2026-05-01T09:00:26.059Z</time></trkpt><trkpt lat="42.1795516" lon="13.718803"><ele>616.0</ele><time>2026-05-01T09:00:27.048Z</time></trkpt><trkpt lat="42.1797031" lon="13.7187295"><ele>616.6666666666667</ele><time>2026-05-01T09:00:28.046Z</time></trkpt><trkpt lat="42.1798529" lon="13.7186606"><ele>617.3333333333334</ele><time>2026-05-01T09:00:29.047Z</time></trkpt><trkpt lat="42.1800004" lon="13.7185921"><ele>618.0</ele><time>2026-05-01T09:00:30.048Z</time></trkpt><trkpt lat="42.1801437" lon="13.7185258"><ele>618.0</ele><time>2026-05-01T09:00:31.053Z</time></trkpt><trkpt lat="42.1802766" lon="13.7184655"><ele>618.0</ele><time>2026-05-01T09:00:32.051Z</time></trkpt><trkpt lat="42.1804051" lon="13.7184121"><ele>618.0</ele><time>2026-05-01T09:00:33.042Z</time></trkpt><trkpt lat="42.1805184" lon="13.7183557"><ele>618.0</ele><time>2026-05-01T09:00:34.049Z</time></trkpt><trkpt lat="42.1806169" lon="13.7182868"><ele>618.1999999999999</ele><time>2026-05-01T09:00:35.055Z</time></trkpt><trkpt lat="42.1806965" lon="13.7181877"><ele>618.4</ele><time>2026-05-01T09:00:36.044Z</time></trkpt><trkpt lat="42.1807508" lon="13.7180651"><ele>618.5999999999999</ele><time>2026-05-01T09:00:37.048Z</time></trkpt><trkpt lat="42.1807668" lon="13.7179148"><ele>618.8</ele><time>2026-05-01T09:00:38.047Z</time></trkpt><trkpt lat="42.1807355" lon="13.7177616"><ele>619.0</ele><time>2026-05-01T09:00:39.047Z</time></trkpt><trkpt lat="42.1806592" lon="13.7176295"><ele>619.0</ele><time>2026-05-01T09:00:40.058Z</time></trkpt><trkpt lat="42.180553" lon="13.71752"><ele>619.0</ele><time>2026-05-01T09:00:41.045Z</time></trkpt><trkpt lat="42.1804411" lon="13.7174209"><ele>619.0</ele><time>2026-05-01T09:00:42.042Z</time></trkpt><trkpt lat="42.1803348" lon="13.7173212"><ele>619.0</ele><time>2026-05-01T09:00:43.042Z</time></trkpt><trkpt lat="42.1802363" lon="13.7172244"><ele>619.0</ele><time>2026-05-01T09:00:44.048Z</time></trkpt><trkpt lat="42.1801529" lon="13.7171098"><ele>619.0</ele><time>2026-05-01T09:00:45.054Z</time></trkpt><trkpt lat="42.1800937" lon="13.7169907"><ele>619.0</ele><time>2026-05-01T09:00:46.045Z</time></trkpt><trkpt lat="42.1800663" lon="13.716866"><ele>619.0</ele><time>2026-05-01T09:00:47.045Z</time></trkpt><trkpt lat="42.1800692" lon="13.7167296"><ele>619.0</ele><time>2026-05-01T09:00:48.034Z</time></trkpt><trkpt lat="42.1801185" lon="13.7165895"><ele>621.6666666666667</ele><time>2026-05-01T09:00:49.055Z</time></trkpt><trkpt lat="42.1802144" lon="13.7164553"><ele>624.3333333333334</ele><time>2026-05-01T09:00:50.043Z</time></trkpt><trkpt lat="42.1803349" lon="13.716325"><ele>627.0</ele><time>2026-05-01T09:00:51.04Z</time></trkpt><trkpt lat="42.1804615" lon="13.7161836"><ele>627.0</ele><time>2026-05-01T09:00:52.061Z</time></trkpt><trkpt lat="42.1805877" lon="13.7160374"><ele>627.0</ele><time>2026-05-01T09:00:53.046Z</time></trkpt><trkpt lat="42.1807056" lon="13.7158935"><ele>627.0</ele><time>2026-05-01T09:00:54.043Z</time></trkpt><trkpt lat="42.1808204" lon="13.7157578"><ele>627.25</ele><time>2026-05-01T09:00:55.041Z</time></trkpt><trkpt lat="42.1809279" lon="13.7156236"><ele>627.5</ele><time>2026-05-01T09:00:56.054Z</time></trkpt><trkpt lat="42.1810365" lon="13.715495"><ele>627.75</ele><time>2026-05-01T09:00:57.048Z</time></trkpt><trkpt lat="42.1811438" lon="13.7153686"><ele>628.0</ele><time>2026-05-01T09:00:58.053Z</time></trkpt><trkpt lat="42.1812413" lon="13.7152492"><ele>628.6</ele><time>2026-05-01T09:00:59.047Z</time></trkpt><trkpt lat="42.1813362" lon="13.7151438"><ele>629.1999999999999</ele><time>2026-05-01T09:01:00.053Z</time></trkpt><trkpt lat="42.181424" lon="13.7150453"><ele>629.8</ele><time>2026-05-01T09:01:01.06Z</time></trkpt><trkpt lat="42.1815177" lon="13.7149698"><ele>630.4</ele><time>2026-05-01T09:01:02.043Z</time></trkpt><trkpt lat="42.181617" lon="13.7149346"><ele>631.0</ele><time>2026-05-01T09:01:03.05Z</time></trkpt><trkpt lat="42.1817351" lon="13.7149453"><ele>631.0</ele><time>2026-05-01T09:01:04.051Z</time></trkpt><trkpt lat="42.181856" lon="13.7150009"><ele>631.0</ele><time>2026-05-01T09:01:05.049Z</time></trkpt><trkpt lat="42.1819728" lon="13.7150835"><ele>631.0</ele><time>2026-05-01T09:01:06.045Z</time></trkpt><trkpt lat="42.1820869" lon="13.7151803"><ele>631.0</ele><time>2026-05-01T09:01:07.051Z</time></trkpt><trkpt lat="42.1821983" lon="13.7152782"><ele>635.0</ele><time>2026-05-01T09:01:08.054Z</time></trkpt><trkpt lat="42.1823194" lon="13.7153735"><ele>639.0</ele><time>2026-05-01T09:01:09.049Z</time></trkpt><trkpt lat="42.1824446" lon="13.7154769"><ele>643.0</ele><time>2026-05-01T09:01:10.058Z</time></trkpt><trkpt lat="42.1825805" lon="13.7155973"><ele>643.3333333333334</ele><time>2026-05-01T09:01:11.05Z</time></trkpt><trkpt lat="42.1827193" lon="13.7157279"><ele>643.6666666666666</ele><time>2026-05-01T09:01:12.046Z</time></trkpt><trkpt lat="42.1828589" lon="13.7158515"><ele>644.0</ele><time>2026-05-01T09:01:13.054Z</time></trkpt><trkpt lat="42.1830077" lon="13.7159533"><ele>644.0</ele><time>2026-05-01T09:01:14.046Z</time></trkpt><trkpt lat="42.1831661" lon="13.7160392"><ele>644.0</ele><time>2026-05-01T09:01:15.05Z</time></trkpt><trkpt lat="42.1833279" lon="13.716108"><ele>644.0</ele><time>2026-05-01T09:01:16.048Z</time></trkpt><trkpt lat="42.1834813" lon="13.7161692"><ele>646.75</ele><time>2026-05-01T09:01:17.047Z</time></trkpt><trkpt lat="42.1836201" lon="13.7162294"><ele>649.5</ele><time>2026-05-01T09:01:18.05Z</time></trkpt><trkpt lat="42.1837545" lon="13.7162783"><ele>652.25</ele><time>2026-05-01T09:01:19.042Z</time></trkpt><trkpt lat="42.1838907" lon="13.7163129"><ele>655.0</ele><time>2026-05-01T09:01:20.055Z</time></trkpt><trkpt lat="42.1840252" lon="13.7163228"><ele>655.0</ele><time>2026-05-01T09:01:21.048Z</time></trkpt><trkpt lat="42.1841556" lon="13.7163108"><ele>655.0</ele><time>2026-05-01T09:01:22.045Z</time></trkpt><trkpt lat="42.1842885" lon="13.7162824"><ele>655.0</ele><time>2026-05-01T09:01:23.045Z</time></trkpt><trkpt lat="42.184425" lon="13.7162444"><ele>655.0</ele><time>2026-05-01T09:01:24.057Z</time></trkpt><trkpt lat="42.1845657" lon="13.7161977"><ele>655.0</ele><time>2026-05-01T09:01:25.052Z</time></trkpt><trkpt lat="42.1846915" lon="13.7161215"><ele>655.0</ele><time>2026-05-01T09:01:26.043Z</time></trkpt><trkpt lat="42.1848022" lon="13.7160095"><ele>655.0</ele><time>2026-05-01T09:01:27.049Z</time></trkpt><trkpt lat="42.1849089" lon="13.7158791"><ele>655.0</ele><time>2026-05-01T09:01:28.05Z</time></trkpt><trkpt lat="42.1850042" lon="13.715721"><ele>655.3333333333334</ele><time>2026-05-01T09:01:29.053Z</time></trkpt><trkpt lat="42.1850852" lon="13.7155455"><ele>655.6666666666666</ele><time>2026-05-01T09:01:30.05Z</time></trkpt><trkpt lat="42.1851572" lon="13.7153674"><ele>656.0</ele><time>2026-05-01T09:01:31.06Z</time></trkpt><trkpt lat="42.185227" lon="13.7151852"><ele>652.5</ele><time>2026-05-01T09:01:32.042Z</time></trkpt><trkpt lat="42.1852955" lon="13.7150026"><ele>649.0</ele><time>2026-05-01T09:01:33.053Z</time></trkpt><trkpt lat="42.1853666" lon="13.7148288"><ele>645.5</ele><time>2026-05-01T09:01:34.052Z</time></trkpt><trkpt lat="42.1854434" lon="13.7146674"><ele>642.0</ele><time>2026-05-01T09:01:35.049Z</time></trkpt><trkpt lat="42.1855346" lon="13.7145141"><ele>644.25</ele><time>2026-05-01T09:01:36.055Z</time></trkpt><trkpt lat="42.185642" lon="13.7143745"><ele>646.5</ele><time>2026-05-01T09:01:37.047Z</time></trkpt><trkpt lat="42.1857601" lon="13.7142449"><ele>648.75</ele><time>2026-05-01T09:01:38.041Z</time></trkpt><trkpt lat="42.1858788" lon="13.7141292"><ele>651.0</ele><time>2026-05-01T09:01:39.067Z</time></trkpt><trkpt lat="42.186013" lon="13.7140333"><ele>651.0</ele><time>2026-05-01T09:01:40.043Z</time></trkpt><trkpt lat="42.1861593" lon="13.7139725"><ele>651.0</ele><time>2026-05-01T09:01:41.054Z</time></trkpt><trkpt lat="42.1862972" lon="13.7139293"><ele>651.0</ele><time>2026-05-01T09:01:42.05Z</time></trkpt><trkpt lat="42.1864245" lon="13.7138689"><ele>651.0</ele><time>2026-05-01T09:01:43.055Z</time></trkpt><trkpt lat="42.1865494" lon="13.7137708"><ele>651.6666666666666</ele><time>2026-05-01T09:01:44.076Z</time></trkpt><trkpt lat="42.1866673" lon="13.7136435"><ele>652.3333333333333</ele><time>2026-05-01T09:01:45.054Z</time></trkpt><trkpt lat="42.1867744" lon="13.7134859"><ele>653.0</ele><time>2026-05-01T09:01:46.05Z</time></trkpt><trkpt lat="42.1868783" lon="13.7133105"><ele>653.0</ele><time>2026-05-01T09:01:47.048Z</time></trkpt><trkpt lat="42.1869797" lon="13.7131257"><ele>653.0</ele><time>2026-05-01T09:01:48.051Z</time></trkpt><trkpt lat="42.1870786" lon="13.712934"><ele>653.0</ele><time>2026-05-01T09:01:49.057Z</time></trkpt><trkpt lat="42.1871776" lon="13.7127384"><ele>650.0</ele><time>2026-05-01T09:01:50.05Z</time></trkpt><trkpt lat="42.1872719" lon="13.7125462"><ele>647.0</ele><time>2026-05-01T09:01:51.058Z</time></trkpt><trkpt lat="42.1873549" lon="13.7123475"><ele>644.0</ele><time>2026-05-01T09:01:52.051Z</time></trkpt><trkpt lat="42.1874208" lon="13.7121337"><ele>651.0</ele><time>2026-05-01T09:01:53.058Z</time></trkpt><trkpt lat="42.187471" lon="13.7119033"><ele>658.0</ele><time>2026-05-01T09:01:54.04Z</time></trkpt><trkpt lat="42.1875186" lon="13.7116619"><ele>665.0</ele><time>2026-05-01T09:01:55.042Z</time></trkpt><trkpt lat="42.1875683" lon="13.7114181"><ele>665.0</ele><time>2026-05-01T09:01:56.041Z</time></trkpt><trkpt lat="42.1876271" lon="13.7111804"><ele>665.0</ele><time>2026-05-01T09:01:57.043Z</time></trkpt><trkpt lat="42.1876663" lon="13.7109357"><ele>665.0</ele><time>2026-05-01T09:01:58.05Z</time></trkpt><trkpt lat="42.1877009" lon="13.710688"><ele>665.0</ele><time>2026-05-01T09:01:59.072Z</time></trkpt><trkpt lat="42.1877277" lon="13.7104348"><ele>665.0</ele><time>2026-05-01T09:02:00.058Z</time></trkpt><trkpt lat="42.1877424" lon="13.7101766"><ele>665.0</ele><time>2026-05-01T09:02:01.052Z</time></trkpt><trkpt lat="42.1877506" lon="13.7099279"><ele>665.0</ele><time>2026-05-01T09:02:02.04Z</time></trkpt><trkpt lat="42.1877627" lon="13.7096872"><ele>665.0</ele><time>2026-05-01T09:02:03.041Z</time></trkpt><trkpt lat="42.1877911" lon="13.7094554"><ele>665.0</ele><time>2026-05-01T09:02:04.035Z</time></trkpt><trkpt lat="42.1878433" lon="13.7092499"><ele>664.6666666666666</ele><time>2026-05-01T09:02:05.053Z</time></trkpt><trkpt lat="42.1879157" lon="13.7090502"><ele>664.3333333333334</ele><time>2026-05-01T09:02:06.065Z</time></trkpt><trkpt lat="42.1879843" lon="13.7088402"><ele>664.0</ele><time>2026-05-01T09:02:07.062Z</time></trkpt><trkpt lat="42.1880259" lon="13.7086336"><ele>663.75</ele><time>2026-05-01T09:02:08.05Z</time></trkpt><trkpt lat="42.1880364" lon="13.7084348"><ele>663.5</ele><time>2026-05-01T09:02:09.038Z</time></trkpt><trkpt lat="42.1880105" lon="13.7082394"><ele>663.25</ele><time>2026-05-01T09:02:10.043Z</time></trkpt><trkpt lat="42.18796" lon="13.7080539"><ele>663.0</ele><time>2026-05-01T09:02:11.047Z</time></trkpt><trkpt lat="42.1878923" lon="13.7078823"><ele>665.3333333333334</ele><time>2026-05-01T09:02:12.06Z</time></trkpt><trkpt lat="42.1878077" lon="13.7077162"><ele>667.6666666666667</ele><time>2026-05-01T09:02:13.066Z</time></trkpt><trkpt lat="42.1876984" lon="13.7075595"><ele>670.0</ele><time>2026-05-01T09:02:14.054Z</time></trkpt><trkpt lat="42.1875833" lon="13.7074326"><ele>670.0</ele><time>2026-05-01T09:02:15.043Z</time></trkpt><trkpt lat="42.1874702" lon="13.7073211"><ele>670.0</ele><time>2026-05-01T09:02:16.048Z</time></trkpt><trkpt lat="42.1873599" lon="13.7072307"><ele>670.0</ele><time>2026-05-01T09:02:17.035Z</time></trkpt><trkpt lat="42.187255" lon="13.7071489"><ele>670.0</ele><time>2026-05-01T09:02:18.052Z</time></trkpt><trkpt lat="42.1871553" lon="13.7070763"><ele>670.0</ele><time>2026-05-01T09:02:19.051Z</time></trkpt><trkpt lat="42.1870677" lon="13.7069851"><ele>670.0</ele><time>2026-05-01T09:02:20.049Z</time></trkpt><trkpt lat="42.1869992" lon="13.7068841"><ele>670.0</ele><time>2026-05-01T09:02:21.053Z</time></trkpt><trkpt lat="42.186953" lon="13.7067577"><ele>670.0</ele><time>2026-05-01T09:02:22.052Z</time></trkpt><trkpt lat="42.1869449" lon="13.7066122"><ele>670.0</ele><time>2026-05-01T09:02:23.047Z</time></trkpt><trkpt lat="42.1869699" lon="13.7064628"><ele>670.0</ele><time>2026-05-01T09:02:24.053Z</time></trkpt><trkpt lat="42.1870206" lon="13.7063176"><ele>670.0</ele><time>2026-05-01T09:02:25.056Z</time></trkpt><trkpt lat="42.1870922" lon="13.7061731"><ele>670.0</ele><time>2026-05-01T09:02:26.047Z</time></trkpt><trkpt lat="42.1871846" lon="13.7060483"><ele>670.0</ele><time>2026-05-01T09:02:27.044Z</time></trkpt><trkpt lat="42.1872968" lon="13.7059309"><ele>671.0</ele><time>2026-05-01T09:02:28.051Z</time></trkpt><trkpt lat="42.1874198" lon="13.7058266"><ele>672.0</ele><time>2026-05-01T09:02:29.058Z</time></trkpt><trkpt lat="42.1875538" lon="13.7057397"><ele>673.0</ele><time>2026-05-01T09:02:30.048Z</time></trkpt><trkpt lat="42.1877047" lon="13.7056727"><ele>673.0</ele><time>2026-05-01T09:02:31.056Z</time></trkpt><trkpt lat="42.1878641" lon="13.7056231"><ele>673.0</ele><time>2026-05-01T09:02:32.046Z</time></trkpt><trkpt lat="42.1880255" lon="13.7055872"><ele>673.0</ele><time>2026-05-01T09:02:33.056Z</time></trkpt><trkpt lat="42.1881834" lon="13.7055545"><ele>674.25</ele><time>2026-05-01T09:02:34.048Z</time></trkpt><trkpt lat="42.1883293" lon="13.7055284"><ele>675.5</ele><time>2026-05-01T09:02:35.046Z</time></trkpt><trkpt lat="42.1884641" lon="13.7054921"><ele>676.75</ele><time>2026-05-01T09:02:36.057Z</time></trkpt><trkpt lat="42.1885882" lon="13.7054282"><ele>678.0</ele><time>2026-05-01T09:02:37.043Z</time></trkpt><trkpt lat="42.188698" lon="13.7053306"><ele>675.0</ele><time>2026-05-01T09:02:38.078Z</time></trkpt><trkpt lat="42.1887927" lon="13.7052005"><ele>672.0</ele><time>2026-05-01T09:02:39.053Z</time></trkpt><trkpt lat="42.1888603" lon="13.7050388"><ele>669.0</ele><time>2026-05-01T09:02:40.043Z</time></trkpt><trkpt lat="42.1888952" lon="13.704847"><ele>666.0</ele><time>2026-05-01T09:02:41.046Z</time></trkpt><trkpt lat="42.1888961" lon="13.7046312"><ele>663.6666666666666</ele><time>2026-05-01T09:02:42.041Z</time></trkpt><trkpt lat="42.18889" lon="13.7044046"><ele>661.3333333333333</ele><time>2026-05-01T09:02:43.069Z</time></trkpt><trkpt lat="42.1888891" lon="13.7041736"><ele>659.0</ele><time>2026-05-01T09:02:44.042Z</time></trkpt><trkpt lat="42.1889028" lon="13.7039558"><ele>659.0</ele><time>2026-05-01T09:02:45.051Z</time></trkpt><trkpt lat="42.1889319" lon="13.703749"><ele>659.0</ele><time>2026-05-01T09:02:46.047Z</time></trkpt><trkpt lat="42.1889871" lon="13.7035515"><ele>659.0</ele><time>2026-05-01T09:02:47.041Z</time></trkpt><trkpt lat="42.1890613" lon="13.7033491"><ele>663.3333333333333</ele><time>2026-05-01T09:02:48.046Z</time></trkpt><trkpt lat="42.1891477" lon="13.7031598"><ele>667.6666666666666</ele><time>2026-05-01T09:02:49.056Z</time></trkpt><trkpt lat="42.189227" lon="13.7029692"><ele>672.0</ele><time>2026-05-01T09:02:50.068Z</time></trkpt><trkpt lat="42.1892965" lon="13.7027736"><ele>670.25</ele><time>2026-05-01T09:02:51.072Z</time></trkpt><trkpt lat="42.1893602" lon="13.702588"><ele>668.5</ele><time>2026-05-01T09:02:52.049Z</time></trkpt><trkpt lat="42.1894186" lon="13.7024158"><ele>666.75</ele><time>2026-05-01T09:02:53.045Z</time></trkpt><trkpt lat="42.1894798" lon="13.702259"><ele>665.0</ele><time>2026-05-01T09:02:54.05Z</time></trkpt><trkpt lat="42.1895564" lon="13.7021326"><ele>665.0</ele><time>2026-05-01T09:02:55.051Z</time></trkpt><trkpt lat="42.1896507" lon="13.7020492"><ele>665.0</ele><time>2026-05-01T09:02:56.048Z</time></trkpt><trkpt lat="42.1897584" lon="13.7020133"><ele>665.0</ele><time>2026-05-01T09:02:57.066Z</time></trkpt><trkpt lat="42.189892" lon="13.7020226"><ele>665.0</ele><time>2026-05-01T09:02:58.043Z</time></trkpt><trkpt lat="42.1900287" lon="13.7020437"><ele>665.0</ele><time>2026-05-01T09:02:59.052Z</time></trkpt><trkpt lat="42.1901652" lon="13.7020328"><ele>665.0</ele><time>2026-05-01T09:03:00.043Z</time></trkpt><trkpt lat="42.1902732" lon="13.7019869"><ele>665.0</ele><time>2026-05-01T09:03:01.042Z</time></trkpt><trkpt lat="42.19035" lon="13.7019593"><ele>665.0</ele><time>2026-05-01T09:03:02.051Z</time></trkpt><trkpt lat="42.1904313" lon="13.7018804"><ele>665.0</ele><time>2026-05-01T09:03:04.077Z</time></trkpt><trkpt lat="42.1904761" lon="13.7018042"><ele>665.0</ele><time>2026-05-01T09:03:05.052Z</time></trkpt><trkpt lat="42.1905336" lon="13.7016994"><ele>665.0</ele><time>2026-05-01T09:03:06.064Z</time></trkpt><trkpt lat="42.1905982" lon="13.7015825"><ele>665.0</ele><time>2026-05-01T09:03:07.05Z</time></trkpt><trkpt lat="42.1906719" lon="13.7014544"><ele>665.0</ele><time>2026-05-01T09:03:08.049Z</time></trkpt><trkpt lat="42.1907546" lon="13.7013257"><ele>666.5</ele><time>2026-05-01T09:03:09.047Z</time></trkpt><trkpt lat="42.190846" lon="13.7012169"><ele>668.0</ele><time>2026-05-01T09:03:10.055Z</time></trkpt><trkpt lat="42.1909418" lon="13.7011319"><ele>669.5</ele><time>2026-05-01T09:03:11.047Z</time></trkpt><trkpt lat="42.1910486" lon="13.7010733"><ele>671.0</ele><time>2026-05-01T09:03:12.047Z</time></trkpt><trkpt lat="42.1911616" lon="13.7010314"><ele>668.75</ele><time>2026-05-01T09:03:13.039Z</time></trkpt><trkpt lat="42.1912793" lon="13.700999"><ele>666.5</ele><time>2026-05-01T09:03:14.075Z</time></trkpt><trkpt lat="42.1913981" lon="13.7009665"><ele>664.25</ele><time>2026-05-01T09:03:15.056Z</time></trkpt><trkpt lat="42.1915164" lon="13.7009361"><ele>662.0</ele><time>2026-05-01T09:03:16.056Z</time></trkpt><trkpt lat="42.1916318" lon="13.7009074"><ele>662.0</ele><time>2026-05-01T09:03:17.049Z</time></trkpt><trkpt lat="42.1917465" lon="13.7008871"><ele>662.0</ele><time>2026-05-01T09:03:18.053Z</time></trkpt><trkpt lat="42.1918609" lon="13.7008808"><ele>662.0</ele><time>2026-05-01T09:03:19.05Z</time></trkpt><trkpt lat="42.1919792" lon="13.7008823"><ele>662.0</ele><time>2026-05-01T09:03:20.046Z</time></trkpt><trkpt lat="42.1920986" lon="13.7008907"><ele>662.0</ele><time>2026-05-01T09:03:21.056Z</time></trkpt><trkpt lat="42.1922142" lon="13.7008983"><ele>662.0</ele><time>2026-05-01T09:03:22.051Z</time></trkpt><trkpt lat="42.1923151" lon="13.700882"><ele>662.0</ele><time>2026-05-01T09:03:23.09Z</time></trkpt><trkpt lat="42.1924051" lon="13.7008302"><ele>662.0</ele><time>2026-05-01T09:03:24.046Z</time></trkpt><trkpt lat="42.1924812" lon="13.7007323"><ele>662.0</ele><time>2026-05-01T09:03:25.054Z</time></trkpt><trkpt lat="42.1925353" lon="13.7005919"><ele>661.25</ele><time>2026-05-01T09:03:26.046Z</time></trkpt><trkpt lat="42.1925756" lon="13.7004236"><ele>660.5</ele><time>2026-05-01T09:03:27.048Z</time></trkpt><trkpt lat="42.1926124" lon="13.7002496"><ele>659.75</ele><time>2026-05-01T09:03:28.077Z</time></trkpt><trkpt lat="42.1926615" lon="13.7000896"><ele>659.0</ele><time>2026-05-01T09:03:29.045Z</time></trkpt><trkpt lat="42.1927357" lon="13.6999489"><ele>659.0</ele><time>2026-05-01T09:03:30.04Z</time></trkpt><trkpt lat="42.1928438" lon="13.6998276"><ele>659.0</ele><time>2026-05-01T09:03:31.038Z</time></trkpt><trkpt lat="42.1929723" lon="13.6997273"><ele>659.0</ele><time>2026-05-01T09:03:32.04Z</time></trkpt><trkpt lat="42.1931024" lon="13.6996239"><ele>659.0</ele><time>2026-05-01T09:03:33.053Z</time></trkpt><trkpt lat="42.1932326" lon="13.6995201"><ele>660.0</ele><time>2026-05-01T09:03:34.036Z</time></trkpt><trkpt lat="42.1933531" lon="13.6994222"><ele>661.0</ele><time>2026-05-01T09:03:35.038Z</time></trkpt><trkpt lat="42.1934683" lon="13.6993242"><ele>662.0</ele><time>2026-05-01T09:03:36.054Z</time></trkpt><trkpt lat="42.1935736" lon="13.6992135"><ele>663.0</ele><time>2026-05-01T09:03:37.032Z</time></trkpt><trkpt lat="42.1936637" lon="13.6990939"><ele>663.0</ele><time>2026-05-01T09:03:38.047Z</time></trkpt><trkpt lat="42.1937277" lon="13.6989596"><ele>663.0</ele><time>2026-05-01T09:03:39.043Z</time></trkpt><trkpt lat="42.1937548" lon="13.6988082"><ele>663.0</ele><time>2026-05-01T09:03:40.034Z</time></trkpt><trkpt lat="42.1937551" lon="13.6986749"><ele>663.0</ele><time>2026-05-01T09:03:41.04Z</time></trkpt><trkpt lat="42.1937442" lon="13.6985503"><ele>663.0</ele><time>2026-05-01T09:03:42.042Z</time></trkpt><trkpt lat="42.1936998" lon="13.6984462"><ele>664.25</ele><time>2026-05-01T09:03:43.034Z</time></trkpt><trkpt lat="42.1936076" lon="13.6983864"><ele>665.5</ele><time>2026-05-01T09:03:44.042Z</time></trkpt><trkpt lat="42.1934894" lon="13.6983409"><ele>666.75</ele><time>2026-05-01T09:03:45.041Z</time></trkpt><trkpt lat="42.1933467" lon="13.6983072"><ele>668.0</ele><time>2026-05-01T09:03:46.052Z</time></trkpt><trkpt lat="42.1931862" lon="13.6982709"><ele>662.0</ele><time>2026-05-01T09:03:47.045Z</time></trkpt><trkpt lat="42.1930237" lon="13.6982186"><ele>656.0</ele><time>2026-05-01T09:03:48.038Z</time></trkpt><trkpt lat="42.1928829" lon="13.698156"><ele>650.0</ele><time>2026-05-01T09:03:49.053Z</time></trkpt><trkpt lat="42.192766" lon="13.6980556"><ele>650.0</ele><time>2026-05-01T09:03:50.043Z</time></trkpt><trkpt lat="42.1926556" lon="13.6979269"><ele>650.0</ele><time>2026-05-01T09:03:51.035Z</time></trkpt><trkpt lat="42.192544" lon="13.697777"><ele>650.0</ele><time>2026-05-01T09:03:52.042Z</time></trkpt><trkpt lat="42.1924273" lon="13.697634"><ele>647.5</ele><time>2026-05-01T09:03:53.043Z</time></trkpt><trkpt lat="42.1923181" lon="13.6974999"><ele>645.0</ele><time>2026-05-01T09:03:54.047Z</time></trkpt><trkpt lat="42.1922242" lon="13.6973649"><ele>642.5</ele><time>2026-05-01T09:03:55.045Z</time></trkpt><trkpt lat="42.1921472" lon="13.6972223"><ele>640.0</ele><time>2026-05-01T09:03:56.054Z</time></trkpt><trkpt lat="42.1920925" lon="13.6970571"><ele>642.75</ele><time>2026-05-01T09:03:57.042Z</time></trkpt><trkpt lat="42.1920566" lon="13.696877"><ele>645.5</ele><time>2026-05-01T09:03:58.043Z</time></trkpt><trkpt lat="42.1920495" lon="13.6966789"><ele>648.25</ele><time>2026-05-01T09:03:59.039Z</time></trkpt><trkpt lat="42.1920656" lon="13.6964734"><ele>651.0</ele><time>2026-05-01T09:04:00.049Z</time></trkpt><trkpt lat="42.1921102" lon="13.6962744"><ele>650.3333333333334</ele><time>2026-05-01T09:04:01.051Z</time></trkpt><trkpt lat="42.1921585" lon="13.6960652"><ele>649.6666666666667</ele><time>2026-05-01T09:04:02.046Z</time></trkpt><trkpt lat="42.1922112" lon="13.695859"><ele>649.0</ele><time>2026-05-01T09:04:03.075Z</time></trkpt><trkpt lat="42.1922639" lon="13.6956635"><ele>649.0</ele><time>2026-05-01T09:04:04.053Z</time></trkpt><trkpt lat="42.1923224" lon="13.6955023"><ele>649.0</ele><time>2026-05-01T09:04:05.045Z</time></trkpt><trkpt lat="42.1923884" lon="13.6953703"><ele>649.0</ele><time>2026-05-01T09:04:06.048Z</time></trkpt><trkpt lat="42.1924732" lon="13.6952583"><ele>649.0</ele><time>2026-05-01T09:04:07.046Z</time></trkpt><trkpt lat="42.1925852" lon="13.6951667"><ele>651.25</ele><time>2026-05-01T09:04:08.049Z</time></trkpt><trkpt lat="42.1927162" lon="13.6950892"><ele>653.5</ele><time>2026-05-01T09:04:09.057Z</time></trkpt><trkpt lat="42.19284" lon="13.6950185"><ele>655.75</ele><time>2026-05-01T09:04:10.049Z</time></trkpt><trkpt lat="42.1929492" lon="13.6949333"><ele>658.0</ele><time>2026-05-01T09:04:11.041Z</time></trkpt><trkpt lat="42.1930393" lon="13.6948164"><ele>658.0</ele><time>2026-05-01T09:04:12.05Z</time></trkpt><trkpt lat="42.1930999" lon="13.6946651"><ele>658.0</ele><time>2026-05-01T09:04:13.04Z</time></trkpt><trkpt lat="42.1931267" lon="13.6944907"><ele>658.0</ele><time>2026-05-01T09:04:14.048Z</time></trkpt><trkpt lat="42.1931217" lon="13.6943081"><ele>658.0</ele><time>2026-05-01T09:04:15.037Z</time></trkpt><trkpt lat="42.1930892" lon="13.6941212"><ele>657.6666666666667</ele><time>2026-05-01T09:04:16.047Z</time></trkpt><trkpt lat="42.1930317" lon="13.6939293"><ele>657.3333333333334</ele><time>2026-05-01T09:04:17.052Z</time></trkpt><trkpt lat="42.1929496" lon="13.6937437"><ele>657.0</ele><time>2026-05-01T09:04:18.036Z</time></trkpt><trkpt lat="42.1928441" lon="13.6935699"><ele>657.0</ele><time>2026-05-01T09:04:19.068Z</time></trkpt><trkpt lat="42.1927285" lon="13.6933808"><ele>657.0</ele><time>2026-05-01T09:04:20.041Z</time></trkpt><trkpt lat="42.1926182" lon="13.6931951"><ele>657.0</ele><time>2026-05-01T09:04:21.042Z</time></trkpt><trkpt lat="42.192522" lon="13.6930166"><ele>657.0</ele><time>2026-05-01T09:04:22.043Z</time></trkpt><trkpt lat="42.1924233" lon="13.6928443"><ele>657.0</ele><time>2026-05-01T09:04:23.043Z</time></trkpt><trkpt lat="42.1923299" lon="13.6926758"><ele>657.0</ele><time>2026-05-01T09:04:24.033Z</time></trkpt><trkpt lat="42.1922497" lon="13.6925046"><ele>656.0</ele><time>2026-05-01T09:04:25.066Z</time></trkpt><trkpt lat="42.1922007" lon="13.6923237"><ele>655.0</ele><time>2026-05-01T09:04:26.045Z</time></trkpt><trkpt lat="42.1921767" lon="13.6921391"><ele>654.0</ele><time>2026-05-01T09:04:27.064Z</time></trkpt><trkpt lat="42.19218" lon="13.6919439"><ele>653.0</ele><time>2026-05-01T09:04:28.055Z</time></trkpt><trkpt lat="42.1922081" lon="13.6917472"><ele>653.0</ele><time>2026-05-01T09:04:29.044Z</time></trkpt><trkpt lat="42.19226" lon="13.6915515"><ele>653.0</ele><time>2026-05-01T09:04:30.07Z</time></trkpt><trkpt lat="42.1923375" lon="13.6913723"><ele>653.0</ele><time>2026-05-01T09:04:31.058Z</time></trkpt><trkpt lat="42.1924381" lon="13.6912261"><ele>653.6666666666666</ele><time>2026-05-01T09:04:32.049Z</time></trkpt><trkpt lat="42.1925672" lon="13.6911015"><ele>654.3333333333334</ele><time>2026-05-01T09:04:33.05Z</time></trkpt><trkpt lat="42.1927291" lon="13.6909976"><ele>655.0</ele><time>2026-05-01T09:04:34.04Z</time></trkpt><trkpt lat="42.1928856" lon="13.6908998"><ele>655.0</ele><time>2026-05-01T09:04:35.08Z</time></trkpt><trkpt lat="42.1930038" lon="13.6907954"><ele>655.0</ele><time>2026-05-01T09:04:36.046Z</time></trkpt><trkpt lat="42.1931026" lon="13.6906815"><ele>655.0</ele><time>2026-05-01T09:04:37.054Z</time></trkpt><trkpt lat="42.1931557" lon="13.6905488"><ele>655.0</ele><time>2026-05-01T09:04:38.051Z</time></trkpt><trkpt lat="42.19317" lon="13.690405"><ele>655.0</ele><time>2026-05-01T09:04:39.044Z</time></trkpt><trkpt lat="42.1931394" lon="13.6902774"><ele>655.0</ele><time>2026-05-01T09:04:40.052Z</time></trkpt><trkpt lat="42.1930692" lon="13.6901714"><ele>655.0</ele><time>2026-05-01T09:04:41.043Z</time></trkpt><trkpt lat="42.1929588" lon="13.6900989"><ele>655.0</ele><time>2026-05-01T09:04:42.043Z</time></trkpt><trkpt lat="42.1928317" lon="13.6900495"><ele>655.3333333333334</ele><time>2026-05-01T09:04:43.038Z</time></trkpt><trkpt lat="42.1927006" lon="13.6899917"><ele>655.6666666666666</ele><time>2026-05-01T09:04:44.047Z</time></trkpt><trkpt lat="42.1925611" lon="13.6898881"><ele>656.0</ele><time>2026-05-01T09:04:45.044Z</time></trkpt><trkpt lat="42.1924328" lon="13.6897705"><ele>653.6666666666666</ele><time>2026-05-01T09:04:46.043Z</time></trkpt><trkpt lat="42.1922906" lon="13.6896381"><ele>651.3333333333334</ele><time>2026-05-01T09:04:47.043Z</time></trkpt><trkpt lat="42.1921519" lon="13.6895085"><ele>649.0</ele><time>2026-05-01T09:04:48.051Z</time></trkpt><trkpt lat="42.1920207" lon="13.6893956"><ele>649.0</ele><time>2026-05-01T09:04:49.045Z</time></trkpt><trkpt lat="42.1919047" lon="13.6892773"><ele>649.0</ele><time>2026-05-01T09:04:50.033Z</time></trkpt><trkpt lat="42.191803" lon="13.6891631"><ele>649.0</ele><time>2026-05-01T09:04:51.051Z</time></trkpt><trkpt lat="42.1917296" lon="13.6890284"><ele>649.0</ele><time>2026-05-01T09:04:52.037Z</time></trkpt><trkpt lat="42.1916758" lon="13.6888519"><ele>649.0</ele><time>2026-05-01T09:04:53.041Z</time></trkpt><trkpt lat="42.1916375" lon="13.6886449"><ele>649.0</ele><time>2026-05-01T09:04:54.044Z</time></trkpt><trkpt lat="42.1916026" lon="13.6884443"><ele>649.0</ele><time>2026-05-01T09:04:55.046Z</time></trkpt><trkpt lat="42.1915598" lon="13.6882642"><ele>651.5</ele><time>2026-05-01T09:04:56.043Z</time></trkpt><trkpt lat="42.1915103" lon="13.6881008"><ele>654.0</ele><time>2026-05-01T09:04:57.043Z</time></trkpt><trkpt lat="42.1914506" lon="13.687955"><ele>656.5</ele><time>2026-05-01T09:04:58.046Z</time></trkpt><trkpt lat="42.1913946" lon="13.6878062"><ele>659.0</ele><time>2026-05-01T09:04:59.046Z</time></trkpt><trkpt lat="42.1913601" lon="13.6876416"><ele>650.75</ele><time>2026-05-01T09:05:00.036Z</time></trkpt><trkpt lat="42.1913565" lon="13.6874659"><ele>642.5</ele><time>2026-05-01T09:05:01.045Z</time></trkpt><trkpt lat="42.1913758" lon="13.6872685"><ele>634.25</ele><time>2026-05-01T09:05:02.039Z</time></trkpt><trkpt lat="42.1913963" lon="13.6870658"><ele>626.0</ele><time>2026-05-01T09:05:03.048Z</time></trkpt><trkpt lat="42.1914146" lon="13.6868652"><ele>624.3333333333333</ele><time>2026-05-01T09:05:04.04Z</time></trkpt><trkpt lat="42.1914359" lon="13.6866498"><ele>622.6666666666666</ele><time>2026-05-01T09:05:05.055Z</time></trkpt><trkpt lat="42.1914545" lon="13.6864273"><ele>621.0</ele><time>2026-05-01T09:05:06.043Z</time></trkpt><trkpt lat="42.191473" lon="13.6862069"><ele>618.75</ele><time>2026-05-01T09:05:07.045Z</time></trkpt><trkpt lat="42.1914919" lon="13.6860116"><ele>616.5</ele><time>2026-05-01T09:05:08.043Z</time></trkpt><trkpt lat="42.1915158" lon="13.6858331"><ele>614.25</ele><time>2026-05-01T09:05:09.042Z</time></trkpt><trkpt lat="42.1915517" lon="13.6856744"><ele>612.0</ele><time>2026-05-01T09:05:10.051Z</time></trkpt><trkpt lat="42.1916161" lon="13.6855441"><ele>623.0</ele><time>2026-05-01T09:05:11.042Z</time></trkpt><trkpt lat="42.1917036" lon="13.6854401"><ele>634.0</ele><time>2026-05-01T09:05:12.051Z</time></trkpt><trkpt lat="42.1918144" lon="13.6853727"><ele>645.0</ele><time>2026-05-01T09:05:13.048Z</time></trkpt><trkpt lat="42.1919304" lon="13.6853413"><ele>656.0</ele><time>2026-05-01T09:05:14.051Z</time></trkpt><trkpt lat="42.1920351" lon="13.6853157"><ele>656.0</ele><time>2026-05-01T09:05:15.048Z</time></trkpt><trkpt lat="42.1921324" lon="13.6852735"><ele>656.0</ele><time>2026-05-01T09:05:16.052Z</time></trkpt><trkpt lat="42.192218" lon="13.6851984"><ele>656.0</ele><time>2026-05-01T09:05:17.045Z</time></trkpt><trkpt lat="42.1922888" lon="13.6850783"><ele>656.0</ele><time>2026-05-01T09:05:18.045Z</time></trkpt><trkpt lat="42.1923302" lon="13.6849221"><ele>656.0</ele><time>2026-05-01T09:05:19.06Z</time></trkpt><trkpt lat="42.1923439" lon="13.6847455"><ele>653.5</ele><time>2026-05-01T09:05:20.046Z</time></trkpt><trkpt lat="42.192337" lon="13.6845576"><ele>651.0</ele><time>2026-05-01T09:05:21.045Z</time></trkpt><trkpt lat="42.1923236" lon="13.6843705"><ele>648.5</ele><time>2026-05-01T09:05:22.062Z</time></trkpt><trkpt lat="42.1923059" lon="13.6841857"><ele>646.0</ele><time>2026-05-01T09:05:23.047Z</time></trkpt><trkpt lat="42.1922768" lon="13.6840018"><ele>645.5</ele><time>2026-05-01T09:05:24.047Z</time></trkpt><trkpt lat="42.1922382" lon="13.6838201"><ele>645.0</ele><time>2026-05-01T09:05:25.055Z</time></trkpt><trkpt lat="42.1921929" lon="13.683642"><ele>644.5</ele><time>2026-05-01T09:05:26.04Z</time></trkpt><trkpt lat="42.1921377" lon="13.6834694"><ele>644.0</ele><time>2026-05-01T09:05:27.06Z</time></trkpt><trkpt lat="42.1920709" lon="13.6833101"><ele>645.75</ele><time>2026-05-01T09:05:28.049Z</time></trkpt><trkpt lat="42.1920056" lon="13.6831591"><ele>647.5</ele><time>2026-05-01T09:05:29.045Z</time></trkpt><trkpt lat="42.1919352" lon="13.6830215"><ele>649.25</ele><time>2026-05-01T09:05:30.046Z</time></trkpt><trkpt lat="42.1918455" lon="13.6828967"><ele>651.0</ele><time>2026-05-01T09:05:31.049Z</time></trkpt><trkpt lat="42.1917331" lon="13.68279"><ele>649.0</ele><time>2026-05-01T09:05:32.05Z</time></trkpt><trkpt lat="42.1916092" lon="13.6827112"><ele>647.0</ele><time>2026-05-01T09:05:33.048Z</time></trkpt><trkpt lat="42.1914823" lon="13.6826658"><ele>645.0</ele><time>2026-05-01T09:05:34.054Z</time></trkpt><trkpt lat="42.1913699" lon="13.6826372"><ele>643.0</ele><time>2026-05-01T09:05:35.047Z</time></trkpt><trkpt lat="42.191277" lon="13.6825824"><ele>643.0</ele><time>2026-05-01T09:05:36.044Z</time></trkpt><trkpt lat="42.1912025" lon="13.6824949"><ele>643.0</ele><time>2026-05-01T09:05:37.056Z</time></trkpt><trkpt lat="42.1911509" lon="13.6823733"><ele>643.0</ele><time>2026-05-01T09:05:38.038Z</time></trkpt><trkpt lat="42.1911356" lon="13.6822316"><ele>643.0</ele><time>2026-05-01T09:05:39.045Z</time></trkpt><trkpt lat="42.1911498" lon="13.682076"><ele>643.0</ele><time>2026-05-01T09:05:40.038Z</time></trkpt><trkpt lat="42.1911744" lon="13.6819257"><ele>642.0</ele><time>2026-05-01T09:05:41.039Z</time></trkpt><trkpt lat="42.1911976" lon="13.6817801"><ele>641.0</ele><time>2026-05-01T09:05:42.047Z</time></trkpt><trkpt lat="42.191254" lon="13.6816417"><ele>640.0</ele><time>2026-05-01T09:05:43.041Z</time></trkpt><trkpt lat="42.1913329" lon="13.6815338"><ele>639.0</ele><time>2026-05-01T09:05:44.05Z</time></trkpt><trkpt lat="42.1914387" lon="13.6814482"><ele>644.5</ele><time>2026-05-01T09:05:45.09Z</time></trkpt><trkpt lat="42.191551" lon="13.6813875"><ele>650.0</ele><time>2026-05-01T09:05:46.04Z</time></trkpt><trkpt lat="42.1916651" lon="13.6813241"><ele>655.5</ele><time>2026-05-01T09:05:47.045Z</time></trkpt><trkpt lat="42.1917686" lon="13.681234"><ele>661.0</ele><time>2026-05-01T09:05:48.062Z</time></trkpt><trkpt lat="42.1918651" lon="13.6811256"><ele>654.25</ele><time>2026-05-01T09:05:49.05Z</time></trkpt><trkpt lat="42.1919521" lon="13.6810003"><ele>647.5</ele><time>2026-05-01T09:05:50.048Z</time></trkpt><trkpt lat="42.1920335" lon="13.6808744"><ele>640.75</ele><time>2026-05-01T09:05:51.073Z</time></trkpt><trkpt lat="42.1921116" lon="13.6807547"><ele>634.0</ele><time>2026-05-01T09:05:52.048Z</time></trkpt><trkpt lat="42.1921894" lon="13.6806475"><ele>634.0</ele><time>2026-05-01T09:05:53.046Z</time></trkpt><trkpt lat="42.1922655" lon="13.680542"><ele>634.0</ele><time>2026-05-01T09:05:54.037Z</time></trkpt><trkpt lat="42.1923494" lon="13.6804453"><ele>634.0</ele><time>2026-05-01T09:05:55.04Z</time></trkpt><trkpt lat="42.1924422" lon="13.6803683"><ele>634.0</ele><time>2026-05-01T09:05:56.041Z</time></trkpt><trkpt lat="42.1925428" lon="13.6803119"><ele>634.0</ele><time>2026-05-01T09:05:57.043Z</time></trkpt><trkpt lat="42.1926442" lon="13.6802628"><ele>634.8</ele><time>2026-05-01T09:05:58.042Z</time></trkpt><trkpt lat="42.1927368" lon="13.6802058"><ele>635.5999999999999</ele><time>2026-05-01T09:05:59.052Z</time></trkpt><trkpt lat="42.1928141" lon="13.6801475"><ele>636.4</ele><time>2026-05-01T09:06:00.046Z</time></trkpt><trkpt lat="42.1928812" lon="13.6800695"><ele>637.1999999999999</ele><time>2026-05-01T09:06:01.074Z</time></trkpt><trkpt lat="42.1929445" lon="13.6799734"><ele>638.0</ele><time>2026-05-01T09:06:02.049Z</time></trkpt><trkpt lat="42.192993" lon="13.6798467"><ele>638.0</ele><time>2026-05-01T09:06:03.048Z</time></trkpt><trkpt lat="42.1930338" lon="13.6797116"><ele>638.0</ele><time>2026-05-01T09:06:04.045Z</time></trkpt><trkpt lat="42.1930786" lon="13.6795728"><ele>638.0</ele><time>2026-05-01T09:06:05.047Z</time></trkpt><trkpt lat="42.1931356" lon="13.6794422"><ele>638.0</ele><time>2026-05-01T09:06:06.07Z</time></trkpt><trkpt lat="42.1932001" lon="13.6793224"><ele>638.0</ele><time>2026-05-01T09:06:07.045Z</time></trkpt><trkpt lat="42.1932768" lon="13.6791981"><ele>640.5</ele><time>2026-05-01T09:06:08.037Z</time></trkpt><trkpt lat="42.1933469" lon="13.6790815"><ele>643.0</ele><time>2026-05-01T09:06:09.047Z</time></trkpt><trkpt lat="42.1934184" lon="13.678961"><ele>645.5</ele><time>2026-05-01T09:06:10.041Z</time></trkpt><trkpt lat="42.1934966" lon="13.6788412"><ele>648.0</ele><time>2026-05-01T09:06:11.05Z</time></trkpt><trkpt lat="42.1935692" lon="13.6787249"><ele>648.0</ele><time>2026-05-01T09:06:12.058Z</time></trkpt><trkpt lat="42.1936361" lon="13.6786199"><ele>648.0</ele><time>2026-05-01T09:06:13.057Z</time></trkpt><trkpt lat="42.1937098" lon="13.6785139"><ele>648.0</ele><time>2026-05-01T09:06:14.044Z</time></trkpt><trkpt lat="42.1937801" lon="13.6784093"><ele>648.0</ele><time>2026-05-01T09:06:15.053Z</time></trkpt><trkpt lat="42.1938577" lon="13.6782995"><ele>648.0</ele><time>2026-05-01T09:06:16.051Z</time></trkpt><trkpt lat="42.193938" lon="13.6781885"><ele>649.0</ele><time>2026-05-01T09:06:17.06Z</time></trkpt><trkpt lat="42.1940183" lon="13.6780734"><ele>650.0</ele><time>2026-05-01T09:06:18.044Z</time></trkpt><trkpt lat="42.1941013" lon="13.677953"><ele>651.0</ele><time>2026-05-01T09:06:19.041Z</time></trkpt><trkpt lat="42.1941828" lon="13.6778258"><ele>652.0</ele><time>2026-05-01T09:06:20.05Z</time></trkpt><trkpt lat="42.194267" lon="13.6776932"><ele>649.75</ele><time>2026-05-01T09:06:21.036Z</time></trkpt><trkpt lat="42.1943516" lon="13.6775567"><ele>647.5</ele><time>2026-05-01T09:06:22.078Z</time></trkpt><trkpt lat="42.1944397" lon="13.6774155"><ele>645.25</ele><time>2026-05-01T09:06:23.051Z</time></trkpt><trkpt lat="42.1945289" lon="13.677278"><ele>643.0</ele><time>2026-05-01T09:06:24.05Z</time></trkpt><trkpt lat="42.1946124" lon="13.677134"><ele>643.0</ele><time>2026-05-01T09:06:25.039Z</time></trkpt><trkpt lat="42.19469" lon="13.6769865"><ele>643.0</ele><time>2026-05-01T09:06:26.046Z</time></trkpt><trkpt lat="42.1947581" lon="13.6768356"><ele>643.0</ele><time>2026-05-01T09:06:27.06Z</time></trkpt><trkpt lat="42.1948241" lon="13.6766878"><ele>643.0</ele><time>2026-05-01T09:06:28.055Z</time></trkpt><trkpt lat="42.1948842" lon="13.676549"><ele>642.25</ele><time>2026-05-01T09:06:29.034Z</time></trkpt><trkpt lat="42.1949466" lon="13.6764116"><ele>641.5</ele><time>2026-05-01T09:06:30.052Z</time></trkpt><trkpt lat="42.1950046" lon="13.6762711"><ele>640.75</ele><time>2026-05-01T09:06:31.043Z</time></trkpt><trkpt lat="42.1950663" lon="13.6761323"><ele>640.0</ele><time>2026-05-01T09:06:32.074Z</time></trkpt><trkpt lat="42.1951352" lon="13.675998"><ele>640.0</ele><time>2026-05-01T09:06:33.043Z</time></trkpt><trkpt lat="42.1952059" lon="13.6758675"><ele>640.0</ele><time>2026-05-01T09:06:34.045Z</time></trkpt><trkpt lat="42.1952802" lon="13.6757547"><ele>640.0</ele><time>2026-05-01T09:06:35.047Z</time></trkpt><trkpt lat="42.1953613" lon="13.6756559"><ele>640.0</ele><time>2026-05-01T09:06:36.036Z</time></trkpt><trkpt lat="42.1954547" lon="13.6755624"><ele>640.0</ele><time>2026-05-01T09:06:37.046Z</time></trkpt><trkpt lat="42.1955546" lon="13.6754696"><ele>640.0</ele><time>2026-05-01T09:06:38.045Z</time></trkpt><trkpt lat="42.1956615" lon="13.6753807"><ele>640.0</ele><time>2026-05-01T09:06:39.047Z</time></trkpt><trkpt lat="42.1957711" lon="13.6752966"><ele>640.0</ele><time>2026-05-01T09:06:40.039Z</time></trkpt><trkpt lat="42.195882" lon="13.6752063"><ele>639.75</ele><time>2026-05-01T09:06:41.052Z</time></trkpt><trkpt lat="42.1959902" lon="13.6751047"><ele>639.5</ele><time>2026-05-01T09:06:42.044Z</time></trkpt><trkpt lat="42.1960933" lon="13.6749915"><ele>639.25</ele><time>2026-05-01T09:06:43.038Z</time></trkpt><trkpt lat="42.1961944" lon="13.6748623"><ele>639.0</ele><time>2026-05-01T09:06:44.044Z</time></trkpt><trkpt lat="42.196293" lon="13.6747261"><ele>639.0</ele><time>2026-05-01T09:06:45.038Z</time></trkpt><trkpt lat="42.1963844" lon="13.6745769"><ele>639.0</ele><time>2026-05-01T09:06:46.051Z</time></trkpt><trkpt lat="42.1964763" lon="13.6744225"><ele>639.0</ele><time>2026-05-01T09:06:47.041Z</time></trkpt><trkpt lat="42.1965692" lon="13.6742683"><ele>639.0</ele><time>2026-05-01T09:06:48.078Z</time></trkpt><trkpt lat="42.1966631" lon="13.6741107"><ele>638.0</ele><time>2026-05-01T09:06:49.05Z</time></trkpt><trkpt lat="42.1967584" lon="13.6739473"><ele>637.0</ele><time>2026-05-01T09:06:50.052Z</time></trkpt><trkpt lat="42.1968574" lon="13.6737756"><ele>636.0</ele><time>2026-05-01T09:06:51.044Z</time></trkpt><trkpt lat="42.1969563" lon="13.6735923"><ele>633.0</ele><time>2026-05-01T09:06:52.049Z</time></trkpt><trkpt lat="42.1970533" lon="13.6734064"><ele>630.0</ele><time>2026-05-01T09:06:53.054Z</time></trkpt><trkpt lat="42.197134" lon="13.6732251"><ele>627.0</ele><time>2026-05-01T09:06:54.046Z</time></trkpt><trkpt lat="42.1971896" lon="13.6730412"><ele>627.0</ele><time>2026-05-01T09:06:55.046Z</time></trkpt><trkpt lat="42.1972391" lon="13.6728661"><ele>627.0</ele><time>2026-05-01T09:06:56.048Z</time></trkpt><trkpt lat="42.1972933" lon="13.672704"><ele>627.0</ele><time>2026-05-01T09:06:57.05Z</time></trkpt><trkpt lat="42.1973742" lon="13.6725611"><ele>627.0</ele><time>2026-05-01T09:06:58.052Z</time></trkpt><trkpt lat="42.197481" lon="13.6724395"><ele>628.0</ele><time>2026-05-01T09:06:59.035Z</time></trkpt><trkpt lat="42.197607" lon="13.6723665"><ele>629.0</ele><time>2026-05-01T09:07:00.057Z</time></trkpt><trkpt lat="42.1977411" lon="13.6723338"><ele>630.0</ele><time>2026-05-01T09:07:01.049Z</time></trkpt><trkpt lat="42.1978636" lon="13.6723315"><ele>631.0</ele><time>2026-05-01T09:07:02.054Z</time></trkpt><trkpt lat="42.1979885" lon="13.6723794"><ele>631.0</ele><time>2026-05-01T09:07:03.038Z</time></trkpt><trkpt lat="42.198107" lon="13.6724434"><ele>631.0</ele><time>2026-05-01T09:07:04.046Z</time></trkpt><trkpt lat="42.198212" lon="13.6725239"><ele>631.0</ele><time>2026-05-01T09:07:05.051Z</time></trkpt><trkpt lat="42.1983405" lon="13.6725396"><ele>631.0</ele><time>2026-05-01T09:07:06.041Z</time></trkpt><trkpt lat="42.1984615" lon="13.672537"><ele>632.2</ele><time>2026-05-01T09:07:07.043Z</time></trkpt><trkpt lat="42.1985786" lon="13.672505"><ele>633.4000000000001</ele><time>2026-05-01T09:07:08.052Z</time></trkpt><trkpt lat="42.1986654" lon="13.6724171"><ele>634.6</ele><time>2026-05-01T09:07:09.039Z</time></trkpt><trkpt lat="42.198733" lon="13.6722981"><ele>635.8000000000001</ele><time>2026-05-01T09:07:10.043Z</time></trkpt><trkpt lat="42.1987533" lon="13.6721637"><ele>637.0</ele><time>2026-05-01T09:07:11.043Z</time></trkpt><trkpt lat="42.1987367" lon="13.6720064"><ele>633.0</ele><time>2026-05-01T09:07:12.043Z</time></trkpt><trkpt lat="42.1987173" lon="13.671841"><ele>629.0</ele><time>2026-05-01T09:07:13.041Z</time></trkpt><trkpt lat="42.1987227" lon="13.6716585"><ele>625.0</ele><time>2026-05-01T09:07:14.052Z</time></trkpt><trkpt lat="42.1987608" lon="13.6714821"><ele>621.0</ele><time>2026-05-01T09:07:15.039Z</time></trkpt><trkpt lat="42.1988258" lon="13.67131"><ele>621.0</ele><time>2026-05-01T09:07:16.06Z</time></trkpt><trkpt lat="42.1989283" lon="13.6711706"><ele>621.0</ele><time>2026-05-01T09:07:17.052Z</time></trkpt><trkpt lat="42.1990613" lon="13.6710396"><ele>621.0</ele><time>2026-05-01T09:07:18.043Z</time></trkpt><trkpt lat="42.1991866" lon="13.6708886"><ele>620.6666666666666</ele><time>2026-05-01T09:07:19.055Z</time></trkpt><trkpt lat="42.199292" lon="13.6706891"><ele>620.3333333333333</ele><time>2026-05-01T09:07:20.033Z</time></trkpt><trkpt lat="42.1993684" lon="13.6704692"><ele>620.0</ele><time>2026-05-01T09:07:21.057Z</time></trkpt><trkpt lat="42.1994417" lon="13.6702595"><ele>620.0</ele><time>2026-05-01T09:07:22.044Z</time></trkpt><trkpt lat="42.1995254" lon="13.67005"><ele>620.0</ele><time>2026-05-01T09:07:23.052Z</time></trkpt><trkpt lat="42.1996333" lon="13.6698671"><ele>620.0</ele><time>2026-05-01T09:07:24.044Z</time></trkpt><trkpt lat="42.1997611" lon="13.6697169"><ele>622.5</ele><time>2026-05-01T09:07:25.037Z</time></trkpt><trkpt lat="42.199881" lon="13.6695847"><ele>625.0</ele><time>2026-05-01T09:07:26.04Z</time></trkpt><trkpt lat="42.1999894" lon="13.6694598"><ele>627.5</ele><time>2026-05-01T09:07:27.041Z</time></trkpt><trkpt lat="42.2000967" lon="13.6693388"><ele>630.0</ele><time>2026-05-01T09:07:28.055Z</time></trkpt><trkpt lat="42.2002001" lon="13.6692082"><ele>630.0</ele><time>2026-05-01T09:07:29.045Z</time></trkpt><trkpt lat="42.2002836" lon="13.6690624"><ele>630.0</ele><time>2026-05-01T09:07:30.042Z</time></trkpt><trkpt lat="42.2003466" lon="13.6689159"><ele>630.0</ele><time>2026-05-01T09:07:31.038Z</time></trkpt><trkpt lat="42.2004019" lon="13.6687752"><ele>630.0</ele><time>2026-05-01T09:07:32.046Z</time></trkpt><trkpt lat="42.2004528" lon="13.6686397"><ele>630.8</ele><time>2026-05-01T09:07:33.068Z</time></trkpt><trkpt lat="42.2005027" lon="13.6685038"><ele>631.6</ele><time>2026-05-01T09:07:34.037Z</time></trkpt><trkpt lat="42.2005463" lon="13.6683768"><ele>632.4</ele><time>2026-05-01T09:07:35.039Z</time></trkpt><trkpt lat="42.2005923" lon="13.6682556"><ele>633.2</ele><time>2026-05-01T09:07:36.04Z</time></trkpt><trkpt lat="42.2006627" lon="13.6681466"><ele>634.0</ele><time>2026-05-01T09:07:37.047Z</time></trkpt><trkpt lat="42.2007443" lon="13.6680559"><ele>634.0</ele><time>2026-05-01T09:07:38.086Z</time></trkpt><trkpt lat="42.2008373" lon="13.6679787"><ele>634.0</ele><time>2026-05-01T09:07:39.041Z</time></trkpt><trkpt lat="42.2009304" lon="13.6679155"><ele>634.0</ele><time>2026-05-01T09:07:40.042Z</time></trkpt><trkpt lat="42.2010338" lon="13.6678771"><ele>634.0</ele><time>2026-05-01T09:07:41.042Z</time></trkpt><trkpt lat="42.2011455" lon="13.667847"><ele>634.0</ele><time>2026-05-01T09:07:42.044Z</time></trkpt><trkpt lat="42.2012625" lon="13.6678181"><ele>634.0</ele><time>2026-05-01T09:07:43.043Z</time></trkpt><trkpt lat="42.2013723" lon="13.6677868"><ele>634.0</ele><time>2026-05-01T09:07:44.047Z</time></trkpt><trkpt lat="42.2014768" lon="13.6677516"><ele>634.0</ele><time>2026-05-01T09:07:45.049Z</time></trkpt><trkpt lat="42.2015868" lon="13.6677149"><ele>634.0</ele><time>2026-05-01T09:07:46.047Z</time></trkpt><trkpt lat="42.2016958" lon="13.6676762"><ele>634.0</ele><time>2026-05-01T09:07:47.055Z</time></trkpt><trkpt lat="42.2018059" lon="13.6676363"><ele>632.4</ele><time>2026-05-01T09:07:48.039Z</time></trkpt><trkpt lat="42.2019193" lon="13.667589"><ele>630.8</ele><time>2026-05-01T09:07:49.056Z</time></trkpt><trkpt lat="42.2020281" lon="13.6675384"><ele>629.2</ele><time>2026-05-01T09:07:50.036Z</time></trkpt><trkpt lat="42.2021252" lon="13.6674833"><ele>627.6</ele><time>2026-05-01T09:07:51.047Z</time></trkpt><trkpt lat="42.2022146" lon="13.6674228"><ele>626.0</ele><time>2026-05-01T09:07:52.049Z</time></trkpt><trkpt lat="42.2023032" lon="13.6673533"><ele>624.8</ele><time>2026-05-01T09:07:53.037Z</time></trkpt><trkpt lat="42.2023916" lon="13.6672674"><ele>623.6</ele><time>2026-05-01T09:07:54.046Z</time></trkpt><trkpt lat="42.2024726" lon="13.6671701"><ele>622.4</ele><time>2026-05-01T09:07:55.04Z</time></trkpt><trkpt lat="42.2025423" lon="13.6670581"><ele>621.2</ele><time>2026-05-01T09:07:56.043Z</time></trkpt><trkpt lat="42.2026096" lon="13.6669399"><ele>620.0</ele><time>2026-05-01T09:07:57.05Z</time></trkpt><trkpt lat="42.2026669" lon="13.6668223"><ele>620.0</ele><time>2026-05-01T09:07:58.057Z</time></trkpt><trkpt lat="42.2027248" lon="13.6667189"><ele>620.0</ele><time>2026-05-01T09:07:59.04Z</time></trkpt><trkpt lat="42.2027935" lon="13.6666315"><ele>620.0</ele><time>2026-05-01T09:08:00.055Z</time></trkpt><trkpt lat="42.2028701" lon="13.6665681"><ele>620.0</ele><time>2026-05-01T09:08:01.037Z</time></trkpt><trkpt lat="42.2029434" lon="13.6664994"><ele>620.0</ele><time>2026-05-01T09:08:02.037Z</time></trkpt><trkpt lat="42.2030118" lon="13.6664088"><ele>620.0</ele><time>2026-05-01T09:08:03.039Z</time></trkpt><trkpt lat="42.203081" lon="13.6663034"><ele>620.0</ele><time>2026-05-01T09:08:04.045Z</time></trkpt><trkpt lat="42.2031547" lon="13.6661874"><ele>620.0</ele><time>2026-05-01T09:08:05.043Z</time></trkpt><trkpt lat="42.2032391" lon="13.6660685"><ele>620.0</ele><time>2026-05-01T09:08:06.063Z</time></trkpt><trkpt lat="42.2033322" lon="13.665947"><ele>620.75</ele><time>2026-05-01T09:08:07.042Z</time></trkpt><trkpt lat="42.2034311" lon="13.6658235"><ele>621.5</ele><time>2026-05-01T09:08:08.043Z</time></trkpt><trkpt lat="42.2035306" lon="13.6656916"><ele>622.25</ele><time>2026-05-01T09:08:09.035Z</time></trkpt><trkpt lat="42.203636" lon="13.6655571"><ele>623.0</ele><time>2026-05-01T09:08:10.041Z</time></trkpt><trkpt lat="42.2037453" lon="13.6654205"><ele>624.0</ele><time>2026-05-01T09:08:11.045Z</time></trkpt><trkpt lat="42.20386" lon="13.6652776"><ele>625.0</ele><time>2026-05-01T09:08:12.042Z</time></trkpt><trkpt lat="42.2039779" lon="13.6651327"><ele>626.0</ele><time>2026-05-01T09:08:13.05Z</time></trkpt><trkpt lat="42.2040946" lon="13.6649884"><ele>626.0</ele><time>2026-05-01T09:08:14.044Z</time></trkpt><trkpt lat="42.2042145" lon="13.6648423"><ele>626.0</ele><time>2026-05-01T09:08:15.067Z</time></trkpt><trkpt lat="42.2043351" lon="13.6646896"><ele>626.0</ele><time>2026-05-01T09:08:16.039Z</time></trkpt><trkpt lat="42.2044562" lon="13.6645355"><ele>620.6666666666666</ele><time>2026-05-01T09:08:17.038Z</time></trkpt><trkpt lat="42.2045772" lon="13.6643785"><ele>615.3333333333334</ele><time>2026-05-01T09:08:18.042Z</time></trkpt><trkpt lat="42.2046959" lon="13.6642283"><ele>610.0</ele><time>2026-05-01T09:08:19.043Z</time></trkpt><trkpt lat="42.2048117" lon="13.664079"><ele>610.3333333333334</ele><time>2026-05-01T09:08:20.042Z</time></trkpt><trkpt lat="42.2049297" lon="13.6639252"><ele>610.6666666666666</ele><time>2026-05-01T09:08:21.046Z</time></trkpt><trkpt lat="42.2050408" lon="13.6637585"><ele>611.0</ele><time>2026-05-01T09:08:22.041Z</time></trkpt><trkpt lat="42.2051389" lon="13.6635805"><ele>611.0</ele><time>2026-05-01T09:08:23.039Z</time></trkpt><trkpt lat="42.2052202" lon="13.6633997"><ele>611.0</ele><time>2026-05-01T09:08:24.046Z</time></trkpt><trkpt lat="42.2052985" lon="13.6632249"><ele>611.0</ele><time>2026-05-01T09:08:25.026Z</time></trkpt><trkpt lat="42.2053947" lon="13.6630598"><ele>611.0</ele><time>2026-05-01T09:08:26.041Z</time></trkpt><trkpt lat="42.205506" lon="13.6629165"><ele>611.0</ele><time>2026-05-01T09:08:27.05Z</time></trkpt><trkpt lat="42.2056324" lon="13.6627963"><ele>611.0</ele><time>2026-05-01T09:08:28.042Z</time></trkpt><trkpt lat="42.2057677" lon="13.6626866"><ele>610.5</ele><time>2026-05-01T09:08:29.048Z</time></trkpt><trkpt lat="42.2059043" lon="13.6625914"><ele>610.0</ele><time>2026-05-01T09:08:30.049Z</time></trkpt><trkpt lat="42.2060431" lon="13.6625179"><ele>609.5</ele><time>2026-05-01T09:08:31.046Z</time></trkpt><trkpt lat="42.2061845" lon="13.6624691"><ele>609.0</ele><time>2026-05-01T09:08:32.04Z</time></trkpt><trkpt lat="42.2063234" lon="13.6624479"><ele>609.0</ele><time>2026-05-01T09:08:33.051Z</time></trkpt><trkpt lat="42.2064445" lon="13.66245"><ele>609.0</ele><time>2026-05-01T09:08:34.046Z</time></trkpt><trkpt lat="42.2065492" lon="13.6624577"><ele>609.0</ele><time>2026-05-01T09:08:35.047Z</time></trkpt><trkpt lat="42.2066342" lon="13.6624406"><ele>609.0</ele><time>2026-05-01T09:08:36.052Z</time></trkpt><trkpt lat="42.2067024" lon="13.6623872"><ele>609.0</ele><time>2026-05-01T09:08:37.067Z</time></trkpt><trkpt lat="42.2067495" lon="13.6622942"><ele>609.5</ele><time>2026-05-01T09:08:38.038Z</time></trkpt><trkpt lat="42.2067695" lon="13.6621674"><ele>610.0</ele><time>2026-05-01T09:08:39.038Z</time></trkpt><trkpt lat="42.2067588" lon="13.6620209"><ele>610.5</ele><time>2026-05-01T09:08:40.038Z</time></trkpt><trkpt lat="42.2067303" lon="13.6618675"><ele>611.0</ele><time>2026-05-01T09:08:41.038Z</time></trkpt><trkpt lat="42.2067003" lon="13.6616856"><ele>611.0</ele><time>2026-05-01T09:08:42.057Z</time></trkpt><trkpt lat="42.2066821" lon="13.6614981"><ele>611.0</ele><time>2026-05-01T09:08:43.055Z</time></trkpt><trkpt lat="42.2066766" lon="13.6613186"><ele>611.0</ele><time>2026-05-01T09:08:44.045Z</time></trkpt><trkpt lat="42.2066902" lon="13.6611497"><ele>611.0</ele><time>2026-05-01T09:08:45.04Z</time></trkpt><trkpt lat="42.206724" lon="13.6609848"><ele>609.0</ele><time>2026-05-01T09:08:46.044Z</time></trkpt><trkpt lat="42.2067951" lon="13.6608179"><ele>607.0</ele><time>2026-05-01T09:08:47.067Z</time></trkpt><trkpt lat="42.2069025" lon="13.6606589"><ele>605.0</ele><time>2026-05-01T09:08:48.04Z</time></trkpt><trkpt lat="42.2070181" lon="13.660511"><ele>605.0</ele><time>2026-05-01T09:08:49.044Z</time></trkpt><trkpt lat="42.2071098" lon="13.6603402"><ele>605.0</ele><time>2026-05-01T09:08:50.046Z</time></trkpt><trkpt lat="42.2071909" lon="13.6601626"><ele>605.0</ele><time>2026-05-01T09:08:51.039Z</time></trkpt><trkpt lat="42.207266" lon="13.6599687"><ele>606.0</ele><time>2026-05-01T09:08:52.05Z</time></trkpt><trkpt lat="42.207337" lon="13.6597721"><ele>607.0</ele><time>2026-05-01T09:08:53.037Z</time></trkpt><trkpt lat="42.2074071" lon="13.6595791"><ele>608.0</ele><time>2026-05-01T09:08:54.043Z</time></trkpt><trkpt lat="42.2074899" lon="13.6594072"><ele>608.0</ele><time>2026-05-01T09:08:55.035Z</time></trkpt><trkpt lat="42.2075724" lon="13.6592446"><ele>608.0</ele><time>2026-05-01T09:08:56.046Z</time></trkpt><trkpt lat="42.2076557" lon="13.6590848"><ele>608.0</ele><time>2026-05-01T09:08:57.046Z</time></trkpt><trkpt lat="42.2077364" lon="13.6589228"><ele>608.0</ele><time>2026-05-01T09:08:58.045Z</time></trkpt><trkpt lat="42.2078156" lon="13.6587676"><ele>608.0</ele><time>2026-05-01T09:08:59.045Z</time></trkpt><trkpt lat="42.2078898" lon="13.6586199"><ele>608.0</ele><time>2026-05-01T09:09:00.038Z</time></trkpt><trkpt lat="42.2079538" lon="13.6584746"><ele>608.0</ele><time>2026-05-01T09:09:01.053Z</time></trkpt><trkpt lat="42.2080007" lon="13.6583367"><ele>608.0</ele><time>2026-05-01T09:09:02.035Z</time></trkpt><trkpt lat="42.2080368" lon="13.658233"><ele>609.4</ele><time>2026-05-01T09:09:03.036Z</time></trkpt><trkpt lat="42.2080675" lon="13.6581259"><ele>610.8</ele><time>2026-05-01T09:09:05.036Z</time></trkpt><trkpt lat="42.2081022" lon="13.6580236"><ele>612.2</ele><time>2026-05-01T09:09:16.038Z</time></trkpt><trkpt lat="42.2081615" lon="13.6579185"><ele>613.6</ele><time>2026-05-01T09:09:18.034Z</time></trkpt><trkpt lat="42.2082299" lon="13.6578116"><ele>615.0</ele><time>2026-05-01T09:09:20.046Z</time></trkpt><trkpt lat="42.2082427" lon="13.657702"><ele>612.3333333333334</ele><time>2026-05-01T09:09:22.058Z</time></trkpt><trkpt lat="42.2081767" lon="13.6576589"><ele>609.6666666666666</ele><time>2026-05-01T09:09:24.046Z</time></trkpt><trkpt lat="42.2080913" lon="13.6577514"><ele>607.0</ele><time>2026-05-01T09:09:26.047Z</time></trkpt><trkpt lat="42.2080445" lon="13.6578404"><ele>604.3333333333333</ele><time>2026-05-01T09:09:27.049Z</time></trkpt><trkpt lat="42.207992" lon="13.6579363"><ele>601.6666666666666</ele><time>2026-05-01T09:09:28.047Z</time></trkpt><trkpt lat="42.2079344" lon="13.6580325"><ele>599.0</ele><time>2026-05-01T09:09:29.042Z</time></trkpt><trkpt lat="42.2078738" lon="13.6581322"><ele>597.8</ele><time>2026-05-01T09:09:30.034Z</time></trkpt><trkpt lat="42.207812" lon="13.6582354"><ele>596.5999999999999</ele><time>2026-05-01T09:09:31.035Z</time></trkpt><trkpt lat="42.2077324" lon="13.6583244"><ele>595.4</ele><time>2026-05-01T09:09:32.05Z</time></trkpt><trkpt lat="42.2076457" lon="13.6584147"><ele>594.1999999999999</ele><time>2026-05-01T09:09:33.031Z</time></trkpt><trkpt lat="42.2075445" lon="13.6584931"><ele>593.0</ele><time>2026-05-01T09:09:34.035Z</time></trkpt><trkpt lat="42.2074434" lon="13.6585732"><ele>591.5</ele><time>2026-05-01T09:09:35.042Z</time></trkpt><trkpt lat="42.2073345" lon="13.6586597"><ele>590.0</ele><time>2026-05-01T09:09:36.035Z</time></trkpt><trkpt lat="42.2072198" lon="13.6587499"><ele>588.5</ele><time>2026-05-01T09:09:37.045Z</time></trkpt><trkpt lat="42.2071041" lon="13.6588487"><ele>587.0</ele><time>2026-05-01T09:09:38.042Z</time></trkpt><trkpt lat="42.206981" lon="13.6589464"><ele>587.0</ele><time>2026-05-01T09:09:39.045Z</time></trkpt><trkpt lat="42.2068549" lon="13.6590514"><ele>587.0</ele><time>2026-05-01T09:09:40.037Z</time></trkpt><trkpt lat="42.2067295" lon="13.6591525"><ele>587.0</ele><time>2026-05-01T09:09:41.057Z</time></trkpt><trkpt lat="42.2066003" lon="13.6592515"><ele>587.0</ele><time>2026-05-01T09:09:42.042Z</time></trkpt><trkpt lat="42.2064745" lon="13.659355"><ele>585.5</ele><time>2026-05-01T09:09:43.046Z</time></trkpt><trkpt lat="42.2063515" lon="13.6594496"><ele>584.0</ele><time>2026-05-01T09:09:44.042Z</time></trkpt><trkpt lat="42.2062258" lon="13.65954"><ele>582.5</ele><time>2026-05-01T09:09:45.032Z</time></trkpt><trkpt lat="42.206105" lon="13.6596291"><ele>581.0</ele><time>2026-05-01T09:09:46.045Z</time></trkpt><trkpt lat="42.206002" lon="13.6597185"><ele>581.0</ele><time>2026-05-01T09:09:47.043Z</time></trkpt><trkpt lat="42.205909" lon="13.659824"><ele>581.0</ele><time>2026-05-01T09:09:48.04Z</time></trkpt><trkpt lat="42.2058381" lon="13.6599583"><ele>581.0</ele><time>2026-05-01T09:09:49.038Z</time></trkpt><trkpt lat="42.2057978" lon="13.66011"><ele>581.0</ele><time>2026-05-01T09:09:50.04Z</time></trkpt><trkpt lat="42.2057649" lon="13.6602451"><ele>580.3333333333333</ele><time>2026-05-01T09:09:51.034Z</time></trkpt><trkpt lat="42.2057334" lon="13.6603406"><ele>579.6666666666666</ele><time>2026-05-01T09:09:52.039Z</time></trkpt><trkpt lat="42.2056362" lon="13.6604183"><ele>579.0</ele><time>2026-05-01T09:09:54.038Z</time></trkpt><trkpt lat="42.2055731" lon="13.660397"><ele>578.3333333333334</ele><time>2026-05-01T09:09:55.087Z</time></trkpt><trkpt lat="42.2055377" lon="13.6603172"><ele>577.6666666666667</ele><time>2026-05-01T09:09:56.046Z</time></trkpt><trkpt lat="42.2055224" lon="13.6602062"><ele>577.0</ele><time>2026-05-01T09:09:57.047Z</time></trkpt><trkpt lat="42.2055292" lon="13.6600892"><ele>576.2</ele><time>2026-05-01T09:09:58.047Z</time></trkpt><trkpt lat="42.2055345" lon="13.6599574"><ele>575.4000000000001</ele><time>2026-05-01T09:09:59.051Z</time></trkpt><trkpt lat="42.2055389" lon="13.6598302"><ele>574.5999999999999</ele><time>2026-05-01T09:10:00.039Z</time></trkpt><trkpt lat="42.2055549" lon="13.6596885"><ele>573.8</ele><time>2026-05-01T09:10:01.05Z</time></trkpt><trkpt lat="42.2055964" lon="13.6595492"><ele>573.0</ele><time>2026-05-01T09:10:02.042Z</time></trkpt><trkpt lat="42.2056643" lon="13.659416"><ele>573.0</ele><time>2026-05-01T09:10:03.036Z</time></trkpt><trkpt lat="42.2057474" lon="13.6592857"><ele>573.0</ele><time>2026-05-01T09:10:04.042Z</time></trkpt><trkpt lat="42.2058282" lon="13.6591443"><ele>573.0</ele><time>2026-05-01T09:10:05.037Z</time></trkpt><trkpt lat="42.2059102" lon="13.6589896"><ele>573.0</ele><time>2026-05-01T09:10:06.035Z</time></trkpt><trkpt lat="42.2060007" lon="13.658829"><ele>573.0</ele><time>2026-05-01T09:10:07.049Z</time></trkpt><trkpt lat="42.2060969" lon="13.6586688"><ele>573.0</ele><time>2026-05-01T09:10:08.047Z</time></trkpt><trkpt lat="42.2061886" lon="13.658516"><ele>573.0</ele><time>2026-05-01T09:10:09.059Z</time></trkpt><trkpt lat="42.2062738" lon="13.6583691"><ele>573.0</ele><time>2026-05-01T09:10:10.039Z</time></trkpt><trkpt lat="42.2063591" lon="13.6582268"><ele>574.0</ele><time>2026-05-01T09:10:11.048Z</time></trkpt><trkpt lat="42.2064378" lon="13.6580807"><ele>575.0</ele><time>2026-05-01T09:10:12.043Z</time></trkpt><trkpt lat="42.2065051" lon="13.6579281"><ele>576.0</ele><time>2026-05-01T09:10:13.042Z</time></trkpt><trkpt lat="42.2065559" lon="13.6577654"><ele>577.0</ele><time>2026-05-01T09:10:14.055Z</time></trkpt><trkpt lat="42.2065883" lon="13.6575934"><ele>575.0</ele><time>2026-05-01T09:10:15.047Z</time></trkpt><trkpt lat="42.2065978" lon="13.6574319"><ele>573.0</ele><time>2026-05-01T09:10:16.035Z</time></trkpt><trkpt lat="42.2065949" lon="13.6572691"><ele>571.0</ele><time>2026-05-01T09:10:17.052Z</time></trkpt><trkpt lat="42.2065836" lon="13.6571148"><ele>569.0</ele><time>2026-05-01T09:10:18.035Z</time></trkpt><trkpt lat="42.2065797" lon="13.6569836"><ele>567.8333333333333</ele><time>2026-05-01T09:10:19.04Z</time></trkpt><trkpt lat="42.2065919" lon="13.6568659"><ele>566.6666666666666</ele><time>2026-05-01T09:10:20.042Z</time></trkpt><trkpt lat="42.2066211" lon="13.6567743"><ele>565.5</ele><time>2026-05-01T09:10:21.044Z</time></trkpt><trkpt lat="42.2066573" lon="13.6567014"><ele>564.3333333333334</ele><time>2026-05-01T09:10:22.043Z</time></trkpt><trkpt lat="42.206679" lon="13.6566014"><ele>563.1666666666667</ele><time>2026-05-01T09:10:24.046Z</time></trkpt><trkpt lat="42.2066387" lon="13.6565075"><ele>562.0</ele><time>2026-05-01T09:10:26.032Z</time></trkpt><trkpt lat="42.2065471" lon="13.6564662"><ele>560.0</ele><time>2026-05-01T09:10:28.05Z</time></trkpt><trkpt lat="42.206459" lon="13.6565309"><ele>558.0</ele><time>2026-05-01T09:10:30.042Z</time></trkpt><trkpt lat="42.2063988" lon="13.656612"><ele>556.0</ele><time>2026-05-01T09:10:32.04Z</time></trkpt><trkpt lat="42.2063384" lon="13.6566782"><ele>554.0</ele><time>2026-05-01T09:10:34.055Z</time></trkpt><trkpt lat="42.2062828" lon="13.6567467"><ele>552.0</ele><time>2026-05-01T09:10:36.044Z</time></trkpt><trkpt lat="42.2062247" lon="13.6567859"><ele>550.0</ele><time>2026-05-01T09:10:39.05Z</time></trkpt><trkpt lat="42.2061579" lon="13.6567473"><ele>550.0</ele><time>2026-05-01T09:10:43.037Z</time></trkpt><trkpt lat="42.2061179" lon="13.6566783"><ele>550.0</ele><time>2026-05-01T09:10:46.037Z</time></trkpt><trkpt lat="42.2060777" lon="13.6565912"><ele>550.0</ele><time>2026-05-01T09:10:48.044Z</time></trkpt><trkpt lat="42.2060447" lon="13.6564941"><ele>550.0</ele><time>2026-05-01T09:10:50.048Z</time></trkpt><trkpt lat="42.2059976" lon="13.6563839"><ele>550.0</ele><time>2026-05-01T09:10:53.047Z</time></trkpt><trkpt lat="42.2059843" lon="13.6562962"><ele>550.0</ele><time>2026-05-01T09:10:56.05Z</time></trkpt><trkpt lat="42.2060277" lon="13.6562214"><ele>550.0</ele><time>2026-05-01T09:11:04.043Z</time></trkpt><trkpt lat="42.206102" lon="13.6561611"><ele>550.0</ele><time>2026-05-01T09:11:07.044Z</time></trkpt><trkpt lat="42.2061498" lon="13.6560945"><ele>550.0</ele><time>2026-05-01T09:11:09.043Z</time></trkpt><trkpt lat="42.2062079" lon="13.6560296"><ele>550.0</ele><time>2026-05-01T09:11:12.037Z</time></trkpt><trkpt lat="42.2062683" lon="13.655977"><ele>550.0</ele><time>2026-05-01T09:11:17.047Z</time></trkpt><trkpt lat="42.2063209" lon="13.6559292"><ele>550.0</ele><time>2026-05-01T09:11:20.04Z</time></trkpt><trkpt lat="42.2062534" lon="13.6558484"><ele>549.1666666666667</ele><time>2026-05-01T09:11:24.037Z</time></trkpt><trkpt lat="42.2061882" lon="13.6557849"><ele>548.3333333333334</ele><time>2026-05-01T09:11:27.035Z</time></trkpt><trkpt lat="42.206145" lon="13.655709"><ele>547.5</ele><time>2026-05-01T09:11:33.043Z</time></trkpt><trkpt lat="42.2062332" lon="13.6556429"><ele>546.6666666666666</ele><time>2026-05-01T09:11:35.049Z</time></trkpt><trkpt lat="42.2063131" lon="13.6556116"><ele>545.8333333333333</ele><time>2026-05-01T09:11:37.035Z</time></trkpt><trkpt lat="42.2064005" lon="13.6555744"><ele>545.0</ele><time>2026-05-01T09:11:39.04Z</time></trkpt><trkpt lat="42.2064818" lon="13.6555028"><ele>544.3333333333333</ele><time>2026-05-01T09:11:41.038Z</time></trkpt><trkpt lat="42.2065616" lon="13.6554142"><ele>543.6666666666666</ele><time>2026-05-01T09:11:43.033Z</time></trkpt><trkpt lat="42.2066389" lon="13.655339"><ele>543.0</ele><time>2026-05-01T09:11:45.043Z</time></trkpt><trkpt lat="42.2066933" lon="13.6552882"><ele>542.3333333333334</ele><time>2026-05-01T09:11:47.046Z</time></trkpt><trkpt lat="42.2067099" lon="13.655206"><ele>541.6666666666667</ele><time>2026-05-01T09:11:50.03Z</time></trkpt><trkpt lat="42.2066409" lon="13.6551817"><ele>541.0</ele><time>2026-05-01T09:11:52.048Z</time></trkpt><trkpt lat="42.206513" lon="13.6552203"><ele>541.6666666666667</ele><time>2026-05-01T09:11:54.064Z</time></trkpt><trkpt lat="42.2064354" lon="13.6552327"><ele>542.3333333333334</ele><time>2026-05-01T09:11:55.041Z</time></trkpt><trkpt lat="42.2063513" lon="13.6552448"><ele>543.0</ele><time>2026-05-01T09:11:56.06Z</time></trkpt><trkpt lat="42.2062621" lon="13.6552619"><ele>543.6666666666666</ele><time>2026-05-01T09:11:57.035Z</time></trkpt><trkpt lat="42.2061675" lon="13.6552957"><ele>544.3333333333333</ele><time>2026-05-01T09:11:58.036Z</time></trkpt><trkpt lat="42.2060851" lon="13.6553517"><ele>545.0</ele><time>2026-05-01T09:11:59.037Z</time></trkpt><trkpt lat="42.2060126" lon="13.6554195"><ele>545.0</ele><time>2026-05-01T09:12:00.043Z</time></trkpt><trkpt lat="42.2059506" lon="13.6554986"><ele>545.0</ele><time>2026-05-01T09:12:01.053Z</time></trkpt><trkpt lat="42.2058881" lon="13.6555734"><ele>545.0</ele><time>2026-05-01T09:12:02.043Z</time></trkpt><trkpt lat="42.2058306" lon="13.6556427"><ele>545.0</ele><time>2026-05-01T09:12:03.047Z</time></trkpt><trkpt lat="42.2057749" lon="13.6556994"><ele>545.0</ele><time>2026-05-01T09:12:04.053Z</time></trkpt><trkpt lat="42.2056856" lon="13.6558109"><ele>545.0</ele><time>2026-05-01T09:12:06.046Z</time></trkpt><trkpt lat="42.2056396" lon="13.6558718"><ele>543.1666666666666</ele><time>2026-05-01T09:12:07.056Z</time></trkpt><trkpt lat="42.2055754" lon="13.6560155"><ele>541.3333333333333</ele><time>2026-05-01T09:12:09.043Z</time></trkpt><trkpt lat="42.2055626" lon="13.656105"><ele>539.5</ele><time>2026-05-01T09:12:10.062Z</time></trkpt><trkpt lat="42.2055648" lon="13.6561991"><ele>537.6666666666666</ele><time>2026-05-01T09:12:11.039Z</time></trkpt><trkpt lat="42.2055736" lon="13.6562966"><ele>535.8333333333334</ele><time>2026-05-01T09:12:13.053Z</time></trkpt><trkpt lat="42.2056049" lon="13.6564427"><ele>534.0</ele><time>2026-05-01T09:12:36.067Z</time></trkpt><trkpt lat="42.205602" lon="13.6565606"><ele>534.0</ele><time>2026-05-01T09:12:37.043Z</time></trkpt><trkpt lat="42.2056031" lon="13.6566821"><ele>534.0</ele><time>2026-05-01T09:12:38.039Z</time></trkpt><trkpt lat="42.2056105" lon="13.6568347"><ele>534.0</ele><time>2026-05-01T09:12:39.05Z</time></trkpt><trkpt lat="42.205612" lon="13.6570075"><ele>534.0</ele><time>2026-05-01T09:12:40.066Z</time></trkpt><trkpt lat="42.2056254" lon="13.6571932"><ele>534.25</ele><time>2026-05-01T09:12:41.066Z</time></trkpt><trkpt lat="42.2056371" lon="13.6573794"><ele>534.5</ele><time>2026-05-01T09:12:42.049Z</time></trkpt><trkpt lat="42.2056481" lon="13.6575499"><ele>534.75</ele><time>2026-05-01T09:12:43.066Z</time></trkpt><trkpt lat="42.2056389" lon="13.6577144"><ele>535.0</ele><time>2026-05-01T09:12:44.042Z</time></trkpt><trkpt lat="42.2055909" lon="13.6578623"><ele>537.25</ele><time>2026-05-01T09:12:45.039Z</time></trkpt><trkpt lat="42.2055003" lon="13.6579881"><ele>539.5</ele><time>2026-05-01T09:12:46.058Z</time></trkpt><trkpt lat="42.2053988" lon="13.6581001"><ele>541.75</ele><time>2026-05-01T09:12:47.042Z</time></trkpt><trkpt lat="42.2052954" lon="13.6582129"><ele>544.0</ele><time>2026-05-01T09:12:48.053Z</time></trkpt><trkpt lat="42.2051917" lon="13.6583125"><ele>544.0</ele><time>2026-05-01T09:12:49.044Z</time></trkpt><trkpt lat="42.2050847" lon="13.6584142"><ele>544.0</ele><time>2026-05-01T09:12:50.039Z</time></trkpt><trkpt lat="42.2049795" lon="13.6585116"><ele>544.0</ele><time>2026-05-01T09:12:51.041Z</time></trkpt><trkpt lat="42.2048588" lon="13.6585856"><ele>544.0</ele><time>2026-05-01T09:12:52.038Z</time></trkpt><trkpt lat="42.2047414" lon="13.65863"><ele>544.0</ele><time>2026-05-01T09:12:53.042Z</time></trkpt><trkpt lat="42.2046176" lon="13.6586601"><ele>544.0</ele><time>2026-05-01T09:12:54.043Z</time></trkpt><trkpt lat="42.204491" lon="13.6586902"><ele>544.0</ele><time>2026-05-01T09:12:55.04Z</time></trkpt><trkpt lat="42.2043665" lon="13.658728"><ele>544.0</ele><time>2026-05-01T09:12:56.045Z</time></trkpt><trkpt lat="42.2042522" lon="13.6587573"><ele>544.0</ele><time>2026-05-01T09:12:57.04Z</time></trkpt><trkpt lat="42.2041466" lon="13.6587641"><ele>544.0</ele><time>2026-05-01T09:12:58.081Z</time></trkpt><trkpt lat="42.2040284" lon="13.6587408"><ele>544.0</ele><time>2026-05-01T09:12:59.046Z</time></trkpt><trkpt lat="42.2039036" lon="13.6586866"><ele>544.0</ele><time>2026-05-01T09:13:00.05Z</time></trkpt><trkpt lat="42.2037742" lon="13.6586394"><ele>541.0</ele><time>2026-05-01T09:13:01.046Z</time></trkpt><trkpt lat="42.2036407" lon="13.6585971"><ele>538.0</ele><time>2026-05-01T09:13:02.045Z</time></trkpt><trkpt lat="42.2035043" lon="13.6585489"><ele>535.0</ele><time>2026-05-01T09:13:03.05Z</time></trkpt><trkpt lat="42.2033702" lon="13.6584953"><ele>532.0</ele><time>2026-05-01T09:13:04.058Z</time></trkpt><trkpt lat="42.2032359" lon="13.6584416"><ele>531.75</ele><time>2026-05-01T09:13:05.046Z</time></trkpt><trkpt lat="42.2031008" lon="13.6583882"><ele>531.5</ele><time>2026-05-01T09:13:06.039Z</time></trkpt><trkpt lat="42.2029706" lon="13.6583312"><ele>531.25</ele><time>2026-05-01T09:13:07.045Z</time></trkpt><trkpt lat="42.2028406" lon="13.6582456"><ele>531.0</ele><time>2026-05-01T09:13:08.049Z</time></trkpt><trkpt lat="42.2027186" lon="13.6581327"><ele>531.0</ele><time>2026-05-01T09:13:09.048Z</time></trkpt><trkpt lat="42.2026015" lon="13.6580019"><ele>531.0</ele><time>2026-05-01T09:13:10.057Z</time></trkpt><trkpt lat="42.2024744" lon="13.6578643"><ele>531.0</ele><time>2026-05-01T09:13:11.057Z</time></trkpt><trkpt lat="42.2023533" lon="13.6577341"><ele>527.5</ele><time>2026-05-01T09:13:12.037Z</time></trkpt><trkpt lat="42.2022373" lon="13.6576165"><ele>524.0</ele><time>2026-05-01T09:13:13.042Z</time></trkpt><trkpt lat="42.2021242" lon="13.6575314"><ele>520.5</ele><time>2026-05-01T09:13:14.045Z</time></trkpt><trkpt lat="42.2020011" lon="13.6574834"><ele>517.0</ele><time>2026-05-01T09:13:15.045Z</time></trkpt><trkpt lat="42.2018595" lon="13.6574826"><ele>517.0</ele><time>2026-05-01T09:13:16.05Z</time></trkpt><trkpt lat="42.2017111" lon="13.6574907"><ele>517.0</ele><time>2026-05-01T09:13:17.042Z</time></trkpt><trkpt lat="42.2015652" lon="13.6575182"><ele>517.0</ele><time>2026-05-01T09:13:18.042Z</time></trkpt><trkpt lat="42.2014281" lon="13.6575492"><ele>517.0</ele><time>2026-05-01T09:13:19.047Z</time></trkpt><trkpt lat="42.2012972" lon="13.6575879"><ele>517.75</ele><time>2026-05-01T09:13:20.029Z</time></trkpt><trkpt lat="42.2011738" lon="13.657649"><ele>518.5</ele><time>2026-05-01T09:13:21.04Z</time></trkpt><trkpt lat="42.201061" lon="13.6577384"><ele>519.25</ele><time>2026-05-01T09:13:22.041Z</time></trkpt><trkpt lat="42.2009623" lon="13.6578643"><ele>520.0</ele><time>2026-05-01T09:13:23.041Z</time></trkpt><trkpt lat="42.2008737" lon="13.6580034"><ele>520.0</ele><time>2026-05-01T09:13:24.04Z</time></trkpt><trkpt lat="42.200768" lon="13.6581219"><ele>520.0</ele><time>2026-05-01T09:13:25.05Z</time></trkpt><trkpt lat="42.2006418" lon="13.6582098"><ele>520.0</ele><time>2026-05-01T09:13:26.048Z</time></trkpt><trkpt lat="42.2005013" lon="13.6582574"><ele>520.0</ele><time>2026-05-01T09:13:27.046Z</time></trkpt><trkpt lat="42.2003531" lon="13.6582898"><ele>516.0</ele><time>2026-05-01T09:13:28.042Z</time></trkpt><trkpt lat="42.2002022" lon="13.6583159"><ele>512.0</ele><time>2026-05-01T09:13:29.04Z</time></trkpt><trkpt lat="42.200049" lon="13.6583457"><ele>508.0</ele><time>2026-05-01T09:13:30.053Z</time></trkpt><trkpt lat="42.199907" lon="13.6583768"><ele>508.0</ele><time>2026-05-01T09:13:31.042Z</time></trkpt><trkpt lat="42.1997701" lon="13.6584156"><ele>508.0</ele><time>2026-05-01T09:13:32.037Z</time></trkpt><trkpt lat="42.1996328" lon="13.6584831"><ele>508.0</ele><time>2026-05-01T09:13:33.029Z</time></trkpt><trkpt lat="42.1995017" lon="13.658592"><ele>508.0</ele><time>2026-05-01T09:13:34.037Z</time></trkpt><trkpt lat="42.1993823" lon="13.6587176"><ele>508.0</ele><time>2026-05-01T09:13:35.039Z</time></trkpt><trkpt lat="42.1992665" lon="13.658845"><ele>508.0</ele><time>2026-05-01T09:13:36.038Z</time></trkpt><trkpt lat="42.1991563" lon="13.6589669"><ele>508.0</ele><time>2026-05-01T09:13:37.047Z</time></trkpt><trkpt lat="42.1990462" lon="13.6590779"><ele>508.0</ele><time>2026-05-01T09:13:38.037Z</time></trkpt><trkpt lat="42.1989427" lon="13.6591841"><ele>505.25</ele><time>2026-05-01T09:13:39.04Z</time></trkpt><trkpt lat="42.1988284" lon="13.6592601"><ele>502.5</ele><time>2026-05-01T09:13:40.05Z</time></trkpt><trkpt lat="42.1987052" lon="13.6592991"><ele>499.75</ele><time>2026-05-01T09:13:41.042Z</time></trkpt><trkpt lat="42.1985823" lon="13.6593001"><ele>497.0</ele><time>2026-05-01T09:13:42.044Z</time></trkpt><trkpt lat="42.1984653" lon="13.6592666"><ele>496.99999999999994</ele><time>2026-05-01T09:13:43.043Z</time></trkpt><trkpt lat="42.1983598" lon="13.6592248"><ele>497.0</ele><time>2026-05-01T09:13:44.033Z</time></trkpt><trkpt lat="42.1982716" lon="13.6591787"><ele>497.0</ele><time>2026-05-01T09:13:45.032Z</time></trkpt><trkpt lat="42.1982047" lon="13.6591162"><ele>497.0</ele><time>2026-05-01T09:13:46.054Z</time></trkpt><trkpt lat="42.1981601" lon="13.6590305"><ele>496.99999999999994</ele><time>2026-05-01T09:13:47.055Z</time></trkpt><trkpt lat="42.1981277" lon="13.6589339"><ele>497.0</ele><time>2026-05-01T09:13:48.055Z</time></trkpt><trkpt lat="42.198106" lon="13.6588217"><ele>496.6</ele><time>2026-05-01T09:13:49.044Z</time></trkpt><trkpt lat="42.1980697" lon="13.6587008"><ele>496.20000000000005</ele><time>2026-05-01T09:13:50.034Z</time></trkpt><trkpt lat="42.1980231" lon="13.6585716"><ele>495.8</ele><time>2026-05-01T09:13:51.052Z</time></trkpt><trkpt lat="42.1979626" lon="13.6584418"><ele>495.4</ele><time>2026-05-01T09:13:52.044Z</time></trkpt><trkpt lat="42.1978912" lon="13.6583003"><ele>495.0</ele><time>2026-05-01T09:13:53.072Z</time></trkpt><trkpt lat="42.1978075" lon="13.6581593"><ele>494.5</ele><time>2026-05-01T09:13:54.039Z</time></trkpt><trkpt lat="42.1977157" lon="13.6580105"><ele>494.0</ele><time>2026-05-01T09:13:55.043Z</time></trkpt><trkpt lat="42.1976172" lon="13.6578621"><ele>493.5</ele><time>2026-05-01T09:13:56.042Z</time></trkpt><trkpt lat="42.1975172" lon="13.6577052"><ele>493.0</ele><time>2026-05-01T09:13:57.049Z</time></trkpt><trkpt lat="42.1974145" lon="13.657546"><ele>493.33333333333337</ele><time>2026-05-01T09:13:58.037Z</time></trkpt><trkpt lat="42.1973129" lon="13.6573863"><ele>493.66666666666663</ele><time>2026-05-01T09:13:59.058Z</time></trkpt><trkpt lat="42.1972084" lon="13.657218"><ele>494.0</ele><time>2026-05-01T09:14:00.043Z</time></trkpt><trkpt lat="42.1971051" lon="13.65706"><ele>493.66666666666663</ele><time>2026-05-01T09:14:01.043Z</time></trkpt><trkpt lat="42.1969959" lon="13.6568966"><ele>493.33333333333337</ele><time>2026-05-01T09:14:02.04Z</time></trkpt><trkpt lat="42.1968847" lon="13.6567316"><ele>493.0</ele><time>2026-05-01T09:14:03.052Z</time></trkpt><trkpt lat="42.1967722" lon="13.6565636"><ele>493.0</ele><time>2026-05-01T09:14:04.053Z</time></trkpt><trkpt lat="42.1966637" lon="13.6563965"><ele>493.0</ele><time>2026-05-01T09:14:05.073Z</time></trkpt><trkpt lat="42.1965615" lon="13.656225"><ele>493.0</ele><time>2026-05-01T09:14:06.048Z</time></trkpt><trkpt lat="42.1964569" lon="13.6560638"><ele>495.6666666666667</ele><time>2026-05-01T09:14:07.041Z</time></trkpt><trkpt lat="42.1963493" lon="13.6559027"><ele>498.33333333333337</ele><time>2026-05-01T09:14:08.044Z</time></trkpt><trkpt lat="42.1962459" lon="13.6557379"><ele>501.0</ele><time>2026-05-01T09:14:09.048Z</time></trkpt><trkpt lat="42.196144" lon="13.655582"><ele>501.0</ele><time>2026-05-01T09:14:10.054Z</time></trkpt><trkpt lat="42.1960445" lon="13.6554284"><ele>501.0</ele><time>2026-05-01T09:14:11.051Z</time></trkpt><trkpt lat="42.195947" lon="13.6552786"><ele>501.0</ele><time>2026-05-01T09:14:12.044Z</time></trkpt><trkpt lat="42.195859" lon="13.6551245"><ele>501.0</ele><time>2026-05-01T09:14:13.042Z</time></trkpt><trkpt lat="42.1957804" lon="13.6549653"><ele>502.0</ele><time>2026-05-01T09:14:14.044Z</time></trkpt><trkpt lat="42.1957097" lon="13.6548049"><ele>503.0</ele><time>2026-05-01T09:14:15.04Z</time></trkpt><trkpt lat="42.1956612" lon="13.6546271"><ele>504.0</ele><time>2026-05-01T09:14:16.04Z</time></trkpt><trkpt lat="42.1956303" lon="13.6544444"><ele>505.0</ele><time>2026-05-01T09:14:17.065Z</time></trkpt><trkpt lat="42.1956254" lon="13.6542613"><ele>506.5</ele><time>2026-05-01T09:14:18.048Z</time></trkpt><trkpt lat="42.1956397" lon="13.6540735"><ele>508.0</ele><time>2026-05-01T09:14:19.045Z</time></trkpt><trkpt lat="42.1956675" lon="13.6538843"><ele>509.5</ele><time>2026-05-01T09:14:20.057Z</time></trkpt><trkpt lat="42.1957087" lon="13.653686"><ele>511.0</ele><time>2026-05-01T09:14:21.039Z</time></trkpt><trkpt lat="42.1957459" lon="13.6534785"><ele>514.3333333333334</ele><time>2026-05-01T09:14:22.056Z</time></trkpt><trkpt lat="42.1957786" lon="13.6532631"><ele>517.6666666666666</ele><time>2026-05-01T09:14:23.05Z</time></trkpt><trkpt lat="42.1958114" lon="13.6530463"><ele>521.0</ele><time>2026-05-01T09:14:24.044Z</time></trkpt><trkpt lat="42.1958456" lon="13.6528261"><ele>522.6666666666666</ele><time>2026-05-01T09:14:25.055Z</time></trkpt><trkpt lat="42.1958813" lon="13.6526045"><ele>524.3333333333334</ele><time>2026-05-01T09:14:26.043Z</time></trkpt><trkpt lat="42.1959154" lon="13.6523877"><ele>526.0</ele><time>2026-05-01T09:14:27.053Z</time></trkpt><trkpt lat="42.1959495" lon="13.6521714"><ele>527.6666666666667</ele><time>2026-05-01T09:14:28.041Z</time></trkpt><trkpt lat="42.1959823" lon="13.6519551"><ele>529.3333333333334</ele><time>2026-05-01T09:14:29.053Z</time></trkpt><trkpt lat="42.1960153" lon="13.6517429"><ele>531.0</ele><time>2026-05-01T09:14:30.037Z</time></trkpt><trkpt lat="42.1960515" lon="13.6515328"><ele>531.0</ele><time>2026-05-01T09:14:31.038Z</time></trkpt><trkpt lat="42.196087" lon="13.6513232"><ele>531.0</ele><time>2026-05-01T09:14:32.046Z</time></trkpt><trkpt lat="42.1961257" lon="13.6511101"><ele>531.0</ele><time>2026-05-01T09:14:33.047Z</time></trkpt><trkpt lat="42.1961608" lon="13.6508972"><ele>532.3333333333334</ele><time>2026-05-01T09:14:34.076Z</time></trkpt><trkpt lat="42.1961917" lon="13.6506806"><ele>533.6666666666667</ele><time>2026-05-01T09:14:35.044Z</time></trkpt><trkpt lat="42.1962276" lon="13.6504628"><ele>535.0</ele><time>2026-05-01T09:14:36.036Z</time></trkpt><trkpt lat="42.1962656" lon="13.6502407"><ele>537.3333333333334</ele><time>2026-05-01T09:14:37.048Z</time></trkpt><trkpt lat="42.1963074" lon="13.6500223"><ele>539.6666666666666</ele><time>2026-05-01T09:14:38.042Z</time></trkpt><trkpt lat="42.196348" lon="13.6498045"><ele>542.0</ele><time>2026-05-01T09:14:39.053Z</time></trkpt><trkpt lat="42.1963856" lon="13.6495889"><ele>543.6666666666666</ele><time>2026-05-01T09:14:40.051Z</time></trkpt><trkpt lat="42.1964185" lon="13.6493673"><ele>545.3333333333334</ele><time>2026-05-01T09:14:41.042Z</time></trkpt><trkpt lat="42.1964532" lon="13.6491529"><ele>547.0</ele><time>2026-05-01T09:14:42.057Z</time></trkpt><trkpt lat="42.1964913" lon="13.6489451"><ele>547.0</ele><time>2026-05-01T09:14:43.042Z</time></trkpt><trkpt lat="42.1965297" lon="13.6487461"><ele>547.0</ele><time>2026-05-01T09:14:44.043Z</time></trkpt><trkpt lat="42.1965655" lon="13.6485508"><ele>547.0</ele><time>2026-05-01T09:14:45.035Z</time></trkpt><trkpt lat="42.196602" lon="13.6483723"><ele>547.0</ele><time>2026-05-01T09:14:46.036Z</time></trkpt><trkpt lat="42.1966359" lon="13.6482186"><ele>547.0</ele><time>2026-05-01T09:14:47.043Z</time></trkpt><trkpt lat="42.1966559" lon="13.6480775"><ele>547.0</ele><time>2026-05-01T09:14:48.043Z</time></trkpt><trkpt lat="42.1966809" lon="13.6479499"><ele>547.0</ele><time>2026-05-01T09:14:49.041Z</time></trkpt><trkpt lat="42.1967096" lon="13.6478348"><ele>547.0</ele><time>2026-05-01T09:14:50.044Z</time></trkpt><trkpt lat="42.1967488" lon="13.6477303"><ele>547.0</ele><time>2026-05-01T09:14:51.047Z</time></trkpt><trkpt lat="42.1968034" lon="13.6476303"><ele>548.8000000000001</ele><time>2026-05-01T09:14:52.044Z</time></trkpt><trkpt lat="42.1968794" lon="13.6475437"><ele>550.6</ele><time>2026-05-01T09:14:53.05Z</time></trkpt><trkpt lat="42.1969744" lon="13.6474755"><ele>552.4000000000001</ele><time>2026-05-01T09:14:54.046Z</time></trkpt><trkpt lat="42.1970832" lon="13.6474275"><ele>554.2</ele><time>2026-05-01T09:14:55.046Z</time></trkpt><trkpt lat="42.1972018" lon="13.6473886"><ele>556.0</ele><time>2026-05-01T09:14:56.047Z</time></trkpt><trkpt lat="42.1973265" lon="13.6473461"><ele>554.75</ele><time>2026-05-01T09:14:57.042Z</time></trkpt><trkpt lat="42.197455" lon="13.6473007"><ele>553.5</ele><time>2026-05-01T09:14:58.046Z</time></trkpt><trkpt lat="42.1975905" lon="13.6472562"><ele>552.25</ele><time>2026-05-01T09:14:59.037Z</time></trkpt><trkpt lat="42.1977286" lon="13.6472087"><ele>551.0</ele><time>2026-05-01T09:15:00.043Z</time></trkpt><trkpt lat="42.1978685" lon="13.6471495"><ele>551.0</ele><time>2026-05-01T09:15:01.039Z</time></trkpt><trkpt lat="42.1980088" lon="13.6470774"><ele>551.0</ele><time>2026-05-01T09:15:02.056Z</time></trkpt><trkpt lat="42.1981524" lon="13.6469974"><ele>551.0</ele><time>2026-05-01T09:15:03.04Z</time></trkpt><trkpt lat="42.1982974" lon="13.6469128"><ele>552.3333333333333</ele><time>2026-05-01T09:15:04.041Z</time></trkpt><trkpt lat="42.1984474" lon="13.6468259"><ele>553.6666666666666</ele><time>2026-05-01T09:15:05.045Z</time></trkpt><trkpt lat="42.1986007" lon="13.6467373"><ele>555.0</ele><time>2026-05-01T09:15:06.041Z</time></trkpt><trkpt lat="42.1987514" lon="13.6466498"><ele>555.0</ele><time>2026-05-01T09:15:07.056Z</time></trkpt><trkpt lat="42.1989018" lon="13.6465633"><ele>555.0</ele><time>2026-05-01T09:15:08.04Z</time></trkpt><trkpt lat="42.1990512" lon="13.6464766"><ele>555.0</ele><time>2026-05-01T09:15:09.048Z</time></trkpt><trkpt lat="42.1992" lon="13.6463889"><ele>557.0</ele><time>2026-05-01T09:15:10.048Z</time></trkpt><trkpt lat="42.1993462" lon="13.6463008"><ele>559.0</ele><time>2026-05-01T09:15:11.041Z</time></trkpt><trkpt lat="42.1994878" lon="13.6462021"><ele>561.0</ele><time>2026-05-01T09:15:12.067Z</time></trkpt><trkpt lat="42.1996231" lon="13.6460881"><ele>561.0</ele><time>2026-05-01T09:15:13.044Z</time></trkpt><trkpt lat="42.1997541" lon="13.6459648"><ele>561.0</ele><time>2026-05-01T09:15:14.046Z</time></trkpt><trkpt lat="42.1998767" lon="13.645831"><ele>561.0</ele><time>2026-05-01T09:15:15.052Z</time></trkpt><trkpt lat="42.199995" lon="13.6456897"><ele>559.6666666666666</ele><time>2026-05-01T09:15:16.046Z</time></trkpt><trkpt lat="42.2001142" lon="13.6455468"><ele>558.3333333333333</ele><time>2026-05-01T09:15:17.037Z</time></trkpt><trkpt lat="42.2002344" lon="13.6454037"><ele>557.0</ele><time>2026-05-01T09:15:18.063Z</time></trkpt><trkpt lat="42.2003508" lon="13.64526"><ele>557.0</ele><time>2026-05-01T09:15:19.043Z</time></trkpt><trkpt lat="42.2004593" lon="13.6451133"><ele>557.0</ele><time>2026-05-01T09:15:20.039Z</time></trkpt><trkpt lat="42.200557" lon="13.644954"><ele>557.0</ele><time>2026-05-01T09:15:21.049Z</time></trkpt><trkpt lat="42.2006469" lon="13.64479"><ele>555.0</ele><time>2026-05-01T09:15:22.044Z</time></trkpt><trkpt lat="42.2007308" lon="13.6446134"><ele>553.0</ele><time>2026-05-01T09:15:23.05Z</time></trkpt><trkpt lat="42.2008086" lon="13.6444276"><ele>551.0</ele><time>2026-05-01T09:15:24.047Z</time></trkpt><trkpt lat="42.2008823" lon="13.6442309"><ele>551.0</ele><time>2026-05-01T09:15:25.053Z</time></trkpt><trkpt lat="42.2009537" lon="13.6440293"><ele>551.0</ele><time>2026-05-01T09:15:26.044Z</time></trkpt><trkpt lat="42.2010224" lon="13.6438239"><ele>551.0</ele><time>2026-05-01T09:15:27.041Z</time></trkpt><trkpt lat="42.2010995" lon="13.6436263"><ele>553.6666666666666</ele><time>2026-05-01T09:15:28.039Z</time></trkpt><trkpt lat="42.2011863" lon="13.6434411"><ele>556.3333333333334</ele><time>2026-05-01T09:15:29.046Z</time></trkpt><trkpt lat="42.2012823" lon="13.6432664"><ele>559.0</ele><time>2026-05-01T09:15:30.052Z</time></trkpt><trkpt lat="42.2013795" lon="13.64309"><ele>559.0</ele><time>2026-05-01T09:15:31.049Z</time></trkpt><trkpt lat="42.201477" lon="13.6429175"><ele>559.0</ele><time>2026-05-01T09:15:32.037Z</time></trkpt><trkpt lat="42.2015716" lon="13.6427432"><ele>559.0</ele><time>2026-05-01T09:15:33.05Z</time></trkpt><trkpt lat="42.2016691" lon="13.6425636"><ele>558.0</ele><time>2026-05-01T09:15:34.043Z</time></trkpt><trkpt lat="42.2017687" lon="13.6423866"><ele>557.0</ele><time>2026-05-01T09:15:35.049Z</time></trkpt><trkpt lat="42.2018732" lon="13.642212"><ele>556.0</ele><time>2026-05-01T09:15:36.045Z</time></trkpt><trkpt lat="42.2019804" lon="13.6420383"><ele>559.0</ele><time>2026-05-01T09:15:37.04Z</time></trkpt><trkpt lat="42.20208" lon="13.6418575"><ele>562.0</ele><time>2026-05-01T09:15:38.045Z</time></trkpt><trkpt lat="42.2021754" lon="13.6416814"><ele>565.0</ele><time>2026-05-01T09:15:39.055Z</time></trkpt><trkpt lat="42.2022663" lon="13.6415128"><ele>565.3333333333334</ele><time>2026-05-01T09:15:40.039Z</time></trkpt><trkpt lat="42.2023567" lon="13.6413483"><ele>565.6666666666666</ele><time>2026-05-01T09:15:41.049Z</time></trkpt><trkpt lat="42.2024355" lon="13.6411726"><ele>566.0</ele><time>2026-05-01T09:15:42.048Z</time></trkpt><trkpt lat="42.2025026" lon="13.6409816"><ele>566.0</ele><time>2026-05-01T09:15:43.054Z</time></trkpt><trkpt lat="42.202556" lon="13.6407723"><ele>566.0</ele><time>2026-05-01T09:15:44.038Z</time></trkpt><trkpt lat="42.2026041" lon="13.640557"><ele>566.0</ele><time>2026-05-01T09:15:45.046Z</time></trkpt><trkpt lat="42.2026477" lon="13.6403445"><ele>567.0</ele><time>2026-05-01T09:15:46.048Z</time></trkpt><trkpt lat="42.2026917" lon="13.6401336"><ele>568.0</ele><time>2026-05-01T09:15:47.047Z</time></trkpt><trkpt lat="42.2027422" lon="13.639926"><ele>569.0</ele><time>2026-05-01T09:15:48.041Z</time></trkpt><trkpt lat="42.2027903" lon="13.6397289"><ele>569.0</ele><time>2026-05-01T09:15:49.049Z</time></trkpt><trkpt lat="42.2028333" lon="13.6395461"><ele>569.0</ele><time>2026-05-01T09:15:50.043Z</time></trkpt><trkpt lat="42.2028742" lon="13.6393768"><ele>569.0</ele><time>2026-05-01T09:15:51.04Z</time></trkpt><trkpt lat="42.2029097" lon="13.6392202"><ele>569.0</ele><time>2026-05-01T09:15:52.043Z</time></trkpt><trkpt lat="42.2029496" lon="13.6390739"><ele>570.0</ele><time>2026-05-01T09:15:53.041Z</time></trkpt><trkpt lat="42.2029888" lon="13.6389318"><ele>571.0</ele><time>2026-05-01T09:15:54.043Z</time></trkpt><trkpt lat="42.2030245" lon="13.6387981"><ele>572.0</ele><time>2026-05-01T09:15:55.037Z</time></trkpt><trkpt lat="42.2030524" lon="13.6386835"><ele>573.0</ele><time>2026-05-01T09:15:56.035Z</time></trkpt><trkpt lat="42.2030783" lon="13.6386026"><ele>574.0</ele><time>2026-05-01T09:15:57.038Z</time></trkpt><trkpt lat="42.2031487" lon="13.6385631"><ele>575.0</ele><time>2026-05-01T09:15:59.053Z</time></trkpt><trkpt lat="42.2031902" lon="13.6386868"><ele>575.0</ele><time>2026-05-01T09:16:01.049Z</time></trkpt><trkpt lat="42.2031859" lon="13.638795"><ele>575.0</ele><time>2026-05-01T09:16:02.047Z</time></trkpt><trkpt lat="42.2031593" lon="13.6389008"><ele>575.0</ele><time>2026-05-01T09:16:03.037Z</time></trkpt><trkpt lat="42.2031598" lon="13.6390244"><ele>575.0</ele><time>2026-05-01T09:16:04.045Z</time></trkpt><trkpt lat="42.2031593" lon="13.6391592"><ele>575.0</ele><time>2026-05-01T09:16:05.037Z</time></trkpt><trkpt lat="42.2031441" lon="13.6392972"><ele>575.0</ele><time>2026-05-01T09:16:06.053Z</time></trkpt><trkpt lat="42.2031176" lon="13.6394377"><ele>575.0</ele><time>2026-05-01T09:16:07.037Z</time></trkpt><trkpt lat="42.203081" lon="13.639577"><ele>575.0</ele><time>2026-05-01T09:16:08.042Z</time></trkpt><trkpt lat="42.2030372" lon="13.6397228"><ele>575.0</ele><time>2026-05-01T09:16:09.04Z</time></trkpt><trkpt lat="42.2029874" lon="13.6398691"><ele>573.5</ele><time>2026-05-01T09:16:10.05Z</time></trkpt><trkpt lat="42.202933" lon="13.6400205"><ele>572.0</ele><time>2026-05-01T09:16:11.046Z</time></trkpt><trkpt lat="42.2028858" lon="13.6401724"><ele>570.5</ele><time>2026-05-01T09:16:12.042Z</time></trkpt><trkpt lat="42.2028554" lon="13.6403225"><ele>569.0</ele><time>2026-05-01T09:16:13.032Z</time></trkpt><trkpt lat="42.2028526" lon="13.6404785"><ele>568.25</ele><time>2026-05-01T09:16:14.046Z</time></trkpt><trkpt lat="42.2028766" lon="13.6406369"><ele>567.5</ele><time>2026-05-01T09:16:15.04Z</time></trkpt><trkpt lat="42.2029173" lon="13.6407919"><ele>566.75</ele><time>2026-05-01T09:16:16.036Z</time></trkpt><trkpt lat="42.2029544" lon="13.6409472"><ele>566.0</ele><time>2026-05-01T09:16:17.041Z</time></trkpt><trkpt lat="42.2029743" lon="13.6411033"><ele>564.25</ele><time>2026-05-01T09:16:18.038Z</time></trkpt><trkpt lat="42.2029577" lon="13.641265"><ele>562.5</ele><time>2026-05-01T09:16:19.036Z</time></trkpt><trkpt lat="42.2029004" lon="13.6414124"><ele>560.75</ele><time>2026-05-01T09:16:20.034Z</time></trkpt><trkpt lat="42.2028283" lon="13.6415529"><ele>559.0</ele><time>2026-05-01T09:16:21.034Z</time></trkpt><trkpt lat="42.202755" lon="13.6416884"><ele>559.0</ele><time>2026-05-01T09:16:22.044Z</time></trkpt><trkpt lat="42.2026882" lon="13.6418134"><ele>559.0</ele><time>2026-05-01T09:16:23.03Z</time></trkpt><trkpt lat="42.2026276" lon="13.641933"><ele>559.0</ele><time>2026-05-01T09:16:24.024Z</time></trkpt><trkpt lat="42.202583" lon="13.6420419"><ele>559.0</ele><time>2026-05-01T09:16:25.032Z</time></trkpt><trkpt lat="42.2025683" lon="13.6421429"><ele>559.0</ele><time>2026-05-01T09:16:26.053Z</time></trkpt><trkpt lat="42.2025834" lon="13.6422545"><ele>556.4</ele><time>2026-05-01T09:16:27.039Z</time></trkpt><trkpt lat="42.202645" lon="13.6423387"><ele>553.8</ele><time>2026-05-01T09:16:28.051Z</time></trkpt><trkpt lat="42.20273" lon="13.6423753"><ele>551.2</ele><time>2026-05-01T09:16:29.039Z</time></trkpt><trkpt lat="42.202841" lon="13.6423258"><ele>548.6</ele><time>2026-05-01T09:16:30.038Z</time></trkpt><trkpt lat="42.2029281" lon="13.6422353"><ele>546.0</ele><time>2026-05-01T09:16:31.043Z</time></trkpt><trkpt lat="42.2029997" lon="13.6421104"><ele>546.0</ele><time>2026-05-01T09:16:32.035Z</time></trkpt><trkpt lat="42.2030712" lon="13.6419741"><ele>546.0</ele><time>2026-05-01T09:16:33.039Z</time></trkpt><trkpt lat="42.2031472" lon="13.6418404"><ele>546.0</ele><time>2026-05-01T09:16:34.049Z</time></trkpt><trkpt lat="42.203223" lon="13.6416988"><ele>546.0</ele><time>2026-05-01T09:16:35.037Z</time></trkpt><trkpt lat="42.2033" lon="13.6415608"><ele>544.6666666666666</ele><time>2026-05-01T09:16:36.035Z</time></trkpt><trkpt lat="42.2033643" lon="13.6414483"><ele>543.3333333333334</ele><time>2026-05-01T09:16:37.041Z</time></trkpt><trkpt lat="42.203422" lon="13.6413618"><ele>542.0</ele><time>2026-05-01T09:16:38.038Z</time></trkpt><trkpt lat="42.2034742" lon="13.6413012"><ele>540.6666666666667</ele><time>2026-05-01T09:16:39.041Z</time></trkpt><trkpt lat="42.2035849" lon="13.6413035"><ele>539.3333333333334</ele><time>2026-05-01T09:16:41.038Z</time></trkpt><trkpt lat="42.2036157" lon="13.6413788"><ele>538.0</ele><time>2026-05-01T09:16:42.041Z</time></trkpt><trkpt lat="42.2035949" lon="13.6414829"><ele>538.0</ele><time>2026-05-01T09:16:43.044Z</time></trkpt><trkpt lat="42.2035424" lon="13.6415813"><ele>538.0</ele><time>2026-05-01T09:16:44.039Z</time></trkpt><trkpt lat="42.2034759" lon="13.6416726"><ele>538.0</ele><time>2026-05-01T09:16:45.052Z</time></trkpt><trkpt lat="42.2034073" lon="13.6417848"><ele>538.0</ele><time>2026-05-01T09:16:46.036Z</time></trkpt><trkpt lat="42.2033456" lon="13.6419024"><ele>538.0</ele><time>2026-05-01T09:16:47.04Z</time></trkpt><trkpt lat="42.203297" lon="13.642014"><ele>536.8571428571429</ele><time>2026-05-01T09:16:48.043Z</time></trkpt><trkpt lat="42.2032607" lon="13.642106"><ele>535.7142857142858</ele><time>2026-05-01T09:16:49.046Z</time></trkpt><trkpt lat="42.2032549" lon="13.6422009"><ele>534.5714285714286</ele><time>2026-05-01T09:16:50.04Z</time></trkpt><trkpt lat="42.2032823" lon="13.642289"><ele>533.4285714285714</ele><time>2026-05-01T09:16:51.036Z</time></trkpt><trkpt lat="42.2033505" lon="13.6423447"><ele>532.2857142857142</ele><time>2026-05-01T09:16:52.043Z</time></trkpt><trkpt lat="42.2034195" lon="13.6423595"><ele>531.1428571428571</ele><time>2026-05-01T09:16:53.039Z</time></trkpt><trkpt lat="42.2034837" lon="13.6422976"><ele>530.0</ele><time>2026-05-01T09:16:54.044Z</time></trkpt><trkpt lat="42.2035472" lon="13.6421815"><ele>530.0</ele><time>2026-05-01T09:16:55.039Z</time></trkpt><trkpt lat="42.2036228" lon="13.642055"><ele>530.0</ele><time>2026-05-01T09:16:56.036Z</time></trkpt><trkpt lat="42.2037011" lon="13.6419243"><ele>530.0</ele><time>2026-05-01T09:16:57.043Z</time></trkpt><trkpt lat="42.2037841" lon="13.6417885"><ele>530.0</ele><time>2026-05-01T09:16:58.037Z</time></trkpt><trkpt lat="42.2038782" lon="13.6416565"><ele>532.0</ele><time>2026-05-01T09:16:59.043Z</time></trkpt><trkpt lat="42.2039761" lon="13.6415266"><ele>534.0</ele><time>2026-05-01T09:17:00.042Z</time></trkpt><trkpt lat="42.2040743" lon="13.6413997"><ele>536.0</ele><time>2026-05-01T09:17:01.025Z</time></trkpt><trkpt lat="42.2041747" lon="13.6412844"><ele>538.0</ele><time>2026-05-01T09:17:02.026Z</time></trkpt><trkpt lat="42.2042719" lon="13.641175"><ele>536.4</ele><time>2026-05-01T09:17:03.039Z</time></trkpt><trkpt lat="42.2043556" lon="13.6410836"><ele>534.8</ele><time>2026-05-01T09:17:04.042Z</time></trkpt><trkpt lat="42.2044203" lon="13.6410147"><ele>533.2</ele><time>2026-05-01T09:17:05.049Z</time></trkpt><trkpt lat="42.2044786" lon="13.6409775"><ele>531.6</ele><time>2026-05-01T09:17:06.04Z</time></trkpt><trkpt lat="42.2045985" lon="13.6410339"><ele>530.0</ele><time>2026-05-01T09:17:08.04Z</time></trkpt><trkpt lat="42.2046067" lon="13.6411437"><ele>528.2</ele><time>2026-05-01T09:17:09.038Z</time></trkpt><trkpt lat="42.2045659" lon="13.6412336"><ele>526.4</ele><time>2026-05-01T09:17:10.037Z</time></trkpt><trkpt lat="42.2045016" lon="13.6413416"><ele>524.6</ele><time>2026-05-01T09:17:11.05Z</time></trkpt><trkpt lat="42.2044354" lon="13.6414623"><ele>522.8</ele><time>2026-05-01T09:17:12.037Z</time></trkpt><trkpt lat="42.2043689" lon="13.6416005"><ele>521.0</ele><time>2026-05-01T09:17:13.04Z</time></trkpt><trkpt lat="42.2042993" lon="13.6417526"><ele>521.0</ele><time>2026-05-01T09:17:14.062Z</time></trkpt><trkpt lat="42.2042186" lon="13.6419041"><ele>521.0</ele><time>2026-05-01T09:17:15.041Z</time></trkpt><trkpt lat="42.2041495" lon="13.6420439"><ele>521.0</ele><time>2026-05-01T09:17:16.062Z</time></trkpt><trkpt lat="42.2040899" lon="13.6421643"><ele>521.0</ele><time>2026-05-01T09:17:17.049Z</time></trkpt><trkpt lat="42.2040414" lon="13.6422619"><ele>519.5</ele><time>2026-05-01T09:17:18.038Z</time></trkpt><trkpt lat="42.2040092" lon="13.642352"><ele>518.0</ele><time>2026-05-01T09:17:19.028Z</time></trkpt><trkpt lat="42.2040077" lon="13.6424454"><ele>516.5</ele><time>2026-05-01T09:17:20.034Z</time></trkpt><trkpt lat="42.2040479" lon="13.6425248"><ele>515.0</ele><time>2026-05-01T09:17:21.034Z</time></trkpt><trkpt lat="42.204129" lon="13.642559"><ele>513.5</ele><time>2026-05-01T09:17:22.038Z</time></trkpt><trkpt lat="42.2042125" lon="13.6425421"><ele>512.0</ele><time>2026-05-01T09:17:23.034Z</time></trkpt><trkpt lat="42.2042952" lon="13.6424625"><ele>512.0</ele><time>2026-05-01T09:17:24.055Z</time></trkpt><trkpt lat="42.2043753" lon="13.642366"><ele>512.0</ele><time>2026-05-01T09:17:25.041Z</time></trkpt><trkpt lat="42.2044615" lon="13.6422668"><ele>512.0</ele><time>2026-05-01T09:17:26.048Z</time></trkpt><trkpt lat="42.204543" lon="13.6421751"><ele>512.0</ele><time>2026-05-01T09:17:27.043Z</time></trkpt><trkpt lat="42.2046236" lon="13.6420839"><ele>512.0</ele><time>2026-05-01T09:17:28.039Z</time></trkpt><trkpt lat="42.2047009" lon="13.6420038"><ele>511.3333333333333</ele><time>2026-05-01T09:17:29.035Z</time></trkpt><trkpt lat="42.2047726" lon="13.6419388"><ele>510.66666666666663</ele><time>2026-05-01T09:17:30.03Z</time></trkpt><trkpt lat="42.2048451" lon="13.6418995"><ele>510.0</ele><time>2026-05-01T09:17:31.037Z</time></trkpt><trkpt lat="42.2049172" lon="13.6418761"><ele>509.33333333333337</ele><time>2026-05-01T09:17:32.045Z</time></trkpt><trkpt lat="42.2049955" lon="13.6418841"><ele>508.6666666666667</ele><time>2026-05-01T09:17:33.034Z</time></trkpt><trkpt lat="42.2050679" lon="13.6418855"><ele>508.0</ele><time>2026-05-01T09:17:34.048Z</time></trkpt><trkpt lat="42.205139" lon="13.641869"><ele>508.00000000000006</ele><time>2026-05-01T09:17:35.042Z</time></trkpt><trkpt lat="42.205204" lon="13.6418155"><ele>508.0</ele><time>2026-05-01T09:17:36.036Z</time></trkpt><trkpt lat="42.205263" lon="13.6417288"><ele>508.0</ele><time>2026-05-01T09:17:37.042Z</time></trkpt><trkpt lat="42.2053045" lon="13.6416177"><ele>508.0</ele><time>2026-05-01T09:17:38.034Z</time></trkpt><trkpt lat="42.2053409" lon="13.6415007"><ele>508.00000000000006</ele><time>2026-05-01T09:17:39.029Z</time></trkpt><trkpt lat="42.2053776" lon="13.6413891"><ele>508.0</ele><time>2026-05-01T09:17:40.046Z</time></trkpt><trkpt lat="42.2054186" lon="13.6412769"><ele>508.00000000000006</ele><time>2026-05-01T09:17:41.041Z</time></trkpt><trkpt lat="42.205467" lon="13.64118"><ele>508.0</ele><time>2026-05-01T09:17:42.042Z</time></trkpt><trkpt lat="42.2055267" lon="13.6410977"><ele>508.0</ele><time>2026-05-01T09:17:43.048Z</time></trkpt><trkpt lat="42.2055992" lon="13.641033"><ele>508.0</ele><time>2026-05-01T09:17:44.035Z</time></trkpt><trkpt lat="42.2056768" lon="13.6409951"><ele>508.00000000000006</ele><time>2026-05-01T09:17:45.045Z</time></trkpt><trkpt lat="42.2057578" lon="13.640989"><ele>508.0</ele><time>2026-05-01T09:17:46.042Z</time></trkpt><trkpt lat="42.2058386" lon="13.6410152"><ele>507.83333333333337</ele><time>2026-05-01T09:17:47.057Z</time></trkpt><trkpt lat="42.2059143" lon="13.6410549"><ele>507.6666666666667</ele><time>2026-05-01T09:17:48.046Z</time></trkpt><trkpt lat="42.2059868" lon="13.6411065"><ele>507.5</ele><time>2026-05-01T09:17:49.041Z</time></trkpt><trkpt lat="42.2060658" lon="13.6411525"><ele>507.33333333333337</ele><time>2026-05-01T09:17:50.052Z</time></trkpt><trkpt lat="42.2061441" lon="13.6411933"><ele>507.1666666666667</ele><time>2026-05-01T09:17:51.04Z</time></trkpt><trkpt lat="42.2062201" lon="13.6412319"><ele>507.0</ele><time>2026-05-01T09:17:52.044Z</time></trkpt><trkpt lat="42.2063022" lon="13.6412478"><ele>506.6666666666667</ele><time>2026-05-01T09:17:53.041Z</time></trkpt><trkpt lat="42.2063844" lon="13.6412464"><ele>506.33333333333337</ele><time>2026-05-01T09:17:54.03Z</time></trkpt><trkpt lat="42.2064659" lon="13.6412343"><ele>506.0</ele><time>2026-05-01T09:17:55.04Z</time></trkpt><trkpt lat="42.2065472" lon="13.6412012"><ele>505.6666666666667</ele><time>2026-05-01T09:17:56.045Z</time></trkpt><trkpt lat="42.2066185" lon="13.6411388"><ele>505.33333333333337</ele><time>2026-05-01T09:17:57.048Z</time></trkpt><trkpt lat="42.2066741" lon="13.6410582"><ele>505.0</ele><time>2026-05-01T09:17:58.042Z</time></trkpt><trkpt lat="42.2067288" lon="13.6409651"><ele>506.25</ele><time>2026-05-01T09:17:59.04Z</time></trkpt><trkpt lat="42.2067867" lon="13.6408698"><ele>507.5</ele><time>2026-05-01T09:18:00.049Z</time></trkpt><trkpt lat="42.2068547" lon="13.6407605"><ele>508.75</ele><time>2026-05-01T09:18:01.05Z</time></trkpt><trkpt lat="42.2069328" lon="13.6406386"><ele>510.0</ele><time>2026-05-01T09:18:02.039Z</time></trkpt><trkpt lat="42.2070184" lon="13.6404993"><ele>510.0</ele><time>2026-05-01T09:18:03.035Z</time></trkpt><trkpt lat="42.2071059" lon="13.6403516"><ele>510.0</ele><time>2026-05-01T09:18:04.043Z</time></trkpt><trkpt lat="42.2071944" lon="13.6402025"><ele>510.0</ele><time>2026-05-01T09:18:05.042Z</time></trkpt><trkpt lat="42.2072939" lon="13.6400558"><ele>510.0</ele><time>2026-05-01T09:18:06.037Z</time></trkpt><trkpt lat="42.2073875" lon="13.6399128"><ele>511.4</ele><time>2026-05-01T09:18:07.043Z</time></trkpt><trkpt lat="42.2074648" lon="13.6397841"><ele>512.8</ele><time>2026-05-01T09:18:08.029Z</time></trkpt><trkpt lat="42.2075379" lon="13.6396743"><ele>514.2</ele><time>2026-05-01T09:18:09.054Z</time></trkpt><trkpt lat="42.2076032" lon="13.6395748"><ele>515.6</ele><time>2026-05-01T09:18:10.049Z</time></trkpt><trkpt lat="42.2076664" lon="13.6395045"><ele>517.0</ele><time>2026-05-01T09:18:11.045Z</time></trkpt><trkpt lat="42.20773" lon="13.6394819"><ele>517.0</ele><time>2026-05-01T09:18:12.037Z</time></trkpt><trkpt lat="42.207801" lon="13.6395965"><ele>517.0</ele><time>2026-05-01T09:18:14.047Z</time></trkpt><trkpt lat="42.2077877" lon="13.639689"><ele>517.0</ele><time>2026-05-01T09:18:15.031Z</time></trkpt><trkpt lat="42.2077425" lon="13.6397899"><ele>517.0</ele><time>2026-05-01T09:18:16.04Z</time></trkpt><trkpt lat="42.207671" lon="13.6399227"><ele>517.0</ele><time>2026-05-01T09:18:17.053Z</time></trkpt><trkpt lat="42.2075825" lon="13.6400568"><ele>517.0</ele><time>2026-05-01T09:18:18.038Z</time></trkpt><trkpt lat="42.2075223" lon="13.6402094"><ele>517.0</ele><time>2026-05-01T09:18:19.058Z</time></trkpt><trkpt lat="42.2074671" lon="13.640354"><ele>517.0</ele><time>2026-05-01T09:18:20.049Z</time></trkpt><trkpt lat="42.2074118" lon="13.6404964"><ele>517.0</ele><time>2026-05-01T09:18:21.057Z</time></trkpt><trkpt lat="42.2073583" lon="13.6406259"><ele>516.6666666666667</ele><time>2026-05-01T09:18:22.038Z</time></trkpt><trkpt lat="42.2073096" lon="13.6407455"><ele>516.3333333333334</ele><time>2026-05-01T09:18:23.052Z</time></trkpt><trkpt lat="42.2072575" lon="13.6408624"><ele>516.0</ele><time>2026-05-01T09:18:24.05Z</time></trkpt><trkpt lat="42.2072118" lon="13.6409698"><ele>515.6666666666666</ele><time>2026-05-01T09:18:25.041Z</time></trkpt><trkpt lat="42.2071807" lon="13.6410658"><ele>515.3333333333333</ele><time>2026-05-01T09:18:26.04Z</time></trkpt><trkpt lat="42.207155" lon="13.6411546"><ele>515.0</ele><time>2026-05-01T09:18:27.027Z</time></trkpt><trkpt lat="42.2071495" lon="13.6412428"><ele>515.0</ele><time>2026-05-01T09:18:28.042Z</time></trkpt><trkpt lat="42.2071745" lon="13.6413471"><ele>515.0</ele><time>2026-05-01T09:18:29.047Z</time></trkpt><trkpt lat="42.2072259" lon="13.6414564"><ele>515.0</ele><time>2026-05-01T09:18:30.059Z</time></trkpt><trkpt lat="42.2072984" lon="13.6415553"><ele>515.0</ele><time>2026-05-01T09:18:31.066Z</time></trkpt><trkpt lat="42.2073708" lon="13.6416514"><ele>515.0</ele><time>2026-05-01T09:18:32.042Z</time></trkpt><trkpt lat="42.2074222" lon="13.641757"><ele>516.6</ele><time>2026-05-01T09:18:33.041Z</time></trkpt><trkpt lat="42.2074351" lon="13.6418833"><ele>518.2</ele><time>2026-05-01T09:18:34.039Z</time></trkpt><trkpt lat="42.2074186" lon="13.6419953"><ele>519.8</ele><time>2026-05-01T09:18:35.047Z</time></trkpt><trkpt lat="42.2073726" lon="13.6421058"><ele>521.4</ele><time>2026-05-01T09:18:36.048Z</time></trkpt><trkpt lat="42.2073119" lon="13.6422139"><ele>523.0</ele><time>2026-05-01T09:18:37.05Z</time></trkpt><trkpt lat="42.2072441" lon="13.6423029"><ele>523.0</ele><time>2026-05-01T09:18:38.045Z</time></trkpt><trkpt lat="42.2071879" lon="13.6423744"><ele>523.0</ele><time>2026-05-01T09:18:39.04Z</time></trkpt><trkpt lat="42.2071269" lon="13.6424514"><ele>523.0</ele><time>2026-05-01T09:18:40.048Z</time></trkpt><trkpt lat="42.2070768" lon="13.6425231"><ele>523.0</ele><time>2026-05-01T09:18:41.051Z</time></trkpt><trkpt lat="42.2070302" lon="13.642607"><ele>523.0</ele><time>2026-05-01T09:18:42.046Z</time></trkpt><trkpt lat="42.2069997" lon="13.6427068"><ele>523.0</ele><time>2026-05-01T09:18:43.044Z</time></trkpt><trkpt lat="42.2070005" lon="13.642825"><ele>523.1999999999999</ele><time>2026-05-01T09:18:44.059Z</time></trkpt><trkpt lat="42.2070414" lon="13.6429516"><ele>523.4</ele><time>2026-05-01T09:18:45.065Z</time></trkpt><trkpt lat="42.2071063" lon="13.6430746"><ele>523.5999999999999</ele><time>2026-05-01T09:18:46.052Z</time></trkpt><trkpt lat="42.2071759" lon="13.6431878"><ele>523.8</ele><time>2026-05-01T09:18:47.043Z</time></trkpt><trkpt lat="42.207246" lon="13.6433079"><ele>524.0</ele><time>2026-05-01T09:18:48.051Z</time></trkpt><trkpt lat="42.2073164" lon="13.6434379"><ele>528.25</ele><time>2026-05-01T09:18:49.052Z</time></trkpt><trkpt lat="42.2073831" lon="13.6435822"><ele>532.5</ele><time>2026-05-01T09:18:50.057Z</time></trkpt><trkpt lat="42.2074325" lon="13.6437422"><ele>536.75</ele><time>2026-05-01T09:18:51.092Z</time></trkpt><trkpt lat="42.2074729" lon="13.6439178"><ele>541.0</ele><time>2026-05-01T09:18:52.045Z</time></trkpt><trkpt lat="42.2075" lon="13.644089"><ele>541.25</ele><time>2026-05-01T09:18:53.052Z</time></trkpt><trkpt lat="42.2075232" lon="13.6442672"><ele>541.5</ele><time>2026-05-01T09:18:54.041Z</time></trkpt><trkpt lat="42.2075468" lon="13.6444529"><ele>541.75</ele><time>2026-05-01T09:18:55.051Z</time></trkpt><trkpt lat="42.2075661" lon="13.6446353"><ele>542.0</ele><time>2026-05-01T09:18:56.06Z</time></trkpt><trkpt lat="42.2075642" lon="13.6448255"><ele>542.0</ele><time>2026-05-01T09:18:57.056Z</time></trkpt><trkpt lat="42.2075428" lon="13.6450234"><ele>542.0</ele><time>2026-05-01T09:18:58.047Z</time></trkpt><trkpt lat="42.2075022" lon="13.6452225"><ele>542.0</ele><time>2026-05-01T09:18:59.046Z</time></trkpt><trkpt lat="42.2074537" lon="13.645409"><ele>542.0</ele><time>2026-05-01T09:19:00.078Z</time></trkpt><trkpt lat="42.2074084" lon="13.6455704"><ele>542.8333333333333</ele><time>2026-05-01T09:19:01.057Z</time></trkpt><trkpt lat="42.2073679" lon="13.6457038"><ele>543.6666666666666</ele><time>2026-05-01T09:19:02.063Z</time></trkpt><trkpt lat="42.2073419" lon="13.6458097"><ele>544.5</ele><time>2026-05-01T09:19:03.044Z</time></trkpt><trkpt lat="42.2073419" lon="13.6459026"><ele>545.3333333333334</ele><time>2026-05-01T09:19:04.046Z</time></trkpt><trkpt lat="42.2073706" lon="13.6459907"><ele>546.1666666666667</ele><time>2026-05-01T09:19:05.046Z</time></trkpt><trkpt lat="42.2074411" lon="13.6460224"><ele>547.0</ele><time>2026-05-01T09:19:06.062Z</time></trkpt><trkpt lat="42.2075082" lon="13.6459829"><ele>547.0</ele><time>2026-05-01T09:19:07.053Z</time></trkpt><trkpt lat="42.2075657" lon="13.6458853"><ele>547.0</ele><time>2026-05-01T09:19:08.065Z</time></trkpt><trkpt lat="42.2076" lon="13.6457441"><ele>547.0</ele><time>2026-05-01T09:19:09.048Z</time></trkpt><trkpt lat="42.2075869" lon="13.6456074"><ele>547.0</ele><time>2026-05-01T09:19:10.045Z</time></trkpt><trkpt lat="42.2075988" lon="13.6454831"><ele>547.0</ele><time>2026-05-01T09:19:11.042Z</time></trkpt><trkpt lat="42.2076777" lon="13.6453458"><ele>545.75</ele><time>2026-05-01T09:19:12.046Z</time></trkpt><trkpt lat="42.2077471" lon="13.645201"><ele>544.5</ele><time>2026-05-01T09:19:13.061Z</time></trkpt><trkpt lat="42.2078114" lon="13.6450516"><ele>543.25</ele><time>2026-05-01T09:19:14.055Z</time></trkpt><trkpt lat="42.2078665" lon="13.6449042"><ele>542.0</ele><time>2026-05-01T09:19:15.053Z</time></trkpt><trkpt lat="42.2079072" lon="13.6447521"><ele>542.0</ele><time>2026-05-01T09:19:16.044Z</time></trkpt><trkpt lat="42.2079409" lon="13.6445931"><ele>542.0</ele><time>2026-05-01T09:19:17.047Z</time></trkpt><trkpt lat="42.2079677" lon="13.6444347"><ele>542.0</ele><time>2026-05-01T09:19:18.068Z</time></trkpt><trkpt lat="42.2079966" lon="13.6442734"><ele>542.0</ele><time>2026-05-01T09:19:19.039Z</time></trkpt><trkpt lat="42.208026" lon="13.6441155"><ele>542.0</ele><time>2026-05-01T09:19:20.045Z</time></trkpt><trkpt lat="42.2080541" lon="13.6439648"><ele>542.0</ele><time>2026-05-01T09:19:21.025Z</time></trkpt><trkpt lat="42.2080807" lon="13.6438137"><ele>542.0</ele><time>2026-05-01T09:19:22.051Z</time></trkpt><trkpt lat="42.2081031" lon="13.6436728"><ele>542.0</ele><time>2026-05-01T09:19:23.051Z</time></trkpt><trkpt lat="42.208127" lon="13.6435512"><ele>542.0</ele><time>2026-05-01T09:19:24.062Z</time></trkpt><trkpt lat="42.208158" lon="13.6434447"><ele>544.7142857142857</ele><time>2026-05-01T09:19:25.042Z</time></trkpt><trkpt lat="42.2081982" lon="13.6433571"><ele>547.4285714285714</ele><time>2026-05-01T09:19:26.06Z</time></trkpt><trkpt lat="42.2082455" lon="13.6432972"><ele>550.1428571428571</ele><time>2026-05-01T09:19:27.046Z</time></trkpt><trkpt lat="42.208303" lon="13.6432473"><ele>552.8571428571429</ele><time>2026-05-01T09:19:28.046Z</time></trkpt><trkpt lat="42.208369" lon="13.643209"><ele>555.5714285714286</ele><time>2026-05-01T09:19:29.045Z</time></trkpt><trkpt lat="42.2084436" lon="13.6431784"><ele>558.2857142857142</ele><time>2026-05-01T09:19:30.07Z</time></trkpt><trkpt lat="42.208523" lon="13.6431598"><ele>561.0</ele><time>2026-05-01T09:19:31.065Z</time></trkpt><trkpt lat="42.2086062" lon="13.6431561"><ele>561.0</ele><time>2026-05-01T09:19:32.06Z</time></trkpt><trkpt lat="42.2086961" lon="13.6431764"><ele>561.0</ele><time>2026-05-01T09:19:33.045Z</time></trkpt><trkpt lat="42.2087876" lon="13.6432251"><ele>561.0</ele><time>2026-05-01T09:19:34.036Z</time></trkpt><trkpt lat="42.2088733" lon="13.6432929"><ele>561.0</ele><time>2026-05-01T09:19:35.036Z</time></trkpt><trkpt lat="42.2089599" lon="13.6433799"><ele>561.0</ele><time>2026-05-01T09:19:36.055Z</time></trkpt><trkpt lat="42.2090449" lon="13.6434703"><ele>561.4</ele><time>2026-05-01T09:19:37.062Z</time></trkpt><trkpt lat="42.2091325" lon="13.6435603"><ele>561.8</ele><time>2026-05-01T09:19:38.032Z</time></trkpt><trkpt lat="42.2092122" lon="13.6436473"><ele>562.1999999999999</ele><time>2026-05-01T09:19:39.061Z</time></trkpt><trkpt lat="42.2092884" lon="13.6437309"><ele>562.6</ele><time>2026-05-01T09:19:40.06Z</time></trkpt><trkpt lat="42.209362" lon="13.643813"><ele>563.0</ele><time>2026-05-01T09:19:41.05Z</time></trkpt><trkpt lat="42.2094305" lon="13.6438902"><ele>564.6666666666666</ele><time>2026-05-01T09:19:42.046Z</time></trkpt><trkpt lat="42.2094865" lon="13.6439715"><ele>566.3333333333333</ele><time>2026-05-01T09:19:43.044Z</time></trkpt><trkpt lat="42.2095125" lon="13.6440623"><ele>568.0</ele><time>2026-05-01T09:19:44.054Z</time></trkpt><trkpt lat="42.2094973" lon="13.6441476"><ele>569.6666666666666</ele><time>2026-05-01T09:19:45.044Z</time></trkpt><trkpt lat="42.2094481" lon="13.6442145"><ele>571.3333333333334</ele><time>2026-05-01T09:19:46.041Z</time></trkpt><trkpt lat="42.2093892" lon="13.644274"><ele>573.0</ele><time>2026-05-01T09:19:47.049Z</time></trkpt><trkpt lat="42.2093245" lon="13.6443752"><ele>573.0</ele><time>2026-05-01T09:19:49.054Z</time></trkpt><trkpt lat="42.2092623" lon="13.6444196"><ele>573.0</ele><time>2026-05-01T09:22:09.043Z</time></trkpt><trkpt lat="42.2091987" lon="13.6443533"><ele>573.0</ele><time>2026-05-01T09:22:13.035Z</time></trkpt><trkpt lat="42.2091275" lon="13.6442997"><ele>573.0</ele><time>2026-05-01T09:22:16.037Z</time></trkpt><trkpt lat="42.2090601" lon="13.6442465"><ele>573.0</ele><time>2026-05-01T09:22:19.039Z</time></trkpt><trkpt lat="42.2089915" lon="13.6441826"><ele>573.0</ele><time>2026-05-01T09:22:22.042Z</time></trkpt><trkpt lat="42.2089276" lon="13.6441614"><ele>572.1666666666666</ele><time>2026-05-01T09:22:26.039Z</time></trkpt><trkpt lat="42.2088497" lon="13.6441253"><ele>571.3333333333334</ele><time>2026-05-01T09:22:30.04Z</time></trkpt><trkpt lat="42.2087839" lon="13.6440932"><ele>570.5</ele><time>2026-05-01T09:22:32.034Z</time></trkpt><trkpt lat="42.2087037" lon="13.644058"><ele>569.6666666666667</ele><time>2026-05-01T09:22:34.035Z</time></trkpt><trkpt lat="42.2086312" lon="13.644014"><ele>568.8333333333334</ele><time>2026-05-01T09:22:37.036Z</time></trkpt><trkpt lat="42.2085743" lon="13.6439558"><ele>568.0</ele><time>2026-05-01T09:22:40.053Z</time></trkpt><trkpt lat="42.2085107" lon="13.6438964"><ele>568.0</ele><time>2026-05-01T09:22:43.039Z</time></trkpt><trkpt lat="42.208442" lon="13.6438345"><ele>568.0</ele><time>2026-05-01T09:22:46.036Z</time></trkpt><trkpt lat="42.2084012" lon="13.6437511"><ele>568.0</ele><time>2026-05-01T09:22:49.045Z</time></trkpt><trkpt lat="42.2084353" lon="13.6436517"><ele>568.0</ele><time>2026-05-01T09:22:51.042Z</time></trkpt><trkpt lat="42.2084406" lon="13.6435234"><ele>568.0</ele><time>2026-05-01T09:22:54.037Z</time></trkpt><trkpt lat="42.2083884" lon="13.6434443"><ele>568.0</ele><time>2026-05-01T09:22:56.041Z</time></trkpt><trkpt lat="42.2083307" lon="13.6434089"><ele>566.8333333333334</ele><time>2026-05-01T09:22:59.041Z</time></trkpt><trkpt lat="42.208306" lon="13.6433186"><ele>565.6666666666667</ele><time>2026-05-01T09:24:15.056Z</time></trkpt><trkpt lat="42.2082077" lon="13.6433459"><ele>564.5</ele><time>2026-05-01T09:24:22.043Z</time></trkpt><trkpt lat="42.2081692" lon="13.643428"><ele>563.3333333333334</ele><time>2026-05-01T09:24:23.041Z</time></trkpt><trkpt lat="42.2081414" lon="13.6435245"><ele>562.1666666666666</ele><time>2026-05-01T09:24:24.053Z</time></trkpt><trkpt lat="42.208108" lon="13.6436315"><ele>561.0</ele><time>2026-05-01T09:24:25.057Z</time></trkpt><trkpt lat="42.2080869" lon="13.6437529"><ele>557.2</ele><time>2026-05-01T09:24:26.058Z</time></trkpt><trkpt lat="42.2080606" lon="13.6438806"><ele>553.4000000000001</ele><time>2026-05-01T09:24:27.044Z</time></trkpt><trkpt lat="42.2080372" lon="13.6440176"><ele>549.6</ele><time>2026-05-01T09:24:28.041Z</time></trkpt><trkpt lat="42.2080145" lon="13.64416"><ele>545.8000000000001</ele><time>2026-05-01T09:24:29.05Z</time></trkpt><trkpt lat="42.207987" lon="13.6443029"><ele>542.0</ele><time>2026-05-01T09:24:30.043Z</time></trkpt><trkpt lat="42.2079644" lon="13.6444383"><ele>542.0</ele><time>2026-05-01T09:24:31.057Z</time></trkpt><trkpt lat="42.2079402" lon="13.644578"><ele>542.0</ele><time>2026-05-01T09:24:32.056Z</time></trkpt><trkpt lat="42.2079168" lon="13.6447182"><ele>542.0</ele><time>2026-05-01T09:24:33.055Z</time></trkpt><trkpt lat="42.2078861" lon="13.6448644"><ele>542.0</ele><time>2026-05-01T09:24:34.074Z</time></trkpt><trkpt lat="42.2078441" lon="13.6450184"><ele>542.0</ele><time>2026-05-01T09:24:35.045Z</time></trkpt><trkpt lat="42.207795" lon="13.645179"><ele>543.25</ele><time>2026-05-01T09:24:36.045Z</time></trkpt><trkpt lat="42.2077415" lon="13.6453427"><ele>544.5</ele><time>2026-05-01T09:24:37.048Z</time></trkpt><trkpt lat="42.2076829" lon="13.6454969"><ele>545.75</ele><time>2026-05-01T09:24:38.05Z</time></trkpt><trkpt lat="42.2076257" lon="13.645638"><ele>547.0</ele><time>2026-05-01T09:24:39.042Z</time></trkpt><trkpt lat="42.2075755" lon="13.6457656"><ele>547.0</ele><time>2026-05-01T09:24:40.038Z</time></trkpt><trkpt lat="42.207533" lon="13.6458727"><ele>547.0</ele><time>2026-05-01T09:24:41.055Z</time></trkpt><trkpt lat="42.2074887" lon="13.6459373"><ele>547.0</ele><time>2026-05-01T09:24:42.048Z</time></trkpt><trkpt lat="42.2073839" lon="13.6459582"><ele>547.0</ele><time>2026-05-01T09:24:44.044Z</time></trkpt><trkpt lat="42.2073497" lon="13.6458833"><ele>547.0</ele><time>2026-05-01T09:24:45.046Z</time></trkpt><trkpt lat="42.2073593" lon="13.6457966"><ele>547.0</ele><time>2026-05-01T09:24:46.056Z</time></trkpt><trkpt lat="42.2073953" lon="13.6456907"><ele>547.0</ele><time>2026-05-01T09:24:47.045Z</time></trkpt><trkpt lat="42.2074458" lon="13.6455678"><ele>547.0</ele><time>2026-05-01T09:24:48.055Z</time></trkpt><trkpt lat="42.2074926" lon="13.6454281"><ele>547.0</ele><time>2026-05-01T09:24:49.045Z</time></trkpt><trkpt lat="42.2075322" lon="13.6452805"><ele>547.0</ele><time>2026-05-01T09:24:50.071Z</time></trkpt><trkpt lat="42.2075667" lon="13.6451371"><ele>547.0</ele><time>2026-05-01T09:24:51.055Z</time></trkpt><trkpt lat="42.2075915" lon="13.6449858"><ele>545.75</ele><time>2026-05-01T09:24:52.046Z</time></trkpt><trkpt lat="42.2076045" lon="13.6448223"><ele>544.5</ele><time>2026-05-01T09:24:53.056Z</time></trkpt><trkpt lat="42.2076032" lon="13.6446499"><ele>543.25</ele><time>2026-05-01T09:24:54.047Z</time></trkpt><trkpt lat="42.207587" lon="13.6444745"><ele>542.0</ele><time>2026-05-01T09:24:55.073Z</time></trkpt><trkpt lat="42.2075634" lon="13.6443028"><ele>542.0</ele><time>2026-05-01T09:24:56.043Z</time></trkpt><trkpt lat="42.2075476" lon="13.6441404"><ele>542.0</ele><time>2026-05-01T09:24:57.052Z</time></trkpt><trkpt lat="42.2075316" lon="13.6439865"><ele>542.0</ele><time>2026-05-01T09:24:58.051Z</time></trkpt><trkpt lat="42.2075087" lon="13.6438333"><ele>542.0</ele><time>2026-05-01T09:24:59.045Z</time></trkpt><trkpt lat="42.207468" lon="13.6436785"><ele>541.8000000000001</ele><time>2026-05-01T09:25:00.052Z</time></trkpt><trkpt lat="42.2074227" lon="13.6435495"><ele>541.6</ele><time>2026-05-01T09:25:01.051Z</time></trkpt><trkpt lat="42.2073777" lon="13.6434516"><ele>541.4000000000001</ele><time>2026-05-01T09:25:02.048Z</time></trkpt><trkpt lat="42.2073254" lon="13.6433515"><ele>541.2</ele><time>2026-05-01T09:25:04.073Z</time></trkpt><trkpt lat="42.2072587" lon="13.6432305"><ele>541.0</ele><time>2026-05-01T09:25:13.048Z</time></trkpt><trkpt lat="42.207216" lon="13.6431483"><ele>538.1666666666667</ele><time>2026-05-01T09:25:14.046Z</time></trkpt><trkpt lat="42.2071623" lon="13.6430605"><ele>535.3333333333334</ele><time>2026-05-01T09:25:15.053Z</time></trkpt><trkpt lat="42.2071092" lon="13.6429701"><ele>532.5</ele><time>2026-05-01T09:25:16.045Z</time></trkpt><trkpt lat="42.2070677" lon="13.6428697"><ele>529.6666666666666</ele><time>2026-05-01T09:25:17.045Z</time></trkpt><trkpt lat="42.2070484" lon="13.6427535"><ele>526.8333333333333</ele><time>2026-05-01T09:25:18.054Z</time></trkpt><trkpt lat="42.2070647" lon="13.6426328"><ele>524.0</ele><time>2026-05-01T09:25:19.059Z</time></trkpt><trkpt lat="42.207118" lon="13.6425185"><ele>523.8</ele><time>2026-05-01T09:25:20.054Z</time></trkpt><trkpt lat="42.207196" lon="13.6424195"><ele>523.5999999999999</ele><time>2026-05-01T09:25:21.051Z</time></trkpt><trkpt lat="42.2072758" lon="13.642318"><ele>523.4</ele><time>2026-05-01T09:25:22.055Z</time></trkpt><trkpt lat="42.2073547" lon="13.6422202"><ele>523.1999999999999</ele><time>2026-05-01T09:25:23.051Z</time></trkpt><trkpt lat="42.2074205" lon="13.6421187"><ele>523.0</ele><time>2026-05-01T09:25:24.049Z</time></trkpt><trkpt lat="42.2074623" lon="13.6420062"><ele>524.1999999999999</ele><time>2026-05-01T09:25:25.047Z</time></trkpt><trkpt lat="42.2074781" lon="13.6418798"><ele>525.4</ele><time>2026-05-01T09:25:26.054Z</time></trkpt><trkpt lat="42.2074639" lon="13.6417507"><ele>526.5999999999999</ele><time>2026-05-01T09:25:27.056Z</time></trkpt><trkpt lat="42.207412" lon="13.6416374"><ele>527.8</ele><time>2026-05-01T09:25:28.047Z</time></trkpt><trkpt lat="42.2073383" lon="13.6415453"><ele>529.0</ele><time>2026-05-01T09:25:29.05Z</time></trkpt><trkpt lat="42.207261" lon="13.6414554"><ele>528.2</ele><time>2026-05-01T09:25:30.062Z</time></trkpt><trkpt lat="42.2072098" lon="13.641346"><ele>527.4</ele><time>2026-05-01T09:25:31.046Z</time></trkpt><trkpt lat="42.2071928" lon="13.641217"><ele>526.6</ele><time>2026-05-01T09:25:32.057Z</time></trkpt><trkpt lat="42.207218" lon="13.6410792"><ele>525.8</ele><time>2026-05-01T09:25:33.053Z</time></trkpt><trkpt lat="42.2072729" lon="13.6409306"><ele>525.0</ele><time>2026-05-01T09:25:34.045Z</time></trkpt><trkpt lat="42.2073406" lon="13.6407778"><ele>525.0</ele><time>2026-05-01T09:25:35.059Z</time></trkpt><trkpt lat="42.2074093" lon="13.6406131"><ele>525.0</ele><time>2026-05-01T09:25:36.04Z</time></trkpt><trkpt lat="42.2074812" lon="13.6404498"><ele>525.0</ele><time>2026-05-01T09:25:37.045Z</time></trkpt><trkpt lat="42.2075537" lon="13.6402843"><ele>525.0</ele><time>2026-05-01T09:25:38.039Z</time></trkpt><trkpt lat="42.2076232" lon="13.6401222"><ele>523.4</ele><time>2026-05-01T09:25:39.049Z</time></trkpt><trkpt lat="42.2076872" lon="13.6399751"><ele>521.8</ele><time>2026-05-01T09:25:40.041Z</time></trkpt><trkpt lat="42.2077445" lon="13.6398503"><ele>520.2</ele><time>2026-05-01T09:25:41.046Z</time></trkpt><trkpt lat="42.2077905" lon="13.6397406"><ele>518.6</ele><time>2026-05-01T09:25:42.033Z</time></trkpt><trkpt lat="42.2078281" lon="13.6396554"><ele>517.0</ele><time>2026-05-01T09:25:43.043Z</time></trkpt><trkpt lat="42.2078389" lon="13.639571"><ele>517.0</ele><time>2026-05-01T09:25:44.047Z</time></trkpt><trkpt lat="42.2077602" lon="13.63946"><ele>517.0</ele><time>2026-05-01T09:25:46.084Z</time></trkpt><trkpt lat="42.2076844" lon="13.6394761"><ele>517.0</ele><time>2026-05-01T09:25:47.043Z</time></trkpt><trkpt lat="42.2076096" lon="13.6395565"><ele>517.0</ele><time>2026-05-01T09:25:48.046Z</time></trkpt><trkpt lat="42.2075375" lon="13.639674"><ele>517.0</ele><time>2026-05-01T09:25:49.052Z</time></trkpt><trkpt lat="42.2074641" lon="13.6397935"><ele>517.0</ele><time>2026-05-01T09:25:50.034Z</time></trkpt><trkpt lat="42.2073773" lon="13.639921"><ele>517.0</ele><time>2026-05-01T09:25:51.047Z</time></trkpt><trkpt lat="42.2072875" lon="13.6400621"><ele>517.0</ele><time>2026-05-01T09:25:52.041Z</time></trkpt><trkpt lat="42.2071977" lon="13.6401976"><ele>517.0</ele><time>2026-05-01T09:25:53.038Z</time></trkpt><trkpt lat="42.2071018" lon="13.6403409"><ele>515.25</ele><time>2026-05-01T09:25:54.037Z</time></trkpt><trkpt lat="42.2070081" lon="13.6404806"><ele>513.5</ele><time>2026-05-01T09:25:55.041Z</time></trkpt><trkpt lat="42.206919" lon="13.640623"><ele>511.75</ele><time>2026-05-01T09:25:56.045Z</time></trkpt><trkpt lat="42.2068345" lon="13.6407641"><ele>510.0</ele><time>2026-05-01T09:25:57.047Z</time></trkpt><trkpt lat="42.2067508" lon="13.6408952"><ele>510.0</ele><time>2026-05-01T09:25:58.045Z</time></trkpt><trkpt lat="42.2066719" lon="13.6410161"><ele>510.0</ele><time>2026-05-01T09:25:59.043Z</time></trkpt><trkpt lat="42.2065875" lon="13.6411194"><ele>510.0</ele><time>2026-05-01T09:26:00.036Z</time></trkpt><trkpt lat="42.2064965" lon="13.6411964"><ele>510.0</ele><time>2026-05-01T09:26:01.046Z</time></trkpt><trkpt lat="42.2063993" lon="13.6412272"><ele>510.0</ele><time>2026-05-01T09:26:02.045Z</time></trkpt><trkpt lat="42.2062968" lon="13.6412229"><ele>509.4</ele><time>2026-05-01T09:26:03.047Z</time></trkpt><trkpt lat="42.2061853" lon="13.6411914"><ele>508.8</ele><time>2026-05-01T09:26:04.043Z</time></trkpt><trkpt lat="42.2060844" lon="13.6411312"><ele>508.20000000000005</ele><time>2026-05-01T09:26:05.043Z</time></trkpt><trkpt lat="42.2059941" lon="13.6410675"><ele>507.6</ele><time>2026-05-01T09:26:06.042Z</time></trkpt><trkpt lat="42.2059039" lon="13.6410012"><ele>507.0</ele><time>2026-05-01T09:26:07.044Z</time></trkpt><trkpt lat="42.2058118" lon="13.6409523"><ele>507.0</ele><time>2026-05-01T09:26:08.053Z</time></trkpt><trkpt lat="42.205715" lon="13.6409361"><ele>507.00000000000006</ele><time>2026-05-01T09:26:09.039Z</time></trkpt><trkpt lat="42.2056158" lon="13.6409794"><ele>507.00000000000006</ele><time>2026-05-01T09:26:10.05Z</time></trkpt><trkpt lat="42.2055205" lon="13.6410654"><ele>507.0</ele><time>2026-05-01T09:26:11.048Z</time></trkpt><trkpt lat="42.205436" lon="13.6411936"><ele>507.0</ele><time>2026-05-01T09:26:12.057Z</time></trkpt><trkpt lat="42.2053699" lon="13.6413407"><ele>507.20000000000005</ele><time>2026-05-01T09:26:13.045Z</time></trkpt><trkpt lat="42.2053298" lon="13.6414725"><ele>507.40000000000003</ele><time>2026-05-01T09:26:14.038Z</time></trkpt><trkpt lat="42.2052906" lon="13.6415944"><ele>507.59999999999997</ele><time>2026-05-01T09:26:15.048Z</time></trkpt><trkpt lat="42.2052413" lon="13.6417"><ele>507.79999999999995</ele><time>2026-05-01T09:26:16.043Z</time></trkpt><trkpt lat="42.2051873" lon="13.641778"><ele>508.0</ele><time>2026-05-01T09:26:17.043Z</time></trkpt><trkpt lat="42.2051243" lon="13.641837"><ele>508.0</ele><time>2026-05-01T09:26:18.042Z</time></trkpt><trkpt lat="42.2050526" lon="13.6418541"><ele>507.99999999999994</ele><time>2026-05-01T09:26:19.037Z</time></trkpt><trkpt lat="42.2049743" lon="13.6418527"><ele>507.99999999999994</ele><time>2026-05-01T09:26:20.047Z</time></trkpt><trkpt lat="42.2048813" lon="13.6418572"><ele>508.0</ele><time>2026-05-01T09:26:21.047Z</time></trkpt><trkpt lat="42.2047828" lon="13.6418955"><ele>508.0</ele><time>2026-05-01T09:26:22.048Z</time></trkpt><trkpt lat="42.2046902" lon="13.6419849"><ele>509.0</ele><time>2026-05-01T09:26:23.047Z</time></trkpt><trkpt lat="42.2045972" lon="13.6420952"><ele>510.0</ele><time>2026-05-01T09:26:24.042Z</time></trkpt><trkpt lat="42.2045028" lon="13.6422063"><ele>511.0</ele><time>2026-05-01T09:26:25.048Z</time></trkpt><trkpt lat="42.2043996" lon="13.642307"><ele>512.0</ele><time>2026-05-01T09:26:26.066Z</time></trkpt><trkpt lat="42.2043049" lon="13.6423919"><ele>512.0</ele><time>2026-05-01T09:26:27.048Z</time></trkpt><trkpt lat="42.2042215" lon="13.6424697"><ele>512.0</ele><time>2026-05-01T09:26:28.056Z</time></trkpt><trkpt lat="42.2041543" lon="13.6425159"><ele>512.0</ele><time>2026-05-01T09:26:29.043Z</time></trkpt><trkpt lat="42.20406" lon="13.6424156"><ele>512.0</ele><time>2026-05-01T09:26:31.047Z</time></trkpt><trkpt lat="42.2040697" lon="13.6423143"><ele>512.0</ele><time>2026-05-01T09:26:32.05Z</time></trkpt><trkpt lat="42.2041038" lon="13.6422206"><ele>512.0</ele><time>2026-05-01T09:26:33.039Z</time></trkpt><trkpt lat="42.2041587" lon="13.642109"><ele>512.0</ele><time>2026-05-01T09:26:34.039Z</time></trkpt><trkpt lat="42.2042343" lon="13.6419564"><ele>512.0</ele><time>2026-05-01T09:26:35.032Z</time></trkpt><trkpt lat="42.2043195" lon="13.6417964"><ele>512.0</ele><time>2026-05-01T09:26:36.048Z</time></trkpt><trkpt lat="42.2044062" lon="13.641638"><ele>513.8000000000001</ele><time>2026-05-01T09:26:37.046Z</time></trkpt><trkpt lat="42.2044742" lon="13.6415025"><ele>515.6</ele><time>2026-05-01T09:26:38.049Z</time></trkpt><trkpt lat="42.2045332" lon="13.6413805"><ele>517.4000000000001</ele><time>2026-05-01T09:26:39.051Z</time></trkpt><trkpt lat="42.204588" lon="13.6412755"><ele>519.2</ele><time>2026-05-01T09:26:40.033Z</time></trkpt><trkpt lat="42.2046276" lon="13.6411843"><ele>521.0</ele><time>2026-05-01T09:26:41.053Z</time></trkpt><trkpt lat="42.2046369" lon="13.6410821"><ele>521.0</ele><time>2026-05-01T09:26:42.045Z</time></trkpt><trkpt lat="42.2046038" lon="13.6409867"><ele>521.0</ele><time>2026-05-01T09:26:43.051Z</time></trkpt><trkpt lat="42.2045355" lon="13.6409384"><ele>521.0</ele><time>2026-05-01T09:26:44.098Z</time></trkpt><trkpt lat="42.2044523" lon="13.6409502"><ele>521.0</ele><time>2026-05-01T09:26:45.051Z</time></trkpt><trkpt lat="42.2043648" lon="13.6410355"><ele>521.0</ele><time>2026-05-01T09:26:46.041Z</time></trkpt><trkpt lat="42.2042595" lon="13.6411623"><ele>521.0</ele><time>2026-05-01T09:26:47.041Z</time></trkpt><trkpt lat="42.2041336" lon="13.6412928"><ele>521.0</ele><time>2026-05-01T09:26:48.041Z</time></trkpt><trkpt lat="42.2040001" lon="13.641458"><ele>521.0</ele><time>2026-05-01T09:26:49.041Z</time></trkpt><trkpt lat="42.2038762" lon="13.6416346"><ele>523.25</ele><time>2026-05-01T09:26:50.047Z</time></trkpt><trkpt lat="42.2037701" lon="13.6417989"><ele>525.5</ele><time>2026-05-01T09:26:51.048Z</time></trkpt><trkpt lat="42.2036767" lon="13.6419514"><ele>527.75</ele><time>2026-05-01T09:26:52.039Z</time></trkpt><trkpt lat="42.2035908" lon="13.6420957"><ele>530.0</ele><time>2026-05-01T09:26:53.043Z</time></trkpt><trkpt lat="42.2035168" lon="13.6422087"><ele>530.0</ele><time>2026-05-01T09:26:54.049Z</time></trkpt><trkpt lat="42.2034525" lon="13.6422759"><ele>530.0</ele><time>2026-05-01T09:26:55.04Z</time></trkpt><trkpt lat="42.2033807" lon="13.6422967"><ele>530.0</ele><time>2026-05-01T09:26:56.043Z</time></trkpt><trkpt lat="42.2033177" lon="13.6422574"><ele>530.0</ele><time>2026-05-01T09:26:57.051Z</time></trkpt><trkpt lat="42.2032881" lon="13.6421652"><ele>530.0</ele><time>2026-05-01T09:26:58.043Z</time></trkpt><trkpt lat="42.2033071" lon="13.6420674"><ele>530.0</ele><time>2026-05-01T09:26:59.042Z</time></trkpt><trkpt lat="42.2033591" lon="13.6419558"><ele>532.0</ele><time>2026-05-01T09:27:00.042Z</time></trkpt><trkpt lat="42.203434" lon="13.6418225"><ele>534.0</ele><time>2026-05-01T09:27:01.045Z</time></trkpt><trkpt lat="42.2035092" lon="13.6416772"><ele>536.0</ele><time>2026-05-01T09:27:02.04Z</time></trkpt><trkpt lat="42.2035735" lon="13.6415456"><ele>538.0</ele><time>2026-05-01T09:27:03.036Z</time></trkpt><trkpt lat="42.2036179" lon="13.6414431"><ele>538.0</ele><time>2026-05-01T09:27:04.053Z</time></trkpt><trkpt lat="42.2036204" lon="13.641341"><ele>538.0</ele><time>2026-05-01T09:27:05.051Z</time></trkpt><trkpt lat="42.2035762" lon="13.6412592"><ele>538.0</ele><time>2026-05-01T09:27:06.041Z</time></trkpt><trkpt lat="42.2035044" lon="13.6412241"><ele>538.0</ele><time>2026-05-01T09:27:07.044Z</time></trkpt><trkpt lat="42.2034362" lon="13.6412531"><ele>538.0</ele><time>2026-05-01T09:27:08.037Z</time></trkpt><trkpt lat="42.2033751" lon="13.6413631"><ele>538.0</ele><time>2026-05-01T09:27:09.039Z</time></trkpt><trkpt lat="42.2033107" lon="13.6415018"><ele>538.0</ele><time>2026-05-01T09:27:10.042Z</time></trkpt><trkpt lat="42.2032411" lon="13.6416522"><ele>538.0</ele><time>2026-05-01T09:27:11.041Z</time></trkpt><trkpt lat="42.2031687" lon="13.6417993"><ele>538.0</ele><time>2026-05-01T09:27:12.033Z</time></trkpt><trkpt lat="42.2030815" lon="13.6419347"><ele>538.0</ele><time>2026-05-01T09:27:13.041Z</time></trkpt><trkpt lat="42.2030053" lon="13.6420676"><ele>539.6</ele><time>2026-05-01T09:27:14.035Z</time></trkpt><trkpt lat="42.2029256" lon="13.6421848"><ele>541.1999999999999</ele><time>2026-05-01T09:27:15.037Z</time></trkpt><trkpt lat="42.2028562" lon="13.6422726"><ele>542.8</ele><time>2026-05-01T09:27:16.035Z</time></trkpt><trkpt lat="42.2027821" lon="13.6423204"><ele>544.4</ele><time>2026-05-01T09:27:17.04Z</time></trkpt><trkpt lat="42.2027094" lon="13.6423085"><ele>546.0</ele><time>2026-05-01T09:27:18.043Z</time></trkpt><trkpt lat="42.2026425" lon="13.642245"><ele>546.0</ele><time>2026-05-01T09:27:19.043Z</time></trkpt><trkpt lat="42.2026132" lon="13.6421429"><ele>546.0</ele><time>2026-05-01T09:27:20.049Z</time></trkpt><trkpt lat="42.2026346" lon="13.6420201"><ele>546.0</ele><time>2026-05-01T09:27:21.043Z</time></trkpt><trkpt lat="42.2026919" lon="13.641886"><ele>546.0</ele><time>2026-05-01T09:27:22.042Z</time></trkpt><trkpt lat="42.2027784" lon="13.6417542"><ele>546.0</ele><time>2026-05-01T09:27:23.051Z</time></trkpt><trkpt lat="42.2028718" lon="13.641597"><ele>549.25</ele><time>2026-05-01T09:27:24.037Z</time></trkpt><trkpt lat="42.202954" lon="13.6414497"><ele>552.5</ele><time>2026-05-01T09:27:25.041Z</time></trkpt><trkpt lat="42.2030115" lon="13.641313"><ele>555.75</ele><time>2026-05-01T09:27:26.039Z</time></trkpt><trkpt lat="42.2030372" lon="13.6411787"><ele>559.0</ele><time>2026-05-01T09:27:27.042Z</time></trkpt><trkpt lat="42.2030341" lon="13.6410121"><ele>560.75</ele><time>2026-05-01T09:27:28.045Z</time></trkpt><trkpt lat="42.2029994" lon="13.6408255"><ele>562.5</ele><time>2026-05-01T09:27:29.043Z</time></trkpt><trkpt lat="42.2029562" lon="13.6406624"><ele>564.25</ele><time>2026-05-01T09:27:30.049Z</time></trkpt><trkpt lat="42.2029208" lon="13.6404882"><ele>566.0</ele><time>2026-05-01T09:27:31.038Z</time></trkpt><trkpt lat="42.2029149" lon="13.6403137"><ele>566.75</ele><time>2026-05-01T09:27:32.043Z</time></trkpt><trkpt lat="42.2029466" lon="13.6401454"><ele>567.5</ele><time>2026-05-01T09:27:33.047Z</time></trkpt><trkpt lat="42.202998" lon="13.6399802"><ele>568.25</ele><time>2026-05-01T09:27:34.039Z</time></trkpt><trkpt lat="42.2030518" lon="13.6398164"><ele>569.0</ele><time>2026-05-01T09:27:35.043Z</time></trkpt><trkpt lat="42.2031082" lon="13.6396549"><ele>569.0</ele><time>2026-05-01T09:27:36.035Z</time></trkpt><trkpt lat="42.2031551" lon="13.6394906"><ele>569.0</ele><time>2026-05-01T09:27:37.052Z</time></trkpt><trkpt lat="42.2031879" lon="13.639323"><ele>569.0</ele><time>2026-05-01T09:27:38.047Z</time></trkpt><trkpt lat="42.2032125" lon="13.6391456"><ele>569.0</ele><time>2026-05-01T09:27:39.032Z</time></trkpt><trkpt lat="42.2032165" lon="13.6389669"><ele>569.0</ele><time>2026-05-01T09:27:40.046Z</time></trkpt><trkpt lat="42.2032095" lon="13.6387958"><ele>569.0</ele><time>2026-05-01T09:27:41.038Z</time></trkpt><trkpt lat="42.2032037" lon="13.638642"><ele>569.0</ele><time>2026-05-01T09:27:42.033Z</time></trkpt><trkpt lat="42.2032005" lon="13.6385152"><ele>569.0</ele><time>2026-05-01T09:27:43.048Z</time></trkpt><trkpt lat="42.2031962" lon="13.6384012"><ele>569.0</ele><time>2026-05-01T09:27:44.045Z</time></trkpt><trkpt lat="42.2031958" lon="13.6382909"><ele>569.0</ele><time>2026-05-01T09:27:45.04Z</time></trkpt><trkpt lat="42.2031998" lon="13.6381744"><ele>569.0</ele><time>2026-05-01T09:27:46.042Z</time></trkpt><trkpt lat="42.2032121" lon="13.6380479"><ele>569.0</ele><time>2026-05-01T09:27:47.046Z</time></trkpt><trkpt lat="42.2032411" lon="13.6379187"><ele>569.0</ele><time>2026-05-01T09:27:48.043Z</time></trkpt><trkpt lat="42.2032841" lon="13.6377974"><ele>569.0</ele><time>2026-05-01T09:27:49.041Z</time></trkpt><trkpt lat="42.2033381" lon="13.6376956"><ele>570.3333333333333</ele><time>2026-05-01T09:27:50.035Z</time></trkpt><trkpt lat="42.2033845" lon="13.6376018"><ele>571.6666666666666</ele><time>2026-05-01T09:27:51.075Z</time></trkpt><trkpt lat="42.2034357" lon="13.637515"><ele>573.0</ele><time>2026-05-01T09:27:52.042Z</time></trkpt><trkpt lat="42.2034835" lon="13.6374301"><ele>574.3333333333334</ele><time>2026-05-01T09:27:53.053Z</time></trkpt><trkpt lat="42.203534" lon="13.6373542"><ele>575.6666666666667</ele><time>2026-05-01T09:27:54.072Z</time></trkpt><trkpt lat="42.2035846" lon="13.6372873"><ele>577.0</ele><time>2026-05-01T09:27:55.05Z</time></trkpt><trkpt lat="42.2036382" lon="13.6372309"><ele>577.0</ele><time>2026-05-01T09:27:56.047Z</time></trkpt><trkpt lat="42.2036953" lon="13.6371778"><ele>577.0</ele><time>2026-05-01T09:27:57.046Z</time></trkpt><trkpt lat="42.2037497" lon="13.637133"><ele>577.0</ele><time>2026-05-01T09:27:58.043Z</time></trkpt><trkpt lat="42.2038569" lon="13.6370612"><ele>577.0</ele><time>2026-05-01T09:28:00.027Z</time></trkpt><trkpt lat="42.2039603" lon="13.6370007"><ele>577.0</ele><time>2026-05-01T09:28:02.038Z</time></trkpt><trkpt lat="42.2040457" lon="13.6369314"><ele>577.6</ele><time>2026-05-01T09:28:04.047Z</time></trkpt><trkpt lat="42.204115" lon="13.6368365"><ele>578.2</ele><time>2026-05-01T09:28:06.043Z</time></trkpt><trkpt lat="42.2041646" lon="13.6367317"><ele>578.8</ele><time>2026-05-01T09:28:08.039Z</time></trkpt><trkpt lat="42.2042182" lon="13.636608"><ele>579.4</ele><time>2026-05-01T09:28:10.051Z</time></trkpt><trkpt lat="42.2042486" lon="13.6364608"><ele>580.0</ele><time>2026-05-01T09:28:12.037Z</time></trkpt><trkpt lat="42.2042747" lon="13.6362912"><ele>580.0</ele><time>2026-05-01T09:28:14.04Z</time></trkpt><trkpt lat="42.2043071" lon="13.6361438"><ele>580.0</ele><time>2026-05-01T09:28:16.051Z</time></trkpt><trkpt lat="42.2043332" lon="13.6360127"><ele>580.0</ele><time>2026-05-01T09:28:18.059Z</time></trkpt><trkpt lat="42.2043576" lon="13.6358853"><ele>580.0</ele><time>2026-05-01T09:28:20.055Z</time></trkpt><trkpt lat="42.2043897" lon="13.6357491"><ele>580.0</ele><time>2026-05-01T09:28:22.05Z</time></trkpt><trkpt lat="42.2044347" lon="13.6356184"><ele>581.6</ele><time>2026-05-01T09:28:24.042Z</time></trkpt><trkpt lat="42.2045049" lon="13.6354949"><ele>583.2</ele><time>2026-05-01T09:28:26.048Z</time></trkpt><trkpt lat="42.2045524" lon="13.6354196"><ele>584.8</ele><time>2026-05-01T09:28:27.045Z</time></trkpt><trkpt lat="42.2046099" lon="13.6353337"><ele>586.4</ele><time>2026-05-01T09:28:28.045Z</time></trkpt><trkpt lat="42.2046812" lon="13.6352313"><ele>588.0</ele><time>2026-05-01T09:28:29.039Z</time></trkpt><trkpt lat="42.2047523" lon="13.6351394"><ele>588.8571428571429</ele><time>2026-05-01T09:28:30.042Z</time></trkpt><trkpt lat="42.2048103" lon="13.635057"><ele>589.7142857142858</ele><time>2026-05-01T09:28:31.039Z</time></trkpt><trkpt lat="42.2048619" lon="13.6349858"><ele>590.5714285714286</ele><time>2026-05-01T09:28:32.044Z</time></trkpt><trkpt lat="42.2049132" lon="13.6349152"><ele>591.4285714285714</ele><time>2026-05-01T09:28:33.05Z</time></trkpt><trkpt lat="42.2049616" lon="13.6348488"><ele>592.2857142857143</ele><time>2026-05-01T09:28:34.044Z</time></trkpt><trkpt lat="42.2050108" lon="13.6347811"><ele>593.1428571428571</ele><time>2026-05-01T09:28:35.038Z</time></trkpt><trkpt lat="42.2050587" lon="13.6347096"><ele>594.0</ele><time>2026-05-01T09:28:36.044Z</time></trkpt><trkpt lat="42.2050983" lon="13.6346424"><ele>592.3333333333334</ele><time>2026-05-01T09:28:37.046Z</time></trkpt><trkpt lat="42.205139" lon="13.6345671"><ele>590.6666666666666</ele><time>2026-05-01T09:28:38.044Z</time></trkpt><trkpt lat="42.2051711" lon="13.6344918"><ele>589.0</ele><time>2026-05-01T09:28:39.05Z</time></trkpt><trkpt lat="42.2052041" lon="13.6343643"><ele>587.3333333333333</ele><time>2026-05-01T09:28:41.04Z</time></trkpt><trkpt lat="42.2052037" lon="13.6342581"><ele>585.6666666666666</ele><time>2026-05-01T09:28:44.039Z</time></trkpt><trkpt lat="42.2051113" lon="13.6341955"><ele>584.0</ele><time>2026-05-01T09:28:47.039Z</time></trkpt><trkpt lat="42.2050254" lon="13.6341376"><ele>584.0</ele><time>2026-05-01T09:28:49.046Z</time></trkpt><trkpt lat="42.2049325" lon="13.6340967"><ele>584.0</ele><time>2026-05-01T09:28:51.035Z</time></trkpt><trkpt lat="42.204848" lon="13.6340757"><ele>584.0</ele><time>2026-05-01T09:28:53.044Z</time></trkpt><trkpt lat="42.2047745" lon="13.6341178"><ele>584.0</ele><time>2026-05-01T09:28:55.039Z</time></trkpt><trkpt lat="42.2047294" lon="13.6342003"><ele>584.0</ele><time>2026-05-01T09:28:57.042Z</time></trkpt><trkpt lat="42.2046547" lon="13.6342521"><ele>584.0</ele><time>2026-05-01T09:28:59.057Z</time></trkpt><trkpt lat="42.2045763" lon="13.6343168"><ele>585.6666666666666</ele><time>2026-05-01T09:29:01.039Z</time></trkpt><trkpt lat="42.2045032" lon="13.6344018"><ele>587.3333333333333</ele><time>2026-05-01T09:29:03.041Z</time></trkpt><trkpt lat="42.2044635" lon="13.6344772"><ele>589.0</ele><time>2026-05-01T09:29:08.035Z</time></trkpt><trkpt lat="42.2044211" lon="13.6345697"><ele>590.6666666666666</ele><time>2026-05-01T09:42:09.041Z</time></trkpt><trkpt lat="42.204373" lon="13.6346661"><ele>592.3333333333334</ele><time>2026-05-01T09:42:12.046Z</time></trkpt><trkpt lat="42.2043161" lon="13.6347632"><ele>594.0</ele><time>2026-05-01T09:42:14.06Z</time></trkpt><trkpt lat="42.2042404" lon="13.634848"><ele>594.0</ele><time>2026-05-01T09:42:16.052Z</time></trkpt><trkpt lat="42.2041481" lon="13.6349053"><ele>594.0</ele><time>2026-05-01T09:42:18.038Z</time></trkpt><trkpt lat="42.2040658" lon="13.6349962"><ele>594.0</ele><time>2026-05-01T09:42:20.037Z</time></trkpt><trkpt lat="42.2040061" lon="13.6351291"><ele>594.0</ele><time>2026-05-01T09:42:22.051Z</time></trkpt><trkpt lat="42.2039765" lon="13.6352617"><ele>594.0</ele><time>2026-05-01T09:42:24.033Z</time></trkpt><trkpt lat="42.2039916" lon="13.6353684"><ele>592.8</ele><time>2026-05-01T09:42:26.04Z</time></trkpt><trkpt lat="42.2039812" lon="13.6354696"><ele>591.5999999999999</ele><time>2026-05-01T09:42:28.053Z</time></trkpt><trkpt lat="42.203951" lon="13.6356028"><ele>590.4</ele><time>2026-05-01T09:42:30.033Z</time></trkpt><trkpt lat="42.2039064" lon="13.6357116"><ele>589.1999999999999</ele><time>2026-05-01T09:42:32.041Z</time></trkpt><trkpt lat="42.2038888" lon="13.6358147"><ele>588.0</ele><time>2026-05-01T09:42:37.042Z</time></trkpt><trkpt lat="42.2038426" lon="13.6361747"><ele>588.0</ele><time>2026-05-01T09:42:39.037Z</time></trkpt><trkpt lat="42.2038297" lon="13.6362843"><ele>588.0</ele><time>2026-05-01T09:42:41.031Z</time></trkpt><trkpt lat="42.2038106" lon="13.6364412"><ele>588.0</ele><time>2026-05-01T09:42:43.027Z</time></trkpt><trkpt lat="42.2037831" lon="13.6365873"><ele>588.0</ele><time>2026-05-01T09:42:45.027Z</time></trkpt><trkpt lat="42.2037582" lon="13.6367012"><ele>588.0</ele><time>2026-05-01T09:42:47.036Z</time></trkpt><trkpt lat="42.2037852" lon="13.6367983"><ele>588.0</ele><time>2026-05-01T09:42:50.039Z</time></trkpt><trkpt lat="42.2038381" lon="13.6368677"><ele>588.0</ele><time>2026-05-01T09:42:52.039Z</time></trkpt><trkpt lat="42.2038077" lon="13.6369887"><ele>588.0</ele><time>2026-05-01T09:42:55.034Z</time></trkpt><trkpt lat="42.2037484" lon="13.6370297"><ele>588.0</ele><time>2026-05-01T09:42:57.038Z</time></trkpt><trkpt lat="42.2036797" lon="13.6370587"><ele>588.0</ele><time>2026-05-01T09:42:59.037Z</time></trkpt><trkpt lat="42.2035954" lon="13.6371153"><ele>588.0</ele><time>2026-05-01T09:43:01.04Z</time></trkpt><trkpt lat="42.203516" lon="13.6372302"><ele>585.8</ele><time>2026-05-01T09:43:03.042Z</time></trkpt><trkpt lat="42.2034677" lon="13.6373391"><ele>583.5999999999999</ele><time>2026-05-01T09:43:05.047Z</time></trkpt><trkpt lat="42.2034028" lon="13.6374707"><ele>581.4000000000001</ele><time>2026-05-01T09:43:07.041Z</time></trkpt><trkpt lat="42.2033598" lon="13.6375531"><ele>579.2</ele><time>2026-05-01T09:43:08.048Z</time></trkpt><trkpt lat="42.2033091" lon="13.6376496"><ele>577.0</ele><time>2026-05-01T09:43:09.036Z</time></trkpt><trkpt lat="42.2032637" lon="13.6377519"><ele>577.4</ele><time>2026-05-01T09:43:10.05Z</time></trkpt><trkpt lat="42.2032228" lon="13.6378652"><ele>577.8000000000001</ele><time>2026-05-01T09:43:11.051Z</time></trkpt><trkpt lat="42.2031891" lon="13.6379838"><ele>578.2</ele><time>2026-05-01T09:43:12.041Z</time></trkpt><trkpt lat="42.2031571" lon="13.6381079"><ele>578.6</ele><time>2026-05-01T09:43:13.042Z</time></trkpt><trkpt lat="42.2031255" lon="13.6382354"><ele>579.0</ele><time>2026-05-01T09:43:14.043Z</time></trkpt><trkpt lat="42.2030911" lon="13.638362"><ele>579.0</ele><time>2026-05-01T09:43:15.048Z</time></trkpt><trkpt lat="42.2030507" lon="13.6384902"><ele>579.0</ele><time>2026-05-01T09:43:16.035Z</time></trkpt><trkpt lat="42.2030152" lon="13.6386308"><ele>579.0</ele><time>2026-05-01T09:43:17.038Z</time></trkpt><trkpt lat="42.2029748" lon="13.6387778"><ele>579.0</ele><time>2026-05-01T09:43:18.036Z</time></trkpt><trkpt lat="42.2029359" lon="13.6389317"><ele>578.0</ele><time>2026-05-01T09:43:19.046Z</time></trkpt><trkpt lat="42.2028952" lon="13.639091"><ele>577.0</ele><time>2026-05-01T09:43:20.035Z</time></trkpt><trkpt lat="42.2028549" lon="13.6392498"><ele>576.0</ele><time>2026-05-01T09:43:21.035Z</time></trkpt><trkpt lat="42.2028136" lon="13.6394042"><ele>575.0</ele><time>2026-05-01T09:43:22.051Z</time></trkpt><trkpt lat="42.2027717" lon="13.6395637"><ele>573.5</ele><time>2026-05-01T09:43:23.033Z</time></trkpt><trkpt lat="42.2027351" lon="13.6397259"><ele>572.0</ele><time>2026-05-01T09:43:24.048Z</time></trkpt><trkpt lat="42.2026998" lon="13.6398875"><ele>570.5</ele><time>2026-05-01T09:43:25.038Z</time></trkpt><trkpt lat="42.2026629" lon="13.6400503"><ele>569.0</ele><time>2026-05-01T09:43:26.04Z</time></trkpt><trkpt lat="42.202625" lon="13.6402183"><ele>568.25</ele><time>2026-05-01T09:43:27.048Z</time></trkpt><trkpt lat="42.2025924" lon="13.6403935"><ele>567.5</ele><time>2026-05-01T09:43:28.038Z</time></trkpt><trkpt lat="42.2025559" lon="13.640572"><ele>566.75</ele><time>2026-05-01T09:43:29.055Z</time></trkpt><trkpt lat="42.2025181" lon="13.640756"><ele>566.0</ele><time>2026-05-01T09:43:30.038Z</time></trkpt><trkpt lat="42.2024745" lon="13.6409398"><ele>566.0</ele><time>2026-05-01T09:43:31.038Z</time></trkpt><trkpt lat="42.2024145" lon="13.6411178"><ele>566.0</ele><time>2026-05-01T09:43:32.052Z</time></trkpt><trkpt lat="42.2023384" lon="13.6412867"><ele>566.0</ele><time>2026-05-01T09:43:33.039Z</time></trkpt><trkpt lat="42.2022482" lon="13.6414522"><ele>566.0</ele><time>2026-05-01T09:43:34.049Z</time></trkpt><trkpt lat="42.2021494" lon="13.6416122"><ele>565.6666666666666</ele><time>2026-05-01T09:43:35.044Z</time></trkpt><trkpt lat="42.2020574" lon="13.6417772"><ele>565.3333333333334</ele><time>2026-05-01T09:43:36.04Z</time></trkpt><trkpt lat="42.2019651" lon="13.6419442"><ele>565.0</ele><time>2026-05-01T09:43:37.038Z</time></trkpt><trkpt lat="42.2018717" lon="13.6421124"><ele>562.0</ele><time>2026-05-01T09:43:38.044Z</time></trkpt><trkpt lat="42.2017803" lon="13.6422878"><ele>559.0</ele><time>2026-05-01T09:43:39.044Z</time></trkpt><trkpt lat="42.2016829" lon="13.6424625"><ele>556.0</ele><time>2026-05-01T09:43:40.039Z</time></trkpt><trkpt lat="42.2015825" lon="13.6426419"><ele>557.0</ele><time>2026-05-01T09:43:41.038Z</time></trkpt><trkpt lat="42.2014834" lon="13.6428207"><ele>558.0</ele><time>2026-05-01T09:43:42.044Z</time></trkpt><trkpt lat="42.2013837" lon="13.6429971"><ele>559.0</ele><time>2026-05-01T09:43:43.043Z</time></trkpt><trkpt lat="42.2012854" lon="13.6431771"><ele>559.0</ele><time>2026-05-01T09:43:44.044Z</time></trkpt><trkpt lat="42.20119" lon="13.6433576"><ele>559.0</ele><time>2026-05-01T09:43:45.044Z</time></trkpt><trkpt lat="42.2011015" lon="13.6435419"><ele>559.0</ele><time>2026-05-01T09:43:46.056Z</time></trkpt><trkpt lat="42.2010243" lon="13.6437368"><ele>556.3333333333334</ele><time>2026-05-01T09:43:47.05Z</time></trkpt><trkpt lat="42.2009466" lon="13.6439394"><ele>553.6666666666666</ele><time>2026-05-01T09:43:48.049Z</time></trkpt><trkpt lat="42.2008754" lon="13.6441502"><ele>551.0</ele><time>2026-05-01T09:43:49.061Z</time></trkpt><trkpt lat="42.2008024" lon="13.6443554"><ele>549.6666666666666</ele><time>2026-05-01T09:43:50.038Z</time></trkpt><trkpt lat="42.200722" lon="13.6445515"><ele>548.3333333333334</ele><time>2026-05-01T09:43:51.043Z</time></trkpt><trkpt lat="42.2006318" lon="13.6447433"><ele>547.0</ele><time>2026-05-01T09:43:52.05Z</time></trkpt><trkpt lat="42.2005346" lon="13.6449246"><ele>548.6666666666667</ele><time>2026-05-01T09:43:53.039Z</time></trkpt><trkpt lat="42.2004278" lon="13.6450918"><ele>550.3333333333334</ele><time>2026-05-01T09:43:54.041Z</time></trkpt><trkpt lat="42.2003096" lon="13.6452453"><ele>552.0</ele><time>2026-05-01T09:43:55.04Z</time></trkpt><trkpt lat="42.2001869" lon="13.6453874"><ele>552.0</ele><time>2026-05-01T09:43:56.044Z</time></trkpt><trkpt lat="42.2000658" lon="13.6455259"><ele>552.0</ele><time>2026-05-01T09:43:57.047Z</time></trkpt><trkpt lat="42.1999449" lon="13.6456684"><ele>552.0</ele><time>2026-05-01T09:43:58.065Z</time></trkpt><trkpt lat="42.199823" lon="13.6458141"><ele>550.6666666666666</ele><time>2026-05-01T09:43:59.041Z</time></trkpt><trkpt lat="42.199688" lon="13.6459537"><ele>549.3333333333333</ele><time>2026-05-01T09:44:00.037Z</time></trkpt><trkpt lat="42.1995485" lon="13.6460845"><ele>548.0</ele><time>2026-05-01T09:44:01.034Z</time></trkpt><trkpt lat="42.1994005" lon="13.6462019"><ele>548.0</ele><time>2026-05-01T09:44:02.053Z</time></trkpt><trkpt lat="42.1992498" lon="13.6463027"><ele>548.0</ele><time>2026-05-01T09:44:03.041Z</time></trkpt><trkpt lat="42.1991057" lon="13.6463908"><ele>548.0</ele><time>2026-05-01T09:44:04.026Z</time></trkpt><trkpt lat="42.198963" lon="13.6464734"><ele>549.75</ele><time>2026-05-01T09:44:05.039Z</time></trkpt><trkpt lat="42.1988253" lon="13.6465532"><ele>551.5</ele><time>2026-05-01T09:44:06.06Z</time></trkpt><trkpt lat="42.1986901" lon="13.6466337"><ele>553.25</ele><time>2026-05-01T09:44:07.036Z</time></trkpt><trkpt lat="42.1985578" lon="13.6467107"><ele>555.0</ele><time>2026-05-01T09:44:08.042Z</time></trkpt><trkpt lat="42.1984292" lon="13.6467947"><ele>555.0</ele><time>2026-05-01T09:44:09.043Z</time></trkpt><trkpt lat="42.1982967" lon="13.6468688"><ele>555.0</ele><time>2026-05-01T09:44:10.038Z</time></trkpt><trkpt lat="42.198168" lon="13.6469409"><ele>555.0</ele><time>2026-05-01T09:44:11.038Z</time></trkpt><trkpt lat="42.1980436" lon="13.6470029"><ele>555.0</ele><time>2026-05-01T09:44:12.062Z</time></trkpt><trkpt lat="42.1979263" lon="13.6470607"><ele>554.0</ele><time>2026-05-01T09:44:13.029Z</time></trkpt><trkpt lat="42.1978195" lon="13.6471113"><ele>553.0</ele><time>2026-05-01T09:44:14.048Z</time></trkpt><trkpt lat="42.1977151" lon="13.6471614"><ele>552.0</ele><time>2026-05-01T09:44:15.034Z</time></trkpt><trkpt lat="42.197605" lon="13.6472074"><ele>551.0</ele><time>2026-05-01T09:44:16.044Z</time></trkpt><trkpt lat="42.1974875" lon="13.647251"><ele>551.0</ele><time>2026-05-01T09:44:17.055Z</time></trkpt><trkpt lat="42.1973759" lon="13.6472932"><ele>551.0</ele><time>2026-05-01T09:44:18.053Z</time></trkpt><trkpt lat="42.1972624" lon="13.6473311"><ele>551.0</ele><time>2026-05-01T09:44:19.027Z</time></trkpt><trkpt lat="42.1971464" lon="13.6473691"><ele>551.0</ele><time>2026-05-01T09:44:20.045Z</time></trkpt><trkpt lat="42.1970372" lon="13.6474115"><ele>552.25</ele><time>2026-05-01T09:44:21.039Z</time></trkpt><trkpt lat="42.1969253" lon="13.6474668"><ele>553.5</ele><time>2026-05-01T09:44:22.039Z</time></trkpt><trkpt lat="42.1968128" lon="13.6475361"><ele>554.75</ele><time>2026-05-01T09:44:23.025Z</time></trkpt><trkpt lat="42.1966999" lon="13.6476211"><ele>556.0</ele><time>2026-05-01T09:44:24.05Z</time></trkpt><trkpt lat="42.1965923" lon="13.6477079"><ele>556.5</ele><time>2026-05-01T09:44:25.043Z</time></trkpt><trkpt lat="42.1964834" lon="13.6478032"><ele>557.0</ele><time>2026-05-01T09:44:26.042Z</time></trkpt><trkpt lat="42.1963773" lon="13.6479162"><ele>557.5</ele><time>2026-05-01T09:44:27.038Z</time></trkpt><trkpt lat="42.196265" lon="13.6480389"><ele>558.0</ele><time>2026-05-01T09:44:28.041Z</time></trkpt><trkpt lat="42.1961457" lon="13.6481662"><ele>558.0</ele><time>2026-05-01T09:44:29.043Z</time></trkpt><trkpt lat="42.1960226" lon="13.6482882"><ele>558.0</ele><time>2026-05-01T09:44:30.032Z</time></trkpt><trkpt lat="42.1958933" lon="13.6484162"><ele>558.0</ele><time>2026-05-01T09:44:31.036Z</time></trkpt><trkpt lat="42.1957501" lon="13.6485153"><ele>561.6666666666666</ele><time>2026-05-01T09:44:32.035Z</time></trkpt><trkpt lat="42.1956003" lon="13.6485928"><ele>565.3333333333333</ele><time>2026-05-01T09:44:33.044Z</time></trkpt><trkpt lat="42.1954612" lon="13.648669"><ele>569.0</ele><time>2026-05-01T09:44:34.041Z</time></trkpt><trkpt lat="42.1953387" lon="13.6487629"><ele>569.0</ele><time>2026-05-01T09:44:35.035Z</time></trkpt><trkpt lat="42.1952289" lon="13.6488998"><ele>569.0</ele><time>2026-05-01T09:44:36.038Z</time></trkpt><trkpt lat="42.1951326" lon="13.6490744"><ele>569.0</ele><time>2026-05-01T09:44:37.053Z</time></trkpt><trkpt lat="42.1950412" lon="13.6492704"><ele>566.3333333333333</ele><time>2026-05-01T09:44:38.044Z</time></trkpt><trkpt lat="42.1949526" lon="13.6494697"><ele>563.6666666666666</ele><time>2026-05-01T09:44:39.046Z</time></trkpt><trkpt lat="42.1948664" lon="13.6496548"><ele>561.0</ele><time>2026-05-01T09:44:40.038Z</time></trkpt><trkpt lat="42.1947733" lon="13.6498238"><ele>567.0</ele><time>2026-05-01T09:44:41.037Z</time></trkpt><trkpt lat="42.1946715" lon="13.6499618"><ele>573.0</ele><time>2026-05-01T09:44:42.041Z</time></trkpt><trkpt lat="42.1945625" lon="13.6500714"><ele>579.0</ele><time>2026-05-01T09:44:43.028Z</time></trkpt><trkpt lat="42.1944465" lon="13.6501725"><ele>585.0</ele><time>2026-05-01T09:44:44.058Z</time></trkpt><trkpt lat="42.1943276" lon="13.6502627"><ele>586.75</ele><time>2026-05-01T09:44:45.032Z</time></trkpt><trkpt lat="42.1941964" lon="13.6503525"><ele>588.5</ele><time>2026-05-01T09:44:46.04Z</time></trkpt><trkpt lat="42.1940678" lon="13.6504392"><ele>590.25</ele><time>2026-05-01T09:44:47.034Z</time></trkpt><trkpt lat="42.1939388" lon="13.6505368"><ele>592.0</ele><time>2026-05-01T09:44:48.038Z</time></trkpt><trkpt lat="42.1938098" lon="13.65063"><ele>592.0</ele><time>2026-05-01T09:44:49.038Z</time></trkpt><trkpt lat="42.1936872" lon="13.6507338"><ele>592.0</ele><time>2026-05-01T09:44:50.045Z</time></trkpt><trkpt lat="42.1935718" lon="13.6508522"><ele>592.0</ele><time>2026-05-01T09:44:51.055Z</time></trkpt><trkpt lat="42.1934685" lon="13.6509876"><ele>592.0</ele><time>2026-05-01T09:44:52.059Z</time></trkpt><trkpt lat="42.193378" lon="13.6511334"><ele>589.25</ele><time>2026-05-01T09:44:53.034Z</time></trkpt><trkpt lat="42.1933066" lon="13.6512917"><ele>586.5</ele><time>2026-05-01T09:44:54.033Z</time></trkpt><trkpt lat="42.19326" lon="13.6514604"><ele>583.75</ele><time>2026-05-01T09:44:55.034Z</time></trkpt><trkpt lat="42.1932385" lon="13.6516463"><ele>581.0</ele><time>2026-05-01T09:44:56.04Z</time></trkpt><trkpt lat="42.1932685" lon="13.6518376"><ele>582.5</ele><time>2026-05-01T09:44:57.037Z</time></trkpt><trkpt lat="42.1933071" lon="13.6520223"><ele>584.0</ele><time>2026-05-01T09:44:58.045Z</time></trkpt><trkpt lat="42.1933274" lon="13.6522031"><ele>585.5</ele><time>2026-05-01T09:44:59.036Z</time></trkpt><trkpt lat="42.1933321" lon="13.6523741"><ele>587.0</ele><time>2026-05-01T09:45:00.041Z</time></trkpt><trkpt lat="42.1933207" lon="13.6525395"><ele>587.0</ele><time>2026-05-01T09:45:01.044Z</time></trkpt><trkpt lat="42.193302" lon="13.652701"><ele>587.0</ele><time>2026-05-01T09:45:02.04Z</time></trkpt><trkpt lat="42.1932733" lon="13.6528588"><ele>587.0</ele><time>2026-05-01T09:45:03.04Z</time></trkpt><trkpt lat="42.1932385" lon="13.6529874"><ele>587.0</ele><time>2026-05-01T09:45:04.046Z</time></trkpt><trkpt lat="42.1932055" lon="13.6530952"><ele>587.0</ele><time>2026-05-01T09:45:05.039Z</time></trkpt><trkpt lat="42.1931548" lon="13.6531676"><ele>588.0</ele><time>2026-05-01T09:45:06.047Z</time></trkpt><trkpt lat="42.1930393" lon="13.653155"><ele>589.0</ele><time>2026-05-01T09:45:08.047Z</time></trkpt><trkpt lat="42.1929947" lon="13.6530905"><ele>590.0</ele><time>2026-05-01T09:45:09.046Z</time></trkpt><trkpt lat="42.1929687" lon="13.6529995"><ele>591.0</ele><time>2026-05-01T09:45:10.045Z</time></trkpt><trkpt lat="42.1929873" lon="13.6528913"><ele>592.0</ele><time>2026-05-01T09:45:11.044Z</time></trkpt><trkpt lat="42.1930156" lon="13.652761"><ele>593.0</ele><time>2026-05-01T09:45:12.046Z</time></trkpt><trkpt lat="42.1930459" lon="13.6526316"><ele>596.3333333333333</ele><time>2026-05-01T09:45:13.035Z</time></trkpt><trkpt lat="42.1930697" lon="13.6525036"><ele>599.6666666666666</ele><time>2026-05-01T09:45:14.043Z</time></trkpt><trkpt lat="42.1930785" lon="13.6523884"><ele>603.0</ele><time>2026-05-01T09:45:15.053Z</time></trkpt><trkpt lat="42.1930723" lon="13.6522808"><ele>606.3333333333334</ele><time>2026-05-01T09:45:16.042Z</time></trkpt><trkpt lat="42.1930409" lon="13.6521832"><ele>609.6666666666667</ele><time>2026-05-01T09:45:17.05Z</time></trkpt><trkpt lat="42.1929841" lon="13.6521266"><ele>613.0</ele><time>2026-05-01T09:45:18.056Z</time></trkpt><trkpt lat="42.1929191" lon="13.652125"><ele>613.0</ele><time>2026-05-01T09:45:19.047Z</time></trkpt><trkpt lat="42.1928769" lon="13.652212"><ele>613.0</ele><time>2026-05-01T09:45:20.043Z</time></trkpt><trkpt lat="42.1928518" lon="13.6523379"><ele>613.0</ele><time>2026-05-01T09:45:21.036Z</time></trkpt><trkpt lat="42.192835" lon="13.6524706"><ele>613.0</ele><time>2026-05-01T09:45:22.059Z</time></trkpt><trkpt lat="42.1927969" lon="13.6526099"><ele>613.0</ele><time>2026-05-01T09:45:23.044Z</time></trkpt><trkpt lat="42.1927342" lon="13.652731"><ele>613.0</ele><time>2026-05-01T09:45:24.057Z</time></trkpt><trkpt lat="42.1926514" lon="13.6528244"><ele>613.0</ele><time>2026-05-01T09:45:25.045Z</time></trkpt><trkpt lat="42.1925656" lon="13.6528902"><ele>613.0</ele><time>2026-05-01T09:45:26.046Z</time></trkpt><trkpt lat="42.1924831" lon="13.6529194"><ele>613.0</ele><time>2026-05-01T09:45:27.043Z</time></trkpt><trkpt lat="42.192421" lon="13.652888"><ele>613.0</ele><time>2026-05-01T09:45:28.042Z</time></trkpt><trkpt lat="42.192396" lon="13.652724"><ele>613.0</ele><time>2026-05-01T09:45:30.026Z</time></trkpt><trkpt lat="42.1924376" lon="13.6526512"><ele>613.0</ele><time>2026-05-01T09:45:31.031Z</time></trkpt><trkpt lat="42.1925108" lon="13.6526035"><ele>613.0</ele><time>2026-05-01T09:45:32.033Z</time></trkpt><trkpt lat="42.1925889" lon="13.652564"><ele>613.0</ele><time>2026-05-01T09:45:33.073Z</time></trkpt><trkpt lat="42.1926477" lon="13.6524997"><ele>613.0</ele><time>2026-05-01T09:45:34.036Z</time></trkpt><trkpt lat="42.192684" lon="13.6524032"><ele>613.0</ele><time>2026-05-01T09:45:35.04Z</time></trkpt><trkpt lat="42.1926871" lon="13.6522975"><ele>613.0</ele><time>2026-05-01T09:45:36.046Z</time></trkpt><trkpt lat="42.192642" lon="13.6522017"><ele>613.0</ele><time>2026-05-01T09:45:37.046Z</time></trkpt><trkpt lat="42.1925567" lon="13.6521696"><ele>613.0</ele><time>2026-05-01T09:45:38.045Z</time></trkpt><trkpt lat="42.1924703" lon="13.6522082"><ele>613.0</ele><time>2026-05-01T09:45:39.05Z</time></trkpt><trkpt lat="42.1923838" lon="13.652297"><ele>613.0</ele><time>2026-05-01T09:45:40.049Z</time></trkpt><trkpt lat="42.1923013" lon="13.652394"><ele>615.8</ele><time>2026-05-01T09:45:41.039Z</time></trkpt><trkpt lat="42.1922252" lon="13.6524843"><ele>618.5999999999999</ele><time>2026-05-01T09:45:42.054Z</time></trkpt><trkpt lat="42.1921347" lon="13.6525745"><ele>621.4000000000001</ele><time>2026-05-01T09:45:43.047Z</time></trkpt><trkpt lat="42.1920383" lon="13.6526537"><ele>624.2</ele><time>2026-05-01T09:45:44.046Z</time></trkpt><trkpt lat="42.191932" lon="13.6527051"><ele>627.0</ele><time>2026-05-01T09:45:45.046Z</time></trkpt><trkpt lat="42.1918017" lon="13.6527284"><ele>627.0</ele><time>2026-05-01T09:45:46.043Z</time></trkpt><trkpt lat="42.1916644" lon="13.652743"><ele>627.0</ele><time>2026-05-01T09:45:47.036Z</time></trkpt><trkpt lat="42.1915257" lon="13.6527595"><ele>627.0</ele><time>2026-05-01T09:45:48.046Z</time></trkpt><trkpt lat="42.1913903" lon="13.6527994"><ele>627.0</ele><time>2026-05-01T09:45:49.036Z</time></trkpt><trkpt lat="42.1912579" lon="13.6528733"><ele>628.0</ele><time>2026-05-01T09:45:50.048Z</time></trkpt><trkpt lat="42.1911263" lon="13.6529869"><ele>629.0</ele><time>2026-05-01T09:45:51.031Z</time></trkpt><trkpt lat="42.1910025" lon="13.6531168"><ele>630.0</ele><time>2026-05-01T09:45:52.046Z</time></trkpt><trkpt lat="42.1908767" lon="13.6532302"><ele>630.0</ele><time>2026-05-01T09:45:53.045Z</time></trkpt><trkpt lat="42.1907416" lon="13.653326"><ele>630.0</ele><time>2026-05-01T09:45:54.045Z</time></trkpt><trkpt lat="42.1906026" lon="13.6533977"><ele>630.0</ele><time>2026-05-01T09:45:55.035Z</time></trkpt><trkpt lat="42.1904558" lon="13.6534677"><ele>631.75</ele><time>2026-05-01T09:45:56.047Z</time></trkpt><trkpt lat="42.1903164" lon="13.6535417"><ele>633.5</ele><time>2026-05-01T09:45:57.035Z</time></trkpt><trkpt lat="42.1901842" lon="13.6536001"><ele>635.25</ele><time>2026-05-01T09:45:58.037Z</time></trkpt><trkpt lat="42.1900588" lon="13.6536494"><ele>637.0</ele><time>2026-05-01T09:45:59.043Z</time></trkpt><trkpt lat="42.1899386" lon="13.6536994"><ele>640.0</ele><time>2026-05-01T09:46:00.032Z</time></trkpt><trkpt lat="42.1898277" lon="13.6537593"><ele>643.0</ele><time>2026-05-01T09:46:01.032Z</time></trkpt><trkpt lat="42.1897456" lon="13.6538323"><ele>646.0</ele><time>2026-05-01T09:46:02.046Z</time></trkpt><trkpt lat="42.1896935" lon="13.6539436"><ele>649.0</ele><time>2026-05-01T09:46:03.037Z</time></trkpt><trkpt lat="42.1896787" lon="13.6540774"><ele>652.0</ele><time>2026-05-01T09:46:04.044Z</time></trkpt><trkpt lat="42.189716" lon="13.6542321"><ele>652.0</ele><time>2026-05-01T09:46:05.044Z</time></trkpt><trkpt lat="42.1897692" lon="13.6543734"><ele>652.0</ele><time>2026-05-01T09:46:06.041Z</time></trkpt><trkpt lat="42.1898272" lon="13.6545082"><ele>652.0</ele><time>2026-05-01T09:46:07.052Z</time></trkpt><trkpt lat="42.1898815" lon="13.6546355"><ele>652.0</ele><time>2026-05-01T09:46:08.036Z</time></trkpt><trkpt lat="42.1899239" lon="13.6547535"><ele>652.0</ele><time>2026-05-01T09:46:09.036Z</time></trkpt><trkpt lat="42.189959" lon="13.6548717"><ele>652.0</ele><time>2026-05-01T09:46:10.048Z</time></trkpt><trkpt lat="42.1899869" lon="13.6549891"><ele>652.0</ele><time>2026-05-01T09:46:11.038Z</time></trkpt><trkpt lat="42.1899709" lon="13.6550989"><ele>652.0</ele><time>2026-05-01T09:46:12.04Z</time></trkpt><trkpt lat="42.1899275" lon="13.655196"><ele>652.0</ele><time>2026-05-01T09:46:13.045Z</time></trkpt><trkpt lat="42.1898531" lon="13.6552605"><ele>652.0</ele><time>2026-05-01T09:46:14.048Z</time></trkpt><trkpt lat="42.1897557" lon="13.6553123"><ele>652.0</ele><time>2026-05-01T09:46:15.051Z</time></trkpt><trkpt lat="42.1896434" lon="13.6553605"><ele>652.0</ele><time>2026-05-01T09:46:16.032Z</time></trkpt><trkpt lat="42.1895216" lon="13.6554174"><ele>652.0</ele><time>2026-05-01T09:46:17.044Z</time></trkpt><trkpt lat="42.1894003" lon="13.6554858"><ele>652.0</ele><time>2026-05-01T09:46:18.038Z</time></trkpt><trkpt lat="42.1892789" lon="13.6555561"><ele>652.0</ele><time>2026-05-01T09:46:19.051Z</time></trkpt><trkpt lat="42.1891625" lon="13.6556278"><ele>652.0</ele><time>2026-05-01T09:46:20.043Z</time></trkpt><trkpt lat="42.1890438" lon="13.6556907"><ele>652.0</ele><time>2026-05-01T09:46:21.042Z</time></trkpt><trkpt lat="42.1889261" lon="13.6557483"><ele>652.0</ele><time>2026-05-01T09:46:22.039Z</time></trkpt><trkpt lat="42.1888051" lon="13.6558027"><ele>653.75</ele><time>2026-05-01T09:46:23.044Z</time></trkpt><trkpt lat="42.1886813" lon="13.655855"><ele>655.5</ele><time>2026-05-01T09:46:24.048Z</time></trkpt><trkpt lat="42.1885613" lon="13.655898"><ele>657.25</ele><time>2026-05-01T09:46:25.044Z</time></trkpt><trkpt lat="42.18845" lon="13.6559398"><ele>659.0</ele><time>2026-05-01T09:46:26.043Z</time></trkpt><trkpt lat="42.1883552" lon="13.6559766"><ele>659.0</ele><time>2026-05-01T09:46:27.036Z</time></trkpt><trkpt lat="42.1882646" lon="13.6560169"><ele>659.0</ele><time>2026-05-01T09:46:28.038Z</time></trkpt><trkpt lat="42.1881916" lon="13.6560655"><ele>659.0</ele><time>2026-05-01T09:46:29.059Z</time></trkpt><trkpt lat="42.1881498" lon="13.6561382"><ele>659.0</ele><time>2026-05-01T09:46:30.045Z</time></trkpt><trkpt lat="42.1881491" lon="13.6562409"><ele>659.0</ele><time>2026-05-01T09:46:31.042Z</time></trkpt><trkpt lat="42.1881906" lon="13.6563302"><ele>659.0</ele><time>2026-05-01T09:46:32.037Z</time></trkpt><trkpt lat="42.1882672" lon="13.6563736"><ele>660.2</ele><time>2026-05-01T09:46:33.038Z</time></trkpt><trkpt lat="42.1883664" lon="13.6563805"><ele>661.4000000000001</ele><time>2026-05-01T09:46:34.038Z</time></trkpt><trkpt lat="42.1884773" lon="13.6563655"><ele>662.6</ele><time>2026-05-01T09:46:35.05Z</time></trkpt><trkpt lat="42.1885935" lon="13.656349"><ele>663.8</ele><time>2026-05-01T09:46:36.031Z</time></trkpt><trkpt lat="42.1887095" lon="13.6563329"><ele>665.0</ele><time>2026-05-01T09:46:37.028Z</time></trkpt><trkpt lat="42.1888286" lon="13.6563162"><ele>665.0</ele><time>2026-05-01T09:46:38.038Z</time></trkpt><trkpt lat="42.1889381" lon="13.6563098"><ele>665.0</ele><time>2026-05-01T09:46:39.037Z</time></trkpt><trkpt lat="42.1890582" lon="13.6562952"><ele>665.0</ele><time>2026-05-01T09:46:40.034Z</time></trkpt><trkpt lat="42.1891652" lon="13.6562804"><ele>665.0</ele><time>2026-05-01T09:46:41.038Z</time></trkpt><trkpt lat="42.1892612" lon="13.6562669"><ele>665.0</ele><time>2026-05-01T09:46:42.058Z</time></trkpt><trkpt lat="42.1893489" lon="13.6562618"><ele>664.0</ele><time>2026-05-01T09:46:43.033Z</time></trkpt><trkpt lat="42.1894314" lon="13.6562877"><ele>663.0</ele><time>2026-05-01T09:46:44.039Z</time></trkpt><trkpt lat="42.1894863" lon="13.6563612"><ele>662.0</ele><time>2026-05-01T09:46:45.045Z</time></trkpt><trkpt lat="42.1894923" lon="13.6564459"><ele>661.0</ele><time>2026-05-01T09:46:46.049Z</time></trkpt><trkpt lat="42.1893848" lon="13.6565626"><ele>660.0</ele><time>2026-05-01T09:46:48.051Z</time></trkpt><trkpt lat="42.1892931" lon="13.6565749"><ele>660.0</ele><time>2026-05-01T09:46:49.038Z</time></trkpt><trkpt lat="42.1891774" lon="13.6565645"><ele>660.0</ele><time>2026-05-01T09:46:50.039Z</time></trkpt><trkpt lat="42.1890502" lon="13.6565574"><ele>660.0</ele><time>2026-05-01T09:46:51.035Z</time></trkpt><trkpt lat="42.1889111" lon="13.6565536"><ele>660.0</ele><time>2026-05-01T09:46:52.05Z</time></trkpt><trkpt lat="42.188771" lon="13.6565545"><ele>661.6666666666666</ele><time>2026-05-01T09:46:53.043Z</time></trkpt><trkpt lat="42.1886233" lon="13.6565523"><ele>663.3333333333333</ele><time>2026-05-01T09:46:54.044Z</time></trkpt><trkpt lat="42.1884679" lon="13.6565584"><ele>665.0</ele><time>2026-05-01T09:46:55.041Z</time></trkpt><trkpt lat="42.1882911" lon="13.6565768"><ele>666.3333333333333</ele><time>2026-05-01T09:46:56.042Z</time></trkpt><trkpt lat="42.1880903" lon="13.656612"><ele>667.6666666666666</ele><time>2026-05-01T09:46:57.037Z</time></trkpt><trkpt lat="42.1878548" lon="13.656661"><ele>669.0</ele><time>2026-05-01T09:46:58.031Z</time></trkpt><trkpt lat="42.1876015" lon="13.65673"><ele>669.0</ele><time>2026-05-01T09:46:59.034Z</time></trkpt><trkpt lat="42.1873523" lon="13.6567877"><ele>669.0</ele><time>2026-05-01T09:47:00.038Z</time></trkpt><trkpt lat="42.1871328" lon="13.6568228"><ele>671.3333333333334</ele><time>2026-05-01T09:47:01.036Z</time></trkpt><trkpt lat="42.1869289" lon="13.6568715"><ele>673.6666666666667</ele><time>2026-05-01T09:47:02.035Z</time></trkpt><trkpt lat="42.1867303" lon="13.6569236"><ele>676.0</ele><time>2026-05-01T09:47:03.042Z</time></trkpt><trkpt lat="42.1865374" lon="13.6569704"><ele>682.6666666666667</ele><time>2026-05-01T09:47:04.039Z</time></trkpt><trkpt lat="42.1863482" lon="13.6570145"><ele>689.3333333333334</ele><time>2026-05-01T09:47:05.026Z</time></trkpt><trkpt lat="42.1861686" lon="13.6570553"><ele>696.0</ele><time>2026-05-01T09:47:06.028Z</time></trkpt><trkpt lat="42.1859911" lon="13.6570969"><ele>696.0</ele><time>2026-05-01T09:47:07.034Z</time></trkpt><trkpt lat="42.1858126" lon="13.6571374"><ele>696.0</ele><time>2026-05-01T09:47:08.04Z</time></trkpt><trkpt lat="42.1856428" lon="13.6571791"><ele>696.0</ele><time>2026-05-01T09:47:09.042Z</time></trkpt><trkpt lat="42.1854832" lon="13.6572258"><ele>694.0</ele><time>2026-05-01T09:47:10.018Z</time></trkpt><trkpt lat="42.1853319" lon="13.6572864"><ele>692.0</ele><time>2026-05-01T09:47:11.035Z</time></trkpt><trkpt lat="42.1851804" lon="13.6573809"><ele>690.0</ele><time>2026-05-01T09:47:12.038Z</time></trkpt><trkpt lat="42.1850236" lon="13.6575176"><ele>690.0</ele><time>2026-05-01T09:47:13.033Z</time></trkpt><trkpt lat="42.1848776" lon="13.6576757"><ele>690.0</ele><time>2026-05-01T09:47:14.043Z</time></trkpt><trkpt lat="42.1847302" lon="13.6578337"><ele>690.0</ele><time>2026-05-01T09:47:15.036Z</time></trkpt><trkpt lat="42.1845812" lon="13.6579934"><ele>688.6666666666666</ele><time>2026-05-01T09:47:16.045Z</time></trkpt><trkpt lat="42.1844365" lon="13.6581528"><ele>687.3333333333333</ele><time>2026-05-01T09:47:17.034Z</time></trkpt><trkpt lat="42.1842933" lon="13.6582938"><ele>686.0</ele><time>2026-05-01T09:47:18.037Z</time></trkpt><trkpt lat="42.184144" lon="13.6584235"><ele>687.0</ele><time>2026-05-01T09:47:19.038Z</time></trkpt><trkpt lat="42.1839887" lon="13.6585497"><ele>688.0</ele><time>2026-05-01T09:47:20.039Z</time></trkpt><trkpt lat="42.1838294" lon="13.6586573"><ele>689.0</ele><time>2026-05-01T09:47:21.042Z</time></trkpt><trkpt lat="42.183675" lon="13.658749"><ele>686.3333333333333</ele><time>2026-05-01T09:47:22.042Z</time></trkpt><trkpt lat="42.1835273" lon="13.6588299"><ele>683.6666666666666</ele><time>2026-05-01T09:47:23.039Z</time></trkpt><trkpt lat="42.1833799" lon="13.6589135"><ele>681.0</ele><time>2026-05-01T09:47:24.04Z</time></trkpt><trkpt lat="42.1832352" lon="13.6589908"><ele>683.3333333333334</ele><time>2026-05-01T09:47:25.046Z</time></trkpt><trkpt lat="42.1830893" lon="13.6590702"><ele>685.6666666666667</ele><time>2026-05-01T09:47:26.032Z</time></trkpt><trkpt lat="42.1829376" lon="13.6591445"><ele>688.0</ele><time>2026-05-01T09:47:27.035Z</time></trkpt><trkpt lat="42.1827752" lon="13.6592248"><ele>688.0</ele><time>2026-05-01T09:47:28.041Z</time></trkpt><trkpt lat="42.1826134" lon="13.6593117"><ele>688.0</ele><time>2026-05-01T09:47:29.05Z</time></trkpt><trkpt lat="42.1824539" lon="13.6594068"><ele>688.0</ele><time>2026-05-01T09:47:30.039Z</time></trkpt><trkpt lat="42.1822949" lon="13.6595136"><ele>687.0</ele><time>2026-05-01T09:47:31.044Z</time></trkpt><trkpt lat="42.1821338" lon="13.6596348"><ele>686.0</ele><time>2026-05-01T09:47:32.047Z</time></trkpt><trkpt lat="42.1819823" lon="13.6597704"><ele>685.0</ele><time>2026-05-01T09:47:33.037Z</time></trkpt><trkpt lat="42.1818312" lon="13.6599197"><ele>685.0</ele><time>2026-05-01T09:47:34.047Z</time></trkpt><trkpt lat="42.181689" lon="13.6600866"><ele>685.0</ele><time>2026-05-01T09:47:35.042Z</time></trkpt><trkpt lat="42.1815458" lon="13.6602449"><ele>685.0</ele><time>2026-05-01T09:47:36.046Z</time></trkpt><trkpt lat="42.1814078" lon="13.6604048"><ele>686.3333333333334</ele><time>2026-05-01T09:47:37.039Z</time></trkpt><trkpt lat="42.1812699" lon="13.6605697"><ele>687.6666666666666</ele><time>2026-05-01T09:47:38.047Z</time></trkpt><trkpt lat="42.1811422" lon="13.6607419"><ele>689.0</ele><time>2026-05-01T09:47:39.057Z</time></trkpt><trkpt lat="42.1810142" lon="13.6609218"><ele>689.0</ele><time>2026-05-01T09:47:40.041Z</time></trkpt><trkpt lat="42.1808929" lon="13.6611053"><ele>689.0</ele><time>2026-05-01T09:47:41.055Z</time></trkpt><trkpt lat="42.1807715" lon="13.6612787"><ele>689.0</ele><time>2026-05-01T09:47:42.055Z</time></trkpt><trkpt lat="42.1806483" lon="13.6614456"><ele>689.3333333333333</ele><time>2026-05-01T09:47:43.047Z</time></trkpt><trkpt lat="42.180517" lon="13.6615936"><ele>689.6666666666666</ele><time>2026-05-01T09:47:44.071Z</time></trkpt><trkpt lat="42.1803815" lon="13.6617269"><ele>690.0</ele><time>2026-05-01T09:47:45.039Z</time></trkpt><trkpt lat="42.1802512" lon="13.6618435"><ele>687.6666666666666</ele><time>2026-05-01T09:47:46.047Z</time></trkpt><trkpt lat="42.1801261" lon="13.6619531"><ele>685.3333333333333</ele><time>2026-05-01T09:47:47.046Z</time></trkpt><trkpt lat="42.1799985" lon="13.6620709"><ele>683.0</ele><time>2026-05-01T09:47:48.037Z</time></trkpt><trkpt lat="42.1798798" lon="13.6621997"><ele>684.0</ele><time>2026-05-01T09:47:49.037Z</time></trkpt><trkpt lat="42.1797643" lon="13.6623399"><ele>685.0</ele><time>2026-05-01T09:47:50.037Z</time></trkpt><trkpt lat="42.1796533" lon="13.6624863"><ele>686.0</ele><time>2026-05-01T09:47:51.043Z</time></trkpt><trkpt lat="42.1795437" lon="13.6626404"><ele>686.25</ele><time>2026-05-01T09:47:52.043Z</time></trkpt><trkpt lat="42.1794341" lon="13.6627895"><ele>686.5</ele><time>2026-05-01T09:47:53.059Z</time></trkpt><trkpt lat="42.1793377" lon="13.6629206"><ele>686.75</ele><time>2026-05-01T09:47:54.045Z</time></trkpt><trkpt lat="42.1792573" lon="13.6630413"><ele>687.0</ele><time>2026-05-01T09:47:55.045Z</time></trkpt><trkpt lat="42.1791888" lon="13.6631386"><ele>687.0</ele><time>2026-05-01T09:47:56.043Z</time></trkpt><trkpt lat="42.179129" lon="13.6632243"><ele>687.0</ele><time>2026-05-01T09:47:57.042Z</time></trkpt><trkpt lat="42.1790789" lon="13.6633008"><ele>687.0</ele><time>2026-05-01T09:47:58.039Z</time></trkpt><trkpt lat="42.1790481" lon="13.6633768"><ele>687.0</ele><time>2026-05-01T09:47:59.056Z</time></trkpt><trkpt lat="42.1790385" lon="13.6634746"><ele>687.0</ele><time>2026-05-01T09:48:00.029Z</time></trkpt><trkpt lat="42.1790481" lon="13.6635793"><ele>687.0</ele><time>2026-05-01T09:48:01.043Z</time></trkpt><trkpt lat="42.1790782" lon="13.6636822"><ele>687.4000000000001</ele><time>2026-05-01T09:48:02.045Z</time></trkpt><trkpt lat="42.1791253" lon="13.6637968"><ele>687.8000000000001</ele><time>2026-05-01T09:48:03.039Z</time></trkpt><trkpt lat="42.1791819" lon="13.6639171"><ele>688.2</ele><time>2026-05-01T09:48:04.043Z</time></trkpt><trkpt lat="42.1792442" lon="13.6640475"><ele>688.6</ele><time>2026-05-01T09:48:05.05Z</time></trkpt><trkpt lat="42.179311" lon="13.6641837"><ele>689.0</ele><time>2026-05-01T09:48:06.038Z</time></trkpt><trkpt lat="42.1793799" lon="13.6643298"><ele>689.75</ele><time>2026-05-01T09:48:07.064Z</time></trkpt><trkpt lat="42.1794453" lon="13.6644703"><ele>690.5</ele><time>2026-05-01T09:48:08.034Z</time></trkpt><trkpt lat="42.1795084" lon="13.6646126"><ele>691.25</ele><time>2026-05-01T09:48:09.043Z</time></trkpt><trkpt lat="42.1795686" lon="13.6647496"><ele>692.0</ele><time>2026-05-01T09:48:10.04Z</time></trkpt><trkpt lat="42.1796226" lon="13.6648753"><ele>692.0</ele><time>2026-05-01T09:48:11.039Z</time></trkpt><trkpt lat="42.1796675" lon="13.6650009"><ele>692.0</ele><time>2026-05-01T09:48:12.059Z</time></trkpt><trkpt lat="42.1797009" lon="13.6651358"><ele>692.0</ele><time>2026-05-01T09:48:13.044Z</time></trkpt><trkpt lat="42.1797206" lon="13.6652753"><ele>692.0</ele><time>2026-05-01T09:48:14.048Z</time></trkpt><trkpt lat="42.179744" lon="13.6654253"><ele>692.0</ele><time>2026-05-01T09:48:15.038Z</time></trkpt><trkpt lat="42.179764" lon="13.6655854"><ele>692.25</ele><time>2026-05-01T09:48:16.045Z</time></trkpt><trkpt lat="42.1797792" lon="13.6657501"><ele>692.5</ele><time>2026-05-01T09:48:17.039Z</time></trkpt><trkpt lat="42.1797956" lon="13.6659147"><ele>692.75</ele><time>2026-05-01T09:48:18.043Z</time></trkpt><trkpt lat="42.1798075" lon="13.6660886"><ele>693.0</ele><time>2026-05-01T09:48:19.04Z</time></trkpt><trkpt lat="42.1798138" lon="13.6662687"><ele>693.0</ele><time>2026-05-01T09:48:20.058Z</time></trkpt><trkpt lat="42.1798157" lon="13.6664459"><ele>693.0</ele><time>2026-05-01T09:48:21.032Z</time></trkpt><trkpt lat="42.179816" lon="13.6666283"><ele>693.0</ele><time>2026-05-01T09:48:22.039Z</time></trkpt><trkpt lat="42.1798088" lon="13.6668058"><ele>693.0</ele><time>2026-05-01T09:48:23.046Z</time></trkpt><trkpt lat="42.179806" lon="13.6669765"><ele>692.5999999999999</ele><time>2026-05-01T09:48:24.039Z</time></trkpt><trkpt lat="42.1797979" lon="13.6671322"><ele>692.1999999999999</ele><time>2026-05-01T09:48:25.038Z</time></trkpt><trkpt lat="42.179785" lon="13.6672771"><ele>691.8</ele><time>2026-05-01T09:48:26.067Z</time></trkpt><trkpt lat="42.1797855" lon="13.6674125"><ele>691.4</ele><time>2026-05-01T09:48:27.049Z</time></trkpt><trkpt lat="42.1798049" lon="13.6675452"><ele>691.0</ele><time>2026-05-01T09:48:28.039Z</time></trkpt><trkpt lat="42.1798442" lon="13.6676627"><ele>689.8</ele><time>2026-05-01T09:48:29.054Z</time></trkpt><trkpt lat="42.1798977" lon="13.6677746"><ele>688.5999999999999</ele><time>2026-05-01T09:48:30.045Z</time></trkpt><trkpt lat="42.1799583" lon="13.6678918"><ele>687.4</ele><time>2026-05-01T09:48:31.048Z</time></trkpt><trkpt lat="42.1800252" lon="13.6680028"><ele>686.2</ele><time>2026-05-01T09:48:32.04Z</time></trkpt><trkpt lat="42.1800844" lon="13.6681102"><ele>685.0</ele><time>2026-05-01T09:48:33.044Z</time></trkpt><trkpt lat="42.1801411" lon="13.6682227"><ele>684.6</ele><time>2026-05-01T09:48:34.04Z</time></trkpt><trkpt lat="42.1801928" lon="13.6683343"><ele>684.2</ele><time>2026-05-01T09:48:35.054Z</time></trkpt><trkpt lat="42.1802411" lon="13.6684348"><ele>683.8</ele><time>2026-05-01T09:48:36.034Z</time></trkpt><trkpt lat="42.1802937" lon="13.6685262"><ele>683.4</ele><time>2026-05-01T09:48:37.042Z</time></trkpt><trkpt lat="42.1803408" lon="13.6685969"><ele>683.0</ele><time>2026-05-01T09:48:38.049Z</time></trkpt><trkpt lat="42.1804436" lon="13.6686815"><ele>683.0</ele><time>2026-05-01T09:48:40.05Z</time></trkpt><trkpt lat="42.1805538" lon="13.6686687"><ele>683.0</ele><time>2026-05-01T09:48:42.048Z</time></trkpt><trkpt lat="42.1806143" lon="13.6686242"><ele>683.0</ele><time>2026-05-01T09:48:43.034Z</time></trkpt><trkpt lat="42.1806753" lon="13.6685764"><ele>683.0</ele><time>2026-05-01T09:48:44.043Z</time></trkpt><trkpt lat="42.1807365" lon="13.6685271"><ele>683.0</ele><time>2026-05-01T09:48:45.041Z</time></trkpt><trkpt lat="42.1807976" lon="13.6684838"><ele>683.0</ele><time>2026-05-01T09:48:46.038Z</time></trkpt><trkpt lat="42.1808588" lon="13.6684366"><ele>682.4285714285714</ele><time>2026-05-01T09:48:47.05Z</time></trkpt><trkpt lat="42.1809175" lon="13.66839"><ele>681.8571428571429</ele><time>2026-05-01T09:48:48.041Z</time></trkpt><trkpt lat="42.1809772" lon="13.6683444"><ele>681.2857142857142</ele><time>2026-05-01T09:48:49.076Z</time></trkpt><trkpt lat="42.1810327" lon="13.6682957"><ele>680.7142857142858</ele><time>2026-05-01T09:48:50.038Z</time></trkpt><trkpt lat="42.1810935" lon="13.6682532"><ele>680.1428571428571</ele><time>2026-05-01T09:48:51.046Z</time></trkpt><trkpt lat="42.1811536" lon="13.6682118"><ele>679.5714285714286</ele><time>2026-05-01T09:48:52.045Z</time></trkpt><trkpt lat="42.1812542" lon="13.6681797"><ele>679.0</ele><time>2026-05-01T09:48:54.051Z</time></trkpt><trkpt lat="42.1813535" lon="13.668211"><ele>679.0</ele><time>2026-05-01T09:48:56.043Z</time></trkpt><trkpt lat="42.1814633" lon="13.6682531"><ele>679.0</ele><time>2026-05-01T09:48:58.032Z</time></trkpt><trkpt lat="42.1815734" lon="13.6682936"><ele>679.0</ele><time>2026-05-01T09:49:00.038Z</time></trkpt><trkpt lat="42.1816864" lon="13.6683227"><ele>679.0</ele><time>2026-05-01T09:49:02.039Z</time></trkpt><trkpt lat="42.1817884" lon="13.6683349"><ele>679.0</ele><time>2026-05-01T09:49:04.041Z</time></trkpt><trkpt lat="42.1818942" lon="13.6683268"><ele>679.0</ele><time>2026-05-01T09:49:06.034Z</time></trkpt><trkpt lat="42.18199" lon="13.6683244"><ele>679.0</ele><time>2026-05-01T09:49:08.034Z</time></trkpt><trkpt lat="42.1820778" lon="13.6683022"><ele>679.0</ele><time>2026-05-01T09:49:10.037Z</time></trkpt><trkpt lat="42.1821719" lon="13.6682614"><ele>679.0</ele><time>2026-05-01T09:49:12.026Z</time></trkpt><trkpt lat="42.1822691" lon="13.6681999"><ele>679.0</ele><time>2026-05-01T09:49:14.037Z</time></trkpt><trkpt lat="42.1823592" lon="13.6681367"><ele>679.2</ele><time>2026-05-01T09:49:16.037Z</time></trkpt><trkpt lat="42.1824553" lon="13.6680627"><ele>679.4000000000001</ele><time>2026-05-01T09:49:18.036Z</time></trkpt><trkpt lat="42.1825555" lon="13.668018"><ele>679.6</ele><time>2026-05-01T09:49:20.039Z</time></trkpt><trkpt lat="42.1826611" lon="13.6679437"><ele>679.8</ele><time>2026-05-01T09:49:22.042Z</time></trkpt><trkpt lat="42.1827196" lon="13.6679078"><ele>680.0</ele><time>2026-05-01T09:49:23.047Z</time></trkpt><trkpt lat="42.1827789" lon="13.6678765"><ele>680.0</ele><time>2026-05-01T09:49:24.041Z</time></trkpt><trkpt lat="42.1828412" lon="13.6678582"><ele>680.0</ele><time>2026-05-01T09:49:25.03Z</time></trkpt><trkpt lat="42.1829535" lon="13.6678064"><ele>680.0</ele><time>2026-05-01T09:49:27.035Z</time></trkpt><trkpt lat="42.1830629" lon="13.6677733"><ele>680.0</ele><time>2026-05-01T09:49:29.037Z</time></trkpt><trkpt lat="42.1831724" lon="13.6677809"><ele>680.0</ele><time>2026-05-01T09:49:31.029Z</time></trkpt><trkpt lat="42.1832708" lon="13.6678313"><ele>679.6</ele><time>2026-05-01T09:49:33.035Z</time></trkpt><trkpt lat="42.1833601" lon="13.6679174"><ele>679.2</ele><time>2026-05-01T09:49:35.044Z</time></trkpt><trkpt lat="42.1834392" lon="13.6680102"><ele>678.8</ele><time>2026-05-01T09:49:37.035Z</time></trkpt><trkpt lat="42.1835223" lon="13.6681035"><ele>678.4</ele><time>2026-05-01T09:49:39.039Z</time></trkpt><trkpt lat="42.1835834" lon="13.6681988"><ele>678.0</ele><time>2026-05-01T09:49:41.043Z</time></trkpt><trkpt lat="42.1836333" lon="13.6682839"><ele>678.0</ele><time>2026-05-01T09:49:43.025Z</time></trkpt><trkpt lat="42.1836738" lon="13.6683755"><ele>678.0</ele><time>2026-05-01T09:49:45.029Z</time></trkpt><trkpt lat="42.1837159" lon="13.6684815"><ele>678.0</ele><time>2026-05-01T09:49:47.044Z</time></trkpt><trkpt lat="42.1837505" lon="13.6686013"><ele>678.0</ele><time>2026-05-01T09:49:49.037Z</time></trkpt><trkpt lat="42.1837655" lon="13.668701"><ele>678.0</ele><time>2026-05-01T09:49:51.037Z</time></trkpt><trkpt lat="42.1837786" lon="13.6687848"><ele>678.0</ele><time>2026-05-01T09:49:56.029Z</time></trkpt><trkpt lat="42.1837756" lon="13.6688743"><ele>678.0</ele><time>2026-05-01T09:50:20.029Z</time></trkpt><trkpt lat="42.1837904" lon="13.6689571"><ele>678.0</ele><time>2026-05-01T09:50:22.046Z</time></trkpt><trkpt lat="42.1838142" lon="13.6690526"><ele>678.0</ele><time>2026-05-01T09:50:24.04Z</time></trkpt><trkpt lat="42.183846" lon="13.6691801"><ele>678.0</ele><time>2026-05-01T09:50:26.041Z</time></trkpt><trkpt lat="42.1838675" lon="13.6692905"><ele>678.0</ele><time>2026-05-01T09:50:28.044Z</time></trkpt><trkpt lat="42.1838952" lon="13.6694079"><ele>678.0</ele><time>2026-05-01T09:50:31.043Z</time></trkpt><trkpt lat="42.1839071" lon="13.6694925"><ele>678.0</ele><time>2026-05-01T09:50:33.039Z</time></trkpt><trkpt lat="42.1839182" lon="13.6695824"><ele>678.0</ele><time>2026-05-01T09:50:35.047Z</time></trkpt><trkpt lat="42.1839296" lon="13.6696712"><ele>678.0</ele><time>2026-05-01T09:50:37.043Z</time></trkpt><trkpt lat="42.1839471" lon="13.669758"><ele>678.0</ele><time>2026-05-01T09:50:39.041Z</time></trkpt><trkpt lat="42.1839737" lon="13.6698444"><ele>678.0</ele><time>2026-05-01T09:50:41.048Z</time></trkpt><trkpt lat="42.183996" lon="13.669924"><ele>678.0</ele><time>2026-05-01T09:50:43.034Z</time></trkpt><trkpt lat="42.1840412" lon="13.6700393"><ele>678.0</ele><time>2026-05-01T09:50:46.035Z</time></trkpt><trkpt lat="42.1840743" lon="13.6701388"><ele>677.0</ele><time>2026-05-01T09:50:48.033Z</time></trkpt><trkpt lat="42.1841187" lon="13.6702178"><ele>676.0</ele><time>2026-05-01T09:50:50.034Z</time></trkpt><trkpt lat="42.1841787" lon="13.6702821"><ele>675.0</ele><time>2026-05-01T09:50:52.039Z</time></trkpt><trkpt lat="42.1842473" lon="13.6703109"><ele>674.0</ele><time>2026-05-01T09:50:54.044Z</time></trkpt><trkpt lat="42.1843169" lon="13.6703188"><ele>673.0</ele><time>2026-05-01T09:50:56.044Z</time></trkpt><trkpt lat="42.1843921" lon="13.670328"><ele>672.0</ele><time>2026-05-01T09:50:58.048Z</time></trkpt><trkpt lat="42.1844676" lon="13.6703487"><ele>671.0</ele><time>2026-05-01T09:51:00.039Z</time></trkpt><trkpt lat="42.1845494" lon="13.6703875"><ele>671.0</ele><time>2026-05-01T09:51:03.043Z</time></trkpt><trkpt lat="42.1846129" lon="13.6704237"><ele>671.0</ele><time>2026-05-01T09:51:05.04Z</time></trkpt><trkpt lat="42.1846817" lon="13.6704615"><ele>671.0</ele><time>2026-05-01T09:51:07.04Z</time></trkpt><trkpt lat="42.1847565" lon="13.6704796"><ele>671.0</ele><time>2026-05-01T09:51:09.053Z</time></trkpt><trkpt lat="42.1848412" lon="13.6704911"><ele>671.0</ele><time>2026-05-01T09:51:11.037Z</time></trkpt><trkpt lat="42.1849334" lon="13.6705003"><ele>671.0</ele><time>2026-05-01T09:51:13.029Z</time></trkpt><trkpt lat="42.1850186" lon="13.6705299"><ele>668.8333333333333</ele><time>2026-05-01T09:51:15.041Z</time></trkpt><trkpt lat="42.1851052" lon="13.6705701"><ele>666.6666666666666</ele><time>2026-05-01T09:51:17.027Z</time></trkpt><trkpt lat="42.185188" lon="13.6706219"><ele>664.5</ele><time>2026-05-01T09:51:19.029Z</time></trkpt><trkpt lat="42.1852578" lon="13.6706667"><ele>662.3333333333334</ele><time>2026-05-01T09:51:21.031Z</time></trkpt><trkpt lat="42.1853267" lon="13.6707132"><ele>660.1666666666667</ele><time>2026-05-01T09:51:23.038Z</time></trkpt><trkpt lat="42.1853948" lon="13.6707576"><ele>658.0</ele><time>2026-05-01T09:51:25.038Z</time></trkpt><trkpt lat="42.1854723" lon="13.6708035"><ele>658.0</ele><time>2026-05-01T09:51:27.04Z</time></trkpt><trkpt lat="42.1855497" lon="13.6708605"><ele>658.0</ele><time>2026-05-01T09:51:29.053Z</time></trkpt><trkpt lat="42.1856114" lon="13.6709173"><ele>658.0</ele><time>2026-05-01T09:51:31.04Z</time></trkpt><trkpt lat="42.185673" lon="13.6709721"><ele>658.0</ele><time>2026-05-01T09:51:33.033Z</time></trkpt><trkpt lat="42.1857505" lon="13.6710182"><ele>658.0</ele><time>2026-05-01T09:51:35.026Z</time></trkpt><trkpt lat="42.1858284" lon="13.6710516"><ele>658.0</ele><time>2026-05-01T09:51:37.039Z</time></trkpt><trkpt lat="42.1859118" lon="13.6710752"><ele>655.5</ele><time>2026-05-01T09:51:39.039Z</time></trkpt><trkpt lat="42.1859847" lon="13.6710889"><ele>653.0</ele><time>2026-05-01T09:51:41.034Z</time></trkpt><trkpt lat="42.1860578" lon="13.6710914"><ele>650.5</ele><time>2026-05-01T09:51:43.035Z</time></trkpt><trkpt lat="42.1861257" lon="13.6710857"><ele>648.0</ele><time>2026-05-01T09:51:45.06Z</time></trkpt><trkpt lat="42.186218" lon="13.6710937"><ele>645.5</ele><time>2026-05-01T09:51:48.036Z</time></trkpt><trkpt lat="42.1862923" lon="13.6710997"><ele>643.0</ele><time>2026-05-01T09:51:50.048Z</time></trkpt><trkpt lat="42.1863664" lon="13.6711251"><ele>643.0</ele><time>2026-05-01T09:51:52.038Z</time></trkpt><trkpt lat="42.1864234" lon="13.6711626"><ele>643.0</ele><time>2026-05-01T09:51:54.046Z</time></trkpt><trkpt lat="42.1864813" lon="13.6711991"><ele>643.0</ele><time>2026-05-01T09:51:56.043Z</time></trkpt><trkpt lat="42.1865685" lon="13.6712331"><ele>643.0</ele><time>2026-05-01T09:51:59.049Z</time></trkpt><trkpt lat="42.186649" lon="13.6712266"><ele>643.0</ele><time>2026-05-01T09:52:02.039Z</time></trkpt><trkpt lat="42.1867128" lon="13.6711953"><ele>643.0</ele><time>2026-05-01T09:52:04.038Z</time></trkpt><trkpt lat="42.1868047" lon="13.6711639"><ele>640.8333333333334</ele><time>2026-05-01T09:52:06.045Z</time></trkpt><trkpt lat="42.1868962" lon="13.6711293"><ele>638.6666666666667</ele><time>2026-05-01T09:52:08.028Z</time></trkpt><trkpt lat="42.1869683" lon="13.6711015"><ele>636.5</ele><time>2026-05-01T09:52:10.03Z</time></trkpt><trkpt lat="42.1870443" lon="13.6710764"><ele>634.3333333333334</ele><time>2026-05-01T09:52:12.044Z</time></trkpt><trkpt lat="42.1871461" lon="13.6710348"><ele>632.1666666666666</ele><time>2026-05-01T09:52:14.043Z</time></trkpt><trkpt lat="42.1872372" lon="13.6710035"><ele>630.0</ele><time>2026-05-01T09:52:16.044Z</time></trkpt><trkpt lat="42.1873253" lon="13.6709712"><ele>628.2</ele><time>2026-05-01T09:52:18.037Z</time></trkpt><trkpt lat="42.1874264" lon="13.6709282"><ele>626.4</ele><time>2026-05-01T09:52:20.036Z</time></trkpt><trkpt lat="42.1875322" lon="13.6708832"><ele>624.6</ele><time>2026-05-01T09:52:22.029Z</time></trkpt><trkpt lat="42.1876317" lon="13.6708382"><ele>622.8</ele><time>2026-05-01T09:52:24.037Z</time></trkpt><trkpt lat="42.1877197" lon="13.6707869"><ele>621.0</ele><time>2026-05-01T09:52:26.035Z</time></trkpt><trkpt lat="42.1878086" lon="13.6707212"><ele>621.0</ele><time>2026-05-01T09:52:28.048Z</time></trkpt><trkpt lat="42.1878955" lon="13.6706447"><ele>621.0</ele><time>2026-05-01T09:52:30.049Z</time></trkpt><trkpt lat="42.1879862" lon="13.6705667"><ele>621.0</ele><time>2026-05-01T09:52:32.059Z</time></trkpt><trkpt lat="42.188068" lon="13.6704791"><ele>621.0</ele><time>2026-05-01T09:52:34.038Z</time></trkpt><trkpt lat="42.1881388" lon="13.6703945"><ele>621.0</ele><time>2026-05-01T09:52:36.043Z</time></trkpt><trkpt lat="42.1882084" lon="13.6703059"><ele>620.3333333333334</ele><time>2026-05-01T09:52:38.031Z</time></trkpt><trkpt lat="42.1882649" lon="13.6702099"><ele>619.6666666666666</ele><time>2026-05-01T09:52:40.039Z</time></trkpt><trkpt lat="42.1883132" lon="13.6701212"><ele>619.0</ele><time>2026-05-01T09:52:42.04Z</time></trkpt><trkpt lat="42.1883524" lon="13.6700207"><ele>618.3333333333333</ele><time>2026-05-01T09:52:44.07Z</time></trkpt><trkpt lat="42.1884064" lon="13.6699187"><ele>617.6666666666666</ele><time>2026-05-01T09:52:46.059Z</time></trkpt><trkpt lat="42.1884611" lon="13.6698425"><ele>617.0</ele><time>2026-05-01T09:52:48.038Z</time></trkpt><trkpt lat="42.188508" lon="13.6697664"><ele>617.0</ele><time>2026-05-01T09:52:50.046Z</time></trkpt><trkpt lat="42.1885657" lon="13.6696884"><ele>617.0</ele><time>2026-05-01T09:52:52.043Z</time></trkpt><trkpt lat="42.1886347" lon="13.6696125"><ele>617.0</ele><time>2026-05-01T09:52:54.039Z</time></trkpt><trkpt lat="42.1887041" lon="13.669537"><ele>617.0</ele><time>2026-05-01T09:52:56.047Z</time></trkpt><trkpt lat="42.1887836" lon="13.6694824"><ele>617.0</ele><time>2026-05-01T09:52:58.046Z</time></trkpt><trkpt lat="42.1888711" lon="13.6694323"><ele>617.0</ele><time>2026-05-01T09:53:00.036Z</time></trkpt><trkpt lat="42.1889657" lon="13.6693868"><ele>616.0</ele><time>2026-05-01T09:53:02.038Z</time></trkpt><trkpt lat="42.1890582" lon="13.6693359"><ele>615.0</ele><time>2026-05-01T09:53:04.036Z</time></trkpt><trkpt lat="42.1891371" lon="13.6692924"><ele>614.0</ele><time>2026-05-01T09:53:06.041Z</time></trkpt><trkpt lat="42.1891838" lon="13.6692168"><ele>613.0</ele><time>2026-05-01T09:53:08.036Z</time></trkpt><trkpt lat="42.1892104" lon="13.6691287"><ele>612.0</ele><time>2026-05-01T09:53:10.036Z</time></trkpt><trkpt lat="42.189245" lon="13.6690276"><ele>611.0</ele><time>2026-05-01T09:53:13.057Z</time></trkpt><trkpt lat="42.1892785" lon="13.6689307"><ele>611.0</ele><time>2026-05-01T09:53:16.041Z</time></trkpt><trkpt lat="42.1893242" lon="13.6688485"><ele>611.0</ele><time>2026-05-01T09:53:19.045Z</time></trkpt><trkpt lat="42.1893994" lon="13.668767"><ele>611.0</ele><time>2026-05-01T09:53:22.041Z</time></trkpt><trkpt lat="42.1894648" lon="13.6687293"><ele>611.0</ele><time>2026-05-01T09:53:24.057Z</time></trkpt><trkpt lat="42.1895278" lon="13.6687262"><ele>611.0</ele><time>2026-05-01T09:53:26.032Z</time></trkpt><trkpt lat="42.1895996" lon="13.6687561"><ele>611.0</ele><time>2026-05-01T09:53:30.039Z</time></trkpt><trkpt lat="42.1895156" lon="13.6687392"><ele>611.0</ele><time>2026-05-01T10:05:38.043Z</time></trkpt><trkpt lat="42.1894335" lon="13.6687564"><ele>611.0</ele><time>2026-05-01T10:05:40.057Z</time></trkpt><trkpt lat="42.1893529" lon="13.6688145"><ele>611.0</ele><time>2026-05-01T10:05:42.032Z</time></trkpt><trkpt lat="42.1893037" lon="13.6688969"><ele>611.0</ele><time>2026-05-01T10:05:44.037Z</time></trkpt><trkpt lat="42.1892635" lon="13.6689854"><ele>611.0</ele><time>2026-05-01T10:05:46.037Z</time></trkpt><trkpt lat="42.1892356" lon="13.6690623"><ele>611.0</ele><time>2026-05-01T10:05:48.031Z</time></trkpt><trkpt lat="42.189189" lon="13.6691682"><ele>611.0</ele><time>2026-05-01T10:05:51.037Z</time></trkpt><trkpt lat="42.189151" lon="13.6692523"><ele>611.0</ele><time>2026-05-01T10:05:53.043Z</time></trkpt><trkpt lat="42.1890815" lon="13.6692921"><ele>611.0</ele><time>2026-05-01T10:05:55.036Z</time></trkpt><trkpt lat="42.1890093" lon="13.6693291"><ele>611.0</ele><time>2026-05-01T10:05:57.039Z</time></trkpt><trkpt lat="42.1889336" lon="13.6693628"><ele>611.0</ele><time>2026-05-01T10:05:59.044Z</time></trkpt><trkpt lat="42.1888591" lon="13.6694037"><ele>611.0</ele><time>2026-05-01T10:06:01.045Z</time></trkpt><trkpt lat="42.1887888" lon="13.6694431"><ele>612.0</ele><time>2026-05-01T10:06:03.035Z</time></trkpt><trkpt lat="42.1887181" lon="13.6694901"><ele>613.0</ele><time>2026-05-01T10:06:05.046Z</time></trkpt><trkpt lat="42.1886496" lon="13.6695394"><ele>614.0</ele><time>2026-05-01T10:06:07.04Z</time></trkpt><trkpt lat="42.1885824" lon="13.6696107"><ele>615.0</ele><time>2026-05-01T10:06:09.034Z</time></trkpt><trkpt lat="42.1885286" lon="13.669684"><ele>616.0</ele><time>2026-05-01T10:06:11.046Z</time></trkpt><trkpt lat="42.1884904" lon="13.6697689"><ele>617.0</ele><time>2026-05-01T10:06:13.041Z</time></trkpt><trkpt lat="42.1884325" lon="13.6698635"><ele>617.0</ele><time>2026-05-01T10:06:15.037Z</time></trkpt><trkpt lat="42.1883811" lon="13.6699767"><ele>617.0</ele><time>2026-05-01T10:06:17.047Z</time></trkpt><trkpt lat="42.1883252" lon="13.6700979"><ele>617.0</ele><time>2026-05-01T10:06:19.062Z</time></trkpt><trkpt lat="42.18826" lon="13.6702159"><ele>617.0</ele><time>2026-05-01T10:06:21.035Z</time></trkpt><trkpt lat="42.188172" lon="13.6703376"><ele>617.0</ele><time>2026-05-01T10:06:23.043Z</time></trkpt><trkpt lat="42.1881213" lon="13.6703967"><ele>617.6666666666666</ele><time>2026-05-01T10:06:24.025Z</time></trkpt><trkpt lat="42.18807" lon="13.6704477"><ele>618.3333333333333</ele><time>2026-05-01T10:06:25.038Z</time></trkpt><trkpt lat="42.1880172" lon="13.6704988"><ele>619.0</ele><time>2026-05-01T10:06:26.048Z</time></trkpt><trkpt lat="42.1879667" lon="13.6705516"><ele>619.6666666666666</ele><time>2026-05-01T10:06:27.041Z</time></trkpt><trkpt lat="42.1878612" lon="13.670635"><ele>620.3333333333334</ele><time>2026-05-01T10:06:29.045Z</time></trkpt><trkpt lat="42.1878066" lon="13.6706803"><ele>621.0</ele><time>2026-05-01T10:06:30.048Z</time></trkpt><trkpt lat="42.1876924" lon="13.670762"><ele>621.0</ele><time>2026-05-01T10:06:32.033Z</time></trkpt><trkpt lat="42.187578" lon="13.6708297"><ele>621.0</ele><time>2026-05-01T10:06:34.044Z</time></trkpt><trkpt lat="42.1874695" lon="13.6708745"><ele>621.0</ele><time>2026-05-01T10:06:36.045Z</time></trkpt><trkpt lat="42.1873599" lon="13.6709184"><ele>621.0</ele><time>2026-05-01T10:06:38.044Z</time></trkpt><trkpt lat="42.1872567" lon="13.6709555"><ele>622.6</ele><time>2026-05-01T10:06:40.044Z</time></trkpt><trkpt lat="42.1871586" lon="13.67099"><ele>624.2</ele><time>2026-05-01T10:06:42.044Z</time></trkpt><trkpt lat="42.1870972" lon="13.6710114"><ele>625.8</ele><time>2026-05-01T10:06:43.038Z</time></trkpt><trkpt lat="42.1869878" lon="13.6710505"><ele>627.4</ele><time>2026-05-01T10:06:45.032Z</time></trkpt><trkpt lat="42.1868838" lon="13.6710922"><ele>629.0</ele><time>2026-05-01T10:06:47.04Z</time></trkpt><trkpt lat="42.1867905" lon="13.6711279"><ele>629.1666666666666</ele><time>2026-05-01T10:06:49.048Z</time></trkpt><trkpt lat="42.1866997" lon="13.6711624"><ele>629.3333333333333</ele><time>2026-05-01T10:06:51.048Z</time></trkpt><trkpt lat="42.1866117" lon="13.6711784"><ele>629.5</ele><time>2026-05-01T10:06:53.045Z</time></trkpt><trkpt lat="42.1865303" lon="13.6711715"><ele>629.6666666666666</ele><time>2026-05-01T10:06:55.051Z</time></trkpt><trkpt lat="42.1864496" lon="13.6711288"><ele>629.8333333333334</ele><time>2026-05-01T10:06:57.035Z</time></trkpt><trkpt lat="42.1863643" lon="13.6710796"><ele>630.0</ele><time>2026-05-01T10:06:59.035Z</time></trkpt><trkpt lat="42.1862853" lon="13.6710468"><ele>632.6</ele><time>2026-05-01T10:07:01.04Z</time></trkpt><trkpt lat="42.1861897" lon="13.6710427"><ele>635.2</ele><time>2026-05-01T10:07:03.053Z</time></trkpt><trkpt lat="42.1861067" lon="13.6710371"><ele>637.8</ele><time>2026-05-01T10:07:05.039Z</time></trkpt><trkpt lat="42.1860148" lon="13.6710209"><ele>640.4</ele><time>2026-05-01T10:07:07.039Z</time></trkpt><trkpt lat="42.1859208" lon="13.6710268"><ele>643.0</ele><time>2026-05-01T10:07:09.043Z</time></trkpt><trkpt lat="42.1858223" lon="13.6710127"><ele>643.0</ele><time>2026-05-01T10:07:11.038Z</time></trkpt><trkpt lat="42.1857273" lon="13.6709799"><ele>643.0</ele><time>2026-05-01T10:07:13.038Z</time></trkpt><trkpt lat="42.1856428" lon="13.6709272"><ele>643.0</ele><time>2026-05-01T10:07:15.032Z</time></trkpt><trkpt lat="42.1855745" lon="13.6708844"><ele>643.0</ele><time>2026-05-01T10:07:17.052Z</time></trkpt><trkpt lat="42.1855172" lon="13.6708375"><ele>643.0</ele><time>2026-05-01T10:07:19.05Z</time></trkpt><trkpt lat="42.1854336" lon="13.6707901"><ele>643.0</ele><time>2026-05-01T10:07:21.065Z</time></trkpt><trkpt lat="42.1853633" lon="13.6707217"><ele>645.5</ele><time>2026-05-01T10:07:23.05Z</time></trkpt><trkpt lat="42.1852937" lon="13.6706707"><ele>648.0</ele><time>2026-05-01T10:07:25.049Z</time></trkpt><trkpt lat="42.1852292" lon="13.670619"><ele>650.5</ele><time>2026-05-01T10:07:27.048Z</time></trkpt><trkpt lat="42.1851397" lon="13.6705663"><ele>653.0</ele><time>2026-05-01T10:07:29.038Z</time></trkpt><trkpt lat="42.1850456" lon="13.6705143"><ele>655.5</ele><time>2026-05-01T10:07:31.046Z</time></trkpt><trkpt lat="42.1849574" lon="13.6704888"><ele>658.0</ele><time>2026-05-01T10:07:33.077Z</time></trkpt><trkpt lat="42.1848611" lon="13.6704817"><ele>660.5999999999999</ele><time>2026-05-01T10:07:35.049Z</time></trkpt><trkpt lat="42.1847613" lon="13.6704739"><ele>663.1999999999999</ele><time>2026-05-01T10:07:37.039Z</time></trkpt><trkpt lat="42.1846591" lon="13.6704331"><ele>665.8</ele><time>2026-05-01T10:07:39.078Z</time></trkpt><trkpt lat="42.184564" lon="13.6703677"><ele>668.4</ele><time>2026-05-01T10:07:41.04Z</time></trkpt><trkpt lat="42.1844801" lon="13.6703282"><ele>671.0</ele><time>2026-05-01T10:07:43.03Z</time></trkpt><trkpt lat="42.184395" lon="13.6703242"><ele>671.0</ele><time>2026-05-01T10:07:45.042Z</time></trkpt><trkpt lat="42.1843064" lon="13.6703131"><ele>671.0</ele><time>2026-05-01T10:07:47.049Z</time></trkpt><trkpt lat="42.1842231" lon="13.6703009"><ele>671.0</ele><time>2026-05-01T10:07:49.038Z</time></trkpt><trkpt lat="42.1841513" lon="13.6702658"><ele>671.0</ele><time>2026-05-01T10:07:51.044Z</time></trkpt><trkpt lat="42.1840872" lon="13.6701942"><ele>671.0</ele><time>2026-05-01T10:07:53.035Z</time></trkpt><trkpt lat="42.1840363" lon="13.6700999"><ele>671.0</ele><time>2026-05-01T10:07:55.046Z</time></trkpt><trkpt lat="42.1839972" lon="13.6699989"><ele>672.1999999999999</ele><time>2026-05-01T10:07:57.047Z</time></trkpt><trkpt lat="42.1839576" lon="13.6698958"><ele>673.4</ele><time>2026-05-01T10:07:59.055Z</time></trkpt><trkpt lat="42.1839206" lon="13.6697601"><ele>674.6</ele><time>2026-05-01T10:08:01.034Z</time></trkpt><trkpt lat="42.1838985" lon="13.6696199"><ele>675.8</ele><time>2026-05-01T10:08:03.033Z</time></trkpt><trkpt lat="42.1838766" lon="13.6694866"><ele>677.0</ele><time>2026-05-01T10:08:05.042Z</time></trkpt><trkpt lat="42.1838465" lon="13.6693552"><ele>677.0</ele><time>2026-05-01T10:08:07.031Z</time></trkpt><trkpt lat="42.1838239" lon="13.6692105"><ele>677.0</ele><time>2026-05-01T10:08:09.045Z</time></trkpt><trkpt lat="42.1838103" lon="13.6691224"><ele>677.0</ele><time>2026-05-01T10:08:10.041Z</time></trkpt><trkpt lat="42.183794" lon="13.6689694"><ele>677.0</ele><time>2026-05-01T10:08:12.034Z</time></trkpt><trkpt lat="42.183761" lon="13.6688251"><ele>677.0</ele><time>2026-05-01T10:08:14.046Z</time></trkpt><trkpt lat="42.1837306" lon="13.6686892"><ele>677.2</ele><time>2026-05-01T10:08:16.032Z</time></trkpt><trkpt lat="42.1837043" lon="13.6685583"><ele>677.4000000000001</ele><time>2026-05-01T10:08:18.041Z</time></trkpt><trkpt lat="42.1836604" lon="13.6684196"><ele>677.5999999999999</ele><time>2026-05-01T10:08:20.043Z</time></trkpt><trkpt lat="42.18361" lon="13.6682998"><ele>677.8</ele><time>2026-05-01T10:08:22.035Z</time></trkpt><trkpt lat="42.1835474" lon="13.6681966"><ele>678.0</ele><time>2026-05-01T10:08:24.031Z</time></trkpt><trkpt lat="42.1834831" lon="13.6680999"><ele>678.0</ele><time>2026-05-01T10:08:26.029Z</time></trkpt><trkpt lat="42.1834136" lon="13.6680051"><ele>678.0</ele><time>2026-05-01T10:08:28.038Z</time></trkpt><trkpt lat="42.1833312" lon="13.6679145"><ele>678.0</ele><time>2026-05-01T10:08:30.036Z</time></trkpt><trkpt lat="42.1832466" lon="13.6678261"><ele>678.0</ele><time>2026-05-01T10:08:32.035Z</time></trkpt><trkpt lat="42.183151" lon="13.667757"><ele>678.0</ele><time>2026-05-01T10:08:34.022Z</time></trkpt><trkpt lat="42.1830891" lon="13.6677342"><ele>678.4</ele><time>2026-05-01T10:08:35.034Z</time></trkpt><trkpt lat="42.1829726" lon="13.6677413"><ele>678.8</ele><time>2026-05-01T10:08:37.042Z</time></trkpt><trkpt lat="42.1828648" lon="13.6677936"><ele>679.2</ele><time>2026-05-01T10:08:39.028Z</time></trkpt><trkpt lat="42.1827787" lon="13.6678499"><ele>679.6</ele><time>2026-05-01T10:08:41.034Z</time></trkpt><trkpt lat="42.182719" lon="13.6678869"><ele>680.0</ele><time>2026-05-01T10:08:43.013Z</time></trkpt><trkpt lat="42.1826392" lon="13.6679397"><ele>680.0</ele><time>2026-05-01T10:08:46.033Z</time></trkpt><trkpt lat="42.1825526" lon="13.6679908"><ele>680.0</ele><time>2026-05-01T10:08:49.03Z</time></trkpt><trkpt lat="42.1824703" lon="13.6680513"><ele>680.0</ele><time>2026-05-01T10:08:51.033Z</time></trkpt><trkpt lat="42.1823948" lon="13.6681212"><ele>680.0</ele><time>2026-05-01T10:08:53.03Z</time></trkpt><trkpt lat="42.1823172" lon="13.668175"><ele>680.0</ele><time>2026-05-01T10:08:55.036Z</time></trkpt><trkpt lat="42.1822539" lon="13.6682155"><ele>680.0</ele><time>2026-05-01T10:08:57.018Z</time></trkpt><trkpt lat="42.1821796" lon="13.6682552"><ele>679.8333333333333</ele><time>2026-05-01T10:08:59.038Z</time></trkpt><trkpt lat="42.1821124" lon="13.6682869"><ele>679.6666666666666</ele><time>2026-05-01T10:09:01.031Z</time></trkpt><trkpt lat="42.1820219" lon="13.66831"><ele>679.5</ele><time>2026-05-01T10:09:04.029Z</time></trkpt><trkpt lat="42.1819441" lon="13.6683297"><ele>679.3333333333334</ele><time>2026-05-01T10:09:06.032Z</time></trkpt><trkpt lat="42.1818623" lon="13.6683169"><ele>679.1666666666667</ele><time>2026-05-01T10:09:08.038Z</time></trkpt><trkpt lat="42.1817764" lon="13.6683221"><ele>679.0</ele><time>2026-05-01T10:09:10.043Z</time></trkpt><trkpt lat="42.1816878" lon="13.6682944"><ele>679.0</ele><time>2026-05-01T10:09:12.04Z</time></trkpt><trkpt lat="42.1815842" lon="13.6682578"><ele>679.0</ele><time>2026-05-01T10:09:14.036Z</time></trkpt><trkpt lat="42.1814891" lon="13.6682328"><ele>679.0</ele><time>2026-05-01T10:09:16.033Z</time></trkpt><trkpt lat="42.1814004" lon="13.6682118"><ele>679.0</ele><time>2026-05-01T10:09:18.026Z</time></trkpt><trkpt lat="42.1813207" lon="13.6681871"><ele>679.0</ele><time>2026-05-01T10:09:20.042Z</time></trkpt><trkpt lat="42.1812378" lon="13.668173"><ele>679.0</ele><time>2026-05-01T10:09:22.035Z</time></trkpt><trkpt lat="42.1811487" lon="13.6682058"><ele>679.0</ele><time>2026-05-01T10:09:24.034Z</time></trkpt><trkpt lat="42.1810536" lon="13.6682793"><ele>679.0</ele><time>2026-05-01T10:09:26.037Z</time></trkpt><trkpt lat="42.1809503" lon="13.6683604"><ele>679.0</ele><time>2026-05-01T10:09:28.052Z</time></trkpt><trkpt lat="42.1808317" lon="13.668462"><ele>679.0</ele><time>2026-05-01T10:09:30.043Z</time></trkpt><trkpt lat="42.1807591" lon="13.6685241"><ele>679.0</ele><time>2026-05-01T10:09:31.055Z</time></trkpt><trkpt lat="42.1806856" lon="13.6685992"><ele>679.0</ele><time>2026-05-01T10:09:32.041Z</time></trkpt><trkpt lat="42.1806074" lon="13.6686562"><ele>679.0</ele><time>2026-05-01T10:09:33.046Z</time></trkpt><trkpt lat="42.1805218" lon="13.6686804"><ele>679.0</ele><time>2026-05-01T10:09:34.042Z</time></trkpt><trkpt lat="42.180426" lon="13.6686781"><ele>679.8000000000001</ele><time>2026-05-01T10:09:35.04Z</time></trkpt><trkpt lat="42.1803515" lon="13.6686253"><ele>680.6</ele><time>2026-05-01T10:09:36.033Z</time></trkpt><trkpt lat="42.1802916" lon="13.6685329"><ele>681.4</ele><time>2026-05-01T10:09:37.042Z</time></trkpt><trkpt lat="42.1802411" lon="13.6684205"><ele>682.2</ele><time>2026-05-01T10:09:38.041Z</time></trkpt><trkpt lat="42.1801857" lon="13.6683039"><ele>683.0</ele><time>2026-05-01T10:09:39.056Z</time></trkpt><trkpt lat="42.1801289" lon="13.6681926"><ele>683.0</ele><time>2026-05-01T10:09:40.023Z</time></trkpt><trkpt lat="42.1800648" lon="13.668077"><ele>683.0</ele><time>2026-05-01T10:09:41.024Z</time></trkpt><trkpt lat="42.1800025" lon="13.6679625"><ele>683.0</ele><time>2026-05-01T10:09:42.044Z</time></trkpt><trkpt lat="42.17995" lon="13.6678602"><ele>683.0</ele><time>2026-05-01T10:09:43.046Z</time></trkpt><trkpt lat="42.1799065" lon="13.6677787"><ele>683.0</ele><time>2026-05-01T10:09:44.045Z</time></trkpt><trkpt lat="42.1798631" lon="13.6676871"><ele>684.5999999999999</ele><time>2026-05-01T10:09:45.036Z</time></trkpt><trkpt lat="42.179833" lon="13.6675727"><ele>686.1999999999999</ele><time>2026-05-01T10:09:46.038Z</time></trkpt><trkpt lat="42.1798087" lon="13.6674466"><ele>687.8</ele><time>2026-05-01T10:09:47.037Z</time></trkpt><trkpt lat="42.1797963" lon="13.6673137"><ele>689.4</ele><time>2026-05-01T10:09:48.034Z</time></trkpt><trkpt lat="42.1798059" lon="13.6671676"><ele>691.0</ele><time>2026-05-01T10:09:49.031Z</time></trkpt><trkpt lat="42.1798143" lon="13.6670251"><ele>691.4</ele><time>2026-05-01T10:09:50.038Z</time></trkpt><trkpt lat="42.1798186" lon="13.6668814"><ele>691.8</ele><time>2026-05-01T10:09:51.047Z</time></trkpt><trkpt lat="42.1798169" lon="13.6667359"><ele>692.1999999999999</ele><time>2026-05-01T10:09:52.04Z</time></trkpt><trkpt lat="42.1798114" lon="13.6665884"><ele>692.5999999999999</ele><time>2026-05-01T10:09:53.044Z</time></trkpt><trkpt lat="42.1798025" lon="13.6664377"><ele>693.0</ele><time>2026-05-01T10:09:54.054Z</time></trkpt><trkpt lat="42.1798" lon="13.6662802"><ele>693.0</ele><time>2026-05-01T10:09:55.042Z</time></trkpt><trkpt lat="42.1797969" lon="13.6661149"><ele>693.0</ele><time>2026-05-01T10:09:56.038Z</time></trkpt><trkpt lat="42.1797921" lon="13.6659433"><ele>693.0</ele><time>2026-05-01T10:09:57.039Z</time></trkpt><trkpt lat="42.1797851" lon="13.6657704"><ele>693.0</ele><time>2026-05-01T10:09:58.031Z</time></trkpt><trkpt lat="42.1797705" lon="13.6655987"><ele>693.25</ele><time>2026-05-01T10:09:59.042Z</time></trkpt><trkpt lat="42.1797499" lon="13.6654303"><ele>693.5</ele><time>2026-05-01T10:10:00.044Z</time></trkpt><trkpt lat="42.1797231" lon="13.6652729"><ele>693.75</ele><time>2026-05-01T10:10:01.035Z</time></trkpt><trkpt lat="42.1796918" lon="13.6651253"><ele>694.0</ele><time>2026-05-01T10:10:02.03Z</time></trkpt><trkpt lat="42.1796506" lon="13.6649757"><ele>693.5</ele><time>2026-05-01T10:10:03.044Z</time></trkpt><trkpt lat="42.1796009" lon="13.6648333"><ele>693.0</ele><time>2026-05-01T10:10:04.028Z</time></trkpt><trkpt lat="42.1795482" lon="13.6646952"><ele>692.5</ele><time>2026-05-01T10:10:05.042Z</time></trkpt><trkpt lat="42.1794917" lon="13.664563"><ele>692.0</ele><time>2026-05-01T10:10:06.048Z</time></trkpt><trkpt lat="42.179432" lon="13.6644284"><ele>691.4000000000001</ele><time>2026-05-01T10:10:07.03Z</time></trkpt><trkpt lat="42.1793706" lon="13.6642897"><ele>690.8000000000001</ele><time>2026-05-01T10:10:08.041Z</time></trkpt><trkpt lat="42.1793085" lon="13.6641566"><ele>690.2</ele><time>2026-05-01T10:10:09.039Z</time></trkpt><trkpt lat="42.1792539" lon="13.664029"><ele>689.6</ele><time>2026-05-01T10:10:10.043Z</time></trkpt><trkpt lat="42.1792003" lon="13.6639114"><ele>689.0</ele><time>2026-05-01T10:10:11.048Z</time></trkpt><trkpt lat="42.1791516" lon="13.6637994"><ele>689.0</ele><time>2026-05-01T10:10:12.038Z</time></trkpt><trkpt lat="42.1791139" lon="13.6637007"><ele>689.0</ele><time>2026-05-01T10:10:13.045Z</time></trkpt><trkpt lat="42.1790862" lon="13.6636212"><ele>689.0</ele><time>2026-05-01T10:10:14.036Z</time></trkpt><trkpt lat="42.1790341" lon="13.6635244"><ele>689.0</ele><time>2026-05-01T10:10:16.057Z</time></trkpt><trkpt lat="42.1789436" lon="13.6634999"><ele>689.0</ele><time>2026-05-01T10:10:18.037Z</time></trkpt><trkpt lat="42.1788414" lon="13.6635844"><ele>689.0</ele><time>2026-05-01T10:10:20.031Z</time></trkpt><trkpt lat="42.1787772" lon="13.6636657"><ele>690.25</ele><time>2026-05-01T10:10:21.077Z</time></trkpt><trkpt lat="42.1786972" lon="13.6637575"><ele>691.5</ele><time>2026-05-01T10:10:22.038Z</time></trkpt><trkpt lat="42.1786118" lon="13.6638582"><ele>692.75</ele><time>2026-05-01T10:10:23.04Z</time></trkpt><trkpt lat="42.1785208" lon="13.6639463"><ele>694.0</ele><time>2026-05-01T10:10:24.039Z</time></trkpt><trkpt lat="42.1784167" lon="13.6640311"><ele>694.0</ele><time>2026-05-01T10:10:25.046Z</time></trkpt><trkpt lat="42.1783124" lon="13.6641104"><ele>694.0</ele><time>2026-05-01T10:10:26.055Z</time></trkpt><trkpt lat="42.1782148" lon="13.6641816"><ele>694.0</ele><time>2026-05-01T10:10:27.041Z</time></trkpt><trkpt lat="42.1781152" lon="13.6642576"><ele>694.0</ele><time>2026-05-01T10:10:28.039Z</time></trkpt><trkpt lat="42.1780128" lon="13.6643315"><ele>695.0</ele><time>2026-05-01T10:10:29.037Z</time></trkpt><trkpt lat="42.1779028" lon="13.6644076"><ele>696.0</ele><time>2026-05-01T10:10:30.042Z</time></trkpt><trkpt lat="42.1777977" lon="13.6644883"><ele>697.0</ele><time>2026-05-01T10:10:31.038Z</time></trkpt><trkpt lat="42.17769" lon="13.6645671"><ele>698.0</ele><time>2026-05-01T10:10:32.043Z</time></trkpt><trkpt lat="42.1775854" lon="13.6646494"><ele>699.0</ele><time>2026-05-01T10:10:33.043Z</time></trkpt><trkpt lat="42.1774782" lon="13.6647362"><ele>700.0</ele><time>2026-05-01T10:10:34.04Z</time></trkpt><trkpt lat="42.1773749" lon="13.6648319"><ele>701.0</ele><time>2026-05-01T10:10:35.043Z</time></trkpt><trkpt lat="42.1772783" lon="13.6649442"><ele>702.0</ele><time>2026-05-01T10:10:36.032Z</time></trkpt><trkpt lat="42.1771824" lon="13.6650624"><ele>704.25</ele><time>2026-05-01T10:10:37.033Z</time></trkpt><trkpt lat="42.1770957" lon="13.6651902"><ele>706.5</ele><time>2026-05-01T10:10:38.033Z</time></trkpt><trkpt lat="42.1770125" lon="13.6653159"><ele>708.75</ele><time>2026-05-01T10:10:39.032Z</time></trkpt><trkpt lat="42.1769231" lon="13.6654356"><ele>711.0</ele><time>2026-05-01T10:10:40.036Z</time></trkpt><trkpt lat="42.1768326" lon="13.6655423"><ele>711.75</ele><time>2026-05-01T10:10:41.035Z</time></trkpt><trkpt lat="42.1767363" lon="13.6656518"><ele>712.5</ele><time>2026-05-01T10:10:42.034Z</time></trkpt><trkpt lat="42.1766364" lon="13.6657578"><ele>713.25</ele><time>2026-05-01T10:10:43.034Z</time></trkpt><trkpt lat="42.176538" lon="13.6658579"><ele>714.0</ele><time>2026-05-01T10:10:44.04Z</time></trkpt><trkpt lat="42.1764411" lon="13.6659579"><ele>716.75</ele><time>2026-05-01T10:10:45.057Z</time></trkpt><trkpt lat="42.1763539" lon="13.6660642"><ele>719.5</ele><time>2026-05-01T10:10:46.031Z</time></trkpt><trkpt lat="42.176282" lon="13.6661846"><ele>722.25</ele><time>2026-05-01T10:10:47.034Z</time></trkpt><trkpt lat="42.1762209" lon="13.6663179"><ele>725.0</ele><time>2026-05-01T10:10:48.035Z</time></trkpt><trkpt lat="42.1761658" lon="13.6664634"><ele>725.0</ele><time>2026-05-01T10:10:49.036Z</time></trkpt><trkpt lat="42.1761032" lon="13.6666129"><ele>725.0</ele><time>2026-05-01T10:10:50.027Z</time></trkpt><trkpt lat="42.1760366" lon="13.6667635"><ele>725.0</ele><time>2026-05-01T10:10:51.035Z</time></trkpt><trkpt lat="42.1759704" lon="13.666923"><ele>725.0</ele><time>2026-05-01T10:10:52.034Z</time></trkpt><trkpt lat="42.175904" lon="13.6670844"><ele>725.75</ele><time>2026-05-01T10:10:53.042Z</time></trkpt><trkpt lat="42.1758284" lon="13.6672503"><ele>726.5</ele><time>2026-05-01T10:10:54.037Z</time></trkpt><trkpt lat="42.1757552" lon="13.667415"><ele>727.25</ele><time>2026-05-01T10:10:55.05Z</time></trkpt><trkpt lat="42.1756841" lon="13.6675791"><ele>728.0</ele><time>2026-05-01T10:10:56.038Z</time></trkpt><trkpt lat="42.1756119" lon="13.6677378"><ele>727.25</ele><time>2026-05-01T10:10:57.036Z</time></trkpt><trkpt lat="42.1755354" lon="13.6678966"><ele>726.5</ele><time>2026-05-01T10:10:58.047Z</time></trkpt><trkpt lat="42.1754575" lon="13.6680604"><ele>725.75</ele><time>2026-05-01T10:10:59.036Z</time></trkpt><trkpt lat="42.175379" lon="13.6682238"><ele>725.0</ele><time>2026-05-01T10:11:00.049Z</time></trkpt><trkpt lat="42.1753117" lon="13.6683882"><ele>725.0</ele><time>2026-05-01T10:11:01.061Z</time></trkpt><trkpt lat="42.1752585" lon="13.6685324"><ele>725.0</ele><time>2026-05-01T10:11:02.039Z</time></trkpt><trkpt lat="42.1752093" lon="13.6686345"><ele>725.0</ele><time>2026-05-01T10:11:03.041Z</time></trkpt><trkpt lat="42.1751609" lon="13.6687106"><ele>725.0</ele><time>2026-05-01T10:11:04.042Z</time></trkpt><trkpt lat="42.175113" lon="13.6687962"><ele>725.0</ele><time>2026-05-01T10:11:06.03Z</time></trkpt><trkpt lat="42.1750619" lon="13.668907"><ele>724.6</ele><time>2026-05-01T10:11:58.036Z</time></trkpt><trkpt lat="42.1749925" lon="13.6690588"><ele>724.2</ele><time>2026-05-01T10:12:00.032Z</time></trkpt><trkpt lat="42.1749553" lon="13.6691582"><ele>723.8</ele><time>2026-05-01T10:12:01.039Z</time></trkpt><trkpt lat="42.1749137" lon="13.6692556"><ele>723.4</ele><time>2026-05-01T10:12:02.027Z</time></trkpt><trkpt lat="42.1748618" lon="13.6693673"><ele>723.0</ele><time>2026-05-01T10:12:03.033Z</time></trkpt><trkpt lat="42.1748028" lon="13.6694902"><ele>723.0</ele><time>2026-05-01T10:12:04.04Z</time></trkpt><trkpt lat="42.1747463" lon="13.6696235"><ele>723.0</ele><time>2026-05-01T10:12:05.029Z</time></trkpt><trkpt lat="42.1746969" lon="13.6697602"><ele>723.0</ele><time>2026-05-01T10:12:06.027Z</time></trkpt><trkpt lat="42.1746566" lon="13.6698994"><ele>723.0</ele><time>2026-05-01T10:12:07.039Z</time></trkpt><trkpt lat="42.1746207" lon="13.6700407"><ele>723.0</ele><time>2026-05-01T10:12:08.032Z</time></trkpt><trkpt lat="42.1745869" lon="13.6701836"><ele>722.75</ele><time>2026-05-01T10:12:09.047Z</time></trkpt><trkpt lat="42.1745547" lon="13.6703424"><ele>722.5</ele><time>2026-05-01T10:12:10.029Z</time></trkpt><trkpt lat="42.1745241" lon="13.6705106"><ele>722.25</ele><time>2026-05-01T10:12:11.029Z</time></trkpt><trkpt lat="42.174489" lon="13.670695"><ele>722.0</ele><time>2026-05-01T10:12:12.035Z</time></trkpt><trkpt lat="42.1744449" lon="13.6709134"><ele>721.0</ele><time>2026-05-01T10:12:13.036Z</time></trkpt><trkpt lat="42.1744021" lon="13.6711362"><ele>720.0</ele><time>2026-05-01T10:12:14.046Z</time></trkpt><trkpt lat="42.1743671" lon="13.6713501"><ele>719.0</ele><time>2026-05-01T10:12:15.032Z</time></trkpt><trkpt lat="42.1743327" lon="13.6715523"><ele>719.0</ele><time>2026-05-01T10:12:16.035Z</time></trkpt><trkpt lat="42.1743003" lon="13.6717409"><ele>719.0</ele><time>2026-05-01T10:12:17.03Z</time></trkpt><trkpt lat="42.174264" lon="13.6719222"><ele>719.0</ele><time>2026-05-01T10:12:18.037Z</time></trkpt><trkpt lat="42.1742267" lon="13.6721153"><ele>719.0</ele><time>2026-05-01T10:12:19.03Z</time></trkpt><trkpt lat="42.1741896" lon="13.6723098"><ele>718.5</ele><time>2026-05-01T10:12:20.034Z</time></trkpt><trkpt lat="42.1741529" lon="13.6724957"><ele>718.0</ele><time>2026-05-01T10:12:21.037Z</time></trkpt><trkpt lat="42.1741207" lon="13.6726657"><ele>717.5</ele><time>2026-05-01T10:12:22.035Z</time></trkpt><trkpt lat="42.1740896" lon="13.6728249"><ele>717.0</ele><time>2026-05-01T10:12:23.038Z</time></trkpt><trkpt lat="42.174058" lon="13.6729796"><ele>717.0</ele><time>2026-05-01T10:12:24.043Z</time></trkpt><trkpt lat="42.1740316" lon="13.6731444"><ele>717.0</ele><time>2026-05-01T10:12:25.039Z</time></trkpt><trkpt lat="42.1740052" lon="13.6733184"><ele>717.0</ele><time>2026-05-01T10:12:26.03Z</time></trkpt><trkpt lat="42.1739913" lon="13.673497"><ele>717.0</ele><time>2026-05-01T10:12:27.035Z</time></trkpt><trkpt lat="42.1739807" lon="13.6736862"><ele>723.0</ele><time>2026-05-01T10:12:28.035Z</time></trkpt><trkpt lat="42.1739777" lon="13.6738784"><ele>729.0</ele><time>2026-05-01T10:12:29.034Z</time></trkpt><trkpt lat="42.1739714" lon="13.6740706"><ele>735.0</ele><time>2026-05-01T10:12:30.038Z</time></trkpt><trkpt lat="42.1739698" lon="13.6742564"><ele>741.0</ele><time>2026-05-01T10:12:31.03Z</time></trkpt><trkpt lat="42.1739647" lon="13.674438"><ele>741.0</ele><time>2026-05-01T10:12:32.036Z</time></trkpt><trkpt lat="42.1739664" lon="13.6746193"><ele>741.0</ele><time>2026-05-01T10:12:33.038Z</time></trkpt><trkpt lat="42.173973" lon="13.6748071"><ele>741.0</ele><time>2026-05-01T10:12:34.036Z</time></trkpt><trkpt lat="42.1739724" lon="13.6749951"><ele>741.0</ele><time>2026-05-01T10:12:35.037Z</time></trkpt><trkpt lat="42.1739699" lon="13.6751863"><ele>741.25</ele><time>2026-05-01T10:12:36.034Z</time></trkpt><trkpt lat="42.1739683" lon="13.6753786"><ele>741.5</ele><time>2026-05-01T10:12:37.045Z</time></trkpt><trkpt lat="42.1739691" lon="13.6755752"><ele>741.75</ele><time>2026-05-01T10:12:38.031Z</time></trkpt><trkpt lat="42.1739665" lon="13.6757737"><ele>742.0</ele><time>2026-05-01T10:12:39.042Z</time></trkpt><trkpt lat="42.1739638" lon="13.6759775"><ele>740.3333333333334</ele><time>2026-05-01T10:12:40.028Z</time></trkpt><trkpt lat="42.1739639" lon="13.6761805"><ele>738.6666666666666</ele><time>2026-05-01T10:12:41.039Z</time></trkpt><trkpt lat="42.1739649" lon="13.6763809"><ele>737.0</ele><time>2026-05-01T10:12:42.037Z</time></trkpt><trkpt lat="42.1739654" lon="13.6765841"><ele>737.0</ele><time>2026-05-01T10:12:43.03Z</time></trkpt><trkpt lat="42.1739675" lon="13.6767907"><ele>737.0</ele><time>2026-05-01T10:12:44.044Z</time></trkpt><trkpt lat="42.1739644" lon="13.6770083"><ele>737.0</ele><time>2026-05-01T10:12:45.048Z</time></trkpt><trkpt lat="42.1739616" lon="13.6772236"><ele>736.3333333333333</ele><time>2026-05-01T10:12:46.037Z</time></trkpt><trkpt lat="42.1739604" lon="13.6774437"><ele>735.6666666666666</ele><time>2026-05-01T10:12:47.03Z</time></trkpt><trkpt lat="42.1739629" lon="13.6776725"><ele>735.0</ele><time>2026-05-01T10:12:48.024Z</time></trkpt><trkpt lat="42.1739564" lon="13.677899"><ele>735.0</ele><time>2026-05-01T10:12:49.035Z</time></trkpt><trkpt lat="42.1739538" lon="13.6781263"><ele>735.0</ele><time>2026-05-01T10:12:50.04Z</time></trkpt><trkpt lat="42.1739505" lon="13.6783503"><ele>735.0</ele><time>2026-05-01T10:12:51.034Z</time></trkpt><trkpt lat="42.173948" lon="13.6785751"><ele>736.3333333333334</ele><time>2026-05-01T10:12:52.046Z</time></trkpt><trkpt lat="42.1739419" lon="13.6787859"><ele>737.6666666666667</ele><time>2026-05-01T10:12:53.038Z</time></trkpt><trkpt lat="42.1739396" lon="13.6789955"><ele>739.0</ele><time>2026-05-01T10:12:54.034Z</time></trkpt><trkpt lat="42.1739341" lon="13.679202"><ele>739.0</ele><time>2026-05-01T10:12:55.031Z</time></trkpt><trkpt lat="42.1739255" lon="13.679404"><ele>739.0</ele><time>2026-05-01T10:12:56.033Z</time></trkpt><trkpt lat="42.173923" lon="13.6796004"><ele>739.0</ele><time>2026-05-01T10:12:57.036Z</time></trkpt><trkpt lat="42.1739165" lon="13.6797966"><ele>739.0</ele><time>2026-05-01T10:12:58.025Z</time></trkpt><trkpt lat="42.1739102" lon="13.6799892"><ele>740.25</ele><time>2026-05-01T10:12:59.047Z</time></trkpt><trkpt lat="42.1739023" lon="13.680174"><ele>741.5</ele><time>2026-05-01T10:13:00.037Z</time></trkpt><trkpt lat="42.1738996" lon="13.6803553"><ele>742.75</ele><time>2026-05-01T10:13:01.043Z</time></trkpt><trkpt lat="42.1738981" lon="13.6805298"><ele>744.0</ele><time>2026-05-01T10:13:02.045Z</time></trkpt><trkpt lat="42.17389" lon="13.6807001"><ele>744.5</ele><time>2026-05-01T10:13:03.029Z</time></trkpt><trkpt lat="42.1738721" lon="13.6808723"><ele>745.0</ele><time>2026-05-01T10:13:04.044Z</time></trkpt><trkpt lat="42.1738394" lon="13.6810501"><ele>745.5</ele><time>2026-05-01T10:13:05.032Z</time></trkpt><trkpt lat="42.1737958" lon="13.6812375"><ele>746.0</ele><time>2026-05-01T10:13:06.031Z</time></trkpt><trkpt lat="42.1737506" lon="13.6814272"><ele>746.3333333333333</ele><time>2026-05-01T10:13:07.04Z</time></trkpt><trkpt lat="42.1737008" lon="13.6816345"><ele>746.6666666666666</ele><time>2026-05-01T10:13:08.036Z</time></trkpt><trkpt lat="42.1736369" lon="13.6818641"><ele>747.0</ele><time>2026-05-01T10:13:09.026Z</time></trkpt><trkpt lat="42.173562" lon="13.6821252"><ele>745.6666666666666</ele><time>2026-05-01T10:13:10.037Z</time></trkpt><trkpt lat="42.173472" lon="13.6823996"><ele>744.3333333333333</ele><time>2026-05-01T10:13:11.035Z</time></trkpt><trkpt lat="42.1733839" lon="13.6826791"><ele>743.0</ele><time>2026-05-01T10:13:12.031Z</time></trkpt><trkpt lat="42.1733078" lon="13.6829451"><ele>743.0</ele><time>2026-05-01T10:13:13.031Z</time></trkpt><trkpt lat="42.1732327" lon="13.6832096"><ele>743.0</ele><time>2026-05-01T10:13:14.033Z</time></trkpt><trkpt lat="42.1731568" lon="13.6834718"><ele>743.0</ele><time>2026-05-01T10:13:15.048Z</time></trkpt><trkpt lat="42.1730776" lon="13.68372"><ele>749.6666666666666</ele><time>2026-05-01T10:13:16.019Z</time></trkpt><trkpt lat="42.1730064" lon="13.6839606"><ele>756.3333333333334</ele><time>2026-05-01T10:13:17.038Z</time></trkpt><trkpt lat="42.1729314" lon="13.6842021"><ele>763.0</ele><time>2026-05-01T10:13:18.033Z</time></trkpt><trkpt lat="42.1728557" lon="13.6844451"><ele>763.0</ele><time>2026-05-01T10:13:19.037Z</time></trkpt><trkpt lat="42.1727789" lon="13.6846826"><ele>763.0</ele><time>2026-05-01T10:13:20.038Z</time></trkpt><trkpt lat="42.1727039" lon="13.6849228"><ele>763.0</ele><time>2026-05-01T10:13:21.033Z</time></trkpt><trkpt lat="42.1726326" lon="13.6851601"><ele>761.3333333333334</ele><time>2026-05-01T10:13:22.041Z</time></trkpt><trkpt lat="42.1725655" lon="13.6853978"><ele>759.6666666666666</ele><time>2026-05-01T10:13:23.046Z</time></trkpt><trkpt lat="42.1724962" lon="13.6856343"><ele>758.0</ele><time>2026-05-01T10:13:24.04Z</time></trkpt><trkpt lat="42.1724321" lon="13.6858653"><ele>758.0</ele><time>2026-05-01T10:13:25.032Z</time></trkpt><trkpt lat="42.1723736" lon="13.686095"><ele>758.0</ele><time>2026-05-01T10:13:26.038Z</time></trkpt><trkpt lat="42.1723205" lon="13.6863269"><ele>758.0</ele><time>2026-05-01T10:13:27.032Z</time></trkpt><trkpt lat="42.1722677" lon="13.6865594"><ele>767.0</ele><time>2026-05-01T10:13:28.034Z</time></trkpt><trkpt lat="42.1722179" lon="13.6867968"><ele>776.0</ele><time>2026-05-01T10:13:29.035Z</time></trkpt><trkpt lat="42.1721747" lon="13.6870373"><ele>785.0</ele><time>2026-05-01T10:13:30.049Z</time></trkpt><trkpt lat="42.1721291" lon="13.6872813"><ele>785.0</ele><time>2026-05-01T10:13:31.027Z</time></trkpt><trkpt lat="42.1720827" lon="13.6875217"><ele>785.0</ele><time>2026-05-01T10:13:32.032Z</time></trkpt><trkpt lat="42.1720356" lon="13.6877675"><ele>785.0</ele><time>2026-05-01T10:13:33.039Z</time></trkpt><trkpt lat="42.1719882" lon="13.6880075"><ele>783.3333333333334</ele><time>2026-05-01T10:13:34.036Z</time></trkpt><trkpt lat="42.1719438" lon="13.6882416"><ele>781.6666666666667</ele><time>2026-05-01T10:13:35.056Z</time></trkpt><trkpt lat="42.1718994" lon="13.6884669"><ele>780.0</ele><time>2026-05-01T10:13:36.026Z</time></trkpt><trkpt lat="42.1718618" lon="13.6886914"><ele>778.3333333333333</ele><time>2026-05-01T10:13:37.045Z</time></trkpt><trkpt lat="42.1718367" lon="13.6889223"><ele>776.6666666666666</ele><time>2026-05-01T10:13:38.044Z</time></trkpt><trkpt lat="42.1718263" lon="13.6891566"><ele>775.0</ele><time>2026-05-01T10:13:39.041Z</time></trkpt><trkpt lat="42.1718104" lon="13.6893861"><ele>774.75</ele><time>2026-05-01T10:13:40.033Z</time></trkpt><trkpt lat="42.171792" lon="13.6895991"><ele>774.5</ele><time>2026-05-01T10:13:41.01Z</time></trkpt><trkpt lat="42.1717765" lon="13.6897902"><ele>774.25</ele><time>2026-05-01T10:13:42.039Z</time></trkpt><trkpt lat="42.1717699" lon="13.6899715"><ele>774.0</ele><time>2026-05-01T10:13:43.039Z</time></trkpt><trkpt lat="42.171788" lon="13.6901454"><ele>778.0</ele><time>2026-05-01T10:13:44.04Z</time></trkpt><trkpt lat="42.1718388" lon="13.6903016"><ele>782.0</ele><time>2026-05-01T10:13:45.035Z</time></trkpt><trkpt lat="42.1719228" lon="13.6904306"><ele>786.0</ele><time>2026-05-01T10:13:46.027Z</time></trkpt><trkpt lat="42.1720442" lon="13.6905335"><ele>790.0</ele><time>2026-05-01T10:13:47.033Z</time></trkpt><trkpt lat="42.1721819" lon="13.6906099"><ele>790.0</ele><time>2026-05-01T10:13:48.034Z</time></trkpt><trkpt lat="42.1723131" lon="13.6906881"><ele>790.0</ele><time>2026-05-01T10:13:49.037Z</time></trkpt><trkpt lat="42.1724158" lon="13.6907905"><ele>790.0</ele><time>2026-05-01T10:13:50.05Z</time></trkpt><trkpt lat="42.1724863" lon="13.6909512"><ele>790.0</ele><time>2026-05-01T10:13:51.033Z</time></trkpt><trkpt lat="42.172521" lon="13.6911529"><ele>783.6666666666666</ele><time>2026-05-01T10:13:52.033Z</time></trkpt><trkpt lat="42.1725315" lon="13.6913706"><ele>777.3333333333333</ele><time>2026-05-01T10:13:53.03Z</time></trkpt><trkpt lat="42.1725189" lon="13.6915817"><ele>771.0</ele><time>2026-05-01T10:13:54.041Z</time></trkpt><trkpt lat="42.172486" lon="13.6917758"><ele>771.0</ele><time>2026-05-01T10:13:55.025Z</time></trkpt><trkpt lat="42.1724451" lon="13.6919553"><ele>771.0</ele><time>2026-05-01T10:13:56.049Z</time></trkpt><trkpt lat="42.1724194" lon="13.6921303"><ele>771.0</ele><time>2026-05-01T10:13:57.033Z</time></trkpt><trkpt lat="42.1724279" lon="13.6923116"><ele>771.0</ele><time>2026-05-01T10:13:58.05Z</time></trkpt><trkpt lat="42.1724884" lon="13.6924912"><ele>771.0</ele><time>2026-05-01T10:13:59.03Z</time></trkpt><trkpt lat="42.1725722" lon="13.6926562"><ele>771.0</ele><time>2026-05-01T10:14:00.042Z</time></trkpt><trkpt lat="42.1726238" lon="13.692834"><ele>771.0</ele><time>2026-05-01T10:14:01.03Z</time></trkpt><trkpt lat="42.1726377" lon="13.6930348"><ele>771.0</ele><time>2026-05-01T10:14:02.025Z</time></trkpt><trkpt lat="42.1726251" lon="13.6932265"><ele>771.0</ele><time>2026-05-01T10:14:03.066Z</time></trkpt><trkpt lat="42.1725899" lon="13.693415"><ele>771.0</ele><time>2026-05-01T10:14:04.044Z</time></trkpt><trkpt lat="42.17255" lon="13.6936015"><ele>771.0</ele><time>2026-05-01T10:14:05.041Z</time></trkpt><trkpt lat="42.1724925" lon="13.6937848"><ele>771.0</ele><time>2026-05-01T10:14:06.04Z</time></trkpt><trkpt lat="42.1724272" lon="13.6939756"><ele>771.0</ele><time>2026-05-01T10:14:07.042Z</time></trkpt><trkpt lat="42.1723615" lon="13.6941605"><ele>771.0</ele><time>2026-05-01T10:14:08.057Z</time></trkpt><trkpt lat="42.172277" lon="13.6943368"><ele>771.0</ele><time>2026-05-01T10:14:09.05Z</time></trkpt><trkpt lat="42.1721811" lon="13.6945078"><ele>776.3333333333333</ele><time>2026-05-01T10:14:10.049Z</time></trkpt><trkpt lat="42.1720763" lon="13.6946697"><ele>781.6666666666666</ele><time>2026-05-01T10:14:11.037Z</time></trkpt><trkpt lat="42.1719662" lon="13.6948151"><ele>787.0</ele><time>2026-05-01T10:14:12.041Z</time></trkpt><trkpt lat="42.1718473" lon="13.6949489"><ele>787.0</ele><time>2026-05-01T10:14:13.055Z</time></trkpt><trkpt lat="42.1717356" lon="13.6950781"><ele>787.0</ele><time>2026-05-01T10:14:14.046Z</time></trkpt><trkpt lat="42.1716354" lon="13.6952146"><ele>787.0</ele><time>2026-05-01T10:14:15.043Z</time></trkpt><trkpt lat="42.1715605" lon="13.6953576"><ele>787.0</ele><time>2026-05-01T10:14:16.041Z</time></trkpt><trkpt lat="42.1715114" lon="13.6955199"><ele>791.0</ele><time>2026-05-01T10:14:17.032Z</time></trkpt><trkpt lat="42.1714896" lon="13.6957062"><ele>795.0</ele><time>2026-05-01T10:14:18.03Z</time></trkpt><trkpt lat="42.171504" lon="13.6958973"><ele>799.0</ele><time>2026-05-01T10:14:19.047Z</time></trkpt><trkpt lat="42.1715197" lon="13.6960837"><ele>803.0</ele><time>2026-05-01T10:14:20.039Z</time></trkpt><trkpt lat="42.171518" lon="13.696262"><ele>803.0</ele><time>2026-05-01T10:14:21.06Z</time></trkpt><trkpt lat="42.1714981" lon="13.696428"><ele>803.0</ele><time>2026-05-01T10:14:22.049Z</time></trkpt><trkpt lat="42.1714388" lon="13.696592"><ele>803.0</ele><time>2026-05-01T10:14:23.035Z</time></trkpt><trkpt lat="42.1713474" lon="13.6967391"><ele>803.0</ele><time>2026-05-01T10:14:24.054Z</time></trkpt><trkpt lat="42.1712525" lon="13.6968556"><ele>803.0</ele><time>2026-05-01T10:14:25.046Z</time></trkpt><trkpt lat="42.17113" lon="13.6969076"><ele>803.0</ele><time>2026-05-01T10:14:26.067Z</time></trkpt><trkpt lat="42.1709987" lon="13.6969232"><ele>803.0</ele><time>2026-05-01T10:14:27.047Z</time></trkpt><trkpt lat="42.1708544" lon="13.6969261"><ele>803.0</ele><time>2026-05-01T10:14:28.033Z</time></trkpt><trkpt lat="42.1707246" lon="13.6969547"><ele>802.0</ele><time>2026-05-01T10:14:29.047Z</time></trkpt><trkpt lat="42.1706012" lon="13.6970463"><ele>801.0</ele><time>2026-05-01T10:14:30.052Z</time></trkpt><trkpt lat="42.1704831" lon="13.6971603"><ele>800.0</ele><time>2026-05-01T10:14:31.042Z</time></trkpt><trkpt lat="42.1703723" lon="13.6972513"><ele>799.0</ele><time>2026-05-01T10:14:32.05Z</time></trkpt><trkpt lat="42.1702608" lon="13.6972938"><ele>799.0</ele><time>2026-05-01T10:14:33.063Z</time></trkpt><trkpt lat="42.1701488" lon="13.6972802"><ele>799.0</ele><time>2026-05-01T10:14:34.043Z</time></trkpt><trkpt lat="42.1700374" lon="13.6972075"><ele>799.0</ele><time>2026-05-01T10:14:35.071Z</time></trkpt><trkpt lat="42.1699273" lon="13.6971233"><ele>799.0</ele><time>2026-05-01T10:14:36.04Z</time></trkpt><trkpt lat="42.1698069" lon="13.6970672"><ele>804.0</ele><time>2026-05-01T10:14:37.035Z</time></trkpt><trkpt lat="42.1696637" lon="13.6970634"><ele>809.0</ele><time>2026-05-01T10:14:38.035Z</time></trkpt><trkpt lat="42.1695193" lon="13.6970924"><ele>814.0</ele><time>2026-05-01T10:14:39.037Z</time></trkpt><trkpt lat="42.1693961" lon="13.6971547"><ele>819.0</ele><time>2026-05-01T10:14:40.035Z</time></trkpt><trkpt lat="42.1692881" lon="13.69725"><ele>819.0</ele><time>2026-05-01T10:14:41.02Z</time></trkpt><trkpt lat="42.1691951" lon="13.6974141"><ele>819.0</ele><time>2026-05-01T10:14:42.04Z</time></trkpt><trkpt lat="42.1691085" lon="13.6975929"><ele>819.0</ele><time>2026-05-01T10:14:43.029Z</time></trkpt><trkpt lat="42.1690074" lon="13.6977716"><ele>825.3333333333333</ele><time>2026-05-01T10:14:44.043Z</time></trkpt><trkpt lat="42.1688918" lon="13.6979252"><ele>831.6666666666666</ele><time>2026-05-01T10:14:45.033Z</time></trkpt><trkpt lat="42.1687598" lon="13.6980535"><ele>838.0</ele><time>2026-05-01T10:14:46.03Z</time></trkpt><trkpt lat="42.1686381" lon="13.6981941"><ele>838.0</ele><time>2026-05-01T10:14:47.033Z</time></trkpt><trkpt lat="42.168531" lon="13.698346"><ele>838.0</ele><time>2026-05-01T10:14:48.042Z</time></trkpt><trkpt lat="42.1684352" lon="13.6985142"><ele>838.0</ele><time>2026-05-01T10:14:49.059Z</time></trkpt><trkpt lat="42.1683461" lon="13.6986738"><ele>834.0</ele><time>2026-05-01T10:14:50.03Z</time></trkpt><trkpt lat="42.1682608" lon="13.6988271"><ele>830.0</ele><time>2026-05-01T10:14:51.039Z</time></trkpt><trkpt lat="42.1681843" lon="13.6989861"><ele>826.0</ele><time>2026-05-01T10:14:52.042Z</time></trkpt><trkpt lat="42.16813" lon="13.6991701"><ele>822.0</ele><time>2026-05-01T10:14:53.044Z</time></trkpt><trkpt lat="42.16809" lon="13.6993756"><ele>832.0</ele><time>2026-05-01T10:14:54.036Z</time></trkpt><trkpt lat="42.1680539" lon="13.6995981"><ele>842.0</ele><time>2026-05-01T10:14:55.029Z</time></trkpt><trkpt lat="42.1680106" lon="13.6998278"><ele>852.0</ele><time>2026-05-01T10:14:56.037Z</time></trkpt><trkpt lat="42.16796" lon="13.7000673"><ele>850.3333333333333</ele><time>2026-05-01T10:14:57.031Z</time></trkpt><trkpt lat="42.1679009" lon="13.7003071"><ele>848.6666666666666</ele><time>2026-05-01T10:14:58.053Z</time></trkpt><trkpt lat="42.1678446" lon="13.7005404"><ele>847.0</ele><time>2026-05-01T10:14:59.038Z</time></trkpt><trkpt lat="42.1677826" lon="13.7007568"><ele>847.0</ele><time>2026-05-01T10:15:00.04Z</time></trkpt><trkpt lat="42.1677254" lon="13.7009461"><ele>847.0</ele><time>2026-05-01T10:15:01.037Z</time></trkpt><trkpt lat="42.1676729" lon="13.7011198"><ele>847.0</ele><time>2026-05-01T10:15:02.042Z</time></trkpt><trkpt lat="42.1676203" lon="13.7012572"><ele>847.0</ele><time>2026-05-01T10:15:03.037Z</time></trkpt><trkpt lat="42.1675575" lon="13.7013552"><ele>846.0</ele><time>2026-05-01T10:15:04.044Z</time></trkpt><trkpt lat="42.1674833" lon="13.7014059"><ele>845.0</ele><time>2026-05-01T10:15:05.038Z</time></trkpt><trkpt lat="42.1673941" lon="13.7014074"><ele>844.0</ele><time>2026-05-01T10:15:06.034Z</time></trkpt><trkpt lat="42.1672981" lon="13.701352"><ele>843.0</ele><time>2026-05-01T10:15:07.04Z</time></trkpt><trkpt lat="42.1672059" lon="13.7012475"><ele>842.0</ele><time>2026-05-01T10:15:08.035Z</time></trkpt><trkpt lat="42.1671084" lon="13.7011194"><ele>842.25</ele><time>2026-05-01T10:15:09.037Z</time></trkpt><trkpt lat="42.1669923" lon="13.700999"><ele>842.5</ele><time>2026-05-01T10:15:10.046Z</time></trkpt><trkpt lat="42.1668646" lon="13.7008901"><ele>842.75</ele><time>2026-05-01T10:15:11.022Z</time></trkpt><trkpt lat="42.1667295" lon="13.7008038"><ele>843.0</ele><time>2026-05-01T10:15:12.044Z</time></trkpt><trkpt lat="42.1665929" lon="13.700739"><ele>841.0</ele><time>2026-05-01T10:15:13.029Z</time></trkpt><trkpt lat="42.1664493" lon="13.7007168"><ele>839.0</ele><time>2026-05-01T10:15:14.034Z</time></trkpt><trkpt lat="42.1662942" lon="13.7007397"><ele>837.0</ele><time>2026-05-01T10:15:15.042Z</time></trkpt><trkpt lat="42.1661323" lon="13.7008067"><ele>837.0</ele><time>2026-05-01T10:15:16.038Z</time></trkpt><trkpt lat="42.1659818" lon="13.7008859"><ele>837.0</ele><time>2026-05-01T10:15:17.036Z</time></trkpt><trkpt lat="42.16585" lon="13.7009599"><ele>837.0</ele><time>2026-05-01T10:15:18.049Z</time></trkpt><trkpt lat="42.1657251" lon="13.7010272"><ele>837.0</ele><time>2026-05-01T10:15:19.036Z</time></trkpt><trkpt lat="42.1656155" lon="13.7010669"><ele>835.0</ele><time>2026-05-01T10:15:20.029Z</time></trkpt><trkpt lat="42.1655202" lon="13.701067"><ele>833.0</ele><time>2026-05-01T10:15:21.04Z</time></trkpt><trkpt lat="42.1654346" lon="13.7010206"><ele>831.0</ele><time>2026-05-01T10:15:22.03Z</time></trkpt><trkpt lat="42.1653742" lon="13.7009158"><ele>829.0</ele><time>2026-05-01T10:15:23.046Z</time></trkpt><trkpt lat="42.1653415" lon="13.7007771"><ele>827.0</ele><time>2026-05-01T10:15:24.036Z</time></trkpt><trkpt lat="42.1653391" lon="13.7006142"><ele>827.0</ele><time>2026-05-01T10:15:25.04Z</time></trkpt><trkpt lat="42.1653545" lon="13.7004313"><ele>827.0</ele><time>2026-05-01T10:15:26.043Z</time></trkpt><trkpt lat="42.1653738" lon="13.7002313"><ele>827.0</ele><time>2026-05-01T10:15:27.043Z</time></trkpt><trkpt lat="42.1654069" lon="13.7000322"><ele>827.0</ele><time>2026-05-01T10:15:28.035Z</time></trkpt><trkpt lat="42.1654502" lon="13.6998347"><ele>824.6666666666667</ele><time>2026-05-01T10:15:29.045Z</time></trkpt><trkpt lat="42.1655001" lon="13.6996348"><ele>822.3333333333333</ele><time>2026-05-01T10:15:30.052Z</time></trkpt><trkpt lat="42.1655531" lon="13.6994296"><ele>820.0</ele><time>2026-05-01T10:15:31.034Z</time></trkpt><trkpt lat="42.1656087" lon="13.6992119"><ele>817.0</ele><time>2026-05-01T10:15:32.041Z</time></trkpt><trkpt lat="42.165665" lon="13.6989966"><ele>814.0</ele><time>2026-05-01T10:15:33.048Z</time></trkpt><trkpt lat="42.1657157" lon="13.69879"><ele>811.0</ele><time>2026-05-01T10:15:34.059Z</time></trkpt><trkpt lat="42.1657651" lon="13.6985942"><ele>815.5</ele><time>2026-05-01T10:15:35.045Z</time></trkpt><trkpt lat="42.1658128" lon="13.6984039"><ele>820.0</ele><time>2026-05-01T10:15:36.035Z</time></trkpt><trkpt lat="42.1658526" lon="13.6982309"><ele>824.5</ele><time>2026-05-01T10:15:37.037Z</time></trkpt><trkpt lat="42.1658809" lon="13.6980709"><ele>829.0</ele><time>2026-05-01T10:15:38.044Z</time></trkpt><trkpt lat="42.1658819" lon="13.6979154"><ele>829.0</ele><time>2026-05-01T10:15:39.035Z</time></trkpt><trkpt lat="42.1658563" lon="13.6977694"><ele>829.0</ele><time>2026-05-01T10:15:40.038Z</time></trkpt><trkpt lat="42.1657939" lon="13.697626"><ele>829.0</ele><time>2026-05-01T10:15:41.041Z</time></trkpt><trkpt lat="42.1656998" lon="13.6974778"><ele>829.0</ele><time>2026-05-01T10:15:42.033Z</time></trkpt><trkpt lat="42.1655875" lon="13.6973209"><ele>825.6666666666666</ele><time>2026-05-01T10:15:43.03Z</time></trkpt><trkpt lat="42.1654716" lon="13.6971545"><ele>822.3333333333333</ele><time>2026-05-01T10:15:44.035Z</time></trkpt><trkpt lat="42.1653589" lon="13.6969889"><ele>819.0</ele><time>2026-05-01T10:15:45.042Z</time></trkpt><trkpt lat="42.1652532" lon="13.696831"><ele>819.0</ele><time>2026-05-01T10:15:46.032Z</time></trkpt><trkpt lat="42.1651637" lon="13.6966616"><ele>819.0</ele><time>2026-05-01T10:15:47.043Z</time></trkpt><trkpt lat="42.1650939" lon="13.6964915"><ele>819.0</ele><time>2026-05-01T10:15:48.035Z</time></trkpt><trkpt lat="42.1650299" lon="13.6963155"><ele>819.0</ele><time>2026-05-01T10:15:49.038Z</time></trkpt><trkpt lat="42.1649598" lon="13.6961292"><ele>820.6666666666667</ele><time>2026-05-01T10:15:50.028Z</time></trkpt><trkpt lat="42.1648811" lon="13.6959405"><ele>822.3333333333334</ele><time>2026-05-01T10:15:51.043Z</time></trkpt><trkpt lat="42.1647939" lon="13.695748"><ele>824.0</ele><time>2026-05-01T10:15:52.056Z</time></trkpt><trkpt lat="42.1647033" lon="13.6955581"><ele>816.3333333333334</ele><time>2026-05-01T10:15:53.035Z</time></trkpt><trkpt lat="42.1646154" lon="13.6953752"><ele>808.6666666666667</ele><time>2026-05-01T10:15:54.034Z</time></trkpt><trkpt lat="42.1645337" lon="13.6951978"><ele>801.0</ele><time>2026-05-01T10:15:55.046Z</time></trkpt><trkpt lat="42.1644574" lon="13.69503"><ele>801.0</ele><time>2026-05-01T10:15:56.041Z</time></trkpt><trkpt lat="42.1644045" lon="13.6948718"><ele>801.0</ele><time>2026-05-01T10:15:57.049Z</time></trkpt><trkpt lat="42.1643759" lon="13.694707"><ele>801.0</ele><time>2026-05-01T10:15:58.041Z</time></trkpt><trkpt lat="42.1643724" lon="13.6945166"><ele>801.0</ele><time>2026-05-01T10:15:59.038Z</time></trkpt><trkpt lat="42.1643872" lon="13.6943051"><ele>799.3333333333333</ele><time>2026-05-01T10:16:00.034Z</time></trkpt><trkpt lat="42.1644115" lon="13.6940895"><ele>797.6666666666666</ele><time>2026-05-01T10:16:01.041Z</time></trkpt><trkpt lat="42.164438" lon="13.6938798"><ele>796.0</ele><time>2026-05-01T10:16:02.057Z</time></trkpt><trkpt lat="42.1644658" lon="13.6936787"><ele>793.5</ele><time>2026-05-01T10:16:03.035Z</time></trkpt><trkpt lat="42.1644967" lon="13.693486"><ele>791.0</ele><time>2026-05-01T10:16:04.046Z</time></trkpt><trkpt lat="42.1645431" lon="13.6933072"><ele>788.5</ele><time>2026-05-01T10:16:05.035Z</time></trkpt><trkpt lat="42.1646102" lon="13.6931348"><ele>786.0</ele><time>2026-05-01T10:16:06.027Z</time></trkpt><trkpt lat="42.1646947" lon="13.69299"><ele>786.0</ele><time>2026-05-01T10:16:07.04Z</time></trkpt><trkpt lat="42.1647743" lon="13.6928789"><ele>786.0</ele><time>2026-05-01T10:16:08.03Z</time></trkpt><trkpt lat="42.1648326" lon="13.692781"><ele>786.0</ele><time>2026-05-01T10:16:09.035Z</time></trkpt><trkpt lat="42.1648618" lon="13.692665"><ele>786.0</ele><time>2026-05-01T10:16:10.028Z</time></trkpt><trkpt lat="42.1648552" lon="13.6925377"><ele>786.0</ele><time>2026-05-01T10:16:11.035Z</time></trkpt><trkpt lat="42.1648023" lon="13.6924111"><ele>786.25</ele><time>2026-05-01T10:16:12.037Z</time></trkpt><trkpt lat="42.1647143" lon="13.6922916"><ele>786.5</ele><time>2026-05-01T10:16:13.034Z</time></trkpt><trkpt lat="42.1646174" lon="13.6921445"><ele>786.75</ele><time>2026-05-01T10:16:14.041Z</time></trkpt><trkpt lat="42.1645301" lon="13.6919598"><ele>787.0</ele><time>2026-05-01T10:16:15.032Z</time></trkpt><trkpt lat="42.1644491" lon="13.6917572"><ele>787.0</ele><time>2026-05-01T10:16:16.029Z</time></trkpt><trkpt lat="42.1643779" lon="13.69156"><ele>787.0</ele><time>2026-05-01T10:16:17.023Z</time></trkpt><trkpt lat="42.164315" lon="13.691402"><ele>787.0</ele><time>2026-05-01T10:16:18.029Z</time></trkpt><trkpt lat="42.164253" lon="13.6912878"><ele>787.0</ele><time>2026-05-01T10:16:19.023Z</time></trkpt><trkpt lat="42.1641808" lon="13.6912035"><ele>787.0</ele><time>2026-05-01T10:16:20.035Z</time></trkpt><trkpt lat="42.164094" lon="13.6911515"><ele>787.0</ele><time>2026-05-01T10:16:21.025Z</time></trkpt><trkpt lat="42.1639982" lon="13.6911591"><ele>787.0</ele><time>2026-05-01T10:16:22.039Z</time></trkpt><trkpt lat="42.1639057" lon="13.691213"><ele>787.0</ele><time>2026-05-01T10:16:23.029Z</time></trkpt><trkpt lat="42.1638168" lon="13.6913306"><ele>787.0</ele><time>2026-05-01T10:16:24.025Z</time></trkpt><trkpt lat="42.1637513" lon="13.6915023"><ele>785.0</ele><time>2026-05-01T10:16:25.023Z</time></trkpt><trkpt lat="42.1637083" lon="13.6916829"><ele>783.0</ele><time>2026-05-01T10:16:26.029Z</time></trkpt><trkpt lat="42.1636733" lon="13.691858"><ele>781.0</ele><time>2026-05-01T10:16:27.036Z</time></trkpt><trkpt lat="42.1636104" lon="13.69202"><ele>779.0</ele><time>2026-05-01T10:16:28.042Z</time></trkpt><trkpt lat="42.1635167" lon="13.6921794"><ele>779.0</ele><time>2026-05-01T10:16:29.038Z</time></trkpt><trkpt lat="42.1634191" lon="13.6923324"><ele>779.0</ele><time>2026-05-01T10:16:30.046Z</time></trkpt><trkpt lat="42.1633175" lon="13.6924844"><ele>779.0</ele><time>2026-05-01T10:16:31.038Z</time></trkpt><trkpt lat="42.1632012" lon="13.6926346"><ele>773.3333333333334</ele><time>2026-05-01T10:16:32.025Z</time></trkpt><trkpt lat="42.1630826" lon="13.6927789"><ele>767.6666666666667</ele><time>2026-05-01T10:16:33.033Z</time></trkpt><trkpt lat="42.1629518" lon="13.6928965"><ele>762.0</ele><time>2026-05-01T10:16:34.035Z</time></trkpt><trkpt lat="42.1628141" lon="13.6929873"><ele>762.0</ele><time>2026-05-01T10:16:35.034Z</time></trkpt><trkpt lat="42.1626753" lon="13.6930524"><ele>762.0</ele><time>2026-05-01T10:16:36.036Z</time></trkpt><trkpt lat="42.162532" lon="13.6930825"><ele>762.0</ele><time>2026-05-01T10:16:37.04Z</time></trkpt><trkpt lat="42.1623923" lon="13.6930963"><ele>762.0</ele><time>2026-05-01T10:16:38.031Z</time></trkpt><trkpt lat="42.1622581" lon="13.6931044"><ele>761.0</ele><time>2026-05-01T10:16:39.031Z</time></trkpt><trkpt lat="42.1621209" lon="13.6931043"><ele>760.0</ele><time>2026-05-01T10:16:40.03Z</time></trkpt><trkpt lat="42.1619825" lon="13.6931028"><ele>759.0</ele><time>2026-05-01T10:16:41.031Z</time></trkpt><trkpt lat="42.1618364" lon="13.6931089"><ele>758.0</ele><time>2026-05-01T10:16:42.034Z</time></trkpt><trkpt lat="42.1616827" lon="13.6931266"><ele>757.6666666666666</ele><time>2026-05-01T10:16:43.062Z</time></trkpt><trkpt lat="42.1615222" lon="13.693143"><ele>757.3333333333334</ele><time>2026-05-01T10:16:44.032Z</time></trkpt><trkpt lat="42.1613524" lon="13.6931569"><ele>757.0</ele><time>2026-05-01T10:16:45.039Z</time></trkpt><trkpt lat="42.1611781" lon="13.6931653"><ele>757.0</ele><time>2026-05-01T10:16:46.042Z</time></trkpt><trkpt lat="42.1609949" lon="13.6931815"><ele>757.0</ele><time>2026-05-01T10:16:47.049Z</time></trkpt><trkpt lat="42.1607924" lon="13.6932057"><ele>757.0</ele><time>2026-05-01T10:16:48.039Z</time></trkpt><trkpt lat="42.160557" lon="13.6932487"><ele>756.0</ele><time>2026-05-01T10:16:49.035Z</time></trkpt><trkpt lat="42.1603008" lon="13.6933117"><ele>755.0</ele><time>2026-05-01T10:16:50.038Z</time></trkpt><trkpt lat="42.1600262" lon="13.6933771"><ele>755.5</ele><time>2026-05-01T10:16:51.033Z</time></trkpt><trkpt lat="42.1597473" lon="13.6934472"><ele>756.0</ele><time>2026-05-01T10:16:52.038Z</time></trkpt><trkpt lat="42.1594883" lon="13.6935131"><ele>756.0</ele><time>2026-05-01T10:16:53.032Z</time></trkpt><trkpt lat="42.1592546" lon="13.6935677"><ele>756.0</ele><time>2026-05-01T10:16:54.07Z</time></trkpt><trkpt lat="42.1590347" lon="13.6936211"><ele>748.0</ele><time>2026-05-01T10:16:55.036Z</time></trkpt><trkpt lat="42.1588315" lon="13.6936678"><ele>740.0</ele><time>2026-05-01T10:16:56.03Z</time></trkpt><trkpt lat="42.1586321" lon="13.6937124"><ele>732.0</ele><time>2026-05-01T10:16:57.039Z</time></trkpt><trkpt lat="42.1584392" lon="13.6937513"><ele>732.0</ele><time>2026-05-01T10:16:58.036Z</time></trkpt><trkpt lat="42.1582632" lon="13.6937841"><ele>732.0</ele><time>2026-05-01T10:16:59.039Z</time></trkpt><trkpt lat="42.1581062" lon="13.6938055"><ele>732.0</ele><time>2026-05-01T10:17:00.039Z</time></trkpt><trkpt lat="42.1579677" lon="13.693821"><ele>731.0</ele><time>2026-05-01T10:17:01.033Z</time></trkpt><trkpt lat="42.1578419" lon="13.6938204"><ele>730.0</ele><time>2026-05-01T10:17:02.045Z</time></trkpt><trkpt lat="42.1577217" lon="13.693795"><ele>729.0</ele><time>2026-05-01T10:17:03.04Z</time></trkpt><trkpt lat="42.1576136" lon="13.6937225"><ele>728.0</ele><time>2026-05-01T10:17:04.061Z</time></trkpt><trkpt lat="42.1575181" lon="13.6936176"><ele>731.3333333333333</ele><time>2026-05-01T10:17:05.043Z</time></trkpt><trkpt lat="42.1574287" lon="13.6934617"><ele>734.6666666666666</ele><time>2026-05-01T10:17:06.032Z</time></trkpt><trkpt lat="42.157338" lon="13.6932808"><ele>738.0</ele><time>2026-05-01T10:17:07.035Z</time></trkpt><trkpt lat="42.1572411" lon="13.6931056"><ele>732.3333333333334</ele><time>2026-05-01T10:17:08.03Z</time></trkpt><trkpt lat="42.1571449" lon="13.6929286"><ele>726.6666666666667</ele><time>2026-05-01T10:17:09.042Z</time></trkpt><trkpt lat="42.157054" lon="13.692748"><ele>721.0</ele><time>2026-05-01T10:17:10.036Z</time></trkpt><trkpt lat="42.1569645" lon="13.6925643"><ele>721.0</ele><time>2026-05-01T10:17:11.067Z</time></trkpt><trkpt lat="42.1568728" lon="13.6923795"><ele>721.0</ele><time>2026-05-01T10:17:12.038Z</time></trkpt><trkpt lat="42.1567769" lon="13.692191"><ele>721.0</ele><time>2026-05-01T10:17:13.04Z</time></trkpt><trkpt lat="42.1566842" lon="13.6920021"><ele>723.0</ele><time>2026-05-01T10:17:14.031Z</time></trkpt><trkpt lat="42.1565966" lon="13.6918198"><ele>725.0</ele><time>2026-05-01T10:17:15.038Z</time></trkpt><trkpt lat="42.1565062" lon="13.6916432"><ele>727.0</ele><time>2026-05-01T10:17:16.041Z</time></trkpt><trkpt lat="42.1564229" lon="13.6914673"><ele>721.0</ele><time>2026-05-01T10:17:17.049Z</time></trkpt><trkpt lat="42.1563484" lon="13.6912912"><ele>715.0</ele><time>2026-05-01T10:17:18.053Z</time></trkpt><trkpt lat="42.15628" lon="13.6911125"><ele>709.0</ele><time>2026-05-01T10:17:19.047Z</time></trkpt><trkpt lat="42.1562169" lon="13.6909278"><ele>709.0</ele><time>2026-05-01T10:17:20.037Z</time></trkpt><trkpt lat="42.1561594" lon="13.6907514"><ele>709.0</ele><time>2026-05-01T10:17:21.038Z</time></trkpt><trkpt lat="42.1561166" lon="13.6905943"><ele>709.0</ele><time>2026-05-01T10:17:22.042Z</time></trkpt><trkpt lat="42.1560828" lon="13.6904572"><ele>709.0</ele><time>2026-05-01T10:17:23.045Z</time></trkpt><trkpt lat="42.1560281" lon="13.6903405"><ele>708.5</ele><time>2026-05-01T10:17:24.049Z</time></trkpt><trkpt lat="42.1559447" lon="13.6902515"><ele>708.0</ele><time>2026-05-01T10:17:25.035Z</time></trkpt><trkpt lat="42.1558342" lon="13.6901976"><ele>707.5</ele><time>2026-05-01T10:17:26.04Z</time></trkpt><trkpt lat="42.1557" lon="13.6901802"><ele>707.0</ele><time>2026-05-01T10:17:27.032Z</time></trkpt><trkpt lat="42.1555524" lon="13.6901638"><ele>707.0</ele><time>2026-05-01T10:17:28.038Z</time></trkpt><trkpt lat="42.1554001" lon="13.6901266"><ele>707.0</ele><time>2026-05-01T10:17:29.03Z</time></trkpt><trkpt lat="42.1552514" lon="13.690081"><ele>707.0</ele><time>2026-05-01T10:17:30.051Z</time></trkpt><trkpt lat="42.1551083" lon="13.6900304"><ele>707.0</ele><time>2026-05-01T10:17:31.029Z</time></trkpt><trkpt lat="42.1549727" lon="13.6899825"><ele>707.0</ele><time>2026-05-01T10:17:32.035Z</time></trkpt><trkpt lat="42.1548475" lon="13.6899256"><ele>707.0</ele><time>2026-05-01T10:17:33.033Z</time></trkpt><trkpt lat="42.1547436" lon="13.6898457"><ele>707.0</ele><time>2026-05-01T10:17:34.035Z</time></trkpt><trkpt lat="42.1546635" lon="13.6897392"><ele>702.25</ele><time>2026-05-01T10:17:35.033Z</time></trkpt><trkpt lat="42.1546096" lon="13.6895971"><ele>697.5</ele><time>2026-05-01T10:17:36.033Z</time></trkpt><trkpt lat="42.1545785" lon="13.6894207"><ele>692.75</ele><time>2026-05-01T10:17:37.027Z</time></trkpt><trkpt lat="42.1545597" lon="13.6892199"><ele>688.0</ele><time>2026-05-01T10:17:38.031Z</time></trkpt><trkpt lat="42.1545422" lon="13.6890058"><ele>688.0</ele><time>2026-05-01T10:17:39.026Z</time></trkpt><trkpt lat="42.1545106" lon="13.6887882"><ele>688.0</ele><time>2026-05-01T10:17:40.037Z</time></trkpt><trkpt lat="42.1544552" lon="13.6885728"><ele>688.0</ele><time>2026-05-01T10:17:41.032Z</time></trkpt><trkpt lat="42.1543849" lon="13.6883518"><ele>689.3333333333334</ele><time>2026-05-01T10:17:42.069Z</time></trkpt><trkpt lat="42.1543075" lon="13.6881348"><ele>690.6666666666666</ele><time>2026-05-01T10:17:43.028Z</time></trkpt><trkpt lat="42.1542303" lon="13.6879314"><ele>692.0</ele><time>2026-05-01T10:17:44.036Z</time></trkpt><trkpt lat="42.1541627" lon="13.6877445"><ele>693.6</ele><time>2026-05-01T10:17:45.035Z</time></trkpt><trkpt lat="42.1541083" lon="13.6875901"><ele>695.2</ele><time>2026-05-01T10:17:46.036Z</time></trkpt><trkpt lat="42.1540682" lon="13.6874597"><ele>696.8</ele><time>2026-05-01T10:17:47.047Z</time></trkpt><trkpt lat="42.1540501" lon="13.6873325"><ele>698.4</ele><time>2026-05-01T10:17:48.034Z</time></trkpt><trkpt lat="42.1540631" lon="13.6871919"><ele>700.0</ele><time>2026-05-01T10:17:49.038Z</time></trkpt><trkpt lat="42.154106" lon="13.6870374"><ele>700.25</ele><time>2026-05-01T10:17:50.031Z</time></trkpt><trkpt lat="42.1541579" lon="13.6868777"><ele>700.5</ele><time>2026-05-01T10:17:51.037Z</time></trkpt><trkpt lat="42.1541938" lon="13.6866963"><ele>700.75</ele><time>2026-05-01T10:17:52.04Z</time></trkpt><trkpt lat="42.1542109" lon="13.6865093"><ele>701.0</ele><time>2026-05-01T10:17:53.029Z</time></trkpt><trkpt lat="42.1542295" lon="13.6863184"><ele>701.0</ele><time>2026-05-01T10:17:54.057Z</time></trkpt><trkpt lat="42.1542509" lon="13.6861307"><ele>701.0</ele><time>2026-05-01T10:17:55.029Z</time></trkpt><trkpt lat="42.1542741" lon="13.6859438"><ele>701.0</ele><time>2026-05-01T10:17:56.05Z</time></trkpt><trkpt lat="42.1542937" lon="13.6857523"><ele>701.0</ele><time>2026-05-01T10:17:57.028Z</time></trkpt><trkpt lat="42.154312" lon="13.6855524"><ele>700.5</ele><time>2026-05-01T10:17:58.034Z</time></trkpt><trkpt lat="42.1543292" lon="13.6853626"><ele>700.0</ele><time>2026-05-01T10:17:59.031Z</time></trkpt><trkpt lat="42.154346" lon="13.685182"><ele>699.5</ele><time>2026-05-01T10:18:00.036Z</time></trkpt><trkpt lat="42.1543613" lon="13.6849994"><ele>699.0</ele><time>2026-05-01T10:18:01.036Z</time></trkpt><trkpt lat="42.154379" lon="13.6848207"><ele>698.75</ele><time>2026-05-01T10:18:02.042Z</time></trkpt><trkpt lat="42.1543954" lon="13.6846482"><ele>698.5</ele><time>2026-05-01T10:18:03.028Z</time></trkpt><trkpt lat="42.15441" lon="13.6844867"><ele>698.25</ele><time>2026-05-01T10:18:04.042Z</time></trkpt><trkpt lat="42.1544201" lon="13.6843311"><ele>698.0</ele><time>2026-05-01T10:18:05.035Z</time></trkpt><trkpt lat="42.154422" lon="13.6841806"><ele>698.0</ele><time>2026-05-01T10:18:06.037Z</time></trkpt><trkpt lat="42.1544176" lon="13.6840411"><ele>698.0</ele><time>2026-05-01T10:18:07.034Z</time></trkpt><trkpt lat="42.1544122" lon="13.6839199"><ele>698.0</ele><time>2026-05-01T10:18:08.029Z</time></trkpt><trkpt lat="42.1543946" lon="13.6838105"><ele>698.0</ele><time>2026-05-01T10:18:09.036Z</time></trkpt><trkpt lat="42.1543561" lon="13.6837148"><ele>698.0</ele><time>2026-05-01T10:18:10.039Z</time></trkpt><trkpt lat="42.1542944" lon="13.6836538"><ele>698.0</ele><time>2026-05-01T10:18:11.041Z</time></trkpt><trkpt lat="42.1542202" lon="13.6836386"><ele>698.0</ele><time>2026-05-01T10:18:12.036Z</time></trkpt><trkpt lat="42.1541405" lon="13.6836692"><ele>698.0</ele><time>2026-05-01T10:18:13.035Z</time></trkpt><trkpt lat="42.1540741" lon="13.683716"><ele>698.0</ele><time>2026-05-01T10:18:14.041Z</time></trkpt><trkpt lat="42.1539951" lon="13.6838064"><ele>698.0</ele><time>2026-05-01T10:18:16.039Z</time></trkpt><trkpt lat="42.1539553" lon="13.6838834"><ele>698.0</ele><time>2026-05-01T10:18:57.03Z</time></trkpt><trkpt lat="42.153971" lon="13.6839821"><ele>698.0</ele><time>2026-05-01T10:18:59.064Z</time></trkpt><trkpt lat="42.1540569" lon="13.6840693"><ele>698.0</ele><time>2026-05-01T10:19:01.04Z</time></trkpt><trkpt lat="42.1541128" lon="13.6841246"><ele>698.0</ele><time>2026-05-01T10:19:02.034Z</time></trkpt><trkpt lat="42.1541391" lon="13.6842358"><ele>698.0</ele><time>2026-05-01T10:19:03.047Z</time></trkpt><trkpt lat="42.1541254" lon="13.6843778"><ele>698.0</ele><time>2026-05-01T10:19:04.041Z</time></trkpt><trkpt lat="42.1540892" lon="13.6845243"><ele>698.0</ele><time>2026-05-01T10:19:05.044Z</time></trkpt><trkpt lat="42.1540488" lon="13.6846694"><ele>696.75</ele><time>2026-05-01T10:19:06.03Z</time></trkpt><trkpt lat="42.1540088" lon="13.6848229"><ele>695.5</ele><time>2026-05-01T10:19:07.035Z</time></trkpt><trkpt lat="42.1539675" lon="13.6849849"><ele>694.25</ele><time>2026-05-01T10:19:08.041Z</time></trkpt><trkpt lat="42.1539312" lon="13.6851494"><ele>693.0</ele><time>2026-05-01T10:19:09.035Z</time></trkpt><trkpt lat="42.1538978" lon="13.6853097"><ele>693.0</ele><time>2026-05-01T10:19:10.057Z</time></trkpt><trkpt lat="42.1538639" lon="13.6854629"><ele>693.0</ele><time>2026-05-01T10:19:11.027Z</time></trkpt><trkpt lat="42.1538196" lon="13.6856195"><ele>693.0</ele><time>2026-05-01T10:19:12.039Z</time></trkpt><trkpt lat="42.1537741" lon="13.6857961"><ele>693.0</ele><time>2026-05-01T10:19:13.045Z</time></trkpt><trkpt lat="42.1537205" lon="13.6859968"><ele>689.3333333333334</ele><time>2026-05-01T10:19:14.039Z</time></trkpt><trkpt lat="42.1536678" lon="13.6862126"><ele>685.6666666666667</ele><time>2026-05-01T10:19:15.043Z</time></trkpt><trkpt lat="42.1536145" lon="13.6864358"><ele>682.0</ele><time>2026-05-01T10:19:16.038Z</time></trkpt><trkpt lat="42.153568" lon="13.6866535"><ele>682.0</ele><time>2026-05-01T10:19:17.055Z</time></trkpt><trkpt lat="42.1535219" lon="13.6868651"><ele>682.0</ele><time>2026-05-01T10:19:18.033Z</time></trkpt><trkpt lat="42.153478" lon="13.6870777"><ele>682.0</ele><time>2026-05-01T10:19:19.033Z</time></trkpt><trkpt lat="42.1534395" lon="13.687293"><ele>679.6666666666667</ele><time>2026-05-01T10:19:20.031Z</time></trkpt><trkpt lat="42.1533984" lon="13.687503"><ele>677.3333333333334</ele><time>2026-05-01T10:19:21.039Z</time></trkpt><trkpt lat="42.1533636" lon="13.6877075"><ele>675.0</ele><time>2026-05-01T10:19:22.03Z</time></trkpt><trkpt lat="42.1533315" lon="13.6879109"><ele>673.6666666666666</ele><time>2026-05-01T10:19:23.037Z</time></trkpt><trkpt lat="42.1533028" lon="13.6881196"><ele>672.3333333333333</ele><time>2026-05-01T10:19:24.042Z</time></trkpt><trkpt lat="42.1532817" lon="13.6883406"><ele>671.0</ele><time>2026-05-01T10:19:25.034Z</time></trkpt><trkpt lat="42.1532597" lon="13.688565"><ele>669.3333333333333</ele><time>2026-05-01T10:19:26.043Z</time></trkpt><trkpt lat="42.1532381" lon="13.6888021"><ele>667.6666666666666</ele><time>2026-05-01T10:19:27.046Z</time></trkpt><trkpt lat="42.1532197" lon="13.6890526"><ele>666.0</ele><time>2026-05-01T10:19:28.032Z</time></trkpt><trkpt lat="42.1532046" lon="13.6893134"><ele>661.6666666666666</ele><time>2026-05-01T10:19:29.03Z</time></trkpt><trkpt lat="42.1531916" lon="13.6895818"><ele>657.3333333333333</ele><time>2026-05-01T10:19:30.031Z</time></trkpt><trkpt lat="42.1531845" lon="13.6898548"><ele>653.0</ele><time>2026-05-01T10:19:31.026Z</time></trkpt><trkpt lat="42.1531775" lon="13.6901262"><ele>651.3333333333333</ele><time>2026-05-01T10:19:32.025Z</time></trkpt><trkpt lat="42.1531762" lon="13.690408"><ele>649.6666666666666</ele><time>2026-05-01T10:19:33.033Z</time></trkpt><trkpt lat="42.153159" lon="13.6906996"><ele>648.0</ele><time>2026-05-01T10:19:34.05Z</time></trkpt><trkpt lat="42.1531399" lon="13.6909889"><ele>647.0</ele><time>2026-05-01T10:19:35.04Z</time></trkpt><trkpt lat="42.1531182" lon="13.6912675"><ele>646.0</ele><time>2026-05-01T10:19:36.043Z</time></trkpt><trkpt lat="42.1530881" lon="13.6915363"><ele>645.0</ele><time>2026-05-01T10:19:37.032Z</time></trkpt><trkpt lat="42.1530615" lon="13.6917952"><ele>642.6666666666666</ele><time>2026-05-01T10:19:38.029Z</time></trkpt><trkpt lat="42.1530428" lon="13.6920485"><ele>640.3333333333333</ele><time>2026-05-01T10:19:39.043Z</time></trkpt><trkpt lat="42.1530369" lon="13.6922977"><ele>638.0</ele><time>2026-05-01T10:19:40.037Z</time></trkpt><trkpt lat="42.1530358" lon="13.6925405"><ele>636.6666666666666</ele><time>2026-05-01T10:19:41.037Z</time></trkpt><trkpt lat="42.1530386" lon="13.6927816"><ele>635.3333333333334</ele><time>2026-05-01T10:19:42.034Z</time></trkpt><trkpt lat="42.1530329" lon="13.6930196"><ele>634.0</ele><time>2026-05-01T10:19:43.034Z</time></trkpt><trkpt lat="42.1530117" lon="13.6932565"><ele>634.0</ele><time>2026-05-01T10:19:44.03Z</time></trkpt><trkpt lat="42.1529778" lon="13.6934877"><ele>634.0</ele><time>2026-05-01T10:19:45.033Z</time></trkpt><trkpt lat="42.1529297" lon="13.693718"><ele>634.0</ele><time>2026-05-01T10:19:46.033Z</time></trkpt><trkpt lat="42.1528676" lon="13.6939494"><ele>633.0</ele><time>2026-05-01T10:19:47.033Z</time></trkpt><trkpt lat="42.1527905" lon="13.6941876"><ele>632.0</ele><time>2026-05-01T10:19:48.074Z</time></trkpt><trkpt lat="42.1527019" lon="13.6944324"><ele>631.0</ele><time>2026-05-01T10:19:49.04Z</time></trkpt><trkpt lat="42.1526116" lon="13.6946968"><ele>629.0</ele><time>2026-05-01T10:19:50.048Z</time></trkpt><trkpt lat="42.1525194" lon="13.6949695"><ele>627.0</ele><time>2026-05-01T10:19:51.033Z</time></trkpt><trkpt lat="42.1524271" lon="13.6952553"><ele>624.0</ele><time>2026-05-01T10:19:52.033Z</time></trkpt><trkpt lat="42.152329" lon="13.6955501"><ele>621.0</ele><time>2026-05-01T10:19:53.049Z</time></trkpt><trkpt lat="42.1522292" lon="13.6958442"><ele>620.0</ele><time>2026-05-01T10:19:54.03Z</time></trkpt><trkpt lat="42.1521359" lon="13.6961201"><ele>619.0</ele><time>2026-05-01T10:19:55.035Z</time></trkpt><trkpt lat="42.1520466" lon="13.6963884"><ele>618.0</ele><time>2026-05-01T10:19:56.037Z</time></trkpt><trkpt lat="42.1519593" lon="13.696651"><ele>618.0</ele><time>2026-05-01T10:19:57.042Z</time></trkpt><trkpt lat="42.1518778" lon="13.6969095"><ele>618.0</ele><time>2026-05-01T10:19:58.034Z</time></trkpt><trkpt lat="42.1518011" lon="13.6971643"><ele>618.0</ele><time>2026-05-01T10:19:59.043Z</time></trkpt><trkpt lat="42.1517345" lon="13.6974063"><ele>617.0</ele><time>2026-05-01T10:20:00.041Z</time></trkpt><trkpt lat="42.1516749" lon="13.6976486"><ele>616.0</ele><time>2026-05-01T10:20:01.038Z</time></trkpt><trkpt lat="42.1516346" lon="13.6978981"><ele>615.0</ele><time>2026-05-01T10:20:02.049Z</time></trkpt><trkpt lat="42.1516149" lon="13.6981623"><ele>614.3333333333334</ele><time>2026-05-01T10:20:03.036Z</time></trkpt><trkpt lat="42.1516156" lon="13.6984421"><ele>613.6666666666667</ele><time>2026-05-01T10:20:04.05Z</time></trkpt><trkpt lat="42.1516199" lon="13.6987189"><ele>613.0</ele><time>2026-05-01T10:20:05.033Z</time></trkpt><trkpt lat="42.1516281" lon="13.698985"><ele>612.0</ele><time>2026-05-01T10:20:06.046Z</time></trkpt><trkpt lat="42.1516529" lon="13.6992511"><ele>611.0</ele><time>2026-05-01T10:20:07.039Z</time></trkpt><trkpt lat="42.1516858" lon="13.6995262"><ele>610.0</ele><time>2026-05-01T10:20:08.037Z</time></trkpt><trkpt lat="42.1517279" lon="13.6997909"><ele>608.0</ele><time>2026-05-01T10:20:09.035Z</time></trkpt><trkpt lat="42.1517672" lon="13.7000476"><ele>606.0</ele><time>2026-05-01T10:20:10.021Z</time></trkpt><trkpt lat="42.1518035" lon="13.7002824"><ele>604.0</ele><time>2026-05-01T10:20:11.045Z</time></trkpt><trkpt lat="42.1518195" lon="13.700505"><ele>603.3333333333334</ele><time>2026-05-01T10:20:12.027Z</time></trkpt><trkpt lat="42.151816" lon="13.7007227"><ele>602.6666666666666</ele><time>2026-05-01T10:20:13.045Z</time></trkpt><trkpt lat="42.1517846" lon="13.7009345"><ele>602.0</ele><time>2026-05-01T10:20:14.032Z</time></trkpt><trkpt lat="42.1517235" lon="13.7011587"><ele>601.3333333333333</ele><time>2026-05-01T10:20:15.038Z</time></trkpt><trkpt lat="42.151639" lon="13.7013939"><ele>600.6666666666666</ele><time>2026-05-01T10:20:16.032Z</time></trkpt><trkpt lat="42.1515497" lon="13.7016393"><ele>600.0</ele><time>2026-05-01T10:20:17.038Z</time></trkpt><trkpt lat="42.1514627" lon="13.7018884"><ele>599.0</ele><time>2026-05-01T10:20:18.042Z</time></trkpt><trkpt lat="42.1513755" lon="13.7021405"><ele>598.0</ele><time>2026-05-01T10:20:19.033Z</time></trkpt><trkpt lat="42.1512888" lon="13.7023925"><ele>597.0</ele><time>2026-05-01T10:20:20.042Z</time></trkpt><trkpt lat="42.1512075" lon="13.7026496"><ele>596.3333333333334</ele><time>2026-05-01T10:20:21.034Z</time></trkpt><trkpt lat="42.1511366" lon="13.7029159"><ele>595.6666666666667</ele><time>2026-05-01T10:20:22.035Z</time></trkpt><trkpt lat="42.1510756" lon="13.703179"><ele>595.0</ele><time>2026-05-01T10:20:23.049Z</time></trkpt><trkpt lat="42.1510294" lon="13.7034437"><ele>595.0</ele><time>2026-05-01T10:20:24.042Z</time></trkpt><trkpt lat="42.1509881" lon="13.7037124"><ele>595.0</ele><time>2026-05-01T10:20:25.064Z</time></trkpt><trkpt lat="42.1509458" lon="13.7039757"><ele>595.0</ele><time>2026-05-01T10:20:26.032Z</time></trkpt><trkpt lat="42.150902" lon="13.7042399"><ele>594.0</ele><time>2026-05-01T10:20:27.044Z</time></trkpt><trkpt lat="42.150861" lon="13.7045093"><ele>593.0</ele><time>2026-05-01T10:20:28.039Z</time></trkpt><trkpt lat="42.1508259" lon="13.7047824"><ele>592.0</ele><time>2026-05-01T10:20:29.038Z</time></trkpt><trkpt lat="42.1507876" lon="13.7050579"><ele>592.0</ele><time>2026-05-01T10:20:30.056Z</time></trkpt><trkpt lat="42.1507539" lon="13.7053354"><ele>592.0</ele><time>2026-05-01T10:20:31.039Z</time></trkpt><trkpt lat="42.1507257" lon="13.7056105"><ele>592.0</ele><time>2026-05-01T10:20:32.037Z</time></trkpt><trkpt lat="42.1507104" lon="13.7058865"><ele>588.3333333333334</ele><time>2026-05-01T10:20:33.039Z</time></trkpt><trkpt lat="42.1507077" lon="13.7061581"><ele>584.6666666666666</ele><time>2026-05-01T10:20:34.043Z</time></trkpt><trkpt lat="42.150696" lon="13.7064229"><ele>581.0</ele><time>2026-05-01T10:20:35.029Z</time></trkpt><trkpt lat="42.1506811" lon="13.7066815"><ele>580.6666666666666</ele><time>2026-05-01T10:20:36.035Z</time></trkpt><trkpt lat="42.1506465" lon="13.7069386"><ele>580.3333333333334</ele><time>2026-05-01T10:20:37.031Z</time></trkpt><trkpt lat="42.1505928" lon="13.7072041"><ele>580.0</ele><time>2026-05-01T10:20:38.038Z</time></trkpt><trkpt lat="42.1505097" lon="13.7074788"><ele>578.5</ele><time>2026-05-01T10:20:39.045Z</time></trkpt><trkpt lat="42.1504042" lon="13.707764"><ele>577.0</ele><time>2026-05-01T10:20:40.044Z</time></trkpt><trkpt lat="42.150291" lon="13.7080658"><ele>577.0</ele><time>2026-05-01T10:20:41.04Z</time></trkpt><trkpt lat="42.1501804" lon="13.7083674"><ele>577.0</ele><time>2026-05-01T10:20:42.044Z</time></trkpt><trkpt lat="42.1500793" lon="13.7086592"><ele>578.0</ele><time>2026-05-01T10:20:43.035Z</time></trkpt><trkpt lat="42.1499739" lon="13.7089409"><ele>579.0</ele><time>2026-05-01T10:20:44.043Z</time></trkpt><trkpt lat="42.1498643" lon="13.7092224"><ele>576.0</ele><time>2026-05-01T10:20:45.036Z</time></trkpt><trkpt lat="42.1497567" lon="13.709491"><ele>573.0</ele><time>2026-05-01T10:20:46.036Z</time></trkpt><trkpt lat="42.1496614" lon="13.7097534"><ele>570.0</ele><time>2026-05-01T10:20:47.032Z</time></trkpt><trkpt lat="42.149571" lon="13.7100055"><ele>569.3333333333334</ele><time>2026-05-01T10:20:48.034Z</time></trkpt><trkpt lat="42.1494801" lon="13.7102553"><ele>568.6666666666667</ele><time>2026-05-01T10:20:49.042Z</time></trkpt><trkpt lat="42.1493841" lon="13.7105042"><ele>568.0</ele><time>2026-05-01T10:20:50.042Z</time></trkpt><trkpt lat="42.1492712" lon="13.7107406"><ele>568.0</ele><time>2026-05-01T10:20:51.038Z</time></trkpt><trkpt lat="42.1491414" lon="13.710969"><ele>568.0</ele><time>2026-05-01T10:20:52.037Z</time></trkpt><trkpt lat="42.1489893" lon="13.7111866"><ele>568.0</ele><time>2026-05-01T10:20:53.033Z</time></trkpt><trkpt lat="42.148842" lon="13.7113975"><ele>566.3333333333334</ele><time>2026-05-01T10:20:54.03Z</time></trkpt><trkpt lat="42.1487003" lon="13.7115943"><ele>564.6666666666666</ele><time>2026-05-01T10:20:55.04Z</time></trkpt><trkpt lat="42.1485693" lon="13.7117874"><ele>563.0</ele><time>2026-05-01T10:20:56.035Z</time></trkpt><trkpt lat="42.1484449" lon="13.711972"><ele>562.6666666666666</ele><time>2026-05-01T10:20:57.043Z</time></trkpt><trkpt lat="42.1483242" lon="13.712158"><ele>562.3333333333334</ele><time>2026-05-01T10:20:58.036Z</time></trkpt><trkpt lat="42.1482055" lon="13.7123598"><ele>562.0</ele><time>2026-05-01T10:20:59.037Z</time></trkpt><trkpt lat="42.1480939" lon="13.7125858"><ele>558.5</ele><time>2026-05-01T10:21:00.036Z</time></trkpt><trkpt lat="42.1479844" lon="13.7128396"><ele>555.0</ele><time>2026-05-01T10:21:01.029Z</time></trkpt><trkpt lat="42.147871" lon="13.7131128"><ele>555.0</ele><time>2026-05-01T10:21:02.038Z</time></trkpt><trkpt lat="42.1477584" lon="13.7133939"><ele>555.0</ele><time>2026-05-01T10:21:03.05Z</time></trkpt><trkpt lat="42.1476429" lon="13.7136818"><ele>554.0</ele><time>2026-05-01T10:21:04.036Z</time></trkpt><trkpt lat="42.1475269" lon="13.7139654"><ele>553.0</ele><time>2026-05-01T10:21:05.036Z</time></trkpt><trkpt lat="42.1474107" lon="13.7142467"><ele>552.0</ele><time>2026-05-01T10:21:06.038Z</time></trkpt><trkpt lat="42.1472944" lon="13.7145316"><ele>551.0</ele><time>2026-05-01T10:21:07.038Z</time></trkpt><trkpt lat="42.1471768" lon="13.7148182"><ele>551.0</ele><time>2026-05-01T10:21:08.05Z</time></trkpt><trkpt lat="42.1470597" lon="13.7150998"><ele>551.0</ele><time>2026-05-01T10:21:09.035Z</time></trkpt><trkpt lat="42.1469491" lon="13.7153725"><ele>550.3333333333333</ele><time>2026-05-01T10:21:10.03Z</time></trkpt><trkpt lat="42.1468463" lon="13.7156348"><ele>549.6666666666666</ele><time>2026-05-01T10:21:11.038Z</time></trkpt><trkpt lat="42.1467432" lon="13.7158918"><ele>549.0</ele><time>2026-05-01T10:21:12.038Z</time></trkpt><trkpt lat="42.146644" lon="13.7161423"><ele>548.6666666666666</ele><time>2026-05-01T10:21:13.036Z</time></trkpt><trkpt lat="42.1465479" lon="13.7163893"><ele>548.3333333333333</ele><time>2026-05-01T10:21:14.027Z</time></trkpt><trkpt lat="42.1464486" lon="13.7166261"><ele>548.0</ele><time>2026-05-01T10:21:15.04Z</time></trkpt><trkpt lat="42.1463454" lon="13.7168573"><ele>546.6666666666666</ele><time>2026-05-01T10:21:16.031Z</time></trkpt><trkpt lat="42.1462323" lon="13.717091"><ele>545.3333333333334</ele><time>2026-05-01T10:21:17.05Z</time></trkpt><trkpt lat="42.1460918" lon="13.7173167"><ele>544.0</ele><time>2026-05-01T10:21:18.037Z</time></trkpt><trkpt lat="42.1459281" lon="13.7175263"><ele>544.0</ele><time>2026-05-01T10:21:19.041Z</time></trkpt><trkpt lat="42.145743" lon="13.7177288"><ele>544.0</ele><time>2026-05-01T10:21:20.031Z</time></trkpt><trkpt lat="42.145542" lon="13.7179381"><ele>545.5</ele><time>2026-05-01T10:21:21.04Z</time></trkpt><trkpt lat="42.1453348" lon="13.718159"><ele>547.0</ele><time>2026-05-01T10:21:22.039Z</time></trkpt><trkpt lat="42.1451325" lon="13.7183762"><ele>545.0</ele><time>2026-05-01T10:21:23.04Z</time></trkpt><trkpt lat="42.1449424" lon="13.7185772"><ele>543.0</ele><time>2026-05-01T10:21:24.03Z</time></trkpt><trkpt lat="42.1447638" lon="13.7187655"><ele>543.0</ele><time>2026-05-01T10:21:25.037Z</time></trkpt><trkpt lat="42.1445938" lon="13.7189486"><ele>543.0</ele><time>2026-05-01T10:21:26.024Z</time></trkpt><trkpt lat="42.1444277" lon="13.7191291"><ele>543.0</ele><time>2026-05-01T10:21:27.04Z</time></trkpt><trkpt lat="42.1442652" lon="13.7193032"><ele>543.3333333333334</ele><time>2026-05-01T10:21:28.04Z</time></trkpt><trkpt lat="42.1441061" lon="13.7194675"><ele>543.6666666666667</ele><time>2026-05-01T10:21:29.031Z</time></trkpt><trkpt lat="42.143939" lon="13.7196173"><ele>544.0</ele><time>2026-05-01T10:21:30.048Z</time></trkpt><trkpt lat="42.1437625" lon="13.7197565"><ele>544.0</ele><time>2026-05-01T10:21:31.037Z</time></trkpt><trkpt lat="42.1435843" lon="13.719891"><ele>544.0</ele><time>2026-05-01T10:21:32.033Z</time></trkpt><trkpt lat="42.1434086" lon="13.7200271"><ele>544.0</ele><time>2026-05-01T10:21:33.043Z</time></trkpt><trkpt lat="42.1432379" lon="13.7201635"><ele>545.0</ele><time>2026-05-01T10:21:34.038Z</time></trkpt><trkpt lat="42.1430749" lon="13.7202937"><ele>546.0</ele><time>2026-05-01T10:21:35.036Z</time></trkpt><trkpt lat="42.1429141" lon="13.7204148"><ele>547.0</ele><time>2026-05-01T10:21:36.036Z</time></trkpt><trkpt lat="42.1427594" lon="13.7205196"><ele>547.0</ele><time>2026-05-01T10:21:37.042Z</time></trkpt><trkpt lat="42.1426126" lon="13.7205834"><ele>547.0</ele><time>2026-05-01T10:21:38.036Z</time></trkpt><trkpt lat="42.1424793" lon="13.7206095"><ele>547.0</ele><time>2026-05-01T10:21:39.036Z</time></trkpt><trkpt lat="42.1423258" lon="13.7205942"><ele>547.0</ele><time>2026-05-01T10:21:40.039Z</time></trkpt><trkpt lat="42.1421535" lon="13.7205568"><ele>547.6666666666667</ele><time>2026-05-01T10:21:41.027Z</time></trkpt><trkpt lat="42.1419716" lon="13.7205085"><ele>548.3333333333334</ele><time>2026-05-01T10:21:42.032Z</time></trkpt><trkpt lat="42.1417851" lon="13.7204634"><ele>549.0</ele><time>2026-05-01T10:21:43.031Z</time></trkpt><trkpt lat="42.1416102" lon="13.7204174"><ele>550.0</ele><time>2026-05-01T10:21:44.027Z</time></trkpt><trkpt lat="42.1414388" lon="13.7203699"><ele>551.0</ele><time>2026-05-01T10:21:45.037Z</time></trkpt><trkpt lat="42.1412624" lon="13.7203199"><ele>552.0</ele><time>2026-05-01T10:21:46.027Z</time></trkpt><trkpt lat="42.1410887" lon="13.7202654"><ele>550.0</ele><time>2026-05-01T10:21:47.032Z</time></trkpt><trkpt lat="42.1409288" lon="13.7202249"><ele>548.0</ele><time>2026-05-01T10:21:48.025Z</time></trkpt><trkpt lat="42.1407806" lon="13.7202327"><ele>546.0</ele><time>2026-05-01T10:21:49.036Z</time></trkpt><trkpt lat="42.1406311" lon="13.7202925"><ele>546.0</ele><time>2026-05-01T10:21:50.025Z</time></trkpt><trkpt lat="42.1404828" lon="13.7204083"><ele>546.0</ele><time>2026-05-01T10:21:51.035Z</time></trkpt><trkpt lat="42.1403259" lon="13.7205624"><ele>546.0</ele><time>2026-05-01T10:21:52.039Z</time></trkpt><trkpt lat="42.1401609" lon="13.7207054"><ele>546.0</ele><time>2026-05-01T10:21:53.037Z</time></trkpt><trkpt lat="42.1399705" lon="13.7208167"><ele>546.0</ele><time>2026-05-01T10:21:54.039Z</time></trkpt><trkpt lat="42.1397476" lon="13.7209081"><ele>546.0</ele><time>2026-05-01T10:21:55.038Z</time></trkpt><trkpt lat="42.1395244" lon="13.7209913"><ele>546.3333333333334</ele><time>2026-05-01T10:21:56.049Z</time></trkpt><trkpt lat="42.1393109" lon="13.7210535"><ele>546.6666666666667</ele><time>2026-05-01T10:21:57.032Z</time></trkpt><trkpt lat="42.1391081" lon="13.7210992"><ele>547.0</ele><time>2026-05-01T10:21:58.029Z</time></trkpt><trkpt lat="42.1389238" lon="13.7211343"><ele>545.0</ele><time>2026-05-01T10:21:59.039Z</time></trkpt><trkpt lat="42.1387483" lon="13.7211597"><ele>543.0</ele><time>2026-05-01T10:22:00.045Z</time></trkpt><trkpt lat="42.1385743" lon="13.721209"><ele>541.0</ele><time>2026-05-01T10:22:01.027Z</time></trkpt><trkpt lat="42.1383986" lon="13.721301"><ele>541.0</ele><time>2026-05-01T10:22:02.038Z</time></trkpt><trkpt lat="42.1382235" lon="13.7214324"><ele>541.0</ele><time>2026-05-01T10:22:03.025Z</time></trkpt><trkpt lat="42.1380469" lon="13.7215741"><ele>541.0</ele><time>2026-05-01T10:22:04.049Z</time></trkpt><trkpt lat="42.1378763" lon="13.7216923"><ele>539.0</ele><time>2026-05-01T10:22:05.029Z</time></trkpt><trkpt lat="42.1376959" lon="13.721774"><ele>537.0</ele><time>2026-05-01T10:22:06.03Z</time></trkpt><trkpt lat="42.1375015" lon="13.721823"><ele>535.0</ele><time>2026-05-01T10:22:07.036Z</time></trkpt><trkpt lat="42.1373072" lon="13.7218393"><ele>534.6666666666667</ele><time>2026-05-01T10:22:08.035Z</time></trkpt><trkpt lat="42.1371237" lon="13.721844"><ele>534.3333333333334</ele><time>2026-05-01T10:22:09.025Z</time></trkpt><trkpt lat="42.1369621" lon="13.7218156"><ele>534.0</ele><time>2026-05-01T10:22:10.026Z</time></trkpt><trkpt lat="42.1368174" lon="13.7217524"><ele>534.0</ele><time>2026-05-01T10:22:11.032Z</time></trkpt><trkpt lat="42.1366806" lon="13.7216459"><ele>534.0</ele><time>2026-05-01T10:22:12.028Z</time></trkpt><trkpt lat="42.1365498" lon="13.7215196"><ele>534.0</ele><time>2026-05-01T10:22:13.036Z</time></trkpt><trkpt lat="42.1364357" lon="13.7213817"><ele>534.25</ele><time>2026-05-01T10:22:14.034Z</time></trkpt><trkpt lat="42.1363412" lon="13.7212283"><ele>534.5</ele><time>2026-05-01T10:22:15.021Z</time></trkpt><trkpt lat="42.136263" lon="13.7210575"><ele>534.75</ele><time>2026-05-01T10:22:16.031Z</time></trkpt><trkpt lat="42.1362048" lon="13.720873"><ele>535.0</ele><time>2026-05-01T10:22:17.038Z</time></trkpt><trkpt lat="42.136152" lon="13.7206981"><ele>535.0</ele><time>2026-05-01T10:22:18.037Z</time></trkpt><trkpt lat="42.136087" lon="13.7205568"><ele>535.0</ele><time>2026-05-01T10:22:19.024Z</time></trkpt><trkpt lat="42.1359904" lon="13.7204496"><ele>535.0</ele><time>2026-05-01T10:22:20.03Z</time></trkpt><trkpt lat="42.135857" lon="13.7203981"><ele>535.0</ele><time>2026-05-01T10:22:21.011Z</time></trkpt><trkpt lat="42.135698" lon="13.7204026"><ele>533.6666666666667</ele><time>2026-05-01T10:22:22.036Z</time></trkpt><trkpt lat="42.1355154" lon="13.7204318"><ele>532.3333333333334</ele><time>2026-05-01T10:22:23.035Z</time></trkpt><trkpt lat="42.1353222" lon="13.7204835"><ele>531.0</ele><time>2026-05-01T10:22:24.035Z</time></trkpt><trkpt lat="42.1351188" lon="13.7205508"><ele>531.0</ele><time>2026-05-01T10:22:25.033Z</time></trkpt><trkpt lat="42.1349108" lon="13.7206379"><ele>531.0</ele><time>2026-05-01T10:22:26.025Z</time></trkpt><trkpt lat="42.1347176" lon="13.7207287"><ele>531.0</ele><time>2026-05-01T10:22:27.032Z</time></trkpt><trkpt lat="42.134544" lon="13.720818"><ele>533.3333333333334</ele><time>2026-05-01T10:22:28.042Z</time></trkpt><trkpt lat="42.1343777" lon="13.72091"><ele>535.6666666666667</ele><time>2026-05-01T10:22:29.024Z</time></trkpt><trkpt lat="42.1342167" lon="13.7209961"><ele>538.0</ele><time>2026-05-01T10:22:30.029Z</time></trkpt><trkpt lat="42.1340646" lon="13.7210685"><ele>533.0</ele><time>2026-05-01T10:22:31.039Z</time></trkpt><trkpt lat="42.1339199" lon="13.7211379"><ele>528.0</ele><time>2026-05-01T10:22:32.027Z</time></trkpt><trkpt lat="42.1337974" lon="13.7212161"><ele>523.0</ele><time>2026-05-01T10:22:33.034Z</time></trkpt><trkpt lat="42.1336946" lon="13.7212978"><ele>518.0</ele><time>2026-05-01T10:22:34.033Z</time></trkpt><trkpt lat="42.1336059" lon="13.7214085"><ele>518.0</ele><time>2026-05-01T10:22:35.032Z</time></trkpt><trkpt lat="42.1335344" lon="13.7215828"><ele>518.0</ele><time>2026-05-01T10:22:36.032Z</time></trkpt><trkpt lat="42.1334861" lon="13.7217966"><ele>518.0</ele><time>2026-05-01T10:22:37.039Z</time></trkpt><trkpt lat="42.1334511" lon="13.7220183"><ele>518.3333333333333</ele><time>2026-05-01T10:22:38.024Z</time></trkpt><trkpt lat="42.1334146" lon="13.722228"><ele>518.6666666666666</ele><time>2026-05-01T10:22:39.034Z</time></trkpt><trkpt lat="42.1333772" lon="13.7224242"><ele>519.0</ele><time>2026-05-01T10:22:40.032Z</time></trkpt><trkpt lat="42.1333577" lon="13.7226134"><ele>518.6666666666666</ele><time>2026-05-01T10:22:41.037Z</time></trkpt><trkpt lat="42.1333603" lon="13.7228161"><ele>518.3333333333333</ele><time>2026-05-01T10:22:42.033Z</time></trkpt><trkpt lat="42.1333956" lon="13.7230235"><ele>518.0</ele><time>2026-05-01T10:22:43.032Z</time></trkpt><trkpt lat="42.1334602" lon="13.7232274"><ele>518.0</ele><time>2026-05-01T10:22:44.039Z</time></trkpt><trkpt lat="42.1335343" lon="13.7234429"><ele>518.0</ele><time>2026-05-01T10:22:45.047Z</time></trkpt><trkpt lat="42.1336177" lon="13.7236639"><ele>518.0</ele><time>2026-05-01T10:22:46.032Z</time></trkpt><trkpt lat="42.1336921" lon="13.7238689"><ele>518.25</ele><time>2026-05-01T10:22:47.041Z</time></trkpt><trkpt lat="42.1337594" lon="13.7240603"><ele>518.5</ele><time>2026-05-01T10:22:48.022Z</time></trkpt><trkpt lat="42.133824" lon="13.7242434"><ele>518.75</ele><time>2026-05-01T10:22:49.033Z</time></trkpt><trkpt lat="42.1338886" lon="13.7244137"><ele>519.0</ele><time>2026-05-01T10:22:50.028Z</time></trkpt><trkpt lat="42.1339499" lon="13.7245754"><ele>518.8</ele><time>2026-05-01T10:22:51.037Z</time></trkpt><trkpt lat="42.1340074" lon="13.7247261"><ele>518.5999999999999</ele><time>2026-05-01T10:22:52.034Z</time></trkpt><trkpt lat="42.1340508" lon="13.7248592"><ele>518.4</ele><time>2026-05-01T10:22:53.031Z</time></trkpt><trkpt lat="42.134073" lon="13.7249837"><ele>518.1999999999999</ele><time>2026-05-01T10:22:54.033Z</time></trkpt><trkpt lat="42.1340736" lon="13.7251115"><ele>518.0</ele><time>2026-05-01T10:22:55.042Z</time></trkpt><trkpt lat="42.1340366" lon="13.7252286"><ele>516.25</ele><time>2026-05-01T10:22:56.029Z</time></trkpt><trkpt lat="42.1339687" lon="13.7253556"><ele>514.5</ele><time>2026-05-01T10:22:57.036Z</time></trkpt><trkpt lat="42.1338905" lon="13.7254829"><ele>512.75</ele><time>2026-05-01T10:22:58.035Z</time></trkpt><trkpt lat="42.1338066" lon="13.7256052"><ele>511.0</ele><time>2026-05-01T10:22:59.031Z</time></trkpt><trkpt lat="42.1337304" lon="13.7257337"><ele>511.0</ele><time>2026-05-01T10:23:00.033Z</time></trkpt><trkpt lat="42.1336599" lon="13.7258497"><ele>511.0</ele><time>2026-05-01T10:23:01.034Z</time></trkpt><trkpt lat="42.1335824" lon="13.7259634"><ele>511.0</ele><time>2026-05-01T10:23:02.033Z</time></trkpt><trkpt lat="42.1334958" lon="13.7260681"><ele>511.0</ele><time>2026-05-01T10:23:03.033Z</time></trkpt><trkpt lat="42.1333957" lon="13.7261522"><ele>510.75</ele><time>2026-05-01T10:23:04.026Z</time></trkpt><trkpt lat="42.1332792" lon="13.726211"><ele>510.5</ele><time>2026-05-01T10:23:05.051Z</time></trkpt><trkpt lat="42.1331565" lon="13.7262398"><ele>510.25</ele><time>2026-05-01T10:23:06.028Z</time></trkpt><trkpt lat="42.1330423" lon="13.7262469"><ele>510.0</ele><time>2026-05-01T10:23:07.03Z</time></trkpt><trkpt lat="42.1329422" lon="13.7262531"><ele>510.0</ele><time>2026-05-01T10:23:08.026Z</time></trkpt><trkpt lat="42.1328485" lon="13.7262756"><ele>510.0</ele><time>2026-05-01T10:23:09.041Z</time></trkpt><trkpt lat="42.1327589" lon="13.7263221"><ele>510.0</ele><time>2026-05-01T10:23:10.041Z</time></trkpt><trkpt lat="42.1326829" lon="13.7264001"><ele>510.0</ele><time>2026-05-01T10:23:11.036Z</time></trkpt><trkpt lat="42.132613" lon="13.7265051"><ele>510.0</ele><time>2026-05-01T10:23:12.031Z</time></trkpt><trkpt lat="42.1325531" lon="13.7266469"><ele>510.0</ele><time>2026-05-01T10:23:13.031Z</time></trkpt><trkpt lat="42.1324895" lon="13.7267911"><ele>510.0</ele><time>2026-05-01T10:23:14.029Z</time></trkpt><trkpt lat="42.1324187" lon="13.7269252"><ele>510.0</ele><time>2026-05-01T10:23:15.033Z</time></trkpt><trkpt lat="42.1323486" lon="13.7270587"><ele>510.0</ele><time>2026-05-01T10:23:16.03Z</time></trkpt><trkpt lat="42.132282" lon="13.7271883"><ele>509.6</ele><time>2026-05-01T10:23:17.042Z</time></trkpt><trkpt lat="42.1322175" lon="13.727314"><ele>509.2</ele><time>2026-05-01T10:23:18.032Z</time></trkpt><trkpt lat="42.1321569" lon="13.7274349"><ele>508.79999999999995</ele><time>2026-05-01T10:23:19.021Z</time></trkpt><trkpt lat="42.1320985" lon="13.7275539"><ele>508.4</ele><time>2026-05-01T10:23:20.024Z</time></trkpt><trkpt lat="42.1320417" lon="13.7276679"><ele>508.0</ele><time>2026-05-01T10:23:21.026Z</time></trkpt><trkpt lat="42.1319872" lon="13.7277827"><ele>509.0</ele><time>2026-05-01T10:23:22.038Z</time></trkpt><trkpt lat="42.1319302" lon="13.7279003"><ele>509.99999999999994</ele><time>2026-05-01T10:23:23.037Z</time></trkpt><trkpt lat="42.1318738" lon="13.7280175"><ele>510.99999999999994</ele><time>2026-05-01T10:23:24.04Z</time></trkpt><trkpt lat="42.1318128" lon="13.7281331"><ele>512.0</ele><time>2026-05-01T10:23:25.022Z</time></trkpt><trkpt lat="42.1317526" lon="13.7282517"><ele>513.0</ele><time>2026-05-01T10:23:26.029Z</time></trkpt><trkpt lat="42.131691" lon="13.7283712"><ele>513.0</ele><time>2026-05-01T10:23:27.039Z</time></trkpt><trkpt lat="42.1316388" lon="13.7284869"><ele>513.0</ele><time>2026-05-01T10:23:28.035Z</time></trkpt><trkpt lat="42.1315879" lon="13.7285856"><ele>513.0</ele><time>2026-05-01T10:23:29.031Z</time></trkpt><trkpt lat="42.131543" lon="13.7286784"><ele>513.0</ele><time>2026-05-01T10:23:30.017Z</time></trkpt><trkpt lat="42.1314972" lon="13.7287708"><ele>513.0</ele><time>2026-05-01T10:23:31.05Z</time></trkpt><trkpt lat="42.1314447" lon="13.7288626"><ele>513.0</ele><time>2026-05-01T10:23:32.033Z</time></trkpt><trkpt lat="42.1313951" lon="13.7289588"><ele>512.8</ele><time>2026-05-01T10:23:33.031Z</time></trkpt><trkpt lat="42.1313424" lon="13.7290634"><ele>512.5999999999999</ele><time>2026-05-01T10:23:34.028Z</time></trkpt><trkpt lat="42.1312892" lon="13.7291664"><ele>512.4000000000001</ele><time>2026-05-01T10:23:35.044Z</time></trkpt><trkpt lat="42.1312361" lon="13.7292737"><ele>512.2</ele><time>2026-05-01T10:23:36.062Z</time></trkpt><trkpt lat="42.131185" lon="13.7293754"><ele>512.0</ele><time>2026-05-01T10:23:37.034Z</time></trkpt><trkpt lat="42.1311415" lon="13.7294662"><ele>512.0</ele><time>2026-05-01T10:23:38.049Z</time></trkpt><trkpt lat="42.1311003" lon="13.7295591"><ele>511.99999999999994</ele><time>2026-05-01T10:23:39.037Z</time></trkpt><trkpt lat="42.1310598" lon="13.7296495"><ele>512.0</ele><time>2026-05-01T10:23:40.033Z</time></trkpt><trkpt lat="42.1310178" lon="13.729734"><ele>512.0</ele><time>2026-05-01T10:23:41.036Z</time></trkpt><trkpt lat="42.1309743" lon="13.729814"><ele>511.99999999999994</ele><time>2026-05-01T10:23:42.042Z</time></trkpt><trkpt lat="42.1309328" lon="13.7298928"><ele>512.0</ele><time>2026-05-01T10:23:43.04Z</time></trkpt><trkpt lat="42.1309013" lon="13.7299712"><ele>512.0</ele><time>2026-05-01T10:23:44.035Z</time></trkpt><trkpt lat="42.1308427" lon="13.7301026"><ele>511.49999999999994</ele><time>2026-05-01T10:23:46.068Z</time></trkpt><trkpt lat="42.130782" lon="13.730227"><ele>511.0</ele><time>2026-05-01T10:23:48.038Z</time></trkpt><trkpt lat="42.1307395" lon="13.7303354"><ele>510.5</ele><time>2026-05-01T10:23:50.046Z</time></trkpt><trkpt lat="42.130703" lon="13.7304139"><ele>510.0</ele><time>2026-05-01T10:23:53.036Z</time></trkpt><trkpt lat="42.1306445" lon="13.7304462"><ele>509.49999999999994</ele><time>2026-05-01T10:24:19.041Z</time></trkpt><trkpt lat="42.1306184" lon="13.7305306"><ele>509.0</ele><time>2026-05-01T10:24:21.041Z</time></trkpt><trkpt lat="42.1305841" lon="13.7306194"><ele>508.3333333333333</ele><time>2026-05-01T10:24:25.048Z</time></trkpt><trkpt lat="42.1305107" lon="13.7306149"><ele>507.66666666666663</ele><time>2026-05-01T10:24:29.037Z</time></trkpt><trkpt lat="42.1304564" lon="13.7305698"><ele>507.0</ele><time>2026-05-01T10:24:30.026Z</time></trkpt><trkpt lat="42.1303961" lon="13.7305178"><ele>506.33333333333337</ele><time>2026-05-01T10:24:31.064Z</time></trkpt><trkpt lat="42.1303246" lon="13.7304662"><ele>505.6666666666667</ele><time>2026-05-01T10:24:32.044Z</time></trkpt><trkpt lat="42.1302563" lon="13.7304119"><ele>505.0</ele><time>2026-05-01T10:24:33.011Z</time></trkpt><trkpt lat="42.1302058" lon="13.7303212"><ele>504.2</ele><time>2026-05-01T10:24:34.03Z</time></trkpt><trkpt lat="42.1301829" lon="13.7302034"><ele>503.4</ele><time>2026-05-01T10:24:35.025Z</time></trkpt><trkpt lat="42.1301896" lon="13.7300775"><ele>502.6</ele><time>2026-05-01T10:24:36.031Z</time></trkpt><trkpt lat="42.130206" lon="13.7299409"><ele>501.8</ele><time>2026-05-01T10:24:37.046Z</time></trkpt><trkpt lat="42.1302225" lon="13.7297891"><ele>501.0</ele><time>2026-05-01T10:24:38.045Z</time></trkpt><trkpt lat="42.1302363" lon="13.7296291"><ele>501.0</ele><time>2026-05-01T10:24:39.027Z</time></trkpt><trkpt lat="42.1302466" lon="13.7294644"><ele>501.0</ele><time>2026-05-01T10:24:40.046Z</time></trkpt><trkpt lat="42.1302664" lon="13.7293043"><ele>501.0</ele><time>2026-05-01T10:24:41.039Z</time></trkpt><trkpt lat="42.1302929" lon="13.7291604"><ele>501.0</ele><time>2026-05-01T10:24:42.054Z</time></trkpt><trkpt lat="42.130329" lon="13.7290192"><ele>500.20000000000005</ele><time>2026-05-01T10:24:43.046Z</time></trkpt><trkpt lat="42.1303744" lon="13.7288853"><ele>499.40000000000003</ele><time>2026-05-01T10:24:44.042Z</time></trkpt><trkpt lat="42.1304455" lon="13.7287666"><ele>498.6</ele><time>2026-05-01T10:24:45.027Z</time></trkpt><trkpt lat="42.1305157" lon="13.7286774"><ele>497.8</ele><time>2026-05-01T10:24:46.033Z</time></trkpt><trkpt lat="42.1305759" lon="13.7285917"><ele>497.0</ele><time>2026-05-01T10:24:47.034Z</time></trkpt><trkpt lat="42.1306287" lon="13.7285131"><ele>496.0</ele><time>2026-05-01T10:24:48.069Z</time></trkpt><trkpt lat="42.1306863" lon="13.7284254"><ele>495.00000000000006</ele><time>2026-05-01T10:24:50.036Z</time></trkpt><trkpt lat="42.1307418" lon="13.7283653"><ele>494.00000000000006</ele><time>2026-05-01T10:25:06.021Z</time></trkpt><trkpt lat="42.1308364" lon="13.7282394"><ele>493.0</ele><time>2026-05-01T10:25:08.035Z</time></trkpt><trkpt lat="42.1308991" lon="13.7281642"><ele>492.0</ele><time>2026-05-01T10:25:09.043Z</time></trkpt><trkpt lat="42.1309706" lon="13.7280761"><ele>493.0</ele><time>2026-05-01T10:25:10.041Z</time></trkpt><trkpt lat="42.1310462" lon="13.7279706"><ele>494.00000000000006</ele><time>2026-05-01T10:25:11.029Z</time></trkpt><trkpt lat="42.1311305" lon="13.727857"><ele>495.00000000000006</ele><time>2026-05-01T10:25:12.03Z</time></trkpt><trkpt lat="42.1312099" lon="13.7277446"><ele>496.0</ele><time>2026-05-01T10:25:13.04Z</time></trkpt><trkpt lat="42.1312833" lon="13.7276518"><ele>497.0</ele><time>2026-05-01T10:25:14.032Z</time></trkpt><trkpt lat="42.131342" lon="13.7275557"><ele>496.99999999999994</ele><time>2026-05-01T10:25:15.041Z</time></trkpt><trkpt lat="42.1313769" lon="13.7274566"><ele>497.0</ele><time>2026-05-01T10:25:16.052Z</time></trkpt><trkpt lat="42.1313816" lon="13.7273532"><ele>497.0</ele><time>2026-05-01T10:25:17.023Z</time></trkpt><trkpt lat="42.131348" lon="13.727259"><ele>497.0</ele><time>2026-05-01T10:25:18.046Z</time></trkpt><trkpt lat="42.1312841" lon="13.7271996"><ele>496.99999999999994</ele><time>2026-05-01T10:25:19.039Z</time></trkpt><trkpt lat="42.131202" lon="13.7272053"><ele>497.0</ele><time>2026-05-01T10:25:20.029Z</time></trkpt><trkpt lat="42.1311079" lon="13.727271"><ele>497.0</ele><time>2026-05-01T10:25:21.045Z</time></trkpt><trkpt lat="42.1310143" lon="13.7273768"><ele>497.0</ele><time>2026-05-01T10:25:22.038Z</time></trkpt><trkpt lat="42.1309235" lon="13.7275048"><ele>497.0</ele><time>2026-05-01T10:25:23.034Z</time></trkpt><trkpt lat="42.1308317" lon="13.7276338"><ele>497.0</ele><time>2026-05-01T10:25:24.037Z</time></trkpt><trkpt lat="42.1307412" lon="13.7277645"><ele>495.75</ele><time>2026-05-01T10:25:25.039Z</time></trkpt><trkpt lat="42.1306483" lon="13.7278925"><ele>494.5</ele><time>2026-05-01T10:25:26.043Z</time></trkpt><trkpt lat="42.1305519" lon="13.7280215"><ele>493.25</ele><time>2026-05-01T10:25:27.032Z</time></trkpt><trkpt lat="42.1304557" lon="13.7281524"><ele>492.0</ele><time>2026-05-01T10:25:28.033Z</time></trkpt><trkpt lat="42.1303591" lon="13.7282865"><ele>492.0</ele><time>2026-05-01T10:25:29.038Z</time></trkpt><trkpt lat="42.1302638" lon="13.7284234"><ele>492.0</ele><time>2026-05-01T10:25:30.028Z</time></trkpt><trkpt lat="42.1301692" lon="13.7285662"><ele>492.0</ele><time>2026-05-01T10:25:31.043Z</time></trkpt><trkpt lat="42.130081" lon="13.7287262"><ele>492.0</ele><time>2026-05-01T10:25:32.035Z</time></trkpt><trkpt lat="42.1299933" lon="13.7288859"><ele>493.66666666666663</ele><time>2026-05-01T10:25:33.028Z</time></trkpt><trkpt lat="42.129907" lon="13.7290495"><ele>495.3333333333333</ele><time>2026-05-01T10:25:34.039Z</time></trkpt><trkpt lat="42.1298204" lon="13.7292179"><ele>497.0</ele><time>2026-05-01T10:25:35.033Z</time></trkpt><trkpt lat="42.1297368" lon="13.729385"><ele>494.5</ele><time>2026-05-01T10:25:36.038Z</time></trkpt><trkpt lat="42.1296534" lon="13.7295504"><ele>492.0</ele><time>2026-05-01T10:25:37.026Z</time></trkpt><trkpt lat="42.1295678" lon="13.7297127"><ele>489.5</ele><time>2026-05-01T10:25:38.043Z</time></trkpt><trkpt lat="42.1294791" lon="13.7298694"><ele>487.0</ele><time>2026-05-01T10:25:39.041Z</time></trkpt><trkpt lat="42.1293781" lon="13.7300277"><ele>487.0</ele><time>2026-05-01T10:25:40.026Z</time></trkpt><trkpt lat="42.1292622" lon="13.7301847"><ele>487.0</ele><time>2026-05-01T10:25:41.034Z</time></trkpt><trkpt lat="42.1291288" lon="13.7303308"><ele>487.0</ele><time>2026-05-01T10:25:42.029Z</time></trkpt><trkpt lat="42.1289859" lon="13.7304642"><ele>485.0</ele><time>2026-05-01T10:25:43.031Z</time></trkpt><trkpt lat="42.1288439" lon="13.7305939"><ele>483.0</ele><time>2026-05-01T10:25:44.033Z</time></trkpt><trkpt lat="42.1287062" lon="13.7307215"><ele>481.0</ele><time>2026-05-01T10:25:45.036Z</time></trkpt><trkpt lat="42.1285688" lon="13.7308499"><ele>481.0</ele><time>2026-05-01T10:25:46.033Z</time></trkpt><trkpt lat="42.1284353" lon="13.7309827"><ele>481.0</ele><time>2026-05-01T10:25:47.038Z</time></trkpt><trkpt lat="42.1283062" lon="13.7311158"><ele>481.0</ele><time>2026-05-01T10:25:48.029Z</time></trkpt><trkpt lat="42.1281757" lon="13.7312558"><ele>480.6666666666667</ele><time>2026-05-01T10:25:49.035Z</time></trkpt><trkpt lat="42.128048" lon="13.7314008"><ele>480.33333333333337</ele><time>2026-05-01T10:25:50.027Z</time></trkpt><trkpt lat="42.1279241" lon="13.7315383"><ele>480.0</ele><time>2026-05-01T10:25:51.041Z</time></trkpt><trkpt lat="42.1278038" lon="13.7316712"><ele>480.0</ele><time>2026-05-01T10:25:52.03Z</time></trkpt><trkpt lat="42.1277024" lon="13.7317856"><ele>480.0</ele><time>2026-05-01T10:25:53.026Z</time></trkpt><trkpt lat="42.1276066" lon="13.7318944"><ele>480.0</ele><time>2026-05-01T10:25:54.063Z</time></trkpt><trkpt lat="42.1275053" lon="13.7319894"><ele>480.0</ele><time>2026-05-01T10:25:55.034Z</time></trkpt><trkpt lat="42.1273858" lon="13.7320571"><ele>478.66666666666663</ele><time>2026-05-01T10:25:56.038Z</time></trkpt><trkpt lat="42.1272503" lon="13.7320957"><ele>477.3333333333333</ele><time>2026-05-01T10:25:57.041Z</time></trkpt><trkpt lat="42.1271047" lon="13.7321526"><ele>476.0</ele><time>2026-05-01T10:25:58.053Z</time></trkpt><trkpt lat="42.1269515" lon="13.7322286"><ele>476.0</ele><time>2026-05-01T10:25:59.039Z</time></trkpt><trkpt lat="42.1268009" lon="13.7323249"><ele>476.0</ele><time>2026-05-01T10:26:00.036Z</time></trkpt><trkpt lat="42.1266563" lon="13.7324238"><ele>476.0</ele><time>2026-05-01T10:26:01.043Z</time></trkpt><trkpt lat="42.1265046" lon="13.7325315"><ele>475.66666666666663</ele><time>2026-05-01T10:26:02.038Z</time></trkpt><trkpt lat="42.1263455" lon="13.732646"><ele>475.33333333333337</ele><time>2026-05-01T10:26:03.036Z</time></trkpt><trkpt lat="42.1261853" lon="13.7327624"><ele>475.0</ele><time>2026-05-01T10:26:04.037Z</time></trkpt><trkpt lat="42.1260205" lon="13.732876"><ele>474.6666666666667</ele><time>2026-05-01T10:26:05.066Z</time></trkpt><trkpt lat="42.1258547" lon="13.732988"><ele>474.33333333333337</ele><time>2026-05-01T10:26:06.029Z</time></trkpt><trkpt lat="42.1256948" lon="13.7330982"><ele>474.0</ele><time>2026-05-01T10:26:07.03Z</time></trkpt><trkpt lat="42.1255367" lon="13.7332035"><ele>474.66666666666663</ele><time>2026-05-01T10:26:08.031Z</time></trkpt><trkpt lat="42.1253802" lon="13.7333101"><ele>475.3333333333333</ele><time>2026-05-01T10:26:09.034Z</time></trkpt><trkpt lat="42.1252258" lon="13.7334166"><ele>476.0</ele><time>2026-05-01T10:26:10.063Z</time></trkpt><trkpt lat="42.1250689" lon="13.7335214"><ele>475.3333333333333</ele><time>2026-05-01T10:26:11.033Z</time></trkpt><trkpt lat="42.1249136" lon="13.733625"><ele>474.66666666666663</ele><time>2026-05-01T10:26:12.033Z</time></trkpt><trkpt lat="42.1247592" lon="13.7337256"><ele>474.0</ele><time>2026-05-01T10:26:13.03Z</time></trkpt><trkpt lat="42.1246013" lon="13.7338346"><ele>473.66666666666663</ele><time>2026-05-01T10:26:14.038Z</time></trkpt><trkpt lat="42.1244413" lon="13.7339467"><ele>473.3333333333333</ele><time>2026-05-01T10:26:15.033Z</time></trkpt><trkpt lat="42.1242765" lon="13.734056"><ele>473.0</ele><time>2026-05-01T10:26:16.036Z</time></trkpt><trkpt lat="42.1241122" lon="13.734168"><ele>473.3333333333333</ele><time>2026-05-01T10:26:17.024Z</time></trkpt><trkpt lat="42.123947" lon="13.7342785"><ele>473.66666666666663</ele><time>2026-05-01T10:26:18.034Z</time></trkpt><trkpt lat="42.1237806" lon="13.7343912"><ele>474.0</ele><time>2026-05-01T10:26:19.03Z</time></trkpt><trkpt lat="42.123613" lon="13.7345098"><ele>474.0</ele><time>2026-05-01T10:26:20.031Z</time></trkpt><trkpt lat="42.1234424" lon="13.7346333"><ele>474.0</ele><time>2026-05-01T10:26:21.04Z</time></trkpt><trkpt lat="42.1232708" lon="13.7347553"><ele>474.0</ele><time>2026-05-01T10:26:22.041Z</time></trkpt><trkpt lat="42.1231069" lon="13.7348682"><ele>475.0</ele><time>2026-05-01T10:26:23.036Z</time></trkpt><trkpt lat="42.1229484" lon="13.7349693"><ele>476.0</ele><time>2026-05-01T10:26:24.038Z</time></trkpt><trkpt lat="42.1227791" lon="13.7350681"><ele>477.0</ele><time>2026-05-01T10:26:25.063Z</time></trkpt><trkpt lat="42.122599" lon="13.7351635"><ele>477.33333333333337</ele><time>2026-05-01T10:26:26.039Z</time></trkpt><trkpt lat="42.1223981" lon="13.7352566"><ele>477.6666666666667</ele><time>2026-05-01T10:26:27.029Z</time></trkpt><trkpt lat="42.1221943" lon="13.7353356"><ele>478.0</ele><time>2026-05-01T10:26:28.032Z</time></trkpt><trkpt lat="42.121995" lon="13.7354079"><ele>478.0</ele><time>2026-05-01T10:26:29.025Z</time></trkpt><trkpt lat="42.121814" lon="13.7354702"><ele>478.0</ele><time>2026-05-01T10:26:30.054Z</time></trkpt><trkpt lat="42.1216442" lon="13.7355352"><ele>478.0</ele><time>2026-05-01T10:26:31.034Z</time></trkpt><trkpt lat="42.1214806" lon="13.7356044"><ele>478.6666666666667</ele><time>2026-05-01T10:26:32.03Z</time></trkpt><trkpt lat="42.1213148" lon="13.7356758"><ele>479.33333333333337</ele><time>2026-05-01T10:26:33.036Z</time></trkpt><trkpt lat="42.1211433" lon="13.7357466"><ele>480.0</ele><time>2026-05-01T10:26:34.039Z</time></trkpt><trkpt lat="42.1209687" lon="13.7358154"><ele>480.0</ele><time>2026-05-01T10:26:35.041Z</time></trkpt><trkpt lat="42.1207927" lon="13.7358773"><ele>480.0</ele><time>2026-05-01T10:26:36.038Z</time></trkpt><trkpt lat="42.1206175" lon="13.735942"><ele>480.0</ele><time>2026-05-01T10:26:37.041Z</time></trkpt><trkpt lat="42.1204446" lon="13.7360016"><ele>481.66666666666663</ele><time>2026-05-01T10:26:38.037Z</time></trkpt><trkpt lat="42.1202786" lon="13.7360483"><ele>483.3333333333333</ele><time>2026-05-01T10:26:39.037Z</time></trkpt><trkpt lat="42.1201228" lon="13.7360559"><ele>485.0</ele><time>2026-05-01T10:26:40.029Z</time></trkpt><trkpt lat="42.1199779" lon="13.7360105"><ele>485.66666666666663</ele><time>2026-05-01T10:26:41.037Z</time></trkpt><trkpt lat="42.1198349" lon="13.7359115"><ele>486.33333333333337</ele><time>2026-05-01T10:26:42.039Z</time></trkpt><trkpt lat="42.1196874" lon="13.7357804"><ele>487.0</ele><time>2026-05-01T10:26:43.037Z</time></trkpt><trkpt lat="42.1195361" lon="13.7356437"><ele>487.0</ele><time>2026-05-01T10:26:44.038Z</time></trkpt><trkpt lat="42.1193783" lon="13.7355086"><ele>487.0</ele><time>2026-05-01T10:26:45.043Z</time></trkpt><trkpt lat="42.1192133" lon="13.7353794"><ele>487.0</ele><time>2026-05-01T10:26:46.052Z</time></trkpt><trkpt lat="42.1190552" lon="13.7352687"><ele>487.6666666666667</ele><time>2026-05-01T10:26:47.037Z</time></trkpt><trkpt lat="42.1189053" lon="13.7351681"><ele>488.33333333333337</ele><time>2026-05-01T10:26:48.039Z</time></trkpt><trkpt lat="42.1187699" lon="13.7350699"><ele>489.0</ele><time>2026-05-01T10:26:49.038Z</time></trkpt><trkpt lat="42.1186392" lon="13.7349947"><ele>489.0</ele><time>2026-05-01T10:26:50.041Z</time></trkpt><trkpt lat="42.1185039" lon="13.7349565"><ele>489.0</ele><time>2026-05-01T10:26:51.04Z</time></trkpt><trkpt lat="42.1183569" lon="13.7349793"><ele>489.0</ele><time>2026-05-01T10:26:52.043Z</time></trkpt><trkpt lat="42.1181991" lon="13.7350647"><ele>491.0</ele><time>2026-05-01T10:26:53.031Z</time></trkpt><trkpt lat="42.1180383" lon="13.735176"><ele>493.0</ele><time>2026-05-01T10:26:54.041Z</time></trkpt><trkpt lat="42.1178803" lon="13.7352747"><ele>495.0</ele><time>2026-05-01T10:26:55.035Z</time></trkpt><trkpt lat="42.117726" lon="13.7353531"><ele>495.0</ele><time>2026-05-01T10:26:56.03Z</time></trkpt><trkpt lat="42.1175686" lon="13.7354129"><ele>495.0</ele><time>2026-05-01T10:26:57.04Z</time></trkpt><trkpt lat="42.1174019" lon="13.7354409"><ele>495.0</ele><time>2026-05-01T10:26:58.033Z</time></trkpt><trkpt lat="42.1172282" lon="13.7354332"><ele>496.66666666666663</ele><time>2026-05-01T10:26:59.048Z</time></trkpt><trkpt lat="42.1170587" lon="13.7354234"><ele>498.3333333333333</ele><time>2026-05-01T10:27:00.039Z</time></trkpt><trkpt lat="42.11691" lon="13.7354325"><ele>500.0</ele><time>2026-05-01T10:27:01.044Z</time></trkpt><trkpt lat="42.1167672" lon="13.7354543"><ele>500.0</ele><time>2026-05-01T10:27:02.034Z</time></trkpt><trkpt lat="42.116632" lon="13.7354779"><ele>500.0</ele><time>2026-05-01T10:27:03.045Z</time></trkpt><trkpt lat="42.1164966" lon="13.7355075"><ele>500.0</ele><time>2026-05-01T10:27:04.032Z</time></trkpt><trkpt lat="42.1163683" lon="13.7355767"><ele>500.0</ele><time>2026-05-01T10:27:05.04Z</time></trkpt><trkpt lat="42.116252" lon="13.7356946"><ele>501.66666666666663</ele><time>2026-05-01T10:27:06.042Z</time></trkpt><trkpt lat="42.1161623" lon="13.7358522"><ele>503.33333333333337</ele><time>2026-05-01T10:27:07.039Z</time></trkpt><trkpt lat="42.1161022" lon="13.7360492"><ele>505.0</ele><time>2026-05-01T10:27:08.057Z</time></trkpt><trkpt lat="42.1160885" lon="13.7362601"><ele>506.6666666666667</ele><time>2026-05-01T10:27:09.031Z</time></trkpt><trkpt lat="42.1161197" lon="13.7364637"><ele>508.33333333333337</ele><time>2026-05-01T10:27:10.037Z</time></trkpt><trkpt lat="42.1161832" lon="13.7366543"><ele>510.0</ele><time>2026-05-01T10:27:11.037Z</time></trkpt><trkpt lat="42.1162891" lon="13.7368251"><ele>510.33333333333337</ele><time>2026-05-01T10:27:12.035Z</time></trkpt><trkpt lat="42.1164166" lon="13.736986"><ele>510.6666666666667</ele><time>2026-05-01T10:27:13.041Z</time></trkpt><trkpt lat="42.1165339" lon="13.7371537"><ele>511.0</ele><time>2026-05-01T10:27:14.035Z</time></trkpt><trkpt lat="42.1166328" lon="13.7373014"><ele>511.0</ele><time>2026-05-01T10:27:15.059Z</time></trkpt><trkpt lat="42.1167216" lon="13.7374523"><ele>511.0</ele><time>2026-05-01T10:27:16.038Z</time></trkpt><trkpt lat="42.1167906" lon="13.7376114"><ele>511.0</ele><time>2026-05-01T10:27:17.038Z</time></trkpt><trkpt lat="42.1168371" lon="13.7377765"><ele>511.0</ele><time>2026-05-01T10:27:18.047Z</time></trkpt><trkpt lat="42.1168655" lon="13.7379512"><ele>511.75</ele><time>2026-05-01T10:27:19.033Z</time></trkpt><trkpt lat="42.1168642" lon="13.7381253"><ele>512.5</ele><time>2026-05-01T10:27:20.057Z</time></trkpt><trkpt lat="42.1168407" lon="13.7383196"><ele>513.25</ele><time>2026-05-01T10:27:21.037Z</time></trkpt><trkpt lat="42.1167925" lon="13.7385211"><ele>514.0</ele><time>2026-05-01T10:27:22.037Z</time></trkpt><trkpt lat="42.116729" lon="13.7387359"><ele>515.0</ele><time>2026-05-01T10:27:23.034Z</time></trkpt><trkpt lat="42.1166746" lon="13.7389507"><ele>516.0</ele><time>2026-05-01T10:27:24.033Z</time></trkpt><trkpt lat="42.1166143" lon="13.7391699"><ele>517.0</ele><time>2026-05-01T10:27:25.037Z</time></trkpt><trkpt lat="42.1165462" lon="13.7393749"><ele>520.6666666666667</ele><time>2026-05-01T10:27:26.033Z</time></trkpt><trkpt lat="42.1164652" lon="13.7395608"><ele>524.3333333333334</ele><time>2026-05-01T10:27:27.038Z</time></trkpt><trkpt lat="42.1163683" lon="13.7397143"><ele>528.0</ele><time>2026-05-01T10:27:28.051Z</time></trkpt><trkpt lat="42.1162691" lon="13.7398563"><ele>528.0</ele><time>2026-05-01T10:27:29.037Z</time></trkpt><trkpt lat="42.1161756" lon="13.7400074"><ele>528.0</ele><time>2026-05-01T10:27:30.033Z</time></trkpt><trkpt lat="42.1160853" lon="13.7401581"><ele>528.0</ele><time>2026-05-01T10:27:31.03Z</time></trkpt><trkpt lat="42.1159976" lon="13.7402978"><ele>528.0</ele><time>2026-05-01T10:27:32.029Z</time></trkpt><trkpt lat="42.1159115" lon="13.7404359"><ele>527.6</ele><time>2026-05-01T10:27:33.039Z</time></trkpt><trkpt lat="42.1158348" lon="13.7405663"><ele>527.1999999999999</ele><time>2026-05-01T10:27:34.034Z</time></trkpt><trkpt lat="42.1157702" lon="13.7406875"><ele>526.8</ele><time>2026-05-01T10:27:35.053Z</time></trkpt><trkpt lat="42.1157163" lon="13.7408"><ele>526.4</ele><time>2026-05-01T10:27:36.043Z</time></trkpt><trkpt lat="42.1156671" lon="13.7408938"><ele>526.0</ele><time>2026-05-01T10:27:37.035Z</time></trkpt><trkpt lat="42.1156259" lon="13.740984"><ele>527.3333333333334</ele><time>2026-05-01T10:27:38.034Z</time></trkpt><trkpt lat="42.1155872" lon="13.7410691"><ele>528.6666666666667</ele><time>2026-05-01T10:27:39.053Z</time></trkpt><trkpt lat="42.1155411" lon="13.7411496"><ele>530.0</ele><time>2026-05-01T10:27:40.062Z</time></trkpt><trkpt lat="42.1154908" lon="13.7412253"><ele>531.3333333333334</ele><time>2026-05-01T10:27:41.034Z</time></trkpt><trkpt lat="42.11543" lon="13.7412926"><ele>532.6666666666666</ele><time>2026-05-01T10:27:42.034Z</time></trkpt><trkpt lat="42.1153594" lon="13.7413408"><ele>534.0</ele><time>2026-05-01T10:27:43.042Z</time></trkpt><trkpt lat="42.1152869" lon="13.7413683"><ele>534.0</ele><time>2026-05-01T10:27:44.044Z</time></trkpt><trkpt lat="42.1152156" lon="13.7413847"><ele>534.0</ele><time>2026-05-01T10:27:45.038Z</time></trkpt><trkpt lat="42.1151403" lon="13.7414029"><ele>534.0</ele><time>2026-05-01T10:27:46.033Z</time></trkpt><trkpt lat="42.1150637" lon="13.7414229"><ele>534.0</ele><time>2026-05-01T10:27:47.037Z</time></trkpt><trkpt lat="42.1149854" lon="13.7414412"><ele>534.0</ele><time>2026-05-01T10:27:48.039Z</time></trkpt><trkpt lat="42.11491" lon="13.7414571"><ele>534.0</ele><time>2026-05-01T10:27:49.039Z</time></trkpt><trkpt lat="42.1148343" lon="13.7414613"><ele>533.1666666666666</ele><time>2026-05-01T10:27:50.055Z</time></trkpt><trkpt lat="42.1147629" lon="13.7414289"><ele>532.3333333333334</ele><time>2026-05-01T10:27:51.023Z</time></trkpt><trkpt lat="42.1146977" lon="13.7413703"><ele>531.5</ele><time>2026-05-01T10:27:52.029Z</time></trkpt><trkpt lat="42.1146365" lon="13.741291"><ele>530.6666666666667</ele><time>2026-05-01T10:27:53.04Z</time></trkpt><trkpt lat="42.1145688" lon="13.7412135"><ele>529.8333333333334</ele><time>2026-05-01T10:27:54.039Z</time></trkpt><trkpt lat="42.114499" lon="13.7411401"><ele>529.0</ele><time>2026-05-01T10:27:55.032Z</time></trkpt><trkpt lat="42.1144233" lon="13.7410699"><ele>530.0</ele><time>2026-05-01T10:27:56.036Z</time></trkpt><trkpt lat="42.114345" lon="13.7410063"><ele>531.0</ele><time>2026-05-01T10:27:57.045Z</time></trkpt><trkpt lat="42.1142691" lon="13.7409664"><ele>532.0</ele><time>2026-05-01T10:27:58.04Z</time></trkpt><trkpt lat="42.1141953" lon="13.7409439"><ele>533.0</ele><time>2026-05-01T10:27:59.034Z</time></trkpt><trkpt lat="42.1141187" lon="13.7409504"><ele>534.0</ele><time>2026-05-01T10:28:00.035Z</time></trkpt><trkpt lat="42.1140402" lon="13.7409683"><ele>535.0</ele><time>2026-05-01T10:28:01.032Z</time></trkpt><trkpt lat="42.1139546" lon="13.7410059"><ele>535.2</ele><time>2026-05-01T10:28:02.05Z</time></trkpt><trkpt lat="42.1138642" lon="13.7410346"><ele>535.4</ele><time>2026-05-01T10:28:03.037Z</time></trkpt><trkpt lat="42.1137695" lon="13.7410681"><ele>535.6</ele><time>2026-05-01T10:28:04.028Z</time></trkpt><trkpt lat="42.1136792" lon="13.741106"><ele>535.8</ele><time>2026-05-01T10:28:05.034Z</time></trkpt><trkpt lat="42.1135913" lon="13.7411417"><ele>536.0</ele><time>2026-05-01T10:28:06.045Z</time></trkpt><trkpt lat="42.1135073" lon="13.7411705"><ele>533.6</ele><time>2026-05-01T10:28:07.031Z</time></trkpt><trkpt lat="42.1134171" lon="13.7411972"><ele>531.2</ele><time>2026-05-01T10:28:08.065Z</time></trkpt><trkpt lat="42.1133223" lon="13.7412276"><ele>528.8</ele><time>2026-05-01T10:28:09.031Z</time></trkpt><trkpt lat="42.1132235" lon="13.7412556"><ele>526.4</ele><time>2026-05-01T10:28:10.03Z</time></trkpt><trkpt lat="42.1131192" lon="13.7412714"><ele>524.0</ele><time>2026-05-01T10:28:11.03Z</time></trkpt><trkpt lat="42.1130094" lon="13.7412714"><ele>523.25</ele><time>2026-05-01T10:28:12.034Z</time></trkpt><trkpt lat="42.112894" lon="13.7412642"><ele>522.5</ele><time>2026-05-01T10:28:13.044Z</time></trkpt><trkpt lat="42.1127778" lon="13.7412436"><ele>521.75</ele><time>2026-05-01T10:28:14.033Z</time></trkpt><trkpt lat="42.1126595" lon="13.741217"><ele>521.0</ele><time>2026-05-01T10:28:15.051Z</time></trkpt><trkpt lat="42.1125437" lon="13.741188"><ele>521.0</ele><time>2026-05-01T10:28:16.04Z</time></trkpt><trkpt lat="42.1124285" lon="13.7411599"><ele>521.0</ele><time>2026-05-01T10:28:17.035Z</time></trkpt><trkpt lat="42.1123252" lon="13.7411304"><ele>521.0</ele><time>2026-05-01T10:28:18.038Z</time></trkpt><trkpt lat="42.1122445" lon="13.7411133"><ele>521.0</ele><time>2026-05-01T10:28:19.036Z</time></trkpt><trkpt lat="42.1121749" lon="13.7411147"><ele>521.0</ele><time>2026-05-01T10:28:20.065Z</time></trkpt><trkpt lat="42.1120897" lon="13.7412207"><ele>521.0</ele><time>2026-05-01T10:28:22.037Z</time></trkpt><trkpt lat="42.1121003" lon="13.7413092"><ele>521.0</ele><time>2026-05-01T10:28:23.06Z</time></trkpt><trkpt lat="42.1121417" lon="13.7413894"><ele>521.0</ele><time>2026-05-01T10:28:24.049Z</time></trkpt><trkpt lat="42.1122054" lon="13.7414514"><ele>521.0</ele><time>2026-05-01T10:28:25.037Z</time></trkpt><trkpt lat="42.1122916" lon="13.7414998"><ele>521.0</ele><time>2026-05-01T10:28:26.033Z</time></trkpt><trkpt lat="42.1123923" lon="13.7415536"><ele>521.0</ele><time>2026-05-01T10:28:27.029Z</time></trkpt><trkpt lat="42.1124782" lon="13.741606"><ele>521.0</ele><time>2026-05-01T10:28:28.023Z</time></trkpt><trkpt lat="42.1125623" lon="13.7416581"><ele>521.0</ele><time>2026-05-01T10:28:29.037Z</time></trkpt><trkpt lat="42.1126465" lon="13.7417212"><ele>521.0</ele><time>2026-05-01T10:28:30.03Z</time></trkpt><trkpt lat="42.1127361" lon="13.7417899"><ele>521.0</ele><time>2026-05-01T10:28:31.032Z</time></trkpt><trkpt lat="42.112825" lon="13.7418601"><ele>521.0</ele><time>2026-05-01T10:28:32.023Z</time></trkpt><trkpt lat="42.1129146" lon="13.7419277"><ele>519.8</ele><time>2026-05-01T10:28:33.036Z</time></trkpt><trkpt lat="42.1129996" lon="13.7419982"><ele>518.6</ele><time>2026-05-01T10:28:34.027Z</time></trkpt><trkpt lat="42.1130857" lon="13.7420662"><ele>517.4</ele><time>2026-05-01T10:28:35.034Z</time></trkpt><trkpt lat="42.1131648" lon="13.7421267"><ele>516.2</ele><time>2026-05-01T10:28:36.035Z</time></trkpt><trkpt lat="42.113235" lon="13.7421878"><ele>515.0</ele><time>2026-05-01T10:28:37.029Z</time></trkpt><trkpt lat="42.1132891" lon="13.7422622"><ele>515.0</ele><time>2026-05-01T10:28:38.039Z</time></trkpt><trkpt lat="42.1133241" lon="13.7423527"><ele>515.0</ele><time>2026-05-01T10:28:39.038Z</time></trkpt><trkpt lat="42.1133258" lon="13.7424533"><ele>515.0</ele><time>2026-05-01T10:28:40.034Z</time></trkpt><trkpt lat="42.1132922" lon="13.742555"><ele>515.0</ele><time>2026-05-01T10:28:41.048Z</time></trkpt><trkpt lat="42.1132374" lon="13.7426493"><ele>515.0</ele><time>2026-05-01T10:28:42.032Z</time></trkpt><trkpt lat="42.1131684" lon="13.742755"><ele>515.0</ele><time>2026-05-01T10:28:43.037Z</time></trkpt><trkpt lat="42.1130982" lon="13.7428627"><ele>514.6666666666666</ele><time>2026-05-01T10:28:44.022Z</time></trkpt><trkpt lat="42.1130266" lon="13.74297"><ele>514.3333333333333</ele><time>2026-05-01T10:28:45.036Z</time></trkpt><trkpt lat="42.1129636" lon="13.7430595"><ele>514.0</ele><time>2026-05-01T10:28:46.038Z</time></trkpt><trkpt lat="42.1129011" lon="13.7431433"><ele>513.6666666666666</ele><time>2026-05-01T10:28:47.055Z</time></trkpt><trkpt lat="42.1128465" lon="13.743226"><ele>513.3333333333334</ele><time>2026-05-01T10:28:48.041Z</time></trkpt><trkpt lat="42.1127989" lon="13.7432978"><ele>513.0</ele><time>2026-05-01T10:28:49.036Z</time></trkpt><trkpt lat="42.1127499" lon="13.7433647"><ele>513.0</ele><time>2026-05-01T10:28:50.034Z</time></trkpt><trkpt lat="42.1126912" lon="13.7434375"><ele>513.0</ele><time>2026-05-01T10:28:51.044Z</time></trkpt><trkpt lat="42.1126201" lon="13.7435127"><ele>513.0</ele><time>2026-05-01T10:28:52.021Z</time></trkpt><trkpt lat="42.1125312" lon="13.7435881"><ele>513.0</ele><time>2026-05-01T10:28:53.035Z</time></trkpt><trkpt lat="42.1124277" lon="13.7436523"><ele>513.0</ele><time>2026-05-01T10:28:54.039Z</time></trkpt><trkpt lat="42.1123125" lon="13.7437057"><ele>513.75</ele><time>2026-05-01T10:28:55.035Z</time></trkpt><trkpt lat="42.112197" lon="13.7437491"><ele>514.5</ele><time>2026-05-01T10:28:56.03Z</time></trkpt><trkpt lat="42.1120735" lon="13.7437914"><ele>515.25</ele><time>2026-05-01T10:28:57.04Z</time></trkpt><trkpt lat="42.11195" lon="13.7438531"><ele>516.0</ele><time>2026-05-01T10:28:58.032Z</time></trkpt><trkpt lat="42.1118287" lon="13.7439308"><ele>516.0</ele><time>2026-05-01T10:28:59.065Z</time></trkpt><trkpt lat="42.111705" lon="13.7440194"><ele>516.0</ele><time>2026-05-01T10:29:00.041Z</time></trkpt><trkpt lat="42.1115737" lon="13.7441092"><ele>516.0</ele><time>2026-05-01T10:29:01.038Z</time></trkpt><trkpt lat="42.1114394" lon="13.7442011"><ele>516.0</ele><time>2026-05-01T10:29:02.033Z</time></trkpt><trkpt lat="42.1112997" lon="13.7443018"><ele>517.0</ele><time>2026-05-01T10:29:03.036Z</time></trkpt><trkpt lat="42.1111555" lon="13.7444078"><ele>518.0</ele><time>2026-05-01T10:29:04.033Z</time></trkpt><trkpt lat="42.1110079" lon="13.7445193"><ele>519.0</ele><time>2026-05-01T10:29:05.025Z</time></trkpt><trkpt lat="42.1108613" lon="13.7446395"><ele>518.0</ele><time>2026-05-01T10:29:06.04Z</time></trkpt><trkpt lat="42.1107176" lon="13.7447738"><ele>517.0</ele><time>2026-05-01T10:29:07.038Z</time></trkpt><trkpt lat="42.1105691" lon="13.7449117"><ele>516.0</ele><time>2026-05-01T10:29:08.051Z</time></trkpt><trkpt lat="42.1104202" lon="13.745059"><ele>517.6666666666666</ele><time>2026-05-01T10:29:09.046Z</time></trkpt><trkpt lat="42.1102711" lon="13.7452146"><ele>519.3333333333333</ele><time>2026-05-01T10:29:10.046Z</time></trkpt><trkpt lat="42.1101191" lon="13.7453691"><ele>521.0</ele><time>2026-05-01T10:29:11.04Z</time></trkpt><trkpt lat="42.1099639" lon="13.7455281"><ele>520.3333333333333</ele><time>2026-05-01T10:29:12.037Z</time></trkpt><trkpt lat="42.109806" lon="13.7456885"><ele>519.6666666666666</ele><time>2026-05-01T10:29:13.043Z</time></trkpt><trkpt lat="42.1096519" lon="13.7458447"><ele>519.0</ele><time>2026-05-01T10:29:14.038Z</time></trkpt><trkpt lat="42.1094967" lon="13.7459958"><ele>520.3333333333334</ele><time>2026-05-01T10:29:15.039Z</time></trkpt><trkpt lat="42.1093412" lon="13.7461469"><ele>521.6666666666667</ele><time>2026-05-01T10:29:16.03Z</time></trkpt><trkpt lat="42.1091891" lon="13.7462958"><ele>523.0</ele><time>2026-05-01T10:29:17.041Z</time></trkpt><trkpt lat="42.1090366" lon="13.7464433"><ele>523.0</ele><time>2026-05-01T10:29:18.038Z</time></trkpt><trkpt lat="42.1088938" lon="13.7465934"><ele>523.0</ele><time>2026-05-01T10:29:19.048Z</time></trkpt><trkpt lat="42.1087496" lon="13.7467409"><ele>523.0</ele><time>2026-05-01T10:29:20.031Z</time></trkpt><trkpt lat="42.1086062" lon="13.7468853"><ele>523.3333333333334</ele><time>2026-05-01T10:29:21.028Z</time></trkpt><trkpt lat="42.1084688" lon="13.7470311"><ele>523.6666666666666</ele><time>2026-05-01T10:29:22.037Z</time></trkpt><trkpt lat="42.1083442" lon="13.7471824"><ele>524.0</ele><time>2026-05-01T10:29:23.037Z</time></trkpt><trkpt lat="42.1082254" lon="13.7473439"><ele>524.0</ele><time>2026-05-01T10:29:24.068Z</time></trkpt><trkpt lat="42.10812" lon="13.7475161"><ele>524.0</ele><time>2026-05-01T10:29:25.032Z</time></trkpt><trkpt lat="42.1080106" lon="13.7476836"><ele>524.0</ele><time>2026-05-01T10:29:26.038Z</time></trkpt><trkpt lat="42.1079023" lon="13.7478544"><ele>524.3333333333333</ele><time>2026-05-01T10:29:27.04Z</time></trkpt><trkpt lat="42.1077892" lon="13.7480252"><ele>524.6666666666666</ele><time>2026-05-01T10:29:28.079Z</time></trkpt><trkpt lat="42.1076774" lon="13.7482012"><ele>525.0</ele><time>2026-05-01T10:29:29.05Z</time></trkpt><trkpt lat="42.1075565" lon="13.7483681"><ele>525.0</ele><time>2026-05-01T10:29:30.038Z</time></trkpt><trkpt lat="42.107415" lon="13.7485336"><ele>525.0</ele><time>2026-05-01T10:29:31.035Z</time></trkpt><trkpt lat="42.107238" lon="13.748694"><ele>525.0</ele><time>2026-05-01T10:29:32.04Z</time></trkpt><trkpt lat="42.1070466" lon="13.7488452"><ele>525.0</ele><time>2026-05-01T10:29:33.038Z</time></trkpt><trkpt lat="42.1068329" lon="13.7490041"><ele>525.0</ele><time>2026-05-01T10:29:34.058Z</time></trkpt><trkpt lat="42.1066055" lon="13.7491726"><ele>525.0</ele><time>2026-05-01T10:29:35.027Z</time></trkpt><trkpt lat="42.106383" lon="13.7493446"><ele>525.0</ele><time>2026-05-01T10:29:36.045Z</time></trkpt><trkpt lat="42.1061679" lon="13.7495083"><ele>526.0</ele><time>2026-05-01T10:29:37.032Z</time></trkpt><trkpt lat="42.1059624" lon="13.7496694"><ele>527.0</ele><time>2026-05-01T10:29:38.031Z</time></trkpt><trkpt lat="42.1057599" lon="13.7498287"><ele>527.3333333333333</ele><time>2026-05-01T10:29:39.047Z</time></trkpt><trkpt lat="42.1055661" lon="13.7499693"><ele>527.6666666666666</ele><time>2026-05-01T10:29:40.036Z</time></trkpt><trkpt lat="42.1053869" lon="13.7501035"><ele>528.0</ele><time>2026-05-01T10:29:41.033Z</time></trkpt><trkpt lat="42.1052145" lon="13.7502336"><ele>528.0</ele><time>2026-05-01T10:29:42.042Z</time></trkpt><trkpt lat="42.1050563" lon="13.7503697"><ele>528.0</ele><time>2026-05-01T10:29:43.032Z</time></trkpt><trkpt lat="42.1049103" lon="13.7505295"><ele>528.0</ele><time>2026-05-01T10:29:44.036Z</time></trkpt><trkpt lat="42.1047823" lon="13.7507218"><ele>529.0</ele><time>2026-05-01T10:29:45.039Z</time></trkpt><trkpt lat="42.1046548" lon="13.750918"><ele>530.0</ele><time>2026-05-01T10:29:46.037Z</time></trkpt><trkpt lat="42.1045302" lon="13.7511072"><ele>531.0</ele><time>2026-05-01T10:29:47.034Z</time></trkpt><trkpt lat="42.1044062" lon="13.7512845"><ele>531.0</ele><time>2026-05-01T10:29:48.031Z</time></trkpt><trkpt lat="42.104275" lon="13.7514422"><ele>531.0</ele><time>2026-05-01T10:29:49.039Z</time></trkpt><trkpt lat="42.104135" lon="13.7515931"><ele>531.0</ele><time>2026-05-01T10:29:50.044Z</time></trkpt><trkpt lat="42.1040005" lon="13.7517323"><ele>531.6666666666666</ele><time>2026-05-01T10:29:51.026Z</time></trkpt><trkpt lat="42.1038812" lon="13.7518827"><ele>532.3333333333333</ele><time>2026-05-01T10:29:52.037Z</time></trkpt><trkpt lat="42.1037549" lon="13.752061"><ele>533.0</ele><time>2026-05-01T10:29:53.045Z</time></trkpt><trkpt lat="42.1036301" lon="13.7522605"><ele>533.0</ele><time>2026-05-01T10:29:54.04Z</time></trkpt><trkpt lat="42.1035029" lon="13.7524732"><ele>533.0</ele><time>2026-05-01T10:29:55.034Z</time></trkpt><trkpt lat="42.1033674" lon="13.7526979"><ele>533.0</ele><time>2026-05-01T10:29:56.032Z</time></trkpt><trkpt lat="42.103229" lon="13.7529385"><ele>533.5</ele><time>2026-05-01T10:29:57.046Z</time></trkpt><trkpt lat="42.1030767" lon="13.7531778"><ele>534.0</ele><time>2026-05-01T10:29:58.03Z</time></trkpt><trkpt lat="42.1029157" lon="13.7534164"><ele>535.5</ele><time>2026-05-01T10:29:59.033Z</time></trkpt><trkpt lat="42.1027512" lon="13.7536495"><ele>537.0</ele><time>2026-05-01T10:30:00.038Z</time></trkpt><trkpt lat="42.1025876" lon="13.7538798"><ele>537.0</ele><time>2026-05-01T10:30:01.035Z</time></trkpt><trkpt lat="42.102432" lon="13.7541004"><ele>537.0</ele><time>2026-05-01T10:30:02.033Z</time></trkpt><trkpt lat="42.1022835" lon="13.7542964"><ele>537.0</ele><time>2026-05-01T10:30:03.03Z</time></trkpt><trkpt lat="42.1021413" lon="13.7544848"><ele>537.3333333333334</ele><time>2026-05-01T10:30:04.032Z</time></trkpt><trkpt lat="42.1020066" lon="13.7546661"><ele>537.6666666666667</ele><time>2026-05-01T10:30:05.033Z</time></trkpt><trkpt lat="42.1018761" lon="13.7548491"><ele>538.0</ele><time>2026-05-01T10:30:06.06Z</time></trkpt><trkpt lat="42.1017472" lon="13.755022"><ele>538.0</ele><time>2026-05-01T10:30:07.026Z</time></trkpt><trkpt lat="42.1016245" lon="13.7551743"><ele>538.0</ele><time>2026-05-01T10:30:08.03Z</time></trkpt><trkpt lat="42.1015015" lon="13.7553089"><ele>538.0</ele><time>2026-05-01T10:30:09.034Z</time></trkpt><trkpt lat="42.1013734" lon="13.7554307"><ele>539.3333333333334</ele><time>2026-05-01T10:30:10.033Z</time></trkpt><trkpt lat="42.1012373" lon="13.755547"><ele>540.6666666666666</ele><time>2026-05-01T10:30:11.04Z</time></trkpt><trkpt lat="42.1010879" lon="13.7556693"><ele>542.0</ele><time>2026-05-01T10:30:12.031Z</time></trkpt><trkpt lat="42.1009242" lon="13.7557933"><ele>542.0</ele><time>2026-05-01T10:30:13.054Z</time></trkpt><trkpt lat="42.1007475" lon="13.7559162"><ele>542.0</ele><time>2026-05-01T10:30:14.049Z</time></trkpt><trkpt lat="42.1005617" lon="13.7560346"><ele>542.0</ele><time>2026-05-01T10:30:15.039Z</time></trkpt><trkpt lat="42.100376" lon="13.756144"><ele>543.0</ele><time>2026-05-01T10:30:16.03Z</time></trkpt><trkpt lat="42.1001851" lon="13.7562548"><ele>544.0</ele><time>2026-05-01T10:30:17.036Z</time></trkpt><trkpt lat="42.100002" lon="13.7563589"><ele>545.0</ele><time>2026-05-01T10:30:18.041Z</time></trkpt><trkpt lat="42.0998258" lon="13.7564572"><ele>545.3333333333333</ele><time>2026-05-01T10:30:19.035Z</time></trkpt><trkpt lat="42.0996521" lon="13.7565602"><ele>545.6666666666666</ele><time>2026-05-01T10:30:20.065Z</time></trkpt><trkpt lat="42.0994826" lon="13.7566637"><ele>546.0</ele><time>2026-05-01T10:30:21.038Z</time></trkpt><trkpt lat="42.0993145" lon="13.7567708"><ele>547.0</ele><time>2026-05-01T10:30:22.038Z</time></trkpt><trkpt lat="42.0991417" lon="13.7568748"><ele>548.0</ele><time>2026-05-01T10:30:23.031Z</time></trkpt><trkpt lat="42.0989687" lon="13.7569775"><ele>549.0</ele><time>2026-05-01T10:30:24.035Z</time></trkpt><trkpt lat="42.0987918" lon="13.7570811"><ele>549.0</ele><time>2026-05-01T10:30:25.028Z</time></trkpt><trkpt lat="42.098614" lon="13.7571922"><ele>549.0</ele><time>2026-05-01T10:30:26.036Z</time></trkpt><trkpt lat="42.0984323" lon="13.7573081"><ele>549.0</ele><time>2026-05-01T10:30:27.026Z</time></trkpt><trkpt lat="42.0982503" lon="13.7574197"><ele>549.6666666666666</ele><time>2026-05-01T10:30:28.036Z</time></trkpt><trkpt lat="42.0980679" lon="13.7575298"><ele>550.3333333333333</ele><time>2026-05-01T10:30:29.041Z</time></trkpt><trkpt lat="42.0978871" lon="13.7576425"><ele>551.0</ele><time>2026-05-01T10:30:30.034Z</time></trkpt><trkpt lat="42.0977041" lon="13.7577494"><ele>552.3333333333333</ele><time>2026-05-01T10:30:31.049Z</time></trkpt><trkpt lat="42.0975247" lon="13.7578601"><ele>553.6666666666666</ele><time>2026-05-01T10:30:32.026Z</time></trkpt><trkpt lat="42.0973464" lon="13.7579707"><ele>555.0</ele><time>2026-05-01T10:30:33.032Z</time></trkpt><trkpt lat="42.0971686" lon="13.7580744"><ele>555.6666666666666</ele><time>2026-05-01T10:30:34.048Z</time></trkpt><trkpt lat="42.0969933" lon="13.7581754"><ele>556.3333333333333</ele><time>2026-05-01T10:30:35.031Z</time></trkpt><trkpt lat="42.0968181" lon="13.7582817"><ele>557.0</ele><time>2026-05-01T10:30:36.033Z</time></trkpt><trkpt lat="42.0966404" lon="13.7583863"><ele>557.3333333333333</ele><time>2026-05-01T10:30:37.034Z</time></trkpt><trkpt lat="42.0964599" lon="13.7584909"><ele>557.6666666666666</ele><time>2026-05-01T10:30:38.036Z</time></trkpt><trkpt lat="42.0962738" lon="13.7585951"><ele>558.0</ele><time>2026-05-01T10:30:39.035Z</time></trkpt><trkpt lat="42.096084" lon="13.7587108"><ele>559.0</ele><time>2026-05-01T10:30:40.03Z</time></trkpt><trkpt lat="42.0958977" lon="13.7588463"><ele>560.0</ele><time>2026-05-01T10:30:41.05Z</time></trkpt><trkpt lat="42.0957111" lon="13.7589896"><ele>561.0</ele><time>2026-05-01T10:30:42.034Z</time></trkpt><trkpt lat="42.0955281" lon="13.7591398"><ele>561.6666666666666</ele><time>2026-05-01T10:30:43.029Z</time></trkpt><trkpt lat="42.0953434" lon="13.7592924"><ele>562.3333333333333</ele><time>2026-05-01T10:30:44.038Z</time></trkpt><trkpt lat="42.0951602" lon="13.7594442"><ele>563.0</ele><time>2026-05-01T10:30:45.027Z</time></trkpt><trkpt lat="42.0949838" lon="13.759585"><ele>564.6666666666666</ele><time>2026-05-01T10:30:46.053Z</time></trkpt><trkpt lat="42.0948184" lon="13.7597201"><ele>566.3333333333334</ele><time>2026-05-01T10:30:47.039Z</time></trkpt><trkpt lat="42.0946568" lon="13.7598514"><ele>568.0</ele><time>2026-05-01T10:30:48.03Z</time></trkpt><trkpt lat="42.0944978" lon="13.7599774"><ele>568.0</ele><time>2026-05-01T10:30:49.036Z</time></trkpt><trkpt lat="42.0943431" lon="13.7600985"><ele>568.0</ele><time>2026-05-01T10:30:50.026Z</time></trkpt><trkpt lat="42.0941932" lon="13.760218"><ele>568.0</ele><time>2026-05-01T10:30:51.07Z</time></trkpt><trkpt lat="42.094042" lon="13.7603412"><ele>570.3333333333334</ele><time>2026-05-01T10:30:52.029Z</time></trkpt><trkpt lat="42.0938943" lon="13.7604768"><ele>572.6666666666666</ele><time>2026-05-01T10:30:53.037Z</time></trkpt><trkpt lat="42.0937416" lon="13.7606245"><ele>575.0</ele><time>2026-05-01T10:30:54.04Z</time></trkpt><trkpt lat="42.0935887" lon="13.7607771"><ele>575.0</ele><time>2026-05-01T10:30:55.031Z</time></trkpt><trkpt lat="42.0934299" lon="13.7609337"><ele>575.0</ele><time>2026-05-01T10:30:56.034Z</time></trkpt><trkpt lat="42.0932673" lon="13.7610979"><ele>575.0</ele><time>2026-05-01T10:30:57.039Z</time></trkpt><trkpt lat="42.0930997" lon="13.7612614"><ele>577.3333333333333</ele><time>2026-05-01T10:30:58.027Z</time></trkpt><trkpt lat="42.0929255" lon="13.7614179"><ele>579.6666666666666</ele><time>2026-05-01T10:30:59.025Z</time></trkpt><trkpt lat="42.0927404" lon="13.7615644"><ele>582.0</ele><time>2026-05-01T10:31:00.034Z</time></trkpt><trkpt lat="42.0925573" lon="13.7617148"><ele>584.0</ele><time>2026-05-01T10:31:01.036Z</time></trkpt><trkpt lat="42.0923785" lon="13.7618622"><ele>586.0</ele><time>2026-05-01T10:31:02.035Z</time></trkpt><trkpt lat="42.0922058" lon="13.7620018"><ele>588.0</ele><time>2026-05-01T10:31:03.035Z</time></trkpt><trkpt lat="42.09204" lon="13.7621347"><ele>588.0</ele><time>2026-05-01T10:31:04.037Z</time></trkpt><trkpt lat="42.0918784" lon="13.762258"><ele>588.0</ele><time>2026-05-01T10:31:05.029Z</time></trkpt><trkpt lat="42.0917151" lon="13.7623872"><ele>588.0</ele><time>2026-05-01T10:31:06.031Z</time></trkpt><trkpt lat="42.0915488" lon="13.7625202"><ele>588.0</ele><time>2026-05-01T10:31:07.016Z</time></trkpt><trkpt lat="42.0913833" lon="13.7626556"><ele>588.0</ele><time>2026-05-01T10:31:08.026Z</time></trkpt><trkpt lat="42.0912182" lon="13.7627933"><ele>588.0</ele><time>2026-05-01T10:31:09.043Z</time></trkpt><trkpt lat="42.0910546" lon="13.7629277"><ele>589.6666666666666</ele><time>2026-05-01T10:31:10.044Z</time></trkpt><trkpt lat="42.0908929" lon="13.7630594"><ele>591.3333333333333</ele><time>2026-05-01T10:31:11.034Z</time></trkpt><trkpt lat="42.0907361" lon="13.7631844"><ele>593.0</ele><time>2026-05-01T10:31:12.029Z</time></trkpt><trkpt lat="42.0905856" lon="13.7632999"><ele>593.0</ele><time>2026-05-01T10:31:13.025Z</time></trkpt><trkpt lat="42.0904463" lon="13.7634094"><ele>593.0</ele><time>2026-05-01T10:31:14.024Z</time></trkpt><trkpt lat="42.0903159" lon="13.7635172"><ele>593.0</ele><time>2026-05-01T10:31:15.019Z</time></trkpt><trkpt lat="42.0902006" lon="13.7636087"><ele>593.0</ele><time>2026-05-01T10:31:16.027Z</time></trkpt><trkpt lat="42.0901001" lon="13.7636673"><ele>594.8</ele><time>2026-05-01T10:31:17.035Z</time></trkpt><trkpt lat="42.0900052" lon="13.7636784"><ele>596.5999999999999</ele><time>2026-05-01T10:31:18.026Z</time></trkpt><trkpt lat="42.0899238" lon="13.7636501"><ele>598.4000000000001</ele><time>2026-05-01T10:31:19.046Z</time></trkpt><trkpt lat="42.089854" lon="13.7635734"><ele>600.2</ele><time>2026-05-01T10:31:20.025Z</time></trkpt><trkpt lat="42.0897993" lon="13.7634574"><ele>602.0</ele><time>2026-05-01T10:31:21.022Z</time></trkpt><trkpt lat="42.0897613" lon="13.763355"><ele>602.0</ele><time>2026-05-01T10:31:22.042Z</time></trkpt><trkpt lat="42.0896662" lon="13.763285"><ele>602.0</ele><time>2026-05-01T10:31:23.03Z</time></trkpt><trkpt lat="42.0895435" lon="13.7632682"><ele>602.0</ele><time>2026-05-01T10:31:24.028Z</time></trkpt><trkpt lat="42.0894109" lon="13.763295"><ele>602.0</ele><time>2026-05-01T10:31:25.023Z</time></trkpt><trkpt lat="42.0892691" lon="13.763337"><ele>602.0</ele><time>2026-05-01T10:31:26.024Z</time></trkpt><trkpt lat="42.0891278" lon="13.7633842"><ele>602.0</ele><time>2026-05-01T10:31:27.028Z</time></trkpt><trkpt lat="42.0889828" lon="13.7634549"><ele>602.0</ele><time>2026-05-01T10:31:28.026Z</time></trkpt><trkpt lat="42.0888341" lon="13.7635588"><ele>604.0</ele><time>2026-05-01T10:31:29.027Z</time></trkpt><trkpt lat="42.0886912" lon="13.7636737"><ele>606.0</ele><time>2026-05-01T10:31:30.031Z</time></trkpt><trkpt lat="42.0885503" lon="13.7637899"><ele>608.0</ele><time>2026-05-01T10:31:31.026Z</time></trkpt><trkpt lat="42.0884146" lon="13.7639136"><ele>608.0</ele><time>2026-05-01T10:31:32.025Z</time></trkpt><trkpt lat="42.0882778" lon="13.7640403"><ele>608.0</ele><time>2026-05-01T10:31:33.027Z</time></trkpt><trkpt lat="42.0881406" lon="13.7641629"><ele>608.0</ele><time>2026-05-01T10:31:34.03Z</time></trkpt><trkpt lat="42.0880088" lon="13.7642887"><ele>611.3333333333333</ele><time>2026-05-01T10:31:35.03Z</time></trkpt><trkpt lat="42.0878822" lon="13.7644283"><ele>614.6666666666666</ele><time>2026-05-01T10:31:36.023Z</time></trkpt><trkpt lat="42.0877614" lon="13.7645876"><ele>618.0</ele><time>2026-05-01T10:31:37.033Z</time></trkpt><trkpt lat="42.0876546" lon="13.7647581"><ele>618.0</ele><time>2026-05-01T10:31:38.031Z</time></trkpt><trkpt lat="42.0875485" lon="13.7649299"><ele>618.0</ele><time>2026-05-01T10:31:39.026Z</time></trkpt><trkpt lat="42.0874388" lon="13.7651043"><ele>618.0</ele><time>2026-05-01T10:31:40.027Z</time></trkpt><trkpt lat="42.0873159" lon="13.7652631"><ele>619.5</ele><time>2026-05-01T10:31:41.031Z</time></trkpt><trkpt lat="42.0871933" lon="13.7653933"><ele>621.0</ele><time>2026-05-01T10:31:42.035Z</time></trkpt><trkpt lat="42.0870722" lon="13.7655129"><ele>622.5</ele><time>2026-05-01T10:31:43.029Z</time></trkpt><trkpt lat="42.08696" lon="13.7656131"><ele>624.0</ele><time>2026-05-01T10:31:44.026Z</time></trkpt><trkpt lat="42.0868611" lon="13.7656848"><ele>624.0</ele><time>2026-05-01T10:31:45.025Z</time></trkpt><trkpt lat="42.0867555" lon="13.7657328"><ele>624.0</ele><time>2026-05-01T10:31:46.037Z</time></trkpt><trkpt lat="42.086645" lon="13.7657464"><ele>624.0</ele><time>2026-05-01T10:31:47.025Z</time></trkpt><trkpt lat="42.0865279" lon="13.7657116"><ele>624.0</ele><time>2026-05-01T10:31:48.026Z</time></trkpt><trkpt lat="42.0864057" lon="13.7656177"><ele>626.5</ele><time>2026-05-01T10:31:49.025Z</time></trkpt><trkpt lat="42.0862921" lon="13.765499"><ele>629.0</ele><time>2026-05-01T10:31:50.023Z</time></trkpt><trkpt lat="42.0861806" lon="13.7653985"><ele>631.5</ele><time>2026-05-01T10:31:51.023Z</time></trkpt><trkpt lat="42.0860655" lon="13.7653294"><ele>634.0</ele><time>2026-05-01T10:31:52.023Z</time></trkpt><trkpt lat="42.0859412" lon="13.7652982"><ele>634.0</ele><time>2026-05-01T10:31:53.025Z</time></trkpt><trkpt lat="42.0858136" lon="13.7652972"><ele>634.0</ele><time>2026-05-01T10:31:54.024Z</time></trkpt><trkpt lat="42.0856829" lon="13.765327"><ele>634.0</ele><time>2026-05-01T10:31:55.026Z</time></trkpt><trkpt lat="42.0855458" lon="13.7653828"><ele>634.0</ele><time>2026-05-01T10:31:56.038Z</time></trkpt><trkpt lat="42.0854026" lon="13.7654632"><ele>636.0</ele><time>2026-05-01T10:31:57.024Z</time></trkpt><trkpt lat="42.0852631" lon="13.7655538"><ele>638.0</ele><time>2026-05-01T10:31:58.031Z</time></trkpt><trkpt lat="42.0851356" lon="13.7656426"><ele>640.0</ele><time>2026-05-01T10:31:59.023Z</time></trkpt><trkpt lat="42.0850311" lon="13.7657204"><ele>642.0</ele><time>2026-05-01T10:32:00.041Z</time></trkpt><trkpt lat="42.0849504" lon="13.7657943"><ele>643.4000000000001</ele><time>2026-05-01T10:32:01.027Z</time></trkpt><trkpt lat="42.0849024" lon="13.7658852"><ele>644.8000000000001</ele><time>2026-05-01T10:32:02.024Z</time></trkpt><trkpt lat="42.0848811" lon="13.7660067"><ele>646.2</ele><time>2026-05-01T10:32:03.027Z</time></trkpt><trkpt lat="42.0849039" lon="13.7661321"><ele>647.6</ele><time>2026-05-01T10:32:04.029Z</time></trkpt><trkpt lat="42.0849542" lon="13.7662281"><ele>649.0</ele><time>2026-05-01T10:32:05.024Z</time></trkpt><trkpt lat="42.0850439" lon="13.7662716"><ele>649.25</ele><time>2026-05-01T10:32:06.02Z</time></trkpt><trkpt lat="42.0851582" lon="13.766259"><ele>649.5</ele><time>2026-05-01T10:32:07.029Z</time></trkpt><trkpt lat="42.0852816" lon="13.7662128"><ele>649.75</ele><time>2026-05-01T10:32:08.02Z</time></trkpt><trkpt lat="42.0854205" lon="13.7661535"><ele>650.0</ele><time>2026-05-01T10:32:09.033Z</time></trkpt><trkpt lat="42.0855639" lon="13.7661066"><ele>650.0</ele><time>2026-05-01T10:32:10.028Z</time></trkpt><trkpt lat="42.0857032" lon="13.7660788"><ele>650.0</ele><time>2026-05-01T10:32:11.026Z</time></trkpt><trkpt lat="42.0858407" lon="13.7660978"><ele>650.0</ele><time>2026-05-01T10:32:12.043Z</time></trkpt><trkpt lat="42.0859857" lon="13.766177"><ele>650.0</ele><time>2026-05-01T10:32:13.024Z</time></trkpt><trkpt lat="42.0861297" lon="13.7662969"><ele>649.25</ele><time>2026-05-01T10:32:14.031Z</time></trkpt><trkpt lat="42.0862521" lon="13.7664412"><ele>648.5</ele><time>2026-05-01T10:32:15.042Z</time></trkpt><trkpt lat="42.0863387" lon="13.7665778"><ele>647.75</ele><time>2026-05-01T10:32:16.031Z</time></trkpt><trkpt lat="42.0863952" lon="13.7667215"><ele>647.0</ele><time>2026-05-01T10:32:17.015Z</time></trkpt><trkpt lat="42.0864169" lon="13.7668774"><ele>651.25</ele><time>2026-05-01T10:32:18.027Z</time></trkpt><trkpt lat="42.0864084" lon="13.7670486"><ele>655.5</ele><time>2026-05-01T10:32:19.031Z</time></trkpt><trkpt lat="42.0863714" lon="13.767238"><ele>659.75</ele><time>2026-05-01T10:32:20.029Z</time></trkpt><trkpt lat="42.0863238" lon="13.7674384"><ele>664.0</ele><time>2026-05-01T10:32:21.037Z</time></trkpt><trkpt lat="42.0862787" lon="13.7676267"><ele>663.0</ele><time>2026-05-01T10:32:22.027Z</time></trkpt><trkpt lat="42.0862336" lon="13.767799"><ele>662.0</ele><time>2026-05-01T10:32:23.025Z</time></trkpt><trkpt lat="42.0861829" lon="13.7679581"><ele>661.0</ele><time>2026-05-01T10:32:24.021Z</time></trkpt><trkpt lat="42.0861146" lon="13.7681156"><ele>660.0</ele><time>2026-05-01T10:32:25.031Z</time></trkpt><trkpt lat="42.0860285" lon="13.7682659"><ele>660.0</ele><time>2026-05-01T10:32:26.022Z</time></trkpt><trkpt lat="42.0859282" lon="13.7684195"><ele>660.0</ele><time>2026-05-01T10:32:27.029Z</time></trkpt><trkpt lat="42.0858172" lon="13.7685763"><ele>660.0</ele><time>2026-05-01T10:32:28.029Z</time></trkpt><trkpt lat="42.0857055" lon="13.7687361"><ele>666.3333333333334</ele><time>2026-05-01T10:32:29.04Z</time></trkpt><trkpt lat="42.0856004" lon="13.768907"><ele>672.6666666666667</ele><time>2026-05-01T10:32:30.022Z</time></trkpt><trkpt lat="42.0855052" lon="13.769099"><ele>679.0</ele><time>2026-05-01T10:32:31.024Z</time></trkpt><trkpt lat="42.0854209" lon="13.7693041"><ele>676.3333333333334</ele><time>2026-05-01T10:32:32.02Z</time></trkpt><trkpt lat="42.0853452" lon="13.7695248"><ele>673.6666666666666</ele><time>2026-05-01T10:32:33.033Z</time></trkpt><trkpt lat="42.0852788" lon="13.7697476"><ele>671.0</ele><time>2026-05-01T10:32:34.024Z</time></trkpt><trkpt lat="42.0852244" lon="13.7699697"><ele>671.0</ele><time>2026-05-01T10:32:35.034Z</time></trkpt><trkpt lat="42.0851763" lon="13.7701845"><ele>671.0</ele><time>2026-05-01T10:32:36.027Z</time></trkpt><trkpt lat="42.0851324" lon="13.7703903"><ele>671.0</ele><time>2026-05-01T10:32:37.032Z</time></trkpt><trkpt lat="42.0850865" lon="13.7705892"><ele>670.75</ele><time>2026-05-01T10:32:38.032Z</time></trkpt><trkpt lat="42.0850385" lon="13.7707788"><ele>670.5</ele><time>2026-05-01T10:32:39.027Z</time></trkpt><trkpt lat="42.0849943" lon="13.7709643"><ele>670.25</ele><time>2026-05-01T10:32:40.035Z</time></trkpt><trkpt lat="42.0849534" lon="13.7711492"><ele>670.0</ele><time>2026-05-01T10:32:41.011Z</time></trkpt><trkpt lat="42.0849129" lon="13.7713359"><ele>674.0</ele><time>2026-05-01T10:32:42.036Z</time></trkpt><trkpt lat="42.0848682" lon="13.7715221"><ele>678.0</ele><time>2026-05-01T10:32:43.029Z</time></trkpt><trkpt lat="42.0848302" lon="13.7716936"><ele>682.0</ele><time>2026-05-01T10:32:44.035Z</time></trkpt><trkpt lat="42.0847933" lon="13.7718467"><ele>686.0</ele><time>2026-05-01T10:32:45.025Z</time></trkpt><trkpt lat="42.0847553" lon="13.7719947"><ele>686.0</ele><time>2026-05-01T10:32:46.029Z</time></trkpt><trkpt lat="42.0847077" lon="13.7721227"><ele>686.0</ele><time>2026-05-01T10:32:47.031Z</time></trkpt><trkpt lat="42.0846283" lon="13.7722158"><ele>686.0</ele><time>2026-05-01T10:32:48.025Z</time></trkpt><trkpt lat="42.0845368" lon="13.7722538"><ele>686.0</ele><time>2026-05-01T10:32:49.029Z</time></trkpt><trkpt lat="42.0844282" lon="13.7722399"><ele>686.0</ele><time>2026-05-01T10:32:50.03Z</time></trkpt><trkpt lat="42.0843039" lon="13.7721912"><ele>686.0</ele><time>2026-05-01T10:32:51.039Z</time></trkpt><trkpt lat="42.0841617" lon="13.772132"><ele>686.0</ele><time>2026-05-01T10:32:52.021Z</time></trkpt><trkpt lat="42.0840044" lon="13.7720612"><ele>686.0</ele><time>2026-05-01T10:32:53.026Z</time></trkpt><trkpt lat="42.083854" lon="13.7719951"><ele>687.0</ele><time>2026-05-01T10:32:54.028Z</time></trkpt><trkpt lat="42.0837074" lon="13.7719697"><ele>688.0</ele><time>2026-05-01T10:32:55.028Z</time></trkpt><trkpt lat="42.0835567" lon="13.7719728"><ele>689.0</ele><time>2026-05-01T10:32:56.015Z</time></trkpt><trkpt lat="42.0834103" lon="13.771997"><ele>690.0</ele><time>2026-05-01T10:32:57.043Z</time></trkpt><trkpt lat="42.083265" lon="13.7720537"><ele>691.5</ele><time>2026-05-01T10:32:58.024Z</time></trkpt><trkpt lat="42.08312" lon="13.7721332"><ele>693.0</ele><time>2026-05-01T10:32:59.03Z</time></trkpt><trkpt lat="42.0829915" lon="13.7722214"><ele>694.5</ele><time>2026-05-01T10:33:00.033Z</time></trkpt><trkpt lat="42.0828591" lon="13.7723087"><ele>696.0</ele><time>2026-05-01T10:33:01.033Z</time></trkpt><trkpt lat="42.0827245" lon="13.7723862"><ele>696.0</ele><time>2026-05-01T10:33:02.026Z</time></trkpt><trkpt lat="42.0826046" lon="13.7724605"><ele>696.0</ele><time>2026-05-01T10:33:03.023Z</time></trkpt><trkpt lat="42.0825011" lon="13.772538"><ele>696.0</ele><time>2026-05-01T10:33:04.009Z</time></trkpt><trkpt lat="42.0824173" lon="13.7726215"><ele>696.0</ele><time>2026-05-01T10:33:05.023Z</time></trkpt><trkpt lat="42.0823572" lon="13.7727247"><ele>701.5</ele><time>2026-05-01T10:33:06.028Z</time></trkpt><trkpt lat="42.0823139" lon="13.77287"><ele>707.0</ele><time>2026-05-01T10:33:07.025Z</time></trkpt><trkpt lat="42.0822893" lon="13.7730476"><ele>712.5</ele><time>2026-05-01T10:33:08.024Z</time></trkpt><trkpt lat="42.0822884" lon="13.7732223"><ele>718.0</ele><time>2026-05-01T10:33:09.025Z</time></trkpt><trkpt lat="42.0822901" lon="13.773374"><ele>718.0</ele><time>2026-05-01T10:33:10.029Z</time></trkpt><trkpt lat="42.0822797" lon="13.7734931"><ele>718.0</ele><time>2026-05-01T10:33:11.037Z</time></trkpt><trkpt lat="42.0822498" lon="13.7735771"><ele>718.0</ele><time>2026-05-01T10:33:12.034Z</time></trkpt><trkpt lat="42.0821557" lon="13.7735835"><ele>718.0</ele><time>2026-05-01T10:33:14.025Z</time></trkpt><trkpt lat="42.082106" lon="13.7734017"><ele>718.0</ele><time>2026-05-01T10:33:16.031Z</time></trkpt><trkpt lat="42.082093" lon="13.7732686"><ele>718.0</ele><time>2026-05-01T10:33:17.025Z</time></trkpt><trkpt lat="42.0820735" lon="13.7731118"><ele>718.0</ele><time>2026-05-01T10:33:18.047Z</time></trkpt><trkpt lat="42.0820514" lon="13.7729461"><ele>718.0</ele><time>2026-05-01T10:33:19.024Z</time></trkpt><trkpt lat="42.0820244" lon="13.7727676"><ele>718.0</ele><time>2026-05-01T10:33:20.027Z</time></trkpt><trkpt lat="42.0819952" lon="13.7725911"><ele>715.8</ele><time>2026-05-01T10:33:21.03Z</time></trkpt><trkpt lat="42.0819607" lon="13.7724335"><ele>713.5999999999999</ele><time>2026-05-01T10:33:22.029Z</time></trkpt><trkpt lat="42.0819284" lon="13.7722938"><ele>711.4000000000001</ele><time>2026-05-01T10:33:23.023Z</time></trkpt><trkpt lat="42.0818766" lon="13.7721678"><ele>709.2</ele><time>2026-05-01T10:33:24.031Z</time></trkpt><trkpt lat="42.0818051" lon="13.7720773"><ele>707.0</ele><time>2026-05-01T10:33:25.025Z</time></trkpt><trkpt lat="42.081728" lon="13.7720236"><ele>707.0</ele><time>2026-05-01T10:33:26.023Z</time></trkpt><trkpt lat="42.0816505" lon="13.7719945"><ele>707.0</ele><time>2026-05-01T10:33:27.033Z</time></trkpt><trkpt lat="42.081562" lon="13.7719809"><ele>707.0</ele><time>2026-05-01T10:33:28.028Z</time></trkpt><trkpt lat="42.0814737" lon="13.7719283"><ele>707.0</ele><time>2026-05-01T10:33:29.051Z</time></trkpt><trkpt lat="42.081381" lon="13.7718341"><ele>707.0</ele><time>2026-05-01T10:33:30.032Z</time></trkpt><trkpt lat="42.0812847" lon="13.771713"><ele>707.5</ele><time>2026-05-01T10:33:31.022Z</time></trkpt><trkpt lat="42.081187" lon="13.7715809"><ele>708.0</ele><time>2026-05-01T10:33:32.02Z</time></trkpt><trkpt lat="42.0810889" lon="13.7714451"><ele>708.5</ele><time>2026-05-01T10:33:33.027Z</time></trkpt><trkpt lat="42.0809854" lon="13.7713173"><ele>709.0</ele><time>2026-05-01T10:33:34.048Z</time></trkpt><trkpt lat="42.0808865" lon="13.7712126"><ele>709.0</ele><time>2026-05-01T10:33:35.035Z</time></trkpt><trkpt lat="42.0807985" lon="13.7711439"><ele>709.0</ele><time>2026-05-01T10:33:36.027Z</time></trkpt><trkpt lat="42.0807234" lon="13.7711009"><ele>709.0</ele><time>2026-05-01T10:33:37.036Z</time></trkpt><trkpt lat="42.0806646" lon="13.7710619"><ele>709.0</ele><time>2026-05-01T10:33:38.057Z</time></trkpt><trkpt lat="42.080583" lon="13.770986"><ele>709.0</ele><time>2026-05-01T10:33:40.051Z</time></trkpt><trkpt lat="42.080511" lon="13.7709353"><ele>709.0</ele><time>2026-05-01T10:36:52.036Z</time></trkpt><trkpt lat="42.0804548" lon="13.7708456"><ele>709.4000000000001</ele><time>2026-05-01T10:36:54.035Z</time></trkpt><trkpt lat="42.0803678" lon="13.7707216"><ele>709.8</ele><time>2026-05-01T10:36:56.037Z</time></trkpt><trkpt lat="42.0803119" lon="13.7706572"><ele>710.2</ele><time>2026-05-01T10:36:57.059Z</time></trkpt><trkpt lat="42.0802555" lon="13.7705845"><ele>710.5999999999999</ele><time>2026-05-01T10:36:58.035Z</time></trkpt><trkpt lat="42.0801949" lon="13.7705089"><ele>711.0</ele><time>2026-05-01T10:36:59.046Z</time></trkpt><trkpt lat="42.0801205" lon="13.7704174"><ele>711.0</ele><time>2026-05-01T10:37:00.042Z</time></trkpt><trkpt lat="42.0800174" lon="13.7702937"><ele>711.0</ele><time>2026-05-01T10:37:01.04Z</time></trkpt><trkpt lat="42.0798982" lon="13.7701536"><ele>711.0</ele><time>2026-05-01T10:37:02.038Z</time></trkpt><trkpt lat="42.0797784" lon="13.7700051"><ele>707.6666666666666</ele><time>2026-05-01T10:37:03.052Z</time></trkpt><trkpt lat="42.0796445" lon="13.7698334"><ele>704.3333333333333</ele><time>2026-05-01T10:37:04.036Z</time></trkpt><trkpt lat="42.0795029" lon="13.7696696"><ele>701.0</ele><time>2026-05-01T10:37:05.036Z</time></trkpt><trkpt lat="42.0793635" lon="13.7695029"><ele>698.3333333333333</ele><time>2026-05-01T10:37:06.026Z</time></trkpt><trkpt lat="42.0792223" lon="13.7693346"><ele>695.6666666666666</ele><time>2026-05-01T10:37:07.034Z</time></trkpt><trkpt lat="42.0790858" lon="13.7691651"><ele>693.0</ele><time>2026-05-01T10:37:08.062Z</time></trkpt><trkpt lat="42.078939" lon="13.7689928"><ele>692.3333333333334</ele><time>2026-05-01T10:37:09.041Z</time></trkpt><trkpt lat="42.0787881" lon="13.768814"><ele>691.6666666666667</ele><time>2026-05-01T10:37:10.057Z</time></trkpt><trkpt lat="42.0786453" lon="13.7686493"><ele>691.0</ele><time>2026-05-01T10:37:11.038Z</time></trkpt><trkpt lat="42.0785117" lon="13.7684924"><ele>689.3333333333334</ele><time>2026-05-01T10:37:12.027Z</time></trkpt><trkpt lat="42.0783877" lon="13.7683515"><ele>687.6666666666666</ele><time>2026-05-01T10:37:13.033Z</time></trkpt><trkpt lat="42.0782741" lon="13.7682173"><ele>686.0</ele><time>2026-05-01T10:37:14.035Z</time></trkpt><trkpt lat="42.0781759" lon="13.7680833"><ele>686.0</ele><time>2026-05-01T10:37:15.033Z</time></trkpt><trkpt lat="42.078102" lon="13.7679528"><ele>686.0</ele><time>2026-05-01T10:37:16.063Z</time></trkpt><trkpt lat="42.0780612" lon="13.7678168"><ele>686.0</ele><time>2026-05-01T10:37:17.037Z</time></trkpt><trkpt lat="42.0780435" lon="13.7676673"><ele>686.0</ele><time>2026-05-01T10:37:18.036Z</time></trkpt><trkpt lat="42.0780586" lon="13.7675148"><ele>686.25</ele><time>2026-05-01T10:37:19.035Z</time></trkpt><trkpt lat="42.0781024" lon="13.7673465"><ele>686.5</ele><time>2026-05-01T10:37:20.045Z</time></trkpt><trkpt lat="42.0781635" lon="13.7671672"><ele>686.75</ele><time>2026-05-01T10:37:21.043Z</time></trkpt><trkpt lat="42.0782379" lon="13.7669786"><ele>687.0</ele><time>2026-05-01T10:37:22.059Z</time></trkpt><trkpt lat="42.0783178" lon="13.766802"><ele>687.0</ele><time>2026-05-01T10:37:23.032Z</time></trkpt><trkpt lat="42.0784038" lon="13.7666207"><ele>687.0</ele><time>2026-05-01T10:37:24.043Z</time></trkpt><trkpt lat="42.078501" lon="13.7664328"><ele>687.0</ele><time>2026-05-01T10:37:25.036Z</time></trkpt><trkpt lat="42.0786164" lon="13.7662258"><ele>690.0</ele><time>2026-05-01T10:37:26.035Z</time></trkpt><trkpt lat="42.0787366" lon="13.7660064"><ele>693.0</ele><time>2026-05-01T10:37:27.039Z</time></trkpt><trkpt lat="42.0788549" lon="13.7657881"><ele>696.0</ele><time>2026-05-01T10:37:28.041Z</time></trkpt><trkpt lat="42.0789758" lon="13.7655578"><ele>696.0</ele><time>2026-05-01T10:37:29.053Z</time></trkpt><trkpt lat="42.0791005" lon="13.765321"><ele>696.0</ele><time>2026-05-01T10:37:30.032Z</time></trkpt><trkpt lat="42.0792137" lon="13.7651023"><ele>696.0</ele><time>2026-05-01T10:37:31.037Z</time></trkpt><trkpt lat="42.0793162" lon="13.7649083"><ele>697.0</ele><time>2026-05-01T10:37:32.034Z</time></trkpt><trkpt lat="42.0794124" lon="13.7647207"><ele>698.0</ele><time>2026-05-01T10:37:33.046Z</time></trkpt><trkpt lat="42.0794997" lon="13.7645362"><ele>699.0</ele><time>2026-05-01T10:37:34.041Z</time></trkpt><trkpt lat="42.079581" lon="13.7643593"><ele>700.25</ele><time>2026-05-01T10:37:35.03Z</time></trkpt><trkpt lat="42.0796538" lon="13.7642008"><ele>701.5</ele><time>2026-05-01T10:37:36.036Z</time></trkpt><trkpt lat="42.0797137" lon="13.7640506"><ele>702.75</ele><time>2026-05-01T10:37:37.034Z</time></trkpt><trkpt lat="42.0797555" lon="13.7639207"><ele>704.0</ele><time>2026-05-01T10:37:38.041Z</time></trkpt><trkpt lat="42.0797708" lon="13.7638027"><ele>704.0</ele><time>2026-05-01T10:37:39.033Z</time></trkpt><trkpt lat="42.0797582" lon="13.7636918"><ele>704.0</ele><time>2026-05-01T10:37:40.036Z</time></trkpt><trkpt lat="42.0797153" lon="13.7636007"><ele>704.0</ele><time>2026-05-01T10:37:41.058Z</time></trkpt><trkpt lat="42.0796421" lon="13.7635358"><ele>704.0</ele><time>2026-05-01T10:37:42.033Z</time></trkpt><trkpt lat="42.079554" lon="13.7635039"><ele>704.0</ele><time>2026-05-01T10:37:43.035Z</time></trkpt><trkpt lat="42.0794494" lon="13.7634945"><ele>704.0</ele><time>2026-05-01T10:37:44.042Z</time></trkpt><trkpt lat="42.0793333" lon="13.7635177"><ele>704.0</ele><time>2026-05-01T10:37:45.031Z</time></trkpt><trkpt lat="42.0792038" lon="13.7635526"><ele>704.0</ele><time>2026-05-01T10:37:46.052Z</time></trkpt><trkpt lat="42.0790676" lon="13.7635969"><ele>704.0</ele><time>2026-05-01T10:37:47.036Z</time></trkpt><trkpt lat="42.0789262" lon="13.7636367"><ele>704.0</ele><time>2026-05-01T10:37:48.043Z</time></trkpt><trkpt lat="42.0787766" lon="13.763671"><ele>706.0</ele><time>2026-05-01T10:37:49.038Z</time></trkpt><trkpt lat="42.0786357" lon="13.7637041"><ele>708.0</ele><time>2026-05-01T10:37:50.035Z</time></trkpt><trkpt lat="42.0785023" lon="13.7637167"><ele>710.0</ele><time>2026-05-01T10:37:51.043Z</time></trkpt><trkpt lat="42.0783807" lon="13.763688"><ele>712.0</ele><time>2026-05-01T10:37:52.033Z</time></trkpt><trkpt lat="42.0782793" lon="13.7636181"><ele>714.5</ele><time>2026-05-01T10:37:53.076Z</time></trkpt><trkpt lat="42.078196" lon="13.7635144"><ele>717.0</ele><time>2026-05-01T10:37:54.038Z</time></trkpt><trkpt lat="42.0781198" lon="13.7633755"><ele>719.5</ele><time>2026-05-01T10:37:55.04Z</time></trkpt><trkpt lat="42.0780295" lon="13.7632131"><ele>722.0</ele><time>2026-05-01T10:37:56.043Z</time></trkpt><trkpt lat="42.0779363" lon="13.7630528"><ele>722.0</ele><time>2026-05-01T10:37:57.043Z</time></trkpt><trkpt lat="42.077864" lon="13.7628957"><ele>722.0</ele><time>2026-05-01T10:37:58.034Z</time></trkpt><trkpt lat="42.0778154" lon="13.7627226"><ele>722.0</ele><time>2026-05-01T10:37:59.049Z</time></trkpt><trkpt lat="42.07779" lon="13.7625231"><ele>722.0</ele><time>2026-05-01T10:38:00.041Z</time></trkpt><trkpt lat="42.0777749" lon="13.7623226"><ele>722.6666666666666</ele><time>2026-05-01T10:38:01.031Z</time></trkpt><trkpt lat="42.0777495" lon="13.7621206"><ele>723.3333333333334</ele><time>2026-05-01T10:38:02.037Z</time></trkpt><trkpt lat="42.077705" lon="13.7619243"><ele>724.0</ele><time>2026-05-01T10:38:03.046Z</time></trkpt><trkpt lat="42.0776364" lon="13.7617359"><ele>724.0</ele><time>2026-05-01T10:38:04.034Z</time></trkpt><trkpt lat="42.0775559" lon="13.7615777"><ele>724.0</ele><time>2026-05-01T10:38:05.042Z</time></trkpt><trkpt lat="42.0774474" lon="13.761452"><ele>724.0</ele><time>2026-05-01T10:38:06.049Z</time></trkpt><trkpt lat="42.0773156" lon="13.7613702"><ele>724.0</ele><time>2026-05-01T10:38:07.031Z</time></trkpt><trkpt lat="42.0771578" lon="13.7613148"><ele>730.0</ele><time>2026-05-01T10:38:08.043Z</time></trkpt><trkpt lat="42.0769859" lon="13.7612519"><ele>736.0</ele><time>2026-05-01T10:38:09.038Z</time></trkpt><trkpt lat="42.0768132" lon="13.7611977"><ele>742.0</ele><time>2026-05-01T10:38:10.045Z</time></trkpt><trkpt lat="42.0766483" lon="13.7611324"><ele>744.75</ele><time>2026-05-01T10:38:11.038Z</time></trkpt><trkpt lat="42.0764994" lon="13.7610624"><ele>747.5</ele><time>2026-05-01T10:38:12.039Z</time></trkpt><trkpt lat="42.0763692" lon="13.7609835"><ele>750.25</ele><time>2026-05-01T10:38:13.035Z</time></trkpt><trkpt lat="42.0762596" lon="13.7608918"><ele>753.0</ele><time>2026-05-01T10:38:14.031Z</time></trkpt><trkpt lat="42.0761913" lon="13.7608019"><ele>753.0</ele><time>2026-05-01T10:38:15.029Z</time></trkpt><trkpt lat="42.0761447" lon="13.7607056"><ele>753.0</ele><time>2026-05-01T10:38:16.022Z</time></trkpt><trkpt lat="42.0761316" lon="13.7606191"><ele>753.0</ele><time>2026-05-01T10:38:17.038Z</time></trkpt><trkpt lat="42.0762096" lon="13.7605219"><ele>753.0</ele><time>2026-05-01T10:38:19.068Z</time></trkpt><trkpt lat="42.0762762" lon="13.7605445"><ele>753.0</ele><time>2026-05-01T10:38:20.031Z</time></trkpt><trkpt lat="42.0763613" lon="13.7605835"><ele>753.0</ele><time>2026-05-01T10:38:21.038Z</time></trkpt><trkpt lat="42.0764478" lon="13.7606319"><ele>753.0</ele><time>2026-05-01T10:38:22.035Z</time></trkpt><trkpt lat="42.0765504" lon="13.7606359"><ele>753.0</ele><time>2026-05-01T10:38:23.035Z</time></trkpt><trkpt lat="42.0766645" lon="13.7606144"><ele>753.0</ele><time>2026-05-01T10:38:24.034Z</time></trkpt><trkpt lat="42.0767967" lon="13.7605686"><ele>753.0</ele><time>2026-05-01T10:38:25.027Z</time></trkpt><trkpt lat="42.0769433" lon="13.7604871"><ele>753.6666666666666</ele><time>2026-05-01T10:38:26.034Z</time></trkpt><trkpt lat="42.0770881" lon="13.7603852"><ele>754.3333333333333</ele><time>2026-05-01T10:38:27.032Z</time></trkpt><trkpt lat="42.077225" lon="13.7602729"><ele>755.0</ele><time>2026-05-01T10:38:28.03Z</time></trkpt><trkpt lat="42.0773559" lon="13.7601462"><ele>751.25</ele><time>2026-05-01T10:38:29.026Z</time></trkpt><trkpt lat="42.0774811" lon="13.7600088"><ele>747.5</ele><time>2026-05-01T10:38:30.061Z</time></trkpt><trkpt lat="42.0775912" lon="13.7598732"><ele>743.75</ele><time>2026-05-01T10:38:31.026Z</time></trkpt><trkpt lat="42.0776818" lon="13.75974"><ele>740.0</ele><time>2026-05-01T10:38:32.031Z</time></trkpt><trkpt lat="42.0777476" lon="13.7595856"><ele>740.0</ele><time>2026-05-01T10:38:33.035Z</time></trkpt><trkpt lat="42.0777858" lon="13.7594069"><ele>740.0</ele><time>2026-05-01T10:38:34.037Z</time></trkpt><trkpt lat="42.0778197" lon="13.7591915"><ele>740.0</ele><time>2026-05-01T10:38:35.033Z</time></trkpt><trkpt lat="42.0778573" lon="13.758971"><ele>743.25</ele><time>2026-05-01T10:38:36.044Z</time></trkpt><trkpt lat="42.0778993" lon="13.7587708"><ele>746.5</ele><time>2026-05-01T10:38:37.036Z</time></trkpt><trkpt lat="42.0779274" lon="13.758604"><ele>749.75</ele><time>2026-05-01T10:38:38.034Z</time></trkpt><trkpt lat="42.0779329" lon="13.7584421"><ele>753.0</ele><time>2026-05-01T10:38:39.04Z</time></trkpt><trkpt lat="42.0779189" lon="13.7582756"><ele>754.5</ele><time>2026-05-01T10:38:40.033Z</time></trkpt><trkpt lat="42.077881" lon="13.7581077"><ele>756.0</ele><time>2026-05-01T10:38:41.033Z</time></trkpt><trkpt lat="42.0778491" lon="13.7579363"><ele>757.5</ele><time>2026-05-01T10:38:42.033Z</time></trkpt><trkpt lat="42.0778441" lon="13.7577473"><ele>759.0</ele><time>2026-05-01T10:38:43.031Z</time></trkpt><trkpt lat="42.0778689" lon="13.7575499"><ele>759.6666666666666</ele><time>2026-05-01T10:38:44.038Z</time></trkpt><trkpt lat="42.0779064" lon="13.7573402"><ele>760.3333333333333</ele><time>2026-05-01T10:38:45.031Z</time></trkpt><trkpt lat="42.077959" lon="13.757112"><ele>761.0</ele><time>2026-05-01T10:38:46.034Z</time></trkpt><trkpt lat="42.0780126" lon="13.7568557"><ele>765.0</ele><time>2026-05-01T10:38:47.033Z</time></trkpt><trkpt lat="42.0780646" lon="13.7566022"><ele>769.0</ele><time>2026-05-01T10:38:48.029Z</time></trkpt><trkpt lat="42.0781164" lon="13.7563628"><ele>773.0</ele><time>2026-05-01T10:38:49.051Z</time></trkpt><trkpt lat="42.0781608" lon="13.7561452"><ele>775.0</ele><time>2026-05-01T10:38:50.041Z</time></trkpt><trkpt lat="42.0781997" lon="13.755949"><ele>777.0</ele><time>2026-05-01T10:38:51.04Z</time></trkpt><trkpt lat="42.0782273" lon="13.755764"><ele>779.0</ele><time>2026-05-01T10:38:52.039Z</time></trkpt><trkpt lat="42.0782349" lon="13.7555835"><ele>781.0</ele><time>2026-05-01T10:38:53.035Z</time></trkpt><trkpt lat="42.07822" lon="13.7554146"><ele>781.0</ele><time>2026-05-01T10:38:54.034Z</time></trkpt><trkpt lat="42.0781772" lon="13.7552517"><ele>781.0</ele><time>2026-05-01T10:38:55.031Z</time></trkpt><trkpt lat="42.0780982" lon="13.7550907"><ele>781.0</ele><time>2026-05-01T10:38:56.054Z</time></trkpt><trkpt lat="42.0780067" lon="13.7549194"><ele>781.0</ele><time>2026-05-01T10:38:57.042Z</time></trkpt><trkpt lat="42.0779313" lon="13.7547534"><ele>780.75</ele><time>2026-05-01T10:38:58.053Z</time></trkpt><trkpt lat="42.0778783" lon="13.7545849"><ele>780.5</ele><time>2026-05-01T10:38:59.038Z</time></trkpt><trkpt lat="42.0778411" lon="13.7544098"><ele>780.25</ele><time>2026-05-01T10:39:00.028Z</time></trkpt><trkpt lat="42.0778037" lon="13.7542344"><ele>780.0</ele><time>2026-05-01T10:39:01.055Z</time></trkpt><trkpt lat="42.0777479" lon="13.7540751"><ele>778.75</ele><time>2026-05-01T10:39:02.026Z</time></trkpt><trkpt lat="42.0776636" lon="13.7539331"><ele>777.5</ele><time>2026-05-01T10:39:03.043Z</time></trkpt><trkpt lat="42.0775537" lon="13.7538205"><ele>776.25</ele><time>2026-05-01T10:39:04.037Z</time></trkpt><trkpt lat="42.0774265" lon="13.7537286"><ele>775.0</ele><time>2026-05-01T10:39:05.051Z</time></trkpt><trkpt lat="42.0773064" lon="13.7536441"><ele>779.0</ele><time>2026-05-01T10:39:06.05Z</time></trkpt><trkpt lat="42.0772253" lon="13.7535444"><ele>783.0</ele><time>2026-05-01T10:39:07.049Z</time></trkpt><trkpt lat="42.0771817" lon="13.7534287"><ele>787.0</ele><time>2026-05-01T10:39:08.046Z</time></trkpt><trkpt lat="42.0771779" lon="13.7532953"><ele>791.0</ele><time>2026-05-01T10:39:09.035Z</time></trkpt><trkpt lat="42.0772036" lon="13.7531535"><ele>795.0</ele><time>2026-05-01T10:39:10.034Z</time></trkpt><trkpt lat="42.0772502" lon="13.7530042"><ele>795.0</ele><time>2026-05-01T10:39:11.04Z</time></trkpt><trkpt lat="42.0772966" lon="13.752841"><ele>795.0</ele><time>2026-05-01T10:39:12.042Z</time></trkpt><trkpt lat="42.0773172" lon="13.7526688"><ele>795.0</ele><time>2026-05-01T10:39:13.038Z</time></trkpt><trkpt lat="42.0773072" lon="13.7524873"><ele>795.0</ele><time>2026-05-01T10:39:14.042Z</time></trkpt><trkpt lat="42.0772856" lon="13.7523024"><ele>793.75</ele><time>2026-05-01T10:39:15.075Z</time></trkpt><trkpt lat="42.077246" lon="13.7521383"><ele>792.5</ele><time>2026-05-01T10:39:16.045Z</time></trkpt><trkpt lat="42.0771885" lon="13.7519724"><ele>791.25</ele><time>2026-05-01T10:39:17.034Z</time></trkpt><trkpt lat="42.0771051" lon="13.7518081"><ele>790.0</ele><time>2026-05-01T10:39:18.047Z</time></trkpt><trkpt lat="42.0770126" lon="13.7516269"><ele>787.0</ele><time>2026-05-01T10:39:19.038Z</time></trkpt><trkpt lat="42.0769207" lon="13.7514424"><ele>784.0</ele><time>2026-05-01T10:39:20.066Z</time></trkpt><trkpt lat="42.0768293" lon="13.7512589"><ele>781.0</ele><time>2026-05-01T10:39:21.043Z</time></trkpt><trkpt lat="42.07674" lon="13.7510789"><ele>781.0</ele><time>2026-05-01T10:39:22.034Z</time></trkpt><trkpt lat="42.0766511" lon="13.7508995"><ele>781.0</ele><time>2026-05-01T10:39:23.037Z</time></trkpt><trkpt lat="42.0765625" lon="13.7507242"><ele>781.0</ele><time>2026-05-01T10:39:24.027Z</time></trkpt><trkpt lat="42.0764799" lon="13.7505563"><ele>781.0</ele><time>2026-05-01T10:39:25.037Z</time></trkpt><trkpt lat="42.0763991" lon="13.7503945"><ele>781.0</ele><time>2026-05-01T10:39:26.046Z</time></trkpt><trkpt lat="42.0763224" lon="13.7502431"><ele>781.0</ele><time>2026-05-01T10:39:27.041Z</time></trkpt><trkpt lat="42.0762467" lon="13.7500942"><ele>781.0</ele><time>2026-05-01T10:39:28.045Z</time></trkpt><trkpt lat="42.0761713" lon="13.7499603"><ele>779.5999999999999</ele><time>2026-05-01T10:39:29.041Z</time></trkpt><trkpt lat="42.0761022" lon="13.7498299"><ele>778.2</ele><time>2026-05-01T10:39:30.032Z</time></trkpt><trkpt lat="42.0760399" lon="13.7497132"><ele>776.8</ele><time>2026-05-01T10:39:31.035Z</time></trkpt><trkpt lat="42.075985" lon="13.7495947"><ele>775.4000000000001</ele><time>2026-05-01T10:39:32.036Z</time></trkpt><trkpt lat="42.0759559" lon="13.7494764"><ele>774.0</ele><time>2026-05-01T10:39:33.037Z</time></trkpt><trkpt lat="42.0759571" lon="13.7493653"><ele>771.75</ele><time>2026-05-01T10:39:34.032Z</time></trkpt><trkpt lat="42.0759912" lon="13.7492525"><ele>769.5</ele><time>2026-05-01T10:39:35.051Z</time></trkpt><trkpt lat="42.0760543" lon="13.7491312"><ele>767.25</ele><time>2026-05-01T10:39:36.045Z</time></trkpt><trkpt lat="42.0761447" lon="13.7490171"><ele>765.0</ele><time>2026-05-01T10:39:37.046Z</time></trkpt><trkpt lat="42.0762605" lon="13.7488867"><ele>765.0</ele><time>2026-05-01T10:39:38.037Z</time></trkpt><trkpt lat="42.0763917" lon="13.7487385"><ele>765.0</ele><time>2026-05-01T10:39:39.037Z</time></trkpt><trkpt lat="42.076517" lon="13.748585"><ele>765.0</ele><time>2026-05-01T10:39:40.037Z</time></trkpt><trkpt lat="42.0766273" lon="13.7484403"><ele>764.25</ele><time>2026-05-01T10:39:41.046Z</time></trkpt><trkpt lat="42.0767223" lon="13.7483056"><ele>763.5</ele><time>2026-05-01T10:39:42.045Z</time></trkpt><trkpt lat="42.0767935" lon="13.7481736"><ele>762.75</ele><time>2026-05-01T10:39:43.054Z</time></trkpt><trkpt lat="42.0768409" lon="13.7480359"><ele>762.0</ele><time>2026-05-01T10:39:44.065Z</time></trkpt><trkpt lat="42.0768574" lon="13.7478925"><ele>762.0</ele><time>2026-05-01T10:39:45.034Z</time></trkpt><trkpt lat="42.076847" lon="13.747739"><ele>762.0</ele><time>2026-05-01T10:39:46.035Z</time></trkpt><trkpt lat="42.0768142" lon="13.747575"><ele>762.0</ele><time>2026-05-01T10:39:47.035Z</time></trkpt><trkpt lat="42.0767625" lon="13.7473751"><ele>762.0</ele><time>2026-05-01T10:39:48.035Z</time></trkpt><trkpt lat="42.0767003" lon="13.7471446"><ele>760.3333333333334</ele><time>2026-05-01T10:39:49.031Z</time></trkpt><trkpt lat="42.0766375" lon="13.7469064"><ele>758.6666666666667</ele><time>2026-05-01T10:39:50.038Z</time></trkpt><trkpt lat="42.0765829" lon="13.7466846"><ele>757.0</ele><time>2026-05-01T10:39:51.035Z</time></trkpt><trkpt lat="42.076541" lon="13.7464721"><ele>757.0</ele><time>2026-05-01T10:39:52.043Z</time></trkpt><trkpt lat="42.076514" lon="13.7462718"><ele>757.0</ele><time>2026-05-01T10:39:53.04Z</time></trkpt><trkpt lat="42.0765037" lon="13.7460672"><ele>757.0</ele><time>2026-05-01T10:39:54.039Z</time></trkpt><trkpt lat="42.0765078" lon="13.7458534"><ele>759.0</ele><time>2026-05-01T10:39:55.03Z</time></trkpt><trkpt lat="42.0765231" lon="13.7456328"><ele>761.0</ele><time>2026-05-01T10:39:56.064Z</time></trkpt><trkpt lat="42.0765487" lon="13.7454117"><ele>763.0</ele><time>2026-05-01T10:39:57.036Z</time></trkpt><trkpt lat="42.0765799" lon="13.7451912"><ele>759.3333333333334</ele><time>2026-05-01T10:39:58.035Z</time></trkpt><trkpt lat="42.0766182" lon="13.7449782"><ele>755.6666666666666</ele><time>2026-05-01T10:39:59.043Z</time></trkpt><trkpt lat="42.0766748" lon="13.7447749"><ele>752.0</ele><time>2026-05-01T10:40:00.037Z</time></trkpt><trkpt lat="42.0767474" lon="13.7445814"><ele>752.0</ele><time>2026-05-01T10:40:01.061Z</time></trkpt><trkpt lat="42.0768453" lon="13.744409"><ele>752.0</ele><time>2026-05-01T10:40:02.035Z</time></trkpt><trkpt lat="42.0769686" lon="13.7442364"><ele>752.0</ele><time>2026-05-01T10:40:03.033Z</time></trkpt><trkpt lat="42.077095" lon="13.7440765"><ele>754.0</ele><time>2026-05-01T10:40:04.04Z</time></trkpt><trkpt lat="42.0772125" lon="13.7439365"><ele>756.0</ele><time>2026-05-01T10:40:05.035Z</time></trkpt><trkpt lat="42.0773112" lon="13.7437969"><ele>758.0</ele><time>2026-05-01T10:40:06.041Z</time></trkpt><trkpt lat="42.0773913" lon="13.7436667"><ele>760.0</ele><time>2026-05-01T10:40:07.04Z</time></trkpt><trkpt lat="42.0774441" lon="13.7435295"><ele>760.0</ele><time>2026-05-01T10:40:08.049Z</time></trkpt><trkpt lat="42.0774555" lon="13.7433681"><ele>760.0</ele><time>2026-05-01T10:40:09.037Z</time></trkpt><trkpt lat="42.0774392" lon="13.7432098"><ele>760.0</ele><time>2026-05-01T10:40:10.037Z</time></trkpt><trkpt lat="42.0774116" lon="13.7430396"><ele>760.0</ele><time>2026-05-01T10:40:11.037Z</time></trkpt><trkpt lat="42.0773843" lon="13.7428624"><ele>767.5</ele><time>2026-05-01T10:40:12.032Z</time></trkpt><trkpt lat="42.0773662" lon="13.7426803"><ele>775.0</ele><time>2026-05-01T10:40:13.033Z</time></trkpt><trkpt lat="42.0773614" lon="13.7424782"><ele>782.5</ele><time>2026-05-01T10:40:14.039Z</time></trkpt><trkpt lat="42.0773598" lon="13.7422592"><ele>790.0</ele><time>2026-05-01T10:40:15.036Z</time></trkpt><trkpt lat="42.0773608" lon="13.7420286"><ele>790.6666666666666</ele><time>2026-05-01T10:40:16.039Z</time></trkpt><trkpt lat="42.0773608" lon="13.7418018"><ele>791.3333333333333</ele><time>2026-05-01T10:40:17.031Z</time></trkpt><trkpt lat="42.0773625" lon="13.7415744"><ele>792.0</ele><time>2026-05-01T10:40:18.041Z</time></trkpt><trkpt lat="42.0773726" lon="13.7413386"><ele>792.0</ele><time>2026-05-01T10:40:19.031Z</time></trkpt><trkpt lat="42.0773929" lon="13.7411067"><ele>792.0</ele><time>2026-05-01T10:40:20.025Z</time></trkpt><trkpt lat="42.0774292" lon="13.7408845"><ele>792.0</ele><time>2026-05-01T10:40:21.033Z</time></trkpt><trkpt lat="42.0774813" lon="13.7406645"><ele>786.0</ele><time>2026-05-01T10:40:22.038Z</time></trkpt><trkpt lat="42.0775463" lon="13.7404582"><ele>780.0</ele><time>2026-05-01T10:40:23.034Z</time></trkpt><trkpt lat="42.0776184" lon="13.7402619"><ele>774.0</ele><time>2026-05-01T10:40:24.037Z</time></trkpt><trkpt lat="42.0776912" lon="13.7400921"><ele>774.0</ele><time>2026-05-01T10:40:25.036Z</time></trkpt><trkpt lat="42.0777572" lon="13.7399137"><ele>774.0</ele><time>2026-05-01T10:40:26.033Z</time></trkpt><trkpt lat="42.0777961" lon="13.73972"><ele>774.0</ele><time>2026-05-01T10:40:27.035Z</time></trkpt><trkpt lat="42.0778076" lon="13.7395128"><ele>775.6666666666667</ele><time>2026-05-01T10:40:28.029Z</time></trkpt><trkpt lat="42.0777995" lon="13.7393045"><ele>777.3333333333334</ele><time>2026-05-01T10:40:29.047Z</time></trkpt><trkpt lat="42.0777778" lon="13.7390934"><ele>779.0</ele><time>2026-05-01T10:40:30.03Z</time></trkpt><trkpt lat="42.077757" lon="13.738882"><ele>779.0</ele><time>2026-05-01T10:40:31.046Z</time></trkpt><trkpt lat="42.0777363" lon="13.7386809"><ele>779.0</ele><time>2026-05-01T10:40:32.028Z</time></trkpt><trkpt lat="42.0777276" lon="13.7384799"><ele>779.0</ele><time>2026-05-01T10:40:33.031Z</time></trkpt><trkpt lat="42.0777383" lon="13.7382845"><ele>779.0</ele><time>2026-05-01T10:40:34.029Z</time></trkpt><trkpt lat="42.0777681" lon="13.7380923"><ele>781.3333333333334</ele><time>2026-05-01T10:40:35.036Z</time></trkpt><trkpt lat="42.0778139" lon="13.7379038"><ele>783.6666666666667</ele><time>2026-05-01T10:40:36.033Z</time></trkpt><trkpt lat="42.0778637" lon="13.73771"><ele>786.0</ele><time>2026-05-01T10:40:37.037Z</time></trkpt><trkpt lat="42.0779173" lon="13.7375154"><ele>789.25</ele><time>2026-05-01T10:40:38.04Z</time></trkpt><trkpt lat="42.077967" lon="13.7373279"><ele>792.5</ele><time>2026-05-01T10:40:39.038Z</time></trkpt><trkpt lat="42.0780134" lon="13.7371523"><ele>795.75</ele><time>2026-05-01T10:40:40.039Z</time></trkpt><trkpt lat="42.0780513" lon="13.7369857"><ele>799.0</ele><time>2026-05-01T10:40:41.038Z</time></trkpt><trkpt lat="42.078077" lon="13.7368272"><ele>801.25</ele><time>2026-05-01T10:40:42.03Z</time></trkpt><trkpt lat="42.0780934" lon="13.7366654"><ele>803.5</ele><time>2026-05-01T10:40:43.034Z</time></trkpt><trkpt lat="42.0781033" lon="13.7364899"><ele>805.75</ele><time>2026-05-01T10:40:44.031Z</time></trkpt><trkpt lat="42.0781112" lon="13.7363112"><ele>808.0</ele><time>2026-05-01T10:40:45.048Z</time></trkpt><trkpt lat="42.0781256" lon="13.7361319"><ele>810.5</ele><time>2026-05-01T10:40:46.034Z</time></trkpt><trkpt lat="42.0781535" lon="13.7359521"><ele>813.0</ele><time>2026-05-01T10:40:47.029Z</time></trkpt><trkpt lat="42.0781984" lon="13.7357867"><ele>815.5</ele><time>2026-05-01T10:40:48.034Z</time></trkpt><trkpt lat="42.0782579" lon="13.7356184"><ele>818.0</ele><time>2026-05-01T10:40:49.032Z</time></trkpt><trkpt lat="42.0783362" lon="13.7354383"><ele>811.0</ele><time>2026-05-01T10:40:50.033Z</time></trkpt><trkpt lat="42.0784203" lon="13.735251"><ele>804.0</ele><time>2026-05-01T10:40:51.033Z</time></trkpt><trkpt lat="42.078505" lon="13.7350749"><ele>797.0</ele><time>2026-05-01T10:40:52.032Z</time></trkpt><trkpt lat="42.0785825" lon="13.7349049"><ele>797.0</ele><time>2026-05-01T10:40:53.037Z</time></trkpt><trkpt lat="42.0786591" lon="13.7347374"><ele>797.0</ele><time>2026-05-01T10:40:54.033Z</time></trkpt><trkpt lat="42.0787304" lon="13.7345703"><ele>797.0</ele><time>2026-05-01T10:40:55.03Z</time></trkpt><trkpt lat="42.0787923" lon="13.7343953"><ele>797.0</ele><time>2026-05-01T10:40:56.029Z</time></trkpt><trkpt lat="42.0788382" lon="13.7342099"><ele>800.6666666666667</ele><time>2026-05-01T10:40:57.032Z</time></trkpt><trkpt lat="42.0788777" lon="13.7340095"><ele>804.3333333333333</ele><time>2026-05-01T10:40:58.045Z</time></trkpt><trkpt lat="42.0789212" lon="13.7338012"><ele>808.0</ele><time>2026-05-01T10:40:59.037Z</time></trkpt><trkpt lat="42.0789605" lon="13.7335823"><ele>811.6666666666666</ele><time>2026-05-01T10:41:00.037Z</time></trkpt><trkpt lat="42.0789977" lon="13.7333614"><ele>815.3333333333333</ele><time>2026-05-01T10:41:01.039Z</time></trkpt><trkpt lat="42.0790413" lon="13.7331228"><ele>819.0</ele><time>2026-05-01T10:41:02.03Z</time></trkpt><trkpt lat="42.0790913" lon="13.7328474"><ele>812.6666666666667</ele><time>2026-05-01T10:41:03.035Z</time></trkpt><trkpt lat="42.079151" lon="13.7325534"><ele>806.3333333333334</ele><time>2026-05-01T10:41:04.034Z</time></trkpt><trkpt lat="42.0792091" lon="13.7322807"><ele>800.0</ele><time>2026-05-01T10:41:05.035Z</time></trkpt><trkpt lat="42.0792711" lon="13.7320257"><ele>802.6666666666667</ele><time>2026-05-01T10:41:06.033Z</time></trkpt><trkpt lat="42.0793367" lon="13.7317732"><ele>805.3333333333333</ele><time>2026-05-01T10:41:07.044Z</time></trkpt><trkpt lat="42.0793918" lon="13.7315206"><ele>808.0</ele><time>2026-05-01T10:41:08.034Z</time></trkpt><trkpt lat="42.0794283" lon="13.7312479"><ele>810.5</ele><time>2026-05-01T10:41:09.04Z</time></trkpt><trkpt lat="42.0794534" lon="13.730939"><ele>813.0</ele><time>2026-05-01T10:41:10.031Z</time></trkpt><trkpt lat="42.0794809" lon="13.7306234"><ele>813.0</ele><time>2026-05-01T10:41:11.023Z</time></trkpt><trkpt lat="42.0795074" lon="13.7303333"><ele>813.0</ele><time>2026-05-01T10:41:12.035Z</time></trkpt><trkpt lat="42.0795301" lon="13.7300601"><ele>813.0</ele><time>2026-05-01T10:41:13.021Z</time></trkpt><trkpt lat="42.0795436" lon="13.7297939"><ele>816.0</ele><time>2026-05-01T10:41:14.034Z</time></trkpt><trkpt lat="42.079551" lon="13.7295366"><ele>819.0</ele><time>2026-05-01T10:41:15.031Z</time></trkpt><trkpt lat="42.0795592" lon="13.7292869"><ele>822.0</ele><time>2026-05-01T10:41:16.031Z</time></trkpt><trkpt lat="42.0795583" lon="13.729053"><ele>823.0</ele><time>2026-05-01T10:41:17.039Z</time></trkpt><trkpt lat="42.0795546" lon="13.7288381"><ele>824.0</ele><time>2026-05-01T10:41:18.04Z</time></trkpt><trkpt lat="42.079553" lon="13.7286353"><ele>825.0</ele><time>2026-05-01T10:41:19.031Z</time></trkpt><trkpt lat="42.0795506" lon="13.7284506"><ele>826.0</ele><time>2026-05-01T10:41:20.03Z</time></trkpt><trkpt lat="42.0795465" lon="13.7282757"><ele>825.9999999999999</ele><time>2026-05-01T10:41:21.046Z</time></trkpt><trkpt lat="42.079546" lon="13.728129"><ele>826.0</ele><time>2026-05-01T10:41:22.031Z</time></trkpt><trkpt lat="42.07955" lon="13.7279923"><ele>826.0</ele><time>2026-05-01T10:41:23.049Z</time></trkpt><trkpt lat="42.07955" lon="13.7278768"><ele>826.0</ele><time>2026-05-01T10:41:24.034Z</time></trkpt><trkpt lat="42.0795519" lon="13.7277676"><ele>825.9999999999999</ele><time>2026-05-01T10:41:25.042Z</time></trkpt><trkpt lat="42.0795503" lon="13.7276715"><ele>826.0</ele><time>2026-05-01T10:41:26.036Z</time></trkpt><trkpt lat="42.0795507" lon="13.7275845"><ele>826.3333333333333</ele><time>2026-05-01T10:41:27.028Z</time></trkpt><trkpt lat="42.0795619" lon="13.7274554"><ele>826.6666666666666</ele><time>2026-05-01T10:41:29.03Z</time></trkpt><trkpt lat="42.0795626" lon="13.727346"><ele>827.0</ele><time>2026-05-01T10:41:32.05Z</time></trkpt><trkpt lat="42.0795598" lon="13.7272556"><ele>827.3333333333333</ele><time>2026-05-01T10:41:37.043Z</time></trkpt><trkpt lat="42.0795466" lon="13.7271511"><ele>827.6666666666666</ele><time>2026-05-01T10:42:04.033Z</time></trkpt><trkpt lat="42.0795218" lon="13.7270701"><ele>828.0</ele><time>2026-05-01T10:42:06.022Z</time></trkpt><trkpt lat="42.0794998" lon="13.7269903"><ele>827.8333333333334</ele><time>2026-05-01T10:42:08.032Z</time></trkpt><trkpt lat="42.079458" lon="13.7268789"><ele>827.6666666666667</ele><time>2026-05-01T10:42:11.029Z</time></trkpt><trkpt lat="42.0794261" lon="13.7267974"><ele>827.5</ele><time>2026-05-01T10:42:13.031Z</time></trkpt><trkpt lat="42.0793846" lon="13.7267119"><ele>827.3333333333334</ele><time>2026-05-01T10:42:15.05Z</time></trkpt><trkpt lat="42.0793422" lon="13.7266218"><ele>827.1666666666667</ele><time>2026-05-01T10:42:17.035Z</time></trkpt><trkpt lat="42.0793056" lon="13.7265316"><ele>827.0</ele><time>2026-05-01T10:42:19.036Z</time></trkpt><trkpt lat="42.0792684" lon="13.7264427"><ele>827.0</ele><time>2026-05-01T10:42:21.044Z</time></trkpt><trkpt lat="42.0792331" lon="13.7263592"><ele>827.0</ele><time>2026-05-01T10:42:23.045Z</time></trkpt><trkpt lat="42.0791968" lon="13.7262785"><ele>827.0</ele><time>2026-05-01T10:42:25.026Z</time></trkpt><trkpt lat="42.0791636" lon="13.7261961"><ele>827.0</ele><time>2026-05-01T10:42:27.037Z</time></trkpt><trkpt lat="42.0791265" lon="13.726111"><ele>827.0</ele><time>2026-05-01T10:42:29.045Z</time></trkpt><trkpt lat="42.0790926" lon="13.7260304"><ele>827.0</ele><time>2026-05-01T10:42:31.037Z</time></trkpt><trkpt lat="42.0790599" lon="13.7259493"><ele>827.0</ele><time>2026-05-01T10:42:33.036Z</time></trkpt><trkpt lat="42.0790238" lon="13.7258625"><ele>832.8571428571429</ele><time>2026-05-01T10:42:35.036Z</time></trkpt><trkpt lat="42.0789878" lon="13.7257796"><ele>838.7142857142857</ele><time>2026-05-01T10:42:37.05Z</time></trkpt><trkpt lat="42.0789569" lon="13.7256943"><ele>844.5714285714286</ele><time>2026-05-01T10:42:39.032Z</time></trkpt><trkpt lat="42.0789324" lon="13.7256048"><ele>850.4285714285714</ele><time>2026-05-01T10:42:41.041Z</time></trkpt><trkpt lat="42.0789203" lon="13.7255176"><ele>856.2857142857142</ele><time>2026-05-01T10:42:43.028Z</time></trkpt><trkpt lat="42.0789472" lon="13.7254353"><ele>862.1428571428571</ele><time>2026-05-01T10:42:51.026Z</time></trkpt><trkpt lat="42.0790193" lon="13.7253742"><ele>868.0</ele><time>2026-05-01T10:42:53.025Z</time></trkpt><trkpt lat="42.0790844" lon="13.7253623"><ele>861.6666666666666</ele><time>2026-05-01T10:42:54.03Z</time></trkpt><trkpt lat="42.079154" lon="13.7253841"><ele>855.3333333333333</ele><time>2026-05-01T10:42:55.028Z</time></trkpt><trkpt lat="42.0792271" lon="13.7254284"><ele>849.0</ele><time>2026-05-01T10:42:56.03Z</time></trkpt><trkpt lat="42.079299" lon="13.7254773"><ele>842.6666666666667</ele><time>2026-05-01T10:42:57.036Z</time></trkpt><trkpt lat="42.079368" lon="13.7255268"><ele>836.3333333333334</ele><time>2026-05-01T10:42:58.034Z</time></trkpt><trkpt lat="42.0794424" lon="13.7255751"><ele>830.0</ele><time>2026-05-01T10:42:59.05Z</time></trkpt><trkpt lat="42.0795246" lon="13.7256265"><ele>830.0</ele><time>2026-05-01T10:43:00.03Z</time></trkpt><trkpt lat="42.0796157" lon="13.7256832"><ele>830.0</ele><time>2026-05-01T10:43:01.025Z</time></trkpt><trkpt lat="42.0797117" lon="13.7257496"><ele>830.0</ele><time>2026-05-01T10:43:02.027Z</time></trkpt><trkpt lat="42.07982" lon="13.7258062"><ele>830.0</ele><time>2026-05-01T10:43:03.035Z</time></trkpt><trkpt lat="42.0799321" lon="13.7258418"><ele>830.0</ele><time>2026-05-01T10:43:04.035Z</time></trkpt><trkpt lat="42.0800506" lon="13.7258475"><ele>829.5</ele><time>2026-05-01T10:43:05.024Z</time></trkpt><trkpt lat="42.0801725" lon="13.7258159"><ele>829.0</ele><time>2026-05-01T10:43:06.042Z</time></trkpt><trkpt lat="42.080311" lon="13.7257451"><ele>828.5</ele><time>2026-05-01T10:43:07.031Z</time></trkpt><trkpt lat="42.0804656" lon="13.7256455"><ele>828.0</ele><time>2026-05-01T10:43:08.038Z</time></trkpt><trkpt lat="42.0806443" lon="13.725531"><ele>827.3333333333333</ele><time>2026-05-01T10:43:09.034Z</time></trkpt><trkpt lat="42.0808132" lon="13.7254263"><ele>826.6666666666666</ele><time>2026-05-01T10:43:10.03Z</time></trkpt><trkpt lat="42.0809724" lon="13.7253295"><ele>826.0</ele><time>2026-05-01T10:43:11.035Z</time></trkpt><trkpt lat="42.0811205" lon="13.725216"><ele>832.6666666666666</ele><time>2026-05-01T10:43:12.033Z</time></trkpt><trkpt lat="42.0812612" lon="13.7250807"><ele>839.3333333333333</ele><time>2026-05-01T10:43:13.031Z</time></trkpt><trkpt lat="42.0813838" lon="13.7249193"><ele>846.0</ele><time>2026-05-01T10:43:14.042Z</time></trkpt><trkpt lat="42.0814944" lon="13.7247342"><ele>846.0</ele><time>2026-05-01T10:43:15.031Z</time></trkpt><trkpt lat="42.081597" lon="13.7245215"><ele>846.0</ele><time>2026-05-01T10:43:16.029Z</time></trkpt><trkpt lat="42.0817068" lon="13.7243142"><ele>846.0</ele><time>2026-05-01T10:43:17.03Z</time></trkpt><trkpt lat="42.081833" lon="13.7241379"><ele>846.6666666666667</ele><time>2026-05-01T10:43:18.031Z</time></trkpt><trkpt lat="42.0819677" lon="13.7239861"><ele>847.3333333333334</ele><time>2026-05-01T10:43:19.026Z</time></trkpt><trkpt lat="42.0820939" lon="13.7238504"><ele>848.0</ele><time>2026-05-01T10:43:20.033Z</time></trkpt><trkpt lat="42.0821953" lon="13.7237357"><ele>848.0000000000001</ele><time>2026-05-01T10:43:21.04Z</time></trkpt><trkpt lat="42.0822611" lon="13.7236347"><ele>848.0</ele><time>2026-05-01T10:43:22.034Z</time></trkpt><trkpt lat="42.0822959" lon="13.7235373"><ele>848.0</ele><time>2026-05-01T10:43:23.025Z</time></trkpt><trkpt lat="42.0822875" lon="13.723444"><ele>848.0</ele><time>2026-05-01T10:43:24.033Z</time></trkpt><trkpt lat="42.0821791" lon="13.7233885"><ele>848.0000000000001</ele><time>2026-05-01T10:43:26.03Z</time></trkpt><trkpt lat="42.0821115" lon="13.7234391"><ele>848.0</ele><time>2026-05-01T10:43:27.032Z</time></trkpt><trkpt lat="42.0820397" lon="13.7235309"><ele>848.0</ele><time>2026-05-01T10:43:28.029Z</time></trkpt><trkpt lat="42.0819698" lon="13.7236525"><ele>848.0</ele><time>2026-05-01T10:43:29.027Z</time></trkpt><trkpt lat="42.0818983" lon="13.7237749"><ele>848.0</ele><time>2026-05-01T10:43:30.033Z</time></trkpt><trkpt lat="42.0818029" lon="13.7238947"><ele>848.0</ele><time>2026-05-01T10:43:31.039Z</time></trkpt><trkpt lat="42.0816887" lon="13.7240079"><ele>855.0</ele><time>2026-05-01T10:43:32.038Z</time></trkpt><trkpt lat="42.0815627" lon="13.7241174"><ele>862.0</ele><time>2026-05-01T10:43:33.043Z</time></trkpt><trkpt lat="42.0814299" lon="13.7242268"><ele>869.0</ele><time>2026-05-01T10:43:34.033Z</time></trkpt><trkpt lat="42.0812975" lon="13.7243521"><ele>861.3333333333334</ele><time>2026-05-01T10:43:35.036Z</time></trkpt><trkpt lat="42.0811645" lon="13.7244782"><ele>853.6666666666667</ele><time>2026-05-01T10:43:36.03Z</time></trkpt><trkpt lat="42.0810298" lon="13.7245854"><ele>846.0</ele><time>2026-05-01T10:43:37.033Z</time></trkpt><trkpt lat="42.0808848" lon="13.7246603"><ele>848.3333333333333</ele><time>2026-05-01T10:43:38.038Z</time></trkpt><trkpt lat="42.080716" lon="13.7246995"><ele>850.6666666666666</ele><time>2026-05-01T10:43:39.036Z</time></trkpt><trkpt lat="42.0805273" lon="13.7247336"><ele>853.0</ele><time>2026-05-01T10:43:40.035Z</time></trkpt><trkpt lat="42.0803477" lon="13.7247803"><ele>853.0</ele><time>2026-05-01T10:43:41.033Z</time></trkpt><trkpt lat="42.0801947" lon="13.7248343"><ele>853.0</ele><time>2026-05-01T10:43:42.025Z</time></trkpt><trkpt lat="42.0800443" lon="13.7248747"><ele>853.0</ele><time>2026-05-01T10:43:43.035Z</time></trkpt><trkpt lat="42.0799039" lon="13.7248677"><ele>850.75</ele><time>2026-05-01T10:43:44.023Z</time></trkpt><trkpt lat="42.0797815" lon="13.7248169"><ele>848.5</ele><time>2026-05-01T10:43:45.038Z</time></trkpt><trkpt lat="42.0796739" lon="13.7247199"><ele>846.25</ele><time>2026-05-01T10:43:46.03Z</time></trkpt><trkpt lat="42.0795742" lon="13.7245757"><ele>844.0</ele><time>2026-05-01T10:43:47.022Z</time></trkpt><trkpt lat="42.0794649" lon="13.7244066"><ele>848.6666666666666</ele><time>2026-05-01T10:43:48.031Z</time></trkpt><trkpt lat="42.0793422" lon="13.7242403"><ele>853.3333333333333</ele><time>2026-05-01T10:43:49.032Z</time></trkpt><trkpt lat="42.0792148" lon="13.7240748"><ele>858.0</ele><time>2026-05-01T10:43:50.034Z</time></trkpt><trkpt lat="42.0790874" lon="13.7239149"><ele>858.0</ele><time>2026-05-01T10:43:51.027Z</time></trkpt><trkpt lat="42.078958" lon="13.7237768"><ele>858.0</ele><time>2026-05-01T10:43:52.025Z</time></trkpt><trkpt lat="42.0788179" lon="13.7236644"><ele>858.0</ele><time>2026-05-01T10:43:53.029Z</time></trkpt><trkpt lat="42.0786687" lon="13.7235883"><ele>863.6666666666667</ele><time>2026-05-01T10:43:54.025Z</time></trkpt><trkpt lat="42.0785162" lon="13.7235398"><ele>869.3333333333334</ele><time>2026-05-01T10:43:55.038Z</time></trkpt><trkpt lat="42.0783693" lon="13.7234932"><ele>875.0</ele><time>2026-05-01T10:43:56.023Z</time></trkpt><trkpt lat="42.0782283" lon="13.7234151"><ele>875.0</ele><time>2026-05-01T10:43:57.024Z</time></trkpt><trkpt lat="42.0781056" lon="13.7232929"><ele>875.0</ele><time>2026-05-01T10:43:58.029Z</time></trkpt><trkpt lat="42.0779946" lon="13.7231326"><ele>875.0</ele><time>2026-05-01T10:43:59.034Z</time></trkpt><trkpt lat="42.0778902" lon="13.722944"><ele>875.0</ele><time>2026-05-01T10:44:00.036Z</time></trkpt><trkpt lat="42.0778043" lon="13.7227727"><ele>875.0</ele><time>2026-05-01T10:44:01.026Z</time></trkpt><trkpt lat="42.0777089" lon="13.7226148"><ele>875.0</ele><time>2026-05-01T10:44:02.029Z</time></trkpt><trkpt lat="42.0775912" lon="13.7224837"><ele>877.0</ele><time>2026-05-01T10:44:03.026Z</time></trkpt><trkpt lat="42.077465" lon="13.7224089"><ele>879.0</ele><time>2026-05-01T10:44:04.033Z</time></trkpt><trkpt lat="42.0773249" lon="13.7223828"><ele>881.0</ele><time>2026-05-01T10:44:05.03Z</time></trkpt><trkpt lat="42.0771834" lon="13.7223684"><ele>883.0</ele><time>2026-05-01T10:44:06.025Z</time></trkpt><trkpt lat="42.0770431" lon="13.7223536"><ele>885.4</ele><time>2026-05-01T10:44:07.029Z</time></trkpt><trkpt lat="42.076916" lon="13.7223293"><ele>887.8</ele><time>2026-05-01T10:44:08.03Z</time></trkpt><trkpt lat="42.0768094" lon="13.7223035"><ele>890.2</ele><time>2026-05-01T10:44:09.03Z</time></trkpt><trkpt lat="42.0767391" lon="13.7222642"><ele>892.6</ele><time>2026-05-01T10:44:10.024Z</time></trkpt><trkpt lat="42.0767138" lon="13.7221274"><ele>895.0</ele><time>2026-05-01T10:44:12.033Z</time></trkpt><trkpt lat="42.0768264" lon="13.7220521"><ele>895.0</ele><time>2026-05-01T10:44:14.027Z</time></trkpt><trkpt lat="42.076914" lon="13.722062"><ele>895.0</ele><time>2026-05-01T10:44:15.019Z</time></trkpt><trkpt lat="42.07701" lon="13.7220959"><ele>895.0</ele><time>2026-05-01T10:44:16.026Z</time></trkpt><trkpt lat="42.0771158" lon="13.7221331"><ele>895.0</ele><time>2026-05-01T10:44:17.028Z</time></trkpt><trkpt lat="42.0772299" lon="13.7221624"><ele>895.0</ele><time>2026-05-01T10:44:18.026Z</time></trkpt><trkpt lat="42.077366" lon="13.7221695"><ele>892.0</ele><time>2026-05-01T10:44:19.032Z</time></trkpt><trkpt lat="42.0775025" lon="13.722161"><ele>889.0</ele><time>2026-05-01T10:44:20.028Z</time></trkpt><trkpt lat="42.0776319" lon="13.7221511"><ele>886.0</ele><time>2026-05-01T10:44:21.024Z</time></trkpt><trkpt lat="42.0777667" lon="13.7221853"><ele>883.0</ele><time>2026-05-01T10:44:22.022Z</time></trkpt><trkpt lat="42.0778722" lon="13.7222697"><ele>883.0</ele><time>2026-05-01T10:44:23.028Z</time></trkpt><trkpt lat="42.0779718" lon="13.7224095"><ele>883.0</ele><time>2026-05-01T10:44:24.031Z</time></trkpt><trkpt lat="42.0780705" lon="13.7225567"><ele>883.0</ele><time>2026-05-01T10:44:25.017Z</time></trkpt><trkpt lat="42.0782" lon="13.7227067"><ele>881.0</ele><time>2026-05-01T10:44:26.041Z</time></trkpt><trkpt lat="42.0783366" lon="13.7228302"><ele>879.0</ele><time>2026-05-01T10:44:27.035Z</time></trkpt><trkpt lat="42.0784711" lon="13.72292"><ele>877.0</ele><time>2026-05-01T10:44:28.031Z</time></trkpt><trkpt lat="42.0786083" lon="13.722972"><ele>877.0</ele><time>2026-05-01T10:44:29.026Z</time></trkpt><trkpt lat="42.0787504" lon="13.7229624"><ele>877.0</ele><time>2026-05-01T10:44:30.032Z</time></trkpt><trkpt lat="42.0788909" lon="13.7228983"><ele>877.0</ele><time>2026-05-01T10:44:31.014Z</time></trkpt><trkpt lat="42.0790347" lon="13.7228016"><ele>884.6666666666666</ele><time>2026-05-01T10:44:32.037Z</time></trkpt><trkpt lat="42.0791853" lon="13.7226974"><ele>892.3333333333333</ele><time>2026-05-01T10:44:33.026Z</time></trkpt><trkpt lat="42.0793254" lon="13.7225913"><ele>900.0</ele><time>2026-05-01T10:44:34.028Z</time></trkpt><trkpt lat="42.0794473" lon="13.7224824"><ele>900.0</ele><time>2026-05-01T10:44:35.035Z</time></trkpt><trkpt lat="42.0795493" lon="13.7223661"><ele>900.0</ele><time>2026-05-01T10:44:36.034Z</time></trkpt><trkpt lat="42.0796204" lon="13.7222236"><ele>900.0</ele><time>2026-05-01T10:44:37.034Z</time></trkpt><trkpt lat="42.0796664" lon="13.7220607"><ele>900.0</ele><time>2026-05-01T10:44:38.031Z</time></trkpt><trkpt lat="42.0796804" lon="13.721876"><ele>902.0</ele><time>2026-05-01T10:44:39.024Z</time></trkpt><trkpt lat="42.0796694" lon="13.7216709"><ele>904.0</ele><time>2026-05-01T10:44:40.033Z</time></trkpt><trkpt lat="42.0796434" lon="13.7214715"><ele>906.0</ele><time>2026-05-01T10:44:41.035Z</time></trkpt><trkpt lat="42.079628" lon="13.721293"><ele>908.0</ele><time>2026-05-01T10:44:42.035Z</time></trkpt><trkpt lat="42.0796416" lon="13.7211291"><ele>908.75</ele><time>2026-05-01T10:44:43.04Z</time></trkpt><trkpt lat="42.0796804" lon="13.7209749"><ele>909.5</ele><time>2026-05-01T10:44:44.037Z</time></trkpt><trkpt lat="42.0797382" lon="13.7208248"><ele>910.25</ele><time>2026-05-01T10:44:45.028Z</time></trkpt><trkpt lat="42.0797783" lon="13.7206807"><ele>911.0</ele><time>2026-05-01T10:44:46.033Z</time></trkpt><trkpt lat="42.079778" lon="13.7205395"><ele>911.0</ele><time>2026-05-01T10:44:47.031Z</time></trkpt><trkpt lat="42.0797363" lon="13.7204166"><ele>910.9999999999999</ele><time>2026-05-01T10:44:48.021Z</time></trkpt><trkpt lat="42.079668" lon="13.7203287"><ele>910.9999999999999</ele><time>2026-05-01T10:44:49.036Z</time></trkpt><trkpt lat="42.0795556" lon="13.7202914"><ele>911.0</ele><time>2026-05-01T10:44:50.027Z</time></trkpt><trkpt lat="42.0794243" lon="13.7202845"><ele>911.0</ele><time>2026-05-01T10:44:51.03Z</time></trkpt><trkpt lat="42.0792852" lon="13.7202907"><ele>911.0</ele><time>2026-05-01T10:44:52.036Z</time></trkpt><trkpt lat="42.0791497" lon="13.7202713"><ele>911.0</ele><time>2026-05-01T10:44:53.026Z</time></trkpt><trkpt lat="42.079027" lon="13.7202132"><ele>911.0</ele><time>2026-05-01T10:44:54.024Z</time></trkpt><trkpt lat="42.0789232" lon="13.7201107"><ele>911.0</ele><time>2026-05-01T10:44:55.031Z</time></trkpt><trkpt lat="42.0788439" lon="13.7199772"><ele>914.0</ele><time>2026-05-01T10:44:56.027Z</time></trkpt><trkpt lat="42.0787919" lon="13.7198179"><ele>917.0</ele><time>2026-05-01T10:44:57.053Z</time></trkpt><trkpt lat="42.0787636" lon="13.7196312"><ele>920.0</ele><time>2026-05-01T10:44:58.026Z</time></trkpt><trkpt lat="42.0787469" lon="13.7194383"><ele>923.0</ele><time>2026-05-01T10:44:59.025Z</time></trkpt><trkpt lat="42.0787227" lon="13.719227"><ele>923.5</ele><time>2026-05-01T10:45:00.035Z</time></trkpt><trkpt lat="42.0786998" lon="13.7190236"><ele>924.0</ele><time>2026-05-01T10:45:01.024Z</time></trkpt><trkpt lat="42.0786798" lon="13.7188322"><ele>924.5</ele><time>2026-05-01T10:45:02.035Z</time></trkpt><trkpt lat="42.078647" lon="13.7186655"><ele>925.0</ele><time>2026-05-01T10:45:03.033Z</time></trkpt><trkpt lat="42.0785934" lon="13.7185355"><ele>925.0</ele><time>2026-05-01T10:45:04.032Z</time></trkpt><trkpt lat="42.078503" lon="13.7184526"><ele>925.0</ele><time>2026-05-01T10:45:05.035Z</time></trkpt><trkpt lat="42.0783991" lon="13.7184162"><ele>925.0</ele><time>2026-05-01T10:45:06.043Z</time></trkpt><trkpt lat="42.0782781" lon="13.7184385"><ele>925.0</ele><time>2026-05-01T10:45:07.038Z</time></trkpt><trkpt lat="42.0781765" lon="13.7185169"><ele>928.0</ele><time>2026-05-01T10:45:08.027Z</time></trkpt><trkpt lat="42.0780814" lon="13.7186397"><ele>931.0</ele><time>2026-05-01T10:45:09.03Z</time></trkpt><trkpt lat="42.0780001" lon="13.7187946"><ele>934.0</ele><time>2026-05-01T10:45:10.034Z</time></trkpt><trkpt lat="42.0779264" lon="13.7189767"><ele>937.0</ele><time>2026-05-01T10:45:11.039Z</time></trkpt><trkpt lat="42.0778811" lon="13.7191894"><ele>937.3333333333333</ele><time>2026-05-01T10:45:12.031Z</time></trkpt><trkpt lat="42.0778534" lon="13.719418"><ele>937.6666666666667</ele><time>2026-05-01T10:45:13.047Z</time></trkpt><trkpt lat="42.0778497" lon="13.7196485"><ele>938.0</ele><time>2026-05-01T10:45:14.023Z</time></trkpt><trkpt lat="42.0778694" lon="13.7198743"><ele>938.0</ele><time>2026-05-01T10:45:15.028Z</time></trkpt><trkpt lat="42.0778879" lon="13.7200807"><ele>938.0</ele><time>2026-05-01T10:45:16.035Z</time></trkpt><trkpt lat="42.0778772" lon="13.7202775"><ele>938.0</ele><time>2026-05-01T10:45:17.038Z</time></trkpt><trkpt lat="42.0778453" lon="13.7204619"><ele>938.0</ele><time>2026-05-01T10:45:18.03Z</time></trkpt><trkpt lat="42.0777685" lon="13.7206036"><ele>937.0</ele><time>2026-05-01T10:45:19.029Z</time></trkpt><trkpt lat="42.0776602" lon="13.7207068"><ele>936.0</ele><time>2026-05-01T10:45:20.033Z</time></trkpt><trkpt lat="42.0775268" lon="13.7207792"><ele>935.0</ele><time>2026-05-01T10:45:21.025Z</time></trkpt><trkpt lat="42.0773703" lon="13.7208192"><ele>934.0</ele><time>2026-05-01T10:45:22.036Z</time></trkpt><trkpt lat="42.0772065" lon="13.7208404"><ele>934.0</ele><time>2026-05-01T10:45:23.029Z</time></trkpt><trkpt lat="42.0770288" lon="13.7208427"><ele>934.0</ele><time>2026-05-01T10:45:24.035Z</time></trkpt><trkpt lat="42.076866" lon="13.7208309"><ele>934.0</ele><time>2026-05-01T10:45:25.031Z</time></trkpt><trkpt lat="42.0767234" lon="13.7207967"><ele>932.25</ele><time>2026-05-01T10:45:26.033Z</time></trkpt><trkpt lat="42.0766026" lon="13.7207297"><ele>930.5</ele><time>2026-05-01T10:45:27.047Z</time></trkpt><trkpt lat="42.0764931" lon="13.7206116"><ele>928.75</ele><time>2026-05-01T10:45:28.02Z</time></trkpt><trkpt lat="42.0763898" lon="13.7204546"><ele>927.0</ele><time>2026-05-01T10:45:29.026Z</time></trkpt><trkpt lat="42.0762887" lon="13.7202583"><ele>931.3333333333333</ele><time>2026-05-01T10:45:30.026Z</time></trkpt><trkpt lat="42.0761789" lon="13.7200685"><ele>935.6666666666666</ele><time>2026-05-01T10:45:31.036Z</time></trkpt><trkpt lat="42.0760569" lon="13.7199055"><ele>940.0</ele><time>2026-05-01T10:45:32.039Z</time></trkpt><trkpt lat="42.07593" lon="13.7197439"><ele>940.0</ele><time>2026-05-01T10:45:33.027Z</time></trkpt><trkpt lat="42.0758247" lon="13.7195734"><ele>940.0</ele><time>2026-05-01T10:45:34.04Z</time></trkpt><trkpt lat="42.0757469" lon="13.7193812"><ele>940.0</ele><time>2026-05-01T10:45:35.026Z</time></trkpt><trkpt lat="42.0756871" lon="13.7191932"><ele>941.0</ele><time>2026-05-01T10:45:36.033Z</time></trkpt><trkpt lat="42.0756287" lon="13.719033"><ele>942.0</ele><time>2026-05-01T10:45:37.036Z</time></trkpt><trkpt lat="42.0755523" lon="13.7189077"><ele>943.0</ele><time>2026-05-01T10:45:38.038Z</time></trkpt><trkpt lat="42.0754555" lon="13.7188207"><ele>944.0</ele><time>2026-05-01T10:45:39.038Z</time></trkpt><trkpt lat="42.0753325" lon="13.7187768"><ele>944.0</ele><time>2026-05-01T10:45:40.039Z</time></trkpt><trkpt lat="42.0751979" lon="13.7187792"><ele>944.0</ele><time>2026-05-01T10:45:41.039Z</time></trkpt><trkpt lat="42.07505" lon="13.7188053"><ele>944.0</ele><time>2026-05-01T10:45:42.028Z</time></trkpt><trkpt lat="42.0748948" lon="13.7188424"><ele>944.0</ele><time>2026-05-01T10:45:43.031Z</time></trkpt><trkpt lat="42.0747192" lon="13.7188458"><ele>947.0</ele><time>2026-05-01T10:45:44.044Z</time></trkpt><trkpt lat="42.0745309" lon="13.7188309"><ele>950.0</ele><time>2026-05-01T10:45:45.01Z</time></trkpt><trkpt lat="42.074355" lon="13.7188194"><ele>953.0</ele><time>2026-05-01T10:45:46.027Z</time></trkpt><trkpt lat="42.0741891" lon="13.718815"><ele>959.3333333333334</ele><time>2026-05-01T10:45:47.038Z</time></trkpt><trkpt lat="42.0740312" lon="13.7188103"><ele>965.6666666666667</ele><time>2026-05-01T10:45:48.028Z</time></trkpt><trkpt lat="42.0738822" lon="13.7187846"><ele>972.0</ele><time>2026-05-01T10:45:49.027Z</time></trkpt><trkpt lat="42.0737386" lon="13.7187297"><ele>972.0</ele><time>2026-05-01T10:45:50.032Z</time></trkpt><trkpt lat="42.0736047" lon="13.7186519"><ele>972.0</ele><time>2026-05-01T10:45:51.03Z</time></trkpt><trkpt lat="42.0734899" lon="13.7185313"><ele>972.0</ele><time>2026-05-01T10:45:52.046Z</time></trkpt><trkpt lat="42.0733925" lon="13.7183795"><ele>972.0</ele><time>2026-05-01T10:45:53.035Z</time></trkpt><trkpt lat="42.0732934" lon="13.718196"><ele>972.0</ele><time>2026-05-01T10:45:54.032Z</time></trkpt><trkpt lat="42.0731916" lon="13.7179827"><ele>972.0</ele><time>2026-05-01T10:45:55.042Z</time></trkpt><trkpt lat="42.0730923" lon="13.7177812"><ele>972.0</ele><time>2026-05-01T10:45:56.038Z</time></trkpt><trkpt lat="42.0729896" lon="13.7175793"><ele>972.0</ele><time>2026-05-01T10:45:57.048Z</time></trkpt><trkpt lat="42.0728854" lon="13.717374"><ele>972.0</ele><time>2026-05-01T10:45:58.032Z</time></trkpt><trkpt lat="42.0727841" lon="13.7171648"><ele>972.0</ele><time>2026-05-01T10:45:59.028Z</time></trkpt><trkpt lat="42.0726928" lon="13.7169531"><ele>971.6666666666667</ele><time>2026-05-01T10:46:00.033Z</time></trkpt><trkpt lat="42.0726146" lon="13.716739"><ele>971.3333333333334</ele><time>2026-05-01T10:46:01.044Z</time></trkpt><trkpt lat="42.0725536" lon="13.7165269"><ele>971.0</ele><time>2026-05-01T10:46:02.032Z</time></trkpt><trkpt lat="42.072495" lon="13.7163282"><ele>971.0</ele><time>2026-05-01T10:46:03.027Z</time></trkpt><trkpt lat="42.0724492" lon="13.7161399"><ele>971.0</ele><time>2026-05-01T10:46:04.059Z</time></trkpt><trkpt lat="42.0724366" lon="13.7159722"><ele>971.0</ele><time>2026-05-01T10:46:05.048Z</time></trkpt><trkpt lat="42.0724572" lon="13.7158291"><ele>971.0</ele><time>2026-05-01T10:46:06.037Z</time></trkpt><trkpt lat="42.0724837" lon="13.7157045"><ele>971.1666666666667</ele><time>2026-05-01T10:46:07.027Z</time></trkpt><trkpt lat="42.0724745" lon="13.715583"><ele>971.3333333333334</ele><time>2026-05-01T10:46:08.044Z</time></trkpt><trkpt lat="42.0724259" lon="13.7154851"><ele>971.5</ele><time>2026-05-01T10:46:09.029Z</time></trkpt><trkpt lat="42.0723528" lon="13.7154422"><ele>971.6666666666667</ele><time>2026-05-01T10:46:10.036Z</time></trkpt><trkpt lat="42.0722742" lon="13.7154312"><ele>971.8333333333334</ele><time>2026-05-01T10:46:11.064Z</time></trkpt><trkpt lat="42.0721824" lon="13.7154473"><ele>972.0</ele><time>2026-05-01T10:46:12.038Z</time></trkpt><trkpt lat="42.0720763" lon="13.7154834"><ele>972.5</ele><time>2026-05-01T10:46:13.028Z</time></trkpt><trkpt lat="42.0719599" lon="13.7155327"><ele>973.0</ele><time>2026-05-01T10:46:14.045Z</time></trkpt><trkpt lat="42.0718255" lon="13.7155783"><ele>973.5</ele><time>2026-05-01T10:46:15.04Z</time></trkpt><trkpt lat="42.0716756" lon="13.7156318"><ele>974.0</ele><time>2026-05-01T10:46:16.049Z</time></trkpt><trkpt lat="42.0715183" lon="13.7156884"><ele>971.3333333333334</ele><time>2026-05-01T10:46:17.032Z</time></trkpt><trkpt lat="42.0713482" lon="13.7157536"><ele>968.6666666666667</ele><time>2026-05-01T10:46:18.041Z</time></trkpt><trkpt lat="42.0711715" lon="13.7158251"><ele>966.0</ele><time>2026-05-01T10:46:19.037Z</time></trkpt><trkpt lat="42.0709975" lon="13.715902"><ele>966.0</ele><time>2026-05-01T10:46:20.03Z</time></trkpt><trkpt lat="42.070827" lon="13.7160018"><ele>966.0</ele><time>2026-05-01T10:46:21.046Z</time></trkpt><trkpt lat="42.0706639" lon="13.7161226"><ele>966.0</ele><time>2026-05-01T10:46:22.041Z</time></trkpt><trkpt lat="42.0705169" lon="13.7162614"><ele>968.0</ele><time>2026-05-01T10:46:23.039Z</time></trkpt><trkpt lat="42.0703873" lon="13.7163928"><ele>970.0</ele><time>2026-05-01T10:46:24.035Z</time></trkpt><trkpt lat="42.0702662" lon="13.7164818"><ele>972.0</ele><time>2026-05-01T10:46:25.047Z</time></trkpt><trkpt lat="42.0701371" lon="13.7165346"><ele>974.0</ele><time>2026-05-01T10:46:26.036Z</time></trkpt><trkpt lat="42.0700052" lon="13.7165545"><ele>976.5</ele><time>2026-05-01T10:46:27.039Z</time></trkpt><trkpt lat="42.0698817" lon="13.7165323"><ele>979.0</ele><time>2026-05-01T10:46:28.046Z</time></trkpt><trkpt lat="42.0697744" lon="13.7164694"><ele>981.5</ele><time>2026-05-01T10:46:29.038Z</time></trkpt><trkpt lat="42.0696817" lon="13.7163701"><ele>984.0</ele><time>2026-05-01T10:46:30.033Z</time></trkpt><trkpt lat="42.0696041" lon="13.7162489"><ele>984.0</ele><time>2026-05-01T10:46:31.035Z</time></trkpt><trkpt lat="42.0695409" lon="13.7160961"><ele>984.0</ele><time>2026-05-01T10:46:32.037Z</time></trkpt><trkpt lat="42.0694855" lon="13.7159334"><ele>984.0</ele><time>2026-05-01T10:46:33.047Z</time></trkpt><trkpt lat="42.069419" lon="13.7157696"><ele>984.0</ele><time>2026-05-01T10:46:34.036Z</time></trkpt><trkpt lat="42.0693259" lon="13.7156285"><ele>982.6666666666667</ele><time>2026-05-01T10:46:35.036Z</time></trkpt><trkpt lat="42.0691905" lon="13.7155184"><ele>981.3333333333334</ele><time>2026-05-01T10:46:36.03Z</time></trkpt><trkpt lat="42.0690319" lon="13.7154182"><ele>980.0</ele><time>2026-05-01T10:46:37.043Z</time></trkpt><trkpt lat="42.0688679" lon="13.7153429"><ele>981.75</ele><time>2026-05-01T10:46:38.035Z</time></trkpt><trkpt lat="42.0687209" lon="13.7152627"><ele>983.5</ele><time>2026-05-01T10:46:39.038Z</time></trkpt><trkpt lat="42.0685962" lon="13.7151713"><ele>985.25</ele><time>2026-05-01T10:46:40.051Z</time></trkpt><trkpt lat="42.0685032" lon="13.7150555"><ele>987.0</ele><time>2026-05-01T10:46:41.03Z</time></trkpt><trkpt lat="42.0684475" lon="13.7149189"><ele>987.0</ele><time>2026-05-01T10:46:42.029Z</time></trkpt><trkpt lat="42.0684162" lon="13.7147443"><ele>987.0</ele><time>2026-05-01T10:46:43.046Z</time></trkpt><trkpt lat="42.068396" lon="13.7145277"><ele>987.0</ele><time>2026-05-01T10:46:44.034Z</time></trkpt><trkpt lat="42.0683797" lon="13.7143005"><ele>987.3333333333333</ele><time>2026-05-01T10:46:45.043Z</time></trkpt><trkpt lat="42.0683722" lon="13.714068"><ele>987.6666666666666</ele><time>2026-05-01T10:46:46.036Z</time></trkpt><trkpt lat="42.0683796" lon="13.7138236"><ele>988.0</ele><time>2026-05-01T10:46:47.055Z</time></trkpt><trkpt lat="42.068403" lon="13.7135565"><ele>989.0</ele><time>2026-05-01T10:46:48.037Z</time></trkpt><trkpt lat="42.0684243" lon="13.7132588"><ele>990.0</ele><time>2026-05-01T10:46:49.042Z</time></trkpt><trkpt lat="42.068443" lon="13.7129466"><ele>994.0</ele><time>2026-05-01T10:46:50.026Z</time></trkpt><trkpt lat="42.0684589" lon="13.7126344"><ele>998.0</ele><time>2026-05-01T10:46:51.04Z</time></trkpt><trkpt lat="42.0684731" lon="13.712302"><ele>998.0</ele><time>2026-05-01T10:46:52.041Z</time></trkpt><trkpt lat="42.0684805" lon="13.711966"><ele>998.0</ele><time>2026-05-01T10:46:53.067Z</time></trkpt><trkpt lat="42.0684818" lon="13.711636"><ele>998.5</ele><time>2026-05-01T10:46:54.06Z</time></trkpt><trkpt lat="42.0684748" lon="13.7113035"><ele>999.0</ele><time>2026-05-01T10:46:55.042Z</time></trkpt><trkpt lat="42.0684571" lon="13.7109847"><ele>1001.3333333333333</ele><time>2026-05-01T10:46:56.036Z</time></trkpt><trkpt lat="42.0684408" lon="13.7106902"><ele>1003.6666666666666</ele><time>2026-05-01T10:46:57.023Z</time></trkpt><trkpt lat="42.0684253" lon="13.7104199"><ele>1006.0</ele><time>2026-05-01T10:46:58.035Z</time></trkpt><trkpt lat="42.0684039" lon="13.7101649"><ele>1006.6666666666666</ele><time>2026-05-01T10:46:59.044Z</time></trkpt><trkpt lat="42.0683839" lon="13.709936"><ele>1007.3333333333333</ele><time>2026-05-01T10:47:00.042Z</time></trkpt><trkpt lat="42.0683574" lon="13.7097222"><ele>1008.0</ele><time>2026-05-01T10:47:01.035Z</time></trkpt><trkpt lat="42.0683112" lon="13.709509"><ele>1015.0</ele><time>2026-05-01T10:47:02.046Z</time></trkpt><trkpt lat="42.068254" lon="13.709294"><ele>1022.0</ele><time>2026-05-01T10:47:03.036Z</time></trkpt><trkpt lat="42.0681988" lon="13.7090916"><ele>1029.0</ele><time>2026-05-01T10:47:04.045Z</time></trkpt><trkpt lat="42.0681539" lon="13.7089004"><ele>1029.0</ele><time>2026-05-01T10:47:05.028Z</time></trkpt><trkpt lat="42.0681173" lon="13.7087029"><ele>1029.0</ele><time>2026-05-01T10:47:06.031Z</time></trkpt><trkpt lat="42.0680979" lon="13.708516"><ele>1029.0</ele><time>2026-05-01T10:47:07.033Z</time></trkpt><trkpt lat="42.0681" lon="13.7083394"><ele>1029.0</ele><time>2026-05-01T10:47:08.025Z</time></trkpt><trkpt lat="42.0681265" lon="13.7081774"><ele>1029.25</ele><time>2026-05-01T10:47:09.029Z</time></trkpt><trkpt lat="42.0681786" lon="13.7080328"><ele>1029.5</ele><time>2026-05-01T10:47:10.033Z</time></trkpt><trkpt lat="42.068251" lon="13.7079103"><ele>1029.75</ele><time>2026-05-01T10:47:11.032Z</time></trkpt><trkpt lat="42.0683593" lon="13.7078112"><ele>1030.0</ele><time>2026-05-01T10:47:12.025Z</time></trkpt><trkpt lat="42.0684882" lon="13.7077152"><ele>1030.0</ele><time>2026-05-01T10:47:13.038Z</time></trkpt><trkpt lat="42.0686298" lon="13.7076176"><ele>1030.0</ele><time>2026-05-01T10:47:14.033Z</time></trkpt><trkpt lat="42.068773" lon="13.707494"><ele>1030.0</ele><time>2026-05-01T10:47:15.037Z</time></trkpt><trkpt lat="42.0689168" lon="13.7073454"><ele>1030.0</ele><time>2026-05-01T10:47:16.031Z</time></trkpt><trkpt lat="42.0690601" lon="13.7071874"><ele>1030.0</ele><time>2026-05-01T10:47:17.032Z</time></trkpt><trkpt lat="42.0691997" lon="13.7070016"><ele>1030.0</ele><time>2026-05-01T10:47:18.035Z</time></trkpt><trkpt lat="42.0693319" lon="13.7068059"><ele>1033.6666666666665</ele><time>2026-05-01T10:47:19.056Z</time></trkpt><trkpt lat="42.0694433" lon="13.7066326"><ele>1037.3333333333333</ele><time>2026-05-01T10:47:20.047Z</time></trkpt><trkpt lat="42.0695517" lon="13.7064876"><ele>1041.0</ele><time>2026-05-01T10:47:21.027Z</time></trkpt><trkpt lat="42.0696642" lon="13.7063657"><ele>1041.0</ele><time>2026-05-01T10:47:22.044Z</time></trkpt><trkpt lat="42.0697799" lon="13.7062775"><ele>1041.0</ele><time>2026-05-01T10:47:23.032Z</time></trkpt><trkpt lat="42.0698848" lon="13.7062204"><ele>1041.0</ele><time>2026-05-01T10:47:24.04Z</time></trkpt><trkpt lat="42.0699814" lon="13.7061803"><ele>1041.0</ele><time>2026-05-01T10:47:25.038Z</time></trkpt><trkpt lat="42.0700452" lon="13.7061505"><ele>1041.0</ele><time>2026-05-01T10:47:26.028Z</time></trkpt><trkpt lat="42.0701321" lon="13.7060603"><ele>1042.2</ele><time>2026-05-01T10:47:28.048Z</time></trkpt><trkpt lat="42.0701822" lon="13.7059877"><ele>1043.3999999999999</ele><time>2026-05-01T10:47:29.037Z</time></trkpt><trkpt lat="42.0702559" lon="13.7059245"><ele>1044.6</ele><time>2026-05-01T10:47:30.073Z</time></trkpt><trkpt lat="42.0703529" lon="13.7058861"><ele>1045.8</ele><time>2026-05-01T10:47:31.031Z</time></trkpt><trkpt lat="42.0704772" lon="13.7058892"><ele>1047.0</ele><time>2026-05-01T10:47:32.035Z</time></trkpt><trkpt lat="42.0706168" lon="13.705897"><ele>1047.0</ele><time>2026-05-01T10:47:33.032Z</time></trkpt><trkpt lat="42.0707511" lon="13.7058974"><ele>1047.0</ele><time>2026-05-01T10:47:34.04Z</time></trkpt><trkpt lat="42.0708803" lon="13.7058796"><ele>1047.0</ele><time>2026-05-01T10:47:35.033Z</time></trkpt><trkpt lat="42.0710141" lon="13.705826"><ele>1047.0</ele><time>2026-05-01T10:47:36.036Z</time></trkpt><trkpt lat="42.0711304" lon="13.7056998"><ele>1045.0</ele><time>2026-05-01T10:47:37.028Z</time></trkpt><trkpt lat="42.0712402" lon="13.7055261"><ele>1043.0</ele><time>2026-05-01T10:47:38.028Z</time></trkpt><trkpt lat="42.0713666" lon="13.7053295"><ele>1041.0</ele><time>2026-05-01T10:47:39.052Z</time></trkpt><trkpt lat="42.0715321" lon="13.7051419"><ele>1043.5</ele><time>2026-05-01T10:47:40.028Z</time></trkpt><trkpt lat="42.0717042" lon="13.7049466"><ele>1046.0</ele><time>2026-05-01T10:47:41.051Z</time></trkpt><trkpt lat="42.0719048" lon="13.7047748"><ele>1046.0</ele><time>2026-05-01T10:47:42.036Z</time></trkpt><trkpt lat="42.0720937" lon="13.704591"><ele>1046.0</ele><time>2026-05-01T10:47:43.038Z</time></trkpt><trkpt lat="42.0722574" lon="13.7044133"><ele>1046.0</ele><time>2026-05-01T10:47:44.037Z</time></trkpt><trkpt lat="42.0723933" lon="13.7042278"><ele>1048.0</ele><time>2026-05-01T10:47:45.035Z</time></trkpt><trkpt lat="42.0725035" lon="13.7040409"><ele>1050.0</ele><time>2026-05-01T10:47:46.027Z</time></trkpt><trkpt lat="42.0725939" lon="13.7038674"><ele>1052.0</ele><time>2026-05-01T10:47:47.037Z</time></trkpt><trkpt lat="42.0726654" lon="13.7037221"><ele>1052.0</ele><time>2026-05-01T10:47:48.034Z</time></trkpt><trkpt lat="42.0727113" lon="13.7035934"><ele>1052.0</ele><time>2026-05-01T10:47:49.033Z</time></trkpt><trkpt lat="42.0727038" lon="13.7034732"><ele>1052.0</ele><time>2026-05-01T10:47:50.027Z</time></trkpt><trkpt lat="42.0726613" lon="13.7033893"><ele>1052.0</ele><time>2026-05-01T10:47:51.035Z</time></trkpt><trkpt lat="42.0725892" lon="13.7033454"><ele>1052.0</ele><time>2026-05-01T10:47:52.025Z</time></trkpt><trkpt lat="42.0724943" lon="13.703366"><ele>1052.0</ele><time>2026-05-01T10:47:53.044Z</time></trkpt><trkpt lat="42.0724124" lon="13.7034505"><ele>1055.0</ele><time>2026-05-01T10:47:54.04Z</time></trkpt><trkpt lat="42.0723202" lon="13.7035823"><ele>1058.0</ele><time>2026-05-01T10:47:55.036Z</time></trkpt><trkpt lat="42.0722125" lon="13.7037237"><ele>1061.0</ele><time>2026-05-01T10:47:56.047Z</time></trkpt><trkpt lat="42.0721044" lon="13.7038633"><ele>1064.0</ele><time>2026-05-01T10:47:57.032Z</time></trkpt><trkpt lat="42.071993" lon="13.7040078"><ele>1064.0</ele><time>2026-05-01T10:47:58.046Z</time></trkpt><trkpt lat="42.0718705" lon="13.7041431"><ele>1064.0</ele><time>2026-05-01T10:47:59.041Z</time></trkpt><trkpt lat="42.0717437" lon="13.7042565"><ele>1064.0</ele><time>2026-05-01T10:48:00.039Z</time></trkpt><trkpt lat="42.0716087" lon="13.7043435"><ele>1066.5</ele><time>2026-05-01T10:48:01.058Z</time></trkpt><trkpt lat="42.0714735" lon="13.7043967"><ele>1069.0</ele><time>2026-05-01T10:48:02.039Z</time></trkpt><trkpt lat="42.0713347" lon="13.7044093"><ele>1071.5</ele><time>2026-05-01T10:48:03.031Z</time></trkpt><trkpt lat="42.0711918" lon="13.7043942"><ele>1074.0</ele><time>2026-05-01T10:48:04.042Z</time></trkpt><trkpt lat="42.071043" lon="13.7043685"><ele>1074.0</ele><time>2026-05-01T10:48:05.031Z</time></trkpt><trkpt lat="42.0708875" lon="13.7043548"><ele>1074.0</ele><time>2026-05-01T10:48:06.052Z</time></trkpt><trkpt lat="42.0707295" lon="13.7043394"><ele>1074.0</ele><time>2026-05-01T10:48:07.029Z</time></trkpt><trkpt lat="42.0705755" lon="13.7043341"><ele>1072.3333333333333</ele><time>2026-05-01T10:48:08.038Z</time></trkpt><trkpt lat="42.0704251" lon="13.704355"><ele>1070.6666666666665</ele><time>2026-05-01T10:48:09.036Z</time></trkpt><trkpt lat="42.0702808" lon="13.7044216"><ele>1069.0</ele><time>2026-05-01T10:48:10.028Z</time></trkpt><trkpt lat="42.0701408" lon="13.7045091"><ele>1069.0</ele><time>2026-05-01T10:48:11.033Z</time></trkpt><trkpt lat="42.0700142" lon="13.7046373"><ele>1069.0</ele><time>2026-05-01T10:48:12.025Z</time></trkpt><trkpt lat="42.069898" lon="13.7047824"><ele>1069.0</ele><time>2026-05-01T10:48:13.025Z</time></trkpt><trkpt lat="42.069775" lon="13.7049309"><ele>1069.6666666666665</ele><time>2026-05-01T10:48:14.038Z</time></trkpt><trkpt lat="42.0696494" lon="13.7050816"><ele>1070.3333333333333</ele><time>2026-05-01T10:48:15.027Z</time></trkpt><trkpt lat="42.0695043" lon="13.7052357"><ele>1071.0</ele><time>2026-05-01T10:48:16.025Z</time></trkpt><trkpt lat="42.0693518" lon="13.7053769"><ele>1071.0</ele><time>2026-05-01T10:48:17.026Z</time></trkpt><trkpt lat="42.0691877" lon="13.7055026"><ele>1071.0</ele><time>2026-05-01T10:48:18.038Z</time></trkpt><trkpt lat="42.0690099" lon="13.7056164"><ele>1071.0</ele><time>2026-05-01T10:48:19.029Z</time></trkpt><trkpt lat="42.0688184" lon="13.7057188"><ele>1077.0</ele><time>2026-05-01T10:48:20.034Z</time></trkpt><trkpt lat="42.0686193" lon="13.7058011"><ele>1083.0</ele><time>2026-05-01T10:48:21.025Z</time></trkpt><trkpt lat="42.0684033" lon="13.7058645"><ele>1089.0</ele><time>2026-05-01T10:48:22.023Z</time></trkpt><trkpt lat="42.0681822" lon="13.7059177"><ele>1093.6666666666667</ele><time>2026-05-01T10:48:23.033Z</time></trkpt><trkpt lat="42.0679617" lon="13.7059621"><ele>1098.3333333333335</ele><time>2026-05-01T10:48:24.022Z</time></trkpt><trkpt lat="42.0677377" lon="13.7060071"><ele>1103.0</ele><time>2026-05-01T10:48:25.029Z</time></trkpt><trkpt lat="42.0675118" lon="13.7060384"><ele>1106.0</ele><time>2026-05-01T10:48:26.018Z</time></trkpt><trkpt lat="42.0672794" lon="13.7060588"><ele>1109.0</ele><time>2026-05-01T10:48:27.039Z</time></trkpt><trkpt lat="42.0670526" lon="13.7060589"><ele>1109.0</ele><time>2026-05-01T10:48:28.032Z</time></trkpt><trkpt lat="42.0668298" lon="13.706059"><ele>1109.0</ele><time>2026-05-01T10:48:29.019Z</time></trkpt><trkpt lat="42.0666122" lon="13.7060663"><ele>1109.0</ele><time>2026-05-01T10:48:30.027Z</time></trkpt><trkpt lat="42.0663997" lon="13.7060943"><ele>1100.3333333333335</ele><time>2026-05-01T10:48:31.031Z</time></trkpt><trkpt lat="42.0661908" lon="13.7061337"><ele>1091.6666666666667</ele><time>2026-05-01T10:48:32.035Z</time></trkpt><trkpt lat="42.0659893" lon="13.7061959"><ele>1083.0</ele><time>2026-05-01T10:48:33.027Z</time></trkpt><trkpt lat="42.0657883" lon="13.706237"><ele>1086.6666666666667</ele><time>2026-05-01T10:48:34.033Z</time></trkpt><trkpt lat="42.0655853" lon="13.7062452"><ele>1090.3333333333335</ele><time>2026-05-01T10:48:35.035Z</time></trkpt><trkpt lat="42.0653794" lon="13.7062131"><ele>1094.0</ele><time>2026-05-01T10:48:36.035Z</time></trkpt><trkpt lat="42.0651785" lon="13.7061771"><ele>1094.0</ele><time>2026-05-01T10:48:37.033Z</time></trkpt><trkpt lat="42.0649785" lon="13.7061533"><ele>1094.0</ele><time>2026-05-01T10:48:38.033Z</time></trkpt><trkpt lat="42.0647871" lon="13.7061358"><ele>1094.0</ele><time>2026-05-01T10:48:39.035Z</time></trkpt><trkpt lat="42.0646067" lon="13.7061278"><ele>1098.5</ele><time>2026-05-01T10:48:40.023Z</time></trkpt><trkpt lat="42.0644442" lon="13.7061169"><ele>1103.0</ele><time>2026-05-01T10:48:41.024Z</time></trkpt><trkpt lat="42.064311" lon="13.7061122"><ele>1107.5</ele><time>2026-05-01T10:48:42.041Z</time></trkpt><trkpt lat="42.0641998" lon="13.706092"><ele>1112.0</ele><time>2026-05-01T10:48:43.023Z</time></trkpt><trkpt lat="42.0641042" lon="13.7060434"><ele>1112.0</ele><time>2026-05-01T10:48:44.025Z</time></trkpt><trkpt lat="42.0640179" lon="13.7059756"><ele>1112.0</ele><time>2026-05-01T10:48:45.047Z</time></trkpt><trkpt lat="42.0639424" lon="13.7058825"><ele>1112.0</ele><time>2026-05-01T10:48:46.023Z</time></trkpt><trkpt lat="42.0638751" lon="13.7057767"><ele>1112.0</ele><time>2026-05-01T10:48:47.038Z</time></trkpt><trkpt lat="42.0637919" lon="13.7056463"><ele>1112.0</ele><time>2026-05-01T10:48:48.033Z</time></trkpt><trkpt lat="42.0637057" lon="13.7055085"><ele>1112.0</ele><time>2026-05-01T10:48:49.047Z</time></trkpt><trkpt lat="42.0636119" lon="13.7053597"><ele>1112.0</ele><time>2026-05-01T10:48:50.041Z</time></trkpt><trkpt lat="42.063509" lon="13.7051943"><ele>1112.0</ele><time>2026-05-01T10:48:51.037Z</time></trkpt><trkpt lat="42.0634186" lon="13.7050284"><ele>1109.6666666666667</ele><time>2026-05-01T10:48:52.034Z</time></trkpt><trkpt lat="42.0633235" lon="13.7048624"><ele>1107.3333333333333</ele><time>2026-05-01T10:48:53.041Z</time></trkpt><trkpt lat="42.0632523" lon="13.7046734"><ele>1105.0</ele><time>2026-05-01T10:48:54.036Z</time></trkpt><trkpt lat="42.0631973" lon="13.7044642"><ele>1098.0</ele><time>2026-05-01T10:48:55.028Z</time></trkpt><trkpt lat="42.0631578" lon="13.7042297"><ele>1091.0</ele><time>2026-05-01T10:48:56.034Z</time></trkpt><trkpt lat="42.0631282" lon="13.703999"><ele>1084.0</ele><time>2026-05-01T10:48:57.03Z</time></trkpt><trkpt lat="42.0630858" lon="13.7037792"><ele>1087.0</ele><time>2026-05-01T10:48:58.028Z</time></trkpt><trkpt lat="42.0630289" lon="13.7035559"><ele>1090.0</ele><time>2026-05-01T10:48:59.034Z</time></trkpt><trkpt lat="42.0629535" lon="13.7033386"><ele>1093.0</ele><time>2026-05-01T10:49:00.032Z</time></trkpt><trkpt lat="42.0628562" lon="13.703129"><ele>1093.0</ele><time>2026-05-01T10:49:01.025Z</time></trkpt><trkpt lat="42.0627443" lon="13.7029355"><ele>1093.0</ele><time>2026-05-01T10:49:02.023Z</time></trkpt><trkpt lat="42.0626355" lon="13.7027423"><ele>1093.0</ele><time>2026-05-01T10:49:03.034Z</time></trkpt><trkpt lat="42.0625511" lon="13.7025269"><ele>1096.3333333333333</ele><time>2026-05-01T10:49:04.028Z</time></trkpt><trkpt lat="42.0624994" lon="13.7022863"><ele>1099.6666666666667</ele><time>2026-05-01T10:49:05.038Z</time></trkpt><trkpt lat="42.0624874" lon="13.7020227"><ele>1103.0</ele><time>2026-05-01T10:49:06.04Z</time></trkpt><trkpt lat="42.0624951" lon="13.7017522"><ele>1104.3333333333335</ele><time>2026-05-01T10:49:07.028Z</time></trkpt><trkpt lat="42.0625075" lon="13.7014686"><ele>1105.6666666666667</ele><time>2026-05-01T10:49:08.018Z</time></trkpt><trkpt lat="42.0625124" lon="13.7011756"><ele>1107.0</ele><time>2026-05-01T10:49:09.042Z</time></trkpt><trkpt lat="42.0625133" lon="13.7008843"><ele>1107.6666666666667</ele><time>2026-05-01T10:49:10.031Z</time></trkpt><trkpt lat="42.0625104" lon="13.7005941"><ele>1108.3333333333335</ele><time>2026-05-01T10:49:11.056Z</time></trkpt><trkpt lat="42.0625062" lon="13.7003043"><ele>1109.0</ele><time>2026-05-01T10:49:12.042Z</time></trkpt><trkpt lat="42.0625064" lon="13.7000136"><ele>1109.3333333333335</ele><time>2026-05-01T10:49:13.03Z</time></trkpt><trkpt lat="42.062503" lon="13.6997186"><ele>1109.6666666666667</ele><time>2026-05-01T10:49:14.05Z</time></trkpt><trkpt lat="42.0624911" lon="13.699426"><ele>1110.0</ele><time>2026-05-01T10:49:15.031Z</time></trkpt><trkpt lat="42.0624776" lon="13.6991376"><ele>1109.0</ele><time>2026-05-01T10:49:16.031Z</time></trkpt><trkpt lat="42.0624735" lon="13.6988468"><ele>1108.0</ele><time>2026-05-01T10:49:17.042Z</time></trkpt><trkpt lat="42.0624886" lon="13.6985592"><ele>1107.0</ele><time>2026-05-01T10:49:18.034Z</time></trkpt><trkpt lat="42.0625092" lon="13.6982713"><ele>1106.0</ele><time>2026-05-01T10:49:19.062Z</time></trkpt><trkpt lat="42.0625205" lon="13.697982"><ele>1105.0</ele><time>2026-05-01T10:49:20.028Z</time></trkpt><trkpt lat="42.062512" lon="13.6976915"><ele>1104.0</ele><time>2026-05-01T10:49:21.035Z</time></trkpt><trkpt lat="42.0624911" lon="13.6973853"><ele>1103.3333333333333</ele><time>2026-05-01T10:49:22.048Z</time></trkpt><trkpt lat="42.0624679" lon="13.6970863"><ele>1102.6666666666665</ele><time>2026-05-01T10:49:23.048Z</time></trkpt><trkpt lat="42.0624452" lon="13.6967867"><ele>1102.0</ele><time>2026-05-01T10:49:24.027Z</time></trkpt><trkpt lat="42.062428" lon="13.6964879"><ele>1094.0</ele><time>2026-05-01T10:49:25.045Z</time></trkpt><trkpt lat="42.0624099" lon="13.6961876"><ele>1086.0</ele><time>2026-05-01T10:49:26.027Z</time></trkpt><trkpt lat="42.0623949" lon="13.6958849"><ele>1078.0</ele><time>2026-05-01T10:49:27.031Z</time></trkpt><trkpt lat="42.0623775" lon="13.6955849"><ele>1077.6666666666665</ele><time>2026-05-01T10:49:28.039Z</time></trkpt><trkpt lat="42.0623602" lon="13.6952922"><ele>1077.3333333333333</ele><time>2026-05-01T10:49:29.038Z</time></trkpt><trkpt lat="42.0623421" lon="13.6950113"><ele>1077.0</ele><time>2026-05-01T10:49:30.054Z</time></trkpt><trkpt lat="42.0623248" lon="13.6947374"><ele>1077.0</ele><time>2026-05-01T10:49:31.04Z</time></trkpt><trkpt lat="42.0623051" lon="13.6944781"><ele>1077.0</ele><time>2026-05-01T10:49:32.032Z</time></trkpt><trkpt lat="42.0622796" lon="13.6942368"><ele>1077.0</ele><time>2026-05-01T10:49:33.043Z</time></trkpt><trkpt lat="42.0622453" lon="13.6940188"><ele>1079.3333333333333</ele><time>2026-05-01T10:49:34.041Z</time></trkpt><trkpt lat="42.0621882" lon="13.6938156"><ele>1081.6666666666665</ele><time>2026-05-01T10:49:35.061Z</time></trkpt><trkpt lat="42.0621152" lon="13.6936295"><ele>1084.0</ele><time>2026-05-01T10:49:36.041Z</time></trkpt><trkpt lat="42.0620366" lon="13.6934534"><ele>1086.75</ele><time>2026-05-01T10:49:37.034Z</time></trkpt><trkpt lat="42.0619683" lon="13.6933011"><ele>1089.5</ele><time>2026-05-01T10:49:38.027Z</time></trkpt><trkpt lat="42.0619239" lon="13.6931574"><ele>1092.25</ele><time>2026-05-01T10:49:39.022Z</time></trkpt><trkpt lat="42.0619219" lon="13.6930112"><ele>1095.0</ele><time>2026-05-01T10:49:40.029Z</time></trkpt><trkpt lat="42.0619542" lon="13.6928674"><ele>1095.0</ele><time>2026-05-01T10:49:41.03Z</time></trkpt><trkpt lat="42.0620287" lon="13.6927356"><ele>1095.0</ele><time>2026-05-01T10:49:42.039Z</time></trkpt><trkpt lat="42.0621281" lon="13.6925806"><ele>1095.0</ele><time>2026-05-01T10:49:43.025Z</time></trkpt><trkpt lat="42.0622324" lon="13.6924197"><ele>1095.0</ele><time>2026-05-01T10:49:44.035Z</time></trkpt><trkpt lat="42.0623397" lon="13.6922481"><ele>1096.3333333333333</ele><time>2026-05-01T10:49:45.036Z</time></trkpt><trkpt lat="42.06245" lon="13.6920607"><ele>1097.6666666666665</ele><time>2026-05-01T10:49:46.056Z</time></trkpt><trkpt lat="42.0625607" lon="13.6918769"><ele>1099.0</ele><time>2026-05-01T10:49:47.033Z</time></trkpt><trkpt lat="42.0626694" lon="13.6916906"><ele>1095.3333333333333</ele><time>2026-05-01T10:49:48.031Z</time></trkpt><trkpt lat="42.0627772" lon="13.6914977"><ele>1091.6666666666667</ele><time>2026-05-01T10:49:49.036Z</time></trkpt><trkpt lat="42.0628867" lon="13.6912956"><ele>1088.0</ele><time>2026-05-01T10:49:50.034Z</time></trkpt><trkpt lat="42.0629896" lon="13.6910798"><ele>1090.0</ele><time>2026-05-01T10:49:51.035Z</time></trkpt><trkpt lat="42.0630996" lon="13.6908473"><ele>1092.0</ele><time>2026-05-01T10:49:52.032Z</time></trkpt><trkpt lat="42.0632027" lon="13.6905963"><ele>1094.0</ele><time>2026-05-01T10:49:53.045Z</time></trkpt><trkpt lat="42.0633125" lon="13.6903361"><ele>1091.0</ele><time>2026-05-01T10:49:54.034Z</time></trkpt><trkpt lat="42.0634224" lon="13.690075"><ele>1088.0</ele><time>2026-05-01T10:49:55.032Z</time></trkpt><trkpt lat="42.0635291" lon="13.689824"><ele>1085.0</ele><time>2026-05-01T10:49:56.032Z</time></trkpt><trkpt lat="42.0636355" lon="13.6895844"><ele>1081.6666666666667</ele><time>2026-05-01T10:49:57.032Z</time></trkpt><trkpt lat="42.0637377" lon="13.6893485"><ele>1078.3333333333333</ele><time>2026-05-01T10:49:58.03Z</time></trkpt><trkpt lat="42.0638365" lon="13.6891196"><ele>1075.0</ele><time>2026-05-01T10:49:59.021Z</time></trkpt><trkpt lat="42.0639162" lon="13.6888825"><ele>1075.0</ele><time>2026-05-01T10:50:00.028Z</time></trkpt><trkpt lat="42.0639753" lon="13.6886432"><ele>1075.0</ele><time>2026-05-01T10:50:01.029Z</time></trkpt><trkpt lat="42.0639882" lon="13.6884018"><ele>1075.0</ele><time>2026-05-01T10:50:02.049Z</time></trkpt><trkpt lat="42.0639605" lon="13.6881663"><ele>1073.0</ele><time>2026-05-01T10:50:03.03Z</time></trkpt><trkpt lat="42.0639222" lon="13.6879248"><ele>1071.0</ele><time>2026-05-01T10:50:04.025Z</time></trkpt><trkpt lat="42.063897" lon="13.6876827"><ele>1069.0</ele><time>2026-05-01T10:50:05.023Z</time></trkpt><trkpt lat="42.0638951" lon="13.6874252"><ele>1068.3333333333333</ele><time>2026-05-01T10:50:06.032Z</time></trkpt><trkpt lat="42.0639294" lon="13.6871601"><ele>1067.6666666666667</ele><time>2026-05-01T10:50:07.035Z</time></trkpt><trkpt lat="42.0639836" lon="13.6868943"><ele>1067.0</ele><time>2026-05-01T10:50:08.036Z</time></trkpt><trkpt lat="42.0640519" lon="13.6866294"><ele>1068.0</ele><time>2026-05-01T10:50:09.038Z</time></trkpt><trkpt lat="42.0641204" lon="13.6863744"><ele>1069.0</ele><time>2026-05-01T10:50:10.037Z</time></trkpt><trkpt lat="42.0641795" lon="13.6861324"><ele>1070.0</ele><time>2026-05-01T10:50:11.024Z</time></trkpt><trkpt lat="42.06422" lon="13.6858965"><ele>1070.0</ele><time>2026-05-01T10:50:12.028Z</time></trkpt><trkpt lat="42.0642256" lon="13.6856724"><ele>1070.0</ele><time>2026-05-01T10:50:13.045Z</time></trkpt><trkpt lat="42.0641882" lon="13.6854588"><ele>1070.0</ele><time>2026-05-01T10:50:14.027Z</time></trkpt><trkpt lat="42.0641268" lon="13.6852343"><ele>1066.6666666666667</ele><time>2026-05-01T10:50:15.026Z</time></trkpt><trkpt lat="42.0640439" lon="13.6850031"><ele>1063.3333333333333</ele><time>2026-05-01T10:50:16.029Z</time></trkpt><trkpt lat="42.0639497" lon="13.6847573"><ele>1060.0</ele><time>2026-05-01T10:50:17.036Z</time></trkpt><trkpt lat="42.0638503" lon="13.6845045"><ele>1060.0</ele><time>2026-05-01T10:50:18.027Z</time></trkpt><trkpt lat="42.0637435" lon="13.6842595"><ele>1060.0</ele><time>2026-05-01T10:50:19.04Z</time></trkpt><trkpt lat="42.0636141" lon="13.6840354"><ele>1060.0</ele><time>2026-05-01T10:50:20.036Z</time></trkpt><trkpt lat="42.0634506" lon="13.6838165"><ele>1059.5</ele><time>2026-05-01T10:50:21.041Z</time></trkpt><trkpt lat="42.0632512" lon="13.6836167"><ele>1059.0</ele><time>2026-05-01T10:50:22.038Z</time></trkpt><trkpt lat="42.0630262" lon="13.6833995"><ele>1059.0</ele><time>2026-05-01T10:50:23.033Z</time></trkpt><trkpt lat="42.062782" lon="13.6831673"><ele>1059.0</ele><time>2026-05-01T10:50:24.036Z</time></trkpt><trkpt lat="42.062528" lon="13.6829196"><ele>1059.0</ele><time>2026-05-01T10:50:25.031Z</time></trkpt><trkpt lat="42.0622581" lon="13.6826603"><ele>1059.0</ele><time>2026-05-01T10:50:26.042Z</time></trkpt><trkpt lat="42.0619737" lon="13.6823885"><ele>1059.0</ele><time>2026-05-01T10:50:27.034Z</time></trkpt><trkpt lat="42.0616774" lon="13.6821067"><ele>1059.0</ele><time>2026-05-01T10:50:28.029Z</time></trkpt><trkpt lat="42.0613754" lon="13.6818204"><ele>1060.0</ele><time>2026-05-01T10:50:29.029Z</time></trkpt><trkpt lat="42.0610789" lon="13.6815356"><ele>1061.0</ele><time>2026-05-01T10:50:30.038Z</time></trkpt><trkpt lat="42.0607998" lon="13.6812621"><ele>1063.0</ele><time>2026-05-01T10:50:31.034Z</time></trkpt><trkpt lat="42.0605359" lon="13.6810078"><ele>1065.0</ele><time>2026-05-01T10:50:32.035Z</time></trkpt><trkpt lat="42.060283" lon="13.6807539"><ele>1065.0</ele><time>2026-05-01T10:50:33.035Z</time></trkpt><trkpt lat="42.0600416" lon="13.6805046"><ele>1065.0</ele><time>2026-05-01T10:50:34.03Z</time></trkpt><trkpt lat="42.0598162" lon="13.6802611"><ele>1066.0</ele><time>2026-05-01T10:50:35.036Z</time></trkpt><trkpt lat="42.059603" lon="13.6800223"><ele>1067.0</ele><time>2026-05-01T10:50:36.037Z</time></trkpt><trkpt lat="42.059398" lon="13.6798013"><ele>1067.0</ele><time>2026-05-01T10:50:37.033Z</time></trkpt><trkpt lat="42.0592029" lon="13.6795959"><ele>1067.0</ele><time>2026-05-01T10:50:38.041Z</time></trkpt><trkpt lat="42.0590162" lon="13.6794139"><ele>1068.3333333333335</ele><time>2026-05-01T10:50:39.027Z</time></trkpt><trkpt lat="42.0588405" lon="13.6792734"><ele>1069.6666666666667</ele><time>2026-05-01T10:50:40.046Z</time></trkpt><trkpt lat="42.0586819" lon="13.6791468"><ele>1071.0</ele><time>2026-05-01T10:50:41.052Z</time></trkpt><trkpt lat="42.0585499" lon="13.6790047"><ele>1071.0</ele><time>2026-05-01T10:50:42.027Z</time></trkpt><trkpt lat="42.0584482" lon="13.6788319"><ele>1071.0</ele><time>2026-05-01T10:50:43.039Z</time></trkpt><trkpt lat="42.058372" lon="13.678644"><ele>1071.0</ele><time>2026-05-01T10:50:44.032Z</time></trkpt><trkpt lat="42.0583207" lon="13.6784374"><ele>1071.6666666666667</ele><time>2026-05-01T10:50:45.032Z</time></trkpt><trkpt lat="42.0582838" lon="13.6782232"><ele>1072.3333333333335</ele><time>2026-05-01T10:50:46.027Z</time></trkpt><trkpt lat="42.0582603" lon="13.6780234"><ele>1073.0</ele><time>2026-05-01T10:50:47.035Z</time></trkpt><trkpt lat="42.0582718" lon="13.6778337"><ele>1074.3333333333335</ele><time>2026-05-01T10:50:48.034Z</time></trkpt><trkpt lat="42.0583207" lon="13.67765"><ele>1075.6666666666667</ele><time>2026-05-01T10:50:49.027Z</time></trkpt><trkpt lat="42.0584171" lon="13.6774816"><ele>1077.0</ele><time>2026-05-01T10:50:50.027Z</time></trkpt><trkpt lat="42.0585402" lon="13.677307"><ele>1077.0</ele><time>2026-05-01T10:50:51.03Z</time></trkpt><trkpt lat="42.0586688" lon="13.6771459"><ele>1077.0</ele><time>2026-05-01T10:50:52.033Z</time></trkpt><trkpt lat="42.0587755" lon="13.6769684"><ele>1077.0</ele><time>2026-05-01T10:50:53.029Z</time></trkpt><trkpt lat="42.0588616" lon="13.6767621"><ele>1076.3333333333333</ele><time>2026-05-01T10:50:54.023Z</time></trkpt><trkpt lat="42.0589431" lon="13.6765287"><ele>1075.6666666666665</ele><time>2026-05-01T10:50:55.039Z</time></trkpt><trkpt lat="42.0590356" lon="13.6762763"><ele>1075.0</ele><time>2026-05-01T10:50:56.037Z</time></trkpt><trkpt lat="42.0591292" lon="13.6760102"><ele>1075.0</ele><time>2026-05-01T10:50:57.036Z</time></trkpt><trkpt lat="42.0592313" lon="13.6757346"><ele>1075.0</ele><time>2026-05-01T10:50:58.029Z</time></trkpt><trkpt lat="42.059337" lon="13.6754535"><ele>1072.5</ele><time>2026-05-01T10:50:59.046Z</time></trkpt><trkpt lat="42.0594433" lon="13.67517"><ele>1070.0</ele><time>2026-05-01T10:51:00.033Z</time></trkpt><trkpt lat="42.0595535" lon="13.6749018"><ele>1070.0</ele><time>2026-05-01T10:51:01.029Z</time></trkpt><trkpt lat="42.0596683" lon="13.674646"><ele>1070.0</ele><time>2026-05-01T10:51:02.035Z</time></trkpt><trkpt lat="42.0597967" lon="13.6743856"><ele>1071.0</ele><time>2026-05-01T10:51:03.044Z</time></trkpt><trkpt lat="42.0599384" lon="13.6741205"><ele>1072.0</ele><time>2026-05-01T10:51:04.045Z</time></trkpt><trkpt lat="42.0600814" lon="13.6738594"><ele>1072.0</ele><time>2026-05-01T10:51:05.03Z</time></trkpt><trkpt lat="42.0602162" lon="13.6736079"><ele>1072.0</ele><time>2026-05-01T10:51:06.04Z</time></trkpt><trkpt lat="42.0603458" lon="13.6733579"><ele>1069.0</ele><time>2026-05-01T10:51:07.032Z</time></trkpt><trkpt lat="42.0604742" lon="13.6731168"><ele>1066.0</ele><time>2026-05-01T10:51:08.03Z</time></trkpt><trkpt lat="42.0606042" lon="13.6728751"><ele>1063.0</ele><time>2026-05-01T10:51:09.037Z</time></trkpt><trkpt lat="42.0607349" lon="13.6726201"><ele>1063.5</ele><time>2026-05-01T10:51:10.031Z</time></trkpt><trkpt lat="42.0608629" lon="13.6723381"><ele>1064.0</ele><time>2026-05-01T10:51:11.043Z</time></trkpt><trkpt lat="42.0609858" lon="13.67203"><ele>1059.0</ele><time>2026-05-01T10:51:12.029Z</time></trkpt><trkpt lat="42.0610942" lon="13.6717244"><ele>1054.0</ele><time>2026-05-01T10:51:13.034Z</time></trkpt><trkpt lat="42.0611837" lon="13.6714343"><ele>1054.0</ele><time>2026-05-01T10:51:14.042Z</time></trkpt><trkpt lat="42.0612567" lon="13.671146"><ele>1054.0</ele><time>2026-05-01T10:51:15.037Z</time></trkpt><trkpt lat="42.0613212" lon="13.6708811"><ele>1054.0</ele><time>2026-05-01T10:51:16.043Z</time></trkpt><trkpt lat="42.0614104" lon="13.6706445"><ele>1053.3333333333333</ele><time>2026-05-01T10:51:17.045Z</time></trkpt><trkpt lat="42.0615344" lon="13.6704386"><ele>1052.6666666666667</ele><time>2026-05-01T10:51:18.038Z</time></trkpt><trkpt lat="42.0616816" lon="13.6702237"><ele>1052.0</ele><time>2026-05-01T10:51:19.043Z</time></trkpt><trkpt lat="42.0618224" lon="13.6699815"><ele>1052.0</ele><time>2026-05-01T10:51:20.034Z</time></trkpt><trkpt lat="42.061967" lon="13.6697285"><ele>1052.0</ele><time>2026-05-01T10:51:21.037Z</time></trkpt><trkpt lat="42.0620967" lon="13.6694514"><ele>1045.5</ele><time>2026-05-01T10:51:22.042Z</time></trkpt><trkpt lat="42.0622292" lon="13.669197"><ele>1039.0</ele><time>2026-05-01T10:51:23.039Z</time></trkpt><trkpt lat="42.0623733" lon="13.6689668"><ele>1039.6666666666665</ele><time>2026-05-01T10:51:24.037Z</time></trkpt><trkpt lat="42.0625255" lon="13.6687745"><ele>1040.3333333333333</ele><time>2026-05-01T10:51:25.035Z</time></trkpt><trkpt lat="42.0626697" lon="13.6685822"><ele>1041.0</ele><time>2026-05-01T10:51:26.035Z</time></trkpt><trkpt lat="42.062794" lon="13.6683707"><ele>1041.0</ele><time>2026-05-01T10:51:27.042Z</time></trkpt><trkpt lat="42.0628997" lon="13.6681564"><ele>1041.0</ele><time>2026-05-01T10:51:28.02Z</time></trkpt><trkpt lat="42.0630001" lon="13.667956"><ele>1041.0</ele><time>2026-05-01T10:51:29.044Z</time></trkpt><trkpt lat="42.0630854" lon="13.6677527"><ele>1038.0</ele><time>2026-05-01T10:51:30.032Z</time></trkpt><trkpt lat="42.0631364" lon="13.6675422"><ele>1035.0</ele><time>2026-05-01T10:51:31.037Z</time></trkpt><trkpt lat="42.0631325" lon="13.6673098"><ele>1032.0</ele><time>2026-05-01T10:51:32.073Z</time></trkpt><trkpt lat="42.063102" lon="13.6670716"><ele>1030.6666666666667</ele><time>2026-05-01T10:51:33.047Z</time></trkpt><trkpt lat="42.0630657" lon="13.6668133"><ele>1029.3333333333335</ele><time>2026-05-01T10:51:34.043Z</time></trkpt><trkpt lat="42.0630248" lon="13.6665459"><ele>1028.0</ele><time>2026-05-01T10:51:35.044Z</time></trkpt><trkpt lat="42.0629712" lon="13.6662908"><ele>1028.6666666666667</ele><time>2026-05-01T10:51:36.042Z</time></trkpt><trkpt lat="42.062885" lon="13.6660649"><ele>1029.3333333333333</ele><time>2026-05-01T10:51:37.045Z</time></trkpt><trkpt lat="42.0627729" lon="13.665849"><ele>1030.0</ele><time>2026-05-01T10:51:38.036Z</time></trkpt><trkpt lat="42.0626488" lon="13.6656397"><ele>1030.0</ele><time>2026-05-01T10:51:39.05Z</time></trkpt><trkpt lat="42.0625304" lon="13.6654558"><ele>1030.0</ele><time>2026-05-01T10:51:40.031Z</time></trkpt><trkpt lat="42.0624239" lon="13.6652722"><ele>1030.0</ele><time>2026-05-01T10:51:41.033Z</time></trkpt><trkpt lat="42.062355" lon="13.6650981"><ele>1029.0</ele><time>2026-05-01T10:51:42.034Z</time></trkpt><trkpt lat="42.0623347" lon="13.6649205"><ele>1028.0</ele><time>2026-05-01T10:51:43.033Z</time></trkpt><trkpt lat="42.0623673" lon="13.6647461"><ele>1027.0</ele><time>2026-05-01T10:51:44.026Z</time></trkpt><trkpt lat="42.0624337" lon="13.6645643"><ele>1026.0</ele><time>2026-05-01T10:51:45.054Z</time></trkpt><trkpt lat="42.0625332" lon="13.6643588"><ele>1026.0</ele><time>2026-05-01T10:51:46.028Z</time></trkpt><trkpt lat="42.0626487" lon="13.6641323"><ele>1026.0</ele><time>2026-05-01T10:51:47.037Z</time></trkpt><trkpt lat="42.062771" lon="13.6638819"><ele>1026.0</ele><time>2026-05-01T10:51:48.028Z</time></trkpt><trkpt lat="42.0628914" lon="13.6636237"><ele>1022.5</ele><time>2026-05-01T10:51:49.035Z</time></trkpt><trkpt lat="42.0630321" lon="13.6633611"><ele>1019.0</ele><time>2026-05-01T10:51:50.037Z</time></trkpt><trkpt lat="42.0632028" lon="13.6631358"><ele>1019.0</ele><time>2026-05-01T10:51:51.042Z</time></trkpt><trkpt lat="42.0633847" lon="13.6629538"><ele>1019.0</ele><time>2026-05-01T10:51:52.034Z</time></trkpt><trkpt lat="42.063573" lon="13.6627805"><ele>1019.0</ele><time>2026-05-01T10:51:53.053Z</time></trkpt><trkpt lat="42.0637533" lon="13.6626311"><ele>1019.0</ele><time>2026-05-01T10:51:54.034Z</time></trkpt><trkpt lat="42.063914" lon="13.6624837"><ele>1019.0</ele><time>2026-05-01T10:51:55.027Z</time></trkpt><trkpt lat="42.0640505" lon="13.662322"><ele>1018.6666666666667</ele><time>2026-05-01T10:51:56.029Z</time></trkpt><trkpt lat="42.0641557" lon="13.6621295"><ele>1018.3333333333333</ele><time>2026-05-01T10:51:57.036Z</time></trkpt><trkpt lat="42.0642346" lon="13.6619136"><ele>1018.0</ele><time>2026-05-01T10:51:58.03Z</time></trkpt><trkpt lat="42.0642656" lon="13.6616743"><ele>1018.0</ele><time>2026-05-01T10:51:59.036Z</time></trkpt><trkpt lat="42.0642363" lon="13.661415"><ele>1018.0</ele><time>2026-05-01T10:52:00.033Z</time></trkpt><trkpt lat="42.0641693" lon="13.6611485"><ele>1018.0</ele><time>2026-05-01T10:52:01.044Z</time></trkpt><trkpt lat="42.0640675" lon="13.6608679"><ele>1013.5</ele><time>2026-05-01T10:52:02.039Z</time></trkpt><trkpt lat="42.0639495" lon="13.6605665"><ele>1009.0</ele><time>2026-05-01T10:52:03.049Z</time></trkpt><trkpt lat="42.0638475" lon="13.6602508"><ele>1008.0</ele><time>2026-05-01T10:52:04.033Z</time></trkpt><trkpt lat="42.0637661" lon="13.6598953"><ele>1007.0</ele><time>2026-05-01T10:52:05.037Z</time></trkpt><trkpt lat="42.0637086" lon="13.6595175"><ele>1006.0</ele><time>2026-05-01T10:52:06.031Z</time></trkpt><trkpt lat="42.0636588" lon="13.6591277"><ele>1005.0</ele><time>2026-05-01T10:52:07.042Z</time></trkpt><trkpt lat="42.0635953" lon="13.6587418"><ele>1005.0</ele><time>2026-05-01T10:52:08.036Z</time></trkpt><trkpt lat="42.0635299" lon="13.6583769"><ele>1005.0</ele><time>2026-05-01T10:52:09.038Z</time></trkpt><trkpt lat="42.0634683" lon="13.6580356"><ele>1003.5</ele><time>2026-05-01T10:52:10.058Z</time></trkpt><trkpt lat="42.0634068" lon="13.6577158"><ele>1002.0</ele><time>2026-05-01T10:52:11.034Z</time></trkpt><trkpt lat="42.0633491" lon="13.6574169"><ele>1002.0</ele><time>2026-05-01T10:52:12.037Z</time></trkpt><trkpt lat="42.0632966" lon="13.6571401"><ele>1002.0</ele><time>2026-05-01T10:52:13.039Z</time></trkpt><trkpt lat="42.063248" lon="13.6568876"><ele>1002.0</ele><time>2026-05-01T10:52:14.035Z</time></trkpt><trkpt lat="42.0632028" lon="13.656652"><ele>1000.3333333333333</ele><time>2026-05-01T10:52:15.036Z</time></trkpt><trkpt lat="42.0631724" lon="13.6564361"><ele>998.6666666666666</ele><time>2026-05-01T10:52:16.04Z</time></trkpt><trkpt lat="42.0631486" lon="13.6562327"><ele>997.0</ele><time>2026-05-01T10:52:17.048Z</time></trkpt><trkpt lat="42.063138" lon="13.6560342"><ele>995.75</ele><time>2026-05-01T10:52:18.035Z</time></trkpt><trkpt lat="42.0631313" lon="13.6558397"><ele>994.5</ele><time>2026-05-01T10:52:19.033Z</time></trkpt><trkpt lat="42.0631169" lon="13.6556396"><ele>993.25</ele><time>2026-05-01T10:52:20.03Z</time></trkpt><trkpt lat="42.0630871" lon="13.6554356"><ele>992.0</ele><time>2026-05-01T10:52:21.036Z</time></trkpt><trkpt lat="42.0630459" lon="13.6552279"><ele>991.3333333333334</ele><time>2026-05-01T10:52:22.034Z</time></trkpt><trkpt lat="42.0630004" lon="13.6550166"><ele>990.6666666666667</ele><time>2026-05-01T10:52:23.038Z</time></trkpt><trkpt lat="42.0629571" lon="13.6548014"><ele>990.0</ele><time>2026-05-01T10:52:24.048Z</time></trkpt><trkpt lat="42.0629147" lon="13.6545829"><ele>989.0</ele><time>2026-05-01T10:52:25.035Z</time></trkpt><trkpt lat="42.0628718" lon="13.6543544"><ele>988.0</ele><time>2026-05-01T10:52:26.037Z</time></trkpt><trkpt lat="42.0628299" lon="13.6541283"><ele>987.0</ele><time>2026-05-01T10:52:27.034Z</time></trkpt><trkpt lat="42.0627867" lon="13.6538977"><ele>987.0</ele><time>2026-05-01T10:52:28.03Z</time></trkpt><trkpt lat="42.0627398" lon="13.6536554"><ele>987.0</ele><time>2026-05-01T10:52:29.037Z</time></trkpt><trkpt lat="42.0626936" lon="13.6534164"><ele>987.0</ele><time>2026-05-01T10:52:30.038Z</time></trkpt><trkpt lat="42.0626466" lon="13.6531759"><ele>985.0</ele><time>2026-05-01T10:52:31.047Z</time></trkpt><trkpt lat="42.0625976" lon="13.6529367"><ele>983.0</ele><time>2026-05-01T10:52:32.039Z</time></trkpt><trkpt lat="42.0625452" lon="13.6526996"><ele>981.0</ele><time>2026-05-01T10:52:33.012Z</time></trkpt><trkpt lat="42.0624808" lon="13.6524668"><ele>980.0</ele><time>2026-05-01T10:52:34.033Z</time></trkpt><trkpt lat="42.0623997" lon="13.6522415"><ele>979.0</ele><time>2026-05-01T10:52:35.032Z</time></trkpt><trkpt lat="42.0623117" lon="13.6520268"><ele>978.0</ele><time>2026-05-01T10:52:36.044Z</time></trkpt><trkpt lat="42.0622163" lon="13.6518155"><ele>975.3333333333333</ele><time>2026-05-01T10:52:37.035Z</time></trkpt><trkpt lat="42.062124" lon="13.6516107"><ele>972.6666666666666</ele><time>2026-05-01T10:52:38.034Z</time></trkpt><trkpt lat="42.0620431" lon="13.6514143"><ele>970.0</ele><time>2026-05-01T10:52:39.03Z</time></trkpt><trkpt lat="42.0619688" lon="13.6512247"><ele>968.75</ele><time>2026-05-01T10:52:40.022Z</time></trkpt><trkpt lat="42.0619243" lon="13.6510476"><ele>967.5</ele><time>2026-05-01T10:52:41.026Z</time></trkpt><trkpt lat="42.0619184" lon="13.6508742"><ele>966.25</ele><time>2026-05-01T10:52:42.027Z</time></trkpt><trkpt lat="42.0619701" lon="13.6507223"><ele>965.0</ele><time>2026-05-01T10:52:43.044Z</time></trkpt><trkpt lat="42.0620505" lon="13.650588"><ele>965.0</ele><time>2026-05-01T10:52:44.028Z</time></trkpt><trkpt lat="42.0621667" lon="13.6504663"><ele>965.0</ele><time>2026-05-01T10:52:45.029Z</time></trkpt><trkpt lat="42.0622865" lon="13.6503345"><ele>965.0</ele><time>2026-05-01T10:52:46.04Z</time></trkpt><trkpt lat="42.0623979" lon="13.6501866"><ele>966.0</ele><time>2026-05-01T10:52:47.036Z</time></trkpt><trkpt lat="42.0624899" lon="13.6500153"><ele>967.0</ele><time>2026-05-01T10:52:48.03Z</time></trkpt><trkpt lat="42.0625468" lon="13.64982"><ele>968.0</ele><time>2026-05-01T10:52:49.031Z</time></trkpt><trkpt lat="42.0625531" lon="13.6496152"><ele>966.0</ele><time>2026-05-01T10:52:50.042Z</time></trkpt><trkpt lat="42.0625658" lon="13.6494068"><ele>964.0</ele><time>2026-05-01T10:52:51.042Z</time></trkpt><trkpt lat="42.0625904" lon="13.6492066"><ele>962.0</ele><time>2026-05-01T10:52:52.035Z</time></trkpt><trkpt lat="42.0626453" lon="13.649024"><ele>962.0</ele><time>2026-05-01T10:52:53.046Z</time></trkpt><trkpt lat="42.0627331" lon="13.6488712"><ele>962.0</ele><time>2026-05-01T10:52:54.03Z</time></trkpt><trkpt lat="42.062834" lon="13.6487377"><ele>962.0</ele><time>2026-05-01T10:52:55.039Z</time></trkpt><trkpt lat="42.0629497" lon="13.648646"><ele>962.0</ele><time>2026-05-01T10:52:56.035Z</time></trkpt><trkpt lat="42.0630793" lon="13.6486147"><ele>960.0</ele><time>2026-05-01T10:52:57.022Z</time></trkpt><trkpt lat="42.0632108" lon="13.6486073"><ele>958.0</ele><time>2026-05-01T10:52:58.039Z</time></trkpt><trkpt lat="42.063336" lon="13.6485908"><ele>956.0</ele><time>2026-05-01T10:52:59.032Z</time></trkpt><trkpt lat="42.0634454" lon="13.6485123"><ele>954.0</ele><time>2026-05-01T10:53:00.033Z</time></trkpt><trkpt lat="42.0635252" lon="13.6483886"><ele>954.0</ele><time>2026-05-01T10:53:01.039Z</time></trkpt><trkpt lat="42.063571" lon="13.6482224"><ele>954.0</ele><time>2026-05-01T10:53:02.034Z</time></trkpt><trkpt lat="42.0635869" lon="13.6480348"><ele>954.0</ele><time>2026-05-01T10:53:03.037Z</time></trkpt><trkpt lat="42.0635777" lon="13.647841"><ele>954.0</ele><time>2026-05-01T10:53:04.028Z</time></trkpt><trkpt lat="42.0635488" lon="13.6476372"><ele>952.0</ele><time>2026-05-01T10:53:05.035Z</time></trkpt><trkpt lat="42.0635336" lon="13.647437"><ele>950.0</ele><time>2026-05-01T10:53:06.037Z</time></trkpt><trkpt lat="42.0635637" lon="13.6472437"><ele>948.0</ele><time>2026-05-01T10:53:07.029Z</time></trkpt><trkpt lat="42.0636371" lon="13.6470703"><ele>946.0</ele><time>2026-05-01T10:53:08.039Z</time></trkpt><trkpt lat="42.0637438" lon="13.6469285"><ele>947.0</ele><time>2026-05-01T10:53:09.029Z</time></trkpt><trkpt lat="42.0638704" lon="13.6467874"><ele>948.0</ele><time>2026-05-01T10:53:10.042Z</time></trkpt><trkpt lat="42.063995" lon="13.6466351"><ele>949.0</ele><time>2026-05-01T10:53:11.03Z</time></trkpt><trkpt lat="42.0641217" lon="13.6464796"><ele>949.0</ele><time>2026-05-01T10:53:12.034Z</time></trkpt><trkpt lat="42.0642513" lon="13.646322"><ele>949.0</ele><time>2026-05-01T10:53:13.028Z</time></trkpt><trkpt lat="42.0643916" lon="13.6461767"><ele>949.0</ele><time>2026-05-01T10:53:14.031Z</time></trkpt><trkpt lat="42.064533" lon="13.6460467"><ele>945.3333333333333</ele><time>2026-05-01T10:53:15.056Z</time></trkpt><trkpt lat="42.0646817" lon="13.6459294"><ele>941.6666666666667</ele><time>2026-05-01T10:53:16.042Z</time></trkpt><trkpt lat="42.0648041" lon="13.6457996"><ele>938.0</ele><time>2026-05-01T10:53:17.032Z</time></trkpt><trkpt lat="42.0648859" lon="13.645632"><ele>938.0</ele><time>2026-05-01T10:53:18.027Z</time></trkpt><trkpt lat="42.0649393" lon="13.6454441"><ele>938.0</ele><time>2026-05-01T10:53:19.024Z</time></trkpt><trkpt lat="42.0649483" lon="13.6452334"><ele>938.0</ele><time>2026-05-01T10:53:20.042Z</time></trkpt><trkpt lat="42.064932" lon="13.6450119"><ele>936.3333333333334</ele><time>2026-05-01T10:53:21.035Z</time></trkpt><trkpt lat="42.0649158" lon="13.6448002"><ele>934.6666666666667</ele><time>2026-05-01T10:53:22.034Z</time></trkpt><trkpt lat="42.0649053" lon="13.6445959"><ele>933.0</ele><time>2026-05-01T10:53:23.026Z</time></trkpt><trkpt lat="42.0649128" lon="13.6444008"><ele>933.5</ele><time>2026-05-01T10:53:24.03Z</time></trkpt><trkpt lat="42.0649422" lon="13.6442238"><ele>934.0</ele><time>2026-05-01T10:53:25.03Z</time></trkpt><trkpt lat="42.0650061" lon="13.6440745"><ele>934.5</ele><time>2026-05-01T10:53:26.031Z</time></trkpt><trkpt lat="42.065105" lon="13.6439647"><ele>935.0</ele><time>2026-05-01T10:53:27.038Z</time></trkpt><trkpt lat="42.0652294" lon="13.6438632"><ele>935.0</ele><time>2026-05-01T10:53:28.028Z</time></trkpt><trkpt lat="42.0653692" lon="13.6437469"><ele>935.0</ele><time>2026-05-01T10:53:29.041Z</time></trkpt><trkpt lat="42.0654992" lon="13.6436"><ele>935.0</ele><time>2026-05-01T10:53:30.027Z</time></trkpt><trkpt lat="42.065611" lon="13.6434175"><ele>934.3333333333334</ele><time>2026-05-01T10:53:31.039Z</time></trkpt><trkpt lat="42.0657091" lon="13.6432162"><ele>933.6666666666667</ele><time>2026-05-01T10:53:32.034Z</time></trkpt><trkpt lat="42.0658096" lon="13.6429935"><ele>933.0</ele><time>2026-05-01T10:53:33.039Z</time></trkpt><trkpt lat="42.0659411" lon="13.6427576"><ele>929.0</ele><time>2026-05-01T10:53:34.041Z</time></trkpt><trkpt lat="42.0661013" lon="13.6425211"><ele>925.0</ele><time>2026-05-01T10:53:35.032Z</time></trkpt><trkpt lat="42.0662598" lon="13.6422859"><ele>925.0</ele><time>2026-05-01T10:53:36.031Z</time></trkpt><trkpt lat="42.066418" lon="13.642058"><ele>925.0</ele><time>2026-05-01T10:53:37.034Z</time></trkpt><trkpt lat="42.066578" lon="13.6418308"><ele>924.0</ele><time>2026-05-01T10:53:38.04Z</time></trkpt><trkpt lat="42.0667312" lon="13.6416042"><ele>923.0</ele><time>2026-05-01T10:53:39.031Z</time></trkpt><trkpt lat="42.0668794" lon="13.6413779"><ele>923.0</ele><time>2026-05-01T10:53:40.038Z</time></trkpt><trkpt lat="42.0670299" lon="13.6411598"><ele>923.0</ele><time>2026-05-01T10:53:41.033Z</time></trkpt><trkpt lat="42.0671715" lon="13.6409479"><ele>923.0</ele><time>2026-05-01T10:53:42.038Z</time></trkpt><trkpt lat="42.0673142" lon="13.6407391"><ele>922.6666666666667</ele><time>2026-05-01T10:53:43.034Z</time></trkpt><trkpt lat="42.0674533" lon="13.6405335"><ele>922.3333333333333</ele><time>2026-05-01T10:53:44.034Z</time></trkpt><trkpt lat="42.0675791" lon="13.6403208"><ele>922.0</ele><time>2026-05-01T10:53:45.033Z</time></trkpt><trkpt lat="42.0676946" lon="13.6400926"><ele>919.3333333333333</ele><time>2026-05-01T10:53:46.034Z</time></trkpt><trkpt lat="42.0677952" lon="13.6398546"><ele>916.6666666666667</ele><time>2026-05-01T10:53:47.032Z</time></trkpt><trkpt lat="42.0678886" lon="13.639622"><ele>914.0</ele><time>2026-05-01T10:53:48.033Z</time></trkpt><trkpt lat="42.067971" lon="13.6393841"><ele>911.0</ele><time>2026-05-01T10:53:49.028Z</time></trkpt><trkpt lat="42.0680371" lon="13.6391333"><ele>908.0</ele><time>2026-05-01T10:53:50.027Z</time></trkpt><trkpt lat="42.0680865" lon="13.6388722"><ele>905.0</ele><time>2026-05-01T10:53:51.038Z</time></trkpt><trkpt lat="42.0681314" lon="13.6386033"><ele>902.3333333333334</ele><time>2026-05-01T10:53:52.03Z</time></trkpt><trkpt lat="42.0681777" lon="13.6383341"><ele>899.6666666666667</ele><time>2026-05-01T10:53:53.03Z</time></trkpt><trkpt lat="42.0682238" lon="13.6380752"><ele>897.0</ele><time>2026-05-01T10:53:54.028Z</time></trkpt><trkpt lat="42.0682746" lon="13.6378141"><ele>899.0</ele><time>2026-05-01T10:53:55.025Z</time></trkpt><trkpt lat="42.0683477" lon="13.6375436"><ele>901.0</ele><time>2026-05-01T10:53:56.027Z</time></trkpt><trkpt lat="42.0684355" lon="13.6372574"><ele>903.0</ele><time>2026-05-01T10:53:57.03Z</time></trkpt><trkpt lat="42.0685362" lon="13.6369694"><ele>899.0</ele><time>2026-05-01T10:53:58.027Z</time></trkpt><trkpt lat="42.0686379" lon="13.6366853"><ele>895.0</ele><time>2026-05-01T10:53:59.031Z</time></trkpt><trkpt lat="42.068735" lon="13.6364047"><ele>892.3333333333333</ele><time>2026-05-01T10:54:00.026Z</time></trkpt><trkpt lat="42.068835" lon="13.6361292"><ele>889.6666666666667</ele><time>2026-05-01T10:54:01.034Z</time></trkpt><trkpt lat="42.0689332" lon="13.6358636"><ele>887.0</ele><time>2026-05-01T10:54:02.027Z</time></trkpt><trkpt lat="42.0690274" lon="13.6356092"><ele>888.6666666666667</ele><time>2026-05-01T10:54:03.026Z</time></trkpt><trkpt lat="42.0691204" lon="13.6353745"><ele>890.3333333333333</ele><time>2026-05-01T10:54:04.033Z</time></trkpt><trkpt lat="42.0692123" lon="13.6351565"><ele>892.0</ele><time>2026-05-01T10:54:05.031Z</time></trkpt><trkpt lat="42.0693172" lon="13.6349591"><ele>892.0</ele><time>2026-05-01T10:54:06.026Z</time></trkpt><trkpt lat="42.0694326" lon="13.6347882"><ele>892.0</ele><time>2026-05-01T10:54:07.029Z</time></trkpt><trkpt lat="42.0695406" lon="13.6346314"><ele>892.0</ele><time>2026-05-01T10:54:08.027Z</time></trkpt><trkpt lat="42.0696307" lon="13.6344739"><ele>891.0</ele><time>2026-05-01T10:54:09.024Z</time></trkpt><trkpt lat="42.0696903" lon="13.6343015"><ele>890.0</ele><time>2026-05-01T10:54:10.029Z</time></trkpt><trkpt lat="42.0697185" lon="13.6341201"><ele>889.0</ele><time>2026-05-01T10:54:11.036Z</time></trkpt><trkpt lat="42.0697088" lon="13.6339337"><ele>888.0</ele><time>2026-05-01T10:54:12.031Z</time></trkpt><trkpt lat="42.0696772" lon="13.6337227"><ele>886.6666666666667</ele><time>2026-05-01T10:54:13.026Z</time></trkpt><trkpt lat="42.0696403" lon="13.6335051"><ele>885.3333333333334</ele><time>2026-05-01T10:54:14.041Z</time></trkpt><trkpt lat="42.0696001" lon="13.6332808"><ele>884.0</ele><time>2026-05-01T10:54:15.041Z</time></trkpt><trkpt lat="42.0695382" lon="13.6330359"><ele>882.0</ele><time>2026-05-01T10:54:16.029Z</time></trkpt><trkpt lat="42.0694655" lon="13.6327746"><ele>880.0</ele><time>2026-05-01T10:54:17.038Z</time></trkpt><trkpt lat="42.0693999" lon="13.6325024"><ele>878.0</ele><time>2026-05-01T10:54:18.026Z</time></trkpt><trkpt lat="42.0693329" lon="13.6322319"><ele>875.6666666666667</ele><time>2026-05-01T10:54:19.033Z</time></trkpt><trkpt lat="42.0692666" lon="13.631968"><ele>873.3333333333333</ele><time>2026-05-01T10:54:20.02Z</time></trkpt><trkpt lat="42.0692027" lon="13.6317135"><ele>871.0</ele><time>2026-05-01T10:54:21.032Z</time></trkpt><trkpt lat="42.0691362" lon="13.6314811"><ele>872.0</ele><time>2026-05-01T10:54:22.027Z</time></trkpt><trkpt lat="42.0690601" lon="13.6312844"><ele>873.0</ele><time>2026-05-01T10:54:23.037Z</time></trkpt><trkpt lat="42.0689616" lon="13.631117"><ele>874.0</ele><time>2026-05-01T10:54:24.029Z</time></trkpt><trkpt lat="42.0688439" lon="13.631007"><ele>871.6666666666666</ele><time>2026-05-01T10:54:25.034Z</time></trkpt><trkpt lat="42.0687032" lon="13.6309476"><ele>869.3333333333333</ele><time>2026-05-01T10:54:26.028Z</time></trkpt><trkpt lat="42.0685504" lon="13.6309086"><ele>867.0</ele><time>2026-05-01T10:54:27.029Z</time></trkpt><trkpt lat="42.0683934" lon="13.6309315"><ele>867.6666666666667</ele><time>2026-05-01T10:54:28.065Z</time></trkpt><trkpt lat="42.0682353" lon="13.6310021"><ele>868.3333333333334</ele><time>2026-05-01T10:54:29.034Z</time></trkpt><trkpt lat="42.0680768" lon="13.6311077"><ele>869.0</ele><time>2026-05-01T10:54:30.029Z</time></trkpt><trkpt lat="42.0679158" lon="13.6312241"><ele>869.0</ele><time>2026-05-01T10:54:31.024Z</time></trkpt><trkpt lat="42.0677483" lon="13.6313155"><ele>869.0</ele><time>2026-05-01T10:54:32.037Z</time></trkpt><trkpt lat="42.0675638" lon="13.6313818"><ele>869.0</ele><time>2026-05-01T10:54:33.025Z</time></trkpt><trkpt lat="42.0673691" lon="13.631438"><ele>867.3333333333334</ele><time>2026-05-01T10:54:34.024Z</time></trkpt><trkpt lat="42.0671681" lon="13.6314963"><ele>865.6666666666667</ele><time>2026-05-01T10:54:35.045Z</time></trkpt><trkpt lat="42.0669648" lon="13.6315605"><ele>864.0</ele><time>2026-05-01T10:54:36.031Z</time></trkpt><trkpt lat="42.0667709" lon="13.6316221"><ele>862.3333333333333</ele><time>2026-05-01T10:54:37.042Z</time></trkpt><trkpt lat="42.0665849" lon="13.6316739"><ele>860.6666666666666</ele><time>2026-05-01T10:54:38.026Z</time></trkpt><trkpt lat="42.0664216" lon="13.631716"><ele>859.0</ele><time>2026-05-01T10:54:39.04Z</time></trkpt><trkpt lat="42.0662731" lon="13.6317212"><ele>859.0</ele><time>2026-05-01T10:54:40.031Z</time></trkpt><trkpt lat="42.0661481" lon="13.6316829"><ele>859.0</ele><time>2026-05-01T10:54:41.04Z</time></trkpt><trkpt lat="42.0660447" lon="13.6315901"><ele>859.0</ele><time>2026-05-01T10:54:42.045Z</time></trkpt><trkpt lat="42.0659562" lon="13.6314492"><ele>859.0</ele><time>2026-05-01T10:54:43.028Z</time></trkpt><trkpt lat="42.0658747" lon="13.6312845"><ele>857.0</ele><time>2026-05-01T10:54:44.028Z</time></trkpt><trkpt lat="42.0657907" lon="13.6311155"><ele>855.0</ele><time>2026-05-01T10:54:45.036Z</time></trkpt><trkpt lat="42.0657067" lon="13.6309444"><ele>853.0</ele><time>2026-05-01T10:54:46.038Z</time></trkpt><trkpt lat="42.0656116" lon="13.6307634"><ele>851.6666666666666</ele><time>2026-05-01T10:54:47.038Z</time></trkpt><trkpt lat="42.0655127" lon="13.6305768"><ele>850.3333333333333</ele><time>2026-05-01T10:54:48.042Z</time></trkpt><trkpt lat="42.0654097" lon="13.6303793"><ele>849.0</ele><time>2026-05-01T10:54:49.031Z</time></trkpt><trkpt lat="42.0653105" lon="13.6301745"><ele>848.6666666666667</ele><time>2026-05-01T10:54:50.03Z</time></trkpt><trkpt lat="42.0652058" lon="13.6299678"><ele>848.3333333333334</ele><time>2026-05-01T10:54:51.038Z</time></trkpt><trkpt lat="42.0650983" lon="13.6297604"><ele>848.0</ele><time>2026-05-01T10:54:52.032Z</time></trkpt><trkpt lat="42.0649917" lon="13.6295463"><ele>847.0</ele><time>2026-05-01T10:54:53.039Z</time></trkpt><trkpt lat="42.064888" lon="13.6293361"><ele>846.0</ele><time>2026-05-01T10:54:54.031Z</time></trkpt><trkpt lat="42.0647909" lon="13.6291326"><ele>845.0</ele><time>2026-05-01T10:54:55.047Z</time></trkpt><trkpt lat="42.0646915" lon="13.6289487"><ele>845.0</ele><time>2026-05-01T10:54:56.036Z</time></trkpt><trkpt lat="42.0645889" lon="13.628773"><ele>845.0</ele><time>2026-05-01T10:54:57.055Z</time></trkpt><trkpt lat="42.0644864" lon="13.6286182"><ele>845.0</ele><time>2026-05-01T10:54:58.039Z</time></trkpt><trkpt lat="42.0643719" lon="13.6284951"><ele>845.25</ele><time>2026-05-01T10:54:59.04Z</time></trkpt><trkpt lat="42.0642476" lon="13.628405"><ele>845.5</ele><time>2026-05-01T10:55:00.049Z</time></trkpt><trkpt lat="42.0641142" lon="13.6283458"><ele>845.75</ele><time>2026-05-01T10:55:01.032Z</time></trkpt><trkpt lat="42.0639839" lon="13.6282893"><ele>846.0</ele><time>2026-05-01T10:55:02.033Z</time></trkpt><trkpt lat="42.0638532" lon="13.6282294"><ele>845.5</ele><time>2026-05-01T10:55:03.033Z</time></trkpt><trkpt lat="42.0637248" lon="13.6281665"><ele>845.0</ele><time>2026-05-01T10:55:04.023Z</time></trkpt><trkpt lat="42.0636052" lon="13.628109"><ele>844.5</ele><time>2026-05-01T10:55:05.039Z</time></trkpt><trkpt lat="42.063491" lon="13.6280498"><ele>844.0</ele><time>2026-05-01T10:55:06.041Z</time></trkpt><trkpt lat="42.0633768" lon="13.62799"><ele>843.75</ele><time>2026-05-01T10:55:07.04Z</time></trkpt><trkpt lat="42.0632624" lon="13.6279323"><ele>843.5</ele><time>2026-05-01T10:55:08.04Z</time></trkpt><trkpt lat="42.0631458" lon="13.627874"><ele>843.25</ele><time>2026-05-01T10:55:09.047Z</time></trkpt><trkpt lat="42.0630276" lon="13.627815"><ele>843.0</ele><time>2026-05-01T10:55:10.044Z</time></trkpt><trkpt lat="42.0629134" lon="13.6277526"><ele>843.0</ele><time>2026-05-01T10:55:11.047Z</time></trkpt><trkpt lat="42.0627997" lon="13.6276928"><ele>843.0</ele><time>2026-05-01T10:55:12.044Z</time></trkpt><trkpt lat="42.0626873" lon="13.6276372"><ele>843.0</ele><time>2026-05-01T10:55:13.029Z</time></trkpt><trkpt lat="42.0625719" lon="13.6275824"><ele>843.0</ele><time>2026-05-01T10:55:14.044Z</time></trkpt><trkpt lat="42.0624558" lon="13.627533"><ele>842.5</ele><time>2026-05-01T10:55:15.04Z</time></trkpt><trkpt lat="42.0623385" lon="13.6274839"><ele>842.0</ele><time>2026-05-01T10:55:16.069Z</time></trkpt><trkpt lat="42.0622239" lon="13.6274322"><ele>841.5</ele><time>2026-05-01T10:55:17.031Z</time></trkpt><trkpt lat="42.0621102" lon="13.6273795"><ele>841.0</ele><time>2026-05-01T10:55:18.04Z</time></trkpt><trkpt lat="42.0619975" lon="13.6273258"><ele>841.0</ele><time>2026-05-01T10:55:19.038Z</time></trkpt><trkpt lat="42.0618878" lon="13.6272791"><ele>841.0</ele><time>2026-05-01T10:55:20.034Z</time></trkpt><trkpt lat="42.0617813" lon="13.6272324"><ele>841.0</ele><time>2026-05-01T10:55:21.065Z</time></trkpt><trkpt lat="42.0616796" lon="13.6271818"><ele>841.0</ele><time>2026-05-01T10:55:22.049Z</time></trkpt><trkpt lat="42.0615798" lon="13.6271355"><ele>841.0</ele><time>2026-05-01T10:55:23.035Z</time></trkpt><trkpt lat="42.061488" lon="13.6270822"><ele>840.6666666666666</ele><time>2026-05-01T10:55:24.044Z</time></trkpt><trkpt lat="42.0614041" lon="13.6270435"><ele>840.3333333333333</ele><time>2026-05-01T10:55:25.043Z</time></trkpt><trkpt lat="42.0613272" lon="13.6270036"><ele>840.0</ele><time>2026-05-01T10:55:26.055Z</time></trkpt><trkpt lat="42.0612579" lon="13.6269667"><ele>839.6666666666667</ele><time>2026-05-01T10:55:27.039Z</time></trkpt><trkpt lat="42.0611523" lon="13.6269197"><ele>839.3333333333334</ele><time>2026-05-01T10:55:29.04Z</time></trkpt><trkpt lat="42.0610891" lon="13.6268934"><ele>839.0</ele><time>2026-05-01T10:55:31.07Z</time></trkpt><trkpt lat="42.0610245" lon="13.6269096"><ele>838.8000000000001</ele><time>2026-05-01T11:06:17.028Z</time></trkpt><trkpt lat="42.0609551" lon="13.6268502"><ele>838.6</ele><time>2026-05-01T11:06:20.03Z</time></trkpt><trkpt lat="42.0608818" lon="13.6268083"><ele>838.4</ele><time>2026-05-01T11:06:22.029Z</time></trkpt><trkpt lat="42.0608041" lon="13.6267516"><ele>838.2</ele><time>2026-05-01T11:06:24.03Z</time></trkpt><trkpt lat="42.060711" lon="13.6267077"><ele>838.0</ele><time>2026-05-01T11:06:26.044Z</time></trkpt><trkpt lat="42.0605959" lon="13.6266405"><ele>837.2</ele><time>2026-05-01T11:06:28.036Z</time></trkpt><trkpt lat="42.060529" lon="13.6265959"><ele>836.4</ele><time>2026-05-01T11:06:29.028Z</time></trkpt><trkpt lat="42.0604492" lon="13.6265568"><ele>835.6</ele><time>2026-05-01T11:06:30.031Z</time></trkpt><trkpt lat="42.0603593" lon="13.6265196"><ele>834.8000000000001</ele><time>2026-05-01T11:06:31.03Z</time></trkpt><trkpt lat="42.0602677" lon="13.6264773"><ele>834.0</ele><time>2026-05-01T11:06:32.033Z</time></trkpt><trkpt lat="42.060172" lon="13.6264344"><ele>834.0</ele><time>2026-05-01T11:06:33.045Z</time></trkpt><trkpt lat="42.0600724" lon="13.6263852"><ele>834.0</ele><time>2026-05-01T11:06:34.024Z</time></trkpt><trkpt lat="42.0599708" lon="13.626332"><ele>834.0</ele><time>2026-05-01T11:06:35.05Z</time></trkpt><trkpt lat="42.0598658" lon="13.6262841"><ele>834.0</ele><time>2026-05-01T11:06:36.026Z</time></trkpt><trkpt lat="42.0597631" lon="13.6262296"><ele>834.0</ele><time>2026-05-01T11:06:37.031Z</time></trkpt><trkpt lat="42.0596556" lon="13.6261777"><ele>833.75</ele><time>2026-05-01T11:06:38.032Z</time></trkpt><trkpt lat="42.0595483" lon="13.6261197"><ele>833.5</ele><time>2026-05-01T11:06:39.025Z</time></trkpt><trkpt lat="42.0594347" lon="13.6260679"><ele>833.25</ele><time>2026-05-01T11:06:40.035Z</time></trkpt><trkpt lat="42.0593154" lon="13.6260157"><ele>833.0</ele><time>2026-05-01T11:06:41.026Z</time></trkpt><trkpt lat="42.0591909" lon="13.6259572"><ele>832.25</ele><time>2026-05-01T11:06:42.025Z</time></trkpt><trkpt lat="42.0590656" lon="13.6258924"><ele>831.5</ele><time>2026-05-01T11:06:43.02Z</time></trkpt><trkpt lat="42.0589439" lon="13.6258332"><ele>830.75</ele><time>2026-05-01T11:06:44.026Z</time></trkpt><trkpt lat="42.0588184" lon="13.6257783"><ele>830.0</ele><time>2026-05-01T11:06:45.023Z</time></trkpt><trkpt lat="42.0586966" lon="13.6257181"><ele>830.0</ele><time>2026-05-01T11:06:46.037Z</time></trkpt><trkpt lat="42.0585727" lon="13.6256511"><ele>830.0</ele><time>2026-05-01T11:06:47.045Z</time></trkpt><trkpt lat="42.0584531" lon="13.6255811"><ele>830.0</ele><time>2026-05-01T11:06:48.034Z</time></trkpt><trkpt lat="42.0583394" lon="13.6255029"><ele>830.0</ele><time>2026-05-01T11:06:49.024Z</time></trkpt><trkpt lat="42.0582324" lon="13.6254073"><ele>828.5</ele><time>2026-05-01T11:06:50.043Z</time></trkpt><trkpt lat="42.0581357" lon="13.6252988"><ele>827.0</ele><time>2026-05-01T11:06:51.035Z</time></trkpt><trkpt lat="42.0580423" lon="13.6251801"><ele>825.5</ele><time>2026-05-01T11:06:52.024Z</time></trkpt><trkpt lat="42.057954" lon="13.6250601"><ele>824.0</ele><time>2026-05-01T11:06:53.036Z</time></trkpt><trkpt lat="42.057866" lon="13.6249394"><ele>824.0</ele><time>2026-05-01T11:06:54.02Z</time></trkpt><trkpt lat="42.0577653" lon="13.6248326"><ele>824.0</ele><time>2026-05-01T11:06:55.035Z</time></trkpt><trkpt lat="42.0576506" lon="13.6247414"><ele>824.0</ele><time>2026-05-01T11:06:56.033Z</time></trkpt><trkpt lat="42.0575145" lon="13.6246743"><ele>824.0</ele><time>2026-05-01T11:06:57.019Z</time></trkpt><trkpt lat="42.0573727" lon="13.6246125"><ele>823.0</ele><time>2026-05-01T11:06:58.026Z</time></trkpt><trkpt lat="42.0572248" lon="13.6245534"><ele>822.0</ele><time>2026-05-01T11:06:59.035Z</time></trkpt><trkpt lat="42.0570742" lon="13.6244921"><ele>821.0</ele><time>2026-05-01T11:07:00.027Z</time></trkpt><trkpt lat="42.0569263" lon="13.624425"><ele>821.0</ele><time>2026-05-01T11:07:01.028Z</time></trkpt><trkpt lat="42.0567791" lon="13.6243595"><ele>821.0</ele><time>2026-05-01T11:07:02.032Z</time></trkpt><trkpt lat="42.0566339" lon="13.6243017"><ele>821.0</ele><time>2026-05-01T11:07:03.041Z</time></trkpt><trkpt lat="42.0564962" lon="13.6242446"><ele>819.4</ele><time>2026-05-01T11:07:04.028Z</time></trkpt><trkpt lat="42.0563718" lon="13.6242017"><ele>817.8</ele><time>2026-05-01T11:07:05.036Z</time></trkpt><trkpt lat="42.0562603" lon="13.624165"><ele>816.1999999999999</ele><time>2026-05-01T11:07:06.026Z</time></trkpt><trkpt lat="42.0561638" lon="13.6241397"><ele>814.5999999999999</ele><time>2026-05-01T11:07:07.025Z</time></trkpt><trkpt lat="42.0560757" lon="13.6241185"><ele>813.0</ele><time>2026-05-01T11:07:08.031Z</time></trkpt><trkpt lat="42.0559885" lon="13.6240994"><ele>813.0</ele><time>2026-05-01T11:07:09.028Z</time></trkpt><trkpt lat="42.0558942" lon="13.624081"><ele>813.0</ele><time>2026-05-01T11:07:10.034Z</time></trkpt><trkpt lat="42.0557883" lon="13.6240667"><ele>813.0</ele><time>2026-05-01T11:07:11.034Z</time></trkpt><trkpt lat="42.0556826" lon="13.6240598"><ele>813.0</ele><time>2026-05-01T11:07:12.032Z</time></trkpt><trkpt lat="42.0555662" lon="13.6240633"><ele>813.0</ele><time>2026-05-01T11:07:13.03Z</time></trkpt><trkpt lat="42.0554411" lon="13.6240797"><ele>812.5</ele><time>2026-05-01T11:07:14.03Z</time></trkpt><trkpt lat="42.0553122" lon="13.6241041"><ele>812.0</ele><time>2026-05-01T11:07:15.026Z</time></trkpt><trkpt lat="42.05518" lon="13.6241422"><ele>811.5</ele><time>2026-05-01T11:07:16.031Z</time></trkpt><trkpt lat="42.0550472" lon="13.6241882"><ele>811.0</ele><time>2026-05-01T11:07:17.036Z</time></trkpt><trkpt lat="42.0549159" lon="13.6242416"><ele>810.5</ele><time>2026-05-01T11:07:18.027Z</time></trkpt><trkpt lat="42.0547839" lon="13.6243022"><ele>810.0</ele><time>2026-05-01T11:07:19.041Z</time></trkpt><trkpt lat="42.0546587" lon="13.6243717"><ele>809.5</ele><time>2026-05-01T11:07:20.032Z</time></trkpt><trkpt lat="42.0545338" lon="13.6244339"><ele>809.0</ele><time>2026-05-01T11:07:21.042Z</time></trkpt><trkpt lat="42.054418" lon="13.6244865"><ele>808.4000000000001</ele><time>2026-05-01T11:07:22.03Z</time></trkpt><trkpt lat="42.0543043" lon="13.6245258"><ele>807.8</ele><time>2026-05-01T11:07:23.025Z</time></trkpt><trkpt lat="42.0541996" lon="13.6245345"><ele>807.2</ele><time>2026-05-01T11:07:24.03Z</time></trkpt><trkpt lat="42.0541036" lon="13.624502"><ele>806.5999999999999</ele><time>2026-05-01T11:07:25.034Z</time></trkpt><trkpt lat="42.0540117" lon="13.6244345"><ele>806.0</ele><time>2026-05-01T11:07:26.039Z</time></trkpt><trkpt lat="42.0539226" lon="13.6243311"><ele>804.25</ele><time>2026-05-01T11:07:27.035Z</time></trkpt><trkpt lat="42.0538471" lon="13.6242014"><ele>802.5</ele><time>2026-05-01T11:07:28.035Z</time></trkpt><trkpt lat="42.0538005" lon="13.6240603"><ele>800.75</ele><time>2026-05-01T11:07:29.021Z</time></trkpt><trkpt lat="42.0538007" lon="13.6238954"><ele>799.0</ele><time>2026-05-01T11:07:30.034Z</time></trkpt><trkpt lat="42.0538464" lon="13.6237064"><ele>796.6666666666666</ele><time>2026-05-01T11:07:31.036Z</time></trkpt><trkpt lat="42.0539352" lon="13.6235165"><ele>794.3333333333333</ele><time>2026-05-01T11:07:32.054Z</time></trkpt><trkpt lat="42.0540417" lon="13.6233233"><ele>792.0</ele><time>2026-05-01T11:07:33.035Z</time></trkpt><trkpt lat="42.0541425" lon="13.62315"><ele>794.3333333333333</ele><time>2026-05-01T11:07:34.021Z</time></trkpt><trkpt lat="42.0542458" lon="13.6229848"><ele>796.6666666666666</ele><time>2026-05-01T11:07:35.035Z</time></trkpt><trkpt lat="42.0543396" lon="13.6228049"><ele>799.0</ele><time>2026-05-01T11:07:36.036Z</time></trkpt><trkpt lat="42.0544165" lon="13.6226116"><ele>799.0</ele><time>2026-05-01T11:07:37.027Z</time></trkpt><trkpt lat="42.054483" lon="13.6223907"><ele>799.0</ele><time>2026-05-01T11:07:38.028Z</time></trkpt><trkpt lat="42.054525" lon="13.6221496"><ele>799.0</ele><time>2026-05-01T11:07:39.029Z</time></trkpt><trkpt lat="42.0545606" lon="13.6218743"><ele>797.3333333333333</ele><time>2026-05-01T11:07:40.023Z</time></trkpt><trkpt lat="42.0545882" lon="13.6215904"><ele>795.6666666666667</ele><time>2026-05-01T11:07:41.029Z</time></trkpt><trkpt lat="42.0546064" lon="13.6212942"><ele>794.0</ele><time>2026-05-01T11:07:42.019Z</time></trkpt><trkpt lat="42.0546189" lon="13.6210059"><ele>793.0</ele><time>2026-05-01T11:07:43.042Z</time></trkpt><trkpt lat="42.0546289" lon="13.6207333"><ele>792.0</ele><time>2026-05-01T11:07:44.022Z</time></trkpt><trkpt lat="42.0546389" lon="13.6204755"><ele>791.0</ele><time>2026-05-01T11:07:45.035Z</time></trkpt><trkpt lat="42.0546445" lon="13.6202289"><ele>789.3333333333334</ele><time>2026-05-01T11:07:46.033Z</time></trkpt><trkpt lat="42.054648" lon="13.6199917"><ele>787.6666666666667</ele><time>2026-05-01T11:07:47.031Z</time></trkpt><trkpt lat="42.0546703" lon="13.6197771"><ele>786.0</ele><time>2026-05-01T11:07:48.027Z</time></trkpt><trkpt lat="42.0547275" lon="13.6195874"><ele>784.0</ele><time>2026-05-01T11:07:49.021Z</time></trkpt><trkpt lat="42.0548283" lon="13.619423"><ele>782.0</ele><time>2026-05-01T11:07:50.028Z</time></trkpt><trkpt lat="42.0549594" lon="13.6192927"><ele>780.0</ele><time>2026-05-01T11:07:51.019Z</time></trkpt><trkpt lat="42.0550907" lon="13.6191873"><ele>781.75</ele><time>2026-05-01T11:07:52.027Z</time></trkpt><trkpt lat="42.0551991" lon="13.6190647"><ele>783.5</ele><time>2026-05-01T11:07:53.028Z</time></trkpt><trkpt lat="42.0552789" lon="13.6189268"><ele>785.25</ele><time>2026-05-01T11:07:54.033Z</time></trkpt><trkpt lat="42.0553129" lon="13.6187397"><ele>787.0</ele><time>2026-05-01T11:07:55.022Z</time></trkpt><trkpt lat="42.0552938" lon="13.6185219"><ele>787.0</ele><time>2026-05-01T11:07:56.024Z</time></trkpt><trkpt lat="42.0552384" lon="13.6183079"><ele>787.0</ele><time>2026-05-01T11:07:57.022Z</time></trkpt><trkpt lat="42.0551893" lon="13.6180918"><ele>787.0</ele><time>2026-05-01T11:07:58.023Z</time></trkpt><trkpt lat="42.0551395" lon="13.6178775"><ele>786.3333333333333</ele><time>2026-05-01T11:07:59.033Z</time></trkpt><trkpt lat="42.0550885" lon="13.617653"><ele>785.6666666666667</ele><time>2026-05-01T11:08:00.051Z</time></trkpt><trkpt lat="42.0550385" lon="13.6174303"><ele>785.0</ele><time>2026-05-01T11:08:01.041Z</time></trkpt><trkpt lat="42.0549854" lon="13.6172018"><ele>782.0</ele><time>2026-05-01T11:08:02.027Z</time></trkpt><trkpt lat="42.0549312" lon="13.6169644"><ele>779.0</ele><time>2026-05-01T11:08:03.022Z</time></trkpt><trkpt lat="42.0548754" lon="13.6167285"><ele>776.0</ele><time>2026-05-01T11:08:04.027Z</time></trkpt><trkpt lat="42.0548275" lon="13.6165019"><ele>776.0</ele><time>2026-05-01T11:08:05.029Z</time></trkpt><trkpt lat="42.0547822" lon="13.6162926"><ele>776.0</ele><time>2026-05-01T11:08:06.023Z</time></trkpt><trkpt lat="42.0547438" lon="13.6161017"><ele>776.0</ele><time>2026-05-01T11:08:07.022Z</time></trkpt><trkpt lat="42.0547316" lon="13.6159289"><ele>776.0</ele><time>2026-05-01T11:08:08.027Z</time></trkpt><trkpt lat="42.0547547" lon="13.615768"><ele>775.25</ele><time>2026-05-01T11:08:09.024Z</time></trkpt><trkpt lat="42.0548248" lon="13.6156247"><ele>774.5</ele><time>2026-05-01T11:08:10.024Z</time></trkpt><trkpt lat="42.0549386" lon="13.6155004"><ele>773.75</ele><time>2026-05-01T11:08:11.033Z</time></trkpt><trkpt lat="42.0550695" lon="13.6153743"><ele>773.0</ele><time>2026-05-01T11:08:12.027Z</time></trkpt><trkpt lat="42.0551865" lon="13.6152204"><ele>773.0</ele><time>2026-05-01T11:08:13.025Z</time></trkpt><trkpt lat="42.0552837" lon="13.6150571"><ele>773.0</ele><time>2026-05-01T11:08:14.028Z</time></trkpt><trkpt lat="42.0553661" lon="13.6148443"><ele>773.0</ele><time>2026-05-01T11:08:15.028Z</time></trkpt><trkpt lat="42.0554251" lon="13.614607"><ele>771.3333333333334</ele><time>2026-05-01T11:08:16.027Z</time></trkpt><trkpt lat="42.0554525" lon="13.6143672"><ele>769.6666666666667</ele><time>2026-05-01T11:08:17.032Z</time></trkpt><trkpt lat="42.0554621" lon="13.6141131"><ele>768.0</ele><time>2026-05-01T11:08:18.036Z</time></trkpt><trkpt lat="42.0554395" lon="13.6138653"><ele>768.0</ele><time>2026-05-01T11:08:19.027Z</time></trkpt><trkpt lat="42.0553948" lon="13.6136431"><ele>768.0</ele><time>2026-05-01T11:08:20.034Z</time></trkpt><trkpt lat="42.0553298" lon="13.6134362"><ele>768.0</ele><time>2026-05-01T11:08:21.026Z</time></trkpt><trkpt lat="42.0552757" lon="13.613258"><ele>768.0</ele><time>2026-05-01T11:08:22.022Z</time></trkpt><trkpt lat="42.0552488" lon="13.6131033"><ele>768.0</ele><time>2026-05-01T11:08:23.027Z</time></trkpt><trkpt lat="42.0552476" lon="13.6129534"><ele>768.0</ele><time>2026-05-01T11:08:24.026Z</time></trkpt><trkpt lat="42.0552981" lon="13.6128244"><ele>768.0</ele><time>2026-05-01T11:08:25.035Z</time></trkpt><trkpt lat="42.0553934" lon="13.6127461"><ele>768.0</ele><time>2026-05-01T11:08:26.037Z</time></trkpt><trkpt lat="42.0555098" lon="13.6127221"><ele>767.0</ele><time>2026-05-01T11:08:27.021Z</time></trkpt><trkpt lat="42.0556427" lon="13.6127439"><ele>766.0</ele><time>2026-05-01T11:08:28.035Z</time></trkpt><trkpt lat="42.0558087" lon="13.6127611"><ele>765.0</ele><time>2026-05-01T11:08:29.035Z</time></trkpt><trkpt lat="42.0559784" lon="13.6127525"><ele>764.3333333333334</ele><time>2026-05-01T11:08:30.028Z</time></trkpt><trkpt lat="42.0561722" lon="13.6127238"><ele>763.6666666666667</ele><time>2026-05-01T11:08:31.045Z</time></trkpt><trkpt lat="42.0563743" lon="13.6126729"><ele>763.0</ele><time>2026-05-01T11:08:32.027Z</time></trkpt><trkpt lat="42.056581" lon="13.6126146"><ele>763.6666666666667</ele><time>2026-05-01T11:08:33.028Z</time></trkpt><trkpt lat="42.0567903" lon="13.6125645"><ele>764.3333333333334</ele><time>2026-05-01T11:08:34.037Z</time></trkpt><trkpt lat="42.0570003" lon="13.6125203"><ele>765.0</ele><time>2026-05-01T11:08:35.015Z</time></trkpt><trkpt lat="42.0572034" lon="13.612478"><ele>765.0</ele><time>2026-05-01T11:08:36.021Z</time></trkpt><trkpt lat="42.0574132" lon="13.6124411"><ele>765.0</ele><time>2026-05-01T11:08:37.028Z</time></trkpt><trkpt lat="42.0576173" lon="13.6124196"><ele>765.0</ele><time>2026-05-01T11:08:38.037Z</time></trkpt><trkpt lat="42.057817" lon="13.6124262"><ele>765.0</ele><time>2026-05-01T11:08:39.04Z</time></trkpt><trkpt lat="42.0580037" lon="13.6124589"><ele>765.0</ele><time>2026-05-01T11:08:40.038Z</time></trkpt><trkpt lat="42.0581778" lon="13.6125164"><ele>765.0</ele><time>2026-05-01T11:08:41.037Z</time></trkpt><trkpt lat="42.0583333" lon="13.6126079"><ele>765.0</ele><time>2026-05-01T11:08:42.036Z</time></trkpt><trkpt lat="42.0584668" lon="13.6127413"><ele>765.0</ele><time>2026-05-01T11:08:43.05Z</time></trkpt><trkpt lat="42.0586118" lon="13.6128963"><ele>765.0</ele><time>2026-05-01T11:08:44.027Z</time></trkpt><trkpt lat="42.0587463" lon="13.6130514"><ele>765.0</ele><time>2026-05-01T11:08:45.031Z</time></trkpt><trkpt lat="42.0588742" lon="13.6131942"><ele>765.0</ele><time>2026-05-01T11:08:46.035Z</time></trkpt><trkpt lat="42.0589802" lon="13.6133008"><ele>765.0</ele><time>2026-05-01T11:08:47.03Z</time></trkpt><trkpt lat="42.0590807" lon="13.6133855"><ele>765.0</ele><time>2026-05-01T11:08:48.038Z</time></trkpt><trkpt lat="42.0591842" lon="13.6134379"><ele>763.75</ele><time>2026-05-01T11:08:49.032Z</time></trkpt><trkpt lat="42.059304" lon="13.6134488"><ele>762.5</ele><time>2026-05-01T11:08:50.024Z</time></trkpt><trkpt lat="42.0594241" lon="13.6133979"><ele>761.25</ele><time>2026-05-01T11:08:51.056Z</time></trkpt><trkpt lat="42.0595117" lon="13.6132987"><ele>760.0</ele><time>2026-05-01T11:08:52.029Z</time></trkpt><trkpt lat="42.0595641" lon="13.6131603"><ele>760.0</ele><time>2026-05-01T11:08:53.028Z</time></trkpt><trkpt lat="42.0595689" lon="13.6129828"><ele>760.0</ele><time>2026-05-01T11:08:54.045Z</time></trkpt><trkpt lat="42.059539" lon="13.6127772"><ele>760.0</ele><time>2026-05-01T11:08:55.023Z</time></trkpt><trkpt lat="42.0594753" lon="13.6125655"><ele>758.6666666666667</ele><time>2026-05-01T11:08:56.043Z</time></trkpt><trkpt lat="42.0594101" lon="13.6123353"><ele>757.3333333333334</ele><time>2026-05-01T11:08:57.03Z</time></trkpt><trkpt lat="42.0593398" lon="13.6120874"><ele>756.0</ele><time>2026-05-01T11:08:58.027Z</time></trkpt><trkpt lat="42.0592544" lon="13.6118416"><ele>755.6666666666666</ele><time>2026-05-01T11:08:59.035Z</time></trkpt><trkpt lat="42.0591363" lon="13.6115985"><ele>755.3333333333333</ele><time>2026-05-01T11:09:00.027Z</time></trkpt><trkpt lat="42.0589997" lon="13.6113647"><ele>755.0</ele><time>2026-05-01T11:09:01.037Z</time></trkpt><trkpt lat="42.0588454" lon="13.6111326"><ele>753.0</ele><time>2026-05-01T11:09:02.027Z</time></trkpt><trkpt lat="42.0586917" lon="13.6108965"><ele>751.0</ele><time>2026-05-01T11:09:03.059Z</time></trkpt><trkpt lat="42.0585304" lon="13.610661"><ele>751.0</ele><time>2026-05-01T11:09:04.031Z</time></trkpt><trkpt lat="42.058358" lon="13.6104247"><ele>751.0</ele><time>2026-05-01T11:09:05.032Z</time></trkpt><trkpt lat="42.0581729" lon="13.6101957"><ele>749.5</ele><time>2026-05-01T11:09:06.042Z</time></trkpt><trkpt lat="42.0579772" lon="13.6099714"><ele>748.0</ele><time>2026-05-01T11:09:07.031Z</time></trkpt><trkpt lat="42.0577828" lon="13.6097435"><ele>748.0</ele><time>2026-05-01T11:09:08.033Z</time></trkpt><trkpt lat="42.0575851" lon="13.6095084"><ele>748.0</ele><time>2026-05-01T11:09:09.039Z</time></trkpt><trkpt lat="42.0573884" lon="13.6092781"><ele>744.5</ele><time>2026-05-01T11:09:10.046Z</time></trkpt><trkpt lat="42.0571928" lon="13.6090443"><ele>741.0</ele><time>2026-05-01T11:09:11.038Z</time></trkpt><trkpt lat="42.0569965" lon="13.6088085"><ele>742.0</ele><time>2026-05-01T11:09:12.041Z</time></trkpt><trkpt lat="42.0568027" lon="13.6085792"><ele>743.0</ele><time>2026-05-01T11:09:13.029Z</time></trkpt><trkpt lat="42.0566147" lon="13.6083548"><ele>743.0</ele><time>2026-05-01T11:09:14.05Z</time></trkpt><trkpt lat="42.0564305" lon="13.6081299"><ele>743.0</ele><time>2026-05-01T11:09:15.03Z</time></trkpt><trkpt lat="42.0562498" lon="13.6079196"><ele>742.3333333333333</ele><time>2026-05-01T11:09:16.036Z</time></trkpt><trkpt lat="42.0560749" lon="13.6077191"><ele>741.6666666666666</ele><time>2026-05-01T11:09:17.035Z</time></trkpt><trkpt lat="42.0559075" lon="13.6075325"><ele>741.0</ele><time>2026-05-01T11:09:18.031Z</time></trkpt><trkpt lat="42.0557553" lon="13.6073723"><ele>741.0</ele><time>2026-05-01T11:09:19.027Z</time></trkpt><trkpt lat="42.0556207" lon="13.6072344"><ele>741.0</ele><time>2026-05-01T11:09:20.05Z</time></trkpt><trkpt lat="42.0554911" lon="13.6071051"><ele>741.0</ele><time>2026-05-01T11:09:21.04Z</time></trkpt><trkpt lat="42.0553768" lon="13.6069768"><ele>741.0</ele><time>2026-05-01T11:09:22.043Z</time></trkpt><trkpt lat="42.0552866" lon="13.60684"><ele>741.0</ele><time>2026-05-01T11:09:23.055Z</time></trkpt><trkpt lat="42.0552383" lon="13.6066748"><ele>741.0</ele><time>2026-05-01T11:09:24.036Z</time></trkpt><trkpt lat="42.0552417" lon="13.6064888"><ele>741.0</ele><time>2026-05-01T11:09:25.035Z</time></trkpt><trkpt lat="42.0552771" lon="13.6062938"><ele>740.6666666666666</ele><time>2026-05-01T11:09:26.041Z</time></trkpt><trkpt lat="42.0553431" lon="13.6060985"><ele>740.3333333333333</ele><time>2026-05-01T11:09:27.046Z</time></trkpt><trkpt lat="42.0554298" lon="13.6059013"><ele>740.0</ele><time>2026-05-01T11:09:28.037Z</time></trkpt><trkpt lat="42.055529" lon="13.6057068"><ele>740.0</ele><time>2026-05-01T11:09:29.04Z</time></trkpt><trkpt lat="42.0556419" lon="13.6055123"><ele>740.0</ele><time>2026-05-01T11:09:30.043Z</time></trkpt><trkpt lat="42.0557488" lon="13.6053103"><ele>740.0</ele><time>2026-05-01T11:09:31.039Z</time></trkpt><trkpt lat="42.0558669" lon="13.6050961"><ele>740.3333333333333</ele><time>2026-05-01T11:09:32.04Z</time></trkpt><trkpt lat="42.055981" lon="13.604884"><ele>740.6666666666666</ele><time>2026-05-01T11:09:33.034Z</time></trkpt><trkpt lat="42.0560991" lon="13.6046711"><ele>741.0</ele><time>2026-05-01T11:09:34.054Z</time></trkpt><trkpt lat="42.0562186" lon="13.6044615"><ele>739.6666666666666</ele><time>2026-05-01T11:09:35.039Z</time></trkpt><trkpt lat="42.0563369" lon="13.6042469"><ele>738.3333333333333</ele><time>2026-05-01T11:09:36.061Z</time></trkpt><trkpt lat="42.0564558" lon="13.6040306"><ele>737.0</ele><time>2026-05-01T11:09:37.068Z</time></trkpt><trkpt lat="42.056573" lon="13.60382"><ele>737.6666666666666</ele><time>2026-05-01T11:09:38.058Z</time></trkpt><trkpt lat="42.0566825" lon="13.6036279"><ele>738.3333333333334</ele><time>2026-05-01T11:09:39.042Z</time></trkpt><trkpt lat="42.0567866" lon="13.6034434"><ele>739.0</ele><time>2026-05-01T11:09:40.038Z</time></trkpt><trkpt lat="42.0568823" lon="13.6032652"><ele>739.0</ele><time>2026-05-01T11:09:41.051Z</time></trkpt><trkpt lat="42.0569705" lon="13.6030898"><ele>739.0</ele><time>2026-05-01T11:09:42.047Z</time></trkpt><trkpt lat="42.0570309" lon="13.6029008"><ele>739.0</ele><time>2026-05-01T11:09:43.039Z</time></trkpt><trkpt lat="42.0570493" lon="13.6026871"><ele>737.3333333333334</ele><time>2026-05-01T11:09:44.033Z</time></trkpt><trkpt lat="42.0570343" lon="13.6024506"><ele>735.6666666666666</ele><time>2026-05-01T11:09:45.037Z</time></trkpt><trkpt lat="42.057006" lon="13.6021955"><ele>734.0</ele><time>2026-05-01T11:09:46.055Z</time></trkpt><trkpt lat="42.0569786" lon="13.6019428"><ele>733.3333333333333</ele><time>2026-05-01T11:09:47.033Z</time></trkpt><trkpt lat="42.0569536" lon="13.601699"><ele>732.6666666666666</ele><time>2026-05-01T11:09:48.048Z</time></trkpt><trkpt lat="42.0569286" lon="13.6014583"><ele>732.0</ele><time>2026-05-01T11:09:49.027Z</time></trkpt><trkpt lat="42.0569061" lon="13.6012112"><ele>731.3333333333334</ele><time>2026-05-01T11:09:50.033Z</time></trkpt><trkpt lat="42.0568804" lon="13.6009737"><ele>730.6666666666667</ele><time>2026-05-01T11:09:51.027Z</time></trkpt><trkpt lat="42.0568522" lon="13.6007264"><ele>730.0</ele><time>2026-05-01T11:09:52.055Z</time></trkpt><trkpt lat="42.0568252" lon="13.6004768"><ele>729.6666666666667</ele><time>2026-05-01T11:09:53.04Z</time></trkpt><trkpt lat="42.056796" lon="13.60022"><ele>729.3333333333334</ele><time>2026-05-01T11:09:54.037Z</time></trkpt><trkpt lat="42.0567698" lon="13.5999566"><ele>729.0</ele><time>2026-05-01T11:09:55.031Z</time></trkpt><trkpt lat="42.0567392" lon="13.5996906"><ele>727.6666666666666</ele><time>2026-05-01T11:09:56.051Z</time></trkpt><trkpt lat="42.0567066" lon="13.5994185"><ele>726.3333333333333</ele><time>2026-05-01T11:09:57.034Z</time></trkpt><trkpt lat="42.056679" lon="13.5991369"><ele>725.0</ele><time>2026-05-01T11:09:58.05Z</time></trkpt><trkpt lat="42.0566492" lon="13.5988445"><ele>724.3333333333333</ele><time>2026-05-01T11:09:59.036Z</time></trkpt><trkpt lat="42.0566193" lon="13.598552"><ele>723.6666666666666</ele><time>2026-05-01T11:10:00.037Z</time></trkpt><trkpt lat="42.05659" lon="13.5982585"><ele>723.0</ele><time>2026-05-01T11:10:01.05Z</time></trkpt><trkpt lat="42.0565576" lon="13.5979636"><ele>722.3333333333334</ele><time>2026-05-01T11:10:02.032Z</time></trkpt><trkpt lat="42.0565256" lon="13.597675"><ele>721.6666666666667</ele><time>2026-05-01T11:10:03.041Z</time></trkpt><trkpt lat="42.0564937" lon="13.5973827"><ele>721.0</ele><time>2026-05-01T11:10:04.051Z</time></trkpt><trkpt lat="42.0564622" lon="13.5970888"><ele>720.5</ele><time>2026-05-01T11:10:05.03Z</time></trkpt><trkpt lat="42.0564298" lon="13.5967884"><ele>720.0</ele><time>2026-05-01T11:10:06.041Z</time></trkpt><trkpt lat="42.0563961" lon="13.5964847"><ele>720.0</ele><time>2026-05-01T11:10:07.034Z</time></trkpt><trkpt lat="42.0563609" lon="13.5961733"><ele>720.0</ele><time>2026-05-01T11:10:08.032Z</time></trkpt><trkpt lat="42.0563272" lon="13.5958631"><ele>720.0</ele><time>2026-05-01T11:10:09.029Z</time></trkpt><trkpt lat="42.0562974" lon="13.5955557"><ele>720.0</ele><time>2026-05-01T11:10:10.03Z</time></trkpt><trkpt lat="42.0562684" lon="13.5952563"><ele>720.0</ele><time>2026-05-01T11:10:11.03Z</time></trkpt><trkpt lat="42.0562398" lon="13.594963"><ele>720.0</ele><time>2026-05-01T11:10:12.032Z</time></trkpt><trkpt lat="42.0562127" lon="13.5946605"><ele>720.0</ele><time>2026-05-01T11:10:13.035Z</time></trkpt><trkpt lat="42.0561852" lon="13.5943576"><ele>720.0</ele><time>2026-05-01T11:10:14.039Z</time></trkpt><trkpt lat="42.0561609" lon="13.5940478"><ele>720.0</ele><time>2026-05-01T11:10:15.024Z</time></trkpt><trkpt lat="42.056136" lon="13.5937296"><ele>719.5</ele><time>2026-05-01T11:10:16.068Z</time></trkpt><trkpt lat="42.0561117" lon="13.5934072"><ele>719.0</ele><time>2026-05-01T11:10:17.039Z</time></trkpt><trkpt lat="42.0560995" lon="13.5930808"><ele>718.5</ele><time>2026-05-01T11:10:18.032Z</time></trkpt><trkpt lat="42.0561013" lon="13.5927535"><ele>718.0</ele><time>2026-05-01T11:10:19.036Z</time></trkpt><trkpt lat="42.0561117" lon="13.5924227"><ele>718.0</ele><time>2026-05-01T11:10:20.024Z</time></trkpt><trkpt lat="42.0561313" lon="13.592089"><ele>718.0</ele><time>2026-05-01T11:10:21.038Z</time></trkpt><trkpt lat="42.0561536" lon="13.5917571"><ele>717.0</ele><time>2026-05-01T11:10:22.032Z</time></trkpt><trkpt lat="42.0561748" lon="13.5914298"><ele>716.0</ele><time>2026-05-01T11:10:23.041Z</time></trkpt><trkpt lat="42.0561922" lon="13.5911018"><ele>716.0</ele><time>2026-05-01T11:10:24.054Z</time></trkpt><trkpt lat="42.0562099" lon="13.5907759"><ele>716.0</ele><time>2026-05-01T11:10:25.032Z</time></trkpt><trkpt lat="42.0562299" lon="13.5904507"><ele>715.0</ele><time>2026-05-01T11:10:26.028Z</time></trkpt><trkpt lat="42.0562514" lon="13.5901203"><ele>714.0</ele><time>2026-05-01T11:10:27.027Z</time></trkpt><trkpt lat="42.0562735" lon="13.5897866"><ele>714.0</ele><time>2026-05-01T11:10:28.05Z</time></trkpt><trkpt lat="42.0562919" lon="13.5894551"><ele>714.0</ele><time>2026-05-01T11:10:29.02Z</time></trkpt><trkpt lat="42.0563116" lon="13.5891254"><ele>714.0</ele><time>2026-05-01T11:10:30.036Z</time></trkpt><trkpt lat="42.0563319" lon="13.5887881"><ele>714.0</ele><time>2026-05-01T11:10:31.049Z</time></trkpt><trkpt lat="42.0563481" lon="13.588454"><ele>713.0</ele><time>2026-05-01T11:10:32.041Z</time></trkpt><trkpt lat="42.0563711" lon="13.5881235"><ele>712.0</ele><time>2026-05-01T11:10:33.038Z</time></trkpt><trkpt lat="42.0563896" lon="13.5877906"><ele>711.0</ele><time>2026-05-01T11:10:34.037Z</time></trkpt><trkpt lat="42.0564122" lon="13.5874571"><ele>710.0</ele><time>2026-05-01T11:10:35.032Z</time></trkpt><trkpt lat="42.0564313" lon="13.5871291"><ele>708.5</ele><time>2026-05-01T11:10:36.026Z</time></trkpt><trkpt lat="42.0564482" lon="13.5868065"><ele>707.0</ele><time>2026-05-01T11:10:37.055Z</time></trkpt><trkpt lat="42.0564647" lon="13.5864927"><ele>707.0</ele><time>2026-05-01T11:10:38.047Z</time></trkpt><trkpt lat="42.0564847" lon="13.5861911"><ele>707.0</ele><time>2026-05-01T11:10:39.036Z</time></trkpt><trkpt lat="42.0564979" lon="13.5858943"><ele>707.0</ele><time>2026-05-01T11:10:40.035Z</time></trkpt><trkpt lat="42.0565153" lon="13.5856016"><ele>705.3333333333333</ele><time>2026-05-01T11:10:41.038Z</time></trkpt><trkpt lat="42.0565337" lon="13.5853212"><ele>703.6666666666666</ele><time>2026-05-01T11:10:42.031Z</time></trkpt><trkpt lat="42.0565505" lon="13.5850479"><ele>702.0</ele><time>2026-05-01T11:10:43.026Z</time></trkpt><trkpt lat="42.0565655" lon="13.5847721"><ele>700.6666666666666</ele><time>2026-05-01T11:10:44.03Z</time></trkpt><trkpt lat="42.0565652" lon="13.5845008"><ele>699.3333333333333</ele><time>2026-05-01T11:10:45.02Z</time></trkpt><trkpt lat="42.0565357" lon="13.5842436"><ele>698.0</ele><time>2026-05-01T11:10:46.035Z</time></trkpt><trkpt lat="42.0564868" lon="13.5839825"><ele>698.0</ele><time>2026-05-01T11:10:47.036Z</time></trkpt><trkpt lat="42.0564157" lon="13.5837201"><ele>698.0</ele><time>2026-05-01T11:10:48.032Z</time></trkpt><trkpt lat="42.0563383" lon="13.5834732"><ele>698.0</ele><time>2026-05-01T11:10:49.035Z</time></trkpt><trkpt lat="42.0562583" lon="13.5832406"><ele>697.3333333333333</ele><time>2026-05-01T11:10:50.035Z</time></trkpt><trkpt lat="42.0561886" lon="13.583011"><ele>696.6666666666666</ele><time>2026-05-01T11:10:51.049Z</time></trkpt><trkpt lat="42.0561269" lon="13.5827982"><ele>696.0</ele><time>2026-05-01T11:10:52.039Z</time></trkpt><trkpt lat="42.0560854" lon="13.5825928"><ele>695.75</ele><time>2026-05-01T11:10:53.031Z</time></trkpt><trkpt lat="42.05607" lon="13.5823782"><ele>695.5</ele><time>2026-05-01T11:10:54.033Z</time></trkpt><trkpt lat="42.056071" lon="13.5821839"><ele>695.25</ele><time>2026-05-01T11:10:55.029Z</time></trkpt><trkpt lat="42.056083" lon="13.5819993"><ele>695.0</ele><time>2026-05-01T11:10:56.029Z</time></trkpt><trkpt lat="42.0561082" lon="13.5818291"><ele>694.25</ele><time>2026-05-01T11:10:57.026Z</time></trkpt><trkpt lat="42.0561617" lon="13.5816791"><ele>693.5</ele><time>2026-05-01T11:10:58.028Z</time></trkpt><trkpt lat="42.0562304" lon="13.5815452"><ele>692.75</ele><time>2026-05-01T11:10:59.027Z</time></trkpt><trkpt lat="42.0562954" lon="13.5814017"><ele>692.0</ele><time>2026-05-01T11:11:00.027Z</time></trkpt><trkpt lat="42.056328" lon="13.5812402"><ele>691.25</ele><time>2026-05-01T11:11:01.033Z</time></trkpt><trkpt lat="42.0563445" lon="13.5810649"><ele>690.5</ele><time>2026-05-01T11:11:02.025Z</time></trkpt><trkpt lat="42.0563474" lon="13.5808822"><ele>689.75</ele><time>2026-05-01T11:11:03.04Z</time></trkpt><trkpt lat="42.056385" lon="13.5807011"><ele>689.0</ele><time>2026-05-01T11:11:04.029Z</time></trkpt><trkpt lat="42.0564657" lon="13.5805225"><ele>689.0</ele><time>2026-05-01T11:11:05.032Z</time></trkpt><trkpt lat="42.0565585" lon="13.5803504"><ele>689.0</ele><time>2026-05-01T11:11:06.028Z</time></trkpt><trkpt lat="42.0566514" lon="13.5801786"><ele>689.0</ele><time>2026-05-01T11:11:07.034Z</time></trkpt><trkpt lat="42.0567307" lon="13.5799823"><ele>689.0</ele><time>2026-05-01T11:11:08.033Z</time></trkpt><trkpt lat="42.0568034" lon="13.5797803"><ele>689.0</ele><time>2026-05-01T11:11:09.044Z</time></trkpt><trkpt lat="42.0568572" lon="13.5795671"><ele>689.0</ele><time>2026-05-01T11:11:10.031Z</time></trkpt><trkpt lat="42.0568988" lon="13.5793315"><ele>689.0</ele><time>2026-05-01T11:11:11.025Z</time></trkpt><trkpt lat="42.0569244" lon="13.5790726"><ele>689.0</ele><time>2026-05-01T11:11:12.032Z</time></trkpt><trkpt lat="42.0569415" lon="13.5788075"><ele>689.0</ele><time>2026-05-01T11:11:13.04Z</time></trkpt><trkpt lat="42.056954" lon="13.5785236"><ele>688.3333333333333</ele><time>2026-05-01T11:11:14.033Z</time></trkpt><trkpt lat="42.0569666" lon="13.5782314"><ele>687.6666666666666</ele><time>2026-05-01T11:11:15.027Z</time></trkpt><trkpt lat="42.0569831" lon="13.5779361"><ele>687.0</ele><time>2026-05-01T11:11:16.031Z</time></trkpt><trkpt lat="42.0570033" lon="13.5776374"><ele>687.0</ele><time>2026-05-01T11:11:17.029Z</time></trkpt><trkpt lat="42.0570211" lon="13.5773358"><ele>687.0</ele><time>2026-05-01T11:11:18.042Z</time></trkpt><trkpt lat="42.0570373" lon="13.5770293"><ele>687.0</ele><time>2026-05-01T11:11:19.024Z</time></trkpt><trkpt lat="42.0570559" lon="13.5767173"><ele>687.0</ele><time>2026-05-01T11:11:20.028Z</time></trkpt><trkpt lat="42.0570759" lon="13.5763988"><ele>686.5</ele><time>2026-05-01T11:11:21.041Z</time></trkpt><trkpt lat="42.0570959" lon="13.5760812"><ele>686.0</ele><time>2026-05-01T11:11:22.039Z</time></trkpt><trkpt lat="42.0571158" lon="13.5757583"><ele>686.0</ele><time>2026-05-01T11:11:23.054Z</time></trkpt><trkpt lat="42.0571366" lon="13.5754331"><ele>686.0</ele><time>2026-05-01T11:11:24.028Z</time></trkpt><trkpt lat="42.0571591" lon="13.5750991"><ele>686.5</ele><time>2026-05-01T11:11:25.034Z</time></trkpt><trkpt lat="42.0571773" lon="13.5747686"><ele>687.0</ele><time>2026-05-01T11:11:26.027Z</time></trkpt><trkpt lat="42.057193" lon="13.574434"><ele>687.5</ele><time>2026-05-01T11:11:27.051Z</time></trkpt><trkpt lat="42.0572117" lon="13.5740988"><ele>688.0</ele><time>2026-05-01T11:11:28.027Z</time></trkpt><trkpt lat="42.0572308" lon="13.5737635"><ele>687.5</ele><time>2026-05-01T11:11:29.025Z</time></trkpt><trkpt lat="42.057249" lon="13.5734298"><ele>687.0</ele><time>2026-05-01T11:11:30.051Z</time></trkpt><trkpt lat="42.0572691" lon="13.5730969"><ele>685.0</ele><time>2026-05-01T11:11:31.027Z</time></trkpt><trkpt lat="42.0572914" lon="13.5727663"><ele>683.0</ele><time>2026-05-01T11:11:32.029Z</time></trkpt><trkpt lat="42.0573121" lon="13.5724362"><ele>683.0</ele><time>2026-05-01T11:11:33.043Z</time></trkpt><trkpt lat="42.0573312" lon="13.5721042"><ele>683.0</ele><time>2026-05-01T11:11:34.031Z</time></trkpt><trkpt lat="42.0573519" lon="13.571779"><ele>682.5</ele><time>2026-05-01T11:11:35.034Z</time></trkpt><trkpt lat="42.0573711" lon="13.5714542"><ele>682.0</ele><time>2026-05-01T11:11:36.04Z</time></trkpt><trkpt lat="42.0573891" lon="13.57113"><ele>683.0</ele><time>2026-05-01T11:11:37.037Z</time></trkpt><trkpt lat="42.0574054" lon="13.5708035"><ele>684.0</ele><time>2026-05-01T11:11:38.032Z</time></trkpt><trkpt lat="42.0574227" lon="13.5704837"><ele>684.5</ele><time>2026-05-01T11:11:39.029Z</time></trkpt><trkpt lat="42.057441" lon="13.5701616"><ele>685.0</ele><time>2026-05-01T11:11:40.036Z</time></trkpt><trkpt lat="42.0574581" lon="13.5698471"><ele>685.0</ele><time>2026-05-01T11:11:41.03Z</time></trkpt><trkpt lat="42.0574758" lon="13.5695437"><ele>685.0</ele><time>2026-05-01T11:11:42.029Z</time></trkpt><trkpt lat="42.0574945" lon="13.5692443"><ele>685.0</ele><time>2026-05-01T11:11:43.034Z</time></trkpt><trkpt lat="42.0575141" lon="13.5689617"><ele>686.0</ele><time>2026-05-01T11:11:44.03Z</time></trkpt><trkpt lat="42.0575273" lon="13.5686915"><ele>687.0</ele><time>2026-05-01T11:11:45.041Z</time></trkpt><trkpt lat="42.0575437" lon="13.5684307"><ele>688.0</ele><time>2026-05-01T11:11:46.038Z</time></trkpt><trkpt lat="42.0575625" lon="13.5681929"><ele>688.0</ele><time>2026-05-01T11:11:47.043Z</time></trkpt><trkpt lat="42.0575862" lon="13.5679774"><ele>688.0</ele><time>2026-05-01T11:11:48.068Z</time></trkpt><trkpt lat="42.0576118" lon="13.5677821"><ele>688.0</ele><time>2026-05-01T11:11:49.035Z</time></trkpt><trkpt lat="42.0576461" lon="13.5676116"><ele>688.0</ele><time>2026-05-01T11:11:50.03Z</time></trkpt><trkpt lat="42.0576955" lon="13.5674594"><ele>688.2</ele><time>2026-05-01T11:11:51.025Z</time></trkpt><trkpt lat="42.0577495" lon="13.5673337"><ele>688.4</ele><time>2026-05-01T11:11:52.04Z</time></trkpt><trkpt lat="42.0578005" lon="13.5672269"><ele>688.6</ele><time>2026-05-01T11:11:53.035Z</time></trkpt><trkpt lat="42.0578269" lon="13.5671135"><ele>688.8000000000001</ele><time>2026-05-01T11:11:54.073Z</time></trkpt><trkpt lat="42.057814" lon="13.5670056"><ele>689.0</ele><time>2026-05-01T11:11:55.037Z</time></trkpt><trkpt lat="42.0577606" lon="13.5668936"><ele>689.0</ele><time>2026-05-01T11:11:56.031Z</time></trkpt><trkpt lat="42.0577055" lon="13.5667759"><ele>689.0</ele><time>2026-05-01T11:11:57.028Z</time></trkpt><trkpt lat="42.0576811" lon="13.5666204"><ele>689.0</ele><time>2026-05-01T11:11:58.027Z</time></trkpt><trkpt lat="42.0576844" lon="13.566443"><ele>689.0</ele><time>2026-05-01T11:11:59.037Z</time></trkpt><trkpt lat="42.0576906" lon="13.5662473"><ele>689.0</ele><time>2026-05-01T11:12:00.029Z</time></trkpt><trkpt lat="42.0576964" lon="13.5660247"><ele>689.0</ele><time>2026-05-01T11:12:01.025Z</time></trkpt><trkpt lat="42.0577042" lon="13.5657932"><ele>689.0</ele><time>2026-05-01T11:12:02.043Z</time></trkpt><trkpt lat="42.0577135" lon="13.5655451"><ele>689.3333333333333</ele><time>2026-05-01T11:12:03.031Z</time></trkpt><trkpt lat="42.0577276" lon="13.5652871"><ele>689.6666666666666</ele><time>2026-05-01T11:12:04.032Z</time></trkpt><trkpt lat="42.057743" lon="13.5650196"><ele>690.0</ele><time>2026-05-01T11:12:05.039Z</time></trkpt><trkpt lat="42.0577555" lon="13.5647395"><ele>690.6666666666666</ele><time>2026-05-01T11:12:06.033Z</time></trkpt><trkpt lat="42.0577734" lon="13.5644618"><ele>691.3333333333333</ele><time>2026-05-01T11:12:07.038Z</time></trkpt><trkpt lat="42.0577915" lon="13.5641718"><ele>692.0</ele><time>2026-05-01T11:12:08.047Z</time></trkpt><trkpt lat="42.0578086" lon="13.5638795"><ele>692.0</ele><time>2026-05-01T11:12:09.029Z</time></trkpt><trkpt lat="42.0578232" lon="13.5635802"><ele>692.0</ele><time>2026-05-01T11:12:10.041Z</time></trkpt><trkpt lat="42.0578404" lon="13.5632809"><ele>692.0</ele><time>2026-05-01T11:12:11.028Z</time></trkpt><trkpt lat="42.0578551" lon="13.5629743"><ele>692.5</ele><time>2026-05-01T11:12:12.021Z</time></trkpt><trkpt lat="42.0578739" lon="13.5626706"><ele>693.0</ele><time>2026-05-01T11:12:13.029Z</time></trkpt><trkpt lat="42.0578918" lon="13.5623672"><ele>693.0</ele><time>2026-05-01T11:12:14.031Z</time></trkpt><trkpt lat="42.0579077" lon="13.5620655"><ele>693.0</ele><time>2026-05-01T11:12:15.03Z</time></trkpt><trkpt lat="42.057921" lon="13.5617732"><ele>693.0</ele><time>2026-05-01T11:12:16.041Z</time></trkpt><trkpt lat="42.0579365" lon="13.5614872"><ele>693.0</ele><time>2026-05-01T11:12:17.028Z</time></trkpt><trkpt lat="42.0579519" lon="13.561214"><ele>693.0</ele><time>2026-05-01T11:12:18.041Z</time></trkpt><trkpt lat="42.0579675" lon="13.5609544"><ele>693.0</ele><time>2026-05-01T11:12:19.027Z</time></trkpt><trkpt lat="42.0579847" lon="13.560709"><ele>693.0</ele><time>2026-05-01T11:12:20.038Z</time></trkpt><trkpt lat="42.0580035" lon="13.5604761"><ele>693.0</ele><time>2026-05-01T11:12:21.03Z</time></trkpt><trkpt lat="42.058033" lon="13.5602569"><ele>693.0</ele><time>2026-05-01T11:12:22.032Z</time></trkpt><trkpt lat="42.0580699" lon="13.5600583"><ele>693.0</ele><time>2026-05-01T11:12:23.035Z</time></trkpt><trkpt lat="42.0581123" lon="13.5598829"><ele>693.0</ele><time>2026-05-01T11:12:24.026Z</time></trkpt><trkpt lat="42.0581638" lon="13.5597348"><ele>693.0</ele><time>2026-05-01T11:12:25.031Z</time></trkpt><trkpt lat="42.0582255" lon="13.5596078"><ele>693.0</ele><time>2026-05-01T11:12:26.041Z</time></trkpt><trkpt lat="42.0583046" lon="13.5595216"><ele>693.0</ele><time>2026-05-01T11:12:27.033Z</time></trkpt><trkpt lat="42.0583783" lon="13.5594394"><ele>693.0</ele><time>2026-05-01T11:12:28.029Z</time></trkpt><trkpt lat="42.0584309" lon="13.5593388"><ele>693.0</ele><time>2026-05-01T11:12:29.031Z</time></trkpt><trkpt lat="42.0584503" lon="13.5592093"><ele>693.0</ele><time>2026-05-01T11:12:30.028Z</time></trkpt><trkpt lat="42.05843" lon="13.5590766"><ele>693.0</ele><time>2026-05-01T11:12:31.036Z</time></trkpt><trkpt lat="42.0583666" lon="13.5589551"><ele>693.0</ele><time>2026-05-01T11:12:32.037Z</time></trkpt><trkpt lat="42.0582787" lon="13.558845"><ele>693.0</ele><time>2026-05-01T11:12:33.019Z</time></trkpt><trkpt lat="42.0582047" lon="13.5587177"><ele>693.0</ele><time>2026-05-01T11:12:34.024Z</time></trkpt><trkpt lat="42.0581852" lon="13.5585319"><ele>693.0</ele><time>2026-05-01T11:12:35.04Z</time></trkpt><trkpt lat="42.0581649" lon="13.5583369"><ele>693.3333333333334</ele><time>2026-05-01T11:12:36.041Z</time></trkpt><trkpt lat="42.058154" lon="13.5581318"><ele>693.6666666666667</ele><time>2026-05-01T11:12:37.023Z</time></trkpt><trkpt lat="42.0581521" lon="13.5579195"><ele>694.0</ele><time>2026-05-01T11:12:38.046Z</time></trkpt><trkpt lat="42.0581646" lon="13.5576999"><ele>694.3333333333334</ele><time>2026-05-01T11:12:39.033Z</time></trkpt><trkpt lat="42.0581779" lon="13.5574669"><ele>694.6666666666666</ele><time>2026-05-01T11:12:40.039Z</time></trkpt><trkpt lat="42.0581899" lon="13.5572222"><ele>695.0</ele><time>2026-05-01T11:12:41.034Z</time></trkpt><trkpt lat="42.0581981" lon="13.5569681"><ele>695.3333333333333</ele><time>2026-05-01T11:12:42.029Z</time></trkpt><trkpt lat="42.0582099" lon="13.556706"><ele>695.6666666666666</ele><time>2026-05-01T11:12:43.031Z</time></trkpt><trkpt lat="42.0582272" lon="13.5564388"><ele>696.0</ele><time>2026-05-01T11:12:44.033Z</time></trkpt><trkpt lat="42.0582489" lon="13.5561654"><ele>696.0</ele><time>2026-05-01T11:12:45.033Z</time></trkpt><trkpt lat="42.0582726" lon="13.5558855"><ele>696.0</ele><time>2026-05-01T11:12:46.026Z</time></trkpt><trkpt lat="42.0583027" lon="13.5556028"><ele>696.0</ele><time>2026-05-01T11:12:47.042Z</time></trkpt><trkpt lat="42.0583353" lon="13.5553162"><ele>696.6666666666666</ele><time>2026-05-01T11:12:48.031Z</time></trkpt><trkpt lat="42.0583733" lon="13.555025"><ele>697.3333333333333</ele><time>2026-05-01T11:12:49.035Z</time></trkpt><trkpt lat="42.0584141" lon="13.5547289"><ele>698.0</ele><time>2026-05-01T11:12:50.03Z</time></trkpt><trkpt lat="42.0584567" lon="13.5544249"><ele>698.5</ele><time>2026-05-01T11:12:51.036Z</time></trkpt><trkpt lat="42.0585041" lon="13.5541248"><ele>699.0</ele><time>2026-05-01T11:12:52.034Z</time></trkpt><trkpt lat="42.0585537" lon="13.5538201"><ele>697.0</ele><time>2026-05-01T11:12:53.035Z</time></trkpt><trkpt lat="42.0586048" lon="13.5535166"><ele>695.0</ele><time>2026-05-01T11:12:54.034Z</time></trkpt><trkpt lat="42.0586562" lon="13.5532123"><ele>695.0</ele><time>2026-05-01T11:12:55.034Z</time></trkpt><trkpt lat="42.0587055" lon="13.5529071"><ele>695.0</ele><time>2026-05-01T11:12:56.032Z</time></trkpt><trkpt lat="42.0587522" lon="13.552598"><ele>694.0</ele><time>2026-05-01T11:12:57.048Z</time></trkpt><trkpt lat="42.0588037" lon="13.5522916"><ele>693.0</ele><time>2026-05-01T11:12:58.037Z</time></trkpt><trkpt lat="42.0588533" lon="13.5519854"><ele>692.5</ele><time>2026-05-01T11:12:59.034Z</time></trkpt><trkpt lat="42.0589011" lon="13.5516817"><ele>692.0</ele><time>2026-05-01T11:13:00.026Z</time></trkpt><trkpt lat="42.0589553" lon="13.5513786"><ele>693.5</ele><time>2026-05-01T11:13:01.04Z</time></trkpt><trkpt lat="42.0590047" lon="13.5510769"><ele>695.0</ele><time>2026-05-01T11:13:02.036Z</time></trkpt><trkpt lat="42.0590535" lon="13.5507737"><ele>695.0</ele><time>2026-05-01T11:13:03.028Z</time></trkpt><trkpt lat="42.0591045" lon="13.5504725"><ele>695.0</ele><time>2026-05-01T11:13:04.038Z</time></trkpt><trkpt lat="42.0591527" lon="13.5501694"><ele>696.0</ele><time>2026-05-01T11:13:05.045Z</time></trkpt><trkpt lat="42.0592027" lon="13.5498703"><ele>697.0</ele><time>2026-05-01T11:13:06.045Z</time></trkpt><trkpt lat="42.059251" lon="13.5495672"><ele>697.0</ele><time>2026-05-01T11:13:07.043Z</time></trkpt><trkpt lat="42.0593025" lon="13.5492643"><ele>697.0</ele><time>2026-05-01T11:13:08.034Z</time></trkpt><trkpt lat="42.0593513" lon="13.5489633"><ele>696.0</ele><time>2026-05-01T11:13:09.038Z</time></trkpt><trkpt lat="42.0593984" lon="13.5486597"><ele>695.0</ele><time>2026-05-01T11:13:10.037Z</time></trkpt><trkpt lat="42.0594475" lon="13.5483516"><ele>695.0</ele><time>2026-05-01T11:13:11.039Z</time></trkpt><trkpt lat="42.0594958" lon="13.5480398"><ele>695.0</ele><time>2026-05-01T11:13:12.025Z</time></trkpt><trkpt lat="42.0595462" lon="13.5477305"><ele>695.5</ele><time>2026-05-01T11:13:13.03Z</time></trkpt><trkpt lat="42.0595979" lon="13.5474161"><ele>696.0</ele><time>2026-05-01T11:13:14.029Z</time></trkpt><trkpt lat="42.0596483" lon="13.5471135"><ele>695.5</ele><time>2026-05-01T11:13:15.021Z</time></trkpt><trkpt lat="42.0596988" lon="13.546809"><ele>695.0</ele><time>2026-05-01T11:13:16.028Z</time></trkpt><trkpt lat="42.0597492" lon="13.5465096"><ele>695.0</ele><time>2026-05-01T11:13:17.033Z</time></trkpt><trkpt lat="42.0597961" lon="13.5462151"><ele>695.0</ele><time>2026-05-01T11:13:18.032Z</time></trkpt><trkpt lat="42.0598419" lon="13.5459226"><ele>695.0</ele><time>2026-05-01T11:13:19.042Z</time></trkpt><trkpt lat="42.0598873" lon="13.5456321"><ele>695.0</ele><time>2026-05-01T11:13:20.033Z</time></trkpt><trkpt lat="42.0599349" lon="13.5453434"><ele>695.0</ele><time>2026-05-01T11:13:21.062Z</time></trkpt><trkpt lat="42.0599827" lon="13.5450492"><ele>695.0</ele><time>2026-05-01T11:13:22.029Z</time></trkpt><trkpt lat="42.0600315" lon="13.544752"><ele>695.5</ele><time>2026-05-01T11:13:23.037Z</time></trkpt><trkpt lat="42.0600792" lon="13.5444551"><ele>696.0</ele><time>2026-05-01T11:13:24.042Z</time></trkpt><trkpt lat="42.0601248" lon="13.5441586"><ele>696.0</ele><time>2026-05-01T11:13:25.036Z</time></trkpt><trkpt lat="42.0601759" lon="13.5438598"><ele>696.0</ele><time>2026-05-01T11:13:26.04Z</time></trkpt><trkpt lat="42.0602242" lon="13.5435573"><ele>696.5</ele><time>2026-05-01T11:13:27.035Z</time></trkpt><trkpt lat="42.0602707" lon="13.5432527"><ele>697.0</ele><time>2026-05-01T11:13:28.035Z</time></trkpt><trkpt lat="42.0603214" lon="13.5429499"><ele>696.5</ele><time>2026-05-01T11:13:29.026Z</time></trkpt><trkpt lat="42.0603723" lon="13.5426457"><ele>696.0</ele><time>2026-05-01T11:13:30.031Z</time></trkpt><trkpt lat="42.0604224" lon="13.542339"><ele>696.0</ele><time>2026-05-01T11:13:31.02Z</time></trkpt><trkpt lat="42.0604718" lon="13.5420375"><ele>696.0</ele><time>2026-05-01T11:13:32.063Z</time></trkpt><trkpt lat="42.0605223" lon="13.54173"><ele>696.0</ele><time>2026-05-01T11:13:33.039Z</time></trkpt><trkpt lat="42.0605721" lon="13.5414314"><ele>696.0</ele><time>2026-05-01T11:13:34.041Z</time></trkpt><trkpt lat="42.0606236" lon="13.5411294"><ele>695.0</ele><time>2026-05-01T11:13:35.024Z</time></trkpt><trkpt lat="42.0606758" lon="13.5408315"><ele>694.0</ele><time>2026-05-01T11:13:36.024Z</time></trkpt><trkpt lat="42.0607242" lon="13.5405306"><ele>693.5</ele><time>2026-05-01T11:13:37.037Z</time></trkpt><trkpt lat="42.060773" lon="13.5402295"><ele>693.0</ele><time>2026-05-01T11:13:38.023Z</time></trkpt><trkpt lat="42.0608183" lon="13.5399245"><ele>694.0</ele><time>2026-05-01T11:13:39.049Z</time></trkpt><trkpt lat="42.0608669" lon="13.5396245"><ele>695.0</ele><time>2026-05-01T11:13:40.033Z</time></trkpt><trkpt lat="42.060917" lon="13.5393255"><ele>695.0</ele><time>2026-05-01T11:13:41.031Z</time></trkpt><trkpt lat="42.0609614" lon="13.5390222"><ele>695.0</ele><time>2026-05-01T11:13:42.033Z</time></trkpt><trkpt lat="42.0610064" lon="13.5387264"><ele>694.6666666666666</ele><time>2026-05-01T11:13:43.024Z</time></trkpt><trkpt lat="42.0610535" lon="13.5384315"><ele>694.3333333333334</ele><time>2026-05-01T11:13:44.042Z</time></trkpt><trkpt lat="42.0611038" lon="13.5381422"><ele>694.0</ele><time>2026-05-01T11:13:45.027Z</time></trkpt><trkpt lat="42.0611534" lon="13.5378539"><ele>693.6666666666667</ele><time>2026-05-01T11:13:46.029Z</time></trkpt><trkpt lat="42.0611997" lon="13.5375668"><ele>693.3333333333334</ele><time>2026-05-01T11:13:47.027Z</time></trkpt><trkpt lat="42.061247" lon="13.5372815"><ele>693.0</ele><time>2026-05-01T11:13:48.027Z</time></trkpt><trkpt lat="42.061296" lon="13.5370029"><ele>692.0</ele><time>2026-05-01T11:13:49.049Z</time></trkpt><trkpt lat="42.061347" lon="13.536725"><ele>691.0</ele><time>2026-05-01T11:13:50.029Z</time></trkpt><trkpt lat="42.0613915" lon="13.5364452"><ele>690.0</ele><time>2026-05-01T11:13:51.034Z</time></trkpt><trkpt lat="42.0614331" lon="13.5361762"><ele>689.3333333333334</ele><time>2026-05-01T11:13:52.034Z</time></trkpt><trkpt lat="42.0614751" lon="13.5359112"><ele>688.6666666666667</ele><time>2026-05-01T11:13:53.029Z</time></trkpt><trkpt lat="42.0615122" lon="13.5356436"><ele>688.0</ele><time>2026-05-01T11:13:54.033Z</time></trkpt><trkpt lat="42.0615573" lon="13.5353837"><ele>688.0</ele><time>2026-05-01T11:13:55.035Z</time></trkpt><trkpt lat="42.0616013" lon="13.5351317"><ele>688.0</ele><time>2026-05-01T11:13:56.035Z</time></trkpt><trkpt lat="42.0616449" lon="13.5348845"><ele>688.0</ele><time>2026-05-01T11:13:57.033Z</time></trkpt><trkpt lat="42.0616857" lon="13.5346482"><ele>688.0</ele><time>2026-05-01T11:13:58.043Z</time></trkpt><trkpt lat="42.0617247" lon="13.534427"><ele>688.0</ele><time>2026-05-01T11:13:59.03Z</time></trkpt><trkpt lat="42.0617636" lon="13.5342336"><ele>688.0</ele><time>2026-05-01T11:14:00.024Z</time></trkpt><trkpt lat="42.0617979" lon="13.5340611"><ele>688.0</ele><time>2026-05-01T11:14:01.035Z</time></trkpt><trkpt lat="42.0618351" lon="13.5339098"><ele>688.0</ele><time>2026-05-01T11:14:02.029Z</time></trkpt><trkpt lat="42.0618674" lon="13.5338011"><ele>688.0</ele><time>2026-05-01T11:14:03.036Z</time></trkpt><trkpt lat="42.061905" lon="13.533727"><ele>688.0</ele><time>2026-05-01T11:14:04.024Z</time></trkpt><trkpt lat="42.0620161" lon="13.5336534"><ele>688.0</ele><time>2026-05-01T11:14:06.024Z</time></trkpt><trkpt lat="42.0620909" lon="13.5336572"><ele>687.8</ele><time>2026-05-01T11:14:07.016Z</time></trkpt><trkpt lat="42.0621836" lon="13.5336628"><ele>687.5999999999999</ele><time>2026-05-01T11:14:08.036Z</time></trkpt><trkpt lat="42.0622853" lon="13.5336611"><ele>687.4000000000001</ele><time>2026-05-01T11:14:09.029Z</time></trkpt><trkpt lat="42.0624047" lon="13.5336566"><ele>687.2</ele><time>2026-05-01T11:14:10.025Z</time></trkpt><trkpt lat="42.0625395" lon="13.5336717"><ele>687.0</ele><time>2026-05-01T11:14:11.03Z</time></trkpt><trkpt lat="42.0626769" lon="13.5337068"><ele>687.6666666666666</ele><time>2026-05-01T11:14:12.021Z</time></trkpt><trkpt lat="42.0628308" lon="13.5337565"><ele>688.3333333333333</ele><time>2026-05-01T11:14:13.029Z</time></trkpt><trkpt lat="42.0629966" lon="13.5337946"><ele>689.0</ele><time>2026-05-01T11:14:14.036Z</time></trkpt><trkpt lat="42.0631809" lon="13.533831"><ele>689.6666666666666</ele><time>2026-05-01T11:14:15.026Z</time></trkpt><trkpt lat="42.0633657" lon="13.5338643"><ele>690.3333333333334</ele><time>2026-05-01T11:14:16.03Z</time></trkpt><trkpt lat="42.0635459" lon="13.5338887"><ele>691.0</ele><time>2026-05-01T11:14:17.028Z</time></trkpt><trkpt lat="42.0637153" lon="13.5338994"><ele>691.0</ele><time>2026-05-01T11:14:18.019Z</time></trkpt><trkpt lat="42.0638748" lon="13.5339099"><ele>691.0</ele><time>2026-05-01T11:14:19.027Z</time></trkpt><trkpt lat="42.0640065" lon="13.5339137"><ele>691.0</ele><time>2026-05-01T11:14:20.03Z</time></trkpt><trkpt lat="42.0641188" lon="13.5339189"><ele>691.0</ele><time>2026-05-01T11:14:21.029Z</time></trkpt><trkpt lat="42.064212" lon="13.5339455"><ele>691.1666666666667</ele><time>2026-05-01T11:14:22.027Z</time></trkpt><trkpt lat="42.0642915" lon="13.5339908"><ele>691.3333333333334</ele><time>2026-05-01T11:14:23.028Z</time></trkpt><trkpt lat="42.0643632" lon="13.5340289"><ele>691.5</ele><time>2026-05-01T11:14:24.04Z</time></trkpt><trkpt lat="42.0644313" lon="13.5340388"><ele>691.6666666666666</ele><time>2026-05-01T11:14:25.024Z</time></trkpt><trkpt lat="42.0645309" lon="13.5339632"><ele>691.8333333333333</ele><time>2026-05-01T11:14:27.022Z</time></trkpt><trkpt lat="42.0645655" lon="13.5338364"><ele>692.0</ele><time>2026-05-01T11:14:29.023Z</time></trkpt><trkpt lat="42.0646078" lon="13.5337516"><ele>692.0</ele><time>2026-05-01T11:14:32.04Z</time></trkpt><trkpt lat="42.0647143" lon="13.5337493"><ele>692.0</ele><time>2026-05-01T11:14:34.021Z</time></trkpt><trkpt lat="42.0648184" lon="13.5337773"><ele>692.0</ele><time>2026-05-01T11:14:35.024Z</time></trkpt><trkpt lat="42.0649455" lon="13.5338156"><ele>692.0</ele><time>2026-05-01T11:14:36.028Z</time></trkpt><trkpt lat="42.0650984" lon="13.5338722"><ele>692.0</ele><time>2026-05-01T11:14:37.013Z</time></trkpt><trkpt lat="42.0652667" lon="13.5339255"><ele>692.0</ele><time>2026-05-01T11:14:38.017Z</time></trkpt><trkpt lat="42.0654595" lon="13.5339832"><ele>692.0</ele><time>2026-05-01T11:14:39.022Z</time></trkpt><trkpt lat="42.0656583" lon="13.534043"><ele>692.3333333333333</ele><time>2026-05-01T11:14:40.019Z</time></trkpt><trkpt lat="42.0658475" lon="13.5341053"><ele>692.6666666666666</ele><time>2026-05-01T11:14:41.024Z</time></trkpt><trkpt lat="42.0660304" lon="13.5341605"><ele>693.0</ele><time>2026-05-01T11:14:42.017Z</time></trkpt><trkpt lat="42.0662058" lon="13.5342044"><ele>693.0</ele><time>2026-05-01T11:14:43.022Z</time></trkpt><trkpt lat="42.0663811" lon="13.5342434"><ele>693.0</ele><time>2026-05-01T11:14:44.028Z</time></trkpt><trkpt lat="42.0665493" lon="13.5342766"><ele>693.0</ele><time>2026-05-01T11:14:45.024Z</time></trkpt><trkpt lat="42.0667242" lon="13.5343011"><ele>693.3333333333334</ele><time>2026-05-01T11:14:46.025Z</time></trkpt><trkpt lat="42.0669018" lon="13.5343216"><ele>693.6666666666667</ele><time>2026-05-01T11:14:47.025Z</time></trkpt><trkpt lat="42.0670853" lon="13.5343472"><ele>694.0</ele><time>2026-05-01T11:14:48.024Z</time></trkpt><trkpt lat="42.0672735" lon="13.5343725"><ele>694.3333333333334</ele><time>2026-05-01T11:14:49.036Z</time></trkpt><trkpt lat="42.0674671" lon="13.5343967"><ele>694.6666666666666</ele><time>2026-05-01T11:14:50.036Z</time></trkpt><trkpt lat="42.0676521" lon="13.5344137"><ele>695.0</ele><time>2026-05-01T11:14:51.03Z</time></trkpt><trkpt lat="42.0678318" lon="13.534446"><ele>695.0</ele><time>2026-05-01T11:14:52.026Z</time></trkpt><trkpt lat="42.0680054" lon="13.5344725"><ele>695.0</ele><time>2026-05-01T11:14:53.027Z</time></trkpt><trkpt lat="42.0681685" lon="13.5344954"><ele>695.0</ele><time>2026-05-01T11:14:54.03Z</time></trkpt><trkpt lat="42.0683122" lon="13.5345201"><ele>696.25</ele><time>2026-05-01T11:14:55.025Z</time></trkpt><trkpt lat="42.0684416" lon="13.5345611"><ele>697.5</ele><time>2026-05-01T11:14:56.027Z</time></trkpt><trkpt lat="42.0685569" lon="13.534632"><ele>698.75</ele><time>2026-05-01T11:14:57.03Z</time></trkpt><trkpt lat="42.0686503" lon="13.5347418"><ele>700.0</ele><time>2026-05-01T11:14:58.033Z</time></trkpt><trkpt lat="42.0687257" lon="13.5348938"><ele>700.0</ele><time>2026-05-01T11:14:59.022Z</time></trkpt><trkpt lat="42.0687939" lon="13.5350583"><ele>700.0</ele><time>2026-05-01T11:15:00.038Z</time></trkpt><trkpt lat="42.0688697" lon="13.5352286"><ele>700.0</ele><time>2026-05-01T11:15:01.029Z</time></trkpt><trkpt lat="42.0689566" lon="13.5353845"><ele>700.0</ele><time>2026-05-01T11:15:02.031Z</time></trkpt><trkpt lat="42.0690565" lon="13.5355458"><ele>701.3333333333334</ele><time>2026-05-01T11:15:03.022Z</time></trkpt><trkpt lat="42.0691701" lon="13.5357043"><ele>702.6666666666666</ele><time>2026-05-01T11:15:04.039Z</time></trkpt><trkpt lat="42.069291" lon="13.5358535"><ele>704.0</ele><time>2026-05-01T11:15:05.034Z</time></trkpt><trkpt lat="42.0694219" lon="13.5359887"><ele>704.0</ele><time>2026-05-01T11:15:06.031Z</time></trkpt><trkpt lat="42.0695561" lon="13.5361239"><ele>704.0</ele><time>2026-05-01T11:15:07.023Z</time></trkpt><trkpt lat="42.0696973" lon="13.5362603"><ele>704.0</ele><time>2026-05-01T11:15:08.032Z</time></trkpt><trkpt lat="42.0698338" lon="13.5364104"><ele>704.6666666666666</ele><time>2026-05-01T11:15:09.045Z</time></trkpt><trkpt lat="42.0699706" lon="13.5365564"><ele>705.3333333333334</ele><time>2026-05-01T11:15:10.032Z</time></trkpt><trkpt lat="42.0701052" lon="13.5367024"><ele>706.0</ele><time>2026-05-01T11:15:11.032Z</time></trkpt><trkpt lat="42.0702432" lon="13.536843"><ele>706.0</ele><time>2026-05-01T11:15:12.028Z</time></trkpt><trkpt lat="42.0703818" lon="13.5369719"><ele>706.0</ele><time>2026-05-01T11:15:13.035Z</time></trkpt><trkpt lat="42.0705168" lon="13.537099"><ele>706.0</ele><time>2026-05-01T11:15:14.028Z</time></trkpt><trkpt lat="42.0706547" lon="13.537222"><ele>707.0</ele><time>2026-05-01T11:15:15.028Z</time></trkpt><trkpt lat="42.0707853" lon="13.5373474"><ele>708.0</ele><time>2026-05-01T11:15:16.029Z</time></trkpt><trkpt lat="42.0709178" lon="13.5374645"><ele>709.0</ele><time>2026-05-01T11:15:17.02Z</time></trkpt><trkpt lat="42.0710456" lon="13.5375748"><ele>709.0</ele><time>2026-05-01T11:15:18.025Z</time></trkpt><trkpt lat="42.0711852" lon="13.5376812"><ele>709.0</ele><time>2026-05-01T11:15:19.018Z</time></trkpt><trkpt lat="42.0713254" lon="13.5377908"><ele>709.0</ele><time>2026-05-01T11:15:20.025Z</time></trkpt><trkpt lat="42.0714826" lon="13.5379081"><ele>710.0</ele><time>2026-05-01T11:15:21.028Z</time></trkpt><trkpt lat="42.0716526" lon="13.5380245"><ele>711.0</ele><time>2026-05-01T11:15:22.022Z</time></trkpt><trkpt lat="42.0718278" lon="13.5381446"><ele>712.0</ele><time>2026-05-01T11:15:23.026Z</time></trkpt><trkpt lat="42.0719998" lon="13.5382661"><ele>712.0</ele><time>2026-05-01T11:15:24.062Z</time></trkpt><trkpt lat="42.0721605" lon="13.5383826"><ele>712.0</ele><time>2026-05-01T11:15:25.025Z</time></trkpt><trkpt lat="42.0723013" lon="13.5385012"><ele>712.0</ele><time>2026-05-01T11:15:26.023Z</time></trkpt><trkpt lat="42.0724166" lon="13.5386254"><ele>712.5</ele><time>2026-05-01T11:15:27.025Z</time></trkpt><trkpt lat="42.0725049" lon="13.5387501"><ele>713.0</ele><time>2026-05-01T11:15:28.038Z</time></trkpt><trkpt lat="42.0725861" lon="13.5388564"><ele>713.5</ele><time>2026-05-01T11:15:29.036Z</time></trkpt><trkpt lat="42.0726753" lon="13.5389299"><ele>714.0</ele><time>2026-05-01T11:15:30.038Z</time></trkpt><trkpt lat="42.0727875" lon="13.53896"><ele>714.0</ele><time>2026-05-01T11:15:31.024Z</time></trkpt><trkpt lat="42.0729145" lon="13.5389474"><ele>714.0</ele><time>2026-05-01T11:15:32.031Z</time></trkpt><trkpt lat="42.0730635" lon="13.5388876"><ele>714.0</ele><time>2026-05-01T11:15:33.029Z</time></trkpt><trkpt lat="42.0732043" lon="13.5388296"><ele>714.0</ele><time>2026-05-01T11:15:34.033Z</time></trkpt><trkpt lat="42.0733294" lon="13.5387845"><ele>714.6</ele><time>2026-05-01T11:15:35.041Z</time></trkpt><trkpt lat="42.0734288" lon="13.5387514"><ele>715.2</ele><time>2026-05-01T11:15:36.028Z</time></trkpt><trkpt lat="42.0735119" lon="13.5387714"><ele>715.8000000000001</ele><time>2026-05-01T11:15:37.026Z</time></trkpt><trkpt lat="42.073595" lon="13.5388412"><ele>716.4000000000001</ele><time>2026-05-01T11:15:38.025Z</time></trkpt><trkpt lat="42.0736712" lon="13.5389532"><ele>717.0</ele><time>2026-05-01T11:15:39.041Z</time></trkpt><trkpt lat="42.0737358" lon="13.5390999"><ele>717.0</ele><time>2026-05-01T11:15:40.027Z</time></trkpt><trkpt lat="42.0737824" lon="13.5392535"><ele>717.0</ele><time>2026-05-01T11:15:41.022Z</time></trkpt><trkpt lat="42.0738377" lon="13.5393749"><ele>717.0</ele><time>2026-05-01T11:15:42.025Z</time></trkpt><trkpt lat="42.0739263" lon="13.5394657"><ele>717.0</ele><time>2026-05-01T11:15:43.026Z</time></trkpt><trkpt lat="42.0740418" lon="13.5395008"><ele>717.6666666666666</ele><time>2026-05-01T11:15:44.04Z</time></trkpt><trkpt lat="42.0741839" lon="13.5394964"><ele>718.3333333333333</ele><time>2026-05-01T11:15:45.038Z</time></trkpt><trkpt lat="42.0743386" lon="13.5394822"><ele>719.0</ele><time>2026-05-01T11:15:46.039Z</time></trkpt><trkpt lat="42.0745056" lon="13.5394494"><ele>719.0</ele><time>2026-05-01T11:15:47.038Z</time></trkpt><trkpt lat="42.0746749" lon="13.5394172"><ele>719.0</ele><time>2026-05-01T11:15:48.036Z</time></trkpt><trkpt lat="42.0748618" lon="13.5393901"><ele>719.0</ele><time>2026-05-01T11:15:49.025Z</time></trkpt><trkpt lat="42.0750681" lon="13.5393637"><ele>720.0</ele><time>2026-05-01T11:15:50.031Z</time></trkpt><trkpt lat="42.0752794" lon="13.5393402"><ele>721.0</ele><time>2026-05-01T11:15:51.008Z</time></trkpt><trkpt lat="42.0755014" lon="13.5393174"><ele>722.0</ele><time>2026-05-01T11:15:52.025Z</time></trkpt><trkpt lat="42.0757082" lon="13.5392917"><ele>723.0</ele><time>2026-05-01T11:15:53.031Z</time></trkpt><trkpt lat="42.0758982" lon="13.5392662"><ele>724.0</ele><time>2026-05-01T11:15:54.039Z</time></trkpt><trkpt lat="42.0760676" lon="13.539244"><ele>725.0</ele><time>2026-05-01T11:15:55.039Z</time></trkpt><trkpt lat="42.0762317" lon="13.5392314"><ele>725.0</ele><time>2026-05-01T11:15:56.04Z</time></trkpt><trkpt lat="42.0763794" lon="13.5392294"><ele>725.0</ele><time>2026-05-01T11:15:57.032Z</time></trkpt><trkpt lat="42.0765078" lon="13.5392511"><ele>725.0</ele><time>2026-05-01T11:15:58.028Z</time></trkpt><trkpt lat="42.0766236" lon="13.5392905"><ele>725.0</ele><time>2026-05-01T11:15:59.035Z</time></trkpt><trkpt lat="42.0767291" lon="13.5393297"><ele>725.5</ele><time>2026-05-01T11:16:00.035Z</time></trkpt><trkpt lat="42.0768188" lon="13.5393763"><ele>726.0</ele><time>2026-05-01T11:16:01.027Z</time></trkpt><trkpt lat="42.0769076" lon="13.5394239"><ele>726.5</ele><time>2026-05-01T11:16:02.071Z</time></trkpt><trkpt lat="42.0769921" lon="13.5394668"><ele>727.0</ele><time>2026-05-01T11:16:03.029Z</time></trkpt><trkpt lat="42.0770717" lon="13.5394968"><ele>727.5</ele><time>2026-05-01T11:16:04.043Z</time></trkpt><trkpt lat="42.077141" lon="13.5394972"><ele>728.0</ele><time>2026-05-01T11:16:05.019Z</time></trkpt><trkpt lat="42.0772023" lon="13.5394742"><ele>728.0</ele><time>2026-05-01T11:16:06.049Z</time></trkpt><trkpt lat="42.077272" lon="13.5393421"><ele>728.0</ele><time>2026-05-01T11:16:08.028Z</time></trkpt><trkpt lat="42.0772729" lon="13.5392426"><ele>728.0</ele><time>2026-05-01T11:16:09.028Z</time></trkpt><trkpt lat="42.0772555" lon="13.5391262"><ele>728.0</ele><time>2026-05-01T11:16:10.036Z</time></trkpt><trkpt lat="42.0772379" lon="13.5390078"><ele>728.0</ele><time>2026-05-01T11:16:11.027Z</time></trkpt><trkpt lat="42.0772236" lon="13.5388897"><ele>728.0</ele><time>2026-05-01T11:16:12.032Z</time></trkpt><trkpt lat="42.0772046" lon="13.5387884"><ele>728.0</ele><time>2026-05-01T11:16:13.033Z</time></trkpt><trkpt lat="42.0771836" lon="13.5386838"><ele>728.0</ele><time>2026-05-01T11:16:14.032Z</time></trkpt><trkpt lat="42.0771612" lon="13.5385578"><ele>728.0</ele><time>2026-05-01T11:16:15.038Z</time></trkpt><trkpt lat="42.0771369" lon="13.5384119"><ele>728.0</ele><time>2026-05-01T11:16:16.033Z</time></trkpt><trkpt lat="42.0771121" lon="13.5382514"><ele>728.0</ele><time>2026-05-01T11:16:17.044Z</time></trkpt><trkpt lat="42.0770761" lon="13.538059"><ele>728.0</ele><time>2026-05-01T11:16:18.028Z</time></trkpt><trkpt lat="42.0770322" lon="13.5378515"><ele>728.0</ele><time>2026-05-01T11:16:19.049Z</time></trkpt><trkpt lat="42.0769857" lon="13.5376238"><ele>728.0</ele><time>2026-05-01T11:16:20.039Z</time></trkpt><trkpt lat="42.0769378" lon="13.5373874"><ele>728.0</ele><time>2026-05-01T11:16:21.036Z</time></trkpt><trkpt lat="42.07689" lon="13.5371483"><ele>728.0</ele><time>2026-05-01T11:16:22.033Z</time></trkpt><trkpt lat="42.0768412" lon="13.5369029"><ele>727.6666666666666</ele><time>2026-05-01T11:16:23.074Z</time></trkpt><trkpt lat="42.0767957" lon="13.5366563"><ele>727.3333333333334</ele><time>2026-05-01T11:16:24.034Z</time></trkpt><trkpt lat="42.076747" lon="13.5364256"><ele>727.0</ele><time>2026-05-01T11:16:25.042Z</time></trkpt><trkpt lat="42.0767043" lon="13.5362024"><ele>726.3333333333334</ele><time>2026-05-01T11:16:26.033Z</time></trkpt><trkpt lat="42.0766608" lon="13.5359856"><ele>725.6666666666666</ele><time>2026-05-01T11:16:27.03Z</time></trkpt><trkpt lat="42.076623" lon="13.5357764"><ele>725.0</ele><time>2026-05-01T11:16:28.047Z</time></trkpt><trkpt lat="42.0765834" lon="13.5355804"><ele>724.25</ele><time>2026-05-01T11:16:29.035Z</time></trkpt><trkpt lat="42.0765474" lon="13.5354017"><ele>723.5</ele><time>2026-05-01T11:16:30.034Z</time></trkpt><trkpt lat="42.0765049" lon="13.5352312"><ele>722.75</ele><time>2026-05-01T11:16:31.035Z</time></trkpt><trkpt lat="42.0764517" lon="13.5350615"><ele>722.0</ele><time>2026-05-01T11:16:32.05Z</time></trkpt><trkpt lat="42.0763854" lon="13.5349014"><ele>722.0</ele><time>2026-05-01T11:16:33.023Z</time></trkpt><trkpt lat="42.0763142" lon="13.5347339"><ele>722.0</ele><time>2026-05-01T11:16:34.031Z</time></trkpt><trkpt lat="42.0762445" lon="13.5345664"><ele>722.0</ele><time>2026-05-01T11:16:35.024Z</time></trkpt><trkpt lat="42.076179" lon="13.5343932"><ele>722.0</ele><time>2026-05-01T11:16:36.036Z</time></trkpt><trkpt lat="42.076117" lon="13.5342212"><ele>722.25</ele><time>2026-05-01T11:16:37.026Z</time></trkpt><trkpt lat="42.0760523" lon="13.5340477"><ele>722.5</ele><time>2026-05-01T11:16:38.025Z</time></trkpt><trkpt lat="42.0759868" lon="13.5338724"><ele>722.75</ele><time>2026-05-01T11:16:39.027Z</time></trkpt><trkpt lat="42.0759212" lon="13.5336981"><ele>723.0</ele><time>2026-05-01T11:16:40.029Z</time></trkpt><trkpt lat="42.075853" lon="13.5335224"><ele>723.3333333333334</ele><time>2026-05-01T11:16:41.043Z</time></trkpt><trkpt lat="42.0757788" lon="13.533351"><ele>723.6666666666667</ele><time>2026-05-01T11:16:42.033Z</time></trkpt><trkpt lat="42.0757047" lon="13.5331669"><ele>724.0</ele><time>2026-05-01T11:16:43.033Z</time></trkpt><trkpt lat="42.0756293" lon="13.5329833"><ele>723.0</ele><time>2026-05-01T11:16:44.034Z</time></trkpt><trkpt lat="42.0755539" lon="13.5327944"><ele>722.0</ele><time>2026-05-01T11:16:45.029Z</time></trkpt><trkpt lat="42.0754792" lon="13.5326099"><ele>721.0</ele><time>2026-05-01T11:16:46.03Z</time></trkpt><trkpt lat="42.0753993" lon="13.5324256"><ele>721.0</ele><time>2026-05-01T11:16:47.026Z</time></trkpt><trkpt lat="42.0753213" lon="13.532243"><ele>721.0</ele><time>2026-05-01T11:16:48.037Z</time></trkpt><trkpt lat="42.0752532" lon="13.5320679"><ele>721.0</ele><time>2026-05-01T11:16:49.035Z</time></trkpt><trkpt lat="42.0751877" lon="13.5319011"><ele>721.0</ele><time>2026-05-01T11:16:50.025Z</time></trkpt><trkpt lat="42.0751182" lon="13.5317337"><ele>720.75</ele><time>2026-05-01T11:16:51.032Z</time></trkpt><trkpt lat="42.0750495" lon="13.5315658"><ele>720.5</ele><time>2026-05-01T11:16:52.042Z</time></trkpt><trkpt lat="42.0749841" lon="13.5314054"><ele>720.25</ele><time>2026-05-01T11:16:53.058Z</time></trkpt><trkpt lat="42.074919" lon="13.5312545"><ele>720.0</ele><time>2026-05-01T11:16:54.035Z</time></trkpt><trkpt lat="42.0748619" lon="13.5311172"><ele>719.6</ele><time>2026-05-01T11:16:55.037Z</time></trkpt><trkpt lat="42.0748098" lon="13.5309883"><ele>719.2</ele><time>2026-05-01T11:16:56.03Z</time></trkpt><trkpt lat="42.074765" lon="13.5308679"><ele>718.8</ele><time>2026-05-01T11:16:57.05Z</time></trkpt><trkpt lat="42.0747256" lon="13.530776"><ele>718.4</ele><time>2026-05-01T11:16:58.042Z</time></trkpt><trkpt lat="42.0746777" lon="13.5306517"><ele>718.0</ele><time>2026-05-01T11:17:00.024Z</time></trkpt><trkpt lat="42.0746287" lon="13.5305731"><ele>718.0</ele><time>2026-05-01T11:17:02.022Z</time></trkpt></trkseg></trk></gpx>